<?xml version='1.0' encoding='UTF-8'?><gpx version="1.1" creator="JPX - https://github.com/jenetics/jpx" xmlns="http://www.topografix.com/GPX/1/1"><trk><trkseg><trkpt lat="44.92422087661088" lon="11.988234834911097"><ele>-5.999999999999999</ele><time>2026-04-25T09:20:48Z</time></trkpt><trkpt lat="44.924218647706205" lon="11.988324690668344"><ele>-6.0</ele><time>2026-04-25T09:20:53Z</time></trkpt><trkpt lat="44.92420284358197" lon="11.988416413280339"><ele>-6.0</ele><time>2026-04-25T09:21:00Z</time></trkpt><trkpt lat="44.92425459124125" lon="11.988471000229174"><ele>-6.0</ele><time>2026-04-25T09:21:26.999Z</time></trkpt><trkpt lat="44.92432584924122" lon="11.988501638714686"><ele>-6.0</ele><time>2026-04-25T09:21:29.999Z</time></trkpt><trkpt lat="44.92439801248401" lon="11.98851772714137"><ele>-5.999999999999999</ele><time>2026-04-25T09:21:31.999Z</time></trkpt><trkpt lat="44.92441926606915" lon="11.988611494524203"><ele>-6.0</ele><time>2026-04-25T09:21:33.999Z</time></trkpt><trkpt lat="44.92441390269981" lon="11.988735447668553"><ele>-6.0</ele><time>2026-04-25T09:21:35.999Z</time></trkpt><trkpt lat="44.92442838234671" lon="11.988869559802628"><ele>-6.0</ele><time>2026-04-25T09:21:37.999Z</time></trkpt><trkpt lat="44.92441672235911" lon="11.989000248321755"><ele>-6.0</ele><time>2026-04-25T09:21:39.999Z</time></trkpt><trkpt lat="44.92441783682183" lon="11.989134893921"><ele>-6.0</ele><time>2026-04-25T09:21:41.999Z</time></trkpt><trkpt lat="44.92442545228927" lon="11.98926753597664"><ele>-6.0</ele><time>2026-04-25T09:21:43.999Z</time></trkpt><trkpt lat="44.92442531817707" lon="11.989400749308338"><ele>-6.0</ele><time>2026-04-25T09:21:45.999Z</time></trkpt><trkpt lat="44.92442950473484" lon="11.989529821063668"><ele>-6.0</ele><time>2026-04-25T09:21:47.999Z</time></trkpt><trkpt lat="44.92443206676765" lon="11.989662383838436"><ele>-6.0</ele><time>2026-04-25T09:21:49.999Z</time></trkpt><trkpt lat="44.92443195346528" lon="11.989800623594155"><ele>-6.0</ele><time>2026-04-25T09:21:51.999Z</time></trkpt><trkpt lat="44.924436762882365" lon="11.989934318331377"><ele>-6.0</ele><time>2026-04-25T09:21:53.999Z</time></trkpt><trkpt lat="44.92443771292717" lon="11.99006712457903"><ele>-6.0</ele><time>2026-04-25T09:21:55.999Z</time></trkpt><trkpt lat="44.92443739839827" lon="11.990202182202298"><ele>-6.0</ele><time>2026-04-25T09:21:57.999Z</time></trkpt><trkpt lat="44.92444198014162" lon="11.99033258598826"><ele>-6.0</ele><time>2026-04-25T09:21:59.999Z</time></trkpt><trkpt lat="44.924444001393894" lon="11.990470916880044"><ele>-6.0</ele><time>2026-04-25T09:22:01.999Z</time></trkpt><trkpt lat="44.92444611171547" lon="11.99060511689713"><ele>-6.0</ele><time>2026-04-25T09:22:03.999Z</time></trkpt><trkpt lat="44.924449988384254" lon="11.990736741514976"><ele>-6.199999999999999</ele><time>2026-04-25T09:22:05.999Z</time></trkpt><trkpt lat="44.92444962730345" lon="11.990868027538133"><ele>-6.3999999999999995</ele><time>2026-04-25T09:22:08Z</time></trkpt><trkpt lat="44.92446047580749" lon="11.991005250128396"><ele>-6.6</ele><time>2026-04-25T09:22:10Z</time></trkpt><trkpt lat="44.924424323660716" lon="11.991128639154486"><ele>-6.8</ele><time>2026-04-25T09:22:12Z</time></trkpt><trkpt lat="44.92433900409462" lon="11.991184731046447"><ele>-7.0</ele><time>2026-04-25T09:22:14Z</time></trkpt><trkpt lat="44.924248470758165" lon="11.991174760468585"><ele>-7.0</ele><time>2026-04-25T09:22:16Z</time></trkpt><trkpt lat="44.92415373074356" lon="11.99116837073286"><ele>-6.999999999999999</ele><time>2026-04-25T09:22:18Z</time></trkpt><trkpt lat="44.92405908948114" lon="11.991170693918788"><ele>-6.999999999999999</ele><time>2026-04-25T09:22:20Z</time></trkpt><trkpt lat="44.92396592010091" lon="11.991160864623826"><ele>-7.0</ele><time>2026-04-25T09:22:22Z</time></trkpt><trkpt lat="44.92386721835467" lon="11.991167912265725"><ele>-7.0</ele><time>2026-04-25T09:22:24Z</time></trkpt><trkpt lat="44.92367873685464" lon="11.991182602510296"><ele>-7.0</ele><time>2026-04-25T09:22:28Z</time></trkpt><trkpt lat="44.92358770457315" lon="11.99118872531451"><ele>-6.999999999999999</ele><time>2026-04-25T09:22:30Z</time></trkpt><trkpt lat="44.9234914255009" lon="11.9911861760145"><ele>-6.999999999999999</ele><time>2026-04-25T09:22:32Z</time></trkpt><trkpt lat="44.923402411399394" lon="11.991183314785753"><ele>-7.0</ele><time>2026-04-25T09:22:34Z</time></trkpt><trkpt lat="44.923307409175564" lon="11.991183596416603"><ele>-7.0</ele><time>2026-04-25T09:22:36Z</time></trkpt><trkpt lat="44.92321348157095" lon="11.991192884157035"><ele>-7.0</ele><time>2026-04-25T09:22:38Z</time></trkpt><trkpt lat="44.92312122521607" lon="11.991187192764501"><ele>-6.999999999999999</ele><time>2026-04-25T09:22:40Z</time></trkpt><trkpt lat="44.92303230215105" lon="11.991194982291857"><ele>-6.999999999999999</ele><time>2026-04-25T09:22:42Z</time></trkpt><trkpt lat="44.922940567769004" lon="11.991192667195731"><ele>-7.0</ele><time>2026-04-25T09:22:44Z</time></trkpt><trkpt lat="44.92284571847332" lon="11.991187049234359"><ele>-7.0</ele><time>2026-04-25T09:22:46Z</time></trkpt><trkpt lat="44.92275138610612" lon="11.991196754948554"><ele>-7.0</ele><time>2026-04-25T09:22:48Z</time></trkpt><trkpt lat="44.92266025109829" lon="11.991202402739395"><ele>-6.999999999999999</ele><time>2026-04-25T09:22:50Z</time></trkpt><trkpt lat="44.9225677380682" lon="11.991192371112577"><ele>-6.999999999999999</ele><time>2026-04-25T09:22:52Z</time></trkpt><trkpt lat="44.922474035611984" lon="11.991195567611804"><ele>-7.0</ele><time>2026-04-25T09:22:54Z</time></trkpt><trkpt lat="44.92238739973347" lon="11.99119564684882"><ele>-7.0</ele><time>2026-04-25T09:22:56Z</time></trkpt><trkpt lat="44.92229441250868" lon="11.991200474419223"><ele>-6.8</ele><time>2026-04-25T09:22:58Z</time></trkpt><trkpt lat="44.92219680163712" lon="11.991201439183923"><ele>-6.6</ele><time>2026-04-25T09:23:00Z</time></trkpt><trkpt lat="44.922100480191695" lon="11.991204768278807"><ele>-6.3999999999999995</ele><time>2026-04-25T09:23:02Z</time></trkpt><trkpt lat="44.92200769372018" lon="11.99121097508538"><ele>-6.199999999999999</ele><time>2026-04-25T09:23:04Z</time></trkpt><trkpt lat="44.92191727502008" lon="11.991202984155137"><ele>-6.0</ele><time>2026-04-25T09:23:06Z</time></trkpt><trkpt lat="44.921822123823496" lon="11.9912001422561"><ele>-6.0</ele><time>2026-04-25T09:23:08Z</time></trkpt><trkpt lat="44.921730194820846" lon="11.991198951263778"><ele>-6.0</ele><time>2026-04-25T09:23:10Z</time></trkpt><trkpt lat="44.921639820287034" lon="11.991210357741906"><ele>-6.0</ele><time>2026-04-25T09:23:12Z</time></trkpt><trkpt lat="44.92154510639809" lon="11.991202681427817"><ele>-6.0</ele><time>2026-04-25T09:23:14Z</time></trkpt><trkpt lat="44.92145304116657" lon="11.991206287389272"><ele>-6.0</ele><time>2026-04-25T09:23:16Z</time></trkpt><trkpt lat="44.921357905202335" lon="11.991214820596921"><ele>-6.0</ele><time>2026-04-25T09:23:18Z</time></trkpt><trkpt lat="44.92126146227685" lon="11.991215683322375"><ele>-6.0</ele><time>2026-04-25T09:23:19.999Z</time></trkpt><trkpt lat="44.92116774078325" lon="11.991221949898195"><ele>-6.0</ele><time>2026-04-25T09:23:21.999Z</time></trkpt><trkpt lat="44.921089005544715" lon="11.991219391154553"><ele>-6.0</ele><time>2026-04-25T09:23:23.999Z</time></trkpt><trkpt lat="44.9210106467996" lon="11.991222188520418"><ele>-6.0</ele><time>2026-04-25T09:23:25.999Z</time></trkpt><trkpt lat="44.92091385551907" lon="11.991227712965081"><ele>-6.0</ele><time>2026-04-25T09:23:27.999Z</time></trkpt><trkpt lat="44.920811019782356" lon="11.991214312241647"><ele>-6.0</ele><time>2026-04-25T09:23:29.999Z</time></trkpt><trkpt lat="44.92070753604461" lon="11.991207413933747"><ele>-6.0</ele><time>2026-04-25T09:23:31.999Z</time></trkpt><trkpt lat="44.92060714135806" lon="11.991209713060238"><ele>-6.0</ele><time>2026-04-25T09:23:33.999Z</time></trkpt><trkpt lat="44.9205091170032" lon="11.991220441905865"><ele>-6.0</ele><time>2026-04-25T09:23:35.999Z</time></trkpt><trkpt lat="44.92041884915352" lon="11.991219731897202"><ele>-6.0</ele><time>2026-04-25T09:23:37.999Z</time></trkpt><trkpt lat="44.92033072796783" lon="11.99122528103732"><ele>-6.0</ele><time>2026-04-25T09:23:39.999Z</time></trkpt><trkpt lat="44.92025270116541" lon="11.991227817273451"><ele>-6.0</ele><time>2026-04-25T09:23:41.999Z</time></trkpt><trkpt lat="44.92017242900876" lon="11.991225389191712"><ele>-6.0</ele><time>2026-04-25T09:23:43.999Z</time></trkpt><trkpt lat="44.92008653808548" lon="11.991226241206043"><ele>-6.0</ele><time>2026-04-25T09:23:45.999Z</time></trkpt><trkpt lat="44.919995550420246" lon="11.991232859742663"><ele>-6.0</ele><time>2026-04-25T09:23:47.999Z</time></trkpt><trkpt lat="44.91990115091797" lon="11.991231090934244"><ele>-6.0</ele><time>2026-04-25T09:23:49.999Z</time></trkpt><trkpt lat="44.91980368216809" lon="11.991232333285009"><ele>-6.199999999999999</ele><time>2026-04-25T09:23:51.999Z</time></trkpt><trkpt lat="44.91970857770872" lon="11.991232191436973"><ele>-6.3999999999999995</ele><time>2026-04-25T09:23:53.999Z</time></trkpt><trkpt lat="44.919612749918244" lon="11.991235054045314"><ele>-6.6</ele><time>2026-04-25T09:23:55.999Z</time></trkpt><trkpt lat="44.919523286893735" lon="11.991240083080307"><ele>-6.8</ele><time>2026-04-25T09:23:57.999Z</time></trkpt><trkpt lat="44.91943865553865" lon="11.99124261356605"><ele>-7.0</ele><time>2026-04-25T09:23:59.999Z</time></trkpt><trkpt lat="44.919348737674156" lon="11.991241462768278"><ele>-7.000000000000001</ele><time>2026-04-25T09:24:01.999Z</time></trkpt><trkpt lat="44.9192643489651" lon="11.991241012352347"><ele>-7.0</ele><time>2026-04-25T09:24:03.999Z</time></trkpt><trkpt lat="44.919181924860546" lon="11.991244052400958"><ele>-7.0</ele><time>2026-04-25T09:24:05.999Z</time></trkpt><trkpt lat="44.91909044460682" lon="11.991246054666956"><ele>-7.0</ele><time>2026-04-25T09:24:07.999Z</time></trkpt><trkpt lat="44.91899730599133" lon="11.99124905906233"><ele>-7.000000000000001</ele><time>2026-04-25T09:24:09.999Z</time></trkpt><trkpt lat="44.9189145157106" lon="11.991250531093073"><ele>-7.0</ele><time>2026-04-25T09:24:11.999Z</time></trkpt><trkpt lat="44.91883657238805" lon="11.991248206779284"><ele>-6.833333333333334</ele><time>2026-04-25T09:24:14Z</time></trkpt><trkpt lat="44.9187593439827" lon="11.991251205150032"><ele>-6.666666666666667</ele><time>2026-04-25T09:24:16Z</time></trkpt><trkpt lat="44.91868605057919" lon="11.991254927903832"><ele>-6.5</ele><time>2026-04-25T09:24:18Z</time></trkpt><trkpt lat="44.918618525818" lon="11.991258368117608"><ele>-6.333333333333334</ele><time>2026-04-25T09:24:20Z</time></trkpt><trkpt lat="44.918532419192424" lon="11.991257436981908"><ele>-6.166666666666667</ele><time>2026-04-25T09:24:22Z</time></trkpt><trkpt lat="44.91843936730011" lon="11.991253949598413"><ele>-6.0</ele><time>2026-04-25T09:24:24Z</time></trkpt><trkpt lat="44.91834472681063" lon="11.991260651377662"><ele>-6.333333333333333</ele><time>2026-04-25T09:24:26Z</time></trkpt><trkpt lat="44.91825062344041" lon="11.991256323053037"><ele>-6.666666666666666</ele><time>2026-04-25T09:24:28Z</time></trkpt><trkpt lat="44.918159842892905" lon="11.99125797714247"><ele>-7.0</ele><time>2026-04-25T09:24:30Z</time></trkpt><trkpt lat="44.91807193075044" lon="11.99125572802721"><ele>-7.333333333333333</ele><time>2026-04-25T09:24:32Z</time></trkpt><trkpt lat="44.91798874177514" lon="11.991258164565707"><ele>-7.666666666666666</ele><time>2026-04-25T09:24:34Z</time></trkpt><trkpt lat="44.9179074729274" lon="11.991255974360671"><ele>-8.0</ele><time>2026-04-25T09:24:36Z</time></trkpt><trkpt lat="44.917816846607444" lon="11.991260807942966"><ele>-8.0</ele><time>2026-04-25T09:24:38Z</time></trkpt><trkpt lat="44.91772769928738" lon="11.991261114335652"><ele>-8.0</ele><time>2026-04-25T09:24:40Z</time></trkpt><trkpt lat="44.91763070958658" lon="11.991269898247358"><ele>-8.0</ele><time>2026-04-25T09:24:42Z</time></trkpt><trkpt lat="44.91754126713472" lon="11.991271152909498"><ele>-8.0</ele><time>2026-04-25T09:24:44Z</time></trkpt><trkpt lat="44.91745182790219" lon="11.991267983480176"><ele>-8.0</ele><time>2026-04-25T09:24:46Z</time></trkpt><trkpt lat="44.917360596657915" lon="11.991274793428078"><ele>-7.800000000000001</ele><time>2026-04-25T09:24:48Z</time></trkpt><trkpt lat="44.91726401817006" lon="11.991280598333768"><ele>-7.6000000000000005</ele><time>2026-04-25T09:24:50Z</time></trkpt><trkpt lat="44.91716621470831" lon="11.991276730042753"><ele>-7.3999999999999995</ele><time>2026-04-25T09:24:52Z</time></trkpt><trkpt lat="44.917073747375404" lon="11.991278366921106"><ele>-7.199999999999999</ele><time>2026-04-25T09:24:54Z</time></trkpt><trkpt lat="44.916983613665515" lon="11.991281812338181"><ele>-7.0</ele><time>2026-04-25T09:24:56Z</time></trkpt><trkpt lat="44.9168837041252" lon="11.991280707217689"><ele>-7.000000000000001</ele><time>2026-04-25T09:24:58Z</time></trkpt><trkpt lat="44.916785645283326" lon="11.991286024316638"><ele>-7.0</ele><time>2026-04-25T09:25:00Z</time></trkpt><trkpt lat="44.91669474377708" lon="11.991288704448868"><ele>-7.0</ele><time>2026-04-25T09:25:02Z</time></trkpt><trkpt lat="44.91660644378562" lon="11.99128591596405"><ele>-7.0</ele><time>2026-04-25T09:25:04Z</time></trkpt><trkpt lat="44.91652449993009" lon="11.991284715254714"><ele>-7.000000000000001</ele><time>2026-04-25T09:25:06Z</time></trkpt><trkpt lat="44.9164398262622" lon="11.991281915690747"><ele>-7.0</ele><time>2026-04-25T09:25:08Z</time></trkpt><trkpt lat="44.916346879823614" lon="11.991279434817987"><ele>-6.833333333333334</ele><time>2026-04-25T09:25:10Z</time></trkpt><trkpt lat="44.91625813819829" lon="11.991280420119743"><ele>-6.666666666666667</ele><time>2026-04-25T09:25:12Z</time></trkpt><trkpt lat="44.91616040637118" lon="11.991288209860489"><ele>-6.5</ele><time>2026-04-25T09:25:13.999Z</time></trkpt><trkpt lat="44.91607542195082" lon="11.991287809195551"><ele>-6.333333333333334</ele><time>2026-04-25T09:25:15.999Z</time></trkpt><trkpt lat="44.915988598565335" lon="11.991287754004945"><ele>-6.166666666666667</ele><time>2026-04-25T09:25:17.999Z</time></trkpt><trkpt lat="44.91589886054361" lon="11.991287891416347"><ele>-6.0</ele><time>2026-04-25T09:25:19.999Z</time></trkpt><trkpt lat="44.915809193015996" lon="11.9912899625394"><ele>-5.833333333333333</ele><time>2026-04-25T09:25:21.999Z</time></trkpt><trkpt lat="44.915730146778415" lon="11.991295346095399"><ele>-5.666666666666667</ele><time>2026-04-25T09:25:23.999Z</time></trkpt><trkpt lat="44.91565307907314" lon="11.991291867036196"><ele>-5.5</ele><time>2026-04-25T09:25:25.999Z</time></trkpt><trkpt lat="44.915561269023684" lon="11.991295008358183"><ele>-5.333333333333334</ele><time>2026-04-25T09:25:27.999Z</time></trkpt><trkpt lat="44.91546807878867" lon="11.991300063512938"><ele>-5.166666666666667</ele><time>2026-04-25T09:25:29.999Z</time></trkpt><trkpt lat="44.915375160554994" lon="11.991299878186028"><ele>-5.0</ele><time>2026-04-25T09:25:31.999Z</time></trkpt><trkpt lat="44.91527977134642" lon="11.991303915235292"><ele>-5.0</ele><time>2026-04-25T09:25:33.999Z</time></trkpt><trkpt lat="44.915191882444304" lon="11.991300807594161"><ele>-5.0</ele><time>2026-04-25T09:25:35.999Z</time></trkpt><trkpt lat="44.91509738385688" lon="11.991306443543337"><ele>-5.0</ele><time>2026-04-25T09:25:37.999Z</time></trkpt><trkpt lat="44.915006136464605" lon="11.9913011456046"><ele>-5.0</ele><time>2026-04-25T09:25:39.999Z</time></trkpt><trkpt lat="44.914925035103" lon="11.991308013811507"><ele>-5.0</ele><time>2026-04-25T09:25:41.999Z</time></trkpt><trkpt lat="44.914836363430986" lon="11.991307541131267"><ele>-5.0</ele><time>2026-04-25T09:25:43.999Z</time></trkpt><trkpt lat="44.91474486285622" lon="11.991308684457175"><ele>-5.0</ele><time>2026-04-25T09:25:45.999Z</time></trkpt><trkpt lat="44.914652754234844" lon="11.991316740977922"><ele>-5.0</ele><time>2026-04-25T09:25:47.999Z</time></trkpt><trkpt lat="44.91456872579337" lon="11.991313955566628"><ele>-5.0</ele><time>2026-04-25T09:25:49.999Z</time></trkpt><trkpt lat="44.91448571403153" lon="11.991311469038573"><ele>-5.0</ele><time>2026-04-25T09:25:51.999Z</time></trkpt><trkpt lat="44.91440265335718" lon="11.991305927327332"><ele>-5.0</ele><time>2026-04-25T09:25:53.999Z</time></trkpt><trkpt lat="44.91431674562515" lon="11.991304700114348"><ele>-5.0</ele><time>2026-04-25T09:25:55.999Z</time></trkpt><trkpt lat="44.914238078727124" lon="11.991310524131997"><ele>-5.0</ele><time>2026-04-25T09:25:57.999Z</time></trkpt><trkpt lat="44.91416173588003" lon="11.991313198919682"><ele>-5.0</ele><time>2026-04-25T09:25:59.999Z</time></trkpt><trkpt lat="44.914081837583204" lon="11.991323022475923"><ele>-5.0</ele><time>2026-04-25T09:26:01.999Z</time></trkpt><trkpt lat="44.91399481917359" lon="11.991318848701495"><ele>-5.0</ele><time>2026-04-25T09:26:03.999Z</time></trkpt><trkpt lat="44.91390208731347" lon="11.991312899408728"><ele>-5.0</ele><time>2026-04-25T09:26:05.999Z</time></trkpt><trkpt lat="44.91381121094415" lon="11.99131915529014"><ele>-5.0</ele><time>2026-04-25T09:26:07.999Z</time></trkpt><trkpt lat="44.91372082043121" lon="11.99131798726336"><ele>-5.0</ele><time>2026-04-25T09:26:09.999Z</time></trkpt><trkpt lat="44.91362187128956" lon="11.9913190824469"><ele>-5.0</ele><time>2026-04-25T09:26:11.999Z</time></trkpt><trkpt lat="44.913524489806065" lon="11.991318712596026"><ele>-5.0</ele><time>2026-04-25T09:26:13.999Z</time></trkpt><trkpt lat="44.91342819423261" lon="11.991325411607338"><ele>-5.0</ele><time>2026-04-25T09:26:15.999Z</time></trkpt><trkpt lat="44.91333728562632" lon="11.991317955456738"><ele>-5.0</ele><time>2026-04-25T09:26:17.999Z</time></trkpt><trkpt lat="44.913253545619796" lon="11.991318953707367"><ele>-5.0</ele><time>2026-04-25T09:26:20Z</time></trkpt><trkpt lat="44.91317352573172" lon="11.991309862096152"><ele>-5.0</ele><time>2026-04-25T09:26:22Z</time></trkpt><trkpt lat="44.91308404426718" lon="11.99130971428964"><ele>-5.0</ele><time>2026-04-25T09:26:24Z</time></trkpt><trkpt lat="44.912988963703505" lon="11.991307786507472"><ele>-5.0</ele><time>2026-04-25T09:26:26Z</time></trkpt><trkpt lat="44.91290125148248" lon="11.991303646303242"><ele>-5.0</ele><time>2026-04-25T09:26:28Z</time></trkpt><trkpt lat="44.91280817560965" lon="11.99129596405318"><ele>-5.0</ele><time>2026-04-25T09:26:30Z</time></trkpt><trkpt lat="44.91271376911397" lon="11.991288453245401"><ele>-5.0</ele><time>2026-04-25T09:26:32Z</time></trkpt><trkpt lat="44.912621102131126" lon="11.991284064068806"><ele>-5.0</ele><time>2026-04-25T09:26:34Z</time></trkpt><trkpt lat="44.91253074003998" lon="11.991278718247358"><ele>-5.0</ele><time>2026-04-25T09:26:36Z</time></trkpt><trkpt lat="44.91243647517651" lon="11.991276157589494"><ele>-5.0</ele><time>2026-04-25T09:26:38Z</time></trkpt><trkpt lat="44.91234299194428" lon="11.991269625719825"><ele>-5.0</ele><time>2026-04-25T09:26:40Z</time></trkpt><trkpt lat="44.91224595159312" lon="11.991267335870686"><ele>-5.2</ele><time>2026-04-25T09:26:42Z</time></trkpt><trkpt lat="44.91215222140065" lon="11.991256587772922"><ele>-5.4</ele><time>2026-04-25T09:26:44Z</time></trkpt><trkpt lat="44.91205716979799" lon="11.991254874483356"><ele>-5.6</ele><time>2026-04-25T09:26:46Z</time></trkpt><trkpt lat="44.91196391354612" lon="11.991246070393867"><ele>-5.8</ele><time>2026-04-25T09:26:48Z</time></trkpt><trkpt lat="44.911873685845144" lon="11.991243665226204"><ele>-6.0</ele><time>2026-04-25T09:26:50Z</time></trkpt><trkpt lat="44.911780850694306" lon="11.991236952794093"><ele>-6.199999999999999</ele><time>2026-04-25T09:26:52Z</time></trkpt><trkpt lat="44.911687800417404" lon="11.991235681553766"><ele>-6.3999999999999995</ele><time>2026-04-25T09:26:54Z</time></trkpt><trkpt lat="44.91159426342451" lon="11.991230577485815"><ele>-6.6</ele><time>2026-04-25T09:26:56Z</time></trkpt><trkpt lat="44.91150387292626" lon="11.99122397544187"><ele>-6.8</ele><time>2026-04-25T09:26:58Z</time></trkpt><trkpt lat="44.91141381636655" lon="11.991215841765275"><ele>-7.0</ele><time>2026-04-25T09:27:00Z</time></trkpt><trkpt lat="44.91132101578093" lon="11.991213448612609"><ele>-7.0</ele><time>2026-04-25T09:27:02Z</time></trkpt><trkpt lat="44.91122747971667" lon="11.991202102867232"><ele>-6.999999999999999</ele><time>2026-04-25T09:27:04Z</time></trkpt><trkpt lat="44.91113486938386" lon="11.991197582038128"><ele>-6.999999999999999</ele><time>2026-04-25T09:27:06Z</time></trkpt><trkpt lat="44.911042162155496" lon="11.99119284662354"><ele>-7.0</ele><time>2026-04-25T09:27:08Z</time></trkpt><trkpt lat="44.91094699461115" lon="11.991184131238978"><ele>-7.0</ele><time>2026-04-25T09:27:10Z</time></trkpt><trkpt lat="44.91085646661135" lon="11.991173129410432"><ele>-7.199999999999999</ele><time>2026-04-25T09:27:12Z</time></trkpt><trkpt lat="44.91076348956745" lon="11.99117288110804"><ele>-7.3999999999999995</ele><time>2026-04-25T09:27:14Z</time></trkpt><trkpt lat="44.91067377954039" lon="11.991162299671268"><ele>-7.6000000000000005</ele><time>2026-04-25T09:27:16Z</time></trkpt><trkpt lat="44.910576336872964" lon="11.991164100834734"><ele>-7.800000000000001</ele><time>2026-04-25T09:27:18Z</time></trkpt><trkpt lat="44.91048538664287" lon="11.991155243356257"><ele>-8.0</ele><time>2026-04-25T09:27:20Z</time></trkpt><trkpt lat="44.910401328611165" lon="11.991147172040423"><ele>-7.999999999999999</ele><time>2026-04-25T09:27:22Z</time></trkpt><trkpt lat="44.910323011831245" lon="11.991144383781753"><ele>-8.0</ele><time>2026-04-25T09:27:23.999Z</time></trkpt><trkpt lat="44.91024355031831" lon="11.991141099819247"><ele>-8.0</ele><time>2026-04-25T09:27:25.999Z</time></trkpt><trkpt lat="44.91015265954924" lon="11.991135145404307"><ele>-8.0</ele><time>2026-04-25T09:27:27.999Z</time></trkpt><trkpt lat="44.91006312361692" lon="11.99112751051289"><ele>-7.999999999999999</ele><time>2026-04-25T09:27:29.999Z</time></trkpt><trkpt lat="44.90998200599199" lon="11.99112464694305"><ele>-8.0</ele><time>2026-04-25T09:27:31.999Z</time></trkpt><trkpt lat="44.90990645636165" lon="11.991118923164622"><ele>-7.666666666666666</ele><time>2026-04-25T09:27:33.999Z</time></trkpt><trkpt lat="44.909823082144115" lon="11.991112005429056"><ele>-7.333333333333333</ele><time>2026-04-25T09:27:35.999Z</time></trkpt><trkpt lat="44.90973216396055" lon="11.991105299191451"><ele>-7.0</ele><time>2026-04-25T09:27:37.999Z</time></trkpt><trkpt lat="44.90964328307315" lon="11.99109756647809"><ele>-6.666666666666666</ele><time>2026-04-25T09:27:39.999Z</time></trkpt><trkpt lat="44.90954798476959" lon="11.991096547002487"><ele>-6.333333333333333</ele><time>2026-04-25T09:27:41.999Z</time></trkpt><trkpt lat="44.90946286759087" lon="11.991087096240951"><ele>-6.0</ele><time>2026-04-25T09:27:43.999Z</time></trkpt><trkpt lat="44.9093779408675" lon="11.99108460444411"><ele>-6.0</ele><time>2026-04-25T09:27:45.999Z</time></trkpt><trkpt lat="44.90928687830609" lon="11.991082870365643"><ele>-6.0</ele><time>2026-04-25T09:27:47.999Z</time></trkpt><trkpt lat="44.909198129145494" lon="11.9910724845071"><ele>-6.0</ele><time>2026-04-25T09:27:49.999Z</time></trkpt><trkpt lat="44.90911036948189" lon="11.991064048329319"><ele>-6.0</ele><time>2026-04-25T09:27:51.999Z</time></trkpt><trkpt lat="44.90901778432567" lon="11.991060950332185"><ele>-6.0</ele><time>2026-04-25T09:27:53.999Z</time></trkpt><trkpt lat="44.90892121335398" lon="11.99105753180607"><ele>-5.666666666666667</ele><time>2026-04-25T09:27:55.999Z</time></trkpt><trkpt lat="44.908833768557336" lon="11.99104956866503"><ele>-5.333333333333333</ele><time>2026-04-25T09:27:57.999Z</time></trkpt><trkpt lat="44.90874966342862" lon="11.991046505705572"><ele>-5.0</ele><time>2026-04-25T09:27:59.999Z</time></trkpt><trkpt lat="44.90866859606925" lon="11.991036812463864"><ele>-4.666666666666666</ele><time>2026-04-25T09:28:01.999Z</time></trkpt><trkpt lat="44.908591502931145" lon="11.991031428386092"><ele>-4.333333333333333</ele><time>2026-04-25T09:28:03.999Z</time></trkpt><trkpt lat="44.90851669727391" lon="11.991023815126827"><ele>-4.0</ele><time>2026-04-25T09:28:05.999Z</time></trkpt><trkpt lat="44.908444851757665" lon="11.991018858399555"><ele>-3.9999999999999996</ele><time>2026-04-25T09:28:07.999Z</time></trkpt><trkpt lat="44.90835740512822" lon="11.991024680526852"><ele>-4.0</ele><time>2026-04-25T09:28:10.999Z</time></trkpt><trkpt lat="44.90828762775797" lon="11.991071262012689"><ele>-4.0</ele><time>2026-04-25T09:28:13.999Z</time></trkpt><trkpt lat="44.90828360558143" lon="11.991176755712285"><ele>-4.0</ele><time>2026-04-25T09:28:15.999Z</time></trkpt><trkpt lat="44.90831781296076" lon="11.99129772641809"><ele>-3.9999999999999996</ele><time>2026-04-25T09:28:17.999Z</time></trkpt><trkpt lat="44.90834971607069" lon="11.991412630675688"><ele>-4.0</ele><time>2026-04-25T09:28:19.999Z</time></trkpt><trkpt lat="44.908357679967644" lon="11.991536286911948"><ele>-4.0</ele><time>2026-04-25T09:28:21.999Z</time></trkpt><trkpt lat="44.90837607893055" lon="11.991660369098216"><ele>-4.0</ele><time>2026-04-25T09:28:23.999Z</time></trkpt><trkpt lat="44.90840264636143" lon="11.991782519125186"><ele>-4.0</ele><time>2026-04-25T09:28:26Z</time></trkpt><trkpt lat="44.90842689678316" lon="11.991910822218907"><ele>-4.0</ele><time>2026-04-25T09:28:28Z</time></trkpt><trkpt lat="44.908446796678874" lon="11.992041220829222"><ele>-4.0</ele><time>2026-04-25T09:28:30Z</time></trkpt><trkpt lat="44.908467985071304" lon="11.992170592669028"><ele>-4.6</ele><time>2026-04-25T09:28:32Z</time></trkpt><trkpt lat="44.908491466131906" lon="11.992301398556235"><ele>-5.2</ele><time>2026-04-25T09:28:34Z</time></trkpt><trkpt lat="44.908515375836714" lon="11.992432227172678"><ele>-5.799999999999999</ele><time>2026-04-25T09:28:36Z</time></trkpt><trkpt lat="44.90853680278421" lon="11.9925640007779"><ele>-6.3999999999999995</ele><time>2026-04-25T09:28:38Z</time></trkpt><trkpt lat="44.908555048939704" lon="11.992698564880458"><ele>-7.0</ele><time>2026-04-25T09:28:40Z</time></trkpt><trkpt lat="44.908586579603785" lon="11.9928358602542"><ele>-7.0</ele><time>2026-04-25T09:28:42Z</time></trkpt><trkpt lat="44.90861139358525" lon="11.992992962442372"><ele>-6.999999999999999</ele><time>2026-04-25T09:28:44Z</time></trkpt><trkpt lat="44.90864201075036" lon="11.993139683154446"><ele>-6.999999999999999</ele><time>2026-04-25T09:28:46Z</time></trkpt><trkpt lat="44.9086601804693" lon="11.993276061702456"><ele>-7.0</ele><time>2026-04-25T09:28:48Z</time></trkpt><trkpt lat="44.90868385030371" lon="11.993408444514635"><ele>-7.0</ele><time>2026-04-25T09:28:50Z</time></trkpt><trkpt lat="44.90870708976806" lon="11.993543395768592"><ele>-6.8</ele><time>2026-04-25T09:28:52Z</time></trkpt><trkpt lat="44.90872951310302" lon="11.993674440510164"><ele>-6.6</ele><time>2026-04-25T09:28:54Z</time></trkpt><trkpt lat="44.908753453591" lon="11.993804706210634"><ele>-6.3999999999999995</ele><time>2026-04-25T09:28:56Z</time></trkpt><trkpt lat="44.908776468723204" lon="11.993935127351607"><ele>-6.199999999999999</ele><time>2026-04-25T09:28:58Z</time></trkpt><trkpt lat="44.908794570097186" lon="11.994066452843708"><ele>-6.0</ele><time>2026-04-25T09:29:00Z</time></trkpt><trkpt lat="44.9088030627628" lon="11.994163440302183"><ele>-5.666666666666667</ele><time>2026-04-25T09:29:02Z</time></trkpt><trkpt lat="44.908825600857504" lon="11.99424978933452"><ele>-5.333333333333333</ele><time>2026-04-25T09:31:57Z</time></trkpt><trkpt lat="44.90884802286331" lon="11.99437743775673"><ele>-5.0</ele><time>2026-04-25T09:38:02Z</time></trkpt><trkpt lat="44.90886135330068" lon="11.994479643472442"><ele>-4.666666666666666</ele><time>2026-04-25T09:38:04.999Z</time></trkpt><trkpt lat="44.90888713803761" lon="11.994570791870606"><ele>-4.333333333333333</ele><time>2026-04-25T09:38:06.999Z</time></trkpt><trkpt lat="44.908898152634784" lon="11.994677025385496"><ele>-4.0</ele><time>2026-04-25T09:38:08.999Z</time></trkpt><trkpt lat="44.908917772540924" lon="11.994801541910363"><ele>-4.0</ele><time>2026-04-25T09:38:10.999Z</time></trkpt><trkpt lat="44.908940476524336" lon="11.994923492355653"><ele>-4.0</ele><time>2026-04-25T09:38:12.999Z</time></trkpt><trkpt lat="44.9089599262077" lon="11.995049879462918"><ele>-4.0</ele><time>2026-04-25T09:38:14.999Z</time></trkpt><trkpt lat="44.90898955193686" lon="11.995176688996954"><ele>-4.0</ele><time>2026-04-25T09:38:16.999Z</time></trkpt><trkpt lat="44.90901460221168" lon="11.995300568065577"><ele>-4.0</ele><time>2026-04-25T09:38:18.999Z</time></trkpt><trkpt lat="44.909034520712375" lon="11.995427695028472"><ele>-4.333333333333333</ele><time>2026-04-25T09:38:20.999Z</time></trkpt><trkpt lat="44.90906368146107" lon="11.99555289250575"><ele>-4.666666666666666</ele><time>2026-04-25T09:38:22.999Z</time></trkpt><trkpt lat="44.909075213497644" lon="11.995671980625394"><ele>-5.0</ele><time>2026-04-25T09:38:24.999Z</time></trkpt><trkpt lat="44.909097482254865" lon="11.995789944013696"><ele>-5.333333333333333</ele><time>2026-04-25T09:38:26.999Z</time></trkpt><trkpt lat="44.90912045790873" lon="11.995911338655942"><ele>-5.666666666666667</ele><time>2026-04-25T09:38:28.999Z</time></trkpt><trkpt lat="44.90913970211382" lon="11.99603100952961"><ele>-6.0</ele><time>2026-04-25T09:38:30.999Z</time></trkpt><trkpt lat="44.909161678238696" lon="11.99614595514706"><ele>-6.166666666666667</ele><time>2026-04-25T09:38:32.999Z</time></trkpt><trkpt lat="44.90918304317812" lon="11.99624064131051"><ele>-6.333333333333334</ele><time>2026-04-25T09:38:34.999Z</time></trkpt><trkpt lat="44.90919473822743" lon="11.996352216501956"><ele>-6.5</ele><time>2026-04-25T09:38:36.999Z</time></trkpt><trkpt lat="44.90922078416047" lon="11.99647334618242"><ele>-6.666666666666667</ele><time>2026-04-25T09:38:38.999Z</time></trkpt><trkpt lat="44.90924069229838" lon="11.99659249391453"><ele>-6.833333333333334</ele><time>2026-04-25T09:38:40.999Z</time></trkpt><trkpt lat="44.9092645799572" lon="11.99671339318488"><ele>-7.0</ele><time>2026-04-25T09:38:42.999Z</time></trkpt><trkpt lat="44.90928970936135" lon="11.996835396567576"><ele>-7.166666666666667</ele><time>2026-04-25T09:38:44.999Z</time></trkpt><trkpt lat="44.90930956584433" lon="11.996950189202588"><ele>-7.333333333333334</ele><time>2026-04-25T09:38:46.999Z</time></trkpt><trkpt lat="44.90933188878266" lon="11.997069586390925"><ele>-7.5</ele><time>2026-04-25T09:38:48.999Z</time></trkpt><trkpt lat="44.909350746777136" lon="11.997180442689869"><ele>-7.666666666666666</ele><time>2026-04-25T09:38:50.999Z</time></trkpt><trkpt lat="44.90937290694581" lon="11.997282916121847"><ele>-7.833333333333333</ele><time>2026-04-25T09:38:52.999Z</time></trkpt><trkpt lat="44.909396011597785" lon="11.997379077672846"><ele>-8.0</ele><time>2026-04-25T09:38:55Z</time></trkpt><trkpt lat="44.90941230213438" lon="11.997488243622053"><ele>-7.833333333333333</ele><time>2026-04-25T09:38:57Z</time></trkpt><trkpt lat="44.90935505305565" lon="11.997581871328022"><ele>-7.666666666666666</ele><time>2026-04-25T09:39:00Z</time></trkpt><trkpt lat="44.90927689999534" lon="11.997581893888322"><ele>-7.5</ele><time>2026-04-25T09:39:02Z</time></trkpt><trkpt lat="44.909188164449326" lon="11.997578827289429"><ele>-7.333333333333334</ele><time>2026-04-25T09:39:04Z</time></trkpt><trkpt lat="44.909107908344716" lon="11.997573266699781"><ele>-7.166666666666667</ele><time>2026-04-25T09:39:06Z</time></trkpt><trkpt lat="44.90902849720034" lon="11.997579876476985"><ele>-7.0</ele><time>2026-04-25T09:39:08Z</time></trkpt><trkpt lat="44.9089543049123" lon="11.99757892993141"><ele>-6.833333333333334</ele><time>2026-04-25T09:39:10Z</time></trkpt><trkpt lat="44.90887132634509" lon="11.997586019602497"><ele>-6.666666666666667</ele><time>2026-04-25T09:39:12Z</time></trkpt><trkpt lat="44.90878524958818" lon="11.997589261388066"><ele>-6.5</ele><time>2026-04-25T09:39:14Z</time></trkpt><trkpt lat="44.908697276942924" lon="11.997588464323359"><ele>-6.333333333333334</ele><time>2026-04-25T09:39:16Z</time></trkpt><trkpt lat="44.908613976261314" lon="11.99759297524954"><ele>-6.166666666666667</ele><time>2026-04-25T09:39:18Z</time></trkpt><trkpt lat="44.90852628172662" lon="11.997595994663802"><ele>-6.0</ele><time>2026-04-25T09:39:20Z</time></trkpt><trkpt lat="44.90843492737425" lon="11.997593040654303"><ele>-6.0</ele><time>2026-04-25T09:39:22Z</time></trkpt><trkpt lat="44.90834508060591" lon="11.997596190062353"><ele>-6.0</ele><time>2026-04-25T09:39:24Z</time></trkpt><trkpt lat="44.90825554926965" lon="11.997602103603223"><ele>-6.0</ele><time>2026-04-25T09:39:26Z</time></trkpt><trkpt lat="44.908163299780746" lon="11.997604357766745"><ele>-6.0</ele><time>2026-04-25T09:39:28Z</time></trkpt><trkpt lat="44.90807190052544" lon="11.997603769060696"><ele>-6.0</ele><time>2026-04-25T09:39:30Z</time></trkpt><trkpt lat="44.90798006522385" lon="11.997606458756305"><ele>-6.0</ele><time>2026-04-25T09:39:32Z</time></trkpt><trkpt lat="44.90788879913905" lon="11.997606760012696"><ele>-6.0</ele><time>2026-04-25T09:39:34Z</time></trkpt><trkpt lat="44.90779717515078" lon="11.997616007110304"><ele>-6.0</ele><time>2026-04-25T09:39:36Z</time></trkpt><trkpt lat="44.90770738499912" lon="11.997612641683132"><ele>-6.0</ele><time>2026-04-25T09:39:38Z</time></trkpt><trkpt lat="44.90761573151284" lon="11.997618616229373"><ele>-6.0</ele><time>2026-04-25T09:39:40Z</time></trkpt><trkpt lat="44.90752450351253" lon="11.997621179476"><ele>-6.0</ele><time>2026-04-25T09:39:42Z</time></trkpt><trkpt lat="44.90743240158301" lon="11.997624251012525"><ele>-6.0</ele><time>2026-04-25T09:39:44Z</time></trkpt><trkpt lat="44.90734198389295" lon="11.997627337023491"><ele>-6.0</ele><time>2026-04-25T09:39:46Z</time></trkpt><trkpt lat="44.907249140774056" lon="11.997626474321299"><ele>-6.0</ele><time>2026-04-25T09:39:48Z</time></trkpt><trkpt lat="44.907159510683044" lon="11.997636175831119"><ele>-6.0</ele><time>2026-04-25T09:39:50Z</time></trkpt><trkpt lat="44.90706980191849" lon="11.99763396593459"><ele>-6.0</ele><time>2026-04-25T09:39:52Z</time></trkpt><trkpt lat="44.90697998650834" lon="11.997637001834676"><ele>-6.0</ele><time>2026-04-25T09:39:54Z</time></trkpt><trkpt lat="44.90688867023318" lon="11.997629214419"><ele>-6.0</ele><time>2026-04-25T09:39:56Z</time></trkpt><trkpt lat="44.90679682141113" lon="11.99764125278358"><ele>-6.0</ele><time>2026-04-25T09:39:58Z</time></trkpt><trkpt lat="44.90671164762621" lon="11.997640167562588"><ele>-6.0</ele><time>2026-04-25T09:40:00Z</time></trkpt><trkpt lat="44.906616177346585" lon="11.997635010153287"><ele>-5.8</ele><time>2026-04-25T09:40:02Z</time></trkpt><trkpt lat="44.90652818697125" lon="11.997640722140533"><ele>-5.6</ele><time>2026-04-25T09:40:04Z</time></trkpt><trkpt lat="44.906438982853686" lon="11.997642400352417"><ele>-5.4</ele><time>2026-04-25T09:40:06Z</time></trkpt><trkpt lat="44.906345393941926" lon="11.997647241419239"><ele>-5.2</ele><time>2026-04-25T09:40:08Z</time></trkpt><trkpt lat="44.90625358762995" lon="11.997650075189012"><ele>-5.0</ele><time>2026-04-25T09:40:10Z</time></trkpt><trkpt lat="44.90615971360207" lon="11.9976543313332"><ele>-5.0</ele><time>2026-04-25T09:40:12Z</time></trkpt><trkpt lat="44.90606270962014" lon="11.997655648802361"><ele>-5.0</ele><time>2026-04-25T09:40:14Z</time></trkpt><trkpt lat="44.90597187668207" lon="11.99765285742253"><ele>-5.0</ele><time>2026-04-25T09:40:16Z</time></trkpt><trkpt lat="44.905880753577414" lon="11.997670150977466"><ele>-5.0</ele><time>2026-04-25T09:40:18Z</time></trkpt><trkpt lat="44.90578874956002" lon="11.997653697533192"><ele>-5.0</ele><time>2026-04-25T09:40:20Z</time></trkpt><trkpt lat="44.905699968917" lon="11.997659148853261"><ele>-5.166666666666667</ele><time>2026-04-25T09:40:22Z</time></trkpt><trkpt lat="44.90561756614895" lon="11.997656145742917"><ele>-5.333333333333334</ele><time>2026-04-25T09:40:24Z</time></trkpt><trkpt lat="44.905539066578605" lon="11.997658192629718"><ele>-5.5</ele><time>2026-04-25T09:40:26Z</time></trkpt><trkpt lat="44.90545301630178" lon="11.997672447612361"><ele>-5.666666666666667</ele><time>2026-04-25T09:40:27.999Z</time></trkpt><trkpt lat="44.90536138646225" lon="11.997674887022601"><ele>-5.833333333333333</ele><time>2026-04-25T09:40:29.999Z</time></trkpt><trkpt lat="44.90526688092114" lon="11.99767164520698"><ele>-6.0</ele><time>2026-04-25T09:40:31.999Z</time></trkpt><trkpt lat="44.90517537547897" lon="11.997679993352877"><ele>-6.0</ele><time>2026-04-25T09:40:33.999Z</time></trkpt><trkpt lat="44.90508297974476" lon="11.997680815156233"><ele>-6.0</ele><time>2026-04-25T09:40:35.999Z</time></trkpt><trkpt lat="44.90499237211826" lon="11.997692221030073"><ele>-6.0</ele><time>2026-04-25T09:40:37.999Z</time></trkpt><trkpt lat="44.90489531573756" lon="11.997686532751098"><ele>-6.0</ele><time>2026-04-25T09:40:39.999Z</time></trkpt><trkpt lat="44.90480545011113" lon="11.997679726495742"><ele>-6.0</ele><time>2026-04-25T09:40:41.999Z</time></trkpt><trkpt lat="44.90471414209893" lon="11.997686112923859"><ele>-5.8</ele><time>2026-04-25T09:40:43.999Z</time></trkpt><trkpt lat="44.904625553235874" lon="11.997683984545601"><ele>-5.6</ele><time>2026-04-25T09:40:45.999Z</time></trkpt><trkpt lat="44.90453233949375" lon="11.997688272373185"><ele>-5.4</ele><time>2026-04-25T09:40:47.999Z</time></trkpt><trkpt lat="44.904441226335294" lon="11.997690542441694"><ele>-5.2</ele><time>2026-04-25T09:40:49.999Z</time></trkpt><trkpt lat="44.904351190854804" lon="11.997693587810913"><ele>-5.0</ele><time>2026-04-25T09:40:51.999Z</time></trkpt><trkpt lat="44.90425818618397" lon="11.997696676439974"><ele>-5.0</ele><time>2026-04-25T09:40:53.999Z</time></trkpt><trkpt lat="44.90416746408621" lon="11.99769767709422"><ele>-5.0</ele><time>2026-04-25T09:40:55.999Z</time></trkpt><trkpt lat="44.90407432346873" lon="11.997700510077996"><ele>-5.0</ele><time>2026-04-25T09:40:57.999Z</time></trkpt><trkpt lat="44.90398273071588" lon="11.997701631938403"><ele>-5.0</ele><time>2026-04-25T09:40:59.999Z</time></trkpt><trkpt lat="44.90389128232944" lon="11.997701787733645"><ele>-5.0</ele><time>2026-04-25T09:41:02Z</time></trkpt><trkpt lat="44.903796103770624" lon="11.997703355184566"><ele>-5.0</ele><time>2026-04-25T09:41:04Z</time></trkpt><trkpt lat="44.90370190989343" lon="11.997706682659043"><ele>-5.0</ele><time>2026-04-25T09:41:06Z</time></trkpt><trkpt lat="44.90360832919513" lon="11.997708179485606"><ele>-5.0</ele><time>2026-04-25T09:41:08Z</time></trkpt><trkpt lat="44.903514279394315" lon="11.997709344604683"><ele>-5.0</ele><time>2026-04-25T09:41:10Z</time></trkpt><trkpt lat="44.903420870787826" lon="11.997705760420565"><ele>-5.0</ele><time>2026-04-25T09:41:12Z</time></trkpt><trkpt lat="44.903329381726664" lon="11.997708932646495"><ele>-5.2</ele><time>2026-04-25T09:41:14Z</time></trkpt><trkpt lat="44.9032348943144" lon="11.997709375879746"><ele>-5.4</ele><time>2026-04-25T09:41:16Z</time></trkpt><trkpt lat="44.90313892826718" lon="11.997713266768109"><ele>-5.6</ele><time>2026-04-25T09:41:18Z</time></trkpt><trkpt lat="44.90304759205085" lon="11.997710495245075"><ele>-5.8</ele><time>2026-04-25T09:41:20Z</time></trkpt><trkpt lat="44.902956463490554" lon="11.997704504065588"><ele>-6.0</ele><time>2026-04-25T09:41:22Z</time></trkpt><trkpt lat="44.90286825552741" lon="11.997704365350545"><ele>-6.0</ele><time>2026-04-25T09:41:24Z</time></trkpt><trkpt lat="44.90278253061012" lon="11.997712458649131"><ele>-6.0</ele><time>2026-04-25T09:41:26Z</time></trkpt><trkpt lat="44.90268647543835" lon="11.997709036642929"><ele>-6.0</ele><time>2026-04-25T09:41:28Z</time></trkpt><trkpt lat="44.90259099794275" lon="11.997715115854184"><ele>-6.0</ele><time>2026-04-25T09:41:30Z</time></trkpt><trkpt lat="44.9024954851069" lon="11.9977162380623"><ele>-6.0</ele><time>2026-04-25T09:41:32Z</time></trkpt><trkpt lat="44.902402106957226" lon="11.997715957169065"><ele>-6.0</ele><time>2026-04-25T09:41:34Z</time></trkpt><trkpt lat="44.90230837670323" lon="11.997716000636448"><ele>-6.0</ele><time>2026-04-25T09:41:36Z</time></trkpt><trkpt lat="44.90221470517295" lon="11.997717198425844"><ele>-6.0</ele><time>2026-04-25T09:41:38Z</time></trkpt><trkpt lat="44.902119475512166" lon="11.997724663559596"><ele>-6.0</ele><time>2026-04-25T09:41:40Z</time></trkpt><trkpt lat="44.90202525213114" lon="11.997722279423451"><ele>-6.0</ele><time>2026-04-25T09:41:42Z</time></trkpt><trkpt lat="44.90193187512945" lon="11.997721237122526"><ele>-6.0</ele><time>2026-04-25T09:41:44Z</time></trkpt><trkpt lat="44.90183837027569" lon="11.997723603867934"><ele>-6.0</ele><time>2026-04-25T09:41:46Z</time></trkpt><trkpt lat="44.90174591719225" lon="11.997732023566154"><ele>-6.0</ele><time>2026-04-25T09:41:48Z</time></trkpt><trkpt lat="44.90165117508567" lon="11.997729788430602"><ele>-6.0</ele><time>2026-04-25T09:41:50Z</time></trkpt><trkpt lat="44.901559814456064" lon="11.997730663355238"><ele>-6.0</ele><time>2026-04-25T09:41:52Z</time></trkpt><trkpt lat="44.90146414553832" lon="11.997730111408298"><ele>-5.833333333333333</ele><time>2026-04-25T09:41:54Z</time></trkpt><trkpt lat="44.901371470600616" lon="11.997737757156681"><ele>-5.666666666666667</ele><time>2026-04-25T09:41:56Z</time></trkpt><trkpt lat="44.901287467256594" lon="11.997740421090903"><ele>-5.5</ele><time>2026-04-25T09:41:58Z</time></trkpt><trkpt lat="44.901207787434245" lon="11.997744154066543"><ele>-5.333333333333334</ele><time>2026-04-25T09:42:00Z</time></trkpt><trkpt lat="44.90112656962217" lon="11.997739008898508"><ele>-5.166666666666667</ele><time>2026-04-25T09:42:02Z</time></trkpt><trkpt lat="44.90104748860436" lon="11.997748868511176"><ele>-5.0</ele><time>2026-04-25T09:42:04Z</time></trkpt><trkpt lat="44.90096839759624" lon="11.997747151739654"><ele>-4.833333333333334</ele><time>2026-04-25T09:42:06Z</time></trkpt><trkpt lat="44.90088159915844" lon="11.997750731728335"><ele>-4.666666666666667</ele><time>2026-04-25T09:42:08Z</time></trkpt><trkpt lat="44.900799835229755" lon="11.997749849523318"><ele>-4.5</ele><time>2026-04-25T09:42:10Z</time></trkpt><trkpt lat="44.900727880118886" lon="11.997746319129652"><ele>-4.333333333333333</ele><time>2026-04-25T09:42:12Z</time></trkpt><trkpt lat="44.90065328985287" lon="11.997741799508596"><ele>-4.166666666666666</ele><time>2026-04-25T09:42:14Z</time></trkpt><trkpt lat="44.90057288837546" lon="11.997756220148295"><ele>-4.0</ele><time>2026-04-25T09:42:16Z</time></trkpt><trkpt lat="44.90048640559762" lon="11.997765074001292"><ele>-3.9999999999999996</ele><time>2026-04-25T09:42:18Z</time></trkpt><trkpt lat="44.900394548884584" lon="11.997771652227454"><ele>-4.0</ele><time>2026-04-25T09:42:20Z</time></trkpt><trkpt lat="44.90031270148095" lon="11.997772712098056"><ele>-4.0</ele><time>2026-04-25T09:42:21.999Z</time></trkpt><trkpt lat="44.9002408131254" lon="11.997778408213659"><ele>-4.0</ele><time>2026-04-25T09:42:23.999Z</time></trkpt><trkpt lat="44.90016794950616" lon="11.9977754944895"><ele>-3.9999999999999996</ele><time>2026-04-25T09:42:25.999Z</time></trkpt><trkpt lat="44.90007973298748" lon="11.99778104115444"><ele>-4.0</ele><time>2026-04-25T09:42:27.999Z</time></trkpt><trkpt lat="44.89998629356417" lon="11.997781551776198"><ele>-4.0</ele><time>2026-04-25T09:42:29.999Z</time></trkpt><trkpt lat="44.899895605197706" lon="11.997782497798834"><ele>-4.0</ele><time>2026-04-25T09:42:31.999Z</time></trkpt><trkpt lat="44.89980448769156" lon="11.997785958963473"><ele>-4.0</ele><time>2026-04-25T09:42:33.999Z</time></trkpt><trkpt lat="44.899710710623104" lon="11.997788763277748"><ele>-4.0</ele><time>2026-04-25T09:42:35.999Z</time></trkpt><trkpt lat="44.89961629181057" lon="11.997793534176955"><ele>-4.0</ele><time>2026-04-25T09:42:37.999Z</time></trkpt><trkpt lat="44.89952223240401" lon="11.997798557228956"><ele>-3.9999999999999996</ele><time>2026-04-25T09:42:39.999Z</time></trkpt><trkpt lat="44.8994253388979" lon="11.997795760558375"><ele>-4.0</ele><time>2026-04-25T09:42:41.999Z</time></trkpt><trkpt lat="44.899338278844795" lon="11.997795038015887"><ele>-4.0</ele><time>2026-04-25T09:42:43.999Z</time></trkpt><trkpt lat="44.89925560275765" lon="11.9977990955444"><ele>-4.0</ele><time>2026-04-25T09:42:45.999Z</time></trkpt><trkpt lat="44.899174586486694" lon="11.997801339583729"><ele>-3.9999999999999996</ele><time>2026-04-25T09:42:47.999Z</time></trkpt><trkpt lat="44.89909692788314" lon="11.997799593406802"><ele>-4.0</ele><time>2026-04-25T09:42:49.999Z</time></trkpt><trkpt lat="44.8990148952248" lon="11.997800308307406"><ele>-4.0</ele><time>2026-04-25T09:42:51.999Z</time></trkpt><trkpt lat="44.89892445611238" lon="11.997803871905077"><ele>-4.0</ele><time>2026-04-25T09:42:53.999Z</time></trkpt><trkpt lat="44.898832504144856" lon="11.997804424741279"><ele>-4.0</ele><time>2026-04-25T09:42:55.999Z</time></trkpt><trkpt lat="44.89873818935292" lon="11.997808118425983"><ele>-4.0</ele><time>2026-04-25T09:42:57.999Z</time></trkpt><trkpt lat="44.89864648043194" lon="11.997805762459569"><ele>-4.0</ele><time>2026-04-25T09:42:59.999Z</time></trkpt><trkpt lat="44.89856089096347" lon="11.997806905287144"><ele>-3.9999999999999996</ele><time>2026-04-25T09:43:01.999Z</time></trkpt><trkpt lat="44.898481687970445" lon="11.997814039575484"><ele>-4.0</ele><time>2026-04-25T09:43:03.999Z</time></trkpt><trkpt lat="44.898393855925875" lon="11.997816144650429"><ele>-4.0</ele><time>2026-04-25T09:43:05.999Z</time></trkpt><trkpt lat="44.89830719611365" lon="11.997813923272481"><ele>-4.0</ele><time>2026-04-25T09:43:08Z</time></trkpt><trkpt lat="44.898226490831384" lon="11.997817333841974"><ele>-3.9999999999999996</ele><time>2026-04-25T09:43:10Z</time></trkpt><trkpt lat="44.89814352784222" lon="11.997816212371951"><ele>-4.0</ele><time>2026-04-25T09:43:12Z</time></trkpt><trkpt lat="44.898054385758854" lon="11.997815569282146"><ele>-4.166666666666666</ele><time>2026-04-25T09:43:14Z</time></trkpt><trkpt lat="44.89797080771266" lon="11.997810826260865"><ele>-4.333333333333333</ele><time>2026-04-25T09:43:16Z</time></trkpt><trkpt lat="44.8978959228149" lon="11.997806761815296"><ele>-4.5</ele><time>2026-04-25T09:43:18Z</time></trkpt><trkpt lat="44.897807071998635" lon="11.997829226615906"><ele>-4.666666666666667</ele><time>2026-04-25T09:43:21Z</time></trkpt><trkpt lat="44.897802896284176" lon="11.997963514930415"><ele>-4.833333333333334</ele><time>2026-04-25T09:43:24Z</time></trkpt><trkpt lat="44.89782076673685" lon="11.998061406656852"><ele>-5.0</ele><time>2026-04-25T09:43:26Z</time></trkpt><trkpt lat="44.89782087097293" lon="11.998192068545947"><ele>-5.0</ele><time>2026-04-25T09:43:28Z</time></trkpt><trkpt lat="44.89780730852418" lon="11.998295163604123"><ele>-5.0</ele><time>2026-04-25T09:43:30Z</time></trkpt><trkpt lat="44.89780248644272" lon="11.998398879798993"><ele>-5.0</ele><time>2026-04-25T09:43:32Z</time></trkpt><trkpt lat="44.897806880408126" lon="11.998522990035609"><ele>-5.0</ele><time>2026-04-25T09:43:34Z</time></trkpt><trkpt lat="44.897807332094054" lon="11.998652427022037"><ele>-5.0</ele><time>2026-04-25T09:43:36Z</time></trkpt><trkpt lat="44.897805757170474" lon="11.998773204936535"><ele>-5.0</ele><time>2026-04-25T09:43:38Z</time></trkpt><trkpt lat="44.897809592052965" lon="11.998888577243596"><ele>-5.0</ele><time>2026-04-25T09:43:40Z</time></trkpt><trkpt lat="44.89780629797611" lon="11.999020541541375"><ele>-5.0</ele><time>2026-04-25T09:43:42Z</time></trkpt><trkpt lat="44.897809930405934" lon="11.999142033024448"><ele>-5.0</ele><time>2026-04-25T09:43:44Z</time></trkpt><trkpt lat="44.8978086490715" lon="11.999268554821269"><ele>-5.0</ele><time>2026-04-25T09:43:46Z</time></trkpt><trkpt lat="44.897813079524866" lon="11.999387869947979"><ele>-5.0</ele><time>2026-04-25T09:43:48Z</time></trkpt><trkpt lat="44.89781294152112" lon="11.999510387859939"><ele>-5.0</ele><time>2026-04-25T09:43:50Z</time></trkpt><trkpt lat="44.897812855191205" lon="11.999641777508591"><ele>-5.2</ele><time>2026-04-25T09:43:52Z</time></trkpt><trkpt lat="44.897813451953425" lon="11.999772463025476"><ele>-5.4</ele><time>2026-04-25T09:43:54Z</time></trkpt><trkpt lat="44.897811547670344" lon="11.999901975923772"><ele>-5.6</ele><time>2026-04-25T09:43:56Z</time></trkpt><trkpt lat="44.89781622175228" lon="12.00003223575028"><ele>-5.8</ele><time>2026-04-25T09:43:58Z</time></trkpt><trkpt lat="44.89781721664419" lon="12.00016252625672"><ele>-6.0</ele><time>2026-04-25T09:44:00Z</time></trkpt><trkpt lat="44.89781502794218" lon="12.000291865797397"><ele>-6.0</ele><time>2026-04-25T09:44:02Z</time></trkpt><trkpt lat="44.89781755954335" lon="12.000420225792759"><ele>-6.0</ele><time>2026-04-25T09:44:04Z</time></trkpt><trkpt lat="44.89781935436158" lon="12.000549619734668"><ele>-6.0</ele><time>2026-04-25T09:44:06Z</time></trkpt><trkpt lat="44.89781971588086" lon="12.000676733259107"><ele>-6.0</ele><time>2026-04-25T09:44:08Z</time></trkpt><trkpt lat="44.89782065208084" lon="12.000792494149229"><ele>-6.0</ele><time>2026-04-25T09:44:10Z</time></trkpt><trkpt lat="44.89782062668539" lon="12.00090489962548"><ele>-6.0</ele><time>2026-04-25T09:44:12Z</time></trkpt><trkpt lat="44.89782017795211" lon="12.001009689470477"><ele>-6.0</ele><time>2026-04-25T09:44:14Z</time></trkpt><trkpt lat="44.89781548385051" lon="12.001131583137225"><ele>-6.0</ele><time>2026-04-25T09:44:16Z</time></trkpt><trkpt lat="44.89782000860279" lon="12.001258318715806"><ele>-6.0</ele><time>2026-04-25T09:44:18Z</time></trkpt><trkpt lat="44.89781730479286" lon="12.001387108577436"><ele>-6.0</ele><time>2026-04-25T09:44:20Z</time></trkpt><trkpt lat="44.89781933771496" lon="12.001517947604976"><ele>-6.0</ele><time>2026-04-25T09:44:22Z</time></trkpt><trkpt lat="44.89782157515179" lon="12.00164943564114"><ele>-6.0</ele><time>2026-04-25T09:44:24Z</time></trkpt><trkpt lat="44.89782275810731" lon="12.001780038258829"><ele>-6.0</ele><time>2026-04-25T09:44:26Z</time></trkpt><trkpt lat="44.897824667491065" lon="12.001912045183728"><ele>-6.0</ele><time>2026-04-25T09:44:28Z</time></trkpt><trkpt lat="44.897824161205605" lon="12.002040991317042"><ele>-6.0</ele><time>2026-04-25T09:44:30Z</time></trkpt><trkpt lat="44.89782760351497" lon="12.002160447714404"><ele>-6.0</ele><time>2026-04-25T09:44:32Z</time></trkpt><trkpt lat="44.897828178805966" lon="12.002289543715076"><ele>-6.0</ele><time>2026-04-25T09:44:34Z</time></trkpt><trkpt lat="44.897825292727774" lon="12.002420357174241"><ele>-6.0</ele><time>2026-04-25T09:44:36Z</time></trkpt><trkpt lat="44.89782846344453" lon="12.002547330148765"><ele>-6.0</ele><time>2026-04-25T09:44:38Z</time></trkpt><trkpt lat="44.89782782053155" lon="12.002681229324665"><ele>-6.0</ele><time>2026-04-25T09:44:40Z</time></trkpt><trkpt lat="44.89782993592772" lon="12.002803422330942"><ele>-6.0</ele><time>2026-04-25T09:44:41.999Z</time></trkpt><trkpt lat="44.897833628967064" lon="12.002911191028772"><ele>-6.0</ele><time>2026-04-25T09:44:44.999Z</time></trkpt><trkpt lat="44.8978291974409" lon="12.003030373148153"><ele>-5.833333333333333</ele><time>2026-04-25T09:45:54Z</time></trkpt><trkpt lat="44.89782692174804" lon="12.003130407524948"><ele>-5.666666666666667</ele><time>2026-04-25T09:45:56Z</time></trkpt><trkpt lat="44.89782758430423" lon="12.00324342338258"><ele>-5.5</ele><time>2026-04-25T09:45:58Z</time></trkpt><trkpt lat="44.89782942734177" lon="12.003347739219992"><ele>-5.333333333333334</ele><time>2026-04-25T09:46:00Z</time></trkpt><trkpt lat="44.89782938247637" lon="12.003456182689286"><ele>-5.166666666666667</ele><time>2026-04-25T09:46:02Z</time></trkpt><trkpt lat="44.897829402285296" lon="12.003569825789615"><ele>-5.0</ele><time>2026-04-25T09:46:04Z</time></trkpt><trkpt lat="44.89783037727294" lon="12.003666474395112"><ele>-5.0</ele><time>2026-04-25T09:46:06Z</time></trkpt><trkpt lat="44.897828786431845" lon="12.00377421849368"><ele>-5.0</ele><time>2026-04-25T09:46:08Z</time></trkpt><trkpt lat="44.89782888571883" lon="12.00389622251287"><ele>-5.0</ele><time>2026-04-25T09:46:10Z</time></trkpt><trkpt lat="44.89782964056156" lon="12.004020553638096"><ele>-5.0</ele><time>2026-04-25T09:46:12Z</time></trkpt><trkpt lat="44.89782979118874" lon="12.004128430552184"><ele>-5.0</ele><time>2026-04-25T09:46:14Z</time></trkpt><trkpt lat="44.89782862479146" lon="12.004219942998835"><ele>-5.0</ele><time>2026-04-25T09:46:16Z</time></trkpt><trkpt lat="44.89782578672448" lon="12.004324521389593"><ele>-5.166666666666667</ele><time>2026-04-25T09:46:18Z</time></trkpt><trkpt lat="44.89782806331527" lon="12.00449165652792"><ele>-5.333333333333334</ele><time>2026-04-25T09:46:21Z</time></trkpt><trkpt lat="44.8978256588773" lon="12.004590044452469"><ele>-5.5</ele><time>2026-04-25T09:46:23Z</time></trkpt><trkpt lat="44.897836412191545" lon="12.004693525177121"><ele>-5.666666666666667</ele><time>2026-04-25T09:46:25Z</time></trkpt><trkpt lat="44.89786337619252" lon="12.004793972884697"><ele>-5.833333333333333</ele><time>2026-04-25T09:46:28Z</time></trkpt><trkpt lat="44.89784449463352" lon="12.00493376590793"><ele>-6.0</ele><time>2026-04-25T09:46:31Z</time></trkpt><trkpt lat="44.897849863319664" lon="12.005037316237724"><ele>-6.4</ele><time>2026-04-25T09:46:33Z</time></trkpt><trkpt lat="44.89785513501374" lon="12.005148798147683"><ele>-6.8</ele><time>2026-04-25T09:46:35Z</time></trkpt><trkpt lat="44.89785281693923" lon="12.005272607683144"><ele>-7.200000000000001</ele><time>2026-04-25T09:46:37Z</time></trkpt><trkpt lat="44.897863055699226" lon="12.005409320615389"><ele>-7.6000000000000005</ele><time>2026-04-25T09:46:39Z</time></trkpt><trkpt lat="44.89787153982891" lon="12.00554379264499"><ele>-8.0</ele><time>2026-04-25T09:46:41Z</time></trkpt><trkpt lat="44.897871028345435" lon="12.00568005786356"><ele>-7.999999999999999</ele><time>2026-04-25T09:46:43Z</time></trkpt><trkpt lat="44.897868389366145" lon="12.005798250434678"><ele>-8.0</ele><time>2026-04-25T09:46:45Z</time></trkpt><trkpt lat="44.897874187845055" lon="12.005899381129064"><ele>-8.0</ele><time>2026-04-25T09:46:47Z</time></trkpt><trkpt lat="44.89786929292779" lon="12.00600998802346"><ele>-8.0</ele><time>2026-04-25T09:46:49Z</time></trkpt><trkpt lat="44.89785026530598" lon="12.006130379820467"><ele>-7.999999999999999</ele><time>2026-04-25T09:46:50.999Z</time></trkpt><trkpt lat="44.897856020067024" lon="12.006259683478683"><ele>-8.0</ele><time>2026-04-25T09:46:52.999Z</time></trkpt><trkpt lat="44.89785681287853" lon="12.006391563686009"><ele>-7.666666666666666</ele><time>2026-04-25T09:46:54.999Z</time></trkpt><trkpt lat="44.89785294425261" lon="12.006530341313796"><ele>-7.333333333333333</ele><time>2026-04-25T09:46:56.999Z</time></trkpt><trkpt lat="44.897857513391564" lon="12.006654738750164"><ele>-7.0</ele><time>2026-04-25T09:46:58.999Z</time></trkpt><trkpt lat="44.89786534182762" lon="12.00677756826092"><ele>-6.666666666666666</ele><time>2026-04-25T09:47:00.999Z</time></trkpt><trkpt lat="44.89786740057875" lon="12.006891342862652"><ele>-6.333333333333333</ele><time>2026-04-25T09:47:02.999Z</time></trkpt><trkpt lat="44.89786318095953" lon="12.006997283399397"><ele>-6.0</ele><time>2026-04-25T09:47:04.999Z</time></trkpt><trkpt lat="44.89787216156833" lon="12.007112407770729"><ele>-6.0</ele><time>2026-04-25T09:47:06.999Z</time></trkpt><trkpt lat="44.89787594636804" lon="12.007224743496801"><ele>-6.0</ele><time>2026-04-25T09:47:08.999Z</time></trkpt><trkpt lat="44.8978785569769" lon="12.00732777312101"><ele>-6.0</ele><time>2026-04-25T09:47:10.999Z</time></trkpt><trkpt lat="44.89788350385403" lon="12.007428395348457"><ele>-6.0</ele><time>2026-04-25T09:47:12.999Z</time></trkpt><trkpt lat="44.8978729435897" lon="12.007540367799669"><ele>-6.0</ele><time>2026-04-25T09:47:14.999Z</time></trkpt><trkpt lat="44.89786049032157" lon="12.007660168896427"><ele>-6.0</ele><time>2026-04-25T09:47:16.999Z</time></trkpt><trkpt lat="44.897867257361014" lon="12.007770213636832"><ele>-6.0</ele><time>2026-04-25T09:47:19Z</time></trkpt><trkpt lat="44.897867111759915" lon="12.007888592574966"><ele>-6.0</ele><time>2026-04-25T09:47:21Z</time></trkpt><trkpt lat="44.89785774905086" lon="12.008003052191818"><ele>-6.0</ele><time>2026-04-25T09:47:23Z</time></trkpt><trkpt lat="44.897870961849115" lon="12.008110777954673"><ele>-6.0</ele><time>2026-04-25T09:47:25Z</time></trkpt><trkpt lat="44.89786845591228" lon="12.008237393304455"><ele>-6.0</ele><time>2026-04-25T09:47:27Z</time></trkpt><trkpt lat="44.897874437923335" lon="12.008368074471138"><ele>-6.0</ele><time>2026-04-25T09:47:29Z</time></trkpt><trkpt lat="44.89787028069146" lon="12.008494513124557"><ele>-6.0</ele><time>2026-04-25T09:47:31Z</time></trkpt><trkpt lat="44.897881853125895" lon="12.008622151542264"><ele>-6.0</ele><time>2026-04-25T09:47:33Z</time></trkpt><trkpt lat="44.89787667530259" lon="12.008752925377866"><ele>-6.0</ele><time>2026-04-25T09:47:35Z</time></trkpt><trkpt lat="44.897881085755756" lon="12.008881814002544"><ele>-6.0</ele><time>2026-04-25T09:47:37Z</time></trkpt><trkpt lat="44.897878750003414" lon="12.009015671026136"><ele>-6.0</ele><time>2026-04-25T09:47:39Z</time></trkpt><trkpt lat="44.89787470306575" lon="12.00914582256431"><ele>-6.166666666666667</ele><time>2026-04-25T09:47:41Z</time></trkpt><trkpt lat="44.89787595153459" lon="12.009278377194782"><ele>-6.333333333333334</ele><time>2026-04-25T09:47:43Z</time></trkpt><trkpt lat="44.89787439326021" lon="12.00940963743931"><ele>-6.5</ele><time>2026-04-25T09:47:45Z</time></trkpt><trkpt lat="44.897880188397735" lon="12.009531157231478"><ele>-6.666666666666667</ele><time>2026-04-25T09:47:47Z</time></trkpt><trkpt lat="44.89787716485367" lon="12.00964838465401"><ele>-6.833333333333334</ele><time>2026-04-25T09:47:49Z</time></trkpt><trkpt lat="44.89787984346868" lon="12.009777502742006"><ele>-7.0</ele><time>2026-04-25T09:47:51Z</time></trkpt><trkpt lat="44.89788578085242" lon="12.009905021783297"><ele>-6.8</ele><time>2026-04-25T09:47:53Z</time></trkpt><trkpt lat="44.89789655304515" lon="12.01002681799284"><ele>-6.6</ele><time>2026-04-25T09:47:55Z</time></trkpt><trkpt lat="44.89788923128137" lon="12.010144040723187"><ele>-6.3999999999999995</ele><time>2026-04-25T09:47:57Z</time></trkpt><trkpt lat="44.89788660405362" lon="12.010274418635207"><ele>-6.199999999999999</ele><time>2026-04-25T09:47:59Z</time></trkpt><trkpt lat="44.89788991438067" lon="12.010406823359522"><ele>-6.0</ele><time>2026-04-25T09:48:01Z</time></trkpt><trkpt lat="44.89788900505589" lon="12.010539975405319"><ele>-6.0</ele><time>2026-04-25T09:48:03Z</time></trkpt><trkpt lat="44.897904235263105" lon="12.010666302416004"><ele>-6.0</ele><time>2026-04-25T09:48:05Z</time></trkpt><trkpt lat="44.89789614687287" lon="12.010782757594473"><ele>-6.0</ele><time>2026-04-25T09:48:07Z</time></trkpt><trkpt lat="44.89788722546616" lon="12.01090193072882"><ele>-6.0</ele><time>2026-04-25T09:48:09Z</time></trkpt><trkpt lat="44.89789148143096" lon="12.011026819785315"><ele>-6.0</ele><time>2026-04-25T09:48:11Z</time></trkpt><trkpt lat="44.897890846753576" lon="12.011156044440604"><ele>-6.0</ele><time>2026-04-25T09:48:13Z</time></trkpt><trkpt lat="44.897898445381394" lon="12.01128312354716"><ele>-5.833333333333333</ele><time>2026-04-25T09:48:15Z</time></trkpt><trkpt lat="44.89788296313245" lon="12.011400507665538"><ele>-5.666666666666667</ele><time>2026-04-25T09:48:17Z</time></trkpt><trkpt lat="44.897886105804986" lon="12.011518274347697"><ele>-5.5</ele><time>2026-04-25T09:48:19Z</time></trkpt><trkpt lat="44.89789047342527" lon="12.011646488038359"><ele>-5.333333333333334</ele><time>2026-04-25T09:48:21Z</time></trkpt><trkpt lat="44.897887288196834" lon="12.01177601789138"><ele>-5.166666666666667</ele><time>2026-04-25T09:48:23Z</time></trkpt><trkpt lat="44.89788243916405" lon="12.01188872965272"><ele>-5.0</ele><time>2026-04-25T09:48:25Z</time></trkpt><trkpt lat="44.89788335938817" lon="12.011996319277007"><ele>-4.833333333333334</ele><time>2026-04-25T09:48:27Z</time></trkpt><trkpt lat="44.89788870291795" lon="12.012108857713924"><ele>-4.666666666666667</ele><time>2026-04-25T09:48:29Z</time></trkpt><trkpt lat="44.89789792935088" lon="12.01222496247354"><ele>-4.5</ele><time>2026-04-25T09:48:31Z</time></trkpt><trkpt lat="44.89790644327807" lon="12.012343210383737"><ele>-4.333333333333333</ele><time>2026-04-25T09:48:33Z</time></trkpt><trkpt lat="44.897906732868236" lon="12.012469040291037"><ele>-4.166666666666666</ele><time>2026-04-25T09:48:35Z</time></trkpt><trkpt lat="44.897907547476024" lon="12.012603994162234"><ele>-4.0</ele><time>2026-04-25T09:48:37Z</time></trkpt><trkpt lat="44.89790809267746" lon="12.012731297741647"><ele>-4.0</ele><time>2026-04-25T09:48:39Z</time></trkpt><trkpt lat="44.89788887550144" lon="12.012861110493677"><ele>-4.0</ele><time>2026-04-25T09:48:41Z</time></trkpt><trkpt lat="44.897891722499885" lon="12.012994088499537"><ele>-4.0</ele><time>2026-04-25T09:48:43Z</time></trkpt><trkpt lat="44.89789332636716" lon="12.013122266748073"><ele>-4.0</ele><time>2026-04-25T09:48:45Z</time></trkpt><trkpt lat="44.897891483268175" lon="12.013252327247857"><ele>-4.0</ele><time>2026-04-25T09:48:47Z</time></trkpt><trkpt lat="44.89789462898839" lon="12.013369918258956"><ele>-3.833333333333333</ele><time>2026-04-25T09:48:49Z</time></trkpt><trkpt lat="44.89789172003512" lon="12.013485111451242"><ele>-3.6666666666666665</ele><time>2026-04-25T09:48:51Z</time></trkpt><trkpt lat="44.89789405212277" lon="12.013590441809225"><ele>-3.5</ele><time>2026-04-25T09:48:53Z</time></trkpt><trkpt lat="44.89789376982715" lon="12.013709908857448"><ele>-3.333333333333333</ele><time>2026-04-25T09:48:55Z</time></trkpt><trkpt lat="44.89789697523135" lon="12.01384039256772"><ele>-3.1666666666666665</ele><time>2026-04-25T09:48:57Z</time></trkpt><trkpt lat="44.897895007526266" lon="12.013959869957562"><ele>-3.0</ele><time>2026-04-25T09:48:59Z</time></trkpt><trkpt lat="44.897896377743976" lon="12.014081214663632"><ele>-3.1666666666666665</ele><time>2026-04-25T09:49:01Z</time></trkpt><trkpt lat="44.89789731866747" lon="12.014196550659111"><ele>-3.333333333333333</ele><time>2026-04-25T09:49:03Z</time></trkpt><trkpt lat="44.897893189154324" lon="12.014320151235278"><ele>-3.5</ele><time>2026-04-25T09:49:05Z</time></trkpt><trkpt lat="44.89789647176518" lon="12.014450517736435"><ele>-3.6666666666666665</ele><time>2026-04-25T09:49:07Z</time></trkpt><trkpt lat="44.89789859584712" lon="12.01458315403842"><ele>-3.833333333333333</ele><time>2026-04-25T09:49:09Z</time></trkpt><trkpt lat="44.897898585971085" lon="12.014712588022537"><ele>-4.0</ele><time>2026-04-25T09:49:11Z</time></trkpt><trkpt lat="44.897896427627934" lon="12.014840445464996"><ele>-3.9999999999999996</ele><time>2026-04-25T09:49:13Z</time></trkpt><trkpt lat="44.89790006125194" lon="12.014958382039973"><ele>-4.0</ele><time>2026-04-25T09:49:15Z</time></trkpt><trkpt lat="44.897902015229306" lon="12.015070265132291"><ele>-4.0</ele><time>2026-04-25T09:49:16.999Z</time></trkpt><trkpt lat="44.89790564532923" lon="12.01519050621463"><ele>-4.0</ele><time>2026-04-25T09:49:18.999Z</time></trkpt><trkpt lat="44.897902995604056" lon="12.015321014079205"><ele>-3.9999999999999996</ele><time>2026-04-25T09:49:20.999Z</time></trkpt><trkpt lat="44.89790516623225" lon="12.015450259785716"><ele>-4.0</ele><time>2026-04-25T09:49:22.999Z</time></trkpt><trkpt lat="44.89790423487119" lon="12.015578812872937"><ele>-3.9999999999999996</ele><time>2026-04-25T09:49:25Z</time></trkpt><trkpt lat="44.89790855817723" lon="12.015702705980672"><ele>-4.0</ele><time>2026-04-25T09:49:27Z</time></trkpt><trkpt lat="44.8979078253669" lon="12.015815847372933"><ele>-4.0</ele><time>2026-04-25T09:49:29Z</time></trkpt><trkpt lat="44.89790798907489" lon="12.01593914862159"><ele>-4.0</ele><time>2026-04-25T09:49:31Z</time></trkpt><trkpt lat="44.89790990353247" lon="12.016073528721364"><ele>-3.9999999999999996</ele><time>2026-04-25T09:49:33Z</time></trkpt><trkpt lat="44.89791416549901" lon="12.016209363349907"><ele>-4.0</ele><time>2026-04-25T09:49:35Z</time></trkpt><trkpt lat="44.897911146295705" lon="12.016339276351658"><ele>-3.9999999999999996</ele><time>2026-04-25T09:49:37Z</time></trkpt><trkpt lat="44.89791370236427" lon="12.016467283425776"><ele>-4.0</ele><time>2026-04-25T09:49:39Z</time></trkpt><trkpt lat="44.89791276876573" lon="12.016584957018583"><ele>-4.0</ele><time>2026-04-25T09:49:41Z</time></trkpt><trkpt lat="44.897916591410855" lon="12.016700478721207"><ele>-4.0</ele><time>2026-04-25T09:49:43Z</time></trkpt><trkpt lat="44.897915808240704" lon="12.016827780331743"><ele>-3.9999999999999996</ele><time>2026-04-25T09:49:45Z</time></trkpt><trkpt lat="44.89792102356707" lon="12.016957756824187"><ele>-4.0</ele><time>2026-04-25T09:49:47Z</time></trkpt><trkpt lat="44.89792193385947" lon="12.017090716441698"><ele>-3.9999999999999996</ele><time>2026-04-25T09:49:49Z</time></trkpt><trkpt lat="44.897926361989676" lon="12.017222372997898"><ele>-4.0</ele><time>2026-04-25T09:49:51Z</time></trkpt><trkpt lat="44.89792572025005" lon="12.017346385234738"><ele>-4.0</ele><time>2026-04-25T09:49:53Z</time></trkpt><trkpt lat="44.897927385411876" lon="12.017463191615283"><ele>-4.0</ele><time>2026-04-25T09:49:55Z</time></trkpt><trkpt lat="44.897928553884185" lon="12.017571198058992"><ele>-3.9999999999999996</ele><time>2026-04-25T09:49:57Z</time></trkpt><trkpt lat="44.897931825709044" lon="12.017679481144393"><ele>-4.0</ele><time>2026-04-25T09:49:59Z</time></trkpt><trkpt lat="44.89793058571779" lon="12.01779704108391"><ele>-4.166666666666666</ele><time>2026-04-25T09:50:01Z</time></trkpt><trkpt lat="44.897933140506744" lon="12.017921696910715"><ele>-4.333333333333333</ele><time>2026-04-25T09:50:03Z</time></trkpt><trkpt lat="44.89793501216026" lon="12.018049575743774"><ele>-4.5</ele><time>2026-04-25T09:50:05Z</time></trkpt><trkpt lat="44.897935225705844" lon="12.018169556342784"><ele>-4.666666666666667</ele><time>2026-04-25T09:50:07Z</time></trkpt><trkpt lat="44.89793323164651" lon="12.018280029930859"><ele>-4.833333333333334</ele><time>2026-04-25T09:50:09Z</time></trkpt><trkpt lat="44.89793573232319" lon="12.018399628404962"><ele>-5.0</ele><time>2026-04-25T09:50:11Z</time></trkpt><trkpt lat="44.897935306716526" lon="12.018515161212221"><ele>-5.0</ele><time>2026-04-25T09:50:13Z</time></trkpt><trkpt lat="44.89794165338421" lon="12.018622767678623"><ele>-5.0</ele><time>2026-04-25T09:50:15Z</time></trkpt><trkpt lat="44.89793948192361" lon="12.018731864515145"><ele>-5.0</ele><time>2026-04-25T09:50:17Z</time></trkpt><trkpt lat="44.89793787639166" lon="12.01884847325584"><ele>-5.0</ele><time>2026-04-25T09:50:19Z</time></trkpt><trkpt lat="44.89793905505201" lon="12.01896020981941"><ele>-5.0</ele><time>2026-04-25T09:50:21Z</time></trkpt><trkpt lat="44.897941623969544" lon="12.019079044369317"><ele>-5.0</ele><time>2026-04-25T09:50:23Z</time></trkpt><trkpt lat="44.89794041655456" lon="12.019205246320642"><ele>-5.2</ele><time>2026-04-25T09:50:25Z</time></trkpt><trkpt lat="44.89794275543613" lon="12.019338890947068"><ele>-5.4</ele><time>2026-04-25T09:50:27Z</time></trkpt><trkpt lat="44.89794066703123" lon="12.019470725792313"><ele>-5.6</ele><time>2026-04-25T09:50:29Z</time></trkpt><trkpt lat="44.89794219365696" lon="12.019604668516966"><ele>-5.8</ele><time>2026-04-25T09:50:31Z</time></trkpt><trkpt lat="44.8979445906946" lon="12.019734543008992"><ele>-6.0</ele><time>2026-04-25T09:50:33Z</time></trkpt><trkpt lat="44.8979417146345" lon="12.01985779537702"><ele>-6.0</ele><time>2026-04-25T09:50:35Z</time></trkpt><trkpt lat="44.89794223522909" lon="12.019989157161437"><ele>-6.0</ele><time>2026-04-25T09:50:37Z</time></trkpt><trkpt lat="44.897947377904934" lon="12.020123854423849"><ele>-6.0</ele><time>2026-04-25T09:50:39Z</time></trkpt><trkpt lat="44.89794293724838" lon="12.020250986296238"><ele>-6.0</ele><time>2026-04-25T09:50:41Z</time></trkpt><trkpt lat="44.897946621831125" lon="12.020371039476647"><ele>-6.0</ele><time>2026-04-25T09:50:43Z</time></trkpt><trkpt lat="44.89794717543753" lon="12.02050037938255"><ele>-6.0</ele><time>2026-04-25T09:50:45Z</time></trkpt><trkpt lat="44.897949157445744" lon="12.020629173672482"><ele>-6.0</ele><time>2026-04-25T09:50:47Z</time></trkpt><trkpt lat="44.897947001079274" lon="12.02074894759216"><ele>-6.0</ele><time>2026-04-25T09:50:49Z</time></trkpt><trkpt lat="44.89794637258177" lon="12.020859344425457"><ele>-6.0</ele><time>2026-04-25T09:50:51Z</time></trkpt><trkpt lat="44.897949781799234" lon="12.020967810160357"><ele>-6.0</ele><time>2026-04-25T09:50:53Z</time></trkpt><trkpt lat="44.897951885935285" lon="12.02107930774844"><ele>-6.0</ele><time>2026-04-25T09:50:55Z</time></trkpt><trkpt lat="44.897951959922175" lon="12.021189662729386"><ele>-5.666666666666667</ele><time>2026-04-25T09:50:57Z</time></trkpt><trkpt lat="44.897950956536164" lon="12.021299564868336"><ele>-5.333333333333333</ele><time>2026-04-25T09:50:59Z</time></trkpt><trkpt lat="44.897948497694856" lon="12.021424539896381"><ele>-5.0</ele><time>2026-04-25T09:51:01Z</time></trkpt><trkpt lat="44.89795809249998" lon="12.021546725645951"><ele>-4.666666666666666</ele><time>2026-04-25T09:51:03Z</time></trkpt><trkpt lat="44.897953761302986" lon="12.021653780074818"><ele>-4.333333333333333</ele><time>2026-04-25T09:51:05Z</time></trkpt><trkpt lat="44.897940220034265" lon="12.021765202438406"><ele>-4.0</ele><time>2026-04-25T09:51:07Z</time></trkpt><trkpt lat="44.897901859223474" lon="12.021854769304934"><ele>-4.0</ele><time>2026-04-25T09:51:09Z</time></trkpt><trkpt lat="44.89782010074938" lon="12.021881927321711"><ele>-4.0</ele><time>2026-04-25T09:51:11Z</time></trkpt><trkpt lat="44.897730864194834" lon="12.02182430444094"><ele>-4.0</ele><time>2026-04-25T09:51:13Z</time></trkpt><trkpt lat="44.89765125893233" lon="12.021752699899091"><ele>-4.0</ele><time>2026-04-25T09:51:15Z</time></trkpt><trkpt lat="44.897568525803585" lon="12.021697213425927"><ele>-4.0</ele><time>2026-04-25T09:51:16.999Z</time></trkpt><trkpt lat="44.897483458083684" lon="12.02164284816955"><ele>-3.8000000000000003</ele><time>2026-04-25T09:51:18.999Z</time></trkpt><trkpt lat="44.89739507346591" lon="12.021612915652144"><ele>-3.6000000000000005</ele><time>2026-04-25T09:51:20.999Z</time></trkpt><trkpt lat="44.897301557887644" lon="12.021582015168857"><ele>-3.4</ele><time>2026-04-25T09:51:22.999Z</time></trkpt><trkpt lat="44.89721642497702" lon="12.021539141934223"><ele>-3.2</ele><time>2026-04-25T09:51:24.999Z</time></trkpt><trkpt lat="44.89712732934089" lon="12.021503632934648"><ele>-3.0</ele><time>2026-04-25T09:51:26.999Z</time></trkpt><trkpt lat="44.89703228947538" lon="12.021490694934082"><ele>-3.0</ele><time>2026-04-25T09:51:28.999Z</time></trkpt><trkpt lat="44.896950346459654" lon="12.02146168474873"><ele>-3.0</ele><time>2026-04-25T09:51:31Z</time></trkpt><trkpt lat="44.896860863543225" lon="12.02142333501282"><ele>-3.0</ele><time>2026-04-25T09:51:33Z</time></trkpt><trkpt lat="44.89677092192665" lon="12.021411859974872"><ele>-3.0</ele><time>2026-04-25T09:51:35Z</time></trkpt><trkpt lat="44.89668248549705" lon="12.0214080770335"><ele>-3.0</ele><time>2026-04-25T09:51:37Z</time></trkpt><trkpt lat="44.89659569127553" lon="12.021433132226184"><ele>-3.0</ele><time>2026-04-25T09:51:39Z</time></trkpt><trkpt lat="44.89652138971095" lon="12.021461209025494"><ele>-3.3333333333333335</ele><time>2026-04-25T09:51:41Z</time></trkpt><trkpt lat="44.8964480519946" lon="12.021462044692989"><ele>-3.666666666666667</ele><time>2026-04-25T09:51:43Z</time></trkpt><trkpt lat="44.89638041150786" lon="12.021431927458586"><ele>-4.0</ele><time>2026-04-25T09:51:45Z</time></trkpt><trkpt lat="44.89629734183309" lon="12.021400914201736"><ele>-4.333333333333334</ele><time>2026-04-25T09:51:47Z</time></trkpt><trkpt lat="44.89620695341492" lon="12.02137160552828"><ele>-4.666666666666667</ele><time>2026-04-25T09:51:49Z</time></trkpt><trkpt lat="44.896119415727426" lon="12.02132854380167"><ele>-5.0</ele><time>2026-04-25T09:51:51Z</time></trkpt><trkpt lat="44.89603100177233" lon="12.021289512155745"><ele>-5.0</ele><time>2026-04-25T09:51:53Z</time></trkpt><trkpt lat="44.895943722688905" lon="12.021247110667371"><ele>-5.0</ele><time>2026-04-25T09:51:55Z</time></trkpt><trkpt lat="44.8958610481044" lon="12.021203107133621"><ele>-5.0</ele><time>2026-04-25T09:51:57Z</time></trkpt><trkpt lat="44.895786552706774" lon="12.021158299944194"><ele>-5.0</ele><time>2026-04-25T09:51:59Z</time></trkpt><trkpt lat="44.895717249573174" lon="12.021117572758158"><ele>-5.0</ele><time>2026-04-25T09:52:01Z</time></trkpt><trkpt lat="44.89563635365874" lon="12.021062314454255"><ele>-5.0</ele><time>2026-04-25T09:52:03Z</time></trkpt><trkpt lat="44.89555505399993" lon="12.02100832237723"><ele>-4.8</ele><time>2026-04-25T09:52:05Z</time></trkpt><trkpt lat="44.895472819382555" lon="12.02094734453097"><ele>-4.6</ele><time>2026-04-25T09:52:07Z</time></trkpt><trkpt lat="44.89539208320905" lon="12.020881005244878"><ele>-4.4</ele><time>2026-04-25T09:52:09Z</time></trkpt><trkpt lat="44.895310230161506" lon="12.020813307829046"><ele>-4.2</ele><time>2026-04-25T09:52:11Z</time></trkpt><trkpt lat="44.89523339598702" lon="12.020738753821815"><ele>-4.0</ele><time>2026-04-25T09:52:13Z</time></trkpt><trkpt lat="44.89515707353476" lon="12.020663476187027"><ele>-4.0</ele><time>2026-04-25T09:52:15Z</time></trkpt><trkpt lat="44.895083580780636" lon="12.020588459730567"><ele>-4.0</ele><time>2026-04-25T09:52:17Z</time></trkpt><trkpt lat="44.89500550401493" lon="12.020507755538077"><ele>-4.0</ele><time>2026-04-25T09:52:19Z</time></trkpt><trkpt lat="44.894928140688215" lon="12.020432695901238"><ele>-4.0</ele><time>2026-04-25T09:52:21Z</time></trkpt><trkpt lat="44.89485128950438" lon="12.020350707781722"><ele>-4.0</ele><time>2026-04-25T09:52:23Z</time></trkpt><trkpt lat="44.894775531920715" lon="12.020276450514789"><ele>-4.0</ele><time>2026-04-25T09:52:25Z</time></trkpt><trkpt lat="44.89469787488875" lon="12.020199401489542"><ele>-4.0</ele><time>2026-04-25T09:52:27Z</time></trkpt><trkpt lat="44.89461916349425" lon="12.020123633158835"><ele>-4.0</ele><time>2026-04-25T09:52:29Z</time></trkpt><trkpt lat="44.89454151642822" lon="12.0200447600295"><ele>-4.0</ele><time>2026-04-25T09:52:31Z</time></trkpt><trkpt lat="44.89446656021287" lon="12.019964967846422"><ele>-4.0</ele><time>2026-04-25T09:52:33Z</time></trkpt><trkpt lat="44.8943870763328" lon="12.019897485986705"><ele>-4.0</ele><time>2026-04-25T09:52:35Z</time></trkpt><trkpt lat="44.89431028285573" lon="12.019815686991562"><ele>-4.0</ele><time>2026-04-25T09:52:37Z</time></trkpt><trkpt lat="44.89423418488731" lon="12.01973277139552"><ele>-4.0</ele><time>2026-04-25T09:52:39Z</time></trkpt><trkpt lat="44.894156891204084" lon="12.019654205764917"><ele>-4.0</ele><time>2026-04-25T09:52:41Z</time></trkpt><trkpt lat="44.894079990897055" lon="12.019572454586076"><ele>-4.0</ele><time>2026-04-25T09:52:43Z</time></trkpt><trkpt lat="44.89400287215529" lon="12.019494661406853"><ele>-3.8000000000000003</ele><time>2026-04-25T09:52:45Z</time></trkpt><trkpt lat="44.89392449688819" lon="12.019420049521775"><ele>-3.6000000000000005</ele><time>2026-04-25T09:52:47Z</time></trkpt><trkpt lat="44.89384285857668" lon="12.019340490443119"><ele>-3.4</ele><time>2026-04-25T09:52:49Z</time></trkpt><trkpt lat="44.89376816802997" lon="12.019263228336824"><ele>-3.2</ele><time>2026-04-25T09:52:51Z</time></trkpt><trkpt lat="44.89368936318694" lon="12.019179851977569"><ele>-3.0</ele><time>2026-04-25T09:52:53Z</time></trkpt><trkpt lat="44.89361015600113" lon="12.019102207796221"><ele>-3.1666666666666665</ele><time>2026-04-25T09:52:55Z</time></trkpt><trkpt lat="44.89353524849224" lon="12.01902863172506"><ele>-3.333333333333333</ele><time>2026-04-25T09:52:57Z</time></trkpt><trkpt lat="44.89346275059524" lon="12.01896772344484"><ele>-3.5</ele><time>2026-04-25T09:52:59Z</time></trkpt><trkpt lat="44.89339700063767" lon="12.01890476269825"><ele>-3.6666666666666665</ele><time>2026-04-25T09:53:01Z</time></trkpt><trkpt lat="44.893335465285794" lon="12.018844069406578"><ele>-3.833333333333333</ele><time>2026-04-25T09:53:03Z</time></trkpt><trkpt lat="44.893278178868805" lon="12.018792159502322"><ele>-4.0</ele><time>2026-04-25T09:53:05Z</time></trkpt><trkpt lat="44.89320342002317" lon="12.018732176126809"><ele>-3.9999999999999996</ele><time>2026-04-25T09:53:07Z</time></trkpt><trkpt lat="44.893120960697935" lon="12.018675989722428"><ele>-4.0</ele><time>2026-04-25T09:53:09Z</time></trkpt><trkpt lat="44.89303687673757" lon="12.01863520887881"><ele>-4.0</ele><time>2026-04-25T09:53:11Z</time></trkpt><trkpt lat="44.892960526624115" lon="12.018583680596008"><ele>-4.0</ele><time>2026-04-25T09:53:13Z</time></trkpt><trkpt lat="44.89288590814645" lon="12.018542074669787"><ele>-3.9999999999999996</ele><time>2026-04-25T09:53:15Z</time></trkpt><trkpt lat="44.89281718160188" lon="12.01849972620119"><ele>-4.0</ele><time>2026-04-25T09:53:17Z</time></trkpt><trkpt lat="44.89273757242565" lon="12.018454515656986"><ele>-4.0</ele><time>2026-04-25T09:53:19Z</time></trkpt><trkpt lat="44.89264781598657" lon="12.018410856239589"><ele>-4.0</ele><time>2026-04-25T09:53:21Z</time></trkpt><trkpt lat="44.89255821882804" lon="12.018369084084966"><ele>-4.0</ele><time>2026-04-25T09:53:23Z</time></trkpt><trkpt lat="44.892469203959266" lon="12.01832751325055"><ele>-4.0</ele><time>2026-04-25T09:53:25Z</time></trkpt><trkpt lat="44.89238156541414" lon="12.018276361955696"><ele>-4.0</ele><time>2026-04-25T09:53:27Z</time></trkpt><trkpt lat="44.89229311646584" lon="12.01822533306357"><ele>-4.0</ele><time>2026-04-25T09:53:29Z</time></trkpt><trkpt lat="44.89220304286274" lon="12.018177708552653"><ele>-4.0</ele><time>2026-04-25T09:53:30.999Z</time></trkpt><trkpt lat="44.89211463978386" lon="12.018127838556552"><ele>-4.0</ele><time>2026-04-25T09:53:32.999Z</time></trkpt><trkpt lat="44.89202257646682" lon="12.018085247421045"><ele>-4.0</ele><time>2026-04-25T09:53:34.999Z</time></trkpt><trkpt lat="44.891936648118524" lon="12.018043234495368"><ele>-4.0</ele><time>2026-04-25T09:53:37Z</time></trkpt><trkpt lat="44.89185539109468" lon="12.01800484760187"><ele>-3.9999999999999996</ele><time>2026-04-25T09:53:39Z</time></trkpt><trkpt lat="44.8917782849311" lon="12.017959050840123"><ele>-4.0</ele><time>2026-04-25T09:53:41Z</time></trkpt><trkpt lat="44.89169674265109" lon="12.017910747748006"><ele>-4.0</ele><time>2026-04-25T09:53:43Z</time></trkpt><trkpt lat="44.891611157125304" lon="12.017868317006434"><ele>-4.0</ele><time>2026-04-25T09:53:45Z</time></trkpt><trkpt lat="44.891524930279026" lon="12.017821170893594"><ele>-3.9999999999999996</ele><time>2026-04-25T09:53:47Z</time></trkpt><trkpt lat="44.8914376506873" lon="12.017771020746839"><ele>-4.0</ele><time>2026-04-25T09:53:49Z</time></trkpt><trkpt lat="44.89135100983068" lon="12.017727342313492"><ele>-4.0</ele><time>2026-04-25T09:53:51Z</time></trkpt><trkpt lat="44.89126087111483" lon="12.017687337654099"><ele>-4.0</ele><time>2026-04-25T09:53:53Z</time></trkpt><trkpt lat="44.89117304884099" lon="12.01763751116361"><ele>-4.0</ele><time>2026-04-25T09:53:55Z</time></trkpt><trkpt lat="44.89108196311812" lon="12.017593976115373"><ele>-4.0</ele><time>2026-04-25T09:53:57Z</time></trkpt><trkpt lat="44.890997903449275" lon="12.017544776236372"><ele>-4.0</ele><time>2026-04-25T09:53:59Z</time></trkpt><trkpt lat="44.89091785687507" lon="12.0175043235796"><ele>-3.9999999999999996</ele><time>2026-04-25T09:54:01Z</time></trkpt><trkpt lat="44.89085023292137" lon="12.017462879990259"><ele>-4.0</ele><time>2026-04-25T09:54:03Z</time></trkpt><trkpt lat="44.89077114657147" lon="12.017420494034088"><ele>-4.0</ele><time>2026-04-25T09:54:05Z</time></trkpt><trkpt lat="44.890685607561736" lon="12.017373066698747"><ele>-4.0</ele><time>2026-04-25T09:54:07Z</time></trkpt><trkpt lat="44.890598240963776" lon="12.017329208790692"><ele>-3.9999999999999996</ele><time>2026-04-25T09:54:09Z</time></trkpt><trkpt lat="44.890513371469524" lon="12.017291617018742"><ele>-4.0</ele><time>2026-04-25T09:54:11Z</time></trkpt><trkpt lat="44.890424881226984" lon="12.017236809265118"><ele>-4.0</ele><time>2026-04-25T09:54:13Z</time></trkpt><trkpt lat="44.89033697079982" lon="12.017179931445705"><ele>-4.0</ele><time>2026-04-25T09:54:15Z</time></trkpt><trkpt lat="44.890251086726515" lon="12.01713642825555"><ele>-4.0</ele><time>2026-04-25T09:54:17Z</time></trkpt><trkpt lat="44.89016012059474" lon="12.017083412052932"><ele>-4.0</ele><time>2026-04-25T09:54:19Z</time></trkpt><trkpt lat="44.89007079928931" lon="12.017037589642968"><ele>-4.0</ele><time>2026-04-25T09:54:21Z</time></trkpt><trkpt lat="44.88998036098469" lon="12.01699994928365"><ele>-3.833333333333333</ele><time>2026-04-25T09:54:23Z</time></trkpt><trkpt lat="44.889894337512516" lon="12.016956884102283"><ele>-3.6666666666666665</ele><time>2026-04-25T09:54:25Z</time></trkpt><trkpt lat="44.889808204041245" lon="12.016917069637392"><ele>-3.5</ele><time>2026-04-25T09:54:27Z</time></trkpt><trkpt lat="44.889728922696825" lon="12.016873800419434"><ele>-3.333333333333333</ele><time>2026-04-25T09:54:29Z</time></trkpt><trkpt lat="44.8896544080096" lon="12.016831131339067"><ele>-3.1666666666666665</ele><time>2026-04-25T09:54:31Z</time></trkpt><trkpt lat="44.88958333556275" lon="12.016797501843056"><ele>-3.0</ele><time>2026-04-25T09:54:33Z</time></trkpt><trkpt lat="44.88951747356245" lon="12.01676563454187"><ele>-3.0</ele><time>2026-04-25T09:54:35Z</time></trkpt><trkpt lat="44.8894473574081" lon="12.016731487253788"><ele>-3.0</ele><time>2026-04-25T09:54:37Z</time></trkpt><trkpt lat="44.88936235412906" lon="12.016682013681109"><ele>-3.0</ele><time>2026-04-25T09:54:39Z</time></trkpt><trkpt lat="44.88927540667911" lon="12.016638800629822"><ele>-3.0</ele><time>2026-04-25T09:54:41Z</time></trkpt><trkpt lat="44.889187196462416" lon="12.016589116922958"><ele>-3.0</ele><time>2026-04-25T09:54:43Z</time></trkpt><trkpt lat="44.88910039592443" lon="12.01653870703251"><ele>-3.0</ele><time>2026-04-25T09:54:45Z</time></trkpt><trkpt lat="44.88900727127222" lon="12.016500250003343"><ele>-3.4</ele><time>2026-04-25T09:54:47Z</time></trkpt><trkpt lat="44.88891948686368" lon="12.016450379913461"><ele>-3.8</ele><time>2026-04-25T09:54:49Z</time></trkpt><trkpt lat="44.88882540025666" lon="12.01640724702444"><ele>-4.2</ele><time>2026-04-25T09:54:51Z</time></trkpt><trkpt lat="44.88873412693123" lon="12.016357224167164"><ele>-4.6</ele><time>2026-04-25T09:54:53Z</time></trkpt><trkpt lat="44.888641007322335" lon="12.016311463455448"><ele>-5.0</ele><time>2026-04-25T09:54:55Z</time></trkpt><trkpt lat="44.88854925304291" lon="12.016261962599321"><ele>-5.0</ele><time>2026-04-25T09:54:57Z</time></trkpt><trkpt lat="44.88846269096601" lon="12.016196284546556"><ele>-5.0</ele><time>2026-04-25T09:54:59Z</time></trkpt><trkpt lat="44.88838801151561" lon="12.016113038266164"><ele>-5.0</ele><time>2026-04-25T09:55:01Z</time></trkpt><trkpt lat="44.888346515598755" lon="12.0160097998209"><ele>-5.0</ele><time>2026-04-25T09:55:03Z</time></trkpt><trkpt lat="44.888290423760274" lon="12.01593480574061"><ele>-5.0</ele><time>2026-04-25T09:55:05Z</time></trkpt><trkpt lat="44.888218868630744" lon="12.01587883666154"><ele>-5.0</ele><time>2026-04-25T09:55:07Z</time></trkpt><trkpt lat="44.88814309198507" lon="12.01586358431364"><ele>-4.833333333333334</ele><time>2026-04-25T09:55:09Z</time></trkpt><trkpt lat="44.88807197141431" lon="12.01588499282712"><ele>-4.666666666666667</ele><time>2026-04-25T09:55:11Z</time></trkpt><trkpt lat="44.88799704922635" lon="12.015889523473957"><ele>-4.5</ele><time>2026-04-25T09:55:13Z</time></trkpt><trkpt lat="44.88792504478376" lon="12.015890523901012"><ele>-4.333333333333333</ele><time>2026-04-25T09:55:15Z</time></trkpt><trkpt lat="44.88784623130056" lon="12.015878904773773"><ele>-4.166666666666666</ele><time>2026-04-25T09:55:17Z</time></trkpt><trkpt lat="44.88776211049054" lon="12.01583979625766"><ele>-4.0</ele><time>2026-04-25T09:55:19Z</time></trkpt><trkpt lat="44.887680125179266" lon="12.015792734446327"><ele>-3.9999999999999996</ele><time>2026-04-25T09:55:21Z</time></trkpt><trkpt lat="44.887600419941386" lon="12.015754138038988"><ele>-4.0</ele><time>2026-04-25T09:55:23Z</time></trkpt><trkpt lat="44.887525765337664" lon="12.015706362079559"><ele>-4.0</ele><time>2026-04-25T09:55:25Z</time></trkpt><trkpt lat="44.88744797313896" lon="12.015660840684946"><ele>-4.0</ele><time>2026-04-25T09:55:27Z</time></trkpt><trkpt lat="44.8873644286193" lon="12.01561555924784"><ele>-3.9999999999999996</ele><time>2026-04-25T09:55:29Z</time></trkpt><trkpt lat="44.88727454784504" lon="12.01557184648627"><ele>-4.0</ele><time>2026-04-25T09:55:31Z</time></trkpt><trkpt lat="44.88719126463512" lon="12.015534128279562"><ele>-4.0</ele><time>2026-04-25T09:55:33Z</time></trkpt><trkpt lat="44.887103622596065" lon="12.015486126047227"><ele>-4.0</ele><time>2026-04-25T09:55:35Z</time></trkpt><trkpt lat="44.887016939338785" lon="12.015445094784633"><ele>-4.0</ele><time>2026-04-25T09:55:36.999Z</time></trkpt><trkpt lat="44.886931230685185" lon="12.01540531246605"><ele>-4.0</ele><time>2026-04-25T09:55:38.999Z</time></trkpt><trkpt lat="44.88684482727551" lon="12.015356622566632"><ele>-4.0</ele><time>2026-04-25T09:55:40.999Z</time></trkpt><trkpt lat="44.886757652852815" lon="12.015308679541358"><ele>-4.2</ele><time>2026-04-25T09:55:43Z</time></trkpt><trkpt lat="44.88666940893251" lon="12.015264536566827"><ele>-4.4</ele><time>2026-04-25T09:55:45Z</time></trkpt><trkpt lat="44.886582168166896" lon="12.01521598720155"><ele>-4.6</ele><time>2026-04-25T09:55:47Z</time></trkpt><trkpt lat="44.88649649102918" lon="12.01516593917531"><ele>-4.8</ele><time>2026-04-25T09:55:49Z</time></trkpt><trkpt lat="44.88641241166982" lon="12.015115064804618"><ele>-5.0</ele><time>2026-04-25T09:55:51Z</time></trkpt><trkpt lat="44.88632919457064" lon="12.015062229489839"><ele>-5.0</ele><time>2026-04-25T09:55:53Z</time></trkpt><trkpt lat="44.88625547312658" lon="12.01501071399777"><ele>-5.0</ele><time>2026-04-25T09:55:55Z</time></trkpt><trkpt lat="44.886176140832305" lon="12.01495151998133"><ele>-5.0</ele><time>2026-04-25T09:55:57Z</time></trkpt><trkpt lat="44.886099142301525" lon="12.014883817970013"><ele>-5.0</ele><time>2026-04-25T09:55:59Z</time></trkpt><trkpt lat="44.886023611510275" lon="12.01481049981224"><ele>-5.0</ele><time>2026-04-25T09:56:01Z</time></trkpt><trkpt lat="44.885949572623694" lon="12.014729736132905"><ele>-5.0</ele><time>2026-04-25T09:56:03Z</time></trkpt><trkpt lat="44.885877127836366" lon="12.014646871418469"><ele>-4.8</ele><time>2026-04-25T09:56:05Z</time></trkpt><trkpt lat="44.885806675101264" lon="12.014558530206381"><ele>-4.6</ele><time>2026-04-25T09:56:07Z</time></trkpt><trkpt lat="44.88573440702722" lon="12.014472789513427"><ele>-4.4</ele><time>2026-04-25T09:56:09Z</time></trkpt><trkpt lat="44.88566697159484" lon="12.014378778947838"><ele>-4.2</ele><time>2026-04-25T09:56:11Z</time></trkpt><trkpt lat="44.88559813703499" lon="12.01429313584332"><ele>-4.0</ele><time>2026-04-25T09:56:13Z</time></trkpt><trkpt lat="44.885525240522135" lon="12.014205340926715"><ele>-4.2</ele><time>2026-04-25T09:56:15Z</time></trkpt><trkpt lat="44.885458271255914" lon="12.01411454071745"><ele>-4.4</ele><time>2026-04-25T09:56:17Z</time></trkpt><trkpt lat="44.88539137485462" lon="12.014021074528795"><ele>-4.6</ele><time>2026-04-25T09:56:19Z</time></trkpt><trkpt lat="44.88532109920549" lon="12.013943004741279"><ele>-4.8</ele><time>2026-04-25T09:56:21Z</time></trkpt><trkpt lat="44.88525243081271" lon="12.013853923938807"><ele>-5.0</ele><time>2026-04-25T09:56:23Z</time></trkpt><trkpt lat="44.885182460294146" lon="12.013767283798956"><ele>-5.0</ele><time>2026-04-25T09:56:25Z</time></trkpt><trkpt lat="44.88511483986761" lon="12.013677409065911"><ele>-5.0</ele><time>2026-04-25T09:56:27Z</time></trkpt><trkpt lat="44.88504541751503" lon="12.013590983384344"><ele>-5.0</ele><time>2026-04-25T09:56:29Z</time></trkpt><trkpt lat="44.88497505451483" lon="12.013501659296095"><ele>-5.0</ele><time>2026-04-25T09:56:31Z</time></trkpt><trkpt lat="44.88490432584478" lon="12.013410236829863"><ele>-5.0</ele><time>2026-04-25T09:56:33Z</time></trkpt><trkpt lat="44.884831465969775" lon="12.013324332187368"><ele>-5.0</ele><time>2026-04-25T09:56:35Z</time></trkpt><trkpt lat="44.88476683388033" lon="12.013232855019218"><ele>-5.0</ele><time>2026-04-25T09:56:37Z</time></trkpt><trkpt lat="44.88469745022946" lon="12.013144754736526"><ele>-5.0</ele><time>2026-04-25T09:56:39Z</time></trkpt><trkpt lat="44.8846277598239" lon="12.013055725851084"><ele>-5.0</ele><time>2026-04-25T09:56:41Z</time></trkpt><trkpt lat="44.88455693870109" lon="12.012962376012615"><ele>-5.0</ele><time>2026-04-25T09:56:43Z</time></trkpt><trkpt lat="44.884486212840976" lon="12.012876362782364"><ele>-5.0</ele><time>2026-04-25T09:56:45Z</time></trkpt><trkpt lat="44.88441470728429" lon="12.012788024481162"><ele>-5.0</ele><time>2026-04-25T09:56:47Z</time></trkpt><trkpt lat="44.884349175355936" lon="12.0126924548679"><ele>-5.0</ele><time>2026-04-25T09:56:49Z</time></trkpt><trkpt lat="44.88427637818441" lon="12.012603018614065"><ele>-5.0</ele><time>2026-04-25T09:56:51Z</time></trkpt><trkpt lat="44.884209521982044" lon="12.012521887642938"><ele>-5.0</ele><time>2026-04-25T09:56:53Z</time></trkpt><trkpt lat="44.884146943453814" lon="12.012436249201361"><ele>-4.833333333333334</ele><time>2026-04-25T09:56:55Z</time></trkpt><trkpt lat="44.88408571150022" lon="12.012362507790296"><ele>-4.666666666666667</ele><time>2026-04-25T09:56:57Z</time></trkpt><trkpt lat="44.88403086154272" lon="12.012285713891268"><ele>-4.5</ele><time>2026-04-25T09:56:59Z</time></trkpt><trkpt lat="44.883968466740725" lon="12.012199508150097"><ele>-4.333333333333333</ele><time>2026-04-25T09:57:01Z</time></trkpt><trkpt lat="44.88390102032329" lon="12.012113105487968"><ele>-4.166666666666666</ele><time>2026-04-25T09:57:03Z</time></trkpt><trkpt lat="44.88383115032993" lon="12.012027064714905"><ele>-4.0</ele><time>2026-04-25T09:57:05Z</time></trkpt><trkpt lat="44.88376156049039" lon="12.01193699881117"><ele>-4.0</ele><time>2026-04-25T09:57:07Z</time></trkpt><trkpt lat="44.88369281067538" lon="12.011844888612709"><ele>-4.0</ele><time>2026-04-25T09:57:09Z</time></trkpt><trkpt lat="44.883622724362894" lon="12.011753017545361"><ele>-4.0</ele><time>2026-04-25T09:57:11Z</time></trkpt><trkpt lat="44.883552228881406" lon="12.011657562220616"><ele>-4.0</ele><time>2026-04-25T09:57:13Z</time></trkpt><trkpt lat="44.88348068798101" lon="12.011565992838664"><ele>-4.0</ele><time>2026-04-25T09:57:15Z</time></trkpt><trkpt lat="44.8834050395684" lon="12.011470495867137"><ele>-3.8000000000000003</ele><time>2026-04-25T09:57:17Z</time></trkpt><trkpt lat="44.88333209103075" lon="12.011374540246337"><ele>-3.6000000000000005</ele><time>2026-04-25T09:57:19Z</time></trkpt><trkpt lat="44.88325694517" lon="12.011282339803092"><ele>-3.4</ele><time>2026-04-25T09:57:21Z</time></trkpt><trkpt lat="44.88318178529001" lon="12.011182389835232"><ele>-3.2</ele><time>2026-04-25T09:57:23Z</time></trkpt><trkpt lat="44.883104077441494" lon="12.011085461665385"><ele>-3.0</ele><time>2026-04-25T09:57:25Z</time></trkpt><trkpt lat="44.88303170519401" lon="12.010986139438065"><ele>-3.0</ele><time>2026-04-25T09:57:27Z</time></trkpt><trkpt lat="44.882956911003156" lon="12.010894334870034"><ele>-3.0</ele><time>2026-04-25T09:57:29Z</time></trkpt><trkpt lat="44.88288415242263" lon="12.010798964081536"><ele>-3.0</ele><time>2026-04-25T09:57:31Z</time></trkpt><trkpt lat="44.88281135561033" lon="12.010705291755613"><ele>-3.0</ele><time>2026-04-25T09:57:33Z</time></trkpt><trkpt lat="44.88273939716541" lon="12.010612059525375"><ele>-3.0</ele><time>2026-04-25T09:57:35Z</time></trkpt><trkpt lat="44.882665908932424" lon="12.010519349819369"><ele>-3.4</ele><time>2026-04-25T09:57:37Z</time></trkpt><trkpt lat="44.88259183837078" lon="12.010423617112991"><ele>-3.8</ele><time>2026-04-25T09:57:39Z</time></trkpt><trkpt lat="44.882519951589266" lon="12.010328055677576"><ele>-4.2</ele><time>2026-04-25T09:57:41Z</time></trkpt><trkpt lat="44.88244721290399" lon="12.010232486847546"><ele>-4.6</ele><time>2026-04-25T09:57:43Z</time></trkpt><trkpt lat="44.88237658057931" lon="12.0101419756315"><ele>-5.0</ele><time>2026-04-25T09:57:45Z</time></trkpt><trkpt lat="44.88230517244093" lon="12.010053018555286"><ele>-5.0</ele><time>2026-04-25T09:57:47Z</time></trkpt><trkpt lat="44.882232033779864" lon="12.009963113241543"><ele>-5.0</ele><time>2026-04-25T09:57:49Z</time></trkpt><trkpt lat="44.88216197438654" lon="12.009868201334998"><ele>-5.0</ele><time>2026-04-25T09:57:51Z</time></trkpt><trkpt lat="44.88209308348725" lon="12.009778729843571"><ele>-5.0</ele><time>2026-04-25T09:57:53Z</time></trkpt><trkpt lat="44.88202124360965" lon="12.009694350192595"><ele>-5.0</ele><time>2026-04-25T09:57:55Z</time></trkpt><trkpt lat="44.881945855323366" lon="12.009607301973658"><ele>-5.0</ele><time>2026-04-25T09:57:57Z</time></trkpt><trkpt lat="44.88186857740838" lon="12.00952819383254"><ele>-5.0</ele><time>2026-04-25T09:57:59Z</time></trkpt><trkpt lat="44.88179392079127" lon="12.009450615583349"><ele>-5.0</ele><time>2026-04-25T09:58:01Z</time></trkpt><trkpt lat="44.88171255669018" lon="12.009381416457066"><ele>-5.0</ele><time>2026-04-25T09:58:03Z</time></trkpt><trkpt lat="44.881630584398636" lon="12.009309893396527"><ele>-5.0</ele><time>2026-04-25T09:58:05Z</time></trkpt><trkpt lat="44.88154887403526" lon="12.009245436462093"><ele>-4.833333333333334</ele><time>2026-04-25T09:58:07Z</time></trkpt><trkpt lat="44.88146651307986" lon="12.009184808725593"><ele>-4.666666666666667</ele><time>2026-04-25T09:58:09Z</time></trkpt><trkpt lat="44.88137994027969" lon="12.009138315972315"><ele>-4.5</ele><time>2026-04-25T09:58:11Z</time></trkpt><trkpt lat="44.88129237323283" lon="12.009110882604983"><ele>-4.333333333333333</ele><time>2026-04-25T09:58:13Z</time></trkpt><trkpt lat="44.8812192809205" lon="12.009069659500097"><ele>-4.166666666666666</ele><time>2026-04-25T09:58:15Z</time></trkpt><trkpt lat="44.881150433865976" lon="12.009025352744601"><ele>-4.0</ele><time>2026-04-25T09:58:17Z</time></trkpt><trkpt lat="44.881081712018016" lon="12.008983317155238"><ele>-3.9999999999999996</ele><time>2026-04-25T09:58:19Z</time></trkpt><trkpt lat="44.88099863695022" lon="12.008941740186668"><ele>-4.0</ele><time>2026-04-25T09:58:21Z</time></trkpt><trkpt lat="44.8809113107979" lon="12.00890193459788"><ele>-4.0</ele><time>2026-04-25T09:58:23Z</time></trkpt><trkpt lat="44.88082330984128" lon="12.008862194408312"><ele>-4.0</ele><time>2026-04-25T09:58:25Z</time></trkpt><trkpt lat="44.88074748927615" lon="12.008818800816055"><ele>-3.9999999999999996</ele><time>2026-04-25T09:58:27Z</time></trkpt><trkpt lat="44.880675242567136" lon="12.00877762296091"><ele>-4.0</ele><time>2026-04-25T09:58:29Z</time></trkpt><trkpt lat="44.88061383836651" lon="12.008741205481261"><ele>-3.9999999999999996</ele><time>2026-04-25T09:58:31Z</time></trkpt><trkpt lat="44.88055553923117" lon="12.008702615515661"><ele>-4.0</ele><time>2026-04-25T09:58:33Z</time></trkpt><trkpt lat="44.88048020102945" lon="12.00864738599211"><ele>-4.0</ele><time>2026-04-25T09:58:36Z</time></trkpt><trkpt lat="44.88042078817924" lon="12.008607236141135"><ele>-4.0</ele><time>2026-04-25T09:58:38Z</time></trkpt><trkpt lat="44.88034025117676" lon="12.008550172873488"><ele>-3.9999999999999996</ele><time>2026-04-25T09:58:41Z</time></trkpt><trkpt lat="44.88025775316004" lon="12.008591187075668"><ele>-4.0</ele><time>2026-04-25T09:58:44Z</time></trkpt><trkpt lat="44.88022736899313" lon="12.00868158701272"><ele>-4.0</ele><time>2026-04-25T09:58:46Z</time></trkpt><trkpt lat="44.88019073775613" lon="12.008798927042548"><ele>-4.0</ele><time>2026-04-25T09:58:48Z</time></trkpt><trkpt lat="44.880158015344534" lon="12.008921625292292"><ele>-4.0</ele><time>2026-04-25T09:58:50Z</time></trkpt><trkpt lat="44.880125086542634" lon="12.00904866558145"><ele>-4.0</ele><time>2026-04-25T09:58:52Z</time></trkpt><trkpt lat="44.88009764362035" lon="12.009169681361444"><ele>-4.0</ele><time>2026-04-25T09:58:54Z</time></trkpt><trkpt lat="44.880068429623044" lon="12.009283018504235"><ele>-4.0</ele><time>2026-04-25T09:58:56Z</time></trkpt><trkpt lat="44.880037298405306" lon="12.009405246787189"><ele>-4.0</ele><time>2026-04-25T09:58:58Z</time></trkpt><trkpt lat="44.880002056199395" lon="12.00953239534526"><ele>-4.0</ele><time>2026-04-25T09:59:00Z</time></trkpt><trkpt lat="44.87996781198482" lon="12.009659393166821"><ele>-4.0</ele><time>2026-04-25T09:59:02Z</time></trkpt><trkpt lat="44.87993775400639" lon="12.009786803382555"><ele>-4.0</ele><time>2026-04-25T09:59:04Z</time></trkpt><trkpt lat="44.879904854331784" lon="12.009909344218004"><ele>-3.8000000000000003</ele><time>2026-04-25T09:59:06Z</time></trkpt><trkpt lat="44.87987237783597" lon="12.010031199192076"><ele>-3.6000000000000005</ele><time>2026-04-25T09:59:08Z</time></trkpt><trkpt lat="44.87983917526581" lon="12.01014901838836"><ele>-3.4</ele><time>2026-04-25T09:59:10Z</time></trkpt><trkpt lat="44.87980547518461" lon="12.010270211226667"><ele>-3.2</ele><time>2026-04-25T09:59:12Z</time></trkpt><trkpt lat="44.87977436676583" lon="12.01038633659173"><ele>-3.0</ele><time>2026-04-25T09:59:14Z</time></trkpt><trkpt lat="44.879742714266584" lon="12.010504804092253"><ele>-3.0</ele><time>2026-04-25T09:59:16Z</time></trkpt><trkpt lat="44.879710636796425" lon="12.010617723681555"><ele>-3.0</ele><time>2026-04-25T09:59:18Z</time></trkpt><trkpt lat="44.87967962506929" lon="12.010745299844855"><ele>-3.0</ele><time>2026-04-25T09:59:20Z</time></trkpt><trkpt lat="44.879646784624725" lon="12.010876273388952"><ele>-3.0</ele><time>2026-04-25T09:59:22Z</time></trkpt><trkpt lat="44.87961725314871" lon="12.011005052273903"><ele>-3.0</ele><time>2026-04-25T09:59:24Z</time></trkpt><trkpt lat="44.87957912757876" lon="12.01113802063575"><ele>-3.2</ele><time>2026-04-25T09:59:26Z</time></trkpt><trkpt lat="44.87954351977545" lon="12.011267696593956"><ele>-3.4</ele><time>2026-04-25T09:59:28Z</time></trkpt><trkpt lat="44.87951163738227" lon="12.011396786821392"><ele>-3.6000000000000005</ele><time>2026-04-25T09:59:30Z</time></trkpt><trkpt lat="44.8794788752986" lon="12.011520161492117"><ele>-3.8000000000000003</ele><time>2026-04-25T09:59:32Z</time></trkpt><trkpt lat="44.87944178196756" lon="12.011644659556593"><ele>-4.0</ele><time>2026-04-25T09:59:34Z</time></trkpt><trkpt lat="44.879404033553534" lon="12.01176745952038"><ele>-4.2</ele><time>2026-04-25T09:59:36Z</time></trkpt><trkpt lat="44.879372303240395" lon="12.011904011336286"><ele>-4.4</ele><time>2026-04-25T09:59:38Z</time></trkpt><trkpt lat="44.87934004505527" lon="12.012033514557729"><ele>-4.6</ele><time>2026-04-25T09:59:40Z</time></trkpt><trkpt lat="44.87930672436562" lon="12.012161459252901"><ele>-4.8</ele><time>2026-04-25T09:59:41.999Z</time></trkpt><trkpt lat="44.87927294157395" lon="12.01229100011002"><ele>-5.0</ele><time>2026-04-25T09:59:43.999Z</time></trkpt><trkpt lat="44.87923771155617" lon="12.012420187384262"><ele>-4.8</ele><time>2026-04-25T09:59:45.999Z</time></trkpt><trkpt lat="44.879205361877354" lon="12.012546943609427"><ele>-4.6</ele><time>2026-04-25T09:59:47.999Z</time></trkpt><trkpt lat="44.87916975043541" lon="12.012671561217703"><ele>-4.4</ele><time>2026-04-25T09:59:49.999Z</time></trkpt><trkpt lat="44.87913561623161" lon="12.012797704612558"><ele>-4.2</ele><time>2026-04-25T09:59:51.999Z</time></trkpt><trkpt lat="44.87909980525839" lon="12.012919847102316"><ele>-4.0</ele><time>2026-04-25T09:59:54Z</time></trkpt><trkpt lat="44.87907048426002" lon="12.013044728313004"><ele>-4.0</ele><time>2026-04-25T09:59:56Z</time></trkpt><trkpt lat="44.87903407588296" lon="12.013167607389061"><ele>-4.0</ele><time>2026-04-25T09:59:58Z</time></trkpt><trkpt lat="44.87900343860651" lon="12.013288535039896"><ele>-4.0</ele><time>2026-04-25T10:00:00Z</time></trkpt><trkpt lat="44.87897313495295" lon="12.013408841397748"><ele>-4.0</ele><time>2026-04-25T10:00:02Z</time></trkpt><trkpt lat="44.878942418512075" lon="12.013528961038539"><ele>-4.0</ele><time>2026-04-25T10:00:04Z</time></trkpt><trkpt lat="44.878914416508984" lon="12.013654265085556"><ele>-4.2</ele><time>2026-04-25T10:00:06Z</time></trkpt><trkpt lat="44.878876329712234" lon="12.013771903653263"><ele>-4.4</ele><time>2026-04-25T10:00:08Z</time></trkpt><trkpt lat="44.87884451827432" lon="12.0138988964495"><ele>-4.6</ele><time>2026-04-25T10:00:10Z</time></trkpt><trkpt lat="44.8788106992106" lon="12.014016851081005"><ele>-4.8</ele><time>2026-04-25T10:00:12Z</time></trkpt><trkpt lat="44.87877728923755" lon="12.014144292315262"><ele>-5.0</ele><time>2026-04-25T10:00:14Z</time></trkpt><trkpt lat="44.87874806782293" lon="12.01427445889574"><ele>-5.0</ele><time>2026-04-25T10:00:16Z</time></trkpt><trkpt lat="44.87872128350444" lon="12.014399984172288"><ele>-5.0</ele><time>2026-04-25T10:00:18Z</time></trkpt><trkpt lat="44.878683032870505" lon="12.014516164136708"><ele>-5.0</ele><time>2026-04-25T10:00:20Z</time></trkpt><trkpt lat="44.87865056325479" lon="12.014629740613824"><ele>-5.0</ele><time>2026-04-25T10:00:22Z</time></trkpt><trkpt lat="44.87862073438072" lon="12.014753282870306"><ele>-5.0</ele><time>2026-04-25T10:00:24Z</time></trkpt><trkpt lat="44.87859152721897" lon="12.014874852137666"><ele>-4.8</ele><time>2026-04-25T10:00:26Z</time></trkpt><trkpt lat="44.878559751083884" lon="12.014998574822071"><ele>-4.6</ele><time>2026-04-25T10:00:28Z</time></trkpt><trkpt lat="44.878523585071186" lon="12.01512066746643"><ele>-4.4</ele><time>2026-04-25T10:00:30Z</time></trkpt><trkpt lat="44.878490539878804" lon="12.015249036547505"><ele>-4.2</ele><time>2026-04-25T10:00:32Z</time></trkpt><trkpt lat="44.87845568314188" lon="12.015379337306507"><ele>-4.0</ele><time>2026-04-25T10:00:34Z</time></trkpt><trkpt lat="44.87842363567882" lon="12.015510214098667"><ele>-3.9999999999999996</ele><time>2026-04-25T10:00:36Z</time></trkpt><trkpt lat="44.87839439597347" lon="12.015632763734516"><ele>-4.0</ele><time>2026-04-25T10:00:38Z</time></trkpt><trkpt lat="44.8783662806975" lon="12.015750020672419"><ele>-4.0</ele><time>2026-04-25T10:00:40Z</time></trkpt><trkpt lat="44.878336090442254" lon="12.015861666651775"><ele>-4.0</ele><time>2026-04-25T10:00:42Z</time></trkpt><trkpt lat="44.87830923101902" lon="12.015969063418666"><ele>-3.9999999999999996</ele><time>2026-04-25T10:00:44Z</time></trkpt><trkpt lat="44.87827698997358" lon="12.016088581914461"><ele>-4.0</ele><time>2026-04-25T10:00:46Z</time></trkpt><trkpt lat="44.878249599876895" lon="12.016220618497352"><ele>-3.833333333333333</ele><time>2026-04-25T10:00:48Z</time></trkpt><trkpt lat="44.8782175193721" lon="12.01633820098251"><ele>-3.6666666666666665</ele><time>2026-04-25T10:00:50Z</time></trkpt><trkpt lat="44.87818790397435" lon="12.016455510668408"><ele>-3.5</ele><time>2026-04-25T10:00:52Z</time></trkpt><trkpt lat="44.878157592416635" lon="12.01656801127891"><ele>-3.333333333333333</ele><time>2026-04-25T10:00:54Z</time></trkpt><trkpt lat="44.87813309245154" lon="12.01667749293965"><ele>-3.1666666666666665</ele><time>2026-04-25T10:00:56Z</time></trkpt><trkpt lat="44.87809547361905" lon="12.016788703609013"><ele>-3.0</ele><time>2026-04-25T10:00:58Z</time></trkpt><trkpt lat="44.87806522240264" lon="12.016914593477715"><ele>-2.8</ele><time>2026-04-25T10:01:00Z</time></trkpt><trkpt lat="44.878032544219145" lon="12.017037555066755"><ele>-2.5999999999999996</ele><time>2026-04-25T10:01:02Z</time></trkpt><trkpt lat="44.877998481843306" lon="12.0171645908941"><ele>-2.4000000000000004</ele><time>2026-04-25T10:01:04Z</time></trkpt><trkpt lat="44.87796477343607" lon="12.01728641080615"><ele>-2.2</ele><time>2026-04-25T10:01:06Z</time></trkpt><trkpt lat="44.877935778570894" lon="12.017403321632088"><ele>-2.0</ele><time>2026-04-25T10:01:08Z</time></trkpt><trkpt lat="44.87790428553352" lon="12.017512872772329"><ele>-1.9999999999999998</ele><time>2026-04-25T10:01:10Z</time></trkpt><trkpt lat="44.87787248792821" lon="12.017620627896989"><ele>-2.0</ele><time>2026-04-25T10:01:12Z</time></trkpt><trkpt lat="44.87784117322359" lon="12.017725912083836"><ele>-2.0</ele><time>2026-04-25T10:01:14Z</time></trkpt><trkpt lat="44.87781382179352" lon="12.01784423740165"><ele>-2.0</ele><time>2026-04-25T10:01:16Z</time></trkpt><trkpt lat="44.877781633459776" lon="12.017964874976235"><ele>-1.9999999999999998</ele><time>2026-04-25T10:01:18Z</time></trkpt><trkpt lat="44.877751999063506" lon="12.018091534435875"><ele>-2.0</ele><time>2026-04-25T10:01:20Z</time></trkpt><trkpt lat="44.87771402620381" lon="12.01821470581188"><ele>-2.2</ele><time>2026-04-25T10:01:22Z</time></trkpt><trkpt lat="44.877668611086754" lon="12.018336108895955"><ele>-2.4000000000000004</ele><time>2026-04-25T10:01:24Z</time></trkpt><trkpt lat="44.87761980408576" lon="12.018443955821029"><ele>-2.5999999999999996</ele><time>2026-04-25T10:01:26Z</time></trkpt><trkpt lat="44.87756518167803" lon="12.018563824863735"><ele>-2.8</ele><time>2026-04-25T10:01:28Z</time></trkpt><trkpt lat="44.877506840314105" lon="12.018663996300692"><ele>-3.0</ele><time>2026-04-25T10:01:30Z</time></trkpt><trkpt lat="44.8774460707873" lon="12.018762846294294"><ele>-3.0</ele><time>2026-04-25T10:01:32Z</time></trkpt><trkpt lat="44.8773785460034" lon="12.018856005183125"><ele>-3.0</ele><time>2026-04-25T10:01:34Z</time></trkpt><trkpt lat="44.877303304141286" lon="12.01894725802661"><ele>-3.0</ele><time>2026-04-25T10:01:36Z</time></trkpt><trkpt lat="44.877230379021476" lon="12.019032696083492"><ele>-3.0</ele><time>2026-04-25T10:01:38Z</time></trkpt><trkpt lat="44.877152620271424" lon="12.019108057740661"><ele>-3.0</ele><time>2026-04-25T10:01:40Z</time></trkpt><trkpt lat="44.8770760661154" lon="12.019186526126612"><ele>-3.0</ele><time>2026-04-25T10:01:42Z</time></trkpt><trkpt lat="44.876999176564084" lon="12.019262953661665"><ele>-3.0</ele><time>2026-04-25T10:01:44Z</time></trkpt><trkpt lat="44.876921570814666" lon="12.019338661210734"><ele>-3.0</ele><time>2026-04-25T10:01:46Z</time></trkpt><trkpt lat="44.876841507071454" lon="12.019420982433813"><ele>-3.0</ele><time>2026-04-25T10:01:48Z</time></trkpt><trkpt lat="44.87676379312673" lon="12.019497807703218"><ele>-3.0</ele><time>2026-04-25T10:01:50Z</time></trkpt><trkpt lat="44.87668573814574" lon="12.01957746959162"><ele>-3.0</ele><time>2026-04-25T10:01:51.999Z</time></trkpt><trkpt lat="44.876606789762256" lon="12.019656345648828"><ele>-3.0</ele><time>2026-04-25T10:01:53.999Z</time></trkpt><trkpt lat="44.87652909937538" lon="12.019735320730398"><ele>-3.0</ele><time>2026-04-25T10:01:55.999Z</time></trkpt><trkpt lat="44.87645086851775" lon="12.019818728158054"><ele>-3.0</ele><time>2026-04-25T10:01:57.999Z</time></trkpt><trkpt lat="44.87636835487298" lon="12.0198975576609"><ele>-3.0</ele><time>2026-04-25T10:02:00Z</time></trkpt><trkpt lat="44.876284470333005" lon="12.019984401624354"><ele>-3.2</ele><time>2026-04-25T10:02:02Z</time></trkpt><trkpt lat="44.876206457276595" lon="12.020061423873777"><ele>-3.4</ele><time>2026-04-25T10:02:04Z</time></trkpt><trkpt lat="44.87612302738362" lon="12.020146202762575"><ele>-3.6000000000000005</ele><time>2026-04-25T10:02:06Z</time></trkpt><trkpt lat="44.8760427829317" lon="12.02022817353168"><ele>-3.8000000000000003</ele><time>2026-04-25T10:02:08Z</time></trkpt><trkpt lat="44.87595813319722" lon="12.020309801701709"><ele>-4.0</ele><time>2026-04-25T10:02:10Z</time></trkpt><trkpt lat="44.87587259748569" lon="12.020390078810275"><ele>-3.8000000000000003</ele><time>2026-04-25T10:02:12Z</time></trkpt><trkpt lat="44.875788385935905" lon="12.02047479473548"><ele>-3.6000000000000005</ele><time>2026-04-25T10:02:14Z</time></trkpt><trkpt lat="44.87570603361445" lon="12.020560229388838"><ele>-3.4</ele><time>2026-04-25T10:02:16Z</time></trkpt><trkpt lat="44.87562792329191" lon="12.020643771395553"><ele>-3.2</ele><time>2026-04-25T10:02:18Z</time></trkpt><trkpt lat="44.875553832446705" lon="12.020737853882327"><ele>-3.0</ele><time>2026-04-25T10:02:20Z</time></trkpt><trkpt lat="44.87548261107317" lon="12.020834906588908"><ele>-3.0</ele><time>2026-04-25T10:02:22Z</time></trkpt><trkpt lat="44.87541730842298" lon="12.02094071099995"><ele>-3.0</ele><time>2026-04-25T10:02:24Z</time></trkpt><trkpt lat="44.87536512022285" lon="12.021050316477657"><ele>-3.0</ele><time>2026-04-25T10:02:26Z</time></trkpt><trkpt lat="44.87532017478363" lon="12.021169031319008"><ele>-3.0</ele><time>2026-04-25T10:02:28Z</time></trkpt><trkpt lat="44.8752879190228" lon="12.021292618775957"><ele>-3.0</ele><time>2026-04-25T10:02:30Z</time></trkpt><trkpt lat="44.87525850444759" lon="12.021415273230689"><ele>-3.0</ele><time>2026-04-25T10:02:32Z</time></trkpt><trkpt lat="44.87524004213088" lon="12.02154437266983"><ele>-3.0</ele><time>2026-04-25T10:02:34Z</time></trkpt><trkpt lat="44.875227409842665" lon="12.021673445888286"><ele>-3.0</ele><time>2026-04-25T10:02:36Z</time></trkpt><trkpt lat="44.87521968760226" lon="12.021804368366851"><ele>-3.0</ele><time>2026-04-25T10:02:38Z</time></trkpt><trkpt lat="44.87521315995668" lon="12.021936749356476"><ele>-3.0</ele><time>2026-04-25T10:02:40Z</time></trkpt><trkpt lat="44.875205478088425" lon="12.022070671951415"><ele>-3.0</ele><time>2026-04-25T10:02:42Z</time></trkpt><trkpt lat="44.875195709651486" lon="12.022203370374301"><ele>-3.0</ele><time>2026-04-25T10:02:44Z</time></trkpt><trkpt lat="44.875189345078134" lon="12.02234063951321"><ele>-3.0</ele><time>2026-04-25T10:02:46Z</time></trkpt><trkpt lat="44.875181554143225" lon="12.022475714775103"><ele>-3.0</ele><time>2026-04-25T10:02:48Z</time></trkpt><trkpt lat="44.87516795337383" lon="12.02260857684693"><ele>-3.0</ele><time>2026-04-25T10:02:50Z</time></trkpt><trkpt lat="44.875163866986725" lon="12.022749155451327"><ele>-3.2</ele><time>2026-04-25T10:02:52Z</time></trkpt><trkpt lat="44.87515262848087" lon="12.022891301987729"><ele>-3.4</ele><time>2026-04-25T10:02:54Z</time></trkpt><trkpt lat="44.87514350604254" lon="12.02303266648104"><ele>-3.6000000000000005</ele><time>2026-04-25T10:02:56Z</time></trkpt><trkpt lat="44.87513525496489" lon="12.023178565886935"><ele>-3.8000000000000003</ele><time>2026-04-25T10:02:58Z</time></trkpt><trkpt lat="44.87512645800093" lon="12.023325110665242"><ele>-4.0</ele><time>2026-04-25T10:03:00Z</time></trkpt><trkpt lat="44.875117113194555" lon="12.023468141872637"><ele>-4.2</ele><time>2026-04-25T10:03:02Z</time></trkpt><trkpt lat="44.87511175294413" lon="12.023610123261797"><ele>-4.4</ele><time>2026-04-25T10:03:04Z</time></trkpt><trkpt lat="44.875103730020435" lon="12.023751586573258"><ele>-4.6</ele><time>2026-04-25T10:03:06Z</time></trkpt><trkpt lat="44.87509614938233" lon="12.023885307130692"><ele>-4.8</ele><time>2026-04-25T10:03:08Z</time></trkpt><trkpt lat="44.875089053980766" lon="12.024019773648423"><ele>-5.0</ele><time>2026-04-25T10:03:10Z</time></trkpt><trkpt lat="44.87508083036251" lon="12.024149477895294"><ele>-4.6</ele><time>2026-04-25T10:03:12Z</time></trkpt><trkpt lat="44.875072823750564" lon="12.024284525128307"><ele>-4.2</ele><time>2026-04-25T10:03:14Z</time></trkpt><trkpt lat="44.875068350809144" lon="12.024414717920697"><ele>-3.8</ele><time>2026-04-25T10:03:16Z</time></trkpt><trkpt lat="44.87505986910725" lon="12.024545336147456"><ele>-3.4</ele><time>2026-04-25T10:03:18Z</time></trkpt><trkpt lat="44.875055285651854" lon="12.024680963473102"><ele>-3.0</ele><time>2026-04-25T10:03:20Z</time></trkpt><trkpt lat="44.87504680915897" lon="12.024810865014175"><ele>-3.0</ele><time>2026-04-25T10:03:22Z</time></trkpt><trkpt lat="44.8750390600632" lon="12.0249465275867"><ele>-3.0</ele><time>2026-04-25T10:03:24Z</time></trkpt><trkpt lat="44.875029237001" lon="12.02507828326044"><ele>-3.0</ele><time>2026-04-25T10:03:26Z</time></trkpt><trkpt lat="44.87502341154124" lon="12.025212864729363"><ele>-3.0</ele><time>2026-04-25T10:03:28Z</time></trkpt><trkpt lat="44.87501545486826" lon="12.025347321124432"><ele>-3.0</ele><time>2026-04-25T10:03:30Z</time></trkpt><trkpt lat="44.87500391655492" lon="12.025481922181012"><ele>-3.0</ele><time>2026-04-25T10:03:32Z</time></trkpt><trkpt lat="44.874987012679895" lon="12.025616345833866"><ele>-3.0</ele><time>2026-04-25T10:03:34Z</time></trkpt><trkpt lat="44.874975114390125" lon="12.025753141757676"><ele>-3.0</ele><time>2026-04-25T10:03:36Z</time></trkpt><trkpt lat="44.87495034779329" lon="12.025885599786342"><ele>-3.0</ele><time>2026-04-25T10:03:38Z</time></trkpt><trkpt lat="44.874911581088064" lon="12.026013149390877"><ele>-3.0</ele><time>2026-04-25T10:03:40Z</time></trkpt><trkpt lat="44.874869099059126" lon="12.026133453801656"><ele>-3.0</ele><time>2026-04-25T10:03:42Z</time></trkpt><trkpt lat="44.874816180257945" lon="12.026251261946566"><ele>-3.0</ele><time>2026-04-25T10:03:44Z</time></trkpt><trkpt lat="44.87475656609834" lon="12.02636404552761"><ele>-3.0</ele><time>2026-04-25T10:03:46Z</time></trkpt><trkpt lat="44.87469851705064" lon="12.026470434344796"><ele>-3.0</ele><time>2026-04-25T10:03:48Z</time></trkpt><trkpt lat="44.87463073290882" lon="12.026568373745024"><ele>-3.0</ele><time>2026-04-25T10:03:50Z</time></trkpt><trkpt lat="44.87456466024784" lon="12.026663303474074"><ele>-3.4</ele><time>2026-04-25T10:03:52Z</time></trkpt><trkpt lat="44.874498706106664" lon="12.026758511826479"><ele>-3.8</ele><time>2026-04-25T10:03:54Z</time></trkpt><trkpt lat="44.87443179864838" lon="12.02685276503031"><ele>-4.2</ele><time>2026-04-25T10:03:56Z</time></trkpt><trkpt lat="44.87436377633973" lon="12.026951918838067"><ele>-4.6</ele><time>2026-04-25T10:03:58Z</time></trkpt><trkpt lat="44.874296213899186" lon="12.027049566644804"><ele>-5.0</ele><time>2026-04-25T10:04:00Z</time></trkpt><trkpt lat="44.87422821671456" lon="12.027145401801171"><ele>-5.0</ele><time>2026-04-25T10:04:02Z</time></trkpt><trkpt lat="44.87416222066306" lon="12.027240111951011"><ele>-5.0</ele><time>2026-04-25T10:04:04Z</time></trkpt><trkpt lat="44.87410092942317" lon="12.027340897447566"><ele>-5.0</ele><time>2026-04-25T10:04:06Z</time></trkpt><trkpt lat="44.87402946693393" lon="12.027435200612667"><ele>-5.0</ele><time>2026-04-25T10:04:08Z</time></trkpt><trkpt lat="44.87396600675607" lon="12.027531177284308"><ele>-5.0</ele><time>2026-04-25T10:04:10Z</time></trkpt><trkpt lat="44.87390003941229" lon="12.027627813003283"><ele>-5.0</ele><time>2026-04-25T10:04:12Z</time></trkpt><trkpt lat="44.87383103915191" lon="12.027723375527842"><ele>-5.0</ele><time>2026-04-25T10:04:14Z</time></trkpt><trkpt lat="44.87376088777151" lon="12.027822844665922"><ele>-5.0</ele><time>2026-04-25T10:04:16Z</time></trkpt><trkpt lat="44.8736931676315" lon="12.027921793143625"><ele>-5.0</ele><time>2026-04-25T10:04:18Z</time></trkpt><trkpt lat="44.87362697725271" lon="12.028017185548086"><ele>-5.0</ele><time>2026-04-25T10:04:20Z</time></trkpt><trkpt lat="44.873560658643534" lon="12.028116425952494"><ele>-5.0</ele><time>2026-04-25T10:04:22Z</time></trkpt><trkpt lat="44.873492525365016" lon="12.028214631476036"><ele>-5.0</ele><time>2026-04-25T10:04:24Z</time></trkpt><trkpt lat="44.873422949996275" lon="12.028311028508169"><ele>-5.0</ele><time>2026-04-25T10:04:26Z</time></trkpt><trkpt lat="44.873354600003076" lon="12.028408994639902"><ele>-5.0</ele><time>2026-04-25T10:04:28Z</time></trkpt><trkpt lat="44.873287863452035" lon="12.02850733156381"><ele>-5.0</ele><time>2026-04-25T10:04:30Z</time></trkpt><trkpt lat="44.87321920902164" lon="12.028607265959621"><ele>-4.8</ele><time>2026-04-25T10:04:32Z</time></trkpt><trkpt lat="44.87315266222541" lon="12.028704145124754"><ele>-4.6</ele><time>2026-04-25T10:04:34Z</time></trkpt><trkpt lat="44.8730843320809" lon="12.028804100233748"><ele>-4.4</ele><time>2026-04-25T10:04:36Z</time></trkpt><trkpt lat="44.87301499058777" lon="12.02890286640954"><ele>-4.2</ele><time>2026-04-25T10:04:38Z</time></trkpt><trkpt lat="44.87294540374642" lon="12.029005092962915"><ele>-4.0</ele><time>2026-04-25T10:04:40Z</time></trkpt><trkpt lat="44.87287914909692" lon="12.029106327439367"><ele>-4.0</ele><time>2026-04-25T10:04:42Z</time></trkpt><trkpt lat="44.87281002107772" lon="12.029205573373918"><ele>-4.0</ele><time>2026-04-25T10:04:44Z</time></trkpt><trkpt lat="44.87274179754186" lon="12.02930788706563"><ele>-4.0</ele><time>2026-04-25T10:04:46Z</time></trkpt><trkpt lat="44.87267175486138" lon="12.0294125510727"><ele>-4.0</ele><time>2026-04-25T10:04:48Z</time></trkpt><trkpt lat="44.87260116320722" lon="12.02951666611548"><ele>-4.0</ele><time>2026-04-25T10:04:50Z</time></trkpt><trkpt lat="44.87253096093162" lon="12.029618138678122"><ele>-4.0</ele><time>2026-04-25T10:04:52Z</time></trkpt><trkpt lat="44.87245746673504" lon="12.02972001790879"><ele>-4.0</ele><time>2026-04-25T10:04:54Z</time></trkpt><trkpt lat="44.87238403074975" lon="12.029825306353514"><ele>-4.0</ele><time>2026-04-25T10:04:56Z</time></trkpt><trkpt lat="44.87231423493691" lon="12.029931209782124"><ele>-4.0</ele><time>2026-04-25T10:04:58Z</time></trkpt><trkpt lat="44.872241806600236" lon="12.030036769476586"><ele>-4.0</ele><time>2026-04-25T10:05:00Z</time></trkpt><trkpt lat="44.87216953787189" lon="12.030139147576017"><ele>-4.0</ele><time>2026-04-25T10:05:02Z</time></trkpt><trkpt lat="44.87209867588992" lon="12.030241791073053"><ele>-4.0</ele><time>2026-04-25T10:05:04Z</time></trkpt><trkpt lat="44.87203235043742" lon="12.030344712168787"><ele>-4.0</ele><time>2026-04-25T10:05:06Z</time></trkpt><trkpt lat="44.87196254173355" lon="12.030440079382522"><ele>-4.0</ele><time>2026-04-25T10:05:08Z</time></trkpt><trkpt lat="44.87189444412554" lon="12.030536408745931"><ele>-4.0</ele><time>2026-04-25T10:05:10Z</time></trkpt><trkpt lat="44.871830573449586" lon="12.030633637572022"><ele>-3.8000000000000003</ele><time>2026-04-25T10:05:12Z</time></trkpt><trkpt lat="44.871763121331874" lon="12.030725589629158"><ele>-3.6000000000000005</ele><time>2026-04-25T10:05:14Z</time></trkpt><trkpt lat="44.87169987016258" lon="12.030826179841888"><ele>-3.4</ele><time>2026-04-25T10:05:16Z</time></trkpt><trkpt lat="44.87163469385104" lon="12.030914242968697"><ele>-3.2</ele><time>2026-04-25T10:05:18Z</time></trkpt><trkpt lat="44.8715702340899" lon="12.031008429246254"><ele>-3.0</ele><time>2026-04-25T10:05:20Z</time></trkpt><trkpt lat="44.8715030932026" lon="12.031106416164127"><ele>-2.8</ele><time>2026-04-25T10:05:22Z</time></trkpt><trkpt lat="44.8714397442747" lon="12.03119918594277"><ele>-2.5999999999999996</ele><time>2026-04-25T10:05:24Z</time></trkpt><trkpt lat="44.87137300099244" lon="12.0312906766594"><ele>-2.4000000000000004</ele><time>2026-04-25T10:05:26Z</time></trkpt><trkpt lat="44.87130767246003" lon="12.031392037665208"><ele>-2.2</ele><time>2026-04-25T10:05:28Z</time></trkpt><trkpt lat="44.871243000798366" lon="12.031489124188612"><ele>-2.0</ele><time>2026-04-25T10:05:30Z</time></trkpt><trkpt lat="44.87117580466784" lon="12.031587235087386"><ele>-2.4000000000000004</ele><time>2026-04-25T10:05:32Z</time></trkpt><trkpt lat="44.8711089677552" lon="12.031685729943732"><ele>-2.8000000000000003</ele><time>2026-04-25T10:05:34Z</time></trkpt><trkpt lat="44.87104625134464" lon="12.031788197666982"><ele>-3.2</ele><time>2026-04-25T10:05:36Z</time></trkpt><trkpt lat="44.870981064181215" lon="12.03188456379827"><ele>-3.6</ele><time>2026-04-25T10:05:38Z</time></trkpt><trkpt lat="44.870913589725525" lon="12.031978031010173"><ele>-4.0</ele><time>2026-04-25T10:05:40Z</time></trkpt><trkpt lat="44.870847124041596" lon="12.032075917089614"><ele>-4.0</ele><time>2026-04-25T10:05:42Z</time></trkpt><trkpt lat="44.87078130956313" lon="12.032173208329558"><ele>-4.0</ele><time>2026-04-25T10:05:44Z</time></trkpt><trkpt lat="44.870713526891386" lon="12.032270157271256"><ele>-4.0</ele><time>2026-04-25T10:05:46Z</time></trkpt><trkpt lat="44.870647256809974" lon="12.03237099814496"><ele>-4.0</ele><time>2026-04-25T10:05:48Z</time></trkpt><trkpt lat="44.87058075225462" lon="12.03247128919607"><ele>-4.0</ele><time>2026-04-25T10:05:50Z</time></trkpt><trkpt lat="44.870513333077646" lon="12.032563875696889"><ele>-4.0</ele><time>2026-04-25T10:05:52Z</time></trkpt><trkpt lat="44.87044857089177" lon="12.032656683716823"><ele>-4.0</ele><time>2026-04-25T10:05:54Z</time></trkpt><trkpt lat="44.87038504065865" lon="12.03275014522373"><ele>-4.0</ele><time>2026-04-25T10:05:56Z</time></trkpt><trkpt lat="44.87031823414134" lon="12.032854465655237"><ele>-4.0</ele><time>2026-04-25T10:05:58Z</time></trkpt><trkpt lat="44.87024966376202" lon="12.03295560897432"><ele>-4.0</ele><time>2026-04-25T10:06:00Z</time></trkpt><trkpt lat="44.870183014921274" lon="12.03305321942788"><ele>-4.0</ele><time>2026-04-25T10:06:02Z</time></trkpt><trkpt lat="44.87011457790998" lon="12.033149100736958"><ele>-4.0</ele><time>2026-04-25T10:06:04Z</time></trkpt><trkpt lat="44.87004117932484" lon="12.03324514086375"><ele>-4.0</ele><time>2026-04-25T10:06:06Z</time></trkpt><trkpt lat="44.86997009832036" lon="12.033345328601566"><ele>-4.0</ele><time>2026-04-25T10:06:08Z</time></trkpt><trkpt lat="44.86990080787551" lon="12.03344552793589"><ele>-4.0</ele><time>2026-04-25T10:06:10Z</time></trkpt><trkpt lat="44.86983187652154" lon="12.033546688181712"><ele>-3.8000000000000003</ele><time>2026-04-25T10:06:12Z</time></trkpt><trkpt lat="44.869764379079825" lon="12.033650776674847"><ele>-3.6000000000000005</ele><time>2026-04-25T10:06:14Z</time></trkpt><trkpt lat="44.86969311048476" lon="12.033749995832245"><ele>-3.4</ele><time>2026-04-25T10:06:16Z</time></trkpt><trkpt lat="44.86962248041933" lon="12.03385115330537"><ele>-3.2</ele><time>2026-04-25T10:06:18Z</time></trkpt><trkpt lat="44.86954909224834" lon="12.033950624352038"><ele>-3.0</ele><time>2026-04-25T10:06:20Z</time></trkpt><trkpt lat="44.86947897426972" lon="12.034054715863403"><ele>-3.0</ele><time>2026-04-25T10:06:22Z</time></trkpt><trkpt lat="44.869410065008566" lon="12.03414825050192"><ele>-3.0</ele><time>2026-04-25T10:06:24Z</time></trkpt><trkpt lat="44.86934162804105" lon="12.034256224862183"><ele>-3.0</ele><time>2026-04-25T10:06:26Z</time></trkpt><trkpt lat="44.86927282323401" lon="12.034350660405014"><ele>-3.0</ele><time>2026-04-25T10:06:28Z</time></trkpt><trkpt lat="44.86920438096504" lon="12.034449905513286"><ele>-3.0</ele><time>2026-04-25T10:06:30Z</time></trkpt><trkpt lat="44.86913700547389" lon="12.034547951183264"><ele>-3.2</ele><time>2026-04-25T10:06:32Z</time></trkpt><trkpt lat="44.86906985665455" lon="12.034649872193793"><ele>-3.4</ele><time>2026-04-25T10:06:34Z</time></trkpt><trkpt lat="44.86900093331968" lon="12.034749504488465"><ele>-3.6000000000000005</ele><time>2026-04-25T10:06:36Z</time></trkpt><trkpt lat="44.86893264918396" lon="12.034847065730036"><ele>-3.8000000000000003</ele><time>2026-04-25T10:06:38Z</time></trkpt><trkpt lat="44.868866184956026" lon="12.034944550904724"><ele>-4.0</ele><time>2026-04-25T10:06:40Z</time></trkpt><trkpt lat="44.86879718224352" lon="12.035042845991006"><ele>-4.0</ele><time>2026-04-25T10:06:42Z</time></trkpt><trkpt lat="44.86872903947022" lon="12.035141392422432"><ele>-4.0</ele><time>2026-04-25T10:06:44Z</time></trkpt><trkpt lat="44.86866405897771" lon="12.035240055727687"><ele>-4.0</ele><time>2026-04-25T10:06:46Z</time></trkpt><trkpt lat="44.868592655354156" lon="12.035339653197273"><ele>-4.0</ele><time>2026-04-25T10:06:48Z</time></trkpt><trkpt lat="44.868524833858395" lon="12.035440525050594"><ele>-4.0</ele><time>2026-04-25T10:06:50Z</time></trkpt><trkpt lat="44.86845912224502" lon="12.03554012195011"><ele>-4.333333333333333</ele><time>2026-04-25T10:06:52Z</time></trkpt><trkpt lat="44.868401587833596" lon="12.03563822441668"><ele>-4.666666666666666</ele><time>2026-04-25T10:06:54Z</time></trkpt><trkpt lat="44.86833458168273" lon="12.035718924147362"><ele>-5.0</ele><time>2026-04-25T10:06:56Z</time></trkpt><trkpt lat="44.86827422980036" lon="12.03579702799834"><ele>-5.333333333333333</ele><time>2026-04-25T10:06:58Z</time></trkpt><trkpt lat="44.86821920425953" lon="12.03588461028137"><ele>-5.666666666666667</ele><time>2026-04-25T10:07:00Z</time></trkpt><trkpt lat="44.86816657336082" lon="12.035962226644722"><ele>-6.0</ele><time>2026-04-25T10:07:02Z</time></trkpt><trkpt lat="44.868107764351656" lon="12.036049601244295"><ele>-6.0</ele><time>2026-04-25T10:07:04Z</time></trkpt><trkpt lat="44.86805608001659" lon="12.036142317570068"><ele>-6.0</ele><time>2026-04-25T10:07:06Z</time></trkpt><trkpt lat="44.86801206556232" lon="12.036238722809086"><ele>-6.0</ele><time>2026-04-25T10:07:08Z</time></trkpt><trkpt lat="44.867975255940266" lon="12.036345065889947"><ele>-6.0</ele><time>2026-04-25T10:07:10Z</time></trkpt><trkpt lat="44.8679459792278" lon="12.03644330142006"><ele>-6.0</ele><time>2026-04-25T10:07:12Z</time></trkpt><trkpt lat="44.867923144935794" lon="12.036544081058928"><ele>-6.0</ele><time>2026-04-25T10:07:14Z</time></trkpt><trkpt lat="44.86790133127419" lon="12.036645968608568"><ele>-6.166666666666667</ele><time>2026-04-25T10:07:17Z</time></trkpt><trkpt lat="44.86789056880158" lon="12.036737842000083"><ele>-6.333333333333334</ele><time>2026-04-25T10:10:15Z</time></trkpt><trkpt lat="44.8678844684608" lon="12.036849370664772"><ele>-6.5</ele><time>2026-04-25T10:10:18.999Z</time></trkpt><trkpt lat="44.8678813593752" lon="12.036966040768545"><ele>-6.666666666666667</ele><time>2026-04-25T10:10:21.999Z</time></trkpt><trkpt lat="44.867884923326685" lon="12.03707802274407"><ele>-6.833333333333334</ele><time>2026-04-25T10:10:24Z</time></trkpt><trkpt lat="44.867885385008975" lon="12.037205663068216"><ele>-7.0</ele><time>2026-04-25T10:10:26Z</time></trkpt><trkpt lat="44.86788821911876" lon="12.037326366906145"><ele>-7.0</ele><time>2026-04-25T10:10:28Z</time></trkpt><trkpt lat="44.8678893485106" lon="12.03744981802126"><ele>-6.999999999999999</ele><time>2026-04-25T10:10:30Z</time></trkpt><trkpt lat="44.867891763329354" lon="12.037576996786221"><ele>-6.999999999999999</ele><time>2026-04-25T10:10:32Z</time></trkpt><trkpt lat="44.86789442986373" lon="12.037709841871486"><ele>-7.0</ele><time>2026-04-25T10:10:34Z</time></trkpt><trkpt lat="44.86789520557195" lon="12.037841504703575"><ele>-7.0</ele><time>2026-04-25T10:10:36Z</time></trkpt><trkpt lat="44.86789717406797" lon="12.037976252899515"><ele>-6.6</ele><time>2026-04-25T10:10:38Z</time></trkpt><trkpt lat="44.86789816957168" lon="12.03811051670233"><ele>-6.199999999999999</ele><time>2026-04-25T10:10:40Z</time></trkpt><trkpt lat="44.867897531341455" lon="12.038241355335302"><ele>-5.8</ele><time>2026-04-25T10:10:42Z</time></trkpt><trkpt lat="44.86790083497101" lon="12.03837535772379"><ele>-5.4</ele><time>2026-04-25T10:10:44Z</time></trkpt><trkpt lat="44.86790173825559" lon="12.038507132652537"><ele>-5.0</ele><time>2026-04-25T10:10:46Z</time></trkpt><trkpt lat="44.86790059436565" lon="12.038642488866302"><ele>-5.0</ele><time>2026-04-25T10:10:48Z</time></trkpt><trkpt lat="44.86790633498017" lon="12.038773731996015"><ele>-5.0</ele><time>2026-04-25T10:10:50Z</time></trkpt><trkpt lat="44.86790377779985" lon="12.0388968252524"><ele>-5.0</ele><time>2026-04-25T10:10:52Z</time></trkpt><trkpt lat="44.86790320825214" lon="12.039015152093139"><ele>-5.0</ele><time>2026-04-25T10:10:54Z</time></trkpt><trkpt lat="44.867907809181986" lon="12.03913986114693"><ele>-5.0</ele><time>2026-04-25T10:10:56Z</time></trkpt><trkpt lat="44.867909856639116" lon="12.039267063689508"><ele>-5.0</ele><time>2026-04-25T10:10:58Z</time></trkpt><trkpt lat="44.867909013194215" lon="12.039395237234258"><ele>-5.0</ele><time>2026-04-25T10:11:00Z</time></trkpt><trkpt lat="44.867911658020546" lon="12.039523645076695"><ele>-5.0</ele><time>2026-04-25T10:11:02Z</time></trkpt><trkpt lat="44.867913240944475" lon="12.03964916450114"><ele>-5.0</ele><time>2026-04-25T10:11:04Z</time></trkpt><trkpt lat="44.86791024475569" lon="12.039775347391846"><ele>-5.0</ele><time>2026-04-25T10:11:06Z</time></trkpt><trkpt lat="44.86790960382458" lon="12.039897846121914"><ele>-5.0</ele><time>2026-04-25T10:11:08Z</time></trkpt><trkpt lat="44.86791371321257" lon="12.040021458050763"><ele>-5.0</ele><time>2026-04-25T10:11:10Z</time></trkpt><trkpt lat="44.86791571576652" lon="12.040146606827387"><ele>-5.0</ele><time>2026-04-25T10:11:12Z</time></trkpt><trkpt lat="44.86791842787794" lon="12.040267968952394"><ele>-5.0</ele><time>2026-04-25T10:11:14Z</time></trkpt><trkpt lat="44.86791816378336" lon="12.040389497982071"><ele>-5.0</ele><time>2026-04-25T10:11:16Z</time></trkpt><trkpt lat="44.86791974180682" lon="12.040518480079644"><ele>-5.0</ele><time>2026-04-25T10:11:18Z</time></trkpt><trkpt lat="44.867921240738546" lon="12.040648041432314"><ele>-5.0</ele><time>2026-04-25T10:11:20Z</time></trkpt><trkpt lat="44.867921877865115" lon="12.040781199720303"><ele>-4.6</ele><time>2026-04-25T10:11:22Z</time></trkpt><trkpt lat="44.867928173907416" lon="12.040911479098316"><ele>-4.2</ele><time>2026-04-25T10:11:24Z</time></trkpt><trkpt lat="44.8679296942201" lon="12.041045076587904"><ele>-3.8</ele><time>2026-04-25T10:11:26Z</time></trkpt><trkpt lat="44.8679336864854" lon="12.041180390633505"><ele>-3.4</ele><time>2026-04-25T10:11:28Z</time></trkpt><trkpt lat="44.86793276384281" lon="12.041317415246303"><ele>-3.0</ele><time>2026-04-25T10:11:30Z</time></trkpt><trkpt lat="44.86793376194611" lon="12.041457200300115"><ele>-3.0</ele><time>2026-04-25T10:11:32Z</time></trkpt><trkpt lat="44.867932714204755" lon="12.041600393175573"><ele>-3.0</ele><time>2026-04-25T10:11:34Z</time></trkpt><trkpt lat="44.86793146543862" lon="12.041746828405804"><ele>-3.0</ele><time>2026-04-25T10:11:36Z</time></trkpt><trkpt lat="44.867931417683096" lon="12.04188833746474"><ele>-3.0</ele><time>2026-04-25T10:11:38Z</time></trkpt><trkpt lat="44.86793137691894" lon="12.042032184769875"><ele>-3.0</ele><time>2026-04-25T10:11:40Z</time></trkpt><trkpt lat="44.86793589595825" lon="12.042170479471958"><ele>-3.2</ele><time>2026-04-25T10:11:42Z</time></trkpt><trkpt lat="44.86793464936172" lon="12.042306726648377"><ele>-3.4</ele><time>2026-04-25T10:11:44Z</time></trkpt><trkpt lat="44.86793249237202" lon="12.042440400394815"><ele>-3.6000000000000005</ele><time>2026-04-25T10:11:46Z</time></trkpt><trkpt lat="44.86793467775652" lon="12.042574304774387"><ele>-3.8000000000000003</ele><time>2026-04-25T10:11:48Z</time></trkpt><trkpt lat="44.86793486487774" lon="12.042710429155235"><ele>-4.0</ele><time>2026-04-25T10:11:50Z</time></trkpt><trkpt lat="44.86793693817562" lon="12.042843261109482"><ele>-4.166666666666666</ele><time>2026-04-25T10:11:52Z</time></trkpt><trkpt lat="44.867941373868" lon="12.042969812897343"><ele>-4.333333333333333</ele><time>2026-04-25T10:11:54Z</time></trkpt><trkpt lat="44.86794623205001" lon="12.043087282160768"><ele>-4.5</ele><time>2026-04-25T10:11:56Z</time></trkpt><trkpt lat="44.867942426421735" lon="12.043202076754696"><ele>-4.666666666666667</ele><time>2026-04-25T10:11:58Z</time></trkpt><trkpt lat="44.867942964057" lon="12.04332109064135"><ele>-4.833333333333334</ele><time>2026-04-25T10:12:00Z</time></trkpt><trkpt lat="44.86794468462454" lon="12.043438756580656"><ele>-5.0</ele><time>2026-04-25T10:12:02Z</time></trkpt><trkpt lat="44.867942585840034" lon="12.043562006296735"><ele>-5.0</ele><time>2026-04-25T10:12:04Z</time></trkpt><trkpt lat="44.86793580509222" lon="12.043683450788246"><ele>-5.0</ele><time>2026-04-25T10:12:06Z</time></trkpt><trkpt lat="44.86793386450201" lon="12.043800968794335"><ele>-5.0</ele><time>2026-04-25T10:12:08Z</time></trkpt><trkpt lat="44.8679290472116" lon="12.043911941563756"><ele>-5.0</ele><time>2026-04-25T10:12:10Z</time></trkpt><trkpt lat="44.86790647400099" lon="12.044030093573783"><ele>-5.0</ele><time>2026-04-25T10:12:12Z</time></trkpt><trkpt lat="44.86787782109474" lon="12.044147012121698"><ele>-5.0</ele><time>2026-04-25T10:12:14Z</time></trkpt><trkpt lat="44.86783342639058" lon="12.044269102791407"><ele>-5.0</ele><time>2026-04-25T10:12:15.999Z</time></trkpt><trkpt lat="44.86778620828026" lon="12.044383391379311"><ele>-5.0</ele><time>2026-04-25T10:12:17.999Z</time></trkpt><trkpt lat="44.86771394534944" lon="12.044487767092578"><ele>-5.0</ele><time>2026-04-25T10:12:19.999Z</time></trkpt><trkpt lat="44.867642633446806" lon="12.044602646424204"><ele>-5.0</ele><time>2026-04-25T10:12:21.999Z</time></trkpt><trkpt lat="44.86754505743923" lon="12.044698806583531"><ele>-5.0</ele><time>2026-04-25T10:12:23.999Z</time></trkpt><trkpt lat="44.867452102763494" lon="12.044789761364234"><ele>-5.0</ele><time>2026-04-25T10:12:25.999Z</time></trkpt><trkpt lat="44.86735857519869" lon="12.044867969695366"><ele>-5.0</ele><time>2026-04-25T10:12:27.999Z</time></trkpt><trkpt lat="44.8672672197117" lon="12.044942247967095"><ele>-5.0</ele><time>2026-04-25T10:12:30Z</time></trkpt><trkpt lat="44.867176755020324" lon="12.045005808029579"><ele>-5.0</ele><time>2026-04-25T10:12:32Z</time></trkpt><trkpt lat="44.86709074029206" lon="12.045059549694916"><ele>-5.0</ele><time>2026-04-25T10:12:34Z</time></trkpt><trkpt lat="44.86700834650618" lon="12.045120719813092"><ele>-4.8</ele><time>2026-04-25T10:12:36Z</time></trkpt><trkpt lat="44.8669203445151" lon="12.045180618554896"><ele>-4.6</ele><time>2026-04-25T10:12:38Z</time></trkpt><trkpt lat="44.86684153258281" lon="12.045247796149118"><ele>-4.4</ele><time>2026-04-25T10:12:40Z</time></trkpt><trkpt lat="44.866756514026065" lon="12.045312288990308"><ele>-4.2</ele><time>2026-04-25T10:12:42Z</time></trkpt><trkpt lat="44.86666286002028" lon="12.045372237331076"><ele>-4.0</ele><time>2026-04-25T10:12:44Z</time></trkpt><trkpt lat="44.86656994128387" lon="12.04543876633914"><ele>-4.0</ele><time>2026-04-25T10:12:46Z</time></trkpt><trkpt lat="44.866476540801614" lon="12.045504435214971"><ele>-4.0</ele><time>2026-04-25T10:12:48Z</time></trkpt><trkpt lat="44.866385220961384" lon="12.045569171709872"><ele>-4.0</ele><time>2026-04-25T10:12:50Z</time></trkpt><trkpt lat="44.86628529085343" lon="12.04560311546372"><ele>-4.0</ele><time>2026-04-25T10:12:52Z</time></trkpt><trkpt lat="44.86619516146075" lon="12.045664436328092"><ele>-4.0</ele><time>2026-04-25T10:12:54Z</time></trkpt><trkpt lat="44.86610978764708" lon="12.045730678544995"><ele>-4.0</ele><time>2026-04-25T10:12:56Z</time></trkpt><trkpt lat="44.86602528451453" lon="12.045787599876139"><ele>-4.0</ele><time>2026-04-25T10:12:58Z</time></trkpt><trkpt lat="44.865941578716445" lon="12.045848086701985"><ele>-4.0</ele><time>2026-04-25T10:13:00Z</time></trkpt><trkpt lat="44.865856559294144" lon="12.045907918158976"><ele>-4.0</ele><time>2026-04-25T10:13:02Z</time></trkpt><trkpt lat="44.86577150474713" lon="12.045969164693567"><ele>-4.0</ele><time>2026-04-25T10:13:04Z</time></trkpt><trkpt lat="44.865689739067946" lon="12.046032815801265"><ele>-4.0</ele><time>2026-04-25T10:13:06Z</time></trkpt><trkpt lat="44.865604101310296" lon="12.046090550716"><ele>-4.0</ele><time>2026-04-25T10:13:08Z</time></trkpt><trkpt lat="44.865521113965364" lon="12.04615133480241"><ele>-4.0</ele><time>2026-04-25T10:13:10Z</time></trkpt><trkpt lat="44.86543582010553" lon="12.046210708138416"><ele>-4.0</ele><time>2026-04-25T10:13:12Z</time></trkpt><trkpt lat="44.86535039498693" lon="12.046272899101709"><ele>-4.0</ele><time>2026-04-25T10:13:14Z</time></trkpt><trkpt lat="44.86526710841966" lon="12.046330740471024"><ele>-4.0</ele><time>2026-04-25T10:13:16Z</time></trkpt><trkpt lat="44.865185441342476" lon="12.04639685249472"><ele>-4.0</ele><time>2026-04-25T10:13:18Z</time></trkpt><trkpt lat="44.86510032883944" lon="12.046454569213967"><ele>-4.0</ele><time>2026-04-25T10:13:20Z</time></trkpt><trkpt lat="44.86501402750435" lon="12.046519413319464"><ele>-4.0</ele><time>2026-04-25T10:13:22Z</time></trkpt><trkpt lat="44.86492590076234" lon="12.046581495542004"><ele>-4.0</ele><time>2026-04-25T10:13:24Z</time></trkpt><trkpt lat="44.86484058618357" lon="12.046641561912406"><ele>-4.4</ele><time>2026-04-25T10:13:26Z</time></trkpt><trkpt lat="44.86475550122179" lon="12.046700958206099"><ele>-4.800000000000001</ele><time>2026-04-25T10:13:28Z</time></trkpt><trkpt lat="44.86466953027579" lon="12.046761626481869"><ele>-5.199999999999999</ele><time>2026-04-25T10:13:30Z</time></trkpt><trkpt lat="44.86458562467578" lon="12.04682610057365"><ele>-5.6</ele><time>2026-04-25T10:13:32Z</time></trkpt><trkpt lat="44.86450044768932" lon="12.046885241732863"><ele>-6.0</ele><time>2026-04-25T10:13:34Z</time></trkpt><trkpt lat="44.86441580973011" lon="12.046948228914967"><ele>-6.0</ele><time>2026-04-25T10:13:36Z</time></trkpt><trkpt lat="44.86433213465014" lon="12.047004893138604"><ele>-6.0</ele><time>2026-04-25T10:13:38Z</time></trkpt><trkpt lat="44.86424272245444" lon="12.047064563046735"><ele>-6.0</ele><time>2026-04-25T10:13:40Z</time></trkpt><trkpt lat="44.86416094275465" lon="12.047118696226763"><ele>-6.0</ele><time>2026-04-25T10:13:42Z</time></trkpt><trkpt lat="44.86407725378239" lon="12.047184759993947"><ele>-6.0</ele><time>2026-04-25T10:13:44Z</time></trkpt><trkpt lat="44.86399486842603" lon="12.04724465004449"><ele>-6.4</ele><time>2026-04-25T10:13:46Z</time></trkpt><trkpt lat="44.863908537007646" lon="12.047304643747548"><ele>-6.8</ele><time>2026-04-25T10:13:48Z</time></trkpt><trkpt lat="44.86382437772182" lon="12.04736359991719"><ele>-7.200000000000001</ele><time>2026-04-25T10:13:49.999Z</time></trkpt><trkpt lat="44.86373828878611" lon="12.04742573513352"><ele>-7.6000000000000005</ele><time>2026-04-25T10:13:51.999Z</time></trkpt><trkpt lat="44.86365719199811" lon="12.047494702924293"><ele>-8.0</ele><time>2026-04-25T10:13:53.999Z</time></trkpt><trkpt lat="44.86357119998546" lon="12.047552576095129"><ele>-8.0</ele><time>2026-04-25T10:13:55.999Z</time></trkpt><trkpt lat="44.86348574962349" lon="12.04761222275568"><ele>-8.0</ele><time>2026-04-25T10:13:57.999Z</time></trkpt><trkpt lat="44.86339963912999" lon="12.047673367718993"><ele>-8.0</ele><time>2026-04-25T10:13:59.999Z</time></trkpt><trkpt lat="44.86331361458668" lon="12.047731712879484"><ele>-8.0</ele><time>2026-04-25T10:14:01.999Z</time></trkpt><trkpt lat="44.863225690284665" lon="12.047793128525573"><ele>-8.0</ele><time>2026-04-25T10:14:03.999Z</time></trkpt><trkpt lat="44.86314157123254" lon="12.047853976616524"><ele>-7.6000000000000005</ele><time>2026-04-25T10:14:05.999Z</time></trkpt><trkpt lat="44.863057536240845" lon="12.047920679807403"><ele>-7.200000000000001</ele><time>2026-04-25T10:14:07.999Z</time></trkpt><trkpt lat="44.8629771725247" lon="12.04798053202929"><ele>-6.8</ele><time>2026-04-25T10:14:09.999Z</time></trkpt><trkpt lat="44.86289366847308" lon="12.04804033188635"><ele>-6.4</ele><time>2026-04-25T10:14:11.999Z</time></trkpt><trkpt lat="44.86281109029087" lon="12.048098733488423"><ele>-6.0</ele><time>2026-04-25T10:14:13.999Z</time></trkpt><trkpt lat="44.86272685698099" lon="12.048158871405676"><ele>-6.0</ele><time>2026-04-25T10:14:15.999Z</time></trkpt><trkpt lat="44.86264185446127" lon="12.048218313082549"><ele>-6.0</ele><time>2026-04-25T10:14:17.999Z</time></trkpt><trkpt lat="44.8625575854743" lon="12.048277401069015"><ele>-6.0</ele><time>2026-04-25T10:14:19.999Z</time></trkpt><trkpt lat="44.86247269023413" lon="12.04833866810376"><ele>-6.0</ele><time>2026-04-25T10:14:21.999Z</time></trkpt><trkpt lat="44.86239022996263" lon="12.04840091663121"><ele>-6.0</ele><time>2026-04-25T10:14:23.999Z</time></trkpt><trkpt lat="44.86230886210194" lon="12.048461204461608"><ele>-6.0</ele><time>2026-04-25T10:14:25.999Z</time></trkpt><trkpt lat="44.862227723553595" lon="12.048520553319264"><ele>-6.0</ele><time>2026-04-25T10:14:27.999Z</time></trkpt><trkpt lat="44.86214161533036" lon="12.048581580044381"><ele>-6.0</ele><time>2026-04-25T10:14:29.999Z</time></trkpt><trkpt lat="44.86205680574609" lon="12.048643402667423"><ele>-6.0</ele><time>2026-04-25T10:14:31.999Z</time></trkpt><trkpt lat="44.86197513917437" lon="12.048704431927238"><ele>-6.0</ele><time>2026-04-25T10:14:33.999Z</time></trkpt><trkpt lat="44.86189384921544" lon="12.048764827578575"><ele>-6.0</ele><time>2026-04-25T10:14:36Z</time></trkpt><trkpt lat="44.86180688957104" lon="12.048825574896528"><ele>-6.0</ele><time>2026-04-25T10:14:38Z</time></trkpt><trkpt lat="44.86172179263917" lon="12.04888597058532"><ele>-6.0</ele><time>2026-04-25T10:14:40Z</time></trkpt><trkpt lat="44.86163684168823" lon="12.048948021379244"><ele>-6.0</ele><time>2026-04-25T10:14:41.999Z</time></trkpt><trkpt lat="44.86155428635143" lon="12.049011638955664"><ele>-6.0</ele><time>2026-04-25T10:14:43.999Z</time></trkpt><trkpt lat="44.86147308234414" lon="12.049079849432141"><ele>-5.6</ele><time>2026-04-25T10:14:46Z</time></trkpt><trkpt lat="44.86139013321479" lon="12.049136672466583"><ele>-5.199999999999999</ele><time>2026-04-25T10:14:48Z</time></trkpt><trkpt lat="44.86130319971496" lon="12.049191547165805"><ele>-4.800000000000001</ele><time>2026-04-25T10:14:50Z</time></trkpt><trkpt lat="44.86121991718716" lon="12.049247008604631"><ele>-4.4</ele><time>2026-04-25T10:14:52Z</time></trkpt><trkpt lat="44.86113703571389" lon="12.049305768489573"><ele>-4.0</ele><time>2026-04-25T10:14:54Z</time></trkpt><trkpt lat="44.86105375388841" lon="12.049367558733035"><ele>-4.0</ele><time>2026-04-25T10:14:56Z</time></trkpt><trkpt lat="44.86097195670269" lon="12.04942780458162"><ele>-4.0</ele><time>2026-04-25T10:14:58Z</time></trkpt><trkpt lat="44.86088728082057" lon="12.049486329067543"><ele>-4.0</ele><time>2026-04-25T10:15:00Z</time></trkpt><trkpt lat="44.86080500074176" lon="12.049545347924818"><ele>-4.0</ele><time>2026-04-25T10:15:02Z</time></trkpt><trkpt lat="44.8607241424876" lon="12.049605959012323"><ele>-4.0</ele><time>2026-04-25T10:15:04Z</time></trkpt><trkpt lat="44.86064181848845" lon="12.049667663940138"><ele>-4.4</ele><time>2026-04-25T10:15:06Z</time></trkpt><trkpt lat="44.860559743620136" lon="12.049724240469725"><ele>-4.800000000000001</ele><time>2026-04-25T10:15:08Z</time></trkpt><trkpt lat="44.86047787264882" lon="12.049783905951825"><ele>-5.199999999999999</ele><time>2026-04-25T10:15:10Z</time></trkpt><trkpt lat="44.86039586459075" lon="12.049846059411546"><ele>-5.6</ele><time>2026-04-25T10:15:12Z</time></trkpt><trkpt lat="44.86030958917549" lon="12.04990032487293"><ele>-6.0</ele><time>2026-04-25T10:15:14Z</time></trkpt><trkpt lat="44.86022739755389" lon="12.049965054126465"><ele>-6.0</ele><time>2026-04-25T10:15:16Z</time></trkpt><trkpt lat="44.86014603443988" lon="12.050022988085423"><ele>-6.0</ele><time>2026-04-25T10:15:18Z</time></trkpt><trkpt lat="44.860061746823135" lon="12.050081945454759"><ele>-6.0</ele><time>2026-04-25T10:15:20Z</time></trkpt><trkpt lat="44.85998420071948" lon="12.050138892834038"><ele>-6.0</ele><time>2026-04-25T10:15:22Z</time></trkpt><trkpt lat="44.85990497388605" lon="12.050201527168307"><ele>-6.0</ele><time>2026-04-25T10:15:24Z</time></trkpt><trkpt lat="44.85982287663166" lon="12.050259657238145"><ele>-6.199999999999999</ele><time>2026-04-25T10:15:26Z</time></trkpt><trkpt lat="44.85973865268446" lon="12.050318914149528"><ele>-6.3999999999999995</ele><time>2026-04-25T10:15:28Z</time></trkpt><trkpt lat="44.859652938912454" lon="12.050377431957823"><ele>-6.6</ele><time>2026-04-25T10:15:30Z</time></trkpt><trkpt lat="44.85956681308923" lon="12.050444396998074"><ele>-6.8</ele><time>2026-04-25T10:15:32Z</time></trkpt><trkpt lat="44.85947638705054" lon="12.050505917313005"><ele>-7.0</ele><time>2026-04-25T10:15:34Z</time></trkpt><trkpt lat="44.85938081198409" lon="12.050576300903343"><ele>-6.8</ele><time>2026-04-25T10:15:36Z</time></trkpt><trkpt lat="44.859279464980446" lon="12.050643655012085"><ele>-6.6</ele><time>2026-04-25T10:15:38Z</time></trkpt><trkpt lat="44.859180109244704" lon="12.050714945507892"><ele>-6.3999999999999995</ele><time>2026-04-25T10:15:40Z</time></trkpt><trkpt lat="44.85907893324396" lon="12.050786704996293"><ele>-6.199999999999999</ele><time>2026-04-25T10:15:42Z</time></trkpt><trkpt lat="44.85898141198285" lon="12.050856754424874"><ele>-6.0</ele><time>2026-04-25T10:15:44Z</time></trkpt><trkpt lat="44.85888919389446" lon="12.050924436673045"><ele>-6.0</ele><time>2026-04-25T10:15:46Z</time></trkpt><trkpt lat="44.85880000645943" lon="12.050991673167799"><ele>-6.0</ele><time>2026-04-25T10:15:48Z</time></trkpt><trkpt lat="44.85871810479652" lon="12.051073774492725"><ele>-6.0</ele><time>2026-04-25T10:15:50Z</time></trkpt><trkpt lat="44.85864009502143" lon="12.051155475331308"><ele>-6.0</ele><time>2026-04-25T10:15:52Z</time></trkpt><trkpt lat="44.858571538624666" lon="12.051248662333013"><ele>-6.0</ele><time>2026-04-25T10:15:54Z</time></trkpt><trkpt lat="44.85850523967003" lon="12.051346575544786"><ele>-6.0</ele><time>2026-04-25T10:15:56Z</time></trkpt><trkpt lat="44.858447690773545" lon="12.051457198528295"><ele>-6.0</ele><time>2026-04-25T10:15:58Z</time></trkpt><trkpt lat="44.858398233282166" lon="12.05157805187229"><ele>-6.0</ele><time>2026-04-25T10:16:00Z</time></trkpt><trkpt lat="44.85836068939602" lon="12.051700802347112"><ele>-6.0</ele><time>2026-04-25T10:16:02Z</time></trkpt><trkpt lat="44.85833185183616" lon="12.051830454434052"><ele>-6.0</ele><time>2026-04-25T10:16:04Z</time></trkpt><trkpt lat="44.858311203819255" lon="12.051963829591134"><ele>-6.0</ele><time>2026-04-25T10:16:06Z</time></trkpt><trkpt lat="44.85830225922051" lon="12.052102614233615"><ele>-6.0</ele><time>2026-04-25T10:16:08Z</time></trkpt><trkpt lat="44.85829694709747" lon="12.052249021444691"><ele>-6.0</ele><time>2026-04-25T10:16:09.999Z</time></trkpt><trkpt lat="44.85829702573029" lon="12.052385700677725"><ele>-6.0</ele><time>2026-04-25T10:16:11.999Z</time></trkpt><trkpt lat="44.858296990550585" lon="12.052522611533828"><ele>-6.0</ele><time>2026-04-25T10:16:13.999Z</time></trkpt><trkpt lat="44.85829684425261" lon="12.052661324864124"><ele>-6.0</ele><time>2026-04-25T10:16:15.999Z</time></trkpt><trkpt lat="44.85830118037103" lon="12.052796953705656"><ele>-6.0</ele><time>2026-04-25T10:16:17.999Z</time></trkpt><trkpt lat="44.85829883264683" lon="12.052933503435435"><ele>-6.0</ele><time>2026-04-25T10:16:19.999Z</time></trkpt><trkpt lat="44.858298566595536" lon="12.053072324204313"><ele>-6.0</ele><time>2026-04-25T10:16:21.999Z</time></trkpt><trkpt lat="44.85830237540198" lon="12.053205377620296"><ele>-6.0</ele><time>2026-04-25T10:16:23.999Z</time></trkpt><trkpt lat="44.85830325959264" lon="12.053339680781294"><ele>-6.0</ele><time>2026-04-25T10:16:25.999Z</time></trkpt><trkpt lat="44.858307267556796" lon="12.053475581411858"><ele>-6.0</ele><time>2026-04-25T10:16:27.999Z</time></trkpt><trkpt lat="44.85830767119919" lon="12.053609999654194"><ele>-6.0</ele><time>2026-04-25T10:16:29.999Z</time></trkpt><trkpt lat="44.858305644414855" lon="12.053748743339009"><ele>-6.0</ele><time>2026-04-25T10:16:31.999Z</time></trkpt><trkpt lat="44.85831068470083" lon="12.053884904900563"><ele>-6.0</ele><time>2026-04-25T10:16:33.999Z</time></trkpt><trkpt lat="44.858309051209865" lon="12.054022123166643"><ele>-6.0</ele><time>2026-04-25T10:16:35.999Z</time></trkpt><trkpt lat="44.858312643540735" lon="12.054156893808782"><ele>-6.0</ele><time>2026-04-25T10:16:37.999Z</time></trkpt><trkpt lat="44.85831538331391" lon="12.05428996639166"><ele>-6.0</ele><time>2026-04-25T10:16:39.999Z</time></trkpt><trkpt lat="44.85831607147142" lon="12.054425024594813"><ele>-6.0</ele><time>2026-04-25T10:16:42Z</time></trkpt><trkpt lat="44.858315393534134" lon="12.054560568174466"><ele>-6.0</ele><time>2026-04-25T10:16:44Z</time></trkpt><trkpt lat="44.858316812868075" lon="12.054694656997192"><ele>-6.0</ele><time>2026-04-25T10:16:46Z</time></trkpt><trkpt lat="44.858318922973204" lon="12.05482817782339"><ele>-6.0</ele><time>2026-04-25T10:16:48Z</time></trkpt><trkpt lat="44.85831779466832" lon="12.05496243109236"><ele>-6.0</ele><time>2026-04-25T10:16:50Z</time></trkpt><trkpt lat="44.858321209130914" lon="12.055094356772232"><ele>-6.0</ele><time>2026-04-25T10:16:52Z</time></trkpt><trkpt lat="44.85831877544948" lon="12.055231005304922"><ele>-6.0</ele><time>2026-04-25T10:16:54Z</time></trkpt><trkpt lat="44.85832100701819" lon="12.055365078971573"><ele>-6.0</ele><time>2026-04-25T10:16:56Z</time></trkpt><trkpt lat="44.858320872659085" lon="12.055497435134376"><ele>-6.0</ele><time>2026-04-25T10:16:58Z</time></trkpt><trkpt lat="44.858322100406596" lon="12.055635657727013"><ele>-6.0</ele><time>2026-04-25T10:17:00Z</time></trkpt><trkpt lat="44.858321085267804" lon="12.055770389294052"><ele>-6.0</ele><time>2026-04-25T10:17:02Z</time></trkpt><trkpt lat="44.85832174495409" lon="12.055903141809418"><ele>-6.0</ele><time>2026-04-25T10:17:04Z</time></trkpt><trkpt lat="44.858321804503504" lon="12.056038398776892"><ele>-6.0</ele><time>2026-04-25T10:17:06Z</time></trkpt><trkpt lat="44.85832355964633" lon="12.056171108643408"><ele>-6.0</ele><time>2026-04-25T10:17:08Z</time></trkpt><trkpt lat="44.85832591145122" lon="12.05630545833803"><ele>-6.0</ele><time>2026-04-25T10:17:10Z</time></trkpt><trkpt lat="44.858325738796026" lon="12.05643836269318"><ele>-6.0</ele><time>2026-04-25T10:17:12Z</time></trkpt><trkpt lat="44.858328522021516" lon="12.056573986546509"><ele>-6.0</ele><time>2026-04-25T10:17:14Z</time></trkpt><trkpt lat="44.85832907921352" lon="12.056703341399631"><ele>-6.0</ele><time>2026-04-25T10:17:16Z</time></trkpt><trkpt lat="44.858327553542324" lon="12.05684057343134"><ele>-6.0</ele><time>2026-04-25T10:17:18Z</time></trkpt><trkpt lat="44.858327887306984" lon="12.056976173621461"><ele>-6.0</ele><time>2026-04-25T10:17:20Z</time></trkpt><trkpt lat="44.85833070022932" lon="12.057111073506244"><ele>-6.0</ele><time>2026-04-25T10:17:22Z</time></trkpt><trkpt lat="44.85832851561948" lon="12.05724576776938"><ele>-6.0</ele><time>2026-04-25T10:17:24Z</time></trkpt><trkpt lat="44.85832947533487" lon="12.057376790256917"><ele>-5.8</ele><time>2026-04-25T10:17:26Z</time></trkpt><trkpt lat="44.858330413048556" lon="12.057509992833195"><ele>-5.6</ele><time>2026-04-25T10:17:28Z</time></trkpt><trkpt lat="44.85833218939207" lon="12.05764382305554"><ele>-5.4</ele><time>2026-04-25T10:17:30Z</time></trkpt><trkpt lat="44.8583333358567" lon="12.0577732262569"><ele>-5.2</ele><time>2026-04-25T10:17:32Z</time></trkpt><trkpt lat="44.85833031863498" lon="12.057907637695097"><ele>-5.0</ele><time>2026-04-25T10:17:34Z</time></trkpt><trkpt lat="44.85833188815324" lon="12.058038590696414"><ele>-5.0</ele><time>2026-04-25T10:17:36Z</time></trkpt><trkpt lat="44.858336950681355" lon="12.058166174981006"><ele>-5.0</ele><time>2026-04-25T10:17:38Z</time></trkpt><trkpt lat="44.858343558657076" lon="12.058290074303498"><ele>-5.0</ele><time>2026-04-25T10:17:40Z</time></trkpt><trkpt lat="44.85833703191527" lon="12.05840124779052"><ele>-5.0</ele><time>2026-04-25T10:17:42Z</time></trkpt><trkpt lat="44.85833917719637" lon="12.058523827540563"><ele>-5.0</ele><time>2026-04-25T10:17:44Z</time></trkpt><trkpt lat="44.85834442902838" lon="12.058651263325487"><ele>-5.0</ele><time>2026-04-25T10:17:46Z</time></trkpt><trkpt lat="44.858340232028276" lon="12.058782912431033"><ele>-5.0</ele><time>2026-04-25T10:17:48Z</time></trkpt><trkpt lat="44.858345012121475" lon="12.058916758499057"><ele>-5.0</ele><time>2026-04-25T10:17:50Z</time></trkpt><trkpt lat="44.858342336912536" lon="12.059053144568422"><ele>-5.0</ele><time>2026-04-25T10:17:52Z</time></trkpt><trkpt lat="44.85834305341226" lon="12.059189333005826"><ele>-5.0</ele><time>2026-04-25T10:17:54Z</time></trkpt><trkpt lat="44.85834273094632" lon="12.059325584425094"><ele>-5.0</ele><time>2026-04-25T10:17:56Z</time></trkpt><trkpt lat="44.85834607618836" lon="12.059461888591976"><ele>-5.0</ele><time>2026-04-25T10:17:58Z</time></trkpt><trkpt lat="44.858346727783896" lon="12.059599596379401"><ele>-5.0</ele><time>2026-04-25T10:18:00Z</time></trkpt><trkpt lat="44.858349733891565" lon="12.059739466290754"><ele>-5.0</ele><time>2026-04-25T10:18:02Z</time></trkpt><trkpt lat="44.85835333266623" lon="12.05987672049855"><ele>-5.0</ele><time>2026-04-25T10:18:04Z</time></trkpt><trkpt lat="44.85835537852268" lon="12.060009511918826"><ele>-5.0</ele><time>2026-04-25T10:18:06Z</time></trkpt><trkpt lat="44.85835266197525" lon="12.060138976999426"><ele>-4.833333333333334</ele><time>2026-04-25T10:18:08Z</time></trkpt><trkpt lat="44.858357160167174" lon="12.060264956755317"><ele>-4.666666666666667</ele><time>2026-04-25T10:18:10Z</time></trkpt><trkpt lat="44.8583541944515" lon="12.060391067973505"><ele>-4.5</ele><time>2026-04-25T10:18:12Z</time></trkpt><trkpt lat="44.85835376506282" lon="12.060510867363428"><ele>-4.333333333333333</ele><time>2026-04-25T10:18:14Z</time></trkpt><trkpt lat="44.85835521097417" lon="12.06062775948469"><ele>-4.166666666666666</ele><time>2026-04-25T10:18:16Z</time></trkpt><trkpt lat="44.858345554175756" lon="12.060751132211294"><ele>-4.0</ele><time>2026-04-25T10:18:18Z</time></trkpt><trkpt lat="44.85834519048038" lon="12.060886936994432"><ele>-4.0</ele><time>2026-04-25T10:18:20Z</time></trkpt><trkpt lat="44.85834521229681" lon="12.061022519087421"><ele>-4.0</ele><time>2026-04-25T10:18:22Z</time></trkpt><trkpt lat="44.858350727589475" lon="12.06116017952866"><ele>-4.0</ele><time>2026-04-25T10:18:24Z</time></trkpt><trkpt lat="44.858353537509934" lon="12.061297027614632"><ele>-4.0</ele><time>2026-04-25T10:18:26Z</time></trkpt><trkpt lat="44.8583501886397" lon="12.06143393259109"><ele>-4.0</ele><time>2026-04-25T10:18:28Z</time></trkpt><trkpt lat="44.85835448917625" lon="12.061567709903999"><ele>-4.2</ele><time>2026-04-25T10:18:30Z</time></trkpt><trkpt lat="44.85835615845213" lon="12.061700062744958"><ele>-4.4</ele><time>2026-04-25T10:18:32Z</time></trkpt><trkpt lat="44.85835783786513" lon="12.061834410282495"><ele>-4.6</ele><time>2026-04-25T10:18:34Z</time></trkpt><trkpt lat="44.858361429340746" lon="12.061968262810135"><ele>-4.8</ele><time>2026-04-25T10:18:36Z</time></trkpt><trkpt lat="44.85835657883559" lon="12.06210240754504"><ele>-5.0</ele><time>2026-04-25T10:18:38Z</time></trkpt><trkpt lat="44.8583577966772" lon="12.06223232516535"><ele>-5.0</ele><time>2026-04-25T10:18:40Z</time></trkpt><trkpt lat="44.85835810406359" lon="12.062361125261358"><ele>-5.0</ele><time>2026-04-25T10:18:42Z</time></trkpt><trkpt lat="44.85835852853653" lon="12.062486905706718"><ele>-5.0</ele><time>2026-04-25T10:18:44Z</time></trkpt><trkpt lat="44.85836047760254" lon="12.062616932854977"><ele>-5.0</ele><time>2026-04-25T10:18:46Z</time></trkpt><trkpt lat="44.858363644749325" lon="12.062754279135085"><ele>-5.0</ele><time>2026-04-25T10:18:48Z</time></trkpt><trkpt lat="44.858365452876725" lon="12.0628881248471"><ele>-4.8</ele><time>2026-04-25T10:18:50Z</time></trkpt><trkpt lat="44.85836638392337" lon="12.063019379711337"><ele>-4.6</ele><time>2026-04-25T10:18:52Z</time></trkpt><trkpt lat="44.85836861012831" lon="12.063147589479787"><ele>-4.4</ele><time>2026-04-25T10:18:54Z</time></trkpt><trkpt lat="44.85836375266727" lon="12.063274905234158"><ele>-4.2</ele><time>2026-04-25T10:18:56Z</time></trkpt><trkpt lat="44.85836834319285" lon="12.06340194282117"><ele>-4.0</ele><time>2026-04-25T10:18:58Z</time></trkpt><trkpt lat="44.85836264448032" lon="12.063527089485921"><ele>-4.4</ele><time>2026-04-25T10:19:00Z</time></trkpt><trkpt lat="44.85836118080984" lon="12.063657856857766"><ele>-4.800000000000001</ele><time>2026-04-25T10:19:02Z</time></trkpt><trkpt lat="44.85836737132927" lon="12.0637899604863"><ele>-5.199999999999999</ele><time>2026-04-25T10:19:04Z</time></trkpt><trkpt lat="44.85835840267046" lon="12.063925773806288"><ele>-5.6</ele><time>2026-04-25T10:19:06Z</time></trkpt><trkpt lat="44.8583574315089" lon="12.064061719202769"><ele>-6.0</ele><time>2026-04-25T10:19:08Z</time></trkpt><trkpt lat="44.85836191975013" lon="12.06419952642949"><ele>-6.199999999999999</ele><time>2026-04-25T10:19:10Z</time></trkpt><trkpt lat="44.85836237465293" lon="12.06433630303709"><ele>-6.3999999999999995</ele><time>2026-04-25T10:19:12Z</time></trkpt><trkpt lat="44.85836361252941" lon="12.064466305731823"><ele>-6.6</ele><time>2026-04-25T10:19:14Z</time></trkpt><trkpt lat="44.858366405424206" lon="12.064600541750274"><ele>-6.8</ele><time>2026-04-25T10:19:16Z</time></trkpt><trkpt lat="44.85836437052967" lon="12.064733216312925"><ele>-7.0</ele><time>2026-04-25T10:19:18Z</time></trkpt><trkpt lat="44.85836369639428" lon="12.06486497438835"><ele>-6.6</ele><time>2026-04-25T10:19:20Z</time></trkpt><trkpt lat="44.858371762175466" lon="12.064983435537442"><ele>-6.199999999999999</ele><time>2026-04-25T10:19:22Z</time></trkpt><trkpt lat="44.858368481339426" lon="12.06511248906021"><ele>-5.8</ele><time>2026-04-25T10:19:24Z</time></trkpt><trkpt lat="44.85837486939839" lon="12.06524597808893"><ele>-5.4</ele><time>2026-04-25T10:19:26Z</time></trkpt><trkpt lat="44.85837810845983" lon="12.065381190305104"><ele>-5.0</ele><time>2026-04-25T10:19:28Z</time></trkpt><trkpt lat="44.85837195745702" lon="12.065512788657774"><ele>-5.0</ele><time>2026-04-25T10:19:30Z</time></trkpt><trkpt lat="44.85837252172072" lon="12.06563936514465"><ele>-5.0</ele><time>2026-04-25T10:19:32Z</time></trkpt><trkpt lat="44.858376060258294" lon="12.065763076033871"><ele>-5.0</ele><time>2026-04-25T10:19:34Z</time></trkpt><trkpt lat="44.85837751579159" lon="12.06589631099942"><ele>-5.0</ele><time>2026-04-25T10:19:36Z</time></trkpt><trkpt lat="44.85837739338575" lon="12.066029062679469"><ele>-5.0</ele><time>2026-04-25T10:19:38Z</time></trkpt><trkpt lat="44.85837775433408" lon="12.066165859303556"><ele>-5.2</ele><time>2026-04-25T10:19:40Z</time></trkpt><trkpt lat="44.858379688772715" lon="12.066298103418731"><ele>-5.4</ele><time>2026-04-25T10:19:42Z</time></trkpt><trkpt lat="44.85837968809075" lon="12.066422334698734"><ele>-5.6</ele><time>2026-04-25T10:19:44Z</time></trkpt><trkpt lat="44.85837814173481" lon="12.066547964293884"><ele>-5.8</ele><time>2026-04-25T10:19:46Z</time></trkpt><trkpt lat="44.85837595848982" lon="12.066680697850094"><ele>-6.0</ele><time>2026-04-25T10:19:48Z</time></trkpt><trkpt lat="44.85837449503245" lon="12.066816595461223"><ele>-6.0</ele><time>2026-04-25T10:19:50Z</time></trkpt><trkpt lat="44.858373146471216" lon="12.066950307177768"><ele>-6.0</ele><time>2026-04-25T10:19:52Z</time></trkpt><trkpt lat="44.85837553010762" lon="12.067085527392328"><ele>-6.0</ele><time>2026-04-25T10:19:54Z</time></trkpt><trkpt lat="44.8583781231753" lon="12.067217896994753"><ele>-6.0</ele><time>2026-04-25T10:19:56Z</time></trkpt><trkpt lat="44.85837815902028" lon="12.067349126952369"><ele>-6.0</ele><time>2026-04-25T10:19:58Z</time></trkpt><trkpt lat="44.85838193010683" lon="12.067479256879007"><ele>-5.6</ele><time>2026-04-25T10:20:00Z</time></trkpt><trkpt lat="44.85838012360145" lon="12.067610177561399"><ele>-5.199999999999999</ele><time>2026-04-25T10:20:02Z</time></trkpt><trkpt lat="44.858385134360375" lon="12.067741308722459"><ele>-4.800000000000001</ele><time>2026-04-25T10:20:04Z</time></trkpt><trkpt lat="44.858380635169155" lon="12.067870088311974"><ele>-4.4</ele><time>2026-04-25T10:20:06Z</time></trkpt><trkpt lat="44.85838037488944" lon="12.067994753314718"><ele>-4.0</ele><time>2026-04-25T10:20:08Z</time></trkpt><trkpt lat="44.85838198083344" lon="12.068128651683635"><ele>-4.0</ele><time>2026-04-25T10:20:10Z</time></trkpt><trkpt lat="44.85838558334367" lon="12.06825744944795"><ele>-4.0</ele><time>2026-04-25T10:20:12Z</time></trkpt><trkpt lat="44.85838366742104" lon="12.068386806078426"><ele>-4.0</ele><time>2026-04-25T10:20:14Z</time></trkpt><trkpt lat="44.85838018440069" lon="12.068520638306229"><ele>-4.0</ele><time>2026-04-25T10:20:16Z</time></trkpt><trkpt lat="44.85838349342228" lon="12.06865575302022"><ele>-4.0</ele><time>2026-04-25T10:20:18Z</time></trkpt><trkpt lat="44.85838749033752" lon="12.068786408593258"><ele>-4.0</ele><time>2026-04-25T10:20:20Z</time></trkpt><trkpt lat="44.85838763507441" lon="12.068918036686172"><ele>-4.0</ele><time>2026-04-25T10:20:22Z</time></trkpt><trkpt lat="44.85839094885035" lon="12.069050820400674"><ele>-4.0</ele><time>2026-04-25T10:20:24Z</time></trkpt><trkpt lat="44.85839144578496" lon="12.06918307549073"><ele>-4.0</ele><time>2026-04-25T10:20:26Z</time></trkpt><trkpt lat="44.85838791336461" lon="12.069314532106928"><ele>-4.0</ele><time>2026-04-25T10:20:28Z</time></trkpt><trkpt lat="44.85839074516234" lon="12.06944641213701"><ele>-3.9999999999999996</ele><time>2026-04-25T10:20:30Z</time></trkpt><trkpt lat="44.85839497473441" lon="12.069575329934487"><ele>-4.0</ele><time>2026-04-25T10:20:32Z</time></trkpt><trkpt lat="44.85838943159014" lon="12.069698367989272"><ele>-4.0</ele><time>2026-04-25T10:20:34Z</time></trkpt><trkpt lat="44.85839739852671" lon="12.069820828996368"><ele>-4.0</ele><time>2026-04-25T10:20:36Z</time></trkpt><trkpt lat="44.85839433131355" lon="12.069935936494531"><ele>-3.9999999999999996</ele><time>2026-04-25T10:20:38Z</time></trkpt><trkpt lat="44.85839311420601" lon="12.07004878853163"><ele>-4.0</ele><time>2026-04-25T10:20:40Z</time></trkpt><trkpt lat="44.85839389326832" lon="12.07017576661426"><ele>-4.0</ele><time>2026-04-25T10:20:42Z</time></trkpt><trkpt lat="44.85839378208599" lon="12.070306032109913"><ele>-4.0</ele><time>2026-04-25T10:20:44Z</time></trkpt><trkpt lat="44.85839150054692" lon="12.070441303706268"><ele>-4.0</ele><time>2026-04-25T10:20:46Z</time></trkpt><trkpt lat="44.85838804164688" lon="12.070577472535414"><ele>-4.0</ele><time>2026-04-25T10:20:48Z</time></trkpt><trkpt lat="44.858386411734394" lon="12.070720047017476"><ele>-4.0</ele><time>2026-04-25T10:20:50Z</time></trkpt><trkpt lat="44.85838894313755" lon="12.070860300595072"><ele>-4.2</ele><time>2026-04-25T10:20:52Z</time></trkpt><trkpt lat="44.858390118233885" lon="12.071000039138728"><ele>-4.4</ele><time>2026-04-25T10:20:54Z</time></trkpt><trkpt lat="44.85839057596957" lon="12.071147170766249"><ele>-4.6</ele><time>2026-04-25T10:20:56Z</time></trkpt><trkpt lat="44.85839088599201" lon="12.071292114152467"><ele>-4.8</ele><time>2026-04-25T10:20:58Z</time></trkpt><trkpt lat="44.85839016229178" lon="12.071438259563006"><ele>-5.0</ele><time>2026-04-25T10:21:00Z</time></trkpt><trkpt lat="44.85839369787629" lon="12.071583491670069"><ele>-4.8</ele><time>2026-04-25T10:21:02Z</time></trkpt><trkpt lat="44.85838995119402" lon="12.071727915324255"><ele>-4.6</ele><time>2026-04-25T10:21:04Z</time></trkpt><trkpt lat="44.85838826346575" lon="12.071868175111447"><ele>-4.4</ele><time>2026-04-25T10:21:06Z</time></trkpt><trkpt lat="44.85839128329943" lon="12.072009097517922"><ele>-4.2</ele><time>2026-04-25T10:21:08Z</time></trkpt><trkpt lat="44.858392123196886" lon="12.07214597564156"><ele>-4.0</ele><time>2026-04-25T10:21:10Z</time></trkpt><trkpt lat="44.85839017354368" lon="12.072282024801885"><ele>-4.0</ele><time>2026-04-25T10:21:12Z</time></trkpt><trkpt lat="44.85839153716627" lon="12.072422817139328"><ele>-4.0</ele><time>2026-04-25T10:21:14Z</time></trkpt><trkpt lat="44.858393118788676" lon="12.072562440754327"><ele>-4.0</ele><time>2026-04-25T10:21:16Z</time></trkpt><trkpt lat="44.85839457977148" lon="12.072699635270977"><ele>-4.0</ele><time>2026-04-25T10:21:18Z</time></trkpt><trkpt lat="44.858395486556944" lon="12.07283896401047"><ele>-4.0</ele><time>2026-04-25T10:21:20Z</time></trkpt><trkpt lat="44.85839521759719" lon="12.072978971229512"><ele>-4.0</ele><time>2026-04-25T10:21:22Z</time></trkpt><trkpt lat="44.85839617044067" lon="12.073118646386785"><ele>-4.0</ele><time>2026-04-25T10:21:24Z</time></trkpt><trkpt lat="44.85839689132259" lon="12.073256979326764"><ele>-4.0</ele><time>2026-04-25T10:21:26Z</time></trkpt><trkpt lat="44.858400234983" lon="12.073386807694698"><ele>-4.0</ele><time>2026-04-25T10:21:28Z</time></trkpt><trkpt lat="44.85840369334149" lon="12.073511190393988"><ele>-4.0</ele><time>2026-04-25T10:21:30Z</time></trkpt><trkpt lat="44.85841046832818" lon="12.073625660580907"><ele>-3.9999999999999996</ele><time>2026-04-25T10:21:32Z</time></trkpt><trkpt lat="44.858411283127985" lon="12.073734816824512"><ele>-4.0</ele><time>2026-04-25T10:21:34Z</time></trkpt><trkpt lat="44.85840441205305" lon="12.073856878093554"><ele>-4.0</ele><time>2026-04-25T10:21:36Z</time></trkpt><trkpt lat="44.85840556704068" lon="12.07399428478435"><ele>-4.0</ele><time>2026-04-25T10:21:38Z</time></trkpt><trkpt lat="44.85840319715498" lon="12.074123097874892"><ele>-3.9999999999999996</ele><time>2026-04-25T10:21:40Z</time></trkpt><trkpt lat="44.858405393191305" lon="12.07425308542216"><ele>-4.0</ele><time>2026-04-25T10:21:42Z</time></trkpt><trkpt lat="44.858408591782556" lon="12.07437975370126"><ele>-3.833333333333333</ele><time>2026-04-25T10:21:44Z</time></trkpt><trkpt lat="44.85841057429591" lon="12.074508477038723"><ele>-3.6666666666666665</ele><time>2026-04-25T10:21:46Z</time></trkpt><trkpt lat="44.85841126079718" lon="12.074642792511712"><ele>-3.5</ele><time>2026-04-25T10:21:48Z</time></trkpt><trkpt lat="44.85841110319625" lon="12.07476704225184"><ele>-3.333333333333333</ele><time>2026-04-25T10:21:50Z</time></trkpt><trkpt lat="44.85841664030445" lon="12.074880411978443"><ele>-3.1666666666666665</ele><time>2026-04-25T10:21:52Z</time></trkpt><trkpt lat="44.85841680461747" lon="12.074975802384373"><ele>-3.0</ele><time>2026-04-25T10:21:54Z</time></trkpt><trkpt lat="44.85841033603524" lon="12.075064565146134"><ele>-3.4</ele><time>2026-04-25T10:21:56Z</time></trkpt><trkpt lat="44.85840991641198" lon="12.075189698541726"><ele>-3.8</ele><time>2026-04-25T10:21:58Z</time></trkpt><trkpt lat="44.858409935343474" lon="12.075313237292614"><ele>-4.2</ele><time>2026-04-25T10:22:00Z</time></trkpt><trkpt lat="44.858409787160426" lon="12.075445777833158"><ele>-4.6</ele><time>2026-04-25T10:22:02Z</time></trkpt><trkpt lat="44.8584123698845" lon="12.075579465761265"><ele>-5.0</ele><time>2026-04-25T10:22:04Z</time></trkpt><trkpt lat="44.85841377860126" lon="12.075722429902388"><ele>-4.8</ele><time>2026-04-25T10:22:06Z</time></trkpt><trkpt lat="44.858417921124364" lon="12.075855681784493"><ele>-4.6</ele><time>2026-04-25T10:22:08Z</time></trkpt><trkpt lat="44.85841391836517" lon="12.075991046349184"><ele>-4.4</ele><time>2026-04-25T10:22:10Z</time></trkpt><trkpt lat="44.858417548875586" lon="12.076127726618939"><ele>-4.2</ele><time>2026-04-25T10:22:12Z</time></trkpt><trkpt lat="44.85841385163688" lon="12.07626064923719"><ele>-4.0</ele><time>2026-04-25T10:22:14Z</time></trkpt><trkpt lat="44.858413294771715" lon="12.076396082157606"><ele>-4.0</ele><time>2026-04-25T10:22:16Z</time></trkpt><trkpt lat="44.85841318364234" lon="12.076532126371339"><ele>-4.0</ele><time>2026-04-25T10:22:18Z</time></trkpt><trkpt lat="44.85841425474246" lon="12.076666845512266"><ele>-4.0</ele><time>2026-04-25T10:22:20Z</time></trkpt><trkpt lat="44.85841740166671" lon="12.076801327618158"><ele>-4.0</ele><time>2026-04-25T10:22:22Z</time></trkpt><trkpt lat="44.85841468406654" lon="12.076934264605857"><ele>-4.0</ele><time>2026-04-25T10:22:24Z</time></trkpt><trkpt lat="44.85842603129714" lon="12.07706464992739"><ele>-4.0</ele><time>2026-04-25T10:22:26Z</time></trkpt><trkpt lat="44.85842827373816" lon="12.077197466914374"><ele>-4.0</ele><time>2026-04-25T10:22:28Z</time></trkpt><trkpt lat="44.85842601184205" lon="12.077332063817192"><ele>-4.0</ele><time>2026-04-25T10:22:30Z</time></trkpt><trkpt lat="44.858429203039826" lon="12.077463262394286"><ele>-4.0</ele><time>2026-04-25T10:22:32Z</time></trkpt><trkpt lat="44.858428946454396" lon="12.077594656274488"><ele>-4.0</ele><time>2026-04-25T10:22:34Z</time></trkpt><trkpt lat="44.85843233568023" lon="12.07772552292032"><ele>-3.9999999999999996</ele><time>2026-04-25T10:22:36Z</time></trkpt><trkpt lat="44.858433734122386" lon="12.077856636110852"><ele>-4.0</ele><time>2026-04-25T10:22:38Z</time></trkpt><trkpt lat="44.85843378739695" lon="12.077983700287737"><ele>-4.0</ele><time>2026-04-25T10:22:40Z</time></trkpt><trkpt lat="44.85843156714206" lon="12.078105744183796"><ele>-4.0</ele><time>2026-04-25T10:22:42Z</time></trkpt><trkpt lat="44.858424413001664" lon="12.07822211203069"><ele>-3.9999999999999996</ele><time>2026-04-25T10:22:44Z</time></trkpt><trkpt lat="44.85842365016889" lon="12.078344975000949"><ele>-4.0</ele><time>2026-04-25T10:22:46Z</time></trkpt><trkpt lat="44.858424992018676" lon="12.07847387586598"><ele>-4.0</ele><time>2026-04-25T10:22:48Z</time></trkpt><trkpt lat="44.85842625696777" lon="12.078610588945617"><ele>-4.0</ele><time>2026-04-25T10:22:50Z</time></trkpt><trkpt lat="44.858431227806896" lon="12.078744053048077"><ele>-4.0</ele><time>2026-04-25T10:22:52Z</time></trkpt><trkpt lat="44.85843389235486" lon="12.078878960166275"><ele>-4.0</ele><time>2026-04-25T10:22:54Z</time></trkpt><trkpt lat="44.85843299806488" lon="12.079015631351083"><ele>-4.0</ele><time>2026-04-25T10:22:56Z</time></trkpt><trkpt lat="44.8584341876663" lon="12.079157149667681"><ele>-4.2</ele><time>2026-04-25T10:22:58Z</time></trkpt><trkpt lat="44.85843394800115" lon="12.079294001570469"><ele>-4.4</ele><time>2026-04-25T10:23:00Z</time></trkpt><trkpt lat="44.85843236661595" lon="12.0794370923381"><ele>-4.6</ele><time>2026-04-25T10:23:02Z</time></trkpt><trkpt lat="44.85843197914749" lon="12.079580459263198"><ele>-4.8</ele><time>2026-04-25T10:23:04Z</time></trkpt><trkpt lat="44.8584328380071" lon="12.079723563357128"><ele>-5.0</ele><time>2026-04-25T10:23:06Z</time></trkpt><trkpt lat="44.858434932384284" lon="12.079870002346949"><ele>-5.2</ele><time>2026-04-25T10:23:08Z</time></trkpt><trkpt lat="44.858436920059454" lon="12.080014445535205"><ele>-5.4</ele><time>2026-04-25T10:23:10Z</time></trkpt><trkpt lat="44.85843685788849" lon="12.080157414515366"><ele>-5.6</ele><time>2026-04-25T10:23:12Z</time></trkpt><trkpt lat="44.858437749105114" lon="12.08029932684772"><ele>-5.8</ele><time>2026-04-25T10:23:14Z</time></trkpt><trkpt lat="44.85843718546029" lon="12.080437344177245"><ele>-6.0</ele><time>2026-04-25T10:23:16Z</time></trkpt><trkpt lat="44.858435662525864" lon="12.080578456264083"><ele>-6.0</ele><time>2026-04-25T10:23:18Z</time></trkpt><trkpt lat="44.858437858051" lon="12.080715659606238"><ele>-6.0</ele><time>2026-04-25T10:23:20Z</time></trkpt><trkpt lat="44.85843634331148" lon="12.080852957115315"><ele>-6.0</ele><time>2026-04-25T10:23:22Z</time></trkpt><trkpt lat="44.858440114116426" lon="12.08099147359014"><ele>-6.0</ele><time>2026-04-25T10:23:24Z</time></trkpt><trkpt lat="44.85844163152832" lon="12.081127681305537"><ele>-6.0</ele><time>2026-04-25T10:23:26Z</time></trkpt><trkpt lat="44.85844023464227" lon="12.081268863370601"><ele>-5.8</ele><time>2026-04-25T10:23:28Z</time></trkpt><trkpt lat="44.85844213754672" lon="12.081410256735444"><ele>-5.6</ele><time>2026-04-25T10:23:30Z</time></trkpt><trkpt lat="44.8584407766856" lon="12.081549509815598"><ele>-5.4</ele><time>2026-04-25T10:23:32Z</time></trkpt><trkpt lat="44.85844360876974" lon="12.081689042605964"><ele>-5.2</ele><time>2026-04-25T10:23:34Z</time></trkpt><trkpt lat="44.858442285383845" lon="12.08182564222146"><ele>-5.0</ele><time>2026-04-25T10:23:36Z</time></trkpt><trkpt lat="44.858443549651014" lon="12.081965114289293"><ele>-5.0</ele><time>2026-04-25T10:23:38Z</time></trkpt><trkpt lat="44.85844267211134" lon="12.08210117044029"><ele>-5.0</ele><time>2026-04-25T10:23:40Z</time></trkpt><trkpt lat="44.85844477220931" lon="12.082238352133416"><ele>-5.0</ele><time>2026-04-25T10:23:42Z</time></trkpt><trkpt lat="44.858447637606574" lon="12.082372681168284"><ele>-5.0</ele><time>2026-04-25T10:23:44Z</time></trkpt><trkpt lat="44.858452390513776" lon="12.082506408158801"><ele>-5.0</ele><time>2026-04-25T10:23:46Z</time></trkpt><trkpt lat="44.85845482224057" lon="12.082625773026097"><ele>-4.833333333333334</ele><time>2026-04-25T10:23:48Z</time></trkpt><trkpt lat="44.85846089281536" lon="12.082743422551937"><ele>-4.666666666666667</ele><time>2026-04-25T10:23:50Z</time></trkpt><trkpt lat="44.85845928702498" lon="12.082855628586657"><ele>-4.5</ele><time>2026-04-25T10:23:52Z</time></trkpt><trkpt lat="44.85845457149507" lon="12.082972918047654"><ele>-4.333333333333333</ele><time>2026-04-25T10:23:54Z</time></trkpt><trkpt lat="44.858453398643725" lon="12.083103051442619"><ele>-4.166666666666666</ele><time>2026-04-25T10:23:56Z</time></trkpt><trkpt lat="44.85845541852405" lon="12.083228699797125"><ele>-4.0</ele><time>2026-04-25T10:23:58Z</time></trkpt><trkpt lat="44.858459173467814" lon="12.083342993999363"><ele>-3.9999999999999996</ele><time>2026-04-25T10:24:00Z</time></trkpt><trkpt lat="44.85845714864785" lon="12.08345209973985"><ele>-4.0</ele><time>2026-04-25T10:24:02Z</time></trkpt><trkpt lat="44.85845805554681" lon="12.083564159400884"><ele>-4.0</ele><time>2026-04-25T10:24:04Z</time></trkpt><trkpt lat="44.8584618696965" lon="12.08368047491861"><ele>-4.0</ele><time>2026-04-25T10:24:06Z</time></trkpt><trkpt lat="44.85846014459652" lon="12.083797973395107"><ele>-3.9999999999999996</ele><time>2026-04-25T10:24:08Z</time></trkpt><trkpt lat="44.85846020439951" lon="12.08391464434652"><ele>-4.0</ele><time>2026-04-25T10:24:10Z</time></trkpt><trkpt lat="44.8584619640341" lon="12.084034674945501"><ele>-3.714285714285714</ele><time>2026-04-25T10:24:12Z</time></trkpt><trkpt lat="44.85846797368463" lon="12.084143579341765"><ele>-3.428571428571428</ele><time>2026-04-25T10:24:14Z</time></trkpt><trkpt lat="44.85846758114546" lon="12.084234977478271"><ele>-3.142857142857143</ele><time>2026-04-25T10:24:16Z</time></trkpt><trkpt lat="44.85846825901167" lon="12.084330083037717"><ele>-2.8571428571428568</ele><time>2026-04-25T10:24:18Z</time></trkpt><trkpt lat="44.85847079750075" lon="12.084449859054288"><ele>-2.571428571428571</ele><time>2026-04-25T10:24:20Z</time></trkpt><trkpt lat="44.8584708835347" lon="12.084547416880316"><ele>-2.2857142857142856</ele><time>2026-04-25T10:24:22Z</time></trkpt><trkpt lat="44.85847006540814" lon="12.084666707686047"><ele>-2.0</ele><time>2026-04-25T10:24:25Z</time></trkpt><trkpt lat="44.85846618472856" lon="12.084788200958958"><ele>-1.9999999999999998</ele><time>2026-04-25T10:24:27Z</time></trkpt><trkpt lat="44.85846108065405" lon="12.08490781689092"><ele>-2.0</ele><time>2026-04-25T10:24:29Z</time></trkpt><trkpt lat="44.85846865168697" lon="12.085025760657723"><ele>-2.0</ele><time>2026-04-25T10:24:31Z</time></trkpt><trkpt lat="44.85846554725098" lon="12.085148930113842"><ele>-2.0</ele><time>2026-04-25T10:24:34Z</time></trkpt><trkpt lat="44.858466971222526" lon="12.085276821285774"><ele>-1.9999999999999998</ele><time>2026-04-25T10:24:37Z</time></trkpt><trkpt lat="44.858474160924764" lon="12.085405629238155"><ele>-2.0</ele><time>2026-04-25T10:24:40Z</time></trkpt><trkpt lat="44.85840253834267" lon="12.085467992468503"><ele>-2.1666666666666665</ele><time>2026-04-25T10:24:43Z</time></trkpt><trkpt lat="44.85831848334759" lon="12.085485261799215"><ele>-2.333333333333333</ele><time>2026-04-25T10:24:45Z</time></trkpt><trkpt lat="44.858231346488694" lon="12.085515606315694"><ele>-2.5</ele><time>2026-04-25T10:24:47Z</time></trkpt><trkpt lat="44.8581460661033" lon="12.085541896524878"><ele>-2.6666666666666665</ele><time>2026-04-25T10:24:49Z</time></trkpt><trkpt lat="44.85806637841146" lon="12.085570700956644"><ele>-2.8333333333333335</ele><time>2026-04-25T10:24:51Z</time></trkpt><trkpt lat="44.85798108500985" lon="12.085602123128176"><ele>-3.0</ele><time>2026-04-25T10:24:53Z</time></trkpt><trkpt lat="44.85789401527817" lon="12.085647397283804"><ele>-3.0</ele><time>2026-04-25T10:24:55Z</time></trkpt><trkpt lat="44.85780479628501" lon="12.08568499492786"><ele>-3.0</ele><time>2026-04-25T10:24:57Z</time></trkpt><trkpt lat="44.85772509333055" lon="12.08574014975002"><ele>-3.0</ele><time>2026-04-25T10:24:59Z</time></trkpt><trkpt lat="44.85764565764792" lon="12.085776650222876"><ele>-3.0</ele><time>2026-04-25T10:25:01Z</time></trkpt><trkpt lat="44.85757325792864" lon="12.085817580190728"><ele>-3.0</ele><time>2026-04-25T10:25:03Z</time></trkpt><trkpt lat="44.8575063029472" lon="12.085848984871614"><ele>-3.0</ele><time>2026-04-25T10:25:05Z</time></trkpt><trkpt lat="44.8574245639825" lon="12.085877196563032"><ele>-2.6</ele><time>2026-04-25T10:25:07Z</time></trkpt><trkpt lat="44.857336118563744" lon="12.08591890380808"><ele>-2.1999999999999997</ele><time>2026-04-25T10:25:09Z</time></trkpt><trkpt lat="44.85724404994196" lon="12.085961498077795"><ele>-1.8</ele><time>2026-04-25T10:25:11Z</time></trkpt><trkpt lat="44.85715434729517" lon="12.086007866341964"><ele>-1.4</ele><time>2026-04-25T10:25:13Z</time></trkpt><trkpt lat="44.85706440879258" lon="12.086056708258132"><ele>-1.0</ele><time>2026-04-25T10:25:15Z</time></trkpt><trkpt lat="44.856974839165034" lon="12.086102956335829"><ele>-1.0</ele><time>2026-04-25T10:25:17Z</time></trkpt><trkpt lat="44.856883163738914" lon="12.086156191582184"><ele>-1.0</ele><time>2026-04-25T10:25:19Z</time></trkpt><trkpt lat="44.85679381909488" lon="12.086211800767144"><ele>-1.0</ele><time>2026-04-25T10:25:21Z</time></trkpt><trkpt lat="44.85670831217834" lon="12.086271883511417"><ele>-1.0</ele><time>2026-04-25T10:25:23Z</time></trkpt><trkpt lat="44.85662459853095" lon="12.08633547694073"><ele>-1.0</ele><time>2026-04-25T10:25:25Z</time></trkpt><trkpt lat="44.85654406219881" lon="12.086402576840861"><ele>-1.0</ele><time>2026-04-25T10:25:27Z</time></trkpt><trkpt lat="44.856464568542464" lon="12.086478174248699"><ele>-1.0</ele><time>2026-04-25T10:25:29Z</time></trkpt><trkpt lat="44.85638961238953" lon="12.086549902187265"><ele>-1.0</ele><time>2026-04-25T10:25:31Z</time></trkpt><trkpt lat="44.856312182687596" lon="12.086630144505635"><ele>-1.0</ele><time>2026-04-25T10:25:33Z</time></trkpt><trkpt lat="44.856240401848304" lon="12.086708899902574"><ele>-1.0</ele><time>2026-04-25T10:25:35Z</time></trkpt><trkpt lat="44.856164142651245" lon="12.086795878444155"><ele>-0.9999999999999999</ele><time>2026-04-25T10:25:37Z</time></trkpt><trkpt lat="44.856094153475574" lon="12.08688015460361"><ele>-1.0</ele><time>2026-04-25T10:25:39Z</time></trkpt><trkpt lat="44.85602674270076" lon="12.086956395801767"><ele>-1.0</ele><time>2026-04-25T10:25:41Z</time></trkpt><trkpt lat="44.85596463628143" lon="12.087043989338477"><ele>-1.0</ele><time>2026-04-25T10:25:43Z</time></trkpt><trkpt lat="44.855894943737226" lon="12.087131915310815"><ele>-0.9999999999999999</ele><time>2026-04-25T10:25:45Z</time></trkpt><trkpt lat="44.85582820168383" lon="12.087214741130714"><ele>-1.0</ele><time>2026-04-25T10:25:47Z</time></trkpt><trkpt lat="44.85575588701861" lon="12.087304980447799"><ele>-1.0</ele><time>2026-04-25T10:25:49Z</time></trkpt><trkpt lat="44.8556834539313" lon="12.087391687319288"><ele>-1.0</ele><time>2026-04-25T10:25:51Z</time></trkpt><trkpt lat="44.85561089196971" lon="12.087480607047684"><ele>-1.0</ele><time>2026-04-25T10:25:53Z</time></trkpt><trkpt lat="44.855540038445824" lon="12.087570926392372"><ele>-1.0</ele><time>2026-04-25T10:25:55Z</time></trkpt><trkpt lat="44.855470622607676" lon="12.087663950031097"><ele>-1.0</ele><time>2026-04-25T10:25:57Z</time></trkpt><trkpt lat="44.855405586809184" lon="12.08775620829012"><ele>-1.0</ele><time>2026-04-25T10:25:59Z</time></trkpt><trkpt lat="44.855341854081544" lon="12.087855585845375"><ele>-1.0</ele><time>2026-04-25T10:26:01Z</time></trkpt><trkpt lat="44.855276869670156" lon="12.087948121525038"><ele>-1.0</ele><time>2026-04-25T10:26:03Z</time></trkpt><trkpt lat="44.855209271039705" lon="12.088045936481441"><ele>-1.0</ele><time>2026-04-25T10:26:05Z</time></trkpt><trkpt lat="44.85514843565676" lon="12.088152985071536"><ele>-1.0</ele><time>2026-04-25T10:26:07Z</time></trkpt><trkpt lat="44.855088743875115" lon="12.08825602806498"><ele>-1.0</ele><time>2026-04-25T10:26:09Z</time></trkpt><trkpt lat="44.85503089903127" lon="12.088362488076497"><ele>-1.0</ele><time>2026-04-25T10:26:11Z</time></trkpt><trkpt lat="44.85497622943871" lon="12.088468692166732"><ele>-1.0</ele><time>2026-04-25T10:26:13Z</time></trkpt><trkpt lat="44.85492339121485" lon="12.08857941333226"><ele>-1.0</ele><time>2026-04-25T10:26:15Z</time></trkpt><trkpt lat="44.8548716479243" lon="12.08869647932633"><ele>-1.0</ele><time>2026-04-25T10:26:17Z</time></trkpt><trkpt lat="44.85482709439375" lon="12.088814856943687"><ele>-1.0</ele><time>2026-04-25T10:26:19Z</time></trkpt><trkpt lat="44.85478432496418" lon="12.088935509468202"><ele>-1.0</ele><time>2026-04-25T10:26:21Z</time></trkpt><trkpt lat="44.85474143784783" lon="12.089055461203998"><ele>-1.0</ele><time>2026-04-25T10:26:23Z</time></trkpt><trkpt lat="44.85470645373531" lon="12.089178817304012"><ele>-1.0</ele><time>2026-04-25T10:26:25Z</time></trkpt><trkpt lat="44.85466666422991" lon="12.089301371179703"><ele>-1.0</ele><time>2026-04-25T10:26:27Z</time></trkpt><trkpt lat="44.8546295251371" lon="12.089427637524055"><ele>-1.2000000000000002</ele><time>2026-04-25T10:26:29Z</time></trkpt><trkpt lat="44.854590787852864" lon="12.089551758928254"><ele>-1.4000000000000001</ele><time>2026-04-25T10:26:31Z</time></trkpt><trkpt lat="44.85455412681767" lon="12.089676358308417"><ele>-1.6</ele><time>2026-04-25T10:26:33Z</time></trkpt><trkpt lat="44.85451684479455" lon="12.089795370737576"><ele>-1.8</ele><time>2026-04-25T10:26:35Z</time></trkpt><trkpt lat="44.85448283850621" lon="12.089919715860775"><ele>-2.0</ele><time>2026-04-25T10:26:37Z</time></trkpt><trkpt lat="44.85444385114877" lon="12.090039276713263"><ele>-2.0</ele><time>2026-04-25T10:26:39Z</time></trkpt><trkpt lat="44.854408635684976" lon="12.0901620340083"><ele>-2.0</ele><time>2026-04-25T10:26:41Z</time></trkpt><trkpt lat="44.854369846072906" lon="12.0902829291494"><ele>-2.0</ele><time>2026-04-25T10:26:43Z</time></trkpt><trkpt lat="44.85433200662571" lon="12.090400711717823"><ele>-2.0</ele><time>2026-04-25T10:26:45Z</time></trkpt><trkpt lat="44.85429432550306" lon="12.090525057777974"><ele>-2.0</ele><time>2026-04-25T10:26:47Z</time></trkpt><trkpt lat="44.85425446365037" lon="12.090647304401664"><ele>-1.8</ele><time>2026-04-25T10:26:49Z</time></trkpt><trkpt lat="44.85421610977497" lon="12.090768784570137"><ele>-1.6</ele><time>2026-04-25T10:26:51Z</time></trkpt><trkpt lat="44.85417132371164" lon="12.090888145454693"><ele>-1.4000000000000001</ele><time>2026-04-25T10:26:53Z</time></trkpt><trkpt lat="44.854127470995806" lon="12.091005640522924"><ele>-1.2000000000000002</ele><time>2026-04-25T10:26:55Z</time></trkpt><trkpt lat="44.85408540289984" lon="12.09112434243034"><ele>-1.0</ele><time>2026-04-25T10:26:57Z</time></trkpt><trkpt lat="44.854039104586725" lon="12.091245375561137"><ele>-1.0</ele><time>2026-04-25T10:26:59Z</time></trkpt><trkpt lat="44.85400040235985" lon="12.09135942559216"><ele>-1.0</ele><time>2026-04-25T10:27:01Z</time></trkpt><trkpt lat="44.85395134676285" lon="12.091478043620292"><ele>-1.0</ele><time>2026-04-25T10:27:03Z</time></trkpt><trkpt lat="44.85390221055597" lon="12.091600872506094"><ele>-1.0</ele><time>2026-04-25T10:27:05Z</time></trkpt><trkpt lat="44.85385359280324" lon="12.091722328581762"><ele>-1.0</ele><time>2026-04-25T10:27:07Z</time></trkpt><trkpt lat="44.85380381925735" lon="12.091845279625927"><ele>-1.4</ele><time>2026-04-25T10:27:09Z</time></trkpt><trkpt lat="44.853753595223324" lon="12.091963189858014"><ele>-1.8</ele><time>2026-04-25T10:27:11Z</time></trkpt><trkpt lat="44.85370454836214" lon="12.092082653843644"><ele>-2.1999999999999997</ele><time>2026-04-25T10:27:13Z</time></trkpt><trkpt lat="44.853652847423945" lon="12.092199531905754"><ele>-2.6</ele><time>2026-04-25T10:27:15Z</time></trkpt><trkpt lat="44.85360053841194" lon="12.092316113405884"><ele>-3.0</ele><time>2026-04-25T10:27:17Z</time></trkpt><trkpt lat="44.85354728466358" lon="12.09242904032444"><ele>-3.2</ele><time>2026-04-25T10:27:19Z</time></trkpt><trkpt lat="44.8534935071223" lon="12.092541911006887"><ele>-3.4</ele><time>2026-04-25T10:27:21Z</time></trkpt><trkpt lat="44.85343879960496" lon="12.09264847048913"><ele>-3.6000000000000005</ele><time>2026-04-25T10:27:23Z</time></trkpt><trkpt lat="44.85338273880934" lon="12.09274646202719"><ele>-3.8000000000000003</ele><time>2026-04-25T10:27:25Z</time></trkpt><trkpt lat="44.8533288639989" lon="12.09284407698414"><ele>-4.0</ele><time>2026-04-25T10:27:27Z</time></trkpt><trkpt lat="44.85327238621424" lon="12.092940082045285"><ele>-3.6</ele><time>2026-04-25T10:27:29Z</time></trkpt><trkpt lat="44.85321057885925" lon="12.09303710686992"><ele>-3.2</ele><time>2026-04-25T10:27:31Z</time></trkpt><trkpt lat="44.85314782928027" lon="12.093138284561512"><ele>-2.8000000000000003</ele><time>2026-04-25T10:27:33Z</time></trkpt><trkpt lat="44.85308580074795" lon="12.09323446973045"><ele>-2.4000000000000004</ele><time>2026-04-25T10:27:35Z</time></trkpt><trkpt lat="44.853019822824244" lon="12.093330326777464"><ele>-2.0</ele><time>2026-04-25T10:27:37Z</time></trkpt><trkpt lat="44.85295380426926" lon="12.093424679329146"><ele>-2.0</ele><time>2026-04-25T10:27:39Z</time></trkpt><trkpt lat="44.852892374406835" lon="12.093524153243202"><ele>-2.0</ele><time>2026-04-25T10:27:41Z</time></trkpt><trkpt lat="44.852827210242836" lon="12.093621499457074"><ele>-2.0</ele><time>2026-04-25T10:27:43Z</time></trkpt><trkpt lat="44.852760045925734" lon="12.093712204489243"><ele>-2.0</ele><time>2026-04-25T10:27:45Z</time></trkpt><trkpt lat="44.85270043924315" lon="12.093805501431351"><ele>-2.0</ele><time>2026-04-25T10:27:47Z</time></trkpt><trkpt lat="44.85263420074518" lon="12.09389928359954"><ele>-1.8</ele><time>2026-04-25T10:27:49Z</time></trkpt><trkpt lat="44.85256771450429" lon="12.093997776505338"><ele>-1.6</ele><time>2026-04-25T10:27:51Z</time></trkpt><trkpt lat="44.85249888743563" lon="12.094093061304802"><ele>-1.4000000000000001</ele><time>2026-04-25T10:27:53Z</time></trkpt><trkpt lat="44.85243305034592" lon="12.094191994142305"><ele>-1.2000000000000002</ele><time>2026-04-25T10:27:55Z</time></trkpt><trkpt lat="44.85236786351577" lon="12.094290131511936"><ele>-1.0</ele><time>2026-04-25T10:27:57Z</time></trkpt><trkpt lat="44.852300503711696" lon="12.09438800762489"><ele>-1.0</ele><time>2026-04-25T10:27:59Z</time></trkpt><trkpt lat="44.852233628324605" lon="12.094484347083192"><ele>-1.0</ele><time>2026-04-25T10:28:01Z</time></trkpt><trkpt lat="44.8521684985065" lon="12.09458488776742"><ele>-1.0</ele><time>2026-04-25T10:28:03Z</time></trkpt><trkpt lat="44.85210185908431" lon="12.094681513712915"><ele>-1.0</ele><time>2026-04-25T10:28:05Z</time></trkpt><trkpt lat="44.85203647848994" lon="12.094779394468071"><ele>-1.0</ele><time>2026-04-25T10:28:07Z</time></trkpt><trkpt lat="44.85197173109163" lon="12.09487702173147"><ele>-1.0</ele><time>2026-04-25T10:28:09Z</time></trkpt><trkpt lat="44.85190646918387" lon="12.09496867742257"><ele>-1.0</ele><time>2026-04-25T10:28:11Z</time></trkpt><trkpt lat="44.85183842704882" lon="12.095064339385473"><ele>-1.0</ele><time>2026-04-25T10:28:13Z</time></trkpt><trkpt lat="44.85177033769839" lon="12.095159084707104"><ele>-1.0</ele><time>2026-04-25T10:28:15Z</time></trkpt><trkpt lat="44.85170553660041" lon="12.095259372764877"><ele>-1.0</ele><time>2026-04-25T10:28:17Z</time></trkpt><trkpt lat="44.85163936401844" lon="12.095357242861215"><ele>-1.0</ele><time>2026-04-25T10:28:19Z</time></trkpt><trkpt lat="44.85157180336553" lon="12.09545674898876"><ele>-1.0</ele><time>2026-04-25T10:28:21Z</time></trkpt><trkpt lat="44.85150459028106" lon="12.095553378626416"><ele>-1.0</ele><time>2026-04-25T10:28:23Z</time></trkpt><trkpt lat="44.85143562469354" lon="12.09565012551276"><ele>-1.0</ele><time>2026-04-25T10:28:25Z</time></trkpt><trkpt lat="44.85136848552054" lon="12.095745495170375"><ele>-1.0</ele><time>2026-04-25T10:28:27Z</time></trkpt><trkpt lat="44.851301921503236" lon="12.095845008940376"><ele>-1.0</ele><time>2026-04-25T10:28:29Z</time></trkpt><trkpt lat="44.85123311704132" lon="12.095935446377693"><ele>-1.0</ele><time>2026-04-25T10:28:31Z</time></trkpt><trkpt lat="44.85116098329061" lon="12.096025156691873"><ele>-1.0</ele><time>2026-04-25T10:28:33Z</time></trkpt><trkpt lat="44.851086372716516" lon="12.096113106190883"><ele>-1.0</ele><time>2026-04-25T10:28:35Z</time></trkpt><trkpt lat="44.85100799080142" lon="12.096196999173774"><ele>-1.0</ele><time>2026-04-25T10:28:37Z</time></trkpt><trkpt lat="44.85093049463384" lon="12.09627932572776"><ele>-0.8</ele><time>2026-04-25T10:28:39Z</time></trkpt><trkpt lat="44.850850742415005" lon="12.096357612944047"><ele>-0.6000000000000001</ele><time>2026-04-25T10:28:41Z</time></trkpt><trkpt lat="44.850773370278716" lon="12.096429801301534"><ele>-0.4</ele><time>2026-04-25T10:28:43Z</time></trkpt><trkpt lat="44.850691190598106" lon="12.096498385037833"><ele>-0.2</ele><time>2026-04-25T10:28:45Z</time></trkpt><trkpt lat="44.85061149353818" lon="12.09656685911838"><ele>0.0</ele><time>2026-04-25T10:28:47Z</time></trkpt><trkpt lat="44.85052941524997" lon="12.096627744511423"><ele>0.0</ele><time>2026-04-25T10:28:49Z</time></trkpt><trkpt lat="44.85044630328696" lon="12.096693109652776"><ele>0.0</ele><time>2026-04-25T10:28:51Z</time></trkpt><trkpt lat="44.850359329890956" lon="12.096757647800922"><ele>0.0</ele><time>2026-04-25T10:28:53Z</time></trkpt><trkpt lat="44.85027837846429" lon="12.09681974832125"><ele>0.0</ele><time>2026-04-25T10:28:55Z</time></trkpt><trkpt lat="44.85019501577942" lon="12.096882400584102"><ele>0.0</ele><time>2026-04-25T10:28:57Z</time></trkpt><trkpt lat="44.85011090002442" lon="12.096943112067699"><ele>0.0</ele><time>2026-04-25T10:28:59Z</time></trkpt><trkpt lat="44.85002732485455" lon="12.097004770946787"><ele>0.0</ele><time>2026-04-25T10:29:01Z</time></trkpt><trkpt lat="44.84994522414172" lon="12.097068670677062"><ele>0.0</ele><time>2026-04-25T10:29:03Z</time></trkpt><trkpt lat="44.84986036386832" lon="12.09713193110718"><ele>0.0</ele><time>2026-04-25T10:29:05Z</time></trkpt><trkpt lat="44.84977709769527" lon="12.097191426655305"><ele>0.0</ele><time>2026-04-25T10:29:07Z</time></trkpt><trkpt lat="44.849694596202255" lon="12.097256346934229"><ele>0.0</ele><time>2026-04-25T10:29:09Z</time></trkpt><trkpt lat="44.84961143661757" lon="12.09731800905921"><ele>0.0</ele><time>2026-04-25T10:29:11Z</time></trkpt><trkpt lat="44.84952967574951" lon="12.097382056207262"><ele>0.0</ele><time>2026-04-25T10:29:13Z</time></trkpt><trkpt lat="44.84944721257507" lon="12.097446305194628"><ele>0.0</ele><time>2026-04-25T10:29:15Z</time></trkpt><trkpt lat="44.84936095883489" lon="12.097511840405348"><ele>0.0</ele><time>2026-04-25T10:29:17Z</time></trkpt><trkpt lat="44.84927379611121" lon="12.097581148972212"><ele>-0.2</ele><time>2026-04-25T10:29:19Z</time></trkpt><trkpt lat="44.84918593883052" lon="12.097649958699362"><ele>-0.4</ele><time>2026-04-25T10:29:21Z</time></trkpt><trkpt lat="44.849103764945696" lon="12.097723039542396"><ele>-0.6000000000000001</ele><time>2026-04-25T10:29:23Z</time></trkpt><trkpt lat="44.849023161034076" lon="12.097792974675071"><ele>-0.8</ele><time>2026-04-25T10:29:25Z</time></trkpt><trkpt lat="44.84894134595203" lon="12.097866610749474"><ele>-1.0</ele><time>2026-04-25T10:29:27Z</time></trkpt><trkpt lat="44.848860064833104" lon="12.097941426885814"><ele>-1.0</ele><time>2026-04-25T10:29:29Z</time></trkpt><trkpt lat="44.848779234622235" lon="12.09801680119935"><ele>-1.0</ele><time>2026-04-25T10:29:31Z</time></trkpt><trkpt lat="44.848698464481295" lon="12.098092567182464"><ele>-1.0</ele><time>2026-04-25T10:29:33Z</time></trkpt><trkpt lat="44.84861729981006" lon="12.098173752275684"><ele>-1.0</ele><time>2026-04-25T10:29:35Z</time></trkpt><trkpt lat="44.84854092349718" lon="12.098255264919668"><ele>-1.0</ele><time>2026-04-25T10:29:37Z</time></trkpt><trkpt lat="44.848466893511855" lon="12.098340062490726"><ele>-1.0</ele><time>2026-04-25T10:29:39Z</time></trkpt><trkpt lat="44.848395454386996" lon="12.098427361783427"><ele>-1.0</ele><time>2026-04-25T10:29:41Z</time></trkpt><trkpt lat="44.84832116277455" lon="12.098516942765864"><ele>-1.0</ele><time>2026-04-25T10:29:43Z</time></trkpt><trkpt lat="44.848252470733335" lon="12.098606379897763"><ele>-1.0</ele><time>2026-04-25T10:29:45Z</time></trkpt><trkpt lat="44.84818247709984" lon="12.098697388633637"><ele>-1.0</ele><time>2026-04-25T10:29:47Z</time></trkpt><trkpt lat="44.84811523146648" lon="12.098790437185395"><ele>-1.0</ele><time>2026-04-25T10:29:49Z</time></trkpt><trkpt lat="44.8480480836059" lon="12.098886654462122"><ele>-1.0</ele><time>2026-04-25T10:29:51Z</time></trkpt><trkpt lat="44.847981541946616" lon="12.09898338658885"><ele>-1.0</ele><time>2026-04-25T10:29:53Z</time></trkpt><trkpt lat="44.84791934033984" lon="12.099078665136126"><ele>-1.0</ele><time>2026-04-25T10:29:55Z</time></trkpt><trkpt lat="44.847857572133904" lon="12.099178876594882"><ele>-1.0</ele><time>2026-04-25T10:29:57Z</time></trkpt><trkpt lat="44.847797999166986" lon="12.099280810128462"><ele>-1.0</ele><time>2026-04-25T10:29:59Z</time></trkpt><trkpt lat="44.847736382445504" lon="12.099381188876919"><ele>-1.0</ele><time>2026-04-25T10:30:01Z</time></trkpt><trkpt lat="44.84768086693438" lon="12.099489736471805"><ele>-1.0</ele><time>2026-04-25T10:30:03Z</time></trkpt><trkpt lat="44.847624257889244" lon="12.09959667385924"><ele>-1.0</ele><time>2026-04-25T10:30:05Z</time></trkpt><trkpt lat="44.84757023918422" lon="12.099703548882397"><ele>-1.0</ele><time>2026-04-25T10:30:07Z</time></trkpt><trkpt lat="44.84751600914276" lon="12.09981854404547"><ele>-1.0</ele><time>2026-04-25T10:30:09Z</time></trkpt><trkpt lat="44.84746449554034" lon="12.099932735570208"><ele>-1.0</ele><time>2026-04-25T10:30:11Z</time></trkpt><trkpt lat="44.84741509638032" lon="12.100046559407007"><ele>-1.0</ele><time>2026-04-25T10:30:13Z</time></trkpt><trkpt lat="44.847370885238334" lon="12.100166395282253"><ele>-1.0</ele><time>2026-04-25T10:30:15Z</time></trkpt><trkpt lat="44.847336460784256" lon="12.100284601492362"><ele>-1.0</ele><time>2026-04-25T10:30:17Z</time></trkpt><trkpt lat="44.8472973268339" lon="12.100406109987158"><ele>-1.0</ele><time>2026-04-25T10:30:19Z</time></trkpt><trkpt lat="44.84726699752003" lon="12.100532997337547"><ele>-1.0</ele><time>2026-04-25T10:30:21Z</time></trkpt><trkpt lat="44.8472455109755" lon="12.100658527409736"><ele>-1.0</ele><time>2026-04-25T10:30:23Z</time></trkpt><trkpt lat="44.84723104055858" lon="12.100788645242952"><ele>-1.0</ele><time>2026-04-25T10:30:25Z</time></trkpt><trkpt lat="44.84721890784428" lon="12.100919906008798"><ele>-1.0</ele><time>2026-04-25T10:30:27Z</time></trkpt><trkpt lat="44.84721622329511" lon="12.101050004883374"><ele>-1.2000000000000002</ele><time>2026-04-25T10:30:29Z</time></trkpt><trkpt lat="44.84722294964929" lon="12.101185010713532"><ele>-1.4000000000000001</ele><time>2026-04-25T10:30:31Z</time></trkpt><trkpt lat="44.847230724027106" lon="12.1013179730207"><ele>-1.6</ele><time>2026-04-25T10:30:33Z</time></trkpt><trkpt lat="44.847246882776105" lon="12.101449362608665"><ele>-1.8</ele><time>2026-04-25T10:30:35Z</time></trkpt><trkpt lat="44.84726072101011" lon="12.101576684975885"><ele>-2.0</ele><time>2026-04-25T10:30:37Z</time></trkpt><trkpt lat="44.84728460984669" lon="12.10169818669083"><ele>-1.9999999999999998</ele><time>2026-04-25T10:30:39Z</time></trkpt><trkpt lat="44.84731017635748" lon="12.101814036875428"><ele>-2.0</ele><time>2026-04-25T10:30:41Z</time></trkpt><trkpt lat="44.84733241687736" lon="12.101921091608547"><ele>-2.0</ele><time>2026-04-25T10:30:43Z</time></trkpt><trkpt lat="44.847361279754644" lon="12.102031278932206"><ele>-2.0</ele><time>2026-04-25T10:30:45Z</time></trkpt><trkpt lat="44.84739197635625" lon="12.102152360828105"><ele>-1.9999999999999998</ele><time>2026-04-25T10:30:47Z</time></trkpt><trkpt lat="44.84743049563743" lon="12.102272704216302"><ele>-2.0</ele><time>2026-04-25T10:30:49Z</time></trkpt><trkpt lat="44.847469365719626" lon="12.102390686464453"><ele>-1.9999999999999998</ele><time>2026-04-25T10:30:51Z</time></trkpt><trkpt lat="44.84750829572688" lon="12.102499607096615"><ele>-2.0</ele><time>2026-04-25T10:30:53Z</time></trkpt><trkpt lat="44.84753843691541" lon="12.10261040679975"><ele>-2.0</ele><time>2026-04-25T10:30:55Z</time></trkpt><trkpt lat="44.8475738783092" lon="12.102708404824682"><ele>-2.0</ele><time>2026-04-25T10:30:57Z</time></trkpt><trkpt lat="44.847608868659314" lon="12.1028193827598"><ele>-1.9999999999999998</ele><time>2026-04-25T10:30:59Z</time></trkpt><trkpt lat="44.84763596200514" lon="12.102939145874402"><ele>-2.0</ele><time>2026-04-25T10:31:01Z</time></trkpt><trkpt lat="44.84768257649858" lon="12.103057827867524"><ele>-1.9999999999999998</ele><time>2026-04-25T10:31:03Z</time></trkpt><trkpt lat="44.84771924530914" lon="12.103167889803775"><ele>-2.0</ele><time>2026-04-25T10:31:05Z</time></trkpt><trkpt lat="44.847757134122055" lon="12.103278996845232"><ele>-2.0</ele><time>2026-04-25T10:31:07Z</time></trkpt><trkpt lat="44.847801163789754" lon="12.103391584278734"><ele>-2.0</ele><time>2026-04-25T10:31:09Z</time></trkpt><trkpt lat="44.84785030427584" lon="12.103496508670434"><ele>-1.9999999999999998</ele><time>2026-04-25T10:31:11Z</time></trkpt><trkpt lat="44.84789297041506" lon="12.103600651373837"><ele>-2.0</ele><time>2026-04-25T10:31:13Z</time></trkpt><trkpt lat="44.84792771807538" lon="12.103704429592435"><ele>-1.8333333333333333</ele><time>2026-04-25T10:31:15Z</time></trkpt><trkpt lat="44.84796866707258" lon="12.103799266005767"><ele>-1.6666666666666665</ele><time>2026-04-25T10:31:17Z</time></trkpt><trkpt lat="44.84800423060241" lon="12.103896529437286"><ele>-1.5</ele><time>2026-04-25T10:31:19Z</time></trkpt><trkpt lat="44.84804027412874" lon="12.104002961379443"><ele>-1.3333333333333333</ele><time>2026-04-25T10:31:21Z</time></trkpt><trkpt lat="44.84807967201047" lon="12.104105861961441"><ele>-1.1666666666666665</ele><time>2026-04-25T10:31:23Z</time></trkpt><trkpt lat="44.84812032835898" lon="12.10421586764636"><ele>-1.0</ele><time>2026-04-25T10:31:25Z</time></trkpt><trkpt lat="44.84815492084067" lon="12.104314121778339"><ele>-1.1666666666666665</ele><time>2026-04-25T10:31:27Z</time></trkpt><trkpt lat="44.848190840478" lon="12.104411282852684"><ele>-1.3333333333333333</ele><time>2026-04-25T10:31:29Z</time></trkpt><trkpt lat="44.848226076042195" lon="12.104522345316878"><ele>-1.5</ele><time>2026-04-25T10:31:31Z</time></trkpt><trkpt lat="44.84825229912832" lon="12.104632705733257"><ele>-1.6666666666666665</ele><time>2026-04-25T10:31:33Z</time></trkpt><trkpt lat="44.848276879075705" lon="12.104752102857752"><ele>-1.8333333333333333</ele><time>2026-04-25T10:31:35Z</time></trkpt><trkpt lat="44.84830858859219" lon="12.10488014638725"><ele>-2.0</ele><time>2026-04-25T10:31:37Z</time></trkpt><trkpt lat="44.84833345413372" lon="12.105013507045452"><ele>-2.0</ele><time>2026-04-25T10:31:39Z</time></trkpt><trkpt lat="44.84836536008497" lon="12.10514370979548"><ele>-2.0</ele><time>2026-04-25T10:31:41Z</time></trkpt><trkpt lat="44.848386055304985" lon="12.105275169010136"><ele>-2.0</ele><time>2026-04-25T10:31:43Z</time></trkpt><trkpt lat="44.84840376159276" lon="12.105398185828916"><ele>-2.0</ele><time>2026-04-25T10:31:45Z</time></trkpt><trkpt lat="44.848415181721265" lon="12.105522200060246"><ele>-2.0</ele><time>2026-04-25T10:31:47Z</time></trkpt><trkpt lat="44.8484328486662" lon="12.10564624457674"><ele>-1.6</ele><time>2026-04-25T10:31:49Z</time></trkpt><trkpt lat="44.84843932427783" lon="12.105766102117798"><ele>-1.2000000000000002</ele><time>2026-04-25T10:31:51Z</time></trkpt><trkpt lat="44.848443061892354" lon="12.105898796581744"><ele>-0.8</ele><time>2026-04-25T10:31:53Z</time></trkpt><trkpt lat="44.84844891837778" lon="12.106032781017943"><ele>-0.4</ele><time>2026-04-25T10:31:55Z</time></trkpt><trkpt lat="44.84845082267481" lon="12.106166745666204"><ele>0.0</ele><time>2026-04-25T10:31:57Z</time></trkpt><trkpt lat="44.848451678336815" lon="12.106298555077466"><ele>0.0</ele><time>2026-04-25T10:31:59Z</time></trkpt><trkpt lat="44.84845953175078" lon="12.106423170194597"><ele>0.0</ele><time>2026-04-25T10:32:01Z</time></trkpt><trkpt lat="44.848461267032484" lon="12.106542290677696"><ele>0.0</ele><time>2026-04-25T10:32:03Z</time></trkpt><trkpt lat="44.848458164458286" lon="12.10665092921964"><ele>0.0</ele><time>2026-04-25T10:32:05Z</time></trkpt><trkpt lat="44.84845611407515" lon="12.106752859332822"><ele>0.0</ele><time>2026-04-25T10:32:07Z</time></trkpt><trkpt lat="44.8484555536411" lon="12.106848425186495"><ele>0.0</ele><time>2026-04-25T10:32:09Z</time></trkpt><trkpt lat="44.84845790151266" lon="12.10693974020306"><ele>-0.6</ele><time>2026-04-25T10:32:11Z</time></trkpt><trkpt lat="44.84852350859043" lon="12.10701063198881"><ele>-1.2</ele><time>2026-04-25T10:32:14Z</time></trkpt><trkpt lat="44.84862272223606" lon="12.10701540256245"><ele>-1.7999999999999998</ele><time>2026-04-25T10:32:17Z</time></trkpt><trkpt lat="44.8487067152762" lon="12.10701396995837"><ele>-2.4</ele><time>2026-04-25T10:32:19Z</time></trkpt><trkpt lat="44.848798110263154" lon="12.107038202501988"><ele>-3.0</ele><time>2026-04-25T10:32:21Z</time></trkpt><trkpt lat="44.84888827277647" lon="12.107055774345604"><ele>-3.0</ele><time>2026-04-25T10:32:23Z</time></trkpt><trkpt lat="44.84897503588905" lon="12.107055847814072"><ele>-3.0</ele><time>2026-04-25T10:32:25Z</time></trkpt><trkpt lat="44.84906302240233" lon="12.107071283290772"><ele>-3.0</ele><time>2026-04-25T10:32:27Z</time></trkpt><trkpt lat="44.84914833238299" lon="12.107083810056771"><ele>-3.0</ele><time>2026-04-25T10:32:29Z</time></trkpt><trkpt lat="44.84924052469673" lon="12.10709867941112"><ele>-3.0</ele><time>2026-04-25T10:32:31Z</time></trkpt><trkpt lat="44.84933372058916" lon="12.107108277928802"><ele>-3.0</ele><time>2026-04-25T10:32:33Z</time></trkpt><trkpt lat="44.84942491725514" lon="12.107118986545489"><ele>-3.0</ele><time>2026-04-25T10:32:35Z</time></trkpt><trkpt lat="44.8495166383163" lon="12.107130924360845"><ele>-3.0</ele><time>2026-04-25T10:32:37Z</time></trkpt><trkpt lat="44.849608938217784" lon="12.107137977738127"><ele>-3.0</ele><time>2026-04-25T10:32:39Z</time></trkpt><trkpt lat="44.849703024318046" lon="12.107151474528235"><ele>-3.0</ele><time>2026-04-25T10:32:41Z</time></trkpt><trkpt lat="44.84979750303087" lon="12.1071614543363"><ele>-3.0</ele><time>2026-04-25T10:32:43Z</time></trkpt><trkpt lat="44.84989025902505" lon="12.10716553163709"><ele>-3.0</ele><time>2026-04-25T10:32:45Z</time></trkpt><trkpt lat="44.84998552821207" lon="12.10717428296832"><ele>-3.0</ele><time>2026-04-25T10:32:47Z</time></trkpt><trkpt lat="44.85007866904458" lon="12.107188046566598"><ele>-3.0</ele><time>2026-04-25T10:32:49Z</time></trkpt><trkpt lat="44.85017192341029" lon="12.107193996355843"><ele>-3.0</ele><time>2026-04-25T10:32:51Z</time></trkpt><trkpt lat="44.85026578207568" lon="12.107204974332276"><ele>-3.0</ele><time>2026-04-25T10:32:53Z</time></trkpt><trkpt lat="44.850356445359374" lon="12.107213919649382"><ele>-3.0</ele><time>2026-04-25T10:32:55Z</time></trkpt><trkpt lat="44.85044706390324" lon="12.107225242494355"><ele>-3.0</ele><time>2026-04-25T10:32:57Z</time></trkpt><trkpt lat="44.850536002984654" lon="12.107241120257003"><ele>-3.0</ele><time>2026-04-25T10:32:59Z</time></trkpt><trkpt lat="44.850602499620784" lon="12.107279736851162"><ele>-3.0</ele><time>2026-04-25T10:33:01Z</time></trkpt><trkpt lat="44.850624182952224" lon="12.107366751250384"><ele>-3.0</ele><time>2026-04-25T10:33:03Z</time></trkpt><trkpt lat="44.85060465417978" lon="12.107451842411226"><ele>-3.0</ele><time>2026-04-25T10:33:05Z</time></trkpt><trkpt lat="44.85058604054917" lon="12.107555930844079"><ele>-3.0</ele><time>2026-04-25T10:33:07Z</time></trkpt><trkpt lat="44.85056875846298" lon="12.107671410506494"><ele>-3.0</ele><time>2026-04-25T10:33:09Z</time></trkpt><trkpt lat="44.850543641807555" lon="12.107791446042535"><ele>-3.0</ele><time>2026-04-25T10:33:11Z</time></trkpt><trkpt lat="44.8505217028516" lon="12.10792137780157"><ele>-3.0</ele><time>2026-04-25T10:33:13Z</time></trkpt><trkpt lat="44.85049901716582" lon="12.108048044475753"><ele>-3.0</ele><time>2026-04-25T10:33:15Z</time></trkpt><trkpt lat="44.85048075140294" lon="12.108180567723782"><ele>-2.8</ele><time>2026-04-25T10:33:17Z</time></trkpt><trkpt lat="44.850462310849515" lon="12.108306114987034"><ele>-2.5999999999999996</ele><time>2026-04-25T10:33:19Z</time></trkpt><trkpt lat="44.850441771021785" lon="12.108433118809579"><ele>-2.4000000000000004</ele><time>2026-04-25T10:33:21Z</time></trkpt><trkpt lat="44.850423946255525" lon="12.108558593183753"><ele>-2.2</ele><time>2026-04-25T10:33:23Z</time></trkpt><trkpt lat="44.8504045690552" lon="12.108681898085532"><ele>-2.0</ele><time>2026-04-25T10:33:25Z</time></trkpt><trkpt lat="44.85038575275182" lon="12.108809385482564"><ele>-1.9999999999999998</ele><time>2026-04-25T10:33:27Z</time></trkpt><trkpt lat="44.85036836597344" lon="12.108935344168625"><ele>-2.0</ele><time>2026-04-25T10:33:29Z</time></trkpt><trkpt lat="44.850349316177905" lon="12.109053749987655"><ele>-2.0</ele><time>2026-04-25T10:33:31Z</time></trkpt><trkpt lat="44.85033055967005" lon="12.109171500227024"><ele>-2.0</ele><time>2026-04-25T10:33:33Z</time></trkpt><trkpt lat="44.85031589951208" lon="12.109280069601569"><ele>-1.9999999999999998</ele><time>2026-04-25T10:33:35Z</time></trkpt><trkpt lat="44.85029423073629" lon="12.109383961931616"><ele>-2.0</ele><time>2026-04-25T10:33:37Z</time></trkpt><trkpt lat="44.85027117663029" lon="12.109495492254807"><ele>-1.8</ele><time>2026-04-25T10:33:39Z</time></trkpt><trkpt lat="44.850251043317506" lon="12.109619884427142"><ele>-1.6</ele><time>2026-04-25T10:33:41Z</time></trkpt><trkpt lat="44.85021969287643" lon="12.10974007030034"><ele>-1.4000000000000001</ele><time>2026-04-25T10:33:43Z</time></trkpt><trkpt lat="44.85018084751854" lon="12.109855807672604"><ele>-1.2000000000000002</ele><time>2026-04-25T10:33:45Z</time></trkpt><trkpt lat="44.850135793259184" lon="12.109969543724096"><ele>-1.0</ele><time>2026-04-25T10:33:47Z</time></trkpt><trkpt lat="44.85007910560083" lon="12.110065322282573"><ele>-1.3333333333333333</ele><time>2026-04-25T10:33:49Z</time></trkpt><trkpt lat="44.85002028973857" lon="12.1101512954613"><ele>-1.6666666666666665</ele><time>2026-04-25T10:33:51Z</time></trkpt><trkpt lat="44.84996212716881" lon="12.110224146970726"><ele>-2.0</ele><time>2026-04-25T10:33:53Z</time></trkpt><trkpt lat="44.84990414440049" lon="12.110297558416285"><ele>-2.3333333333333335</ele><time>2026-04-25T10:33:55Z</time></trkpt><trkpt lat="44.84983919509629" lon="12.110378832104184"><ele>-2.6666666666666665</ele><time>2026-04-25T10:33:57Z</time></trkpt><trkpt lat="44.84977490467071" lon="12.110468271395028"><ele>-3.0</ele><time>2026-04-25T10:33:59Z</time></trkpt><trkpt lat="44.84970598717104" lon="12.110551760517016"><ele>-3.0</ele><time>2026-04-25T10:34:01Z</time></trkpt><trkpt lat="44.84963864325507" lon="12.110636093905178"><ele>-3.0</ele><time>2026-04-25T10:34:03Z</time></trkpt><trkpt lat="44.849573780207926" lon="12.110731722469762"><ele>-3.0</ele><time>2026-04-25T10:34:05Z</time></trkpt><trkpt lat="44.84950776962089" lon="12.110820192708543"><ele>-3.0</ele><time>2026-04-25T10:34:07Z</time></trkpt><trkpt lat="44.849445174872095" lon="12.110913741509771"><ele>-3.0</ele><time>2026-04-25T10:34:09Z</time></trkpt><trkpt lat="44.849371445437555" lon="12.110995529020283"><ele>-3.0</ele><time>2026-04-25T10:34:11Z</time></trkpt><trkpt lat="44.84929556568077" lon="12.111061986713505"><ele>-3.0</ele><time>2026-04-25T10:34:13Z</time></trkpt><trkpt lat="44.849218051241934" lon="12.111119407655979"><ele>-3.0</ele><time>2026-04-25T10:34:15Z</time></trkpt><trkpt lat="44.84914349279157" lon="12.1111748470279"><ele>-3.0</ele><time>2026-04-25T10:34:17Z</time></trkpt><trkpt lat="44.84906862116251" lon="12.111219732931504"><ele>-3.0</ele><time>2026-04-25T10:34:19Z</time></trkpt><trkpt lat="44.84898616301356" lon="12.11127454958116"><ele>-3.0</ele><time>2026-04-25T10:34:21Z</time></trkpt><trkpt lat="44.84890320864612" lon="12.111325981803208"><ele>-3.0</ele><time>2026-04-25T10:34:23Z</time></trkpt><trkpt lat="44.84882105550457" lon="12.111369119399278"><ele>-3.0</ele><time>2026-04-25T10:34:25Z</time></trkpt><trkpt lat="44.84873544467242" lon="12.111415804859252"><ele>-3.0</ele><time>2026-04-25T10:34:27Z</time></trkpt><trkpt lat="44.84864965332162" lon="12.111460965443502"><ele>-3.0</ele><time>2026-04-25T10:34:29Z</time></trkpt><trkpt lat="44.84856428569439" lon="12.111499666869243"><ele>-3.0</ele><time>2026-04-25T10:34:31Z</time></trkpt><trkpt lat="44.848476687792925" lon="12.111531549912371"><ele>-3.0</ele><time>2026-04-25T10:34:33Z</time></trkpt><trkpt lat="44.84838083538377" lon="12.111561495140794"><ele>-3.0</ele><time>2026-04-25T10:34:35Z</time></trkpt><trkpt lat="44.848290324237595" lon="12.111595744955231"><ele>-3.0</ele><time>2026-04-25T10:34:37Z</time></trkpt><trkpt lat="44.84821154468052" lon="12.111631486944592"><ele>-3.0</ele><time>2026-04-25T10:34:39Z</time></trkpt><trkpt lat="44.84813817727322" lon="12.111666904569503"><ele>-3.0</ele><time>2026-04-25T10:34:41Z</time></trkpt><trkpt lat="44.84805894302609" lon="12.111715909585127"><ele>-3.0</ele><time>2026-04-25T10:34:43Z</time></trkpt><trkpt lat="44.84797899508661" lon="12.11177796370896"><ele>-3.0</ele><time>2026-04-25T10:34:45Z</time></trkpt><trkpt lat="44.84790050808466" lon="12.111840854670705"><ele>-3.0</ele><time>2026-04-25T10:34:47Z</time></trkpt><trkpt lat="44.847823495578055" lon="12.111903277486947"><ele>-3.0</ele><time>2026-04-25T10:34:49Z</time></trkpt><trkpt lat="44.847742447249374" lon="12.111962335986423"><ele>-3.0</ele><time>2026-04-25T10:34:51Z</time></trkpt><trkpt lat="44.84766371824918" lon="12.112019330934201"><ele>-3.0</ele><time>2026-04-25T10:34:53Z</time></trkpt><trkpt lat="44.8475908487915" lon="12.11208069955468"><ele>-3.0</ele><time>2026-04-25T10:34:55Z</time></trkpt><trkpt lat="44.847532135600886" lon="12.11212822445055"><ele>-3.0</ele><time>2026-04-25T10:34:57Z</time></trkpt><trkpt lat="44.8474652692121" lon="12.11217666661768"><ele>-3.0</ele><time>2026-04-25T10:35:00Z</time></trkpt><trkpt lat="44.84739660658635" lon="12.112216120223605"><ele>-3.0</ele><time>2026-04-25T10:35:03Z</time></trkpt><trkpt lat="44.84732050895868" lon="12.11222830207454"><ele>-3.0</ele><time>2026-04-25T10:35:07Z</time></trkpt><trkpt lat="44.84722842103747" lon="12.112252927451149"><ele>-3.0</ele><time>2026-04-25T10:35:10Z</time></trkpt><trkpt lat="44.84714971779699" lon="12.112265209696474"><ele>-3.0</ele><time>2026-04-25T10:35:12Z</time></trkpt><trkpt lat="44.847053978317625" lon="12.112294745209125"><ele>-3.0</ele><time>2026-04-25T10:35:15Z</time></trkpt><trkpt lat="44.846970453166" lon="12.112313122289853"><ele>-3.0</ele><time>2026-04-25T10:35:17Z</time></trkpt><trkpt lat="44.846883995180164" lon="12.112335619139824"><ele>-3.0</ele><time>2026-04-25T10:35:19Z</time></trkpt><trkpt lat="44.846800344725146" lon="12.112371423019862"><ele>-3.0</ele><time>2026-04-25T10:35:21Z</time></trkpt><trkpt lat="44.846730277202504" lon="12.112402350978588"><ele>-3.0</ele><time>2026-04-25T10:35:23Z</time></trkpt><trkpt lat="44.84665306039451" lon="12.112418623316684"><ele>-3.0</ele><time>2026-04-25T10:35:25Z</time></trkpt><trkpt lat="44.84657185229807" lon="12.112445667536036"><ele>-2.5</ele><time>2026-04-25T10:35:27Z</time></trkpt><trkpt lat="44.84648265278659" lon="12.11247184927167"><ele>-2.0</ele><time>2026-04-25T10:35:29Z</time></trkpt><trkpt lat="44.84639413719777" lon="12.112493384530904"><ele>-1.5</ele><time>2026-04-25T10:35:31Z</time></trkpt><trkpt lat="44.84631169473402" lon="12.112518534564673"><ele>-1.0</ele><time>2026-04-25T10:35:33Z</time></trkpt><trkpt lat="44.84623745164532" lon="12.112540292013245"><ele>-0.5</ele><time>2026-04-25T10:35:35Z</time></trkpt><trkpt lat="44.84615730092631" lon="12.11256146589523"><ele>0.0</ele><time>2026-04-25T10:35:37Z</time></trkpt><trkpt lat="44.84607212108466" lon="12.11258646838131"><ele>0.0</ele><time>2026-04-25T10:35:39Z</time></trkpt><trkpt lat="44.845984942839" lon="12.112613207231172"><ele>0.0</ele><time>2026-04-25T10:35:41Z</time></trkpt><trkpt lat="44.845904967365954" lon="12.112634356129158"><ele>0.0</ele><time>2026-04-25T10:35:43Z</time></trkpt><trkpt lat="44.84582959086439" lon="12.11265579900406"><ele>0.0</ele><time>2026-04-25T10:35:45Z</time></trkpt><trkpt lat="44.84575387457191" lon="12.112678074399287"><ele>0.0</ele><time>2026-04-25T10:35:47Z</time></trkpt><trkpt lat="44.84568311572186" lon="12.112696285807566"><ele>0.0</ele><time>2026-04-25T10:35:49Z</time></trkpt><trkpt lat="44.84560621151823" lon="12.112713431038873"><ele>-0.16666666666666666</ele><time>2026-04-25T10:35:51Z</time></trkpt><trkpt lat="44.84553228515575" lon="12.11272051565432"><ele>-0.3333333333333333</ele><time>2026-04-25T10:35:53Z</time></trkpt><trkpt lat="44.845464578570116" lon="12.112727498412234"><ele>-0.5</ele><time>2026-04-25T10:35:55Z</time></trkpt><trkpt lat="44.84537660767524" lon="12.112715760970303"><ele>-0.6666666666666666</ele><time>2026-04-25T10:35:58Z</time></trkpt><trkpt lat="44.845310139046894" lon="12.11270961091236"><ele>-0.8333333333333333</ele><time>2026-04-25T10:36:00Z</time></trkpt><trkpt lat="44.845231525146865" lon="12.112696885857593"><ele>-1.0</ele><time>2026-04-25T10:36:02Z</time></trkpt><trkpt lat="44.8451495768417" lon="12.112681672576104"><ele>-1.3333333333333333</ele><time>2026-04-25T10:36:04Z</time></trkpt><trkpt lat="44.845079873468094" lon="12.112669855644517"><ele>-1.6666666666666665</ele><time>2026-04-25T10:36:06Z</time></trkpt><trkpt lat="44.84499443686763" lon="12.112656994893197"><ele>-2.0</ele><time>2026-04-25T10:36:08Z</time></trkpt><trkpt lat="44.84490470849476" lon="12.112647058530802"><ele>-2.3333333333333335</ele><time>2026-04-25T10:36:10Z</time></trkpt><trkpt lat="44.84482091909038" lon="12.112632225369289"><ele>-2.6666666666666665</ele><time>2026-04-25T10:36:12Z</time></trkpt><trkpt lat="44.844749571589915" lon="12.112620707197237"><ele>-3.0</ele><time>2026-04-25T10:36:14Z</time></trkpt><trkpt lat="44.84467809917668" lon="12.112608587872945"><ele>-3.0</ele><time>2026-04-25T10:36:16Z</time></trkpt><trkpt lat="44.84458990410596" lon="12.11259098064258"><ele>-3.0</ele><time>2026-04-25T10:36:18Z</time></trkpt><trkpt lat="44.84450328718276" lon="12.112575033487753"><ele>-3.0</ele><time>2026-04-25T10:36:20Z</time></trkpt><trkpt lat="44.84442318839479" lon="12.112557962105516"><ele>-3.0</ele><time>2026-04-25T10:36:22Z</time></trkpt><trkpt lat="44.844340593480766" lon="12.112540344899982"><ele>-3.0</ele><time>2026-04-25T10:36:24Z</time></trkpt><trkpt lat="44.84426000016256" lon="12.112509728122587"><ele>-3.0</ele><time>2026-04-25T10:36:26Z</time></trkpt><trkpt lat="44.84417953330935" lon="12.112455830275623"><ele>-2.6666666666666665</ele><time>2026-04-25T10:36:28Z</time></trkpt><trkpt lat="44.8441060977362" lon="12.112385854496896"><ele>-2.3333333333333335</ele><time>2026-04-25T10:36:30Z</time></trkpt><trkpt lat="44.84404336132614" lon="12.11231901950549"><ele>-2.0</ele><time>2026-04-25T10:36:32Z</time></trkpt><trkpt lat="44.84397437273117" lon="12.11225459658059"><ele>-1.6666666666666665</ele><time>2026-04-25T10:36:34Z</time></trkpt><trkpt lat="44.84389402971547" lon="12.112192839197297"><ele>-1.3333333333333333</ele><time>2026-04-25T10:36:36Z</time></trkpt><trkpt lat="44.84380941139501" lon="12.112155255419143"><ele>-1.0</ele><time>2026-04-25T10:36:38Z</time></trkpt><trkpt lat="44.843713781552545" lon="12.112150654212972"><ele>-0.9999999999999999</ele><time>2026-04-25T10:36:40Z</time></trkpt><trkpt lat="44.84362003788079" lon="12.1121565643814"><ele>-1.0</ele><time>2026-04-25T10:36:42Z</time></trkpt><trkpt lat="44.84353284042916" lon="12.112173918609615"><ele>-1.0</ele><time>2026-04-25T10:36:44Z</time></trkpt><trkpt lat="44.84345487605243" lon="12.112184576258601"><ele>-1.0</ele><time>2026-04-25T10:36:46Z</time></trkpt><trkpt lat="44.84337202834976" lon="12.112192734583873"><ele>-0.9999999999999999</ele><time>2026-04-25T10:36:48Z</time></trkpt><trkpt lat="44.84328605454332" lon="12.112207406016367"><ele>-1.0</ele><time>2026-04-25T10:36:50Z</time></trkpt><trkpt lat="44.84321262154035" lon="12.112217560292866"><ele>-1.0</ele><time>2026-04-25T10:36:52Z</time></trkpt><trkpt lat="44.843146684331856" lon="12.11222918038487"><ele>-0.9999999999999999</ele><time>2026-04-25T10:36:54Z</time></trkpt><trkpt lat="44.84307838629831" lon="12.112230032192398"><ele>-1.0</ele><time>2026-04-25T10:36:57Z</time></trkpt><trkpt lat="44.84300772870171" lon="12.112243637999592"><ele>-1.0</ele><time>2026-04-25T10:44:58Z</time></trkpt><trkpt lat="44.842940186090885" lon="12.112244451970014"><ele>-0.9999999999999999</ele><time>2026-04-25T10:45:02Z</time></trkpt><trkpt lat="44.842859941460155" lon="12.112246518958182"><ele>-1.0</ele><time>2026-04-25T10:45:05Z</time></trkpt><trkpt lat="44.84279124686701" lon="12.112254548356322"><ele>-1.0</ele><time>2026-04-25T10:45:08Z</time></trkpt><trkpt lat="44.84271115487083" lon="12.112275869760376"><ele>-1.0</ele><time>2026-04-25T10:45:12Z</time></trkpt><trkpt lat="44.84264003081748" lon="12.112310466242253"><ele>-0.9999999999999999</ele><time>2026-04-25T10:45:15Z</time></trkpt><trkpt lat="44.842566205804566" lon="12.112369050785102"><ele>-1.0</ele><time>2026-04-25T10:45:18Z</time></trkpt><trkpt lat="44.84251666358792" lon="12.11242962022654"><ele>-1.0</ele><time>2026-04-25T10:45:20Z</time></trkpt><trkpt lat="44.842467124102626" lon="12.112500038083436"><ele>-0.9999999999999999</ele><time>2026-04-25T10:45:22Z</time></trkpt><trkpt lat="44.842427109555466" lon="12.112588654028698"><ele>-1.0</ele><time>2026-04-25T10:45:24Z</time></trkpt><trkpt lat="44.84239547324134" lon="12.11266772942914"><ele>-1.0</ele><time>2026-04-25T10:45:26Z</time></trkpt><trkpt lat="44.84235533948972" lon="12.112773466065532"><ele>-1.2857142857142856</ele><time>2026-04-25T10:45:29Z</time></trkpt><trkpt lat="44.842320089459925" lon="12.112871423911288"><ele>-1.5714285714285712</ele><time>2026-04-25T10:45:31Z</time></trkpt><trkpt lat="44.84228487485024" lon="12.112964698404319"><ele>-1.857142857142857</ele><time>2026-04-25T10:45:33Z</time></trkpt><trkpt lat="44.842243922847366" lon="12.11304203069864"><ele>-2.142857142857143</ele><time>2026-04-25T10:45:35Z</time></trkpt><trkpt lat="44.84219832546072" lon="12.113106020160968"><ele>-2.4285714285714284</ele><time>2026-04-25T10:45:37Z</time></trkpt><trkpt lat="44.84214265146016" lon="12.113167141001771"><ele>-2.714285714285714</ele><time>2026-04-25T10:45:39Z</time></trkpt><trkpt lat="44.842077904628155" lon="12.113215336236852"><ele>-3.0</ele><time>2026-04-25T10:45:41Z</time></trkpt><trkpt lat="44.842013377394714" lon="12.113265732745303"><ele>-2.9999999999999996</ele><time>2026-04-25T10:45:43Z</time></trkpt><trkpt lat="44.84194482659033" lon="12.113311006614465"><ele>-3.0</ele><time>2026-04-25T10:45:45Z</time></trkpt><trkpt lat="44.84186623339521" lon="12.11336403554883"><ele>-3.0</ele><time>2026-04-25T10:45:47Z</time></trkpt><trkpt lat="44.84179951274937" lon="12.113408612619608"><ele>-3.0</ele><time>2026-04-25T10:45:49Z</time></trkpt><trkpt lat="44.841734701555296" lon="12.113448560558897"><ele>-3.0</ele><time>2026-04-25T10:45:51Z</time></trkpt><trkpt lat="44.84166913765037" lon="12.113500156096693"><ele>-2.9999999999999996</ele><time>2026-04-25T10:45:53Z</time></trkpt><trkpt lat="44.84160810027297" lon="12.113538113750447"><ele>-3.0</ele><time>2026-04-25T10:45:55Z</time></trkpt><trkpt lat="44.8415401848775" lon="12.113590216637508"><ele>-3.1666666666666665</ele><time>2026-04-25T10:45:57Z</time></trkpt><trkpt lat="44.84146900399098" lon="12.113639169637466"><ele>-3.333333333333333</ele><time>2026-04-25T10:45:59Z</time></trkpt><trkpt lat="44.84139006849435" lon="12.113693943671935"><ele>-3.5</ele><time>2026-04-25T10:46:01Z</time></trkpt><trkpt lat="44.84131566755216" lon="12.113746324210014"><ele>-3.6666666666666665</ele><time>2026-04-25T10:46:03Z</time></trkpt><trkpt lat="44.8412477153055" lon="12.113792653573483"><ele>-3.833333333333333</ele><time>2026-04-25T10:46:05Z</time></trkpt><trkpt lat="44.84118309235563" lon="12.113835320517257"><ele>-4.0</ele><time>2026-04-25T10:46:06.999Z</time></trkpt><trkpt lat="44.84112001448352" lon="12.113879923627781"><ele>-3.9999999999999996</ele><time>2026-04-25T10:46:08.999Z</time></trkpt><trkpt lat="44.8410496140795" lon="12.113930168209476"><ele>-4.0</ele><time>2026-04-25T10:46:10.999Z</time></trkpt><trkpt lat="44.84098237997242" lon="12.113987126881826"><ele>-4.0</ele><time>2026-04-25T10:46:12.999Z</time></trkpt><trkpt lat="44.84093263808282" lon="12.114053288823245"><ele>-4.0</ele><time>2026-04-25T10:46:15Z</time></trkpt><trkpt lat="44.84088402914989" lon="12.114123229817972"><ele>-3.9999999999999996</ele><time>2026-04-25T10:46:17Z</time></trkpt><trkpt lat="44.8408145149692" lon="12.114196607467683"><ele>-4.0</ele><time>2026-04-25T10:46:19Z</time></trkpt><trkpt lat="44.840751711950844" lon="12.114282839504552"><ele>-3.6666666666666665</ele><time>2026-04-25T10:46:21Z</time></trkpt><trkpt lat="44.84068738190266" lon="12.114366130187012"><ele>-3.333333333333333</ele><time>2026-04-25T10:46:23Z</time></trkpt><trkpt lat="44.84062575002093" lon="12.11446040039485"><ele>-3.0</ele><time>2026-04-25T10:46:25Z</time></trkpt><trkpt lat="44.84056736431211" lon="12.11455448614267"><ele>-2.6666666666666665</ele><time>2026-04-25T10:46:27Z</time></trkpt><trkpt lat="44.840507004801665" lon="12.114648057542238"><ele>-2.333333333333333</ele><time>2026-04-25T10:46:29Z</time></trkpt><trkpt lat="44.84044062281502" lon="12.114735539723338"><ele>-2.0</ele><time>2026-04-25T10:46:31Z</time></trkpt><trkpt lat="44.84037472076929" lon="12.114823360064921"><ele>-1.9999999999999998</ele><time>2026-04-25T10:46:33Z</time></trkpt><trkpt lat="44.840300290069344" lon="12.114894386613933"><ele>-2.0</ele><time>2026-04-25T10:46:35Z</time></trkpt><trkpt lat="44.840229342906035" lon="12.114962791554449"><ele>-2.0</ele><time>2026-04-25T10:46:37Z</time></trkpt><trkpt lat="44.84015652062559" lon="12.115025378470074"><ele>-2.0</ele><time>2026-04-25T10:46:39Z</time></trkpt><trkpt lat="44.840084550221086" lon="12.115085138053464"><ele>-1.9999999999999998</ele><time>2026-04-25T10:46:41Z</time></trkpt><trkpt lat="44.84000993646329" lon="12.115135662939057"><ele>-2.0</ele><time>2026-04-25T10:46:43Z</time></trkpt><trkpt lat="44.83992734138648" lon="12.115173275227864"><ele>-2.333333333333333</ele><time>2026-04-25T10:46:45Z</time></trkpt><trkpt lat="44.839852194423656" lon="12.115210467679919"><ele>-2.6666666666666665</ele><time>2026-04-25T10:46:47Z</time></trkpt><trkpt lat="44.83976992004327" lon="12.115242866582076"><ele>-3.0</ele><time>2026-04-25T10:46:49Z</time></trkpt><trkpt lat="44.839690733209714" lon="12.11528517991508"><ele>-3.333333333333333</ele><time>2026-04-25T10:46:51Z</time></trkpt><trkpt lat="44.83961387944716" lon="12.115327699865238"><ele>-3.6666666666666665</ele><time>2026-04-25T10:46:53Z</time></trkpt><trkpt lat="44.839538310167" lon="12.11537816091556"><ele>-4.0</ele><time>2026-04-25T10:46:55Z</time></trkpt><trkpt lat="44.83946342752484" lon="12.11543302386729"><ele>-3.9999999999999996</ele><time>2026-04-25T10:46:57Z</time></trkpt><trkpt lat="44.839384478316205" lon="12.11548756172762"><ele>-4.0</ele><time>2026-04-25T10:46:59Z</time></trkpt><trkpt lat="44.839310664907764" lon="12.115548002608302"><ele>-4.0</ele><time>2026-04-25T10:47:01Z</time></trkpt><trkpt lat="44.839232660469456" lon="12.115611019532839"><ele>-4.0</ele><time>2026-04-25T10:47:03Z</time></trkpt><trkpt lat="44.83915526235587" lon="12.11566831347271"><ele>-3.9999999999999996</ele><time>2026-04-25T10:47:05Z</time></trkpt><trkpt lat="44.83907507676418" lon="12.115731822018198"><ele>-4.0</ele><time>2026-04-25T10:47:07Z</time></trkpt><trkpt lat="44.8389982268259" lon="12.11579638410056"><ele>-3.9999999999999996</ele><time>2026-04-25T10:47:09Z</time></trkpt><trkpt lat="44.83892155268838" lon="12.11585390145679"><ele>-4.0</ele><time>2026-04-25T10:47:11Z</time></trkpt><trkpt lat="44.83884362451077" lon="12.115921446647022"><ele>-4.0</ele><time>2026-04-25T10:47:13Z</time></trkpt><trkpt lat="44.838767662757704" lon="12.115978580752891"><ele>-4.0</ele><time>2026-04-25T10:47:15Z</time></trkpt><trkpt lat="44.83869185722307" lon="12.116039970457491"><ele>-3.9999999999999996</ele><time>2026-04-25T10:47:17Z</time></trkpt><trkpt lat="44.83861395389498" lon="12.116099754025615"><ele>-4.0</ele><time>2026-04-25T10:47:19Z</time></trkpt><trkpt lat="44.838543934142926" lon="12.116167393041408"><ele>-3.9999999999999996</ele><time>2026-04-25T10:47:21Z</time></trkpt><trkpt lat="44.838482723142555" lon="12.116229796077294"><ele>-4.0</ele><time>2026-04-25T10:47:23Z</time></trkpt><trkpt lat="44.8384236463094" lon="12.116285063321527"><ele>-4.0</ele><time>2026-04-25T10:47:25Z</time></trkpt><trkpt lat="44.838355462432666" lon="12.11636065441375"><ele>-4.0</ele><time>2026-04-25T10:47:27Z</time></trkpt><trkpt lat="44.83828596646827" lon="12.116432754557803"><ele>-3.9999999999999996</ele><time>2026-04-25T10:47:29Z</time></trkpt><trkpt lat="44.83822484834274" lon="12.116507022736931"><ele>-4.0</ele><time>2026-04-25T10:47:31Z</time></trkpt><trkpt lat="44.83816858147151" lon="12.116571834920254"><ele>-4.166666666666666</ele><time>2026-04-25T10:47:33Z</time></trkpt><trkpt lat="44.8381084254179" lon="12.116644022843008"><ele>-4.333333333333333</ele><time>2026-04-25T10:47:35Z</time></trkpt><trkpt lat="44.83804472807498" lon="12.116719544752193"><ele>-4.5</ele><time>2026-04-25T10:47:37Z</time></trkpt><trkpt lat="44.83798583284182" lon="12.116788665509677"><ele>-4.666666666666667</ele><time>2026-04-25T10:47:39Z</time></trkpt><trkpt lat="44.83792376256407" lon="12.116851016973397"><ele>-4.833333333333334</ele><time>2026-04-25T10:47:41Z</time></trkpt><trkpt lat="44.837853869292516" lon="12.116918294466084"><ele>-5.0</ele><time>2026-04-25T10:47:43Z</time></trkpt><trkpt lat="44.83778085868837" lon="12.116996388192916"><ele>-5.0</ele><time>2026-04-25T10:47:45Z</time></trkpt><trkpt lat="44.8377039000825" lon="12.117061234894951"><ele>-5.0</ele><time>2026-04-25T10:47:47Z</time></trkpt><trkpt lat="44.83763112304191" lon="12.117113993725289"><ele>-5.0</ele><time>2026-04-25T10:47:49Z</time></trkpt><trkpt lat="44.83756287975825" lon="12.117171698013015"><ele>-5.0</ele><time>2026-04-25T10:47:51Z</time></trkpt><trkpt lat="44.83749577262122" lon="12.117207562180978"><ele>-5.0</ele><time>2026-04-25T10:47:53Z</time></trkpt><trkpt lat="44.83743542865391" lon="12.117259192240596"><ele>-5.0</ele><time>2026-04-25T10:47:55Z</time></trkpt><trkpt lat="44.83736722656889" lon="12.11730147962292"><ele>-5.0</ele><time>2026-04-25T10:47:57Z</time></trkpt><trkpt lat="44.83729678159856" lon="12.117349601202472"><ele>-5.0</ele><time>2026-04-25T10:47:59Z</time></trkpt><trkpt lat="44.83720991996846" lon="12.11740873010911"><ele>-5.0</ele><time>2026-04-25T10:48:01Z</time></trkpt><trkpt lat="44.837123598624714" lon="12.117459757809868"><ele>-5.0</ele><time>2026-04-25T10:48:03Z</time></trkpt><trkpt lat="44.83704038687329" lon="12.117503793867604"><ele>-5.0</ele><time>2026-04-25T10:48:05Z</time></trkpt><trkpt lat="44.83695839128258" lon="12.117532863182882"><ele>-5.0</ele><time>2026-04-25T10:48:07Z</time></trkpt><trkpt lat="44.8368829790813" lon="12.117546800369816"><ele>-4.666666666666667</ele><time>2026-04-25T10:48:09Z</time></trkpt><trkpt lat="44.836800914183286" lon="12.117551433442062"><ele>-4.333333333333334</ele><time>2026-04-25T10:48:11Z</time></trkpt><trkpt lat="44.83671221414107" lon="12.11754304383803"><ele>-4.0</ele><time>2026-04-25T10:48:13Z</time></trkpt><trkpt lat="44.83662352947275" lon="12.117540567784626"><ele>-3.666666666666667</ele><time>2026-04-25T10:48:15Z</time></trkpt><trkpt lat="44.836537379592066" lon="12.117521899405638"><ele>-3.3333333333333335</ele><time>2026-04-25T10:48:17Z</time></trkpt><trkpt lat="44.836451710875394" lon="12.117515203205144"><ele>-3.0</ele><time>2026-04-25T10:48:19Z</time></trkpt><trkpt lat="44.83636369041576" lon="12.117500341378749"><ele>-3.0</ele><time>2026-04-25T10:48:21Z</time></trkpt><trkpt lat="44.83627417541397" lon="12.117486485510938"><ele>-3.0</ele><time>2026-04-25T10:48:23Z</time></trkpt><trkpt lat="44.83618222070524" lon="12.117470804805263"><ele>-3.0</ele><time>2026-04-25T10:48:25Z</time></trkpt><trkpt lat="44.83609024735464" lon="12.117454418710812"><ele>-3.0</ele><time>2026-04-25T10:48:27Z</time></trkpt><trkpt lat="44.83595634368382" lon="12.117412874644506"><ele>-3.0</ele><time>2026-04-25T10:48:30Z</time></trkpt><trkpt lat="44.835866558289176" lon="12.117377473758674"><ele>-2.6666666666666665</ele><time>2026-04-25T10:48:32Z</time></trkpt><trkpt lat="44.83578107815096" lon="12.117340075991201"><ele>-2.3333333333333335</ele><time>2026-04-25T10:48:34Z</time></trkpt><trkpt lat="44.83569592717658" lon="12.117298933365461"><ele>-2.0</ele><time>2026-04-25T10:48:36Z</time></trkpt><trkpt lat="44.83561146142916" lon="12.117261086230503"><ele>-1.6666666666666665</ele><time>2026-04-25T10:48:38Z</time></trkpt><trkpt lat="44.835522244087976" lon="12.117225713935042"><ele>-1.3333333333333333</ele><time>2026-04-25T10:48:40Z</time></trkpt><trkpt lat="44.835441856819294" lon="12.117214211749168"><ele>-1.0</ele><time>2026-04-25T10:48:42Z</time></trkpt><trkpt lat="44.835351340625" lon="12.117200236187827"><ele>-1.0</ele><time>2026-04-25T10:48:44Z</time></trkpt><trkpt lat="44.83525680507276" lon="12.117197300180877"><ele>-1.0</ele><time>2026-04-25T10:48:46Z</time></trkpt><trkpt lat="44.835165596230894" lon="12.117209258400257"><ele>-1.0</ele><time>2026-04-25T10:48:48Z</time></trkpt><trkpt lat="44.835075566500144" lon="12.117213531975796"><ele>-1.0</ele><time>2026-04-25T10:48:50Z</time></trkpt><trkpt lat="44.83498350562862" lon="12.117226028767156"><ele>-1.0</ele><time>2026-04-25T10:48:52Z</time></trkpt><trkpt lat="44.83489488957707" lon="12.117240107615274"><ele>-1.2000000000000002</ele><time>2026-04-25T10:48:54Z</time></trkpt><trkpt lat="44.8348072609972" lon="12.117256855332327"><ele>-1.4000000000000001</ele><time>2026-04-25T10:48:56Z</time></trkpt><trkpt lat="44.834717276178196" lon="12.117265700973675"><ele>-1.6</ele><time>2026-04-25T10:48:58Z</time></trkpt><trkpt lat="44.83462155513685" lon="12.11728121886645"><ele>-1.8</ele><time>2026-04-25T10:49:00Z</time></trkpt><trkpt lat="44.83452918210304" lon="12.117299784727406"><ele>-2.0</ele><time>2026-04-25T10:49:02Z</time></trkpt><trkpt lat="44.834437870492934" lon="12.117319373034336"><ele>-2.0</ele><time>2026-04-25T10:49:04Z</time></trkpt><trkpt lat="44.83434709503321" lon="12.117343567844562"><ele>-2.0</ele><time>2026-04-25T10:49:06Z</time></trkpt><trkpt lat="44.83425328183649" lon="12.117356328766654"><ele>-2.0</ele><time>2026-04-25T10:49:08Z</time></trkpt><trkpt lat="44.83416256704429" lon="12.117362379165806"><ele>-2.0</ele><time>2026-04-25T10:49:10Z</time></trkpt><trkpt lat="44.83407195390089" lon="12.117375355098337"><ele>-2.0</ele><time>2026-04-25T10:49:12Z</time></trkpt><trkpt lat="44.83398113480966" lon="12.117388357046082"><ele>-1.8333333333333333</ele><time>2026-04-25T10:49:14Z</time></trkpt><trkpt lat="44.833896430583366" lon="12.117408084191334"><ele>-1.6666666666666665</ele><time>2026-04-25T10:49:16Z</time></trkpt><trkpt lat="44.833812340462664" lon="12.117420143162848"><ele>-1.5</ele><time>2026-04-25T10:49:18Z</time></trkpt><trkpt lat="44.8337177330572" lon="12.117427899156318"><ele>-1.3333333333333333</ele><time>2026-04-25T10:49:20Z</time></trkpt><trkpt lat="44.833626330416365" lon="12.117449406659247"><ele>-1.1666666666666665</ele><time>2026-04-25T10:49:22Z</time></trkpt><trkpt lat="44.83353596050089" lon="12.117468106597569"><ele>-1.0</ele><time>2026-04-25T10:49:24Z</time></trkpt><trkpt lat="44.83344128654451" lon="12.117488675261127"><ele>-0.9999999999999999</ele><time>2026-04-25T10:49:26Z</time></trkpt><trkpt lat="44.833346815385816" lon="12.11750224313417"><ele>-1.0</ele><time>2026-04-25T10:49:28Z</time></trkpt><trkpt lat="44.83325440050217" lon="12.117523886196343"><ele>-1.0</ele><time>2026-04-25T10:49:30Z</time></trkpt><trkpt lat="44.833166660200725" lon="12.117557738557599"><ele>-1.0</ele><time>2026-04-25T10:49:32Z</time></trkpt><trkpt lat="44.83307870069868" lon="12.117574249952265"><ele>-0.9999999999999999</ele><time>2026-04-25T10:49:34Z</time></trkpt><trkpt lat="44.83301000644569" lon="12.117590882901272"><ele>-1.0</ele><time>2026-04-25T10:49:36Z</time></trkpt><trkpt lat="44.83295854161592" lon="12.117671427741245"><ele>-1.0</ele><time>2026-04-25T10:49:40Z</time></trkpt><trkpt lat="44.8329906034508" lon="12.11778091576811"><ele>-1.0</ele><time>2026-04-25T10:49:42Z</time></trkpt><trkpt lat="44.83301056501101" lon="12.11790613222972"><ele>-1.0</ele><time>2026-04-25T10:49:44Z</time></trkpt><trkpt lat="44.833031648036346" lon="12.11803506129439"><ele>-1.0</ele><time>2026-04-25T10:49:46Z</time></trkpt><trkpt lat="44.83304649758452" lon="12.118157612322992"><ele>-1.0</ele><time>2026-04-25T10:49:48Z</time></trkpt><trkpt lat="44.833067519612406" lon="12.11828944752891"><ele>-1.2000000000000002</ele><time>2026-04-25T10:49:50Z</time></trkpt><trkpt lat="44.83308900553478" lon="12.118417673042261"><ele>-1.4000000000000001</ele><time>2026-04-25T10:49:52Z</time></trkpt><trkpt lat="44.83310712723672" lon="12.118546794120022"><ele>-1.6</ele><time>2026-04-25T10:49:54Z</time></trkpt><trkpt lat="44.833124308033035" lon="12.118680593776602"><ele>-1.8</ele><time>2026-04-25T10:49:56Z</time></trkpt><trkpt lat="44.8331446545303" lon="12.11880809706667"><ele>-2.0</ele><time>2026-04-25T10:49:58Z</time></trkpt><trkpt lat="44.83316343448076" lon="12.118939072394818"><ele>-1.9999999999999998</ele><time>2026-04-25T10:50:00Z</time></trkpt><trkpt lat="44.83318277294634" lon="12.119067229888218"><ele>-2.0</ele><time>2026-04-25T10:50:02Z</time></trkpt><trkpt lat="44.83320109851943" lon="12.11918271535327"><ele>-2.0</ele><time>2026-04-25T10:50:04Z</time></trkpt><trkpt lat="44.83322019919092" lon="12.119297206521754"><ele>-2.0</ele><time>2026-04-25T10:50:06Z</time></trkpt><trkpt lat="44.83324191685156" lon="12.119407902015276"><ele>-1.9999999999999998</ele><time>2026-04-25T10:50:08Z</time></trkpt><trkpt lat="44.83325524799505" lon="12.119533013387885"><ele>-2.0</ele><time>2026-04-25T10:50:10Z</time></trkpt><trkpt lat="44.8332709376795" lon="12.119649535213908"><ele>-1.9999999999999998</ele><time>2026-04-25T10:50:12Z</time></trkpt><trkpt lat="44.833292298684256" lon="12.11977149699754"><ele>-2.0</ele><time>2026-04-25T10:50:14Z</time></trkpt><trkpt lat="44.8333083193938" lon="12.11988047733849"><ele>-2.0</ele><time>2026-04-25T10:50:16Z</time></trkpt><trkpt lat="44.83332550661441" lon="12.119984292237463"><ele>-2.0</ele><time>2026-04-25T10:50:18Z</time></trkpt><trkpt lat="44.83334136340071" lon="12.120078959528248"><ele>-1.9999999999999998</ele><time>2026-04-25T10:50:20Z</time></trkpt><trkpt lat="44.83335630993854" lon="12.120179158701722"><ele>-2.0</ele><time>2026-04-25T10:50:22Z</time></trkpt><trkpt lat="44.833368815272266" lon="12.120278166949603"><ele>-1.8333333333333333</ele><time>2026-04-25T10:50:24Z</time></trkpt><trkpt lat="44.83338690546682" lon="12.120375493780909"><ele>-1.6666666666666665</ele><time>2026-04-25T10:50:26Z</time></trkpt><trkpt lat="44.833403047550846" lon="12.12049417021638"><ele>-1.5</ele><time>2026-04-25T10:50:28Z</time></trkpt><trkpt lat="44.83341916592062" lon="12.12059975488709"><ele>-1.3333333333333333</ele><time>2026-04-25T10:50:30Z</time></trkpt><trkpt lat="44.833430923011534" lon="12.120706870912173"><ele>-1.1666666666666665</ele><time>2026-04-25T10:50:32Z</time></trkpt><trkpt lat="44.8334470802575" lon="12.120814468461857"><ele>-1.0</ele><time>2026-04-25T10:50:34Z</time></trkpt><trkpt lat="44.83346752086075" lon="12.120940008717033"><ele>-1.1666666666666665</ele><time>2026-04-25T10:50:36Z</time></trkpt><trkpt lat="44.833485550757615" lon="12.121068024756713"><ele>-1.3333333333333333</ele><time>2026-04-25T10:50:38Z</time></trkpt><trkpt lat="44.83349925199718" lon="12.12118628264773"><ele>-1.5</ele><time>2026-04-25T10:50:40Z</time></trkpt><trkpt lat="44.83352032505514" lon="12.121306642845033"><ele>-1.6666666666666665</ele><time>2026-04-25T10:50:42Z</time></trkpt><trkpt lat="44.8335369578853" lon="12.121418904126635"><ele>-1.8333333333333333</ele><time>2026-04-25T10:50:44Z</time></trkpt><trkpt lat="44.833551627647296" lon="12.121524394656406"><ele>-2.0</ele><time>2026-04-25T10:50:46Z</time></trkpt><trkpt lat="44.833572454311394" lon="12.121625841465104"><ele>-2.1666666666666665</ele><time>2026-04-25T10:50:48Z</time></trkpt><trkpt lat="44.83358793840533" lon="12.121728494563428"><ele>-2.333333333333333</ele><time>2026-04-25T10:50:50Z</time></trkpt><trkpt lat="44.83360170834711" lon="12.121843242120445"><ele>-2.5</ele><time>2026-04-25T10:50:52Z</time></trkpt><trkpt lat="44.83363052364229" lon="12.121956380156636"><ele>-2.6666666666666665</ele><time>2026-04-25T10:50:54Z</time></trkpt><trkpt lat="44.83365308648366" lon="12.122073234479599"><ele>-2.8333333333333335</ele><time>2026-04-25T10:50:56Z</time></trkpt><trkpt lat="44.833689230499935" lon="12.122181979492892"><ele>-3.0</ele><time>2026-04-25T10:50:58Z</time></trkpt><trkpt lat="44.83372976828733" lon="12.122287060914388"><ele>-3.0</ele><time>2026-04-25T10:51:00Z</time></trkpt><trkpt lat="44.83376943751538" lon="12.122387994429156"><ele>-3.0</ele><time>2026-04-25T10:51:02Z</time></trkpt><trkpt lat="44.83382291786953" lon="12.122486930958031"><ele>-3.0</ele><time>2026-04-25T10:51:04Z</time></trkpt><trkpt lat="44.8338784803569" lon="12.122593572900943"><ele>-3.0</ele><time>2026-04-25T10:51:06Z</time></trkpt><trkpt lat="44.83394699374893" lon="12.122673060884017"><ele>-3.0</ele><time>2026-04-25T10:51:08Z</time></trkpt><trkpt lat="44.834006573791726" lon="12.122744710948858"><ele>-3.0</ele><time>2026-04-25T10:51:10Z</time></trkpt><trkpt lat="44.834056583760635" lon="12.122812644812154"><ele>-3.0</ele><time>2026-04-25T10:51:12Z</time></trkpt><trkpt lat="44.834106842253654" lon="12.122890999572823"><ele>-3.0</ele><time>2026-04-25T10:51:14Z</time></trkpt><trkpt lat="44.83415936344673" lon="12.122962716041023"><ele>-3.0</ele><time>2026-04-25T10:51:16Z</time></trkpt><trkpt lat="44.83422735852633" lon="12.123036405379246"><ele>-3.0</ele><time>2026-04-25T10:51:18Z</time></trkpt><trkpt lat="44.834295052190626" lon="12.123113777726486"><ele>-3.0</ele><time>2026-04-25T10:51:20Z</time></trkpt><trkpt lat="44.83435862934483" lon="12.12318840976594"><ele>-3.0</ele><time>2026-04-25T10:51:22Z</time></trkpt><trkpt lat="44.83441852559028" lon="12.123257678820249"><ele>-3.0</ele><time>2026-04-25T10:51:24Z</time></trkpt><trkpt lat="44.83447473741557" lon="12.123335322049115"><ele>-3.0</ele><time>2026-04-25T10:51:26Z</time></trkpt><trkpt lat="44.834547629183774" lon="12.123409304252425"><ele>-3.0</ele><time>2026-04-25T10:51:28Z</time></trkpt><trkpt lat="44.83461775536165" lon="12.123491309655897"><ele>-3.0</ele><time>2026-04-25T10:51:30Z</time></trkpt><trkpt lat="44.83467982721063" lon="12.123569102973885"><ele>-3.0</ele><time>2026-04-25T10:51:32Z</time></trkpt><trkpt lat="44.83474959114521" lon="12.123645380437592"><ele>-3.0</ele><time>2026-04-25T10:51:34Z</time></trkpt><trkpt lat="44.83481931525693" lon="12.123722629368878"><ele>-3.0</ele><time>2026-04-25T10:51:36Z</time></trkpt><trkpt lat="44.834886310183045" lon="12.123804739594895"><ele>-3.0</ele><time>2026-04-25T10:51:38Z</time></trkpt><trkpt lat="44.834958131109346" lon="12.12388179269789"><ele>-3.0</ele><time>2026-04-25T10:51:40Z</time></trkpt><trkpt lat="44.83502138321008" lon="12.123956705827544"><ele>-3.0</ele><time>2026-04-25T10:51:42Z</time></trkpt><trkpt lat="44.83507911588134" lon="12.12402655610308"><ele>-3.0</ele><time>2026-04-25T10:51:44Z</time></trkpt><trkpt lat="44.835137538770226" lon="12.124094809501276"><ele>-3.0</ele><time>2026-04-25T10:51:46Z</time></trkpt><trkpt lat="44.83519725468988" lon="12.124160801497995"><ele>-2.8333333333333335</ele><time>2026-04-25T10:51:48Z</time></trkpt><trkpt lat="44.83525714831387" lon="12.124232352243496"><ele>-2.6666666666666665</ele><time>2026-04-25T10:51:50Z</time></trkpt><trkpt lat="44.835324911187044" lon="12.124317971928127"><ele>-2.5</ele><time>2026-04-25T10:51:52Z</time></trkpt><trkpt lat="44.83538408104917" lon="12.124380917989134"><ele>-2.333333333333333</ele><time>2026-04-25T10:51:54Z</time></trkpt><trkpt lat="44.83544331179481" lon="12.124452059969723"><ele>-2.1666666666666665</ele><time>2026-04-25T10:51:56Z</time></trkpt><trkpt lat="44.83549926968712" lon="12.124521794235731"><ele>-2.0</ele><time>2026-04-25T10:51:58Z</time></trkpt><trkpt lat="44.83555956349488" lon="12.124598680571706"><ele>-1.9999999999999998</ele><time>2026-04-25T10:52:00Z</time></trkpt><trkpt lat="44.83561473583229" lon="12.124675200909634"><ele>-2.0</ele><time>2026-04-25T10:52:02Z</time></trkpt><trkpt lat="44.835662633687065" lon="12.124757108664731"><ele>-2.0</ele><time>2026-04-25T10:52:04Z</time></trkpt><trkpt lat="44.8357149252178" lon="12.124840901674895"><ele>-2.0</ele><time>2026-04-25T10:52:06Z</time></trkpt><trkpt lat="44.835770579363796" lon="12.124943666060492"><ele>-1.9999999999999998</ele><time>2026-04-25T10:52:08Z</time></trkpt><trkpt lat="44.835833294117606" lon="12.125031527132222"><ele>-2.0</ele><time>2026-04-25T10:52:10Z</time></trkpt><trkpt lat="44.83590015926233" lon="12.125115595155481"><ele>-1.9999999999999998</ele><time>2026-04-25T10:52:12Z</time></trkpt><trkpt lat="44.83596487509516" lon="12.125191859514416"><ele>-2.0</ele><time>2026-04-25T10:52:14Z</time></trkpt><trkpt lat="44.8360203774522" lon="12.125265073488919"><ele>-2.0</ele><time>2026-04-25T10:52:16Z</time></trkpt><trkpt lat="44.836078512336236" lon="12.125325553355385"><ele>-2.0</ele><time>2026-04-25T10:52:18Z</time></trkpt><trkpt lat="44.836135777509604" lon="12.125375370866083"><ele>-1.9999999999999998</ele><time>2026-04-25T10:52:20Z</time></trkpt><trkpt lat="44.83620313613709" lon="12.125469705366152"><ele>-2.0</ele><time>2026-04-25T10:52:23Z</time></trkpt><trkpt lat="44.83627711504889" lon="12.12550488848267"><ele>-1.9999999999999998</ele><time>2026-04-25T10:52:26Z</time></trkpt><trkpt lat="44.83631559874486" lon="12.12559367334612"><ele>-2.0</ele><time>2026-04-25T10:52:28Z</time></trkpt><trkpt lat="44.83637029107709" lon="12.125672382119966"><ele>-2.0</ele><time>2026-04-25T10:52:30Z</time></trkpt><trkpt lat="44.836427150566244" lon="12.12573225211115"><ele>-2.0</ele><time>2026-04-25T10:52:32Z</time></trkpt><trkpt lat="44.83649576036719" lon="12.125796979484825"><ele>-1.9999999999999998</ele><time>2026-04-25T10:52:34Z</time></trkpt><trkpt lat="44.836561689886274" lon="12.1258702661784"><ele>-2.0</ele><time>2026-04-25T10:52:36Z</time></trkpt><trkpt lat="44.83662257568517" lon="12.12593939962558"><ele>-1.9999999999999998</ele><time>2026-04-25T10:52:38Z</time></trkpt><trkpt lat="44.83668545598767" lon="12.12599874590574"><ele>-2.0</ele><time>2026-04-25T10:52:40Z</time></trkpt><trkpt lat="44.83674479108167" lon="12.126054662418204"><ele>-2.0</ele><time>2026-04-25T10:52:42Z</time></trkpt><trkpt lat="44.83680869104604" lon="12.126117273335167"><ele>-2.0</ele><time>2026-04-25T10:52:44Z</time></trkpt><trkpt lat="44.83687617917352" lon="12.126180233094539"><ele>-1.9999999999999998</ele><time>2026-04-25T10:52:46Z</time></trkpt><trkpt lat="44.83694660976476" lon="12.126234630183205"><ele>-2.0</ele><time>2026-04-25T10:52:48Z</time></trkpt><trkpt lat="44.83697635321506" lon="12.126327893636844"><ele>-1.8333333333333333</ele><time>2026-04-25T10:52:50Z</time></trkpt><trkpt lat="44.8369366914286" lon="12.12644031930497"><ele>-1.6666666666666665</ele><time>2026-04-25T10:52:52Z</time></trkpt><trkpt lat="44.836898733096575" lon="12.126550927225082"><ele>-1.5</ele><time>2026-04-25T10:52:54Z</time></trkpt><trkpt lat="44.83686216458275" lon="12.126672698502542"><ele>-1.3333333333333333</ele><time>2026-04-25T10:52:56Z</time></trkpt><trkpt lat="44.83682614854554" lon="12.126789680046336"><ele>-1.1666666666666665</ele><time>2026-04-25T10:52:58Z</time></trkpt><trkpt lat="44.83678541394726" lon="12.126894039315223"><ele>-1.0</ele><time>2026-04-25T10:53:00Z</time></trkpt><trkpt lat="44.83675273653301" lon="12.12700733001983"><ele>-1.6</ele><time>2026-04-25T10:53:02Z</time></trkpt><trkpt lat="44.83671308756917" lon="12.127127097527222"><ele>-2.2</ele><time>2026-04-25T10:53:04Z</time></trkpt><trkpt lat="44.836674593767576" lon="12.127248482383287"><ele>-2.8000000000000003</ele><time>2026-04-25T10:53:06Z</time></trkpt><trkpt lat="44.836635555944625" lon="12.127369219908084"><ele>-3.4000000000000004</ele><time>2026-04-25T10:53:08Z</time></trkpt><trkpt lat="44.83659959539517" lon="12.127493389899852"><ele>-4.0</ele><time>2026-04-25T10:53:10Z</time></trkpt><trkpt lat="44.83656920494614" lon="12.127617869458561"><ele>-4.0</ele><time>2026-04-25T10:53:12Z</time></trkpt><trkpt lat="44.836534431575274" lon="12.127735630730005"><ele>-4.0</ele><time>2026-04-25T10:53:14Z</time></trkpt><trkpt lat="44.836509785910906" lon="12.127858458893934"><ele>-4.0</ele><time>2026-04-25T10:53:16Z</time></trkpt><trkpt lat="44.83648580927495" lon="12.127983786993216"><ele>-4.0</ele><time>2026-04-25T10:53:18Z</time></trkpt><trkpt lat="44.83646437204858" lon="12.12810983077021"><ele>-4.0</ele><time>2026-04-25T10:53:20Z</time></trkpt><trkpt lat="44.836446816307685" lon="12.128230460656283"><ele>-4.0</ele><time>2026-04-25T10:53:22Z</time></trkpt><trkpt lat="44.836431066077374" lon="12.128353914928315"><ele>-4.0</ele><time>2026-04-25T10:53:24Z</time></trkpt><trkpt lat="44.836418266364" lon="12.128480395783354"><ele>-4.0</ele><time>2026-04-25T10:53:26Z</time></trkpt><trkpt lat="44.83640698081483" lon="12.128609395894483"><ele>-4.0</ele><time>2026-04-25T10:53:28Z</time></trkpt><trkpt lat="44.836396188200276" lon="12.128740140990205"><ele>-4.0</ele><time>2026-04-25T10:53:30Z</time></trkpt><trkpt lat="44.83639460771292" lon="12.12886916039422"><ele>-4.0</ele><time>2026-04-25T10:53:32Z</time></trkpt><trkpt lat="44.836381640684344" lon="12.128994730837306"><ele>-4.0</ele><time>2026-04-25T10:53:34Z</time></trkpt><trkpt lat="44.83637428043133" lon="12.129125607755052"><ele>-4.0</ele><time>2026-04-25T10:53:36Z</time></trkpt><trkpt lat="44.836363136505334" lon="12.129253993369694"><ele>-4.0</ele><time>2026-04-25T10:53:38Z</time></trkpt><trkpt lat="44.8363573449436" lon="12.129384608040604"><ele>-4.0</ele><time>2026-04-25T10:53:40Z</time></trkpt><trkpt lat="44.836357381756386" lon="12.129516834004768"><ele>-3.9999999999999996</ele><time>2026-04-25T10:53:42Z</time></trkpt><trkpt lat="44.8363436144184" lon="12.1296478301571"><ele>-4.0</ele><time>2026-04-25T10:53:44Z</time></trkpt><trkpt lat="44.83633953568674" lon="12.129770462062606"><ele>-4.0</ele><time>2026-04-25T10:53:46Z</time></trkpt><trkpt lat="44.83632792911737" lon="12.12988878973675"><ele>-4.0</ele><time>2026-04-25T10:53:48Z</time></trkpt><trkpt lat="44.836324845428386" lon="12.13001315552343"><ele>-3.9999999999999996</ele><time>2026-04-25T10:53:50Z</time></trkpt><trkpt lat="44.836319177148674" lon="12.130142496313331"><ele>-4.0</ele><time>2026-04-25T10:53:52Z</time></trkpt><trkpt lat="44.836308501434665" lon="12.130269877717224"><ele>-3.9999999999999996</ele><time>2026-04-25T10:53:54Z</time></trkpt><trkpt lat="44.836303956710225" lon="12.1303925265833"><ele>-4.0</ele><time>2026-04-25T10:53:56Z</time></trkpt><trkpt lat="44.83630174627746" lon="12.130514333185124"><ele>-4.0</ele><time>2026-04-25T10:53:58Z</time></trkpt><trkpt lat="44.83629383825278" lon="12.130632871049338"><ele>-4.0</ele><time>2026-04-25T10:54:00Z</time></trkpt><trkpt lat="44.83629014414151" lon="12.130744099680214"><ele>-3.9999999999999996</ele><time>2026-04-25T10:54:02Z</time></trkpt><trkpt lat="44.83628484305148" lon="12.130852795608165"><ele>-4.0</ele><time>2026-04-25T10:54:04Z</time></trkpt><trkpt lat="44.83627385490482" lon="12.130956644342229"><ele>-4.4</ele><time>2026-04-25T10:54:06Z</time></trkpt><trkpt lat="44.836272443442446" lon="12.13107953519392"><ele>-4.800000000000001</ele><time>2026-04-25T10:54:08Z</time></trkpt><trkpt lat="44.8362662561013" lon="12.131207182284918"><ele>-5.199999999999999</ele><time>2026-04-25T10:54:10Z</time></trkpt><trkpt lat="44.8362599042187" lon="12.131334094816829"><ele>-5.6</ele><time>2026-04-25T10:54:12Z</time></trkpt><trkpt lat="44.836251169367735" lon="12.131462596145795"><ele>-6.0</ele><time>2026-04-25T10:54:14Z</time></trkpt><trkpt lat="44.83624687910367" lon="12.131592654351495"><ele>-6.0</ele><time>2026-04-25T10:54:16Z</time></trkpt><trkpt lat="44.836239868326665" lon="12.131714430709874"><ele>-6.0</ele><time>2026-04-25T10:54:18Z</time></trkpt><trkpt lat="44.83622883875161" lon="12.131829030948767"><ele>-6.0</ele><time>2026-04-25T10:54:20Z</time></trkpt><trkpt lat="44.836230403438485" lon="12.131953152968066"><ele>-6.0</ele><time>2026-04-25T10:54:22Z</time></trkpt><trkpt lat="44.83622172572321" lon="12.132081346400348"><ele>-6.0</ele><time>2026-04-25T10:54:24Z</time></trkpt><trkpt lat="44.8362159805563" lon="12.132204844877839"><ele>-6.0</ele><time>2026-04-25T10:54:26Z</time></trkpt><trkpt lat="44.83621392732818" lon="12.132321519003604"><ele>-6.166666666666667</ele><time>2026-04-25T10:54:28Z</time></trkpt><trkpt lat="44.83620362305596" lon="12.132432156871207"><ele>-6.333333333333334</ele><time>2026-04-25T10:54:30Z</time></trkpt><trkpt lat="44.83620029154097" lon="12.132538422631828"><ele>-6.5</ele><time>2026-04-25T10:54:32Z</time></trkpt><trkpt lat="44.836193440670435" lon="12.132638685000556"><ele>-6.666666666666667</ele><time>2026-04-25T10:54:34Z</time></trkpt><trkpt lat="44.836189960125985" lon="12.132741251094972"><ele>-6.833333333333334</ele><time>2026-04-25T10:54:36Z</time></trkpt><trkpt lat="44.83618760426514" lon="12.132869188840559"><ele>-7.0</ele><time>2026-04-25T10:54:38Z</time></trkpt><trkpt lat="44.836183180887645" lon="12.132996313882277"><ele>-7.000000000000001</ele><time>2026-04-25T10:54:40Z</time></trkpt><trkpt lat="44.83617675123929" lon="12.133119349746625"><ele>-7.0</ele><time>2026-04-25T10:54:42Z</time></trkpt><trkpt lat="44.83616678270132" lon="12.133238710688758"><ele>-7.0</ele><time>2026-04-25T10:54:44Z</time></trkpt><trkpt lat="44.836165457284416" lon="12.133354199390544"><ele>-7.0</ele><time>2026-04-25T10:54:46Z</time></trkpt><trkpt lat="44.83615855486015" lon="12.133465296662207"><ele>-7.000000000000001</ele><time>2026-04-25T10:54:48Z</time></trkpt><trkpt lat="44.83615221470951" lon="12.133572092730642"><ele>-7.0</ele><time>2026-04-25T10:54:50Z</time></trkpt><trkpt lat="44.83614744653668" lon="12.133680860619224"><ele>-7.000000000000001</ele><time>2026-04-25T10:54:52Z</time></trkpt><trkpt lat="44.8361359968487" lon="12.133797716365617"><ele>-7.0</ele><time>2026-04-25T10:54:54Z</time></trkpt><trkpt lat="44.83613333868236" lon="12.133926661160595"><ele>-7.0</ele><time>2026-04-25T10:54:56Z</time></trkpt><trkpt lat="44.83612556884027" lon="12.134050778203834"><ele>-7.0</ele><time>2026-04-25T10:54:58Z</time></trkpt><trkpt lat="44.83611710698942" lon="12.134170030068738"><ele>-7.000000000000001</ele><time>2026-04-25T10:55:00Z</time></trkpt><trkpt lat="44.83611037428077" lon="12.134283759254282"><ele>-7.0</ele><time>2026-04-25T10:55:02Z</time></trkpt><trkpt lat="44.83610833809429" lon="12.134400484430303"><ele>-6.666666666666667</ele><time>2026-04-25T10:55:04Z</time></trkpt><trkpt lat="44.83609968896182" lon="12.134515122741998"><ele>-6.333333333333334</ele><time>2026-04-25T10:55:06Z</time></trkpt><trkpt lat="44.83609333501703" lon="12.134624213471346"><ele>-6.0</ele><time>2026-04-25T10:55:08Z</time></trkpt><trkpt lat="44.83609367393412" lon="12.134729587587413"><ele>-5.666666666666667</ele><time>2026-04-25T10:55:10Z</time></trkpt><trkpt lat="44.83608138409107" lon="12.13482927847422"><ele>-5.333333333333334</ele><time>2026-04-25T10:55:12Z</time></trkpt><trkpt lat="44.83607540075269" lon="12.134927946284435"><ele>-5.0</ele><time>2026-04-25T10:55:14Z</time></trkpt><trkpt lat="44.83606948906203" lon="12.135048022194722"><ele>-5.0</ele><time>2026-04-25T10:55:16Z</time></trkpt><trkpt lat="44.83606572325955" lon="12.135173268704621"><ele>-5.0</ele><time>2026-04-25T10:55:18Z</time></trkpt><trkpt lat="44.83605580465147" lon="12.135288647499019"><ele>-5.0</ele><time>2026-04-25T10:55:20Z</time></trkpt><trkpt lat="44.83605090148091" lon="12.13540251743692"><ele>-5.0</ele><time>2026-04-25T10:55:22Z</time></trkpt><trkpt lat="44.83604104529091" lon="12.13551720981384"><ele>-5.0</ele><time>2026-04-25T10:55:24Z</time></trkpt><trkpt lat="44.83603837591405" lon="12.135642170438215"><ele>-5.0</ele><time>2026-04-25T10:55:26Z</time></trkpt><trkpt lat="44.83603152789424" lon="12.135766744186336"><ele>-5.166666666666667</ele><time>2026-04-25T10:55:28Z</time></trkpt><trkpt lat="44.83602949022545" lon="12.135883549787268"><ele>-5.333333333333334</ele><time>2026-04-25T10:55:30Z</time></trkpt><trkpt lat="44.836019068866726" lon="12.136001917112766"><ele>-5.5</ele><time>2026-04-25T10:55:32Z</time></trkpt><trkpt lat="44.83601482239965" lon="12.136131400810196"><ele>-5.666666666666667</ele><time>2026-04-25T10:55:34Z</time></trkpt><trkpt lat="44.83601073796683" lon="12.136258667660647"><ele>-5.833333333333333</ele><time>2026-04-25T10:55:36Z</time></trkpt><trkpt lat="44.83600293371084" lon="12.136386386616735"><ele>-6.0</ele><time>2026-04-25T10:55:38Z</time></trkpt><trkpt lat="44.835993764386124" lon="12.136516474368529"><ele>-6.166666666666667</ele><time>2026-04-25T10:55:40Z</time></trkpt><trkpt lat="44.835990251306974" lon="12.136646455088425"><ele>-6.333333333333334</ele><time>2026-04-25T10:55:42Z</time></trkpt><trkpt lat="44.83598128911759" lon="12.136776356759523"><ele>-6.5</ele><time>2026-04-25T10:55:44Z</time></trkpt><trkpt lat="44.83597404244231" lon="12.136903949630435"><ele>-6.666666666666667</ele><time>2026-04-25T10:55:46Z</time></trkpt><trkpt lat="44.83596694872546" lon="12.137024389250023"><ele>-6.833333333333334</ele><time>2026-04-25T10:55:48Z</time></trkpt><trkpt lat="44.83596375634043" lon="12.137141269199574"><ele>-7.0</ele><time>2026-04-25T10:55:50Z</time></trkpt><trkpt lat="44.83596556826766" lon="12.1372516234569"><ele>-6.714285714285714</ele><time>2026-04-25T10:55:52Z</time></trkpt><trkpt lat="44.83595849590939" lon="12.137353052703784"><ele>-6.428571428571429</ele><time>2026-04-25T10:55:54Z</time></trkpt><trkpt lat="44.83594200788503" lon="12.137441322055247"><ele>-6.142857142857142</ele><time>2026-04-25T10:55:56Z</time></trkpt><trkpt lat="44.83591798355915" lon="12.137557754469842"><ele>-5.857142857142858</ele><time>2026-04-25T10:55:59Z</time></trkpt><trkpt lat="44.835907983325534" lon="12.137660444171658"><ele>-5.571428571428571</ele><time>2026-04-25T10:56:01Z</time></trkpt><trkpt lat="44.83590402468502" lon="12.137751733215495"><ele>-5.285714285714286</ele><time>2026-04-25T10:56:03Z</time></trkpt><trkpt lat="44.8358999606866" lon="12.137850191574643"><ele>-5.0</ele><time>2026-04-25T10:56:05Z</time></trkpt><trkpt lat="44.83588696920161" lon="12.13796944243764"><ele>-5.0</ele><time>2026-04-25T10:56:07Z</time></trkpt><trkpt lat="44.83588429434046" lon="12.138091824785597"><ele>-5.0</ele><time>2026-04-25T10:56:09Z</time></trkpt><trkpt lat="44.835885012828484" lon="12.138212737607445"><ele>-5.0</ele><time>2026-04-25T10:56:11Z</time></trkpt><trkpt lat="44.83588329700011" lon="12.138330951674702"><ele>-5.0</ele><time>2026-04-25T10:56:13Z</time></trkpt><trkpt lat="44.835880886652866" lon="12.138457270623615"><ele>-5.0</ele><time>2026-04-25T10:56:15Z</time></trkpt><trkpt lat="44.83587553173578" lon="12.138585066631647"><ele>-5.0</ele><time>2026-04-25T10:56:17Z</time></trkpt><trkpt lat="44.835864038586664" lon="12.13870309436189"><ele>-5.0</ele><time>2026-04-25T10:56:19Z</time></trkpt><trkpt lat="44.835864858181225" lon="12.138827507778815"><ele>-5.0</ele><time>2026-04-25T10:56:21Z</time></trkpt><trkpt lat="44.835867019073135" lon="12.138945732075626"><ele>-5.0</ele><time>2026-04-25T10:56:23Z</time></trkpt><trkpt lat="44.83586219619239" lon="12.139044858172507"><ele>-5.0</ele><time>2026-04-25T10:56:25Z</time></trkpt><trkpt lat="44.83585008630429" lon="12.139150127621212"><ele>-5.0</ele><time>2026-04-25T10:56:28Z</time></trkpt><trkpt lat="44.83584011034195" lon="12.139243307262463"><ele>-5.0</ele><time>2026-04-25T10:56:30Z</time></trkpt><trkpt lat="44.835836014314474" lon="12.139350729468358"><ele>-4.714285714285714</ele><time>2026-04-25T10:56:32Z</time></trkpt><trkpt lat="44.83581488260296" lon="12.139461611383851"><ele>-4.428571428571429</ele><time>2026-04-25T10:56:35Z</time></trkpt><trkpt lat="44.83579048778094" lon="12.139558616955485"><ele>-4.142857142857142</ele><time>2026-04-25T10:56:37Z</time></trkpt><trkpt lat="44.83579299627191" lon="12.139678001701817"><ele>-3.8571428571428568</ele><time>2026-04-25T10:56:39Z</time></trkpt><trkpt lat="44.835786570874184" lon="12.139781930477765"><ele>-3.571428571428571</ele><time>2026-04-25T10:56:41Z</time></trkpt><trkpt lat="44.83578318852076" lon="12.139876876279493"><ele>-3.2857142857142856</ele><time>2026-04-25T10:56:43Z</time></trkpt><trkpt lat="44.835779036461325" lon="12.139969741132186"><ele>-3.0</ele><time>2026-04-25T10:56:45Z</time></trkpt><trkpt lat="44.83577751547183" lon="12.140061737931587"><ele>-2.8</ele><time>2026-04-25T10:56:47Z</time></trkpt><trkpt lat="44.83576851621704" lon="12.140197903410916"><ele>-2.5999999999999996</ele><time>2026-04-25T10:56:50Z</time></trkpt><trkpt lat="44.835765284008914" lon="12.140321567961669"><ele>-2.4000000000000004</ele><time>2026-04-25T10:56:52Z</time></trkpt><trkpt lat="44.83575779511024" lon="12.140448439909123"><ele>-2.2</ele><time>2026-04-25T10:56:54Z</time></trkpt><trkpt lat="44.83575036144115" lon="12.140578212796564"><ele>-2.0</ele><time>2026-04-25T10:56:56Z</time></trkpt><trkpt lat="44.835744646063915" lon="12.140703754753131"><ele>-1.9999999999999998</ele><time>2026-04-25T10:56:58Z</time></trkpt><trkpt lat="44.835736329301646" lon="12.140834300088452"><ele>-2.0</ele><time>2026-04-25T10:57:00Z</time></trkpt><trkpt lat="44.835730939956" lon="12.14095580699303"><ele>-2.0</ele><time>2026-04-25T10:57:02Z</time></trkpt><trkpt lat="44.83572647064105" lon="12.14107318524934"><ele>-2.0</ele><time>2026-04-25T10:57:04Z</time></trkpt><trkpt lat="44.83572034102692" lon="12.141183279485384"><ele>-1.9999999999999998</ele><time>2026-04-25T10:57:06Z</time></trkpt><trkpt lat="44.835713403282995" lon="12.141302432088695"><ele>-2.0</ele><time>2026-04-25T10:57:08Z</time></trkpt><trkpt lat="44.835703299784925" lon="12.141429580527143"><ele>-1.8333333333333333</ele><time>2026-04-25T10:57:10Z</time></trkpt><trkpt lat="44.835695578704716" lon="12.141556226478171"><ele>-1.6666666666666665</ele><time>2026-04-25T10:57:12Z</time></trkpt><trkpt lat="44.835697051678096" lon="12.141688457944833"><ele>-1.5</ele><time>2026-04-25T10:57:14Z</time></trkpt><trkpt lat="44.83569218847417" lon="12.141813456154056"><ele>-1.3333333333333333</ele><time>2026-04-25T10:57:16Z</time></trkpt><trkpt lat="44.83568368693254" lon="12.14193247631284"><ele>-1.1666666666666665</ele><time>2026-04-25T10:57:18Z</time></trkpt><trkpt lat="44.835677403616295" lon="12.142061364888708"><ele>-1.0</ele><time>2026-04-25T10:57:20Z</time></trkpt><trkpt lat="44.83567147432937" lon="12.142181396305814"><ele>-0.9999999999999999</ele><time>2026-04-25T10:57:22Z</time></trkpt><trkpt lat="44.835663778687255" lon="12.142287829627714"><ele>-1.0</ele><time>2026-04-25T10:57:24Z</time></trkpt><trkpt lat="44.83566443466701" lon="12.142402986183386"><ele>-1.0</ele><time>2026-04-25T10:57:27Z</time></trkpt><trkpt lat="44.83567188198618" lon="12.142503826298885"><ele>-1.0</ele><time>2026-04-25T10:57:31Z</time></trkpt><trkpt lat="44.835697858600795" lon="12.142623592301227"><ele>-0.9999999999999999</ele><time>2026-04-25T10:57:34Z</time></trkpt><trkpt lat="44.835706653059354" lon="12.142735345798142"><ele>-1.0</ele><time>2026-04-25T10:57:36Z</time></trkpt><trkpt lat="44.835699324756966" lon="12.142852875257297"><ele>-0.9999999999999999</ele><time>2026-04-25T10:57:38Z</time></trkpt><trkpt lat="44.835700975698934" lon="12.142980917937647"><ele>-1.0</ele><time>2026-04-25T10:57:40Z</time></trkpt><trkpt lat="44.83568943838919" lon="12.143102881153895"><ele>-1.0</ele><time>2026-04-25T10:57:42Z</time></trkpt><trkpt lat="44.83568569172777" lon="12.143217990292346"><ele>-1.0</ele><time>2026-04-25T10:57:44Z</time></trkpt><trkpt lat="44.83567990762846" lon="12.143336808172835"><ele>-0.9999999999999999</ele><time>2026-04-25T10:57:46Z</time></trkpt><trkpt lat="44.83567226550745" lon="12.14345810313703"><ele>-1.0</ele><time>2026-04-25T10:57:48Z</time></trkpt><trkpt lat="44.83566338411949" lon="12.143584001202566"><ele>-1.2000000000000002</ele><time>2026-04-25T10:57:50Z</time></trkpt><trkpt lat="44.83565192618328" lon="12.143713132291735"><ele>-1.4000000000000001</ele><time>2026-04-25T10:57:52Z</time></trkpt><trkpt lat="44.83564668577085" lon="12.143845575084297"><ele>-1.6</ele><time>2026-04-25T10:57:54Z</time></trkpt><trkpt lat="44.83564106493688" lon="12.14397300822418"><ele>-1.8</ele><time>2026-04-25T10:57:56Z</time></trkpt><trkpt lat="44.83563939496402" lon="12.144098880561122"><ele>-2.0</ele><time>2026-04-25T10:57:58Z</time></trkpt><trkpt lat="44.83562582641083" lon="12.144230783364785"><ele>-2.0</ele><time>2026-04-25T10:58:00Z</time></trkpt><trkpt lat="44.83562345249135" lon="12.144364358147929"><ele>-2.0</ele><time>2026-04-25T10:58:02Z</time></trkpt><trkpt lat="44.835612216308654" lon="12.144497580949944"><ele>-2.0</ele><time>2026-04-25T10:58:04Z</time></trkpt><trkpt lat="44.83560307649029" lon="12.144630069127341"><ele>-2.0</ele><time>2026-04-25T10:58:06Z</time></trkpt><trkpt lat="44.835598838759715" lon="12.144760055885143"><ele>-2.0</ele><time>2026-04-25T10:58:08Z</time></trkpt><trkpt lat="44.83558921396245" lon="12.144890434657016"><ele>-2.2</ele><time>2026-04-25T10:58:10Z</time></trkpt><trkpt lat="44.835585626379626" lon="12.145020358722991"><ele>-2.4000000000000004</ele><time>2026-04-25T10:58:12Z</time></trkpt><trkpt lat="44.83557701101791" lon="12.145148613243242"><ele>-2.5999999999999996</ele><time>2026-04-25T10:58:14Z</time></trkpt><trkpt lat="44.835573602755545" lon="12.14527594213402"><ele>-2.8</ele><time>2026-04-25T10:58:16Z</time></trkpt><trkpt lat="44.83556197407867" lon="12.14540854994604"><ele>-3.0</ele><time>2026-04-25T10:58:18Z</time></trkpt><trkpt lat="44.83555679088532" lon="12.145538625564052"><ele>-3.0</ele><time>2026-04-25T10:58:20Z</time></trkpt><trkpt lat="44.83554998157687" lon="12.145672033742562"><ele>-3.0</ele><time>2026-04-25T10:58:22Z</time></trkpt><trkpt lat="44.835548338054195" lon="12.145800616126888"><ele>-3.0</ele><time>2026-04-25T10:58:24Z</time></trkpt><trkpt lat="44.835539928808714" lon="12.145929532927122"><ele>-3.0</ele><time>2026-04-25T10:58:26Z</time></trkpt><trkpt lat="44.835533963826805" lon="12.146061992861071"><ele>-3.0</ele><time>2026-04-25T10:58:28Z</time></trkpt><trkpt lat="44.83552142839372" lon="12.146192239687522"><ele>-3.0</ele><time>2026-04-25T10:58:30Z</time></trkpt><trkpt lat="44.83551651907101" lon="12.146323843186162"><ele>-3.0</ele><time>2026-04-25T10:58:32Z</time></trkpt><trkpt lat="44.835507097847525" lon="12.146450595092517"><ele>-3.0</ele><time>2026-04-25T10:58:34Z</time></trkpt><trkpt lat="44.835496614375415" lon="12.146579913695431"><ele>-3.0</ele><time>2026-04-25T10:58:36Z</time></trkpt><trkpt lat="44.83549121024324" lon="12.146705389715947"><ele>-3.0</ele><time>2026-04-25T10:58:38Z</time></trkpt><trkpt lat="44.83548493056368" lon="12.146833002863442"><ele>-3.0</ele><time>2026-04-25T10:58:40Z</time></trkpt><trkpt lat="44.83547313267656" lon="12.14696060658254"><ele>-3.0</ele><time>2026-04-25T10:58:42Z</time></trkpt><trkpt lat="44.83546839193441" lon="12.14709248997892"><ele>-3.0</ele><time>2026-04-25T10:58:44Z</time></trkpt><trkpt lat="44.83545480061908" lon="12.147221118673635"><ele>-3.0</ele><time>2026-04-25T10:58:46Z</time></trkpt><trkpt lat="44.835448923298735" lon="12.147349937219774"><ele>-3.0</ele><time>2026-04-25T10:58:48Z</time></trkpt><trkpt lat="44.83544165123271" lon="12.147479704312413"><ele>-2.6666666666666665</ele><time>2026-04-25T10:58:50Z</time></trkpt><trkpt lat="44.83543328183847" lon="12.147610151558132"><ele>-2.3333333333333335</ele><time>2026-04-25T10:58:52Z</time></trkpt><trkpt lat="44.835426036959625" lon="12.147731958726279"><ele>-2.0</ele><time>2026-04-25T10:58:54Z</time></trkpt><trkpt lat="44.83543713751593" lon="12.147840895150301"><ele>-1.6666666666666665</ele><time>2026-04-25T10:58:56Z</time></trkpt><trkpt lat="44.835447315619724" lon="12.147949418176164"><ele>-1.3333333333333333</ele><time>2026-04-25T10:58:58Z</time></trkpt><trkpt lat="44.835440350790044" lon="12.1480516063181"><ele>-1.0</ele><time>2026-04-25T10:59:00Z</time></trkpt><trkpt lat="44.83546331389761" lon="12.148148913518607"><ele>-1.1666666666666665</ele><time>2026-04-25T10:59:02Z</time></trkpt><trkpt lat="44.8355231084441" lon="12.148220186743515"><ele>-1.3333333333333333</ele><time>2026-04-25T10:59:04Z</time></trkpt><trkpt lat="44.835526571324344" lon="12.148311065700577"><ele>-1.5</ele><time>2026-04-25T10:59:06Z</time></trkpt><trkpt lat="44.83550960697615" lon="12.148425900563812"><ele>-1.6666666666666665</ele><time>2026-04-25T10:59:08Z</time></trkpt><trkpt lat="44.8354957658862" lon="12.148553478040352"><ele>-1.8333333333333333</ele><time>2026-04-25T10:59:10Z</time></trkpt><trkpt lat="44.83549215642658" lon="12.148681492777502"><ele>-2.0</ele><time>2026-04-25T10:59:12Z</time></trkpt><trkpt lat="44.83548073702713" lon="12.148808232474703"><ele>-1.9999999999999998</ele><time>2026-04-25T10:59:14Z</time></trkpt><trkpt lat="44.83547142085628" lon="12.148927829001757"><ele>-2.0</ele><time>2026-04-25T10:59:16Z</time></trkpt><trkpt lat="44.835462822889646" lon="12.149040695722748"><ele>-2.0</ele><time>2026-04-25T10:59:18Z</time></trkpt><trkpt lat="44.83545660772476" lon="12.149145883793189"><ele>-2.0</ele><time>2026-04-25T10:59:20Z</time></trkpt><trkpt lat="44.835440962229065" lon="12.149248342404489"><ele>-1.9999999999999998</ele><time>2026-04-25T10:59:22Z</time></trkpt><trkpt lat="44.835448572856365" lon="12.149359121630072"><ele>-2.0</ele><time>2026-04-25T10:59:24Z</time></trkpt><trkpt lat="44.83543775430609" lon="12.149481767522198"><ele>-1.9999999999999998</ele><time>2026-04-25T10:59:26Z</time></trkpt><trkpt lat="44.835432238940534" lon="12.149609949586342"><ele>-2.0</ele><time>2026-04-25T10:59:28Z</time></trkpt><trkpt lat="44.83542343104535" lon="12.14973104522805"><ele>-2.0</ele><time>2026-04-25T10:59:30Z</time></trkpt><trkpt lat="44.83541740275628" lon="12.149858804363808"><ele>-2.0</ele><time>2026-04-25T10:59:32Z</time></trkpt><trkpt lat="44.83541097420234" lon="12.14995597098483"><ele>-1.9999999999999998</ele><time>2026-04-25T10:59:34Z</time></trkpt><trkpt lat="44.83539928785081" lon="12.150068378717606"><ele>-2.0</ele><time>2026-04-25T10:59:36Z</time></trkpt><trkpt lat="44.835393821001944" lon="12.150175982841397"><ele>-1.8</ele><time>2026-04-25T10:59:38Z</time></trkpt><trkpt lat="44.83539531514875" lon="12.15032148380695"><ele>-1.6</ele><time>2026-04-25T10:59:41Z</time></trkpt><trkpt lat="44.83538054471299" lon="12.150450041722975"><ele>-1.4000000000000001</ele><time>2026-04-25T10:59:43Z</time></trkpt><trkpt lat="44.83536708626892" lon="12.15057411649834"><ele>-1.2000000000000002</ele><time>2026-04-25T10:59:45Z</time></trkpt><trkpt lat="44.835358688412086" lon="12.150693012730192"><ele>-1.0</ele><time>2026-04-25T10:59:47Z</time></trkpt><trkpt lat="44.83534855443876" lon="12.150809237813558"><ele>-0.9999999999999999</ele><time>2026-04-25T10:59:49Z</time></trkpt><trkpt lat="44.83534140900279" lon="12.150921241494148"><ele>-1.0</ele><time>2026-04-25T10:59:51Z</time></trkpt><trkpt lat="44.83534220878079" lon="12.151027503958659"><ele>-1.0</ele><time>2026-04-25T10:59:53Z</time></trkpt><trkpt lat="44.83533817059937" lon="12.151149439075965"><ele>-1.0</ele><time>2026-04-25T10:59:55Z</time></trkpt><trkpt lat="44.83532809610275" lon="12.151272066288803"><ele>-0.9999999999999999</ele><time>2026-04-25T10:59:57Z</time></trkpt><trkpt lat="44.83531621335502" lon="12.151391133897835"><ele>-1.0</ele><time>2026-04-25T10:59:59Z</time></trkpt><trkpt lat="44.83530859816429" lon="12.151506147527666"><ele>-0.9999999999999999</ele><time>2026-04-25T11:00:01Z</time></trkpt><trkpt lat="44.835301391687395" lon="12.151623995565771"><ele>-1.0</ele><time>2026-04-25T11:00:03Z</time></trkpt><trkpt lat="44.83528803901996" lon="12.151739361102019"><ele>-1.0</ele><time>2026-04-25T11:00:05Z</time></trkpt><trkpt lat="44.835284378762026" lon="12.151858550170596"><ele>-1.0</ele><time>2026-04-25T11:00:07Z</time></trkpt><trkpt lat="44.8352843701619" lon="12.151963900179453"><ele>-0.9999999999999999</ele><time>2026-04-25T11:00:10Z</time></trkpt><trkpt lat="44.83530238179721" lon="12.152049778935279"><ele>-1.0</ele><time>2026-04-25T11:21:15.999Z</time></trkpt><trkpt lat="44.835333021530964" lon="12.152158020837055"><ele>-1.0</ele><time>2026-04-25T11:21:24.999Z</time></trkpt><trkpt lat="44.83534778463967" lon="12.152262507859707"><ele>-0.9999999999999999</ele><time>2026-04-25T11:21:27.999Z</time></trkpt><trkpt lat="44.83534754348607" lon="12.152357171448408"><ele>-1.0</ele><time>2026-04-25T11:21:30.999Z</time></trkpt><trkpt lat="44.835359257754504" lon="12.152460471778982"><ele>-1.0</ele><time>2026-04-25T11:21:34.999Z</time></trkpt><trkpt lat="44.83534896116784" lon="12.152550996101315"><ele>-0.9999999999999999</ele><time>2026-04-25T11:21:37.999Z</time></trkpt><trkpt lat="44.83534308486884" lon="12.152640274359005"><ele>-1.0</ele><time>2026-04-25T11:21:40.999Z</time></trkpt><trkpt lat="44.83532723698652" lon="12.152733420042203"><ele>-1.0</ele><time>2026-04-25T11:21:42.999Z</time></trkpt><trkpt lat="44.835304999497914" lon="12.152839690294606"><ele>-1.0</ele><time>2026-04-25T11:21:44.999Z</time></trkpt><trkpt lat="44.83527429234461" lon="12.152978040886131"><ele>-1.0</ele><time>2026-04-25T11:21:46.999Z</time></trkpt><trkpt lat="44.8352439442736" lon="12.153094339871249"><ele>-1.0</ele><time>2026-04-25T11:21:49Z</time></trkpt><trkpt lat="44.83522324200222" lon="12.15321989234222"><ele>-1.0</ele><time>2026-04-25T11:21:51Z</time></trkpt><trkpt lat="44.835188405328665" lon="12.15333023056467"><ele>-1.0</ele><time>2026-04-25T11:21:53Z</time></trkpt><trkpt lat="44.835204792286866" lon="12.153455763823409"><ele>-0.9999999999999999</ele><time>2026-04-25T11:21:55Z</time></trkpt><trkpt lat="44.835178104938876" lon="12.153558693523282"><ele>-1.0</ele><time>2026-04-25T11:21:57Z</time></trkpt><trkpt lat="44.83516650697927" lon="12.153684436436441"><ele>-1.0</ele><time>2026-04-25T11:21:59Z</time></trkpt><trkpt lat="44.835179619294664" lon="12.15381475702767"><ele>-1.0</ele><time>2026-04-25T11:22:01Z</time></trkpt><trkpt lat="44.83520938590915" lon="12.1539440407852"><ele>-0.9999999999999999</ele><time>2026-04-25T11:22:03Z</time></trkpt><trkpt lat="44.83517734812922" lon="12.154062127908807"><ele>-1.0</ele><time>2026-04-25T11:22:05Z</time></trkpt><trkpt lat="44.8351586604664" lon="12.154176691729056"><ele>-0.9999999999999999</ele><time>2026-04-25T11:22:07Z</time></trkpt><trkpt lat="44.83514502203931" lon="12.154290027507717"><ele>-1.0</ele><time>2026-04-25T11:22:09Z</time></trkpt><trkpt lat="44.83514888009011" lon="12.154404050936062"><ele>-1.0</ele><time>2026-04-25T11:22:11Z</time></trkpt><trkpt lat="44.83514144930382" lon="12.15452723337379"><ele>-1.0</ele><time>2026-04-25T11:22:13Z</time></trkpt><trkpt lat="44.835135661468335" lon="12.154651537449498"><ele>-0.9999999999999999</ele><time>2026-04-25T11:22:15Z</time></trkpt><trkpt lat="44.835126754966055" lon="12.154786069663322"><ele>-1.0</ele><time>2026-04-25T11:22:17Z</time></trkpt><trkpt lat="44.835128662472016" lon="12.1549197122666"><ele>-0.9999999999999999</ele><time>2026-04-25T11:22:19Z</time></trkpt><trkpt lat="44.835127178643674" lon="12.15504500153221"><ele>-1.0</ele><time>2026-04-25T11:22:21Z</time></trkpt><trkpt lat="44.835121586039" lon="12.155171478604391"><ele>-1.0</ele><time>2026-04-25T11:22:23Z</time></trkpt><trkpt lat="44.83510702081287" lon="12.15528581007415"><ele>-1.0</ele><time>2026-04-25T11:22:25Z</time></trkpt><trkpt lat="44.8351090957827" lon="12.155396853260276"><ele>-0.9999999999999999</ele><time>2026-04-25T11:22:27Z</time></trkpt><trkpt lat="44.83509838223722" lon="12.155516964106786"><ele>-1.0</ele><time>2026-04-25T11:22:29Z</time></trkpt><trkpt lat="44.83509132978859" lon="12.15564481356472"><ele>-1.3333333333333333</ele><time>2026-04-25T11:22:31Z</time></trkpt><trkpt lat="44.835087889695025" lon="12.155771787807478"><ele>-1.6666666666666665</ele><time>2026-04-25T11:22:33Z</time></trkpt><trkpt lat="44.83508018616294" lon="12.155887892438264"><ele>-2.0</ele><time>2026-04-25T11:22:35Z</time></trkpt><trkpt lat="44.835074772489456" lon="12.155998767872026"><ele>-2.3333333333333335</ele><time>2026-04-25T11:22:37Z</time></trkpt><trkpt lat="44.83507021778665" lon="12.15609788095933"><ele>-2.6666666666666665</ele><time>2026-04-25T11:22:39Z</time></trkpt><trkpt lat="44.83506845017059" lon="12.156196595472679"><ele>-3.0</ele><time>2026-04-25T11:22:41Z</time></trkpt><trkpt lat="44.835064416068064" lon="12.156303679567701"><ele>-3.0</ele><time>2026-04-25T11:22:43Z</time></trkpt><trkpt lat="44.83505605973217" lon="12.156409835724858"><ele>-3.0</ele><time>2026-04-25T11:22:45Z</time></trkpt><trkpt lat="44.83504551479888" lon="12.15653104549803"><ele>-3.0</ele><time>2026-04-25T11:22:47Z</time></trkpt><trkpt lat="44.83503753921964" lon="12.156664120065619"><ele>-3.0</ele><time>2026-04-25T11:22:49Z</time></trkpt><trkpt lat="44.83503510323449" lon="12.156795206510594"><ele>-3.0</ele><time>2026-04-25T11:22:51Z</time></trkpt><trkpt lat="44.83502621220778" lon="12.156924713557455"><ele>-3.0</ele><time>2026-04-25T11:22:53Z</time></trkpt><trkpt lat="44.83502067654871" lon="12.157056597487943"><ele>-3.0</ele><time>2026-04-25T11:22:55Z</time></trkpt><trkpt lat="44.83501596422544" lon="12.157183924343833"><ele>-3.0</ele><time>2026-04-25T11:22:57Z</time></trkpt><trkpt lat="44.83500879262245" lon="12.157311927867667"><ele>-3.0</ele><time>2026-04-25T11:22:58.999Z</time></trkpt><trkpt lat="44.83500038809156" lon="12.157439982357037"><ele>-3.0</ele><time>2026-04-25T11:23:00.999Z</time></trkpt><trkpt lat="44.83499499424516" lon="12.1575700020563"><ele>-3.0</ele><time>2026-04-25T11:23:02.999Z</time></trkpt><trkpt lat="44.83498573822806" lon="12.15769767127029"><ele>-3.0</ele><time>2026-04-25T11:23:04.999Z</time></trkpt><trkpt lat="44.83498532033634" lon="12.157826832753184"><ele>-3.0</ele><time>2026-04-25T11:23:06.999Z</time></trkpt><trkpt lat="44.834977389689875" lon="12.157955901038763"><ele>-3.0</ele><time>2026-04-25T11:23:08.999Z</time></trkpt><trkpt lat="44.83497158775123" lon="12.15808503208174"><ele>-3.0</ele><time>2026-04-25T11:23:10.999Z</time></trkpt><trkpt lat="44.83496395144405" lon="12.158213677405366"><ele>-3.0</ele><time>2026-04-25T11:23:12.999Z</time></trkpt><trkpt lat="44.83495320156723" lon="12.158339696153128"><ele>-3.1666666666666665</ele><time>2026-04-25T11:23:14.999Z</time></trkpt><trkpt lat="44.834952680292304" lon="12.158469353095304"><ele>-3.333333333333333</ele><time>2026-04-25T11:23:16.999Z</time></trkpt><trkpt lat="44.834945761864915" lon="12.158595729293245"><ele>-3.5</ele><time>2026-04-25T11:23:18.999Z</time></trkpt><trkpt lat="44.83493690074919" lon="12.158721794248892"><ele>-3.6666666666666665</ele><time>2026-04-25T11:23:20.999Z</time></trkpt><trkpt lat="44.834929595061276" lon="12.15884183827438"><ele>-3.833333333333333</ele><time>2026-04-25T11:23:22.999Z</time></trkpt><trkpt lat="44.83492514812493" lon="12.15896107356066"><ele>-4.0</ele><time>2026-04-25T11:23:24.999Z</time></trkpt><trkpt lat="44.834916334360095" lon="12.159079816442217"><ele>-4.0</ele><time>2026-04-25T11:23:26.999Z</time></trkpt><trkpt lat="44.834914791626666" lon="12.15921050522976"><ele>-4.0</ele><time>2026-04-25T11:23:28.999Z</time></trkpt><trkpt lat="44.83491077940546" lon="12.159356084308582"><ele>-4.0</ele><time>2026-04-25T11:23:30.999Z</time></trkpt><trkpt lat="44.83490191886845" lon="12.15949940798121"><ele>-4.0</ele><time>2026-04-25T11:23:32.999Z</time></trkpt><trkpt lat="44.83489544069605" lon="12.159637351457743"><ele>-4.0</ele><time>2026-04-25T11:23:34.999Z</time></trkpt><trkpt lat="44.834888406831105" lon="12.159769575942532"><ele>-3.833333333333333</ele><time>2026-04-25T11:23:36.999Z</time></trkpt><trkpt lat="44.83488726458121" lon="12.15989655491919"><ele>-3.6666666666666665</ele><time>2026-04-25T11:23:38.999Z</time></trkpt><trkpt lat="44.83487844602825" lon="12.160016019066092"><ele>-3.5</ele><time>2026-04-25T11:23:40.999Z</time></trkpt><trkpt lat="44.8348731981303" lon="12.160145120192404"><ele>-3.333333333333333</ele><time>2026-04-25T11:23:42.999Z</time></trkpt><trkpt lat="44.834867755043675" lon="12.160270555833154"><ele>-3.1666666666666665</ele><time>2026-04-25T11:23:44.999Z</time></trkpt><trkpt lat="44.834865192501205" lon="12.16039818596585"><ele>-3.0</ele><time>2026-04-25T11:23:46.999Z</time></trkpt><trkpt lat="44.83485443019747" lon="12.160524529756513"><ele>-3.0</ele><time>2026-04-25T11:23:48.999Z</time></trkpt><trkpt lat="44.83484768371472" lon="12.16065411806478"><ele>-3.0</ele><time>2026-04-25T11:23:50.999Z</time></trkpt><trkpt lat="44.834841258752334" lon="12.160780450747689"><ele>-3.0</ele><time>2026-04-25T11:23:52.999Z</time></trkpt><trkpt lat="44.834837366408294" lon="12.160901593072424"><ele>-3.0</ele><time>2026-04-25T11:23:55Z</time></trkpt><trkpt lat="44.834836023994285" lon="12.1610172022604"><ele>-3.0</ele><time>2026-04-25T11:23:57Z</time></trkpt><trkpt lat="44.83482722859188" lon="12.161131928131812"><ele>-3.0</ele><time>2026-04-25T11:23:59Z</time></trkpt><trkpt lat="44.83482285491052" lon="12.161236736211423"><ele>-3.0</ele><time>2026-04-25T11:24:01Z</time></trkpt><trkpt lat="44.83481492583131" lon="12.161349813884131"><ele>-3.0</ele><time>2026-04-25T11:24:03Z</time></trkpt><trkpt lat="44.83480815888026" lon="12.161476091085769"><ele>-3.0</ele><time>2026-04-25T11:24:05Z</time></trkpt><trkpt lat="44.83480519767254" lon="12.16160594747695"><ele>-3.0</ele><time>2026-04-25T11:24:07Z</time></trkpt><trkpt lat="44.83479902161568" lon="12.161736173487542"><ele>-3.0</ele><time>2026-04-25T11:24:09Z</time></trkpt><trkpt lat="44.834792842405626" lon="12.161862885037356"><ele>-3.0</ele><time>2026-04-25T11:24:11Z</time></trkpt><trkpt lat="44.83479054413733" lon="12.16198713988845"><ele>-3.2</ele><time>2026-04-25T11:24:13Z</time></trkpt><trkpt lat="44.83477651997379" lon="12.1621120015294"><ele>-3.4</ele><time>2026-04-25T11:24:15Z</time></trkpt><trkpt lat="44.83477069477253" lon="12.162237182768518"><ele>-3.6000000000000005</ele><time>2026-04-25T11:24:17Z</time></trkpt><trkpt lat="44.83476705769814" lon="12.162362271672762"><ele>-3.8000000000000003</ele><time>2026-04-25T11:24:19Z</time></trkpt><trkpt lat="44.8347605237772" lon="12.16249023713618"><ele>-4.0</ele><time>2026-04-25T11:24:21Z</time></trkpt><trkpt lat="44.83475340981428" lon="12.16261897938286"><ele>-4.0</ele><time>2026-04-25T11:24:23Z</time></trkpt><trkpt lat="44.83474864494246" lon="12.162747451333097"><ele>-4.0</ele><time>2026-04-25T11:24:25Z</time></trkpt><trkpt lat="44.83474302451137" lon="12.162876190499887"><ele>-4.0</ele><time>2026-04-25T11:24:27Z</time></trkpt><trkpt lat="44.83473567612963" lon="12.16300765729245"><ele>-4.0</ele><time>2026-04-25T11:24:29Z</time></trkpt><trkpt lat="44.834730163220435" lon="12.163134129579559"><ele>-4.0</ele><time>2026-04-25T11:24:31Z</time></trkpt><trkpt lat="44.83472252399816" lon="12.163262703478024"><ele>-3.6666666666666665</ele><time>2026-04-25T11:24:33Z</time></trkpt><trkpt lat="44.83471848730814" lon="12.163386665299171"><ele>-3.333333333333333</ele><time>2026-04-25T11:24:35Z</time></trkpt><trkpt lat="44.83471526268208" lon="12.163502026614852"><ele>-3.0</ele><time>2026-04-25T11:24:37Z</time></trkpt><trkpt lat="44.83470922437441" lon="12.16361170070731"><ele>-2.6666666666666665</ele><time>2026-04-25T11:24:39Z</time></trkpt><trkpt lat="44.83470724755498" lon="12.163721601039436"><ele>-2.333333333333333</ele><time>2026-04-25T11:24:41Z</time></trkpt><trkpt lat="44.8347026687354" lon="12.163832682151986"><ele>-2.0</ele><time>2026-04-25T11:24:43Z</time></trkpt><trkpt lat="44.83469853815631" lon="12.163955342803234"><ele>-2.2</ele><time>2026-04-25T11:24:45Z</time></trkpt><trkpt lat="44.83468917519859" lon="12.164084154789219"><ele>-2.4000000000000004</ele><time>2026-04-25T11:24:47Z</time></trkpt><trkpt lat="44.83468399399035" lon="12.164212518146996"><ele>-2.5999999999999996</ele><time>2026-04-25T11:24:48.999Z</time></trkpt><trkpt lat="44.83467968576577" lon="12.16433940689877"><ele>-2.8</ele><time>2026-04-25T11:24:50.999Z</time></trkpt><trkpt lat="44.83467217609524" lon="12.164471588495955"><ele>-3.0</ele><time>2026-04-25T11:24:52.999Z</time></trkpt><trkpt lat="44.834661336694204" lon="12.164598909059007"><ele>-3.0</ele><time>2026-04-25T11:24:54.999Z</time></trkpt><trkpt lat="44.83465727306064" lon="12.164727387888744"><ele>-3.0</ele><time>2026-04-25T11:24:56.999Z</time></trkpt><trkpt lat="44.83464948223253" lon="12.164855551294862"><ele>-3.0</ele><time>2026-04-25T11:24:58.999Z</time></trkpt><trkpt lat="44.83464564330385" lon="12.164985044046404"><ele>-3.0</ele><time>2026-04-25T11:25:00.999Z</time></trkpt><trkpt lat="44.83463420445151" lon="12.165112439939119"><ele>-3.0</ele><time>2026-04-25T11:25:02.999Z</time></trkpt><trkpt lat="44.83462905889937" lon="12.165240568436854"><ele>-3.0</ele><time>2026-04-25T11:25:04.999Z</time></trkpt><trkpt lat="44.83462373111977" lon="12.165369330599106"><ele>-3.0</ele><time>2026-04-25T11:25:06.999Z</time></trkpt><trkpt lat="44.834619245764664" lon="12.16549800433064"><ele>-3.0</ele><time>2026-04-25T11:25:08.999Z</time></trkpt><trkpt lat="44.83461110957177" lon="12.16562402558522"><ele>-3.0</ele><time>2026-04-25T11:25:10.999Z</time></trkpt><trkpt lat="44.83460096485708" lon="12.165752749848789"><ele>-3.0</ele><time>2026-04-25T11:25:12.999Z</time></trkpt><trkpt lat="44.83458120040575" lon="12.165877494023231"><ele>-2.8333333333333335</ele><time>2026-04-25T11:25:14.999Z</time></trkpt><trkpt lat="44.8345651162342" lon="12.165999894086898"><ele>-2.6666666666666665</ele><time>2026-04-25T11:25:16.999Z</time></trkpt><trkpt lat="44.834550507128164" lon="12.166127665463193"><ele>-2.5</ele><time>2026-04-25T11:25:18.999Z</time></trkpt><trkpt lat="44.83453500449937" lon="12.166249120976213"><ele>-2.333333333333333</ele><time>2026-04-25T11:25:20.999Z</time></trkpt><trkpt lat="44.83451474299595" lon="12.166368320302693"><ele>-2.1666666666666665</ele><time>2026-04-25T11:25:22.999Z</time></trkpt><trkpt lat="44.834507677564226" lon="12.166470705996163"><ele>-2.0</ele><time>2026-04-25T11:25:24.999Z</time></trkpt><trkpt lat="44.834495353237656" lon="12.166563667191781"><ele>-1.8333333333333333</ele><time>2026-04-25T11:25:26.999Z</time></trkpt><trkpt lat="44.83448893973992" lon="12.166663400420033"><ele>-1.6666666666666665</ele><time>2026-04-25T11:25:28.999Z</time></trkpt><trkpt lat="44.83445633932432" lon="12.16674898010888"><ele>-1.5</ele><time>2026-04-25T11:25:30.999Z</time></trkpt><trkpt lat="44.834392722811565" lon="12.166799023309245"><ele>-1.3333333333333333</ele><time>2026-04-25T11:25:32.999Z</time></trkpt><trkpt lat="44.83432111075469" lon="12.166880855206742"><ele>-1.1666666666666665</ele><time>2026-04-25T11:25:35.999Z</time></trkpt><trkpt lat="44.83426968246027" lon="12.166950679899612"><ele>-1.0</ele><time>2026-04-25T11:25:38.999Z</time></trkpt><trkpt lat="44.834248030026565" lon="12.167091985433123"><ele>-0.9999999999999999</ele><time>2026-04-25T11:25:41.999Z</time></trkpt><trkpt lat="44.83423612326388" lon="12.167218596751372"><ele>-1.0</ele><time>2026-04-25T11:25:43.999Z</time></trkpt><trkpt lat="44.834217412010354" lon="12.167340799425723"><ele>-1.0</ele><time>2026-04-25T11:25:45.999Z</time></trkpt><trkpt lat="44.834194556516664" lon="12.167467847149354"><ele>-1.0</ele><time>2026-04-25T11:25:47.999Z</time></trkpt><trkpt lat="44.83416353833773" lon="12.167566741684707"><ele>-0.9999999999999999</ele><time>2026-04-25T11:25:49.999Z</time></trkpt><trkpt lat="44.834098477760655" lon="12.167637533039715"><ele>-1.0</ele><time>2026-04-25T11:25:51.999Z</time></trkpt><trkpt lat="44.8340494658077" lon="12.167713264121053"><ele>-0.9999999999999999</ele><time>2026-04-25T11:25:53.999Z</time></trkpt><trkpt lat="44.83397823350705" lon="12.167718413697806"><ele>-1.0</ele><time>2026-04-25T11:25:55.999Z</time></trkpt><trkpt lat="44.83391275824617" lon="12.167716715833139"><ele>-1.0</ele><time>2026-04-25T11:25:57.999Z</time></trkpt><trkpt lat="44.83382651748489" lon="12.16776864273766"><ele>-1.0</ele><time>2026-04-25T11:26:00.999Z</time></trkpt><trkpt lat="44.833754361182855" lon="12.167815274547463"><ele>-0.9999999999999999</ele><time>2026-04-25T11:26:02.999Z</time></trkpt><trkpt lat="44.833685999668" lon="12.167865850125004"><ele>-1.0</ele><time>2026-04-25T11:26:04.999Z</time></trkpt><trkpt lat="44.833643096573596" lon="12.167771221545616"><ele>-0.9999999999999999</ele><time>2026-04-25T11:26:08Z</time></trkpt><trkpt lat="44.833579880208106" lon="12.16774988221779"><ele>-1.0</ele><time>2026-04-25T11:26:10Z</time></trkpt><trkpt lat="44.833505386279725" lon="12.16779460452422"><ele>-1.0</ele><time>2026-04-25T11:26:12Z</time></trkpt><trkpt lat="44.8334220705095" lon="12.167837475222946"><ele>-1.0</ele><time>2026-04-25T11:26:14Z</time></trkpt><trkpt lat="44.83333658744615" lon="12.167869067486214"><ele>-0.9999999999999999</ele><time>2026-04-25T11:26:16Z</time></trkpt><trkpt lat="44.83325113721734" lon="12.16790875855706"><ele>-1.0</ele><time>2026-04-25T11:26:18Z</time></trkpt><trkpt lat="44.8331630186318" lon="12.167936273862725"><ele>-0.8333333333333333</ele><time>2026-04-25T11:26:20Z</time></trkpt><trkpt lat="44.8330856366102" lon="12.16797270871476"><ele>-0.6666666666666666</ele><time>2026-04-25T11:26:22Z</time></trkpt><trkpt lat="44.833010136019055" lon="12.168004782579231"><ele>-0.5</ele><time>2026-04-25T11:26:24Z</time></trkpt><trkpt lat="44.83293052321436" lon="12.168029428036295"><ele>-0.3333333333333333</ele><time>2026-04-25T11:26:26Z</time></trkpt><trkpt lat="44.832848432025834" lon="12.168071042833553"><ele>-0.16666666666666666</ele><time>2026-04-25T11:26:28Z</time></trkpt><trkpt lat="44.832759596498214" lon="12.16810148258431"><ele>0.0</ele><time>2026-04-25T11:26:30Z</time></trkpt><trkpt lat="44.832671104950876" lon="12.168131070122124"><ele>-0.3333333333333333</ele><time>2026-04-25T11:26:32Z</time></trkpt><trkpt lat="44.83258455070562" lon="12.168172459860598"><ele>-0.6666666666666666</ele><time>2026-04-25T11:26:34Z</time></trkpt><trkpt lat="44.83249747437184" lon="12.168208038370155"><ele>-1.0</ele><time>2026-04-25T11:26:36Z</time></trkpt><trkpt lat="44.83241441995855" lon="12.168254351058964"><ele>-1.3333333333333333</ele><time>2026-04-25T11:26:38Z</time></trkpt><trkpt lat="44.83232828960653" lon="12.168290255835991"><ele>-1.6666666666666665</ele><time>2026-04-25T11:26:40Z</time></trkpt><trkpt lat="44.83225201639294" lon="12.168306534572706"><ele>-2.0</ele><time>2026-04-25T11:26:42Z</time></trkpt><trkpt lat="44.83218103591145" lon="12.168347129085788"><ele>-2.1666666666666665</ele><time>2026-04-25T11:26:44Z</time></trkpt><trkpt lat="44.83211402477751" lon="12.168373027993985"><ele>-2.333333333333333</ele><time>2026-04-25T11:26:46Z</time></trkpt><trkpt lat="44.83205759262945" lon="12.168454382254458"><ele>-2.5</ele><time>2026-04-25T11:26:49Z</time></trkpt><trkpt lat="44.83204953924663" lon="12.168551640896933"><ele>-2.6666666666666665</ele><time>2026-04-25T11:26:51Z</time></trkpt><trkpt lat="44.83205238622102" lon="12.168672443596808"><ele>-2.8333333333333335</ele><time>2026-04-25T11:26:53Z</time></trkpt><trkpt lat="44.832041919896575" lon="12.168799844994313"><ele>-3.0</ele><time>2026-04-25T11:26:55Z</time></trkpt><trkpt lat="44.83204208338546" lon="12.168925921316541"><ele>-3.2</ele><time>2026-04-25T11:26:57Z</time></trkpt><trkpt lat="44.83204674855664" lon="12.16905700650175"><ele>-3.4</ele><time>2026-04-25T11:26:59Z</time></trkpt><trkpt lat="44.832037846168106" lon="12.169189025229203"><ele>-3.6000000000000005</ele><time>2026-04-25T11:27:01Z</time></trkpt><trkpt lat="44.832038495692366" lon="12.169320237433501"><ele>-3.8000000000000003</ele><time>2026-04-25T11:27:03Z</time></trkpt><trkpt lat="44.83204067477379" lon="12.169450138267134"><ele>-4.0</ele><time>2026-04-25T11:27:05Z</time></trkpt><trkpt lat="44.83204395382297" lon="12.16957479423634"><ele>-4.0</ele><time>2026-04-25T11:27:07Z</time></trkpt><trkpt lat="44.832037562279375" lon="12.169707776525463"><ele>-4.0</ele><time>2026-04-25T11:27:09Z</time></trkpt><trkpt lat="44.83204695782133" lon="12.169835212600733"><ele>-4.0</ele><time>2026-04-25T11:27:10.999Z</time></trkpt><trkpt lat="44.83204422289093" lon="12.169963146670447"><ele>-4.0</ele><time>2026-04-25T11:27:12.999Z</time></trkpt><trkpt lat="44.83204606610537" lon="12.170090451180364"><ele>-4.0</ele><time>2026-04-25T11:27:14.999Z</time></trkpt><trkpt lat="44.832044343372715" lon="12.170217043756745"><ele>-4.0</ele><time>2026-04-25T11:27:16.999Z</time></trkpt><trkpt lat="44.832042912747" lon="12.170345694763775"><ele>-4.0</ele><time>2026-04-25T11:27:18.999Z</time></trkpt><trkpt lat="44.83204534000594" lon="12.170474190528408"><ele>-4.0</ele><time>2026-04-25T11:27:20.999Z</time></trkpt><trkpt lat="44.83204355814561" lon="12.170601089266658"><ele>-4.0</ele><time>2026-04-25T11:27:22.999Z</time></trkpt><trkpt lat="44.83204657228119" lon="12.17073329306246"><ele>-4.0</ele><time>2026-04-25T11:27:24.999Z</time></trkpt><trkpt lat="44.832044994961436" lon="12.17085995775391"><ele>-4.0</ele><time>2026-04-25T11:27:26.999Z</time></trkpt><trkpt lat="44.832046346082386" lon="12.170987851518435"><ele>-4.0</ele><time>2026-04-25T11:27:28.999Z</time></trkpt><trkpt lat="44.83204978391995" lon="12.171119083451364"><ele>-4.0</ele><time>2026-04-25T11:27:30.999Z</time></trkpt><trkpt lat="44.832052262609274" lon="12.171247675389504"><ele>-4.0</ele><time>2026-04-25T11:27:32.999Z</time></trkpt><trkpt lat="44.83205301337432" lon="12.171379266576423"><ele>-4.0</ele><time>2026-04-25T11:27:34.999Z</time></trkpt><trkpt lat="44.8320551605346" lon="12.171505862828731"><ele>-3.8000000000000003</ele><time>2026-04-25T11:27:36.999Z</time></trkpt><trkpt lat="44.83205562080136" lon="12.171622351059218"><ele>-3.6000000000000005</ele><time>2026-04-25T11:27:38.999Z</time></trkpt><trkpt lat="44.83205239128495" lon="12.171752892575936"><ele>-3.4</ele><time>2026-04-25T11:27:40.999Z</time></trkpt><trkpt lat="44.83205481094226" lon="12.1718806605362"><ele>-3.2</ele><time>2026-04-25T11:27:42.999Z</time></trkpt><trkpt lat="44.83205652325504" lon="12.172010396813228"><ele>-3.0</ele><time>2026-04-25T11:27:44.999Z</time></trkpt><trkpt lat="44.83205576022168" lon="12.172141765632437"><ele>-3.0</ele><time>2026-04-25T11:27:46.999Z</time></trkpt><trkpt lat="44.83205932434881" lon="12.172275031470493"><ele>-3.0</ele><time>2026-04-25T11:27:48.999Z</time></trkpt><trkpt lat="44.83206109536003" lon="12.172408691207753"><ele>-3.0</ele><time>2026-04-25T11:27:50.999Z</time></trkpt><trkpt lat="44.83206213577305" lon="12.172540219737797"><ele>-3.0</ele><time>2026-04-25T11:27:52.999Z</time></trkpt><trkpt lat="44.83206563782172" lon="12.172668560817273"><ele>-3.0</ele><time>2026-04-25T11:27:54.999Z</time></trkpt><trkpt lat="44.832061202900114" lon="12.172790417513914"><ele>-3.0</ele><time>2026-04-25T11:27:56.999Z</time></trkpt><trkpt lat="44.83207135161704" lon="12.172906951046206"><ele>-3.0</ele><time>2026-04-25T11:27:58.999Z</time></trkpt><trkpt lat="44.83205880573173" lon="12.173019181327687"><ele>-3.0</ele><time>2026-04-25T11:28:00.999Z</time></trkpt><trkpt lat="44.8320664715765" lon="12.173126107635461"><ele>-3.0</ele><time>2026-04-25T11:28:02.999Z</time></trkpt><trkpt lat="44.83205279515955" lon="12.173228665266727"><ele>-3.0</ele><time>2026-04-25T11:28:04.999Z</time></trkpt><trkpt lat="44.83205159269617" lon="12.173322124031314"><ele>-3.0</ele><time>2026-04-25T11:28:06.999Z</time></trkpt><trkpt lat="44.83205593669457" lon="12.173445117174063"><ele>-3.0</ele><time>2026-04-25T11:28:09.999Z</time></trkpt><trkpt lat="44.83202522005155" lon="12.173537216061561"><ele>-3.0</ele><time>2026-04-25T11:28:26Z</time></trkpt><trkpt lat="44.83204173512085" lon="12.173425573023412"><ele>-3.0</ele><time>2026-04-25T11:30:11.999Z</time></trkpt><trkpt lat="44.83204257170684" lon="12.173318816012928"><ele>-3.0</ele><time>2026-04-25T11:30:14.999Z</time></trkpt><trkpt lat="44.83204756080654" lon="12.173227401463238"><ele>-3.0</ele><time>2026-04-25T11:30:17.999Z</time></trkpt><trkpt lat="44.83207728057049" lon="12.173347117373783"><ele>-3.0</ele><time>2026-04-25T11:30:22.999Z</time></trkpt><trkpt lat="44.832085787796665" lon="12.173471495602662"><ele>-3.0</ele><time>2026-04-25T11:30:24.999Z</time></trkpt><trkpt lat="44.832113059145826" lon="12.173626564394793"><ele>-3.0</ele><time>2026-04-25T11:30:26.999Z</time></trkpt><trkpt lat="44.83214250157859" lon="12.173711833604706"><ele>-3.0</ele><time>2026-04-25T11:30:27.999Z</time></trkpt><trkpt lat="44.83217493965629" lon="12.173866403407365"><ele>-3.0</ele><time>2026-04-25T11:30:29.999Z</time></trkpt><trkpt lat="44.83219574752125" lon="12.173994895869443"><ele>-3.0</ele><time>2026-04-25T11:30:31.999Z</time></trkpt><trkpt lat="44.83224286817463" lon="12.17408777403017"><ele>-2.8333333333333335</ele><time>2026-04-25T11:30:32.999Z</time></trkpt><trkpt lat="44.8322718571443" lon="12.174189812525576"><ele>-2.6666666666666665</ele><time>2026-04-25T11:30:34.999Z</time></trkpt><trkpt lat="44.8322925199812" lon="12.174286393704755"><ele>-2.5</ele><time>2026-04-25T11:30:36.999Z</time></trkpt><trkpt lat="44.8322975970207" lon="12.174382829463129"><ele>-2.333333333333333</ele><time>2026-04-25T11:30:38.999Z</time></trkpt><trkpt lat="44.832259361220764" lon="12.17449732472035"><ele>-2.1666666666666665</ele><time>2026-04-25T11:30:41.999Z</time></trkpt><trkpt lat="44.83217033262664" lon="12.174539781714095"><ele>-2.0</ele><time>2026-04-25T11:30:45Z</time></trkpt><trkpt lat="44.83210310142195" lon="12.174546660976185"><ele>-2.0</ele><time>2026-04-25T11:30:47Z</time></trkpt><trkpt lat="44.832070018345185" lon="12.174624168633423"><ele>-1.9999999999999998</ele><time>2026-04-25T11:30:49Z</time></trkpt><trkpt lat="44.83206485889375" lon="12.174712749073546"><ele>-2.0</ele><time>2026-04-25T11:31:00Z</time></trkpt><trkpt lat="44.83212159279482" lon="12.174673205491864"><ele>-2.0</ele><time>2026-04-25T11:32:36.999Z</time></trkpt><trkpt lat="44.83205750770553" lon="12.17469451727509"><ele>-1.9999999999999998</ele><time>2026-04-25T11:33:11Z</time></trkpt><trkpt lat="44.832085354482686" lon="12.174805839740669"><ele>-2.0</ele><time>2026-04-25T11:38:32Z</time></trkpt><trkpt lat="44.83210697534808" lon="12.17491609203249"><ele>-2.0</ele><time>2026-04-25T11:38:34.999Z</time></trkpt><trkpt lat="44.83214286375757" lon="12.175005875739023"><ele>-1.3333333333333333</ele><time>2026-04-25T11:38:37.999Z</time></trkpt><trkpt lat="44.83220314736402" lon="12.175113248833638"><ele>-0.6666666666666666</ele><time>2026-04-25T11:38:40.999Z</time></trkpt><trkpt lat="44.83224640912238" lon="12.175185182442727"><ele>0.0</ele><time>2026-04-25T11:38:42.999Z</time></trkpt><trkpt lat="44.8323218389754" lon="12.175274275387276"><ele>0.6666666666666666</ele><time>2026-04-25T11:38:46Z</time></trkpt><trkpt lat="44.83238742703702" lon="12.175335723295067"><ele>1.3333333333333333</ele><time>2026-04-25T11:38:48Z</time></trkpt><trkpt lat="44.83244997899384" lon="12.175374935373707"><ele>2.0</ele><time>2026-04-25T11:38:50Z</time></trkpt><trkpt lat="44.83253489394935" lon="12.175407405840456"><ele>1.9999999999999998</ele><time>2026-04-25T11:38:53Z</time></trkpt><trkpt lat="44.83263284141178" lon="12.175432150448529"><ele>2.0</ele><time>2026-04-25T11:38:56Z</time></trkpt><trkpt lat="44.832694760638525" lon="12.175460613963716"><ele>2.0</ele><time>2026-04-25T11:38:58Z</time></trkpt><trkpt lat="44.832767535884024" lon="12.175475999177227"><ele>2.0</ele><time>2026-04-25T11:39:00Z</time></trkpt><trkpt lat="44.832834385562535" lon="12.17546077103371"><ele>1.9999999999999998</ele><time>2026-04-25T11:39:02Z</time></trkpt><trkpt lat="44.832911711179065" lon="12.175447852228075"><ele>2.0</ele><time>2026-04-25T11:39:05Z</time></trkpt><trkpt lat="44.83300006071835" lon="12.175470320108975"><ele>1.8333333333333333</ele><time>2026-04-25T11:39:08Z</time></trkpt><trkpt lat="44.83307745906757" lon="12.17548132985241"><ele>1.6666666666666665</ele><time>2026-04-25T11:39:10Z</time></trkpt><trkpt lat="44.83315840815781" lon="12.17550788982614"><ele>1.5</ele><time>2026-04-25T11:39:13Z</time></trkpt><trkpt lat="44.83321679506119" lon="12.175587409681967"><ele>1.3333333333333333</ele><time>2026-04-25T11:39:17Z</time></trkpt><trkpt lat="44.833193980931156" lon="12.175683464230108"><ele>1.1666666666666665</ele><time>2026-04-25T11:39:19Z</time></trkpt><trkpt lat="44.83317714532699" lon="12.175793554502835"><ele>1.0</ele><time>2026-04-25T11:39:21Z</time></trkpt><trkpt lat="44.83316954185894" lon="12.17590712523993"><ele>0.9999999999999999</ele><time>2026-04-25T11:39:23Z</time></trkpt><trkpt lat="44.833151953199774" lon="12.17602393282201"><ele>1.0</ele><time>2026-04-25T11:39:25Z</time></trkpt><trkpt lat="44.83314522543792" lon="12.176150825421589"><ele>1.0</ele><time>2026-04-25T11:39:27Z</time></trkpt><trkpt lat="44.83313783186932" lon="12.176276642730205"><ele>1.0</ele><time>2026-04-25T11:39:29Z</time></trkpt><trkpt lat="44.83313662138598" lon="12.176404388166407"><ele>0.9999999999999999</ele><time>2026-04-25T11:39:31Z</time></trkpt><trkpt lat="44.833136764524035" lon="12.176532363965276"><ele>1.0</ele><time>2026-04-25T11:39:33Z</time></trkpt><trkpt lat="44.83312294002215" lon="12.176661926810358"><ele>0.8333333333333333</ele><time>2026-04-25T11:39:35Z</time></trkpt><trkpt lat="44.833101819438525" lon="12.176787596038713"><ele>0.6666666666666666</ele><time>2026-04-25T11:39:37Z</time></trkpt><trkpt lat="44.83311477604048" lon="12.176903996346763"><ele>0.5</ele><time>2026-04-25T11:39:39Z</time></trkpt><trkpt lat="44.83308492250744" lon="12.17700594544548"><ele>0.3333333333333333</ele><time>2026-04-25T11:39:41Z</time></trkpt><trkpt lat="44.833065177840695" lon="12.177117468122713"><ele>0.16666666666666666</ele><time>2026-04-25T11:39:43Z</time></trkpt><trkpt lat="44.83305738522357" lon="12.177243136782495"><ele>0.0</ele><time>2026-04-25T11:39:45Z</time></trkpt><trkpt lat="44.83304272426658" lon="12.177349526928118"><ele>-0.16666666666666666</ele><time>2026-04-25T11:39:47Z</time></trkpt><trkpt lat="44.833034072828916" lon="12.177462290059553"><ele>-0.3333333333333333</ele><time>2026-04-25T11:39:49Z</time></trkpt><trkpt lat="44.83303142871776" lon="12.177565353525976"><ele>-0.5</ele><time>2026-04-25T11:39:51Z</time></trkpt><trkpt lat="44.83301739044071" lon="12.177679275101477"><ele>-0.6666666666666666</ele><time>2026-04-25T11:39:53Z</time></trkpt><trkpt lat="44.83299697347503" lon="12.177799182850661"><ele>-0.8333333333333333</ele><time>2026-04-25T11:39:55Z</time></trkpt><trkpt lat="44.83298268661369" lon="12.177912329272376"><ele>-1.0</ele><time>2026-04-25T11:39:57Z</time></trkpt><trkpt lat="44.8329425233287" lon="12.17808880562415"><ele>-1.5</ele><time>2026-04-25T11:40:00Z</time></trkpt><trkpt lat="44.83291560974283" lon="12.178196809733064"><ele>-2.0</ele><time>2026-04-25T11:40:02Z</time></trkpt><trkpt lat="44.832883642586985" lon="12.178297697116495"><ele>-2.5</ele><time>2026-04-25T11:40:04Z</time></trkpt><trkpt lat="44.83285468256448" lon="12.178404166999696"><ele>-3.0</ele><time>2026-04-25T11:40:06Z</time></trkpt><trkpt lat="44.832808129346105" lon="12.178511704369198"><ele>-3.4999999999999996</ele><time>2026-04-25T11:40:08Z</time></trkpt><trkpt lat="44.83276384969345" lon="12.178626810791872"><ele>-4.0</ele><time>2026-04-25T11:40:10Z</time></trkpt><trkpt lat="44.83273708538442" lon="12.17874918130396"><ele>-4.0</ele><time>2026-04-25T11:40:12Z</time></trkpt><trkpt lat="44.83270368239956" lon="12.178866495823103"><ele>-4.0</ele><time>2026-04-25T11:40:14Z</time></trkpt><trkpt lat="44.83266776653892" lon="12.17898246539313"><ele>-4.0</ele><time>2026-04-25T11:40:16Z</time></trkpt><trkpt lat="44.83263434136272" lon="12.179106251221905"><ele>-4.0</ele><time>2026-04-25T11:40:18Z</time></trkpt><trkpt lat="44.83259435380947" lon="12.179222053398862"><ele>-4.0</ele><time>2026-04-25T11:40:20Z</time></trkpt><trkpt lat="44.83255925866938" lon="12.179341947173338"><ele>-4.0</ele><time>2026-04-25T11:40:22Z</time></trkpt><trkpt lat="44.83252523948843" lon="12.179461048489394"><ele>-4.0</ele><time>2026-04-25T11:40:24Z</time></trkpt><trkpt lat="44.8324876015664" lon="12.179579151336927"><ele>-4.0</ele><time>2026-04-25T11:40:26Z</time></trkpt><trkpt lat="44.83245625880131" lon="12.179704331387281"><ele>-4.0</ele><time>2026-04-25T11:40:28.001Z</time></trkpt><trkpt lat="44.83242047246043" lon="12.179823321869657"><ele>-4.0</ele><time>2026-04-25T11:40:30.001Z</time></trkpt><trkpt lat="44.832389060316814" lon="12.179943442715848"><ele>-4.0</ele><time>2026-04-25T11:40:32.001Z</time></trkpt><trkpt lat="44.83235612977043" lon="12.180060984522266"><ele>-4.0</ele><time>2026-04-25T11:40:34.001Z</time></trkpt><trkpt lat="44.832323256849904" lon="12.180182603412176"><ele>-4.0</ele><time>2026-04-25T11:40:36.001Z</time></trkpt><trkpt lat="44.83228790549772" lon="12.18030345975666"><ele>-4.0</ele><time>2026-04-25T11:40:38.001Z</time></trkpt><trkpt lat="44.83225348519692" lon="12.180427634756896"><ele>-4.0</ele><time>2026-04-25T11:40:40.001Z</time></trkpt><trkpt lat="44.83221888545463" lon="12.180544593692899"><ele>-4.0</ele><time>2026-04-25T11:40:41.999Z</time></trkpt><trkpt lat="44.832188180696264" lon="12.180663679468084"><ele>-4.0</ele><time>2026-04-25T11:40:44Z</time></trkpt><trkpt lat="44.832155718664424" lon="12.180776193508112"><ele>-4.0</ele><time>2026-04-25T11:40:46Z</time></trkpt><trkpt lat="44.83212038450873" lon="12.180895634718404"><ele>-4.0</ele><time>2026-04-25T11:40:48Z</time></trkpt><trkpt lat="44.832086448848116" lon="12.181018522626555"><ele>-4.0</ele><time>2026-04-25T11:40:50Z</time></trkpt><trkpt lat="44.83205387709202" lon="12.18113614906477"><ele>-4.2</ele><time>2026-04-25T11:40:52Z</time></trkpt><trkpt lat="44.83202181911492" lon="12.18126052861964"><ele>-4.4</ele><time>2026-04-25T11:40:54Z</time></trkpt><trkpt lat="44.831986870192004" lon="12.181382710045286"><ele>-4.6</ele><time>2026-04-25T11:40:56Z</time></trkpt><trkpt lat="44.831950708060575" lon="12.18150277650162"><ele>-4.8</ele><time>2026-04-25T11:40:58Z</time></trkpt><trkpt lat="44.83191740191858" lon="12.181621687116206"><ele>-5.0</ele><time>2026-04-25T11:41:00Z</time></trkpt><trkpt lat="44.831884836473016" lon="12.181741388520921"><ele>-5.0</ele><time>2026-04-25T11:41:02Z</time></trkpt><trkpt lat="44.831856716146696" lon="12.181861485835817"><ele>-5.0</ele><time>2026-04-25T11:41:04Z</time></trkpt><trkpt lat="44.831832388968536" lon="12.181981942147745"><ele>-5.0</ele><time>2026-04-25T11:41:06Z</time></trkpt><trkpt lat="44.83178983963203" lon="12.182099245491322"><ele>-5.0</ele><time>2026-04-25T11:41:08Z</time></trkpt><trkpt lat="44.83175860043496" lon="12.18221866852494"><ele>-5.0</ele><time>2026-04-25T11:41:10Z</time></trkpt><trkpt lat="44.831729699723866" lon="12.18233509558324"><ele>-4.833333333333334</ele><time>2026-04-25T11:41:12Z</time></trkpt><trkpt lat="44.83170345206752" lon="12.18244021324369"><ele>-4.666666666666667</ele><time>2026-04-25T11:41:14Z</time></trkpt><trkpt lat="44.83167561704099" lon="12.182546048406618"><ele>-4.5</ele><time>2026-04-25T11:41:16Z</time></trkpt><trkpt lat="44.83164175125107" lon="12.182661718624358"><ele>-4.333333333333333</ele><time>2026-04-25T11:41:18Z</time></trkpt><trkpt lat="44.83161155896345" lon="12.18277683721967"><ele>-4.166666666666666</ele><time>2026-04-25T11:41:20Z</time></trkpt><trkpt lat="44.831581329292" lon="12.182880458495465"><ele>-4.0</ele><time>2026-04-25T11:41:22Z</time></trkpt><trkpt lat="44.83155034351353" lon="12.18298667916345"><ele>-3.9999999999999996</ele><time>2026-04-25T11:41:24Z</time></trkpt><trkpt lat="44.83151921673202" lon="12.183103346968837"><ele>-4.0</ele><time>2026-04-25T11:41:26Z</time></trkpt><trkpt lat="44.83148669185915" lon="12.18322162977491"><ele>-4.0</ele><time>2026-04-25T11:41:28Z</time></trkpt><trkpt lat="44.83145931036511" lon="12.183328446530135"><ele>-4.0</ele><time>2026-04-25T11:41:30Z</time></trkpt><trkpt lat="44.83143165436743" lon="12.183436722537202"><ele>-3.9999999999999996</ele><time>2026-04-25T11:41:32Z</time></trkpt><trkpt lat="44.831397971345424" lon="12.18354870067777"><ele>-4.0</ele><time>2026-04-25T11:41:34Z</time></trkpt><trkpt lat="44.83136910509578" lon="12.183653880583348"><ele>-3.9999999999999996</ele><time>2026-04-25T11:41:36Z</time></trkpt><trkpt lat="44.83133723593" lon="12.183761606201761"><ele>-4.0</ele><time>2026-04-25T11:41:38Z</time></trkpt><trkpt lat="44.83130530913033" lon="12.183876904759213"><ele>-4.0</ele><time>2026-04-25T11:41:40Z</time></trkpt><trkpt lat="44.83127388126196" lon="12.18399639258787"><ele>-4.0</ele><time>2026-04-25T11:41:42Z</time></trkpt><trkpt lat="44.831242756901375" lon="12.184114276338821"><ele>-3.9999999999999996</ele><time>2026-04-25T11:41:44Z</time></trkpt><trkpt lat="44.83121083843982" lon="12.184231251980828"><ele>-4.0</ele><time>2026-04-25T11:41:46Z</time></trkpt><trkpt lat="44.831176500940394" lon="12.184347683866294"><ele>-3.8000000000000003</ele><time>2026-04-25T11:41:48Z</time></trkpt><trkpt lat="44.831139146052344" lon="12.184466130169254"><ele>-3.6000000000000005</ele><time>2026-04-25T11:41:50Z</time></trkpt><trkpt lat="44.83110888787157" lon="12.184583592708739"><ele>-3.4</ele><time>2026-04-25T11:41:52Z</time></trkpt><trkpt lat="44.83107470467326" lon="12.184703259244976"><ele>-3.2</ele><time>2026-04-25T11:41:54Z</time></trkpt><trkpt lat="44.83104056397905" lon="12.184821589482175"><ele>-3.0</ele><time>2026-04-25T11:41:56Z</time></trkpt><trkpt lat="44.83100855863839" lon="12.184940679932954"><ele>-3.2</ele><time>2026-04-25T11:41:58Z</time></trkpt><trkpt lat="44.830975661142226" lon="12.185057562907172"><ele>-3.4</ele><time>2026-04-25T11:42:00Z</time></trkpt><trkpt lat="44.830942846308815" lon="12.18517844598492"><ele>-3.6000000000000005</ele><time>2026-04-25T11:42:02Z</time></trkpt><trkpt lat="44.83090930307079" lon="12.185299464198893"><ele>-3.8000000000000003</ele><time>2026-04-25T11:42:04Z</time></trkpt><trkpt lat="44.830874502612815" lon="12.18541819996322"><ele>-4.0</ele><time>2026-04-25T11:42:06Z</time></trkpt><trkpt lat="44.830846194375255" lon="12.185538289471415"><ele>-4.0</ele><time>2026-04-25T11:42:08Z</time></trkpt><trkpt lat="44.83081201969053" lon="12.18565361341028"><ele>-4.0</ele><time>2026-04-25T11:42:10Z</time></trkpt><trkpt lat="44.83078271436025" lon="12.185771730968144"><ele>-4.0</ele><time>2026-04-25T11:42:12Z</time></trkpt><trkpt lat="44.830742765963535" lon="12.185891066477684"><ele>-4.0</ele><time>2026-04-25T11:42:14Z</time></trkpt><trkpt lat="44.83071041328253" lon="12.186008497098642"><ele>-4.0</ele><time>2026-04-25T11:42:16Z</time></trkpt><trkpt lat="44.83067516855211" lon="12.186128365068262"><ele>-4.0</ele><time>2026-04-25T11:42:18Z</time></trkpt><trkpt lat="44.830641301654865" lon="12.186250123866024"><ele>-4.0</ele><time>2026-04-25T11:42:20Z</time></trkpt><trkpt lat="44.83060916433379" lon="12.186371394190626"><ele>-4.0</ele><time>2026-04-25T11:42:22.001Z</time></trkpt><trkpt lat="44.830571996441115" lon="12.186495610510049"><ele>-4.0</ele><time>2026-04-25T11:42:24.001Z</time></trkpt><trkpt lat="44.830536706185214" lon="12.186618223381283"><ele>-4.0</ele><time>2026-04-25T11:42:26.001Z</time></trkpt><trkpt lat="44.830504345514925" lon="12.186737450435086"><ele>-4.0</ele><time>2026-04-25T11:42:28.001Z</time></trkpt><trkpt lat="44.830470406094825" lon="12.186859377044387"><ele>-4.0</ele><time>2026-04-25T11:42:30.001Z</time></trkpt><trkpt lat="44.8304383293254" lon="12.18697604299327"><ele>-4.0</ele><time>2026-04-25T11:42:32.001Z</time></trkpt><trkpt lat="44.83040365268014" lon="12.187095989305403"><ele>-4.0</ele><time>2026-04-25T11:42:34.001Z</time></trkpt><trkpt lat="44.830383531928334" lon="12.187192859142243"><ele>-4.0</ele><time>2026-04-25T11:42:36.001Z</time></trkpt><trkpt lat="44.83034093700448" lon="12.187330666322971"><ele>-4.0</ele><time>2026-04-25T11:42:38.001Z</time></trkpt><trkpt lat="44.83030680313157" lon="12.187449861474068"><ele>-4.0</ele><time>2026-04-25T11:42:40.001Z</time></trkpt><trkpt lat="44.83027479338557" lon="12.187570355606917"><ele>-4.0</ele><time>2026-04-25T11:42:42.001Z</time></trkpt><trkpt lat="44.830241238267725" lon="12.187686130547979"><ele>-4.0</ele><time>2026-04-25T11:42:44.001Z</time></trkpt><trkpt lat="44.83020946203079" lon="12.187808212168836"><ele>-4.0</ele><time>2026-04-25T11:42:46.001Z</time></trkpt><trkpt lat="44.83017746976279" lon="12.187924584137777"><ele>-4.0</ele><time>2026-04-25T11:42:48Z</time></trkpt><trkpt lat="44.83014447825421" lon="12.188037589481848"><ele>-4.0</ele><time>2026-04-25T11:42:50Z</time></trkpt><trkpt lat="44.83011055128301" lon="12.188159104349207"><ele>-4.0</ele><time>2026-04-25T11:42:52Z</time></trkpt><trkpt lat="44.83007738915027" lon="12.188281929422953"><ele>-4.0</ele><time>2026-04-25T11:42:54Z</time></trkpt><trkpt lat="44.83004500867902" lon="12.188400763180438"><ele>-4.0</ele><time>2026-04-25T11:42:56Z</time></trkpt><trkpt lat="44.83001038879829" lon="12.188513494953492"><ele>-3.9999999999999996</ele><time>2026-04-25T11:42:58Z</time></trkpt><trkpt lat="44.82997842192124" lon="12.188635382857253"><ele>-4.0</ele><time>2026-04-25T11:43:00Z</time></trkpt><trkpt lat="44.82995094017778" lon="12.188754271809627"><ele>-4.0</ele><time>2026-04-25T11:43:02Z</time></trkpt><trkpt lat="44.8299153710667" lon="12.188861014803381"><ele>-4.0</ele><time>2026-04-25T11:43:04Z</time></trkpt><trkpt lat="44.82988235946628" lon="12.188981170489514"><ele>-3.9999999999999996</ele><time>2026-04-25T11:43:06Z</time></trkpt><trkpt lat="44.82984832411735" lon="12.189100062255493"><ele>-4.0</ele><time>2026-04-25T11:43:08Z</time></trkpt><trkpt lat="44.82981938587009" lon="12.189211055523316"><ele>-3.9999999999999996</ele><time>2026-04-25T11:43:10Z</time></trkpt><trkpt lat="44.82979174920078" lon="12.189315008663856"><ele>-4.0</ele><time>2026-04-25T11:43:12Z</time></trkpt><trkpt lat="44.829762785152724" lon="12.189426237841792"><ele>-4.0</ele><time>2026-04-25T11:43:14Z</time></trkpt><trkpt lat="44.82972868861826" lon="12.189526945268604"><ele>-4.0</ele><time>2026-04-25T11:43:16Z</time></trkpt><trkpt lat="44.82970731828521" lon="12.18963037757553"><ele>-3.9999999999999996</ele><time>2026-04-25T11:43:18Z</time></trkpt><trkpt lat="44.82967653748342" lon="12.189748252565286"><ele>-4.0</ele><time>2026-04-25T11:43:20Z</time></trkpt><trkpt lat="44.82964317653547" lon="12.189859636001753"><ele>-3.9999999999999996</ele><time>2026-04-25T11:43:22Z</time></trkpt><trkpt lat="44.82961407589623" lon="12.189962420837585"><ele>-4.0</ele><time>2026-04-25T11:43:24Z</time></trkpt><trkpt lat="44.8295803968092" lon="12.190075103055134"><ele>-4.0</ele><time>2026-04-25T11:43:26Z</time></trkpt><trkpt lat="44.829550460730694" lon="12.190191381675124"><ele>-4.0</ele><time>2026-04-25T11:43:28Z</time></trkpt><trkpt lat="44.8295165966728" lon="12.19031078510009"><ele>-3.9999999999999996</ele><time>2026-04-25T11:43:30Z</time></trkpt><trkpt lat="44.82948374201804" lon="12.190431437220235"><ele>-4.0</ele><time>2026-04-25T11:43:32Z</time></trkpt><trkpt lat="44.829449628735965" lon="12.190547546771292"><ele>-3.9999999999999996</ele><time>2026-04-25T11:43:34Z</time></trkpt><trkpt lat="44.8294163798045" lon="12.190663378405393"><ele>-4.0</ele><time>2026-04-25T11:43:36Z</time></trkpt><trkpt lat="44.82938682780506" lon="12.190781553060145"><ele>-4.0</ele><time>2026-04-25T11:43:38Z</time></trkpt><trkpt lat="44.82935079399069" lon="12.190897795893212"><ele>-4.0</ele><time>2026-04-25T11:43:40Z</time></trkpt><trkpt lat="44.829321232525274" lon="12.19101610397401"><ele>-3.9999999999999996</ele><time>2026-04-25T11:43:42Z</time></trkpt><trkpt lat="44.82928713634921" lon="12.19113483956291"><ele>-4.0</ele><time>2026-04-25T11:43:44Z</time></trkpt><trkpt lat="44.82926002397019" lon="12.191246443459582"><ele>-4.166666666666666</ele><time>2026-04-25T11:43:46.001Z</time></trkpt><trkpt lat="44.829228897893" lon="12.191355590560097"><ele>-4.333333333333333</ele><time>2026-04-25T11:43:48.001Z</time></trkpt><trkpt lat="44.82920775148389" lon="12.19146050101565"><ele>-4.5</ele><time>2026-04-25T11:43:50.001Z</time></trkpt><trkpt lat="44.829186364993234" lon="12.191564250057064"><ele>-4.666666666666667</ele><time>2026-04-25T11:43:52.001Z</time></trkpt><trkpt lat="44.82914544225904" lon="12.1916727933623"><ele>-4.833333333333334</ele><time>2026-04-25T11:43:54.001Z</time></trkpt><trkpt lat="44.829102680787265" lon="12.191780331746214"><ele>-5.0</ele><time>2026-04-25T11:43:56.001Z</time></trkpt><trkpt lat="44.829076084792916" lon="12.191897886067203"><ele>-4.666666666666667</ele><time>2026-04-25T11:43:58.001Z</time></trkpt><trkpt lat="44.82904606134169" lon="12.19201460433141"><ele>-4.333333333333334</ele><time>2026-04-25T11:44:00.001Z</time></trkpt><trkpt lat="44.82901559425669" lon="12.192129895316219"><ele>-4.0</ele><time>2026-04-25T11:44:02.001Z</time></trkpt><trkpt lat="44.8289861629799" lon="12.192242306738102"><ele>-3.666666666666667</ele><time>2026-04-25T11:44:04.001Z</time></trkpt><trkpt lat="44.82897688684347" lon="12.192351178308266"><ele>-3.3333333333333335</ele><time>2026-04-25T11:44:06.001Z</time></trkpt><trkpt lat="44.828969949452194" lon="12.192461110646315"><ele>-3.0</ele><time>2026-04-25T11:44:08.001Z</time></trkpt><trkpt lat="44.82896537485275" lon="12.192585948549038"><ele>-2.6666666666666665</ele><time>2026-04-25T11:44:10.001Z</time></trkpt><trkpt lat="44.82896894760986" lon="12.19270217413399"><ele>-2.3333333333333335</ele><time>2026-04-25T11:44:12.001Z</time></trkpt><trkpt lat="44.82897190989746" lon="12.192810552853947"><ele>-2.0</ele><time>2026-04-25T11:44:14.001Z</time></trkpt><trkpt lat="44.828979749155195" lon="12.192923966505651"><ele>-1.6666666666666665</ele><time>2026-04-25T11:44:16.001Z</time></trkpt><trkpt lat="44.828984813432534" lon="12.193043520499774"><ele>-1.3333333333333333</ele><time>2026-04-25T11:44:18.001Z</time></trkpt><trkpt lat="44.82898610547537" lon="12.193164791556551"><ele>-1.0</ele><time>2026-04-25T11:44:20.001Z</time></trkpt><trkpt lat="44.82898408347417" lon="12.193282321917012"><ele>-1.0</ele><time>2026-04-25T11:44:22.001Z</time></trkpt><trkpt lat="44.82895186596218" lon="12.193400300181398"><ele>-1.0</ele><time>2026-04-25T11:44:24.001Z</time></trkpt><trkpt lat="44.82891812478403" lon="12.193526620556783"><ele>-1.0</ele><time>2026-04-25T11:44:26.001Z</time></trkpt><trkpt lat="44.82888528994963" lon="12.19364423038945"><ele>-1.0</ele><time>2026-04-25T11:44:28.001Z</time></trkpt><trkpt lat="44.828851761852455" lon="12.193765216742186"><ele>-1.0</ele><time>2026-04-25T11:44:30.001Z</time></trkpt><trkpt lat="44.828822733044795" lon="12.193879420114584"><ele>-1.0</ele><time>2026-04-25T11:44:32.001Z</time></trkpt><trkpt lat="44.82878650802359" lon="12.19399260204146"><ele>-1.0</ele><time>2026-04-25T11:44:34.001Z</time></trkpt><trkpt lat="44.82875245131637" lon="12.194118954948264"><ele>-1.0</ele><time>2026-04-25T11:44:36.001Z</time></trkpt><trkpt lat="44.82872301265576" lon="12.194233588667107"><ele>-1.0</ele><time>2026-04-25T11:44:38.001Z</time></trkpt><trkpt lat="44.8286885203314" lon="12.19435375709258"><ele>-1.0</ele><time>2026-04-25T11:44:40.001Z</time></trkpt><trkpt lat="44.82865637830555" lon="12.194472706622161"><ele>-1.2000000000000002</ele><time>2026-04-25T11:44:42.001Z</time></trkpt><trkpt lat="44.82862394615596" lon="12.194589581340328"><ele>-1.4000000000000001</ele><time>2026-04-25T11:44:44.001Z</time></trkpt><trkpt lat="44.82859518583919" lon="12.194717075994747"><ele>-1.6</ele><time>2026-04-25T11:44:46.001Z</time></trkpt><trkpt lat="44.828562109683624" lon="12.194832591255626"><ele>-1.8</ele><time>2026-04-25T11:44:48.001Z</time></trkpt><trkpt lat="44.82852016429271" lon="12.194947365862742"><ele>-2.0</ele><time>2026-04-25T11:44:50.001Z</time></trkpt><trkpt lat="44.82849053678651" lon="12.195067950798428"><ele>-2.0</ele><time>2026-04-25T11:44:52.001Z</time></trkpt><trkpt lat="44.82845824649854" lon="12.195186557497394"><ele>-2.0</ele><time>2026-04-25T11:44:54.001Z</time></trkpt><trkpt lat="44.82842394833748" lon="12.195308951728283"><ele>-2.0</ele><time>2026-04-25T11:44:56.001Z</time></trkpt><trkpt lat="44.82839024361481" lon="12.195429496306502"><ele>-2.0</ele><time>2026-04-25T11:44:58.001Z</time></trkpt><trkpt lat="44.828356254176384" lon="12.195547507349895"><ele>-2.0</ele><time>2026-04-25T11:45:00.001Z</time></trkpt><trkpt lat="44.82832620723164" lon="12.195670551967648"><ele>-2.0</ele><time>2026-04-25T11:45:02.001Z</time></trkpt><trkpt lat="44.82829584516629" lon="12.19578968653732"><ele>-2.0</ele><time>2026-04-25T11:45:04.001Z</time></trkpt><trkpt lat="44.82825993232366" lon="12.195907742673352"><ele>-2.0</ele><time>2026-04-25T11:45:06.001Z</time></trkpt><trkpt lat="44.82822541823015" lon="12.196033238543338"><ele>-2.0</ele><time>2026-04-25T11:45:08.001Z</time></trkpt><trkpt lat="44.82818993701968" lon="12.196155864405306"><ele>-2.0</ele><time>2026-04-25T11:45:10.001Z</time></trkpt><trkpt lat="44.82815698970127" lon="12.196272901282473"><ele>-2.0</ele><time>2026-04-25T11:45:12.001Z</time></trkpt><trkpt lat="44.82812626467477" lon="12.196391400881332"><ele>-2.0</ele><time>2026-04-25T11:45:14.001Z</time></trkpt><trkpt lat="44.82808882950869" lon="12.19652365936787"><ele>-2.0</ele><time>2026-04-25T11:45:16.001Z</time></trkpt><trkpt lat="44.82806839702445" lon="12.196630292226923"><ele>-2.0</ele><time>2026-04-25T11:45:18.001Z</time></trkpt><trkpt lat="44.82802743680452" lon="12.196748564460192"><ele>-2.0</ele><time>2026-04-25T11:45:20.001Z</time></trkpt><trkpt lat="44.82799583144914" lon="12.196871282574026"><ele>-2.4000000000000004</ele><time>2026-04-25T11:45:22.001Z</time></trkpt><trkpt lat="44.82796412525034" lon="12.196991738181241"><ele>-2.8000000000000003</ele><time>2026-04-25T11:45:24.001Z</time></trkpt><trkpt lat="44.82792959146125" lon="12.197108637952223"><ele>-3.2</ele><time>2026-04-25T11:45:26.001Z</time></trkpt><trkpt lat="44.82789179800191" lon="12.197231326831606"><ele>-3.6</ele><time>2026-04-25T11:45:28.001Z</time></trkpt><trkpt lat="44.82785930235396" lon="12.197347400184807"><ele>-4.0</ele><time>2026-04-25T11:45:30.001Z</time></trkpt><trkpt lat="44.82782826045907" lon="12.197468314464261"><ele>-4.0</ele><time>2026-04-25T11:45:32.001Z</time></trkpt><trkpt lat="44.82780073310787" lon="12.197595569320784"><ele>-4.0</ele><time>2026-04-25T11:45:34.001Z</time></trkpt><trkpt lat="44.827757052377116" lon="12.197704040592914"><ele>-4.0</ele><time>2026-04-25T11:45:36.001Z</time></trkpt><trkpt lat="44.827726444962764" lon="12.197828204397815"><ele>-4.0</ele><time>2026-04-25T11:45:38.001Z</time></trkpt><trkpt lat="44.827696990296246" lon="12.19794940428365"><ele>-4.0</ele><time>2026-04-25T11:45:40.001Z</time></trkpt><trkpt lat="44.827659731036555" lon="12.198075440142812"><ele>-4.0</ele><time>2026-04-25T11:45:42.001Z</time></trkpt><trkpt lat="44.82762737308477" lon="12.198197150962537"><ele>-4.0</ele><time>2026-04-25T11:45:44.001Z</time></trkpt><trkpt lat="44.82759262422126" lon="12.198316667904821"><ele>-4.0</ele><time>2026-04-25T11:45:46.001Z</time></trkpt><trkpt lat="44.82756397356617" lon="12.19844057171196"><ele>-4.0</ele><time>2026-04-25T11:45:48.001Z</time></trkpt><trkpt lat="44.82752929504682" lon="12.19855874106726"><ele>-4.0</ele><time>2026-04-25T11:45:50.001Z</time></trkpt><trkpt lat="44.827492622962225" lon="12.198679466132702"><ele>-3.9999999999999996</ele><time>2026-04-25T11:45:52.001Z</time></trkpt><trkpt lat="44.82747087588814" lon="12.198789814661065"><ele>-4.0</ele><time>2026-04-25T11:45:54.001Z</time></trkpt><trkpt lat="44.82743952470764" lon="12.198893434707225"><ele>-4.0</ele><time>2026-04-25T11:45:56.001Z</time></trkpt><trkpt lat="44.82740993303741" lon="12.198992532204867"><ele>-4.0</ele><time>2026-04-25T11:45:58.001Z</time></trkpt><trkpt lat="44.82738190892146" lon="12.199093049066104"><ele>-3.9999999999999996</ele><time>2026-04-25T11:46:00.001Z</time></trkpt><trkpt lat="44.8273518084535" lon="12.199209668282522"><ele>-4.0</ele><time>2026-04-25T11:46:02.001Z</time></trkpt><trkpt lat="44.827316872719976" lon="12.199317952253544"><ele>-4.166666666666666</ele><time>2026-04-25T11:46:04.001Z</time></trkpt><trkpt lat="44.82729360650641" lon="12.199424859934224"><ele>-4.333333333333333</ele><time>2026-04-25T11:46:06.001Z</time></trkpt><trkpt lat="44.82726198461282" lon="12.19954100616931"><ele>-4.5</ele><time>2026-04-25T11:46:08.001Z</time></trkpt><trkpt lat="44.82722395069417" lon="12.199654761316282"><ele>-4.666666666666667</ele><time>2026-04-25T11:46:10.001Z</time></trkpt><trkpt lat="44.82718450763099" lon="12.199770201256994"><ele>-4.833333333333334</ele><time>2026-04-25T11:46:12.001Z</time></trkpt><trkpt lat="44.82715700122295" lon="12.19989420816833"><ele>-5.0</ele><time>2026-04-25T11:46:14.001Z</time></trkpt><trkpt lat="44.827127246687056" lon="12.200011378263888"><ele>-4.666666666666667</ele><time>2026-04-25T11:46:16.001Z</time></trkpt><trkpt lat="44.82709912751762" lon="12.200138228563736"><ele>-4.333333333333334</ele><time>2026-04-25T11:46:18.001Z</time></trkpt><trkpt lat="44.82706694164194" lon="12.200247084805685"><ele>-4.0</ele><time>2026-04-25T11:46:20.001Z</time></trkpt><trkpt lat="44.82703487738014" lon="12.200342259033427"><ele>-3.666666666666667</ele><time>2026-04-25T11:46:22.001Z</time></trkpt><trkpt lat="44.827002608062344" lon="12.200449406757548"><ele>-3.3333333333333335</ele><time>2026-04-25T11:46:24.001Z</time></trkpt><trkpt lat="44.82697633906662" lon="12.200566239961855"><ele>-3.0</ele><time>2026-04-25T11:46:26.001Z</time></trkpt><trkpt lat="44.82695124143296" lon="12.200670085119887"><ele>-3.0</ele><time>2026-04-25T11:46:28.001Z</time></trkpt><trkpt lat="44.8269249873888" lon="12.200763536533294"><ele>-3.0</ele><time>2026-04-25T11:46:30.001Z</time></trkpt><trkpt lat="44.826900487408885" lon="12.200854822931634"><ele>-3.0</ele><time>2026-04-25T11:46:32.001Z</time></trkpt><trkpt lat="44.82687929118047" lon="12.200949170939907"><ele>-3.0</ele><time>2026-04-25T11:46:34.001Z</time></trkpt><trkpt lat="44.82684490114357" lon="12.201066552482832"><ele>-3.0</ele><time>2026-04-25T11:46:37.001Z</time></trkpt><trkpt lat="44.826822598594724" lon="12.201166085213048"><ele>-3.0</ele><time>2026-04-25T11:46:39.001Z</time></trkpt><trkpt lat="44.82679381166004" lon="12.201268845851677"><ele>-3.0</ele><time>2026-04-25T11:46:41.001Z</time></trkpt><trkpt lat="44.82675965462" lon="12.201359450021602"><ele>-3.0</ele><time>2026-04-25T11:46:43.001Z</time></trkpt><trkpt lat="44.826731826316994" lon="12.20143970913025"><ele>-3.0</ele><time>2026-04-25T11:46:45.001Z</time></trkpt><trkpt lat="44.82670758556969" lon="12.201539226852253"><ele>-3.0</ele><time>2026-04-25T11:46:47.001Z</time></trkpt><trkpt lat="44.82667730018404" lon="12.201655267099303"><ele>-3.0</ele><time>2026-04-25T11:46:49.001Z</time></trkpt><trkpt lat="44.82664675412475" lon="12.201773343728261"><ele>-3.0</ele><time>2026-04-25T11:46:51.001Z</time></trkpt><trkpt lat="44.82662000673124" lon="12.201886607116121"><ele>-3.1666666666666665</ele><time>2026-04-25T11:46:53.001Z</time></trkpt><trkpt lat="44.82659000891026" lon="12.201990016274294"><ele>-3.333333333333333</ele><time>2026-04-25T11:46:55.001Z</time></trkpt><trkpt lat="44.826554640545545" lon="12.202098187894336"><ele>-3.5</ele><time>2026-04-25T11:46:57.001Z</time></trkpt><trkpt lat="44.82652364249611" lon="12.20221719195663"><ele>-3.6666666666666665</ele><time>2026-04-25T11:46:59.001Z</time></trkpt><trkpt lat="44.82649131077211" lon="12.202339443136918"><ele>-3.833333333333333</ele><time>2026-04-25T11:47:01.001Z</time></trkpt><trkpt lat="44.826453608631354" lon="12.20245816360267"><ele>-4.0</ele><time>2026-04-25T11:47:03.001Z</time></trkpt><trkpt lat="44.82643062239187" lon="12.202571077264762"><ele>-3.9999999999999996</ele><time>2026-04-25T11:47:05.001Z</time></trkpt><trkpt lat="44.82640590071872" lon="12.202671978703242"><ele>-4.0</ele><time>2026-04-25T11:47:07.001Z</time></trkpt><trkpt lat="44.82638608313522" lon="12.202765806368935"><ele>-4.0</ele><time>2026-04-25T11:47:09.001Z</time></trkpt><trkpt lat="44.826345565424965" lon="12.202876922805364"><ele>-4.0</ele><time>2026-04-25T11:47:11.001Z</time></trkpt><trkpt lat="44.82630748261156" lon="12.202990942428519"><ele>-3.9999999999999996</ele><time>2026-04-25T11:47:13.001Z</time></trkpt><trkpt lat="44.826283853555445" lon="12.203096560521375"><ele>-4.0</ele><time>2026-04-25T11:47:15.001Z</time></trkpt><trkpt lat="44.82625417740583" lon="12.203201241449644"><ele>-3.9999999999999996</ele><time>2026-04-25T11:47:17.001Z</time></trkpt><trkpt lat="44.82621583296027" lon="12.203316420196655"><ele>-4.0</ele><time>2026-04-25T11:47:19.001Z</time></trkpt><trkpt lat="44.8261903173015" lon="12.203431242632767"><ele>-4.0</ele><time>2026-04-25T11:47:21.001Z</time></trkpt><trkpt lat="44.826160549905595" lon="12.203536298531157"><ele>-4.0</ele><time>2026-04-25T11:47:23.001Z</time></trkpt><trkpt lat="44.82614037739233" lon="12.203635602446063"><ele>-3.9999999999999996</ele><time>2026-04-25T11:47:25.001Z</time></trkpt><trkpt lat="44.82611137308542" lon="12.203732264439017"><ele>-4.0</ele><time>2026-04-25T11:47:27.001Z</time></trkpt><trkpt lat="44.82607691088727" lon="12.203843285073818"><ele>-3.9999999999999996</ele><time>2026-04-25T11:47:29.001Z</time></trkpt><trkpt lat="44.82604878039134" lon="12.203960130182516"><ele>-4.0</ele><time>2026-04-25T11:47:31.001Z</time></trkpt><trkpt lat="44.826012495100436" lon="12.204072887710355"><ele>-4.0</ele><time>2026-04-25T11:47:33.001Z</time></trkpt><trkpt lat="44.82598127212733" lon="12.20419459414952"><ele>-4.0</ele><time>2026-04-25T11:47:35.001Z</time></trkpt><trkpt lat="44.82594360093966" lon="12.204311666376626"><ele>-3.9999999999999996</ele><time>2026-04-25T11:47:37.001Z</time></trkpt><trkpt lat="44.82591120863578" lon="12.204430940874568"><ele>-4.0</ele><time>2026-04-25T11:47:39.001Z</time></trkpt><trkpt lat="44.82587987643157" lon="12.204547104307785"><ele>-4.0</ele><time>2026-04-25T11:47:41Z</time></trkpt><trkpt lat="44.825847951163524" lon="12.204669467079695"><ele>-4.0</ele><time>2026-04-25T11:47:43Z</time></trkpt><trkpt lat="44.8258124418113" lon="12.204786983342453"><ele>-4.0</ele><time>2026-04-25T11:47:45Z</time></trkpt><trkpt lat="44.82578055588959" lon="12.20490830630467"><ele>-4.0</ele><time>2026-04-25T11:47:47Z</time></trkpt><trkpt lat="44.82574882734865" lon="12.205027844499716"><ele>-4.0</ele><time>2026-04-25T11:47:49Z</time></trkpt><trkpt lat="44.82571631677725" lon="12.20514719925863"><ele>-3.8000000000000003</ele><time>2026-04-25T11:47:51Z</time></trkpt><trkpt lat="44.825682232896895" lon="12.205266362811619"><ele>-3.6000000000000005</ele><time>2026-04-25T11:47:53Z</time></trkpt><trkpt lat="44.82564749435955" lon="12.205382110805344"><ele>-3.4</ele><time>2026-04-25T11:47:55Z</time></trkpt><trkpt lat="44.82561505947199" lon="12.205500922138993"><ele>-3.2</ele><time>2026-04-25T11:47:57Z</time></trkpt><trkpt lat="44.82558516037149" lon="12.205622257632946"><ele>-3.0</ele><time>2026-04-25T11:47:59Z</time></trkpt><trkpt lat="44.82555337957251" lon="12.205741295400335"><ele>-3.0</ele><time>2026-04-25T11:48:01Z</time></trkpt><trkpt lat="44.82552123816177" lon="12.205863575525814"><ele>-3.0</ele><time>2026-04-25T11:48:03Z</time></trkpt><trkpt lat="44.82548742706669" lon="12.205978455279086"><ele>-3.0</ele><time>2026-04-25T11:48:05Z</time></trkpt><trkpt lat="44.825448433063585" lon="12.206095083707012"><ele>-3.0</ele><time>2026-04-25T11:48:07Z</time></trkpt><trkpt lat="44.82542107989369" lon="12.206218295553496"><ele>-3.0</ele><time>2026-04-25T11:48:09Z</time></trkpt><trkpt lat="44.825389907730575" lon="12.206338734509295"><ele>-3.0</ele><time>2026-04-25T11:48:11Z</time></trkpt><trkpt lat="44.825355307244244" lon="12.206457234713488"><ele>-3.0</ele><time>2026-04-25T11:48:13Z</time></trkpt><trkpt lat="44.82532258569593" lon="12.206575106229629"><ele>-3.0</ele><time>2026-04-25T11:48:15Z</time></trkpt><trkpt lat="44.825288397899364" lon="12.206692793014529"><ele>-3.0</ele><time>2026-04-25T11:48:17Z</time></trkpt><trkpt lat="44.8252565903203" lon="12.206813127381436"><ele>-3.0</ele><time>2026-04-25T11:48:19Z</time></trkpt><trkpt lat="44.825221637307166" lon="12.206927412813723"><ele>-3.0</ele><time>2026-04-25T11:48:21Z</time></trkpt><trkpt lat="44.82518910486944" lon="12.207053806740563"><ele>-3.0</ele><time>2026-04-25T11:48:23Z</time></trkpt><trkpt lat="44.82515537546509" lon="12.207174867858312"><ele>-3.0</ele><time>2026-04-25T11:48:25Z</time></trkpt><trkpt lat="44.82512328280792" lon="12.207297497749645"><ele>-3.0</ele><time>2026-04-25T11:48:27Z</time></trkpt><trkpt lat="44.825091694227545" lon="12.207415253653375"><ele>-3.0</ele><time>2026-04-25T11:48:29Z</time></trkpt><trkpt lat="44.82505732169515" lon="12.207532727680107"><ele>-3.1666666666666665</ele><time>2026-04-25T11:48:31.001Z</time></trkpt><trkpt lat="44.825023046003444" lon="12.207651501457626"><ele>-3.333333333333333</ele><time>2026-04-25T11:48:33.001Z</time></trkpt><trkpt lat="44.8249908624647" lon="12.20777073703817"><ele>-3.5</ele><time>2026-04-25T11:48:35.001Z</time></trkpt><trkpt lat="44.82496118343884" lon="12.20789231634275"><ele>-3.6666666666666665</ele><time>2026-04-25T11:48:37.001Z</time></trkpt><trkpt lat="44.82493886457216" lon="12.208005576562165"><ele>-3.833333333333333</ele><time>2026-04-25T11:48:39.001Z</time></trkpt><trkpt lat="44.824898857471105" lon="12.208103299365265"><ele>-4.0</ele><time>2026-04-25T11:48:41.001Z</time></trkpt><trkpt lat="44.824870920110236" lon="12.208214404765231"><ele>-3.9999999999999996</ele><time>2026-04-25T11:48:43.001Z</time></trkpt><trkpt lat="44.82483870144228" lon="12.208331408460324"><ele>-4.0</ele><time>2026-04-25T11:48:45.001Z</time></trkpt><trkpt lat="44.82481214231161" lon="12.208444173315515"><ele>-4.0</ele><time>2026-04-25T11:48:47.001Z</time></trkpt><trkpt lat="44.8247749104782" lon="12.20855863873804"><ele>-4.0</ele><time>2026-04-25T11:48:49.001Z</time></trkpt><trkpt lat="44.824746708635075" lon="12.208682800276884"><ele>-3.9999999999999996</ele><time>2026-04-25T11:48:51.001Z</time></trkpt><trkpt lat="44.824716103521055" lon="12.208800429554818"><ele>-4.0</ele><time>2026-04-25T11:48:53.001Z</time></trkpt><trkpt lat="44.82469022868499" lon="12.20890646332223"><ele>-3.9999999999999996</ele><time>2026-04-25T11:48:55.001Z</time></trkpt><trkpt lat="44.82465605385131" lon="12.209010542795204"><ele>-4.0</ele><time>2026-04-25T11:48:57.001Z</time></trkpt><trkpt lat="44.82463344735865" lon="12.20911038777937"><ele>-4.0</ele><time>2026-04-25T11:48:59.001Z</time></trkpt><trkpt lat="44.82461313676382" lon="12.209225903387305"><ele>-4.0</ele><time>2026-04-25T11:49:01.001Z</time></trkpt><trkpt lat="44.82462666828075" lon="12.209332256460238"><ele>-3.9999999999999996</ele><time>2026-04-25T11:49:03.001Z</time></trkpt><trkpt lat="44.824674940668636" lon="12.20941600703294"><ele>-4.0</ele><time>2026-04-25T11:49:05.001Z</time></trkpt><trkpt lat="44.82471177617269" lon="12.209499385298587"><ele>-3.9999999999999996</ele><time>2026-04-25T11:49:07.001Z</time></trkpt><trkpt lat="44.824764869954834" lon="12.209571688739887"><ele>-4.0</ele><time>2026-04-25T11:49:09.001Z</time></trkpt><trkpt lat="44.82483040401006" lon="12.209650841909006"><ele>-4.0</ele><time>2026-04-25T11:49:11.001Z</time></trkpt><trkpt lat="44.824894776598676" lon="12.209737253848619"><ele>-4.0</ele><time>2026-04-25T11:49:13.001Z</time></trkpt><trkpt lat="44.82496058599564" lon="12.209819421097095"><ele>-3.9999999999999996</ele><time>2026-04-25T11:49:15.001Z</time></trkpt><trkpt lat="44.82503041528755" lon="12.209904069938839"><ele>-4.0</ele><time>2026-04-25T11:49:17.001Z</time></trkpt><trkpt lat="44.825099725380284" lon="12.20998462657649"><ele>-4.2</ele><time>2026-04-25T11:49:19.001Z</time></trkpt><trkpt lat="44.82516096643637" lon="12.210072705317316"><ele>-4.4</ele><time>2026-04-25T11:49:21.001Z</time></trkpt><trkpt lat="44.825233806320796" lon="12.210156622867046"><ele>-4.6</ele><time>2026-04-25T11:49:23Z</time></trkpt><trkpt lat="44.825298971575485" lon="12.210246141584358"><ele>-4.8</ele><time>2026-04-25T11:49:25Z</time></trkpt><trkpt lat="44.82537009215347" lon="12.210324753286272"><ele>-5.0</ele><time>2026-04-25T11:49:27Z</time></trkpt><trkpt lat="44.82543904625379" lon="12.210410699127571"><ele>-5.0</ele><time>2026-04-25T11:49:29Z</time></trkpt><trkpt lat="44.82550978712687" lon="12.210493695662757"><ele>-5.0</ele><time>2026-04-25T11:49:31Z</time></trkpt><trkpt lat="44.825579321884994" lon="12.210580941530933"><ele>-5.0</ele><time>2026-04-25T11:49:33Z</time></trkpt><trkpt lat="44.82564959637664" lon="12.21066683445888"><ele>-5.0</ele><time>2026-04-25T11:49:35Z</time></trkpt><trkpt lat="44.82571272018153" lon="12.210752136813344"><ele>-5.0</ele><time>2026-04-25T11:49:37Z</time></trkpt><trkpt lat="44.82578177384405" lon="12.210839878561426"><ele>-5.0</ele><time>2026-04-25T11:49:39Z</time></trkpt><trkpt lat="44.825851877731054" lon="12.210919354541268"><ele>-5.0</ele><time>2026-04-25T11:49:41Z</time></trkpt><trkpt lat="44.82591707886932" lon="12.211015142130611"><ele>-5.0</ele><time>2026-04-25T11:49:43Z</time></trkpt><trkpt lat="44.82598274582111" lon="12.211090902757656"><ele>-5.0</ele><time>2026-04-25T11:49:45Z</time></trkpt><trkpt lat="44.82605517907506" lon="12.211173876774502"><ele>-5.0</ele><time>2026-04-25T11:49:47Z</time></trkpt><trkpt lat="44.826120218966835" lon="12.211259749479838"><ele>-5.0</ele><time>2026-04-25T11:49:49Z</time></trkpt><trkpt lat="44.826185595098394" lon="12.211338486033645"><ele>-5.0</ele><time>2026-04-25T11:49:51Z</time></trkpt><trkpt lat="44.82624472315942" lon="12.211414388059826"><ele>-5.0</ele><time>2026-04-25T11:49:53Z</time></trkpt><trkpt lat="44.82630348565466" lon="12.211484366541479"><ele>-5.0</ele><time>2026-04-25T11:49:55Z</time></trkpt><trkpt lat="44.82636003337633" lon="12.211545860142474"><ele>-5.0</ele><time>2026-04-25T11:49:57Z</time></trkpt><trkpt lat="44.82641053571976" lon="12.211631019293282"><ele>-5.0</ele><time>2026-04-25T11:49:59Z</time></trkpt><trkpt lat="44.82647857192998" lon="12.211709245933708"><ele>-4.833333333333334</ele><time>2026-04-25T11:50:01Z</time></trkpt><trkpt lat="44.826535781509875" lon="12.211781547688888"><ele>-4.666666666666667</ele><time>2026-04-25T11:50:03Z</time></trkpt><trkpt lat="44.826595262290304" lon="12.211861709323061"><ele>-4.5</ele><time>2026-04-25T11:50:05Z</time></trkpt><trkpt lat="44.82665488664997" lon="12.211936461569977"><ele>-4.333333333333333</ele><time>2026-04-25T11:50:07Z</time></trkpt><trkpt lat="44.82670674018002" lon="12.212012231810244"><ele>-4.166666666666666</ele><time>2026-04-25T11:50:09Z</time></trkpt><trkpt lat="44.8267542374121" lon="12.212106479856384"><ele>-4.0</ele><time>2026-04-25T11:50:11Z</time></trkpt><trkpt lat="44.82679490425885" lon="12.212219294967811"><ele>-3.9999999999999996</ele><time>2026-04-25T11:50:13Z</time></trkpt><trkpt lat="44.82681353390675" lon="12.212333227758707"><ele>-4.0</ele><time>2026-04-25T11:50:15Z</time></trkpt><trkpt lat="44.82681695814126" lon="12.212448118275793"><ele>-4.0</ele><time>2026-04-25T11:50:17Z</time></trkpt><trkpt lat="44.82679774338787" lon="12.21255140414631"><ele>-4.0</ele><time>2026-04-25T11:50:19Z</time></trkpt><trkpt lat="44.82676273060571" lon="12.212663111742419"><ele>-3.9999999999999996</ele><time>2026-04-25T11:50:21Z</time></trkpt><trkpt lat="44.82671367771777" lon="12.212771246522303"><ele>-4.0</ele><time>2026-04-25T11:50:23Z</time></trkpt><trkpt lat="44.826657788777204" lon="12.212865947590355"><ele>-4.0</ele><time>2026-04-25T11:50:25Z</time></trkpt><trkpt lat="44.826595000750274" lon="12.212959958706184"><ele>-4.0</ele><time>2026-04-25T11:50:27Z</time></trkpt><trkpt lat="44.826535048756824" lon="12.213052917762719"><ele>-4.0</ele><time>2026-04-25T11:50:29Z</time></trkpt><trkpt lat="44.82647461554882" lon="12.213143045092629"><ele>-4.0</ele><time>2026-04-25T11:50:31Z</time></trkpt><trkpt lat="44.826412350137076" lon="12.213244095949092"><ele>-4.0</ele><time>2026-04-25T11:50:33Z</time></trkpt><trkpt lat="44.826354744875424" lon="12.21333913670095"><ele>-3.8000000000000003</ele><time>2026-04-25T11:50:35Z</time></trkpt><trkpt lat="44.826292367670504" lon="12.213436746696054"><ele>-3.6000000000000005</ele><time>2026-04-25T11:50:37Z</time></trkpt><trkpt lat="44.82622955406782" lon="12.213534169294407"><ele>-3.4</ele><time>2026-04-25T11:50:39Z</time></trkpt><trkpt lat="44.826168901368895" lon="12.213629757758623"><ele>-3.2</ele><time>2026-04-25T11:50:41Z</time></trkpt><trkpt lat="44.82611337957948" lon="12.21373056080276"><ele>-3.0</ele><time>2026-04-25T11:50:43Z</time></trkpt><trkpt lat="44.82605535849458" lon="12.213815813680702"><ele>-3.0</ele><time>2026-04-25T11:50:45Z</time></trkpt><trkpt lat="44.82600625839811" lon="12.213911491591821"><ele>-3.0</ele><time>2026-04-25T11:50:47Z</time></trkpt><trkpt lat="44.82595161253604" lon="12.213992115300346"><ele>-3.0</ele><time>2026-04-25T11:50:49Z</time></trkpt><trkpt lat="44.82591027941062" lon="12.214091112820189"><ele>-3.0</ele><time>2026-04-25T11:50:51Z</time></trkpt><trkpt lat="44.825850159040996" lon="12.214183768537719"><ele>-3.0</ele><time>2026-04-25T11:50:53Z</time></trkpt><trkpt lat="44.825802577376145" lon="12.21429013934691"><ele>-3.0</ele><time>2026-04-25T11:50:55Z</time></trkpt><trkpt lat="44.82574731275895" lon="12.214393215046245"><ele>-3.0</ele><time>2026-04-25T11:50:57Z</time></trkpt><trkpt lat="44.82569947174498" lon="12.21449808889838"><ele>-3.0</ele><time>2026-04-25T11:50:59Z</time></trkpt><trkpt lat="44.825654211261394" lon="12.214607136060778"><ele>-3.0</ele><time>2026-04-25T11:51:01Z</time></trkpt><trkpt lat="44.82561001869916" lon="12.214717035010992"><ele>-3.0</ele><time>2026-04-25T11:51:03Z</time></trkpt><trkpt lat="44.82557688941686" lon="12.214834600869533"><ele>-3.0</ele><time>2026-04-25T11:51:05Z</time></trkpt><trkpt lat="44.82553963899744" lon="12.214952792436458"><ele>-3.0</ele><time>2026-04-25T11:51:07Z</time></trkpt><trkpt lat="44.825512401871265" lon="12.215071095365719"><ele>-2.8</ele><time>2026-04-25T11:51:09Z</time></trkpt><trkpt lat="44.82549438075953" lon="12.215196473964413"><ele>-2.5999999999999996</ele><time>2026-04-25T11:51:11Z</time></trkpt><trkpt lat="44.82547936308724" lon="12.215316772346394"><ele>-2.4000000000000004</ele><time>2026-04-25T11:51:13Z</time></trkpt><trkpt lat="44.825466799316715" lon="12.215441905759018"><ele>-2.2</ele><time>2026-04-25T11:51:15Z</time></trkpt><trkpt lat="44.82546284813082" lon="12.215571016630733"><ele>-2.0</ele><time>2026-04-25T11:51:17Z</time></trkpt><trkpt lat="44.825451643721834" lon="12.215702138450684"><ele>-2.0</ele><time>2026-04-25T11:51:19Z</time></trkpt><trkpt lat="44.82544860267384" lon="12.215831984402534"><ele>-2.0</ele><time>2026-04-25T11:51:21Z</time></trkpt><trkpt lat="44.825441002672726" lon="12.21595748427309"><ele>-2.0</ele><time>2026-04-25T11:51:23Z</time></trkpt><trkpt lat="44.82544192280772" lon="12.216081403336721"><ele>-2.0</ele><time>2026-04-25T11:51:25Z</time></trkpt><trkpt lat="44.82544855351175" lon="12.216215675576159"><ele>-2.0</ele><time>2026-04-25T11:51:27Z</time></trkpt><trkpt lat="44.82545343494184" lon="12.21634411989142"><ele>-2.0</ele><time>2026-04-25T11:51:29Z</time></trkpt><trkpt lat="44.82546107191399" lon="12.216472107539001"><ele>-2.0</ele><time>2026-04-25T11:51:31Z</time></trkpt><trkpt lat="44.82546386757396" lon="12.216599847133152"><ele>-2.0</ele><time>2026-04-25T11:51:33Z</time></trkpt><trkpt lat="44.82546865118949" lon="12.216734884393981"><ele>-2.0</ele><time>2026-04-25T11:51:35Z</time></trkpt><trkpt lat="44.825474857279126" lon="12.216867858907001"><ele>-2.0</ele><time>2026-04-25T11:51:37Z</time></trkpt><trkpt lat="44.82548178715028" lon="12.217001187920014"><ele>-2.2</ele><time>2026-04-25T11:51:39Z</time></trkpt><trkpt lat="44.825490798224315" lon="12.217138883369435"><ele>-2.4000000000000004</ele><time>2026-04-25T11:51:41Z</time></trkpt><trkpt lat="44.82549640259095" lon="12.217266205254019"><ele>-2.5999999999999996</ele><time>2026-04-25T11:51:43Z</time></trkpt><trkpt lat="44.82550184082157" lon="12.217392523158788"><ele>-2.8</ele><time>2026-04-25T11:51:45Z</time></trkpt><trkpt lat="44.82550681092594" lon="12.21752185808728"><ele>-3.0</ele><time>2026-04-25T11:51:47Z</time></trkpt><trkpt lat="44.825508352856836" lon="12.217643894910248"><ele>-3.2</ele><time>2026-04-25T11:51:49Z</time></trkpt><trkpt lat="44.825518230437645" lon="12.217773191647138"><ele>-3.4</ele><time>2026-04-25T11:51:51Z</time></trkpt><trkpt lat="44.825514327422255" lon="12.217893651588312"><ele>-3.6000000000000005</ele><time>2026-04-25T11:51:53Z</time></trkpt><trkpt lat="44.82552967097505" lon="12.218027682169078"><ele>-3.8000000000000003</ele><time>2026-04-25T11:51:55Z</time></trkpt><trkpt lat="44.825535433749906" lon="12.218157776944329"><ele>-4.0</ele><time>2026-04-25T11:51:57Z</time></trkpt><trkpt lat="44.82553953243932" lon="12.218284191752117"><ele>-4.2</ele><time>2026-04-25T11:51:59Z</time></trkpt><trkpt lat="44.82554337574605" lon="12.218412305936944"><ele>-4.4</ele><time>2026-04-25T11:52:01Z</time></trkpt><trkpt lat="44.82555270871831" lon="12.218537635486022"><ele>-4.6</ele><time>2026-04-25T11:52:03Z</time></trkpt><trkpt lat="44.825557237033365" lon="12.218671501914033"><ele>-4.8</ele><time>2026-04-25T11:52:05Z</time></trkpt><trkpt lat="44.82556395629127" lon="12.218794126281646"><ele>-5.0</ele><time>2026-04-25T11:52:07Z</time></trkpt><trkpt lat="44.82557627502325" lon="12.218922144077284"><ele>-4.833333333333334</ele><time>2026-04-25T11:52:09Z</time></trkpt><trkpt lat="44.825583959590546" lon="12.219040244479023"><ele>-4.666666666666667</ele><time>2026-04-25T11:52:11Z</time></trkpt><trkpt lat="44.82558980808263" lon="12.219155793453432"><ele>-4.5</ele><time>2026-04-25T11:52:13Z</time></trkpt><trkpt lat="44.82559088841046" lon="12.219260576213898"><ele>-4.333333333333333</ele><time>2026-04-25T11:52:15Z</time></trkpt><trkpt lat="44.825592468375035" lon="12.219368641104131"><ele>-4.166666666666666</ele><time>2026-04-25T11:52:17Z</time></trkpt><trkpt lat="44.825598074404105" lon="12.219479650457806"><ele>-4.0</ele><time>2026-04-25T11:52:19Z</time></trkpt><trkpt lat="44.825611107407425" lon="12.219599874487876"><ele>-3.9999999999999996</ele><time>2026-04-25T11:52:21Z</time></trkpt><trkpt lat="44.82561576372518" lon="12.219714233966908"><ele>-4.0</ele><time>2026-04-25T11:52:23Z</time></trkpt><trkpt lat="44.825621850311464" lon="12.219820559629735"><ele>-4.0</ele><time>2026-04-25T11:52:25Z</time></trkpt><trkpt lat="44.82562224868192" lon="12.219934810682519"><ele>-4.0</ele><time>2026-04-25T11:52:27Z</time></trkpt><trkpt lat="44.82562448062765" lon="12.22006091628039"><ele>-3.9999999999999996</ele><time>2026-04-25T11:52:29Z</time></trkpt><trkpt lat="44.82563175376163" lon="12.220181290475344"><ele>-4.0</ele><time>2026-04-25T11:52:31Z</time></trkpt><trkpt lat="44.82563553998016" lon="12.220289084120633"><ele>-4.166666666666666</ele><time>2026-04-25T11:52:33Z</time></trkpt><trkpt lat="44.82564291606906" lon="12.220393949386802"><ele>-4.333333333333333</ele><time>2026-04-25T11:52:35Z</time></trkpt><trkpt lat="44.82564675762543" lon="12.220503795471155"><ele>-4.5</ele><time>2026-04-25T11:52:37Z</time></trkpt><trkpt lat="44.82564987825829" lon="12.220626250368657"><ele>-4.666666666666667</ele><time>2026-04-25T11:52:39Z</time></trkpt><trkpt lat="44.82565690890588" lon="12.220754456111068"><ele>-4.833333333333334</ele><time>2026-04-25T11:52:41Z</time></trkpt><trkpt lat="44.825661286122106" lon="12.220881710328042"><ele>-5.0</ele><time>2026-04-25T11:52:43Z</time></trkpt><trkpt lat="44.825665307670015" lon="12.221007232309756"><ele>-4.6</ele><time>2026-04-25T11:52:45Z</time></trkpt><trkpt lat="44.8256694098463" lon="12.221125327986508"><ele>-4.2</ele><time>2026-04-25T11:52:47Z</time></trkpt><trkpt lat="44.825679718492665" lon="12.221291486985354"><ele>-3.8</ele><time>2026-04-25T11:52:50Z</time></trkpt><trkpt lat="44.82567990382338" lon="12.221400812545815"><ele>-3.4</ele><time>2026-04-25T11:52:52Z</time></trkpt><trkpt lat="44.82568605605417" lon="12.221524950938267"><ele>-3.0</ele><time>2026-04-25T11:52:54Z</time></trkpt><trkpt lat="44.82569819788504" lon="12.221653909640308"><ele>-3.0</ele><time>2026-04-25T11:52:56Z</time></trkpt><trkpt lat="44.82569783509821" lon="12.22177650072824"><ele>-3.0</ele><time>2026-04-25T11:52:58Z</time></trkpt><trkpt lat="44.825694558001814" lon="12.2218821513327"><ele>-3.0</ele><time>2026-04-25T11:53:00Z</time></trkpt><trkpt lat="44.82571588778566" lon="12.221986690473205"><ele>-3.0</ele><time>2026-04-25T11:53:02Z</time></trkpt><trkpt lat="44.82571917513408" lon="12.222113812363784"><ele>-3.0</ele><time>2026-04-25T11:53:04Z</time></trkpt><trkpt lat="44.82571795934697" lon="12.222236116031914"><ele>-3.0</ele><time>2026-04-25T11:53:06Z</time></trkpt><trkpt lat="44.82573047574946" lon="12.222353455763063"><ele>-3.0</ele><time>2026-04-25T11:53:08Z</time></trkpt><trkpt lat="44.82574367161959" lon="12.222475484086774"><ele>-3.0</ele><time>2026-04-25T11:53:10Z</time></trkpt><trkpt lat="44.8257480725022" lon="12.222600042830381"><ele>-3.0</ele><time>2026-04-25T11:53:12Z</time></trkpt><trkpt lat="44.825755939834465" lon="12.222719801411149"><ele>-3.0</ele><time>2026-04-25T11:53:14Z</time></trkpt><trkpt lat="44.82575551610527" lon="12.222826923773765"><ele>-3.0</ele><time>2026-04-25T11:53:16Z</time></trkpt><trkpt lat="44.82575980371725" lon="12.222947461651637"><ele>-3.0</ele><time>2026-04-25T11:53:18Z</time></trkpt><trkpt lat="44.82576209295739" lon="12.2230750616246"><ele>-3.1666666666666665</ele><time>2026-04-25T11:53:20Z</time></trkpt><trkpt lat="44.82577038914029" lon="12.22320679112206"><ele>-3.333333333333333</ele><time>2026-04-25T11:53:22Z</time></trkpt><trkpt lat="44.825777681841004" lon="12.223333186786059"><ele>-3.5</ele><time>2026-04-25T11:53:24Z</time></trkpt><trkpt lat="44.82578218558078" lon="12.223459417004596"><ele>-3.6666666666666665</ele><time>2026-04-25T11:53:26Z</time></trkpt><trkpt lat="44.82578417663223" lon="12.223574180725548"><ele>-3.833333333333333</ele><time>2026-04-25T11:53:28Z</time></trkpt><trkpt lat="44.825791679223514" lon="12.22369605691244"><ele>-4.0</ele><time>2026-04-25T11:53:30Z</time></trkpt><trkpt lat="44.82579503127429" lon="12.223822921162169"><ele>-4.0</ele><time>2026-04-25T11:53:32Z</time></trkpt><trkpt lat="44.82579888013858" lon="12.223949431574836"><ele>-4.0</ele><time>2026-04-25T11:53:34Z</time></trkpt><trkpt lat="44.82580673304711" lon="12.224077730616298"><ele>-4.0</ele><time>2026-04-25T11:53:36Z</time></trkpt><trkpt lat="44.8258154083338" lon="12.224201639598725"><ele>-4.0</ele><time>2026-04-25T11:53:38Z</time></trkpt><trkpt lat="44.82582001771728" lon="12.224328288601855"><ele>-4.0</ele><time>2026-04-25T11:53:40Z</time></trkpt><trkpt lat="44.82582511640916" lon="12.224456516883986"><ele>-3.833333333333333</ele><time>2026-04-25T11:53:42Z</time></trkpt><trkpt lat="44.82582566415766" lon="12.22458236015507"><ele>-3.6666666666666665</ele><time>2026-04-25T11:53:44Z</time></trkpt><trkpt lat="44.82583629507941" lon="12.224708802708433"><ele>-3.5</ele><time>2026-04-25T11:53:46Z</time></trkpt><trkpt lat="44.825836294509685" lon="12.224830583368078"><ele>-3.333333333333333</ele><time>2026-04-25T11:53:48Z</time></trkpt><trkpt lat="44.82584684242088" lon="12.224955878609805"><ele>-3.1666666666666665</ele><time>2026-04-25T11:53:50Z</time></trkpt><trkpt lat="44.825854855557836" lon="12.225065297909472"><ele>-3.0</ele><time>2026-04-25T11:53:52Z</time></trkpt><trkpt lat="44.82585535495862" lon="12.225188309853996"><ele>-3.0</ele><time>2026-04-25T11:53:54Z</time></trkpt><trkpt lat="44.82586254233883" lon="12.225313280105997"><ele>-3.0</ele><time>2026-04-25T11:53:56Z</time></trkpt><trkpt lat="44.825874202610095" lon="12.225442129351313"><ele>-3.0</ele><time>2026-04-25T11:53:58Z</time></trkpt><trkpt lat="44.82587259593478" lon="12.225555990989434"><ele>-3.0</ele><time>2026-04-25T11:54:00Z</time></trkpt><trkpt lat="44.8258805591184" lon="12.2256770244072"><ele>-3.0</ele><time>2026-04-25T11:54:02Z</time></trkpt><trkpt lat="44.82588382887818" lon="12.225794229676561"><ele>-3.0</ele><time>2026-04-25T11:54:04Z</time></trkpt><trkpt lat="44.82589332218521" lon="12.225912288783901"><ele>-3.1666666666666665</ele><time>2026-04-25T11:54:06Z</time></trkpt><trkpt lat="44.82590255842309" lon="12.226037009737338"><ele>-3.333333333333333</ele><time>2026-04-25T11:54:08Z</time></trkpt><trkpt lat="44.82590856415347" lon="12.226162290121257"><ele>-3.5</ele><time>2026-04-25T11:54:10Z</time></trkpt><trkpt lat="44.82591324769463" lon="12.226273737623927"><ele>-3.6666666666666665</ele><time>2026-04-25T11:54:12Z</time></trkpt><trkpt lat="44.82592132956568" lon="12.22636877011707"><ele>-3.833333333333333</ele><time>2026-04-25T11:54:14Z</time></trkpt><trkpt lat="44.82591663057432" lon="12.226498050629079"><ele>-4.0</ele><time>2026-04-25T11:54:17Z</time></trkpt><trkpt lat="44.82592950375057" lon="12.226586661493727"><ele>-3.6666666666666665</ele><time>2026-04-25T11:54:19Z</time></trkpt><trkpt lat="44.82592533924424" lon="12.22671098255863"><ele>-3.333333333333333</ele><time>2026-04-25T11:54:22Z</time></trkpt><trkpt lat="44.825925130801515" lon="12.226807192206513"><ele>-3.0</ele><time>2026-04-25T11:54:24Z</time></trkpt><trkpt lat="44.825936062860826" lon="12.226917059668656"><ele>-2.6666666666666665</ele><time>2026-04-25T11:54:26Z</time></trkpt><trkpt lat="44.82592773030776" lon="12.227020499326716"><ele>-2.333333333333333</ele><time>2026-04-25T11:54:28Z</time></trkpt><trkpt lat="44.82594776111637" lon="12.22712716341881"><ele>-2.0</ele><time>2026-04-25T11:54:30Z</time></trkpt><trkpt lat="44.82595771372849" lon="12.227242522203683"><ele>-1.8333333333333333</ele><time>2026-04-25T11:54:32Z</time></trkpt><trkpt lat="44.825965200968945" lon="12.227352506913368"><ele>-1.6666666666666665</ele><time>2026-04-25T11:54:34Z</time></trkpt><trkpt lat="44.82597189973736" lon="12.227466050281821"><ele>-1.5</ele><time>2026-04-25T11:54:36Z</time></trkpt><trkpt lat="44.82597158462132" lon="12.227578545078778"><ele>-1.3333333333333333</ele><time>2026-04-25T11:54:38Z</time></trkpt><trkpt lat="44.82597788023436" lon="12.227684936925135"><ele>-1.1666666666666665</ele><time>2026-04-25T11:54:40Z</time></trkpt><trkpt lat="44.82600563815572" lon="12.22779351320149"><ele>-1.0</ele><time>2026-04-25T11:54:43Z</time></trkpt><trkpt lat="44.82606320428665" lon="12.22785594909217"><ele>-1.3333333333333333</ele><time>2026-04-25T11:54:45Z</time></trkpt><trkpt lat="44.826145242733126" lon="12.227866135102968"><ele>-1.6666666666666665</ele><time>2026-04-25T11:54:47Z</time></trkpt><trkpt lat="44.8262147488204" lon="12.227836679513311"><ele>-2.0</ele><time>2026-04-25T11:54:49Z</time></trkpt><trkpt lat="44.826307412725846" lon="12.22783442354583"><ele>-2.3333333333333335</ele><time>2026-04-25T11:54:52Z</time></trkpt><trkpt lat="44.826402872890974" lon="12.227836959230386"><ele>-2.6666666666666665</ele><time>2026-04-25T11:54:55Z</time></trkpt><trkpt lat="44.82647497842787" lon="12.227832935180889"><ele>-3.0</ele><time>2026-04-25T11:54:57Z</time></trkpt><trkpt lat="44.826545992522036" lon="12.22786987615684"><ele>-2.9999999999999996</ele><time>2026-04-25T11:54:59Z</time></trkpt><trkpt lat="44.82658478212066" lon="12.227962582399739"><ele>-3.0</ele><time>2026-04-25T11:55:01Z</time></trkpt><trkpt lat="44.8265917499906" lon="12.228053567925645"><ele>-3.0</ele><time>2026-04-25T11:55:03Z</time></trkpt><trkpt lat="44.8266073238646" lon="12.228160484246871"><ele>-3.0</ele><time>2026-04-25T11:55:05Z</time></trkpt><trkpt lat="44.8266042254759" lon="12.228258881719592"><ele>-3.0</ele><time>2026-04-25T11:55:07Z</time></trkpt><trkpt lat="44.82660761028776" lon="12.228363013033759"><ele>-2.9999999999999996</ele><time>2026-04-25T11:55:09Z</time></trkpt><trkpt lat="44.82660894598723" lon="12.22846944724184"><ele>-3.0</ele><time>2026-04-25T11:55:11Z</time></trkpt><trkpt lat="44.82661353865792" lon="12.228572781160533"><ele>-2.8</ele><time>2026-04-25T11:55:13Z</time></trkpt><trkpt lat="44.826602356225244" lon="12.228684304328928"><ele>-2.5999999999999996</ele><time>2026-04-25T11:55:15Z</time></trkpt><trkpt lat="44.82660838756786" lon="12.22881431953263"><ele>-2.4000000000000004</ele><time>2026-04-25T11:55:17Z</time></trkpt><trkpt lat="44.82661330021973" lon="12.228952373075696"><ele>-2.2</ele><time>2026-04-25T11:55:19Z</time></trkpt><trkpt lat="44.82662167331834" lon="12.229086839089419"><ele>-2.0</ele><time>2026-04-25T11:55:21Z</time></trkpt><trkpt lat="44.826628119544615" lon="12.22922111732451"><ele>-2.0</ele><time>2026-04-25T11:55:23Z</time></trkpt><trkpt lat="44.82663700078647" lon="12.229354990904161"><ele>-2.0</ele><time>2026-04-25T11:55:25Z</time></trkpt><trkpt lat="44.82664050322659" lon="12.229491357760844"><ele>-2.0</ele><time>2026-04-25T11:55:27Z</time></trkpt><trkpt lat="44.82664644645494" lon="12.22962689477596"><ele>-2.0</ele><time>2026-04-25T11:55:29Z</time></trkpt><trkpt lat="44.826645685013304" lon="12.22976134261905"><ele>-2.0</ele><time>2026-04-25T11:55:31Z</time></trkpt><trkpt lat="44.826650256815036" lon="12.22989303866159"><ele>-2.0</ele><time>2026-04-25T11:55:33Z</time></trkpt><trkpt lat="44.82665065022676" lon="12.230030386265357"><ele>-2.0</ele><time>2026-04-25T11:55:35Z</time></trkpt><trkpt lat="44.82665495639101" lon="12.2301642667703"><ele>-2.0</ele><time>2026-04-25T11:55:37Z</time></trkpt><trkpt lat="44.82666302407732" lon="12.230295506722529"><ele>-2.0</ele><time>2026-04-25T11:55:39Z</time></trkpt><trkpt lat="44.82667018037873" lon="12.230417821148237"><ele>-2.0</ele><time>2026-04-25T11:55:41Z</time></trkpt><trkpt lat="44.826671577600756" lon="12.230547432118401"><ele>-2.0</ele><time>2026-04-25T11:55:43Z</time></trkpt><trkpt lat="44.8266718316654" lon="12.23067987153574"><ele>-2.0</ele><time>2026-04-25T11:55:45Z</time></trkpt><trkpt lat="44.826679683320386" lon="12.230803442304156"><ele>-2.0</ele><time>2026-04-25T11:55:47Z</time></trkpt><trkpt lat="44.826682525251094" lon="12.230930705324326"><ele>-2.0</ele><time>2026-04-25T11:55:49Z</time></trkpt><trkpt lat="44.826685962149675" lon="12.231060119162803"><ele>-2.0</ele><time>2026-04-25T11:55:51Z</time></trkpt><trkpt lat="44.82669185519194" lon="12.231187761644131"><ele>-2.0</ele><time>2026-04-25T11:55:53Z</time></trkpt><trkpt lat="44.826701188635326" lon="12.231315389082791"><ele>-2.0</ele><time>2026-04-25T11:55:55Z</time></trkpt><trkpt lat="44.826704821178474" lon="12.231445854353337"><ele>-2.0</ele><time>2026-04-25T11:55:57Z</time></trkpt><trkpt lat="44.826706061989924" lon="12.23157237015729"><ele>-2.0</ele><time>2026-04-25T11:55:59Z</time></trkpt><trkpt lat="44.826710616818765" lon="12.231698969973257"><ele>-2.0</ele><time>2026-04-25T11:56:01Z</time></trkpt><trkpt lat="44.82671423294449" lon="12.231826572209481"><ele>-2.0</ele><time>2026-04-25T11:56:03Z</time></trkpt><trkpt lat="44.82672293478398" lon="12.231954959933248"><ele>-2.0</ele><time>2026-04-25T11:56:05Z</time></trkpt><trkpt lat="44.82672994351849" lon="12.232087998085861"><ele>-2.0</ele><time>2026-04-25T11:56:07Z</time></trkpt><trkpt lat="44.826732229352665" lon="12.232213068419993"><ele>-2.0</ele><time>2026-04-25T11:56:09Z</time></trkpt><trkpt lat="44.826732968733886" lon="12.232338042909184"><ele>-2.0</ele><time>2026-04-25T11:56:11Z</time></trkpt><trkpt lat="44.826740748804774" lon="12.232464758308502"><ele>-2.0</ele><time>2026-04-25T11:56:13Z</time></trkpt><trkpt lat="44.82674463077909" lon="12.232585430484635"><ele>-1.9999999999999998</ele><time>2026-04-25T11:56:15Z</time></trkpt><trkpt lat="44.82675359798734" lon="12.232695645620046"><ele>-2.0</ele><time>2026-04-25T11:56:17Z</time></trkpt><trkpt lat="44.82675120957708" lon="12.232799178108827"><ele>-2.0</ele><time>2026-04-25T11:56:19Z</time></trkpt><trkpt lat="44.82675703762915" lon="12.232896100907476"><ele>-1.9999999999999998</ele><time>2026-04-25T11:56:21Z</time></trkpt><trkpt lat="44.8267567323472" lon="12.2329873337176"><ele>-2.0</ele><time>2026-04-25T11:56:23Z</time></trkpt><trkpt lat="44.826765323337206" lon="12.23309322262505"><ele>-2.0</ele><time>2026-04-25T11:56:25Z</time></trkpt><trkpt lat="44.82676168633561" lon="12.23319683335782"><ele>-1.9999999999999998</ele><time>2026-04-25T11:56:27Z</time></trkpt><trkpt lat="44.82677407633767" lon="12.23329220757891"><ele>-2.0</ele><time>2026-04-25T11:56:29Z</time></trkpt><trkpt lat="44.826791210603254" lon="12.23340266603383"><ele>-2.0</ele><time>2026-04-25T11:56:31Z</time></trkpt><trkpt lat="44.826802055205064" lon="12.233519337767273"><ele>-2.0</ele><time>2026-04-25T11:56:33Z</time></trkpt><trkpt lat="44.82681659827754" lon="12.233631038269692"><ele>-1.9999999999999998</ele><time>2026-04-25T11:56:35Z</time></trkpt><trkpt lat="44.826837119389744" lon="12.233742425484339"><ele>-2.0</ele><time>2026-04-25T11:56:37Z</time></trkpt><trkpt lat="44.82685141249619" lon="12.233867244135613"><ele>-1.9999999999999998</ele><time>2026-04-25T11:56:39Z</time></trkpt><trkpt lat="44.82687609454207" lon="12.23398158568311"><ele>-2.0</ele><time>2026-04-25T11:56:41Z</time></trkpt><trkpt lat="44.826904589904146" lon="12.234090482061553"><ele>-2.0</ele><time>2026-04-25T11:56:43Z</time></trkpt><trkpt lat="44.826920861377154" lon="12.234198769474167"><ele>-2.0</ele><time>2026-04-25T11:56:45Z</time></trkpt><trkpt lat="44.82694469789561" lon="12.234296506243508"><ele>-1.9999999999999998</ele><time>2026-04-25T11:56:47Z</time></trkpt><trkpt lat="44.826971563108756" lon="12.234396111501692"><ele>-2.0</ele><time>2026-04-25T11:56:49Z</time></trkpt><trkpt lat="44.826994684760564" lon="12.234515110651847"><ele>-2.0</ele><time>2026-04-25T11:56:51Z</time></trkpt><trkpt lat="44.82702643362429" lon="12.234634851033132"><ele>-2.0</ele><time>2026-04-25T11:56:53Z</time></trkpt><trkpt lat="44.82706433777941" lon="12.234752582239098"><ele>-2.0</ele><time>2026-04-25T11:56:55Z</time></trkpt><trkpt lat="44.82708720687512" lon="12.23487418396836"><ele>-2.0</ele><time>2026-04-25T11:56:57Z</time></trkpt><trkpt lat="44.82711750041177" lon="12.234996498667355"><ele>-2.0</ele><time>2026-04-25T11:56:59Z</time></trkpt><trkpt lat="44.82714747348334" lon="12.235115099233912"><ele>-2.0</ele><time>2026-04-25T11:57:01Z</time></trkpt><trkpt lat="44.82718131730725" lon="12.235237479820206"><ele>-2.0</ele><time>2026-04-25T11:57:03Z</time></trkpt><trkpt lat="44.827212018159145" lon="12.23535600300715"><ele>-2.0</ele><time>2026-04-25T11:57:05Z</time></trkpt><trkpt lat="44.82724422700039" lon="12.235478302820255"><ele>-2.0</ele><time>2026-04-25T11:57:07Z</time></trkpt><trkpt lat="44.82727716956183" lon="12.235597828588988"><ele>-2.0</ele><time>2026-04-25T11:57:09Z</time></trkpt><trkpt lat="44.8273056791099" lon="12.235718439157091"><ele>-2.0</ele><time>2026-04-25T11:57:11Z</time></trkpt><trkpt lat="44.82732904751652" lon="12.235841057195202"><ele>-2.0</ele><time>2026-04-25T11:57:13Z</time></trkpt><trkpt lat="44.82736432806404" lon="12.235957980512923"><ele>-2.0</ele><time>2026-04-25T11:57:15Z</time></trkpt><trkpt lat="44.82740033530584" lon="12.236076772973112"><ele>-2.0</ele><time>2026-04-25T11:57:17Z</time></trkpt><trkpt lat="44.82742566604187" lon="12.23619837782844"><ele>-2.0</ele><time>2026-04-25T11:57:19Z</time></trkpt><trkpt lat="44.82745797999532" lon="12.236316855661547"><ele>-2.0</ele><time>2026-04-25T11:57:21Z</time></trkpt><trkpt lat="44.82748995174065" lon="12.236434078132255"><ele>-2.0</ele><time>2026-04-25T11:57:23Z</time></trkpt><trkpt lat="44.82751558759749" lon="12.236555991555313"><ele>-2.0</ele><time>2026-04-25T11:57:25Z</time></trkpt><trkpt lat="44.827546849926165" lon="12.236673832866138"><ele>-2.0</ele><time>2026-04-25T11:57:27Z</time></trkpt><trkpt lat="44.82758005630239" lon="12.2367973868688"><ele>-2.0</ele><time>2026-04-25T11:57:29Z</time></trkpt><trkpt lat="44.827610581100316" lon="12.236917479304868"><ele>-2.1666666666666665</ele><time>2026-04-25T11:57:31Z</time></trkpt><trkpt lat="44.827640706914195" lon="12.237035640408111"><ele>-2.333333333333333</ele><time>2026-04-25T11:57:33Z</time></trkpt><trkpt lat="44.827672486668746" lon="12.237151672435516"><ele>-2.5</ele><time>2026-04-25T11:57:35Z</time></trkpt><trkpt lat="44.82770058565479" lon="12.237269641836434"><ele>-2.6666666666666665</ele><time>2026-04-25T11:57:37Z</time></trkpt><trkpt lat="44.82773270906091" lon="12.237387324461832"><ele>-2.8333333333333335</ele><time>2026-04-25T11:57:39Z</time></trkpt><trkpt lat="44.82775802194016" lon="12.237506005726035"><ele>-3.0</ele><time>2026-04-25T11:57:41Z</time></trkpt><trkpt lat="44.82778947618928" lon="12.23762654579959"><ele>-2.8333333333333335</ele><time>2026-04-25T11:57:43Z</time></trkpt><trkpt lat="44.82782203199605" lon="12.237740586386082"><ele>-2.6666666666666665</ele><time>2026-04-25T11:57:45Z</time></trkpt><trkpt lat="44.827854218882976" lon="12.237849505744366"><ele>-2.5</ele><time>2026-04-25T11:57:47Z</time></trkpt><trkpt lat="44.8278800274413" lon="12.237946694688894"><ele>-2.333333333333333</ele><time>2026-04-25T11:57:49Z</time></trkpt><trkpt lat="44.827910673296" lon="12.238027367155688"><ele>-2.1666666666666665</ele><time>2026-04-25T11:57:51Z</time></trkpt><trkpt lat="44.82790630895407" lon="12.23811636995225"><ele>-2.0</ele><time>2026-04-25T11:57:53Z</time></trkpt><trkpt lat="44.82783415408766" lon="12.238189478948318"><ele>-1.9999999999999998</ele><time>2026-04-25T11:57:56Z</time></trkpt><trkpt lat="44.82775873049024" lon="12.238236189803793"><ele>-2.0</ele><time>2026-04-25T11:57:59Z</time></trkpt><trkpt lat="44.82769370105779" lon="12.238272015615143"><ele>-2.0</ele><time>2026-04-25T11:58:01Z</time></trkpt><trkpt lat="44.82763079673472" lon="12.23830335847211"><ele>-2.0</ele><time>2026-04-25T11:58:03Z</time></trkpt><trkpt lat="44.8275419770995" lon="12.238370318422904"><ele>-1.9999999999999998</ele><time>2026-04-25T11:58:06Z</time></trkpt><trkpt lat="44.82748079558243" lon="12.238423328256308"><ele>-2.0</ele><time>2026-04-25T11:58:08Z</time></trkpt><trkpt lat="44.82742028244856" lon="12.238473075283201"><ele>-1.6666666666666665</ele><time>2026-04-25T11:58:10Z</time></trkpt><trkpt lat="44.82735470468571" lon="12.238520099246907"><ele>-1.3333333333333333</ele><time>2026-04-25T11:58:12Z</time></trkpt><trkpt lat="44.827279054157096" lon="12.238572896056478"><ele>-1.0</ele><time>2026-04-25T11:58:14Z</time></trkpt><trkpt lat="44.82719770173043" lon="12.238591026052653"><ele>-0.6666666666666666</ele><time>2026-04-25T11:58:16Z</time></trkpt><trkpt lat="44.82712691355327" lon="12.238648254743461"><ele>-0.3333333333333333</ele><time>2026-04-25T11:58:18Z</time></trkpt><trkpt lat="44.82705020107875" lon="12.238696811231009"><ele>0.0</ele><time>2026-04-25T11:58:20Z</time></trkpt><trkpt lat="44.82696900114154" lon="12.238755186670371"><ele>0.0</ele><time>2026-04-25T11:58:22Z</time></trkpt><trkpt lat="44.82688244216504" lon="12.238805518657506"><ele>0.0</ele><time>2026-04-25T11:58:24Z</time></trkpt><trkpt lat="44.82679966701123" lon="12.238866881265464"><ele>0.0</ele><time>2026-04-25T11:58:26Z</time></trkpt><trkpt lat="44.82671836259716" lon="12.23892673461703"><ele>0.0</ele><time>2026-04-25T11:58:28Z</time></trkpt><trkpt lat="44.82663604981804" lon="12.238986442964842"><ele>0.0</ele><time>2026-04-25T11:58:30Z</time></trkpt><trkpt lat="44.826549516134584" lon="12.239046084092005"><ele>0.0</ele><time>2026-04-25T11:58:32Z</time></trkpt><trkpt lat="44.82647128086091" lon="12.239111803498801"><ele>0.0</ele><time>2026-04-25T11:58:34Z</time></trkpt><trkpt lat="44.82638883311159" lon="12.239154333767683"><ele>0.0</ele><time>2026-04-25T11:58:36Z</time></trkpt><trkpt lat="44.826309832584805" lon="12.239217931498052"><ele>0.0</ele><time>2026-04-25T11:58:38Z</time></trkpt><trkpt lat="44.82622875166775" lon="12.239272492590066"><ele>0.0</ele><time>2026-04-25T11:58:40Z</time></trkpt><trkpt lat="44.82615576594135" lon="12.239328146232232"><ele>0.0</ele><time>2026-04-25T11:58:42Z</time></trkpt><trkpt lat="44.826072859679186" lon="12.239381317124709"><ele>0.0</ele><time>2026-04-25T11:58:44Z</time></trkpt><trkpt lat="44.82599174268842" lon="12.239437987289435"><ele>0.0</ele><time>2026-04-25T11:58:46Z</time></trkpt><trkpt lat="44.82591916570446" lon="12.239486352000691"><ele>0.0</ele><time>2026-04-25T11:58:48Z</time></trkpt><trkpt lat="44.82584653510509" lon="12.239531486789287"><ele>0.0</ele><time>2026-04-25T11:58:50Z</time></trkpt><trkpt lat="44.82578033900448" lon="12.239588825472499"><ele>0.0</ele><time>2026-04-25T11:58:52Z</time></trkpt><trkpt lat="44.82570128082666" lon="12.239644618258646"><ele>0.0</ele><time>2026-04-25T11:58:54Z</time></trkpt><trkpt lat="44.825621823714755" lon="12.239705236291842"><ele>-0.2</ele><time>2026-04-25T11:58:56Z</time></trkpt><trkpt lat="44.82553950322136" lon="12.239764906526158"><ele>-0.4</ele><time>2026-04-25T11:58:58Z</time></trkpt><trkpt lat="44.82545393921992" lon="12.239807856096343"><ele>-0.6000000000000001</ele><time>2026-04-25T11:59:00Z</time></trkpt><trkpt lat="44.825375242093" lon="12.239868818964634"><ele>-0.8</ele><time>2026-04-25T11:59:02Z</time></trkpt><trkpt lat="44.82529150038576" lon="12.239928360753831"><ele>-1.0</ele><time>2026-04-25T11:59:04Z</time></trkpt><trkpt lat="44.82520965998535" lon="12.239987494972652"><ele>-0.8</ele><time>2026-04-25T11:59:06Z</time></trkpt><trkpt lat="44.82512882355322" lon="12.240044418373303"><ele>-0.6000000000000001</ele><time>2026-04-25T11:59:08Z</time></trkpt><trkpt lat="44.8250471100472" lon="12.24010369954973"><ele>-0.4</ele><time>2026-04-25T11:59:10Z</time></trkpt><trkpt lat="44.82496902241434" lon="12.24015677203579"><ele>-0.2</ele><time>2026-04-25T11:59:12Z</time></trkpt><trkpt lat="44.824886203609886" lon="12.240213331766466"><ele>0.0</ele><time>2026-04-25T11:59:14Z</time></trkpt><trkpt lat="44.82480437200719" lon="12.240280093960106"><ele>0.0</ele><time>2026-04-25T11:59:16Z</time></trkpt><trkpt lat="44.82472760630522" lon="12.24032782600654"><ele>0.0</ele><time>2026-04-25T11:59:18Z</time></trkpt><trkpt lat="44.824642761554294" lon="12.240385887277506"><ele>0.0</ele><time>2026-04-25T11:59:20Z</time></trkpt><trkpt lat="44.82456291346669" lon="12.24044470277792"><ele>0.0</ele><time>2026-04-25T11:59:22Z</time></trkpt><trkpt lat="44.82448601872481" lon="12.240505635012292"><ele>0.0</ele><time>2026-04-25T11:59:24Z</time></trkpt><trkpt lat="44.824407727291906" lon="12.240548985822684"><ele>0.0</ele><time>2026-04-25T11:59:26Z</time></trkpt><trkpt lat="44.82433239195037" lon="12.240608179181796"><ele>0.2</ele><time>2026-04-25T11:59:28Z</time></trkpt><trkpt lat="44.824250848401135" lon="12.240656829931646"><ele>0.4</ele><time>2026-04-25T11:59:30Z</time></trkpt><trkpt lat="44.82416354888292" lon="12.24071805767753"><ele>0.6000000000000001</ele><time>2026-04-25T11:59:32Z</time></trkpt><trkpt lat="44.82408704200795" lon="12.240779809613219"><ele>0.8</ele><time>2026-04-25T11:59:34Z</time></trkpt><trkpt lat="44.82400462470911" lon="12.240837750580294"><ele>1.0</ele><time>2026-04-25T11:59:36Z</time></trkpt><trkpt lat="44.823923257068756" lon="12.240891936114073"><ele>0.9999999999999999</ele><time>2026-04-25T11:59:38Z</time></trkpt><trkpt lat="44.82384083769976" lon="12.240944898057267"><ele>1.0</ele><time>2026-04-25T11:59:40Z</time></trkpt><trkpt lat="44.823761474656955" lon="12.241014044390246"><ele>1.0</ele><time>2026-04-25T11:59:42Z</time></trkpt><trkpt lat="44.823688762135376" lon="12.241073443896587"><ele>1.0</ele><time>2026-04-25T11:59:44Z</time></trkpt><trkpt lat="44.82361669859811" lon="12.241122477623438"><ele>0.9999999999999999</ele><time>2026-04-25T11:59:46Z</time></trkpt><trkpt lat="44.82354694271345" lon="12.241165442054694"><ele>1.0</ele><time>2026-04-25T11:59:48Z</time></trkpt><trkpt lat="44.823474442614554" lon="12.241208400974614"><ele>0.9999999999999999</ele><time>2026-04-25T11:59:50Z</time></trkpt><trkpt lat="44.82339704939581" lon="12.241267667538551"><ele>1.0</ele><time>2026-04-25T11:59:52Z</time></trkpt><trkpt lat="44.823313153491696" lon="12.241319615880322"><ele>1.0</ele><time>2026-04-25T11:59:54Z</time></trkpt><trkpt lat="44.823231338148254" lon="12.241381662363612"><ele>1.0</ele><time>2026-04-25T11:59:56Z</time></trkpt><trkpt lat="44.82315011287904" lon="12.241436828218399"><ele>0.9999999999999999</ele><time>2026-04-25T11:59:58Z</time></trkpt><trkpt lat="44.82308241984431" lon="12.241503561647884"><ele>1.0</ele><time>2026-04-25T12:00:00Z</time></trkpt><trkpt lat="44.82301504196668" lon="12.241556286635452"><ele>0.9999999999999999</ele><time>2026-04-25T12:00:02Z</time></trkpt><trkpt lat="44.82295022665841" lon="12.241601221318383"><ele>1.0</ele><time>2026-04-25T12:00:04Z</time></trkpt><trkpt lat="44.82288384785974" lon="12.241639333974192"><ele>1.0</ele><time>2026-04-25T12:00:06Z</time></trkpt><trkpt lat="44.82280766949745" lon="12.241685615897747"><ele>1.0</ele><time>2026-04-25T12:00:08Z</time></trkpt><trkpt lat="44.82273408510045" lon="12.24174280304737"><ele>0.9999999999999999</ele><time>2026-04-25T12:00:10Z</time></trkpt><trkpt lat="44.822663245713294" lon="12.24178416766051"><ele>1.0</ele><time>2026-04-25T12:00:12Z</time></trkpt><trkpt lat="44.82259286030999" lon="12.241826692426653"><ele>0.6666666666666666</ele><time>2026-04-25T12:00:14Z</time></trkpt><trkpt lat="44.82252790158407" lon="12.241871034770275"><ele>0.3333333333333333</ele><time>2026-04-25T12:00:16Z</time></trkpt><trkpt lat="44.822468486918865" lon="12.241914202047607"><ele>0.0</ele><time>2026-04-25T12:00:18Z</time></trkpt><trkpt lat="44.82240832634703" lon="12.241975158293831"><ele>-0.3333333333333333</ele><time>2026-04-25T12:00:20Z</time></trkpt><trkpt lat="44.822337519208126" lon="12.242005899483152"><ele>-0.6666666666666666</ele><time>2026-04-25T12:00:22Z</time></trkpt><trkpt lat="44.82225584403683" lon="12.242063644486649"><ele>-1.0</ele><time>2026-04-25T12:00:24Z</time></trkpt><trkpt lat="44.822177345824024" lon="12.242123004878007"><ele>-0.9999999999999999</ele><time>2026-04-25T12:00:26Z</time></trkpt><trkpt lat="44.822096975429666" lon="12.242193534972872"><ele>-1.0</ele><time>2026-04-25T12:00:28Z</time></trkpt><trkpt lat="44.82201248730248" lon="12.242251251976334"><ele>-1.0</ele><time>2026-04-25T12:00:30Z</time></trkpt><trkpt lat="44.82192509889397" lon="12.242295665040515"><ele>-1.0</ele><time>2026-04-25T12:00:32Z</time></trkpt><trkpt lat="44.821854047536746" lon="12.242357306097384"><ele>-0.9999999999999999</ele><time>2026-04-25T12:00:34Z</time></trkpt><trkpt lat="44.82178085107085" lon="12.24240279638174"><ele>-1.0</ele><time>2026-04-25T12:00:36Z</time></trkpt><trkpt lat="44.821704510092374" lon="12.242450484787893"><ele>-1.0</ele><time>2026-04-25T12:00:38Z</time></trkpt><trkpt lat="44.82162535021455" lon="12.242510132797346"><ele>-1.0</ele><time>2026-04-25T12:00:40Z</time></trkpt><trkpt lat="44.82154559066413" lon="12.24256977690133"><ele>-1.0</ele><time>2026-04-25T12:00:42Z</time></trkpt><trkpt lat="44.82146115291494" lon="12.242621896407645"><ele>-1.0</ele><time>2026-04-25T12:00:44Z</time></trkpt><trkpt lat="44.82137913278126" lon="12.242680476060096"><ele>-1.0</ele><time>2026-04-25T12:00:46Z</time></trkpt><trkpt lat="44.821302025558246" lon="12.242741511075085"><ele>-0.9999999999999999</ele><time>2026-04-25T12:00:48Z</time></trkpt><trkpt lat="44.82122090619456" lon="12.24280191726875"><ele>-1.0</ele><time>2026-04-25T12:00:50Z</time></trkpt><trkpt lat="44.82113592280278" lon="12.24285092634496"><ele>-1.0</ele><time>2026-04-25T12:00:52Z</time></trkpt><trkpt lat="44.82105974511923" lon="12.242909396610306"><ele>-1.0</ele><time>2026-04-25T12:00:54Z</time></trkpt><trkpt lat="44.820987552834275" lon="12.242963617395391"><ele>-0.9999999999999999</ele><time>2026-04-25T12:00:56Z</time></trkpt><trkpt lat="44.82090826521377" lon="12.24301594265204"><ele>-1.0</ele><time>2026-04-25T12:00:58Z</time></trkpt><trkpt lat="44.820831305768735" lon="12.24307154911661"><ele>-1.0</ele><time>2026-04-25T12:01:00Z</time></trkpt><trkpt lat="44.82075234815207" lon="12.243122116816904"><ele>-1.0</ele><time>2026-04-25T12:01:02Z</time></trkpt><trkpt lat="44.82066822543189" lon="12.243175268354522"><ele>-1.0</ele><time>2026-04-25T12:01:04Z</time></trkpt><trkpt lat="44.82058830093352" lon="12.243238467226066"><ele>-1.0</ele><time>2026-04-25T12:01:06Z</time></trkpt><trkpt lat="44.82050525526749" lon="12.243293041166117"><ele>-1.0</ele><time>2026-04-25T12:01:08Z</time></trkpt><trkpt lat="44.820420258115334" lon="12.243351611054292"><ele>-0.9999999999999999</ele><time>2026-04-25T12:01:10Z</time></trkpt><trkpt lat="44.8203369503039" lon="12.243412605480472"><ele>-1.0</ele><time>2026-04-25T12:01:12Z</time></trkpt><trkpt lat="44.820257884480114" lon="12.243476440346834"><ele>-1.0</ele><time>2026-04-25T12:01:14Z</time></trkpt><trkpt lat="44.820179321401554" lon="12.243524967907062"><ele>-1.0</ele><time>2026-04-25T12:01:16Z</time></trkpt><trkpt lat="44.82010581306055" lon="12.243579475955707"><ele>-0.9999999999999999</ele><time>2026-04-25T12:01:18Z</time></trkpt><trkpt lat="44.820038093414446" lon="12.24362617685749"><ele>-1.0</ele><time>2026-04-25T12:01:20Z</time></trkpt><trkpt lat="44.81997098075119" lon="12.243675088044958"><ele>-1.1428571428571428</ele><time>2026-04-25T12:01:22Z</time></trkpt><trkpt lat="44.81991151595928" lon="12.24372318728471"><ele>-1.2857142857142856</ele><time>2026-04-25T12:01:24Z</time></trkpt><trkpt lat="44.81984893305762" lon="12.243769936096857"><ele>-1.4285714285714284</ele><time>2026-04-25T12:01:26Z</time></trkpt><trkpt lat="44.81977758882296" lon="12.243808728755022"><ele>-1.5714285714285714</ele><time>2026-04-25T12:01:28Z</time></trkpt><trkpt lat="44.81971273756024" lon="12.243860846655641"><ele>-1.714285714285714</ele><time>2026-04-25T12:01:30Z</time></trkpt><trkpt lat="44.81965386784919" lon="12.24390347608434"><ele>-1.857142857142857</ele><time>2026-04-25T12:01:32Z</time></trkpt><trkpt lat="44.81959353410998" lon="12.243938875812926"><ele>-2.0</ele><time>2026-04-25T12:01:34Z</time></trkpt><trkpt lat="44.81951536388741" lon="12.243995156024411"><ele>-1.857142857142857</ele><time>2026-04-25T12:01:36Z</time></trkpt><trkpt lat="44.81944571376481" lon="12.244053935375728"><ele>-1.714285714285714</ele><time>2026-04-25T12:01:38Z</time></trkpt><trkpt lat="44.81937280079822" lon="12.244104642070138"><ele>-1.5714285714285714</ele><time>2026-04-25T12:01:40Z</time></trkpt><trkpt lat="44.81930912408917" lon="12.244150611812818"><ele>-1.4285714285714284</ele><time>2026-04-25T12:01:42Z</time></trkpt><trkpt lat="44.819244698101265" lon="12.244198920208717"><ele>-1.2857142857142856</ele><time>2026-04-25T12:01:44Z</time></trkpt><trkpt lat="44.81918489270738" lon="12.244242645501977"><ele>-1.1428571428571428</ele><time>2026-04-25T12:01:46Z</time></trkpt><trkpt lat="44.81912096496644" lon="12.244289472354847"><ele>-1.0</ele><time>2026-04-25T12:01:48Z</time></trkpt><trkpt lat="44.81905740310885" lon="12.244331535771055"><ele>-0.9999999999999999</ele><time>2026-04-25T12:01:50Z</time></trkpt><trkpt lat="44.8190007397463" lon="12.244376670009352"><ele>-1.0</ele><time>2026-04-25T12:01:52Z</time></trkpt><trkpt lat="44.81891999189262" lon="12.244442132758431"><ele>-1.0</ele><time>2026-04-25T12:01:55Z</time></trkpt><trkpt lat="44.818853987358864" lon="12.24449035820656"><ele>-1.0</ele><time>2026-04-25T12:01:57Z</time></trkpt><trkpt lat="44.81878125825835" lon="12.244555693489621"><ele>-0.9999999999999999</ele><time>2026-04-25T12:01:59Z</time></trkpt><trkpt lat="44.818708634081545" lon="12.244605353471039"><ele>-1.0</ele><time>2026-04-25T12:02:01Z</time></trkpt><trkpt lat="44.818645465537635" lon="12.244660448553988"><ele>-0.9999999999999999</ele><time>2026-04-25T12:02:03Z</time></trkpt><trkpt lat="44.818582329096245" lon="12.244718334032683"><ele>-1.0</ele><time>2026-04-25T12:02:05Z</time></trkpt><trkpt lat="44.818506728956045" lon="12.244774694462654"><ele>-1.0</ele><time>2026-04-25T12:02:07Z</time></trkpt><trkpt lat="44.81843994430323" lon="12.244838864995879"><ele>-1.0</ele><time>2026-04-25T12:02:09Z</time></trkpt><trkpt lat="44.818375260444505" lon="12.244897048435757"><ele>-0.9999999999999999</ele><time>2026-04-25T12:02:11Z</time></trkpt><trkpt lat="44.81831570263828" lon="12.244949137236611"><ele>-1.0</ele><time>2026-04-25T12:02:13Z</time></trkpt><trkpt lat="44.81826186878261" lon="12.245005058815114"><ele>-0.9999999999999999</ele><time>2026-04-25T12:02:15Z</time></trkpt><trkpt lat="44.818205746368776" lon="12.245048819084511"><ele>-1.0</ele><time>2026-04-25T12:02:17Z</time></trkpt><trkpt lat="44.818125477194336" lon="12.245112042187534"><ele>-1.0</ele><time>2026-04-25T12:02:20Z</time></trkpt><trkpt lat="44.81806370889034" lon="12.24517555060181"><ele>-1.0</ele><time>2026-04-25T12:02:22Z</time></trkpt><trkpt lat="44.817999585381585" lon="12.245233712374269"><ele>-0.9999999999999999</ele><time>2026-04-25T12:02:24Z</time></trkpt><trkpt lat="44.81794282145849" lon="12.245295825189947"><ele>-1.0</ele><time>2026-04-25T12:02:26Z</time></trkpt><trkpt lat="44.817869507784884" lon="12.24535057589956"><ele>-0.9999999999999999</ele><time>2026-04-25T12:02:28Z</time></trkpt><trkpt lat="44.81779406003602" lon="12.24542268669194"><ele>-1.0</ele><time>2026-04-25T12:02:30Z</time></trkpt><trkpt lat="44.81772590384118" lon="12.245489315774952"><ele>-1.0</ele><time>2026-04-25T12:02:32Z</time></trkpt><trkpt lat="44.81766019481108" lon="12.245555117201611"><ele>-1.0</ele><time>2026-04-25T12:02:34Z</time></trkpt><trkpt lat="44.81759926878841" lon="12.245606552843691"><ele>-0.9999999999999999</ele><time>2026-04-25T12:02:36Z</time></trkpt><trkpt lat="44.81752659873084" lon="12.245679522928608"><ele>-1.0</ele><time>2026-04-25T12:02:38Z</time></trkpt><trkpt lat="44.81745773643773" lon="12.245739572359819"><ele>-0.9999999999999999</ele><time>2026-04-25T12:02:40Z</time></trkpt><trkpt lat="44.81738506980363" lon="12.245803462265132"><ele>-1.0</ele><time>2026-04-25T12:02:42Z</time></trkpt><trkpt lat="44.817315917706544" lon="12.245875114696894"><ele>-1.0</ele><time>2026-04-25T12:02:44Z</time></trkpt><trkpt lat="44.817244763869375" lon="12.245932439080589"><ele>-1.0</ele><time>2026-04-25T12:02:46Z</time></trkpt><trkpt lat="44.817183064069035" lon="12.245981877972602"><ele>-0.9999999999999999</ele><time>2026-04-25T12:02:48Z</time></trkpt><trkpt lat="44.81711782650107" lon="12.246048607395013"><ele>-1.0</ele><time>2026-04-25T12:02:50Z</time></trkpt><trkpt lat="44.817039783244944" lon="12.246115680339566"><ele>-0.9999999999999999</ele><time>2026-04-25T12:02:52Z</time></trkpt><trkpt lat="44.81695509832932" lon="12.246181091304317"><ele>-1.0</ele><time>2026-04-25T12:02:54Z</time></trkpt><trkpt lat="44.81689505794643" lon="12.246262901567116"><ele>-1.0</ele><time>2026-04-25T12:02:56Z</time></trkpt><trkpt lat="44.816818690171196" lon="12.24632587873475"><ele>-1.0</ele><time>2026-04-25T12:02:58Z</time></trkpt><trkpt lat="44.81674268833407" lon="12.24637922505394"><ele>-0.9999999999999999</ele><time>2026-04-25T12:03:00Z</time></trkpt><trkpt lat="44.81668530247969" lon="12.246439857146354"><ele>-1.0</ele><time>2026-04-25T12:03:02Z</time></trkpt><trkpt lat="44.8166120619471" lon="12.246499118593201"><ele>-0.8333333333333333</ele><time>2026-04-25T12:03:04Z</time></trkpt><trkpt lat="44.816544433015686" lon="12.246588412598907"><ele>-0.6666666666666666</ele><time>2026-04-25T12:03:06Z</time></trkpt><trkpt lat="44.81647692161818" lon="12.246644450748235"><ele>-0.5</ele><time>2026-04-25T12:03:08Z</time></trkpt><trkpt lat="44.81641319390183" lon="12.246704098608328"><ele>-0.3333333333333333</ele><time>2026-04-25T12:03:10Z</time></trkpt><trkpt lat="44.81633075075474" lon="12.246756831459097"><ele>-0.16666666666666666</ele><time>2026-04-25T12:03:12Z</time></trkpt><trkpt lat="44.81627147245638" lon="12.246832101188984"><ele>0.0</ele><time>2026-04-25T12:03:14Z</time></trkpt><trkpt lat="44.81619379538036" lon="12.24690680562691"><ele>0.0</ele><time>2026-04-25T12:03:16Z</time></trkpt><trkpt lat="44.81612104417118" lon="12.246977265499519"><ele>0.0</ele><time>2026-04-25T12:03:18Z</time></trkpt><trkpt lat="44.81604412208144" lon="12.247044347644282"><ele>0.0</ele><time>2026-04-25T12:03:20Z</time></trkpt><trkpt lat="44.81597020900369" lon="12.24710863462922"><ele>0.0</ele><time>2026-04-25T12:03:22Z</time></trkpt><trkpt lat="44.81590190658141" lon="12.247187977611215"><ele>0.0</ele><time>2026-04-25T12:03:24Z</time></trkpt><trkpt lat="44.815834344915594" lon="12.247263000883878"><ele>0.0</ele><time>2026-04-25T12:03:26Z</time></trkpt><trkpt lat="44.81575404618458" lon="12.247334079911608"><ele>0.16666666666666666</ele><time>2026-04-25T12:03:28Z</time></trkpt><trkpt lat="44.81567624424519" lon="12.247399310610964"><ele>0.3333333333333333</ele><time>2026-04-25T12:03:30Z</time></trkpt><trkpt lat="44.81560708000388" lon="12.24746322114751"><ele>0.5</ele><time>2026-04-25T12:03:32Z</time></trkpt><trkpt lat="44.81554099338804" lon="12.247520724494949"><ele>0.6666666666666666</ele><time>2026-04-25T12:03:34Z</time></trkpt><trkpt lat="44.815470701014114" lon="12.247585023715788"><ele>0.8333333333333333</ele><time>2026-04-25T12:03:36Z</time></trkpt><trkpt lat="44.8154016010576" lon="12.247652681313118"><ele>1.0</ele><time>2026-04-25T12:03:38Z</time></trkpt><trkpt lat="44.81533435706146" lon="12.247712020816007"><ele>0.9999999999999999</ele><time>2026-04-25T12:03:40Z</time></trkpt><trkpt lat="44.81527041869083" lon="12.247766447207768"><ele>1.0</ele><time>2026-04-25T12:03:42Z</time></trkpt><trkpt lat="44.81520247724741" lon="12.247819097220356"><ele>1.0</ele><time>2026-04-25T12:03:44Z</time></trkpt><trkpt lat="44.81513674219739" lon="12.247870105190966"><ele>1.0</ele><time>2026-04-25T12:03:46Z</time></trkpt><trkpt lat="44.81507442291648" lon="12.247918443218682"><ele>0.9999999999999999</ele><time>2026-04-25T12:03:48Z</time></trkpt><trkpt lat="44.815004728642386" lon="12.24796533706597"><ele>1.0</ele><time>2026-04-25T12:03:50Z</time></trkpt><trkpt lat="44.814924739770376" lon="12.248018682298358"><ele>0.8333333333333333</ele><time>2026-04-25T12:03:52Z</time></trkpt><trkpt lat="44.81484319794344" lon="12.248064381398098"><ele>0.6666666666666666</ele><time>2026-04-25T12:03:54Z</time></trkpt><trkpt lat="44.81476480133538" lon="12.2481121814111"><ele>0.5</ele><time>2026-04-25T12:03:56Z</time></trkpt><trkpt lat="44.81468751861245" lon="12.248160162205863"><ele>0.3333333333333333</ele><time>2026-04-25T12:03:58Z</time></trkpt><trkpt lat="44.814611971883515" lon="12.248193232397053"><ele>0.16666666666666666</ele><time>2026-04-25T12:04:00Z</time></trkpt><trkpt lat="44.814543208765095" lon="12.248235988017237"><ele>0.0</ele><time>2026-04-25T12:04:02Z</time></trkpt><trkpt lat="44.81447205159365" lon="12.248277314666637"><ele>0.0</ele><time>2026-04-25T12:04:04Z</time></trkpt><trkpt lat="44.81439245416258" lon="12.248310784294635"><ele>0.0</ele><time>2026-04-25T12:04:06Z</time></trkpt><trkpt lat="44.814324843146956" lon="12.248343738903852"><ele>0.0</ele><time>2026-04-25T12:04:08Z</time></trkpt><trkpt lat="44.81425564930214" lon="12.248382339371327"><ele>0.0</ele><time>2026-04-25T12:04:10Z</time></trkpt><trkpt lat="44.814188250844595" lon="12.248419108888392"><ele>0.0</ele><time>2026-04-25T12:04:12Z</time></trkpt><trkpt lat="44.814110529342905" lon="12.248460972098016"><ele>0.0</ele><time>2026-04-25T12:04:14Z</time></trkpt><trkpt lat="44.81403388320725" lon="12.248513424507161"><ele>-0.14285714285714285</ele><time>2026-04-25T12:04:16Z</time></trkpt><trkpt lat="44.81396420581701" lon="12.248551838858463"><ele>-0.2857142857142857</ele><time>2026-04-25T12:04:18Z</time></trkpt><trkpt lat="44.813901957237675" lon="12.248568412895361"><ele>-0.42857142857142855</ele><time>2026-04-25T12:04:20Z</time></trkpt><trkpt lat="44.81383757245433" lon="12.248560577083206"><ele>-0.5714285714285714</ele><time>2026-04-25T12:04:22Z</time></trkpt><trkpt lat="44.813775018196296" lon="12.248493927740522"><ele>-0.7142857142857142</ele><time>2026-04-25T12:04:24Z</time></trkpt><trkpt lat="44.81371349272148" lon="12.248433164682579"><ele>-0.8571428571428571</ele><time>2026-04-25T12:04:26Z</time></trkpt><trkpt lat="44.81364852880426" lon="12.24837353132872"><ele>-1.0</ele><time>2026-04-25T12:04:28Z</time></trkpt><trkpt lat="44.813593577702456" lon="12.248313585649267"><ele>-0.9999999999999999</ele><time>2026-04-25T12:04:30Z</time></trkpt><trkpt lat="44.81351918162447" lon="12.248253627323377"><ele>-1.0</ele><time>2026-04-25T12:04:33Z</time></trkpt><trkpt lat="44.81346319041108" lon="12.248200192956498"><ele>-1.0</ele><time>2026-04-25T12:04:35Z</time></trkpt><trkpt lat="44.81338307619498" lon="12.248185568073762"><ele>-1.0</ele><time>2026-04-25T12:04:37Z</time></trkpt><trkpt lat="44.813312898327" lon="12.24828626291694"><ele>-0.9999999999999999</ele><time>2026-04-25T12:04:39Z</time></trkpt><trkpt lat="44.81326469235989" lon="12.248410645698529"><ele>-1.0</ele><time>2026-04-25T12:04:41Z</time></trkpt><trkpt lat="44.81320615360365" lon="12.248527997977394"><ele>-1.0</ele><time>2026-04-25T12:04:43Z</time></trkpt><trkpt lat="44.81313727833229" lon="12.248639358125216"><ele>-1.0</ele><time>2026-04-25T12:04:45Z</time></trkpt><trkpt lat="44.81308844682026" lon="12.248772214063779"><ele>-1.0</ele><time>2026-04-25T12:04:47Z</time></trkpt><trkpt lat="44.813029605076316" lon="12.248893165655673"><ele>-1.0</ele><time>2026-04-25T12:04:49Z</time></trkpt><trkpt lat="44.81297700900794" lon="12.249017853880888"><ele>-1.0</ele><time>2026-04-25T12:04:51Z</time></trkpt><trkpt lat="44.81291200749717" lon="12.249123836054508"><ele>-0.6000000000000001</ele><time>2026-04-25T12:04:53Z</time></trkpt><trkpt lat="44.81284192251019" lon="12.249216722831656"><ele>-0.20000000000000007</ele><time>2026-04-25T12:04:55Z</time></trkpt><trkpt lat="44.812764650657684" lon="12.249287721829877"><ele>0.20000000000000007</ele><time>2026-04-25T12:04:57Z</time></trkpt><trkpt lat="44.81268188333355" lon="12.24933012883117"><ele>0.6000000000000001</ele><time>2026-04-25T12:04:59Z</time></trkpt><trkpt lat="44.81259594033652" lon="12.249384167442017"><ele>1.0</ele><time>2026-04-25T12:05:01Z</time></trkpt><trkpt lat="44.812512618521765" lon="12.249437102810212"><ele>0.8</ele><time>2026-04-25T12:05:03Z</time></trkpt><trkpt lat="44.81242565229049" lon="12.249488674508537"><ele>0.6000000000000001</ele><time>2026-04-25T12:05:05Z</time></trkpt><trkpt lat="44.81234824749312" lon="12.249555923426112"><ele>0.4</ele><time>2026-04-25T12:05:07Z</time></trkpt><trkpt lat="44.81227280191339" lon="12.249624539505065"><ele>0.2</ele><time>2026-04-25T12:05:09Z</time></trkpt><trkpt lat="44.812198119600545" lon="12.249705409432483"><ele>0.0</ele><time>2026-04-25T12:05:11Z</time></trkpt><trkpt lat="44.81213526232687" lon="12.249800373730997"><ele>0.0</ele><time>2026-04-25T12:05:13Z</time></trkpt><trkpt lat="44.81207392233117" lon="12.249893478849781"><ele>0.0</ele><time>2026-04-25T12:05:15Z</time></trkpt><trkpt lat="44.81201450590882" lon="12.249985152218938"><ele>0.0</ele><time>2026-04-25T12:05:17Z</time></trkpt><trkpt lat="44.81195964746074" lon="12.250081007443097"><ele>0.0</ele><time>2026-04-25T12:05:19Z</time></trkpt><trkpt lat="44.81190049974943" lon="12.25016801141263"><ele>0.0</ele><time>2026-04-25T12:05:21Z</time></trkpt><trkpt lat="44.811841309611175" lon="12.250250882881046"><ele>0.0</ele><time>2026-04-25T12:05:23Z</time></trkpt><trkpt lat="44.81179419324641" lon="12.250332073086518"><ele>0.0</ele><time>2026-04-25T12:05:25Z</time></trkpt><trkpt lat="44.81173708661537" lon="12.250426010049145"><ele>0.0</ele><time>2026-04-25T12:05:27Z</time></trkpt><trkpt lat="44.81168592987533" lon="12.250516585661261"><ele>0.0</ele><time>2026-04-25T12:05:29Z</time></trkpt><trkpt lat="44.81163269165691" lon="12.250589037997363"><ele>0.0</ele><time>2026-04-25T12:05:31Z</time></trkpt><trkpt lat="44.811591388091244" lon="12.250659013499037"><ele>0.0</ele><time>2026-04-25T12:05:33Z</time></trkpt><trkpt lat="44.811550436153475" lon="12.250754614754156"><ele>0.0</ele><time>2026-04-25T12:05:36Z</time></trkpt><trkpt lat="44.81154554085379" lon="12.250867864118103"><ele>0.0</ele><time>2026-04-25T12:05:39Z</time></trkpt><trkpt lat="44.8115894689356" lon="12.250977759072702"><ele>0.0</ele><time>2026-04-25T12:05:41Z</time></trkpt><trkpt lat="44.81163144649966" lon="12.251081003329592"><ele>0.0</ele><time>2026-04-25T12:05:43Z</time></trkpt><trkpt lat="44.811668351037426" lon="12.251178001367531"><ele>0.0</ele><time>2026-04-25T12:05:45Z</time></trkpt><trkpt lat="44.81168550922981" lon="12.251280799313259"><ele>0.0</ele><time>2026-04-25T12:05:47Z</time></trkpt><trkpt lat="44.81171691500531" lon="12.251381149225104"><ele>0.0</ele><time>2026-04-25T12:05:49Z</time></trkpt><trkpt lat="44.8117536786464" lon="12.251493873040374"><ele>0.0</ele><time>2026-04-25T12:05:51Z</time></trkpt><trkpt lat="44.81179670885894" lon="12.251608103201047"><ele>0.0</ele><time>2026-04-25T12:05:53Z</time></trkpt><trkpt lat="44.81182971790089" lon="12.251721677779782"><ele>0.0</ele><time>2026-04-25T12:05:55Z</time></trkpt><trkpt lat="44.81186610700283" lon="12.251836029678062"><ele>0.0</ele><time>2026-04-25T12:05:57Z</time></trkpt><trkpt lat="44.81189945655205" lon="12.251956604038588"><ele>0.0</ele><time>2026-04-25T12:05:59Z</time></trkpt><trkpt lat="44.81193499948643" lon="12.252072927024177"><ele>0.0</ele><time>2026-04-25T12:06:01Z</time></trkpt><trkpt lat="44.81197233976306" lon="12.252188793697513"><ele>0.0</ele><time>2026-04-25T12:06:03Z</time></trkpt><trkpt lat="44.81200504536491" lon="12.25230626837758"><ele>0.0</ele><time>2026-04-25T12:06:05Z</time></trkpt><trkpt lat="44.81204190937985" lon="12.252417995232877"><ele>0.0</ele><time>2026-04-25T12:06:07Z</time></trkpt><trkpt lat="44.81206568436404" lon="12.252531628814477"><ele>0.0</ele><time>2026-04-25T12:06:09Z</time></trkpt><trkpt lat="44.8120639148587" lon="12.252641979080735"><ele>0.0</ele><time>2026-04-25T12:06:11Z</time></trkpt><trkpt lat="44.812048595290385" lon="12.252754244953865"><ele>0.0</ele><time>2026-04-25T12:06:13Z</time></trkpt><trkpt lat="44.812014956459294" lon="12.252873291292943"><ele>0.0</ele><time>2026-04-25T12:06:15Z</time></trkpt><trkpt lat="44.81198902860056" lon="12.252999712394594"><ele>0.0</ele><time>2026-04-25T12:06:17Z</time></trkpt><trkpt lat="44.81196289537991" lon="12.25311766515594"><ele>0.0</ele><time>2026-04-25T12:06:19Z</time></trkpt><trkpt lat="44.811928995491485" lon="12.253236718647901"><ele>0.0</ele><time>2026-04-25T12:06:21Z</time></trkpt><trkpt lat="44.81190766373749" lon="12.25336495055583"><ele>0.0</ele><time>2026-04-25T12:06:23Z</time></trkpt><trkpt lat="44.81188556540728" lon="12.25349013074533"><ele>-0.16666666666666666</ele><time>2026-04-25T12:06:25Z</time></trkpt><trkpt lat="44.811864188469485" lon="12.253612719517351"><ele>-0.3333333333333333</ele><time>2026-04-25T12:06:27Z</time></trkpt><trkpt lat="44.81184410467955" lon="12.253725532916512"><ele>-0.5</ele><time>2026-04-25T12:06:29Z</time></trkpt><trkpt lat="44.81181973467527" lon="12.253825270683281"><ele>-0.6666666666666666</ele><time>2026-04-25T12:06:31Z</time></trkpt><trkpt lat="44.81180048862822" lon="12.253932123411357"><ele>-0.8333333333333333</ele><time>2026-04-25T12:06:33Z</time></trkpt><trkpt lat="44.811781652526" lon="12.25402781764017"><ele>-1.0</ele><time>2026-04-25T12:06:35Z</time></trkpt><trkpt lat="44.81175255053347" lon="12.254112508698343"><ele>-0.9999999999999999</ele><time>2026-04-25T12:06:37Z</time></trkpt><trkpt lat="44.811722633082425" lon="12.254190897128922"><ele>-1.0</ele><time>2026-04-25T12:06:39Z</time></trkpt><trkpt lat="44.81170352115772" lon="12.254290933955886"><ele>-1.0</ele><time>2026-04-25T12:06:41Z</time></trkpt><trkpt lat="44.81168472683545" lon="12.254406538095216"><ele>-1.0</ele><time>2026-04-25T12:06:43Z</time></trkpt><trkpt lat="44.811667778876874" lon="12.254529689376255"><ele>-0.9999999999999999</ele><time>2026-04-25T12:06:45Z</time></trkpt><trkpt lat="44.81164323746071" lon="12.254646155566805"><ele>-1.0</ele><time>2026-04-25T12:06:47Z</time></trkpt><trkpt lat="44.81161203709337" lon="12.2547527052017"><ele>-0.9999999999999999</ele><time>2026-04-25T12:06:49Z</time></trkpt><trkpt lat="44.81159885239897" lon="12.254863320594088"><ele>-1.0</ele><time>2026-04-25T12:06:51Z</time></trkpt><trkpt lat="44.81157576747688" lon="12.25495964533254"><ele>-1.0</ele><time>2026-04-25T12:06:53Z</time></trkpt><trkpt lat="44.81155639849249" lon="12.255058410829704"><ele>-1.0</ele><time>2026-04-25T12:06:55Z</time></trkpt><trkpt lat="44.81153573832252" lon="12.255167051775066"><ele>-0.9999999999999999</ele><time>2026-04-25T12:06:57Z</time></trkpt><trkpt lat="44.811512506751676" lon="12.255288597482146"><ele>-1.0</ele><time>2026-04-25T12:06:59Z</time></trkpt><trkpt lat="44.811482608900825" lon="12.255394563082504"><ele>-0.9999999999999999</ele><time>2026-04-25T12:07:01Z</time></trkpt><trkpt lat="44.811462736864925" lon="12.255501738630253"><ele>-1.0</ele><time>2026-04-25T12:07:03Z</time></trkpt><trkpt lat="44.81143898786194" lon="12.255604638390858"><ele>-1.0</ele><time>2026-04-25T12:07:05Z</time></trkpt><trkpt lat="44.811412265468334" lon="12.255709983707348"><ele>-1.0</ele><time>2026-04-25T12:07:07Z</time></trkpt><trkpt lat="44.81139043063158" lon="12.2558136777925"><ele>-0.9999999999999999</ele><time>2026-04-25T12:07:09Z</time></trkpt><trkpt lat="44.811347990112175" lon="12.25590226642368"><ele>-1.0</ele><time>2026-04-25T12:07:11Z</time></trkpt><trkpt lat="44.81129763658535" lon="12.255982645451397"><ele>-0.8333333333333333</ele><time>2026-04-25T12:07:13Z</time></trkpt><trkpt lat="44.811234769521874" lon="12.256046532438361"><ele>-0.6666666666666666</ele><time>2026-04-25T12:07:15Z</time></trkpt><trkpt lat="44.81116346989909" lon="12.25604375404697"><ele>-0.5</ele><time>2026-04-25T12:07:17Z</time></trkpt><trkpt lat="44.81109018739297" lon="12.25602287855078"><ele>-0.3333333333333333</ele><time>2026-04-25T12:07:19Z</time></trkpt><trkpt lat="44.811011894388656" lon="12.255966632950598"><ele>-0.16666666666666666</ele><time>2026-04-25T12:07:21Z</time></trkpt><trkpt lat="44.81093368875104" lon="12.255904521012612"><ele>0.0</ele><time>2026-04-25T12:07:23Z</time></trkpt><trkpt lat="44.810852771659796" lon="12.255840519073589"><ele>0.0</ele><time>2026-04-25T12:07:25Z</time></trkpt><trkpt lat="44.81077254313428" lon="12.2557824387741"><ele>0.0</ele><time>2026-04-25T12:07:27Z</time></trkpt><trkpt lat="44.810690232348" lon="12.255720336321453"><ele>0.0</ele><time>2026-04-25T12:07:29Z</time></trkpt><trkpt lat="44.810606874415576" lon="12.255665225470107"><ele>0.0</ele><time>2026-04-25T12:07:31Z</time></trkpt><trkpt lat="44.81052758812857" lon="12.255609405343863"><ele>0.0</ele><time>2026-04-25T12:07:33Z</time></trkpt><trkpt lat="44.810445273253066" lon="12.255546432556164"><ele>0.0</ele><time>2026-04-25T12:07:35Z</time></trkpt><trkpt lat="44.81036465922993" lon="12.255488001351747"><ele>0.0</ele><time>2026-04-25T12:07:37Z</time></trkpt><trkpt lat="44.81028402789327" lon="12.255431045213852"><ele>0.0</ele><time>2026-04-25T12:07:39Z</time></trkpt><trkpt lat="44.8102016260576" lon="12.25536886892657"><ele>0.0</ele><time>2026-04-25T12:07:41Z</time></trkpt><trkpt lat="44.81012688968859" lon="12.255313497877093"><ele>0.0</ele><time>2026-04-25T12:07:43Z</time></trkpt><trkpt lat="44.810047349899385" lon="12.255246607491689"><ele>0.16666666666666666</ele><time>2026-04-25T12:07:45Z</time></trkpt><trkpt lat="44.809965685864725" lon="12.255190545253686"><ele>0.3333333333333333</ele><time>2026-04-25T12:07:47Z</time></trkpt><trkpt lat="44.809888253552295" lon="12.25513052545582"><ele>0.5</ele><time>2026-04-25T12:07:49Z</time></trkpt><trkpt lat="44.809811552675654" lon="12.255067519694343"><ele>0.6666666666666666</ele><time>2026-04-25T12:07:51Z</time></trkpt><trkpt lat="44.80972809121844" lon="12.255020870923078"><ele>0.8333333333333333</ele><time>2026-04-25T12:07:53Z</time></trkpt><trkpt lat="44.809651647957914" lon="12.254968321356257"><ele>1.0</ele><time>2026-04-25T12:07:55Z</time></trkpt><trkpt lat="44.809578266659884" lon="12.254924379883146"><ele>1.0</ele><time>2026-04-25T12:07:57Z</time></trkpt><trkpt lat="44.80951346550518" lon="12.254866674497569"><ele>0.9999999999999999</ele><time>2026-04-25T12:07:59Z</time></trkpt><trkpt lat="44.80945342302829" lon="12.254819782542933"><ele>1.0</ele><time>2026-04-25T12:08:01Z</time></trkpt><trkpt lat="44.80939579936809" lon="12.254778840533367"><ele>1.0</ele><time>2026-04-25T12:08:03Z</time></trkpt><trkpt lat="44.809320857522025" lon="12.254728915596926"><ele>0.9999999999999999</ele><time>2026-04-25T12:08:05Z</time></trkpt><trkpt lat="44.80925326461029" lon="12.254679670755"><ele>1.0</ele><time>2026-04-25T12:08:07Z</time></trkpt><trkpt lat="44.80918137754245" lon="12.25463127702812"><ele>1.0</ele><time>2026-04-25T12:08:09Z</time></trkpt><trkpt lat="44.80911060137818" lon="12.254577006431344"><ele>0.49999999999999994</ele><time>2026-04-25T12:08:11Z</time></trkpt><trkpt lat="44.809041224922645" lon="12.254520786488198"><ele>0.0</ele><time>2026-04-25T12:08:13Z</time></trkpt><trkpt lat="44.808965488776394" lon="12.254475750984152"><ele>-0.5</ele><time>2026-04-25T12:08:15Z</time></trkpt><trkpt lat="44.80889440109549" lon="12.254403442413075"><ele>-1.0</ele><time>2026-04-25T12:08:17Z</time></trkpt><trkpt lat="44.80880923284834" lon="12.254348780463344"><ele>-1.4999999999999998</ele><time>2026-04-25T12:08:19Z</time></trkpt><trkpt lat="44.80872916978339" lon="12.254286504229356"><ele>-2.0</ele><time>2026-04-25T12:08:21Z</time></trkpt><trkpt lat="44.808649646579966" lon="12.254232195281247"><ele>-1.9999999999999998</ele><time>2026-04-25T12:08:23Z</time></trkpt><trkpt lat="44.80857588036513" lon="12.254182452357655"><ele>-2.0</ele><time>2026-04-25T12:08:25Z</time></trkpt><trkpt lat="44.808505903087585" lon="12.254126111946883"><ele>-2.0</ele><time>2026-04-25T12:08:27Z</time></trkpt><trkpt lat="44.808424656301945" lon="12.254071827403887"><ele>-2.0</ele><time>2026-04-25T12:08:29Z</time></trkpt><trkpt lat="44.80834425862422" lon="12.254001734664952"><ele>-1.9999999999999998</ele><time>2026-04-25T12:08:31Z</time></trkpt><trkpt lat="44.808264826542974" lon="12.253936291851103"><ele>-2.0</ele><time>2026-04-25T12:08:33Z</time></trkpt><trkpt lat="44.80818006206783" lon="12.253891193781568"><ele>-1.9999999999999998</ele><time>2026-04-25T12:08:35Z</time></trkpt><trkpt lat="44.808106428556826" lon="12.253833101017392"><ele>-2.0</ele><time>2026-04-25T12:08:37Z</time></trkpt><trkpt lat="44.80803294329768" lon="12.253772948877105"><ele>-2.0</ele><time>2026-04-25T12:08:39Z</time></trkpt><trkpt lat="44.807960194282465" lon="12.253734866593891"><ele>-2.0</ele><time>2026-04-25T12:08:41Z</time></trkpt><trkpt lat="44.80789732400042" lon="12.253676950934294"><ele>-1.9999999999999998</ele><time>2026-04-25T12:08:43Z</time></trkpt><trkpt lat="44.8078319426256" lon="12.253634195921773"><ele>-2.0</ele><time>2026-04-25T12:08:45Z</time></trkpt><trkpt lat="44.807768731649965" lon="12.253596503075942"><ele>-1.9999999999999998</ele><time>2026-04-25T12:08:47Z</time></trkpt><trkpt lat="44.80770564559595" lon="12.25354844567588"><ele>-2.0</ele><time>2026-04-25T12:08:49Z</time></trkpt><trkpt lat="44.80762947321556" lon="12.253490182835632"><ele>-2.0</ele><time>2026-04-25T12:08:51Z</time></trkpt><trkpt lat="44.80754823202856" lon="12.253433068927249"><ele>-2.0</ele><time>2026-04-25T12:08:53Z</time></trkpt><trkpt lat="44.807470974733555" lon="12.253369814508046"><ele>-1.9999999999999998</ele><time>2026-04-25T12:08:55Z</time></trkpt><trkpt lat="44.807396521822845" lon="12.253315109530408"><ele>-2.0</ele><time>2026-04-25T12:08:57Z</time></trkpt><trkpt lat="44.80732274774315" lon="12.253258332014882"><ele>-1.8333333333333333</ele><time>2026-04-25T12:08:59Z</time></trkpt><trkpt lat="44.807244133763774" lon="12.253209861057162"><ele>-1.6666666666666665</ele><time>2026-04-25T12:09:01Z</time></trkpt><trkpt lat="44.80717111737966" lon="12.253149906236574"><ele>-1.5</ele><time>2026-04-25T12:09:03Z</time></trkpt><trkpt lat="44.80709600956715" lon="12.253108435657326"><ele>-1.3333333333333333</ele><time>2026-04-25T12:09:05Z</time></trkpt><trkpt lat="44.80703391088539" lon="12.253044223048233"><ele>-1.1666666666666665</ele><time>2026-04-25T12:09:07Z</time></trkpt><trkpt lat="44.806963849589465" lon="12.253016103984274"><ele>-1.0</ele><time>2026-04-25T12:09:09Z</time></trkpt><trkpt lat="44.80690042017833" lon="12.25294667396715"><ele>-0.9999999999999999</ele><time>2026-04-25T12:09:11Z</time></trkpt><trkpt lat="44.80683396985296" lon="12.25290165142034"><ele>-1.0</ele><time>2026-04-25T12:09:13Z</time></trkpt><trkpt lat="44.806763453219304" lon="12.252851397842315"><ele>-1.0</ele><time>2026-04-25T12:09:15Z</time></trkpt><trkpt lat="44.806687117792386" lon="12.252799080821001"><ele>-1.0</ele><time>2026-04-25T12:09:17Z</time></trkpt><trkpt lat="44.806617499500675" lon="12.252753814328633"><ele>-0.9999999999999999</ele><time>2026-04-25T12:09:19Z</time></trkpt><trkpt lat="44.80655378539436" lon="12.252705971987387"><ele>-1.0</ele><time>2026-04-25T12:09:21Z</time></trkpt><trkpt lat="44.80648571471776" lon="12.252646859558897"><ele>-0.8333333333333333</ele><time>2026-04-25T12:09:23Z</time></trkpt><trkpt lat="44.80641677981593" lon="12.252587954849123"><ele>-0.6666666666666666</ele><time>2026-04-25T12:09:25Z</time></trkpt><trkpt lat="44.806349027592375" lon="12.252535278210733"><ele>-0.5</ele><time>2026-04-25T12:09:27Z</time></trkpt><trkpt lat="44.8062850784923" lon="12.252484419701302"><ele>-0.3333333333333333</ele><time>2026-04-25T12:09:29Z</time></trkpt><trkpt lat="44.80621233981974" lon="12.252423640068796"><ele>-0.16666666666666666</ele><time>2026-04-25T12:09:31Z</time></trkpt><trkpt lat="44.80613394401489" lon="12.252366017791992"><ele>0.0</ele><time>2026-04-25T12:09:33Z</time></trkpt><trkpt lat="44.806056937283216" lon="12.2523151422085"><ele>-0.3333333333333333</ele><time>2026-04-25T12:09:35Z</time></trkpt><trkpt lat="44.80598331839311" lon="12.252268352943423"><ele>-0.6666666666666666</ele><time>2026-04-25T12:09:37Z</time></trkpt><trkpt lat="44.80590640048816" lon="12.252213123717643"><ele>-1.0</ele><time>2026-04-25T12:09:39Z</time></trkpt><trkpt lat="44.805824644068345" lon="12.252151774728208"><ele>-1.3333333333333333</ele><time>2026-04-25T12:09:41Z</time></trkpt><trkpt lat="44.805745088997554" lon="12.252089121902099"><ele>-1.6666666666666665</ele><time>2026-04-25T12:09:43Z</time></trkpt><trkpt lat="44.80566953239471" lon="12.25203476777093"><ele>-2.0</ele><time>2026-04-25T12:09:45Z</time></trkpt><trkpt lat="44.80560453061905" lon="12.251971048514863"><ele>-1.9999999999999998</ele><time>2026-04-25T12:09:47Z</time></trkpt><trkpt lat="44.805528515503475" lon="12.251918706236008"><ele>-2.0</ele><time>2026-04-25T12:09:49Z</time></trkpt><trkpt lat="44.80545223236665" lon="12.251862405376016"><ele>-2.0</ele><time>2026-04-25T12:09:51Z</time></trkpt><trkpt lat="44.80538052684999" lon="12.251805157671104"><ele>-2.0</ele><time>2026-04-25T12:09:53Z</time></trkpt><trkpt lat="44.805313029704706" lon="12.251752806131405"><ele>-1.9999999999999998</ele><time>2026-04-25T12:09:55Z</time></trkpt><trkpt lat="44.80525135702365" lon="12.25170842104703"><ele>-2.0</ele><time>2026-04-25T12:09:57Z</time></trkpt><trkpt lat="44.80519003156523" lon="12.251676315280188"><ele>-1.8333333333333333</ele><time>2026-04-25T12:09:59Z</time></trkpt><trkpt lat="44.80512447344253" lon="12.251663607284664"><ele>-1.6666666666666665</ele><time>2026-04-25T12:10:01Z</time></trkpt><trkpt lat="44.80505789872494" lon="12.251748180748708"><ele>-1.5</ele><time>2026-04-25T12:10:04Z</time></trkpt><trkpt lat="44.80504293991133" lon="12.251871079518654"><ele>-1.3333333333333333</ele><time>2026-04-25T12:10:06Z</time></trkpt><trkpt lat="44.805038306444544" lon="12.251977038069183"><ele>-1.1666666666666665</ele><time>2026-04-25T12:10:08Z</time></trkpt><trkpt lat="44.80502898552361" lon="12.25207741712117"><ele>-1.0</ele><time>2026-04-25T12:10:10Z</time></trkpt><trkpt lat="44.805023716811135" lon="12.252175551976842"><ele>-0.9999999999999999</ele><time>2026-04-25T12:10:12Z</time></trkpt><trkpt lat="44.805017766454746" lon="12.252288156328971"><ele>-1.0</ele><time>2026-04-25T12:10:14Z</time></trkpt><trkpt lat="44.805007211203886" lon="12.252412899665481"><ele>-1.0</ele><time>2026-04-25T12:10:16Z</time></trkpt><trkpt lat="44.805002490719836" lon="12.25253724892532"><ele>-1.0</ele><time>2026-04-25T12:10:18Z</time></trkpt><trkpt lat="44.80499700775853" lon="12.252663248662149"><ele>-0.9999999999999999</ele><time>2026-04-25T12:10:20Z</time></trkpt><trkpt lat="44.80498949244155" lon="12.252790997249617"><ele>-1.0</ele><time>2026-04-25T12:10:22Z</time></trkpt><trkpt lat="44.8049841183407" lon="12.25290823971844"><ele>-1.1666666666666665</ele><time>2026-04-25T12:10:24Z</time></trkpt><trkpt lat="44.80497221098302" lon="12.253024699302717"><ele>-1.3333333333333333</ele><time>2026-04-25T12:10:26Z</time></trkpt><trkpt lat="44.80494783237413" lon="12.25314317935001"><ele>-1.5</ele><time>2026-04-25T12:10:28Z</time></trkpt><trkpt lat="44.80493772172208" lon="12.253254304942446"><ele>-1.6666666666666665</ele><time>2026-04-25T12:10:30Z</time></trkpt><trkpt lat="44.80492897601447" lon="12.253367838714722"><ele>-1.8333333333333333</ele><time>2026-04-25T12:10:32Z</time></trkpt><trkpt lat="44.80492094379315" lon="12.253491562349678"><ele>-2.0</ele><time>2026-04-25T12:10:34Z</time></trkpt><trkpt lat="44.80491498806529" lon="12.25361867446786"><ele>-1.9999999999999998</ele><time>2026-04-25T12:10:36Z</time></trkpt><trkpt lat="44.80490626518453" lon="12.253750834882867"><ele>-2.0</ele><time>2026-04-25T12:10:38Z</time></trkpt><trkpt lat="44.80489719422036" lon="12.253876905316694"><ele>-2.0</ele><time>2026-04-25T12:10:40Z</time></trkpt><trkpt lat="44.80488951460198" lon="12.254003203412218"><ele>-2.0</ele><time>2026-04-25T12:10:42Z</time></trkpt><trkpt lat="44.80488498350873" lon="12.254118486304748"><ele>-1.9999999999999998</ele><time>2026-04-25T12:10:44Z</time></trkpt><trkpt lat="44.80487853056202" lon="12.254230107688432"><ele>-2.0</ele><time>2026-04-25T12:10:46Z</time></trkpt><trkpt lat="44.804873791700814" lon="12.254346905327509"><ele>-1.9999999999999998</ele><time>2026-04-25T12:10:48Z</time></trkpt><trkpt lat="44.804865222507196" lon="12.254457019299908"><ele>-2.0</ele><time>2026-04-25T12:10:50Z</time></trkpt><trkpt lat="44.80486125897834" lon="12.254561641746697"><ele>-2.0</ele><time>2026-04-25T12:10:52Z</time></trkpt><trkpt lat="44.804855104008425" lon="12.254659869318592"><ele>-2.0</ele><time>2026-04-25T12:10:54Z</time></trkpt><trkpt lat="44.80485264494911" lon="12.254757281235742"><ele>-1.9999999999999998</ele><time>2026-04-25T12:10:56Z</time></trkpt><trkpt lat="44.804843891478455" lon="12.254885786034187"><ele>-2.0</ele><time>2026-04-25T12:10:59Z</time></trkpt><trkpt lat="44.80484568217699" lon="12.25501773212762"><ele>-1.8333333333333333</ele><time>2026-04-25T12:11:02Z</time></trkpt><trkpt lat="44.80488080466317" lon="12.25509373275232"><ele>-1.6666666666666665</ele><time>2026-04-25T12:11:04Z</time></trkpt><trkpt lat="44.80489902092747" lon="12.255198287539947"><ele>-1.5</ele><time>2026-04-25T12:11:06Z</time></trkpt><trkpt lat="44.80490600830088" lon="12.255315920020275"><ele>-1.3333333333333333</ele><time>2026-04-25T12:11:08Z</time></trkpt><trkpt lat="44.8049165870952" lon="12.255434179434111"><ele>-1.1666666666666665</ele><time>2026-04-25T12:11:10Z</time></trkpt><trkpt lat="44.80492439985848" lon="12.255543732690738"><ele>-1.0</ele><time>2026-04-25T12:11:12Z</time></trkpt><trkpt lat="44.8049343862191" lon="12.255640714382261"><ele>-0.9999999999999999</ele><time>2026-04-25T12:11:14Z</time></trkpt><trkpt lat="44.80491073825464" lon="12.255729855714309"><ele>-1.0</ele><time>2026-04-25T12:11:16Z</time></trkpt><trkpt lat="44.80491139144263" lon="12.255833496314546"><ele>-1.0</ele><time>2026-04-25T12:11:18Z</time></trkpt><trkpt lat="44.80491604401615" lon="12.255953568059418"><ele>-1.0</ele><time>2026-04-25T12:11:20Z</time></trkpt><trkpt lat="44.804929307118414" lon="12.256073383021619"><ele>-0.9999999999999999</ele><time>2026-04-25T12:11:22Z</time></trkpt><trkpt lat="44.8049259501411" lon="12.256178890349895"><ele>-1.0</ele><time>2026-04-25T12:11:24Z</time></trkpt><trkpt lat="44.80492277638623" lon="12.256281206112746"><ele>-0.9999999999999999</ele><time>2026-04-25T12:11:26Z</time></trkpt><trkpt lat="44.804925706346744" lon="12.256373427447981"><ele>-1.0</ele><time>2026-04-25T12:11:28Z</time></trkpt><trkpt lat="44.80493055973859" lon="12.256478178829061"><ele>-1.0</ele><time>2026-04-25T12:11:30Z</time></trkpt><trkpt lat="44.804931461589376" lon="12.256595743131435"><ele>-1.0</ele><time>2026-04-25T12:11:32Z</time></trkpt><trkpt lat="44.80491817062202" lon="12.256714757461841"><ele>-0.9999999999999999</ele><time>2026-04-25T12:11:34Z</time></trkpt><trkpt lat="44.804910234059065" lon="12.256830120268797"><ele>-1.0</ele><time>2026-04-25T12:11:36Z</time></trkpt><trkpt lat="44.80490150210244" lon="12.256941894617459"><ele>-1.0</ele><time>2026-04-25T12:11:38Z</time></trkpt><trkpt lat="44.804887290643165" lon="12.257056892742595"><ele>-0.9999999999999999</ele><time>2026-04-25T12:11:40Z</time></trkpt><trkpt lat="44.804887973420946" lon="12.257165024361631"><ele>-1.0</ele><time>2026-04-25T12:11:42Z</time></trkpt><trkpt lat="44.804911987342756" lon="12.257252622148574"><ele>-1.0</ele><time>2026-04-25T12:11:57Z</time></trkpt><trkpt lat="44.80492059612004" lon="12.257363598330842"><ele>-0.9999999999999999</ele><time>2026-04-25T12:12:06Z</time></trkpt><trkpt lat="44.80491508759546" lon="12.25745457466484"><ele>-1.0</ele><time>2026-04-25T12:12:08Z</time></trkpt><trkpt lat="44.80488679307437" lon="12.257552853045896"><ele>-1.0</ele><time>2026-04-25T12:12:10Z</time></trkpt><trkpt lat="44.804873709116386" lon="12.257648704634983"><ele>-0.9999999999999999</ele><time>2026-04-25T12:12:12Z</time></trkpt><trkpt lat="44.804884607558265" lon="12.25775520354222"><ele>-1.0</ele><time>2026-04-25T12:12:15Z</time></trkpt><trkpt lat="44.804837873137856" lon="12.257852389597671"><ele>-1.0</ele><time>2026-04-25T12:12:18Z</time></trkpt><trkpt lat="44.804832453975116" lon="12.257954158712561"><ele>-1.0</ele><time>2026-04-25T12:12:21Z</time></trkpt><trkpt lat="44.80483582239354" lon="12.258059184061642"><ele>-0.9999999999999999</ele><time>2026-04-25T12:12:24Z</time></trkpt><trkpt lat="44.80477838635686" lon="12.25814094032893"><ele>-1.0</ele><time>2026-04-25T12:12:29Z</time></trkpt><trkpt lat="44.80481049655268" lon="12.258053700722169"><ele>-0.9999999999999999</ele><time>2026-04-25T12:14:51Z</time></trkpt><trkpt lat="44.80485292951212" lon="12.257939449980578"><ele>-1.0</ele><time>2026-04-25T12:14:54Z</time></trkpt><trkpt lat="44.8048613718464" lon="12.257833168829201"><ele>-1.0</ele><time>2026-04-25T12:14:56Z</time></trkpt><trkpt lat="44.80487689927546" lon="12.257722951616554"><ele>-1.0</ele><time>2026-04-25T12:14:58Z</time></trkpt><trkpt lat="44.80489468865609" lon="12.257601402126841"><ele>-0.9999999999999999</ele><time>2026-04-25T12:15:00Z</time></trkpt><trkpt lat="44.80490397757804" lon="12.257470998803674"><ele>-1.0</ele><time>2026-04-25T12:15:02Z</time></trkpt><trkpt lat="44.804898586702265" lon="12.257336468489529"><ele>-1.0</ele><time>2026-04-25T12:15:04Z</time></trkpt><trkpt lat="44.80493127608286" lon="12.257237902088105"><ele>-0.9999999999999999</ele><time>2026-04-25T12:15:06Z</time></trkpt><trkpt lat="44.80497765254117" lon="12.25730293775024"><ele>-1.0</ele><time>2026-04-25T12:15:09Z</time></trkpt><trkpt lat="44.80497632426732" lon="12.257420855071782"><ele>-1.0</ele><time>2026-04-25T12:15:12Z</time></trkpt><trkpt lat="44.804968727895385" lon="12.257532250565596"><ele>-0.9999999999999999</ele><time>2026-04-25T12:15:14Z</time></trkpt><trkpt lat="44.804962564964434" lon="12.257628400981542"><ele>-1.0</ele><time>2026-04-25T12:15:16Z</time></trkpt><trkpt lat="44.80495523615246" lon="12.257721174413609"><ele>-1.0</ele><time>2026-04-25T12:15:17.999Z</time></trkpt><trkpt lat="44.80494869210847" lon="12.257851470983173"><ele>-0.9999999999999999</ele><time>2026-04-25T12:15:20.999Z</time></trkpt><trkpt lat="44.80493479646895" lon="12.25794264874629"><ele>-1.0</ele><time>2026-04-25T12:15:22.999Z</time></trkpt><trkpt lat="44.80490626385459" lon="12.258054431989525"><ele>-1.0</ele><time>2026-04-25T12:15:25.999Z</time></trkpt><trkpt lat="44.80489286447396" lon="12.258152329648484"><ele>-1.0</ele><time>2026-04-25T12:15:28.999Z</time></trkpt><trkpt lat="44.804879487207984" lon="12.25824891767378"><ele>-0.9999999999999999</ele><time>2026-04-25T12:15:31.999Z</time></trkpt><trkpt lat="44.80484961183195" lon="12.258354439107746"><ele>-1.0</ele><time>2026-04-25T12:15:36.999Z</time></trkpt><trkpt lat="44.804806115553404" lon="12.25847459805412"><ele>-0.9999999999999999</ele><time>2026-04-25T12:15:39.999Z</time></trkpt><trkpt lat="44.804770580608334" lon="12.258586635413787"><ele>-1.0</ele><time>2026-04-25T12:15:41.999Z</time></trkpt><trkpt lat="44.804732499441826" lon="12.25869516469248"><ele>-1.0</ele><time>2026-04-25T12:15:43.999Z</time></trkpt><trkpt lat="44.804688154475166" lon="12.258792367079941"><ele>-1.0</ele><time>2026-04-25T12:15:45.999Z</time></trkpt><trkpt lat="44.80464440654162" lon="12.25889160484733"><ele>-0.9999999999999999</ele><time>2026-04-25T12:15:47.999Z</time></trkpt><trkpt lat="44.80459877033924" lon="12.258982665480518"><ele>-1.0</ele><time>2026-04-25T12:15:49.999Z</time></trkpt><trkpt lat="44.80455174748197" lon="12.259068354317106"><ele>-1.3333333333333333</ele><time>2026-04-25T12:15:51.999Z</time></trkpt><trkpt lat="44.80452796719312" lon="12.259172575915164"><ele>-1.6666666666666665</ele><time>2026-04-25T12:15:53.999Z</time></trkpt><trkpt lat="44.804513503001736" lon="12.259306333391901"><ele>-2.0</ele><time>2026-04-25T12:15:55.999Z</time></trkpt><trkpt lat="44.80451592995625" lon="12.259432611773088"><ele>-2.3333333333333335</ele><time>2026-04-25T12:15:57.999Z</time></trkpt><trkpt lat="44.804547568075115" lon="12.259523224478393"><ele>-2.6666666666666665</ele><time>2026-04-25T12:15:59.999Z</time></trkpt><trkpt lat="44.80457996357783" lon="12.259600774791709"><ele>-3.0</ele><time>2026-04-25T12:16:01.999Z</time></trkpt><trkpt lat="44.804631917318865" lon="12.2596807364923"><ele>-2.9999999999999996</ele><time>2026-04-25T12:16:04.999Z</time></trkpt><trkpt lat="44.80465628563603" lon="12.2597646212498"><ele>-3.0</ele><time>2026-04-25T12:16:07.999Z</time></trkpt><trkpt lat="44.804702437792" lon="12.25987502499176"><ele>-3.0</ele><time>2026-04-25T12:16:11.999Z</time></trkpt><trkpt lat="44.80472330310481" lon="12.259970542286487"><ele>-3.0</ele><time>2026-04-25T12:16:13.999Z</time></trkpt><trkpt lat="44.80474260581491" lon="12.26007061212393"><ele>-3.0</ele><time>2026-04-25T12:16:15.999Z</time></trkpt><trkpt lat="44.80476600887675" lon="12.260158414185232"><ele>-2.9999999999999996</ele><time>2026-04-25T12:16:17.999Z</time></trkpt><trkpt lat="44.804802814432826" lon="12.260255113551247"><ele>-3.0</ele><time>2026-04-25T12:16:19.999Z</time></trkpt><trkpt lat="44.80483346403174" lon="12.260360077373269"><ele>-2.714285714285714</ele><time>2026-04-25T12:16:21.999Z</time></trkpt><trkpt lat="44.80487145246983" lon="12.260453770821009"><ele>-2.4285714285714284</ele><time>2026-04-25T12:16:23.999Z</time></trkpt><trkpt lat="44.80489821304384" lon="12.260546282208496"><ele>-2.142857142857143</ele><time>2026-04-25T12:16:25.999Z</time></trkpt><trkpt lat="44.804933728638204" lon="12.26063097811812"><ele>-1.857142857142857</ele><time>2026-04-25T12:16:27.999Z</time></trkpt><trkpt lat="44.80496751603416" lon="12.260712480986712"><ele>-1.5714285714285712</ele><time>2026-04-25T12:16:29.999Z</time></trkpt><trkpt lat="44.80498794488966" lon="12.260798172664877"><ele>-1.2857142857142856</ele><time>2026-04-25T12:16:31.999Z</time></trkpt><trkpt lat="44.804997998730066" lon="12.260886165122828"><ele>-1.0</ele><time>2026-04-25T12:16:33.999Z</time></trkpt><trkpt lat="44.80501598339184" lon="12.260980128211012"><ele>-0.9999999999999999</ele><time>2026-04-25T12:16:35.999Z</time></trkpt><trkpt lat="44.805028838130085" lon="12.261078575714663"><ele>-1.0</ele><time>2026-04-25T12:16:37.999Z</time></trkpt><trkpt lat="44.805065949366245" lon="12.261202629880765"><ele>-1.0</ele><time>2026-04-25T12:16:40.999Z</time></trkpt><trkpt lat="44.805131948541145" lon="12.26124571427864"><ele>-1.0</ele><time>2026-04-25T12:16:42.999Z</time></trkpt><trkpt lat="44.80520314603982" lon="12.261274540383111"><ele>-0.9999999999999999</ele><time>2026-04-25T12:16:44.999Z</time></trkpt><trkpt lat="44.80528148580247" lon="12.261305161460202"><ele>-1.0</ele><time>2026-04-25T12:16:46.999Z</time></trkpt><trkpt lat="44.80535193799184" lon="12.261354868506894"><ele>-1.0</ele><time>2026-04-25T12:16:48.999Z</time></trkpt><trkpt lat="44.805410206500866" lon="12.26140185130636"><ele>-0.9999999999999999</ele><time>2026-04-25T12:16:50.999Z</time></trkpt><trkpt lat="44.80547053807852" lon="12.261446333023828"><ele>-1.0</ele><time>2026-04-25T12:16:52.999Z</time></trkpt><trkpt lat="44.80553723312288" lon="12.26145836213525"><ele>-1.0</ele><time>2026-04-25T12:16:55Z</time></trkpt><trkpt lat="44.80560551766669" lon="12.261428151589678"><ele>-0.9999999999999999</ele><time>2026-04-25T12:16:57Z</time></trkpt><trkpt lat="44.80568316600523" lon="12.261397651102545"><ele>-1.0</ele><time>2026-04-25T12:16:59Z</time></trkpt><trkpt lat="44.80575535601906" lon="12.26138571121842"><ele>-1.0</ele><time>2026-04-25T12:17:01Z</time></trkpt><trkpt lat="44.80583904300701" lon="12.261369230762106"><ele>-0.9999999999999999</ele><time>2026-04-25T12:17:03Z</time></trkpt><trkpt lat="44.805911579176325" lon="12.2613907613871"><ele>-1.0</ele><time>2026-04-25T12:17:05Z</time></trkpt><trkpt lat="44.80599627508084" lon="12.261433423934648"><ele>-1.0</ele><time>2026-04-25T12:17:07Z</time></trkpt><trkpt lat="44.80607362608738" lon="12.261447059698368"><ele>-1.0</ele><time>2026-04-25T12:17:09Z</time></trkpt><trkpt lat="44.8061401228066" lon="12.26149415250902"><ele>-0.9999999999999999</ele><time>2026-04-25T12:17:11Z</time></trkpt><trkpt lat="44.806203430171294" lon="12.261536706139022"><ele>-1.0</ele><time>2026-04-25T12:17:13Z</time></trkpt><trkpt lat="44.806266834399324" lon="12.26155634744869"><ele>-0.9999999999999999</ele><time>2026-04-25T12:17:15Z</time></trkpt><trkpt lat="44.80635089821725" lon="12.261584996769344"><ele>-1.0</ele><time>2026-04-25T12:17:17Z</time></trkpt><trkpt lat="44.80642920877635" lon="12.261621736333467"><ele>-1.0</ele><time>2026-04-25T12:17:19Z</time></trkpt><trkpt lat="44.80650534244832" lon="12.261641008642334"><ele>-1.0</ele><time>2026-04-25T12:17:21Z</time></trkpt><trkpt lat="44.80656509366146" lon="12.261691603622909"><ele>-0.9999999999999999</ele><time>2026-04-25T12:17:23Z</time></trkpt><trkpt lat="44.8066354154437" lon="12.26178104957722"><ele>-1.0</ele><time>2026-04-25T12:17:25Z</time></trkpt><trkpt lat="44.80672298048574" lon="12.261830051539887"><ele>-0.9999999999999999</ele><time>2026-04-25T12:17:27Z</time></trkpt><trkpt lat="44.80679752245983" lon="12.261877072396674"><ele>-1.0</ele><time>2026-04-25T12:17:29Z</time></trkpt><trkpt lat="44.80687726473317" lon="12.261921848456547"><ele>-1.0</ele><time>2026-04-25T12:17:31Z</time></trkpt><trkpt lat="44.80695204534865" lon="12.261970733357149"><ele>-1.0</ele><time>2026-04-25T12:17:33Z</time></trkpt><trkpt lat="44.80702284129148" lon="12.261996858613577"><ele>-0.9999999999999999</ele><time>2026-04-25T12:17:35Z</time></trkpt><trkpt lat="44.80710672472169" lon="12.26202768170214"><ele>-1.0</ele><time>2026-04-25T12:17:38Z</time></trkpt><trkpt lat="44.807193429322275" lon="12.262079662744174"><ele>-0.9999999999999999</ele><time>2026-04-25T12:17:41Z</time></trkpt><trkpt lat="44.807266899870726" lon="12.262114617459918"><ele>-1.0</ele><time>2026-04-25T12:17:43Z</time></trkpt><trkpt lat="44.80735822897281" lon="12.262191794864368"><ele>-1.0</ele><time>2026-04-25T12:17:46Z</time></trkpt><trkpt lat="44.80741878575178" lon="12.26223224874583"><ele>-1.0</ele><time>2026-04-25T12:17:48Z</time></trkpt><trkpt lat="44.80749218849963" lon="12.262307780759844"><ele>-0.9999999999999999</ele><time>2026-04-25T12:17:51Z</time></trkpt><trkpt lat="44.80755960970392" lon="12.262346159387262"><ele>-1.0</ele><time>2026-04-25T12:17:53Z</time></trkpt><trkpt lat="44.80762424207824" lon="12.262375937386857"><ele>-1.0</ele><time>2026-04-25T12:17:55Z</time></trkpt><trkpt lat="44.80767469237731" lon="12.262441301040477"><ele>-0.9999999999999999</ele><time>2026-04-25T12:17:57Z</time></trkpt><trkpt lat="44.807624793662484" lon="12.262380027408538"><ele>-1.0</ele><time>2026-04-25T12:18:28Z</time></trkpt><trkpt lat="44.80756104239626" lon="12.262384463910854"><ele>-1.0</ele><time>2026-04-25T12:18:40Z</time></trkpt><trkpt lat="44.80762585461397" lon="12.262404540956501"><ele>-0.9999999999999999</ele><time>2026-04-25T12:19:46Z</time></trkpt><trkpt lat="44.80755948825092" lon="12.262399955679639"><ele>-1.0</ele><time>2026-04-25T12:20:28Z</time></trkpt><trkpt lat="44.8076316845759" lon="12.26239230803551"><ele>-1.0</ele><time>2026-04-25T12:21:44Z</time></trkpt><trkpt lat="44.807700140766" lon="12.262415895769122"><ele>-0.8571428571428571</ele><time>2026-04-25T12:21:47Z</time></trkpt><trkpt lat="44.80763509393321" lon="12.262400255245078"><ele>-0.7142857142857142</ele><time>2026-04-25T12:22:34Z</time></trkpt><trkpt lat="44.80757432360674" lon="12.262366845213634"><ele>-0.5714285714285714</ele><time>2026-04-25T12:22:41Z</time></trkpt><trkpt lat="44.807637889017194" lon="12.262396298823095"><ele>-0.42857142857142855</ele><time>2026-04-25T12:24:10Z</time></trkpt><trkpt lat="44.80757296722606" lon="12.262360401807737"><ele>-0.2857142857142857</ele><time>2026-04-25T12:49:12Z</time></trkpt><trkpt lat="44.807647642599015" lon="12.26240192298918"><ele>-0.14285714285714285</ele><time>2026-04-25T12:56:36Z</time></trkpt><trkpt lat="44.80758319094147" lon="12.262363059665963"><ele>0.0</ele><time>2026-04-25T13:23:16.999Z</time></trkpt><trkpt lat="44.80751579019995" lon="12.262339579258605"><ele>0.0</ele><time>2026-04-25T13:23:47Z</time></trkpt><trkpt lat="44.80745697403097" lon="12.262297460747796"><ele>0.0</ele><time>2026-04-25T13:23:50Z</time></trkpt><trkpt lat="44.80739285541806" lon="12.262241650197927"><ele>0.0</ele><time>2026-04-25T13:23:52Z</time></trkpt><trkpt lat="44.8073331720403" lon="12.26218231462361"><ele>0.0</ele><time>2026-04-25T13:23:54Z</time></trkpt><trkpt lat="44.80724741036578" lon="12.262124230019497"><ele>0.0</ele><time>2026-04-25T13:23:57Z</time></trkpt><trkpt lat="44.80717155484323" lon="12.262080111302494"><ele>0.0</ele><time>2026-04-25T13:23:59Z</time></trkpt><trkpt lat="44.807105053125255" lon="12.26204402991925"><ele>-0.14285714285714285</ele><time>2026-04-25T13:24:01Z</time></trkpt><trkpt lat="44.80702152530792" lon="12.262000547294388"><ele>-0.2857142857142857</ele><time>2026-04-25T13:24:04Z</time></trkpt><trkpt lat="44.80696124015642" lon="12.261973275554682"><ele>-0.42857142857142855</ele><time>2026-04-25T13:24:06Z</time></trkpt><trkpt lat="44.80689390706407" lon="12.261941956163213"><ele>-0.5714285714285714</ele><time>2026-04-25T13:24:08Z</time></trkpt><trkpt lat="44.80682838738868" lon="12.261905492760423"><ele>-0.7142857142857142</ele><time>2026-04-25T13:24:10Z</time></trkpt><trkpt lat="44.80676691412724" lon="12.261859907965531"><ele>-0.8571428571428571</ele><time>2026-04-25T13:24:12Z</time></trkpt><trkpt lat="44.80669808787286" lon="12.261815452578091"><ele>-1.0</ele><time>2026-04-25T13:24:14Z</time></trkpt><trkpt lat="44.80664021550426" lon="12.26177413542798"><ele>-0.9999999999999999</ele><time>2026-04-25T13:24:16Z</time></trkpt><trkpt lat="44.806584418991704" lon="12.261723504783427"><ele>-1.0</ele><time>2026-04-25T13:24:18Z</time></trkpt><trkpt lat="44.80652993266633" lon="12.261662834760097"><ele>-1.0</ele><time>2026-04-25T13:24:20Z</time></trkpt><trkpt lat="44.806464159113744" lon="12.261643094691417"><ele>-1.0</ele><time>2026-04-25T13:24:22Z</time></trkpt><trkpt lat="44.806379404016404" lon="12.261637743497497"><ele>-0.9999999999999999</ele><time>2026-04-25T13:24:24Z</time></trkpt><trkpt lat="44.806297775352256" lon="12.261594697403385"><ele>-1.0</ele><time>2026-04-25T13:24:26Z</time></trkpt><trkpt lat="44.80622618307736" lon="12.261550255079548"><ele>-0.9999999999999999</ele><time>2026-04-25T13:24:28Z</time></trkpt><trkpt lat="44.80615076046656" lon="12.261528116131998"><ele>-1.0</ele><time>2026-04-25T13:24:30Z</time></trkpt><trkpt lat="44.80608214588647" lon="12.261504344142814"><ele>-1.0</ele><time>2026-04-25T13:24:32Z</time></trkpt><trkpt lat="44.806019235313165" lon="12.261458320191066"><ele>-1.0</ele><time>2026-04-25T13:24:34Z</time></trkpt><trkpt lat="44.80593894703333" lon="12.26144935592871"><ele>-0.9999999999999999</ele><time>2026-04-25T13:24:36Z</time></trkpt><trkpt lat="44.805845282296524" lon="12.261421357412312"><ele>-1.0</ele><time>2026-04-25T13:24:39Z</time></trkpt><trkpt lat="44.805765165510365" lon="12.261426890179203"><ele>-0.9999999999999999</ele><time>2026-04-25T13:24:41Z</time></trkpt><trkpt lat="44.805689509567806" lon="12.261429055825205"><ele>-1.0</ele><time>2026-04-25T13:24:43Z</time></trkpt><trkpt lat="44.805624745899166" lon="12.261462359480326"><ele>-1.0</ele><time>2026-04-25T13:24:45Z</time></trkpt><trkpt lat="44.80555625138663" lon="12.26148376943612"><ele>-1.0</ele><time>2026-04-25T13:24:47Z</time></trkpt><trkpt lat="44.80546469967339" lon="12.26146622449005"><ele>-0.9999999999999999</ele><time>2026-04-25T13:24:50Z</time></trkpt><trkpt lat="44.80539025361478" lon="12.261418188644747"><ele>-1.0</ele><time>2026-04-25T13:24:52Z</time></trkpt><trkpt lat="44.80532246921313" lon="12.26135231460072"><ele>-0.9999999999999999</ele><time>2026-04-25T13:24:53.999Z</time></trkpt><trkpt lat="44.80525313073601" lon="12.261308587308733"><ele>-1.0</ele><time>2026-04-25T13:24:55.999Z</time></trkpt><trkpt lat="44.80517601019538" lon="12.261279218904964"><ele>-1.0</ele><time>2026-04-25T13:24:57.999Z</time></trkpt><trkpt lat="44.80509896783298" lon="12.261225545184315"><ele>-1.0</ele><time>2026-04-25T13:24:59.999Z</time></trkpt><trkpt lat="44.80505645477657" lon="12.26114731829689"><ele>-0.9999999999999999</ele><time>2026-04-25T13:25:01.999Z</time></trkpt><trkpt lat="44.805035184711144" lon="12.261053471251785"><ele>-1.0</ele><time>2026-04-25T13:25:03.999Z</time></trkpt><trkpt lat="44.80501826666655" lon="12.260958463934998"><ele>-0.9999999999999999</ele><time>2026-04-25T13:25:05.999Z</time></trkpt><trkpt lat="44.80499814541404" lon="12.260835417111583"><ele>-1.0</ele><time>2026-04-25T13:25:07.999Z</time></trkpt><trkpt lat="44.804971734574394" lon="12.260722954184992"><ele>-1.0</ele><time>2026-04-25T13:25:09.999Z</time></trkpt><trkpt lat="44.80493821774566" lon="12.260621479902046"><ele>-1.0</ele><time>2026-04-25T13:25:11.999Z</time></trkpt><trkpt lat="44.80490942322985" lon="12.260524076597408"><ele>-0.9999999999999999</ele><time>2026-04-25T13:25:13.999Z</time></trkpt><trkpt lat="44.804871170505095" lon="12.260443255976867"><ele>-1.0</ele><time>2026-04-25T13:25:15.999Z</time></trkpt><trkpt lat="44.80483155331783" lon="12.260324403661814"><ele>-0.9999999999999999</ele><time>2026-04-25T13:25:18.999Z</time></trkpt><trkpt lat="44.804782386350475" lon="12.260200951317962"><ele>-1.0</ele><time>2026-04-25T13:25:21.999Z</time></trkpt><trkpt lat="44.80476150054853" lon="12.26009882634058"><ele>-1.0</ele><time>2026-04-25T13:25:23.999Z</time></trkpt><trkpt lat="44.80473860583281" lon="12.260012221491868"><ele>-1.0</ele><time>2026-04-25T13:25:25.999Z</time></trkpt><trkpt lat="44.80471180311766" lon="12.259900213557712"><ele>-0.9999999999999999</ele><time>2026-04-25T13:25:28.999Z</time></trkpt><trkpt lat="44.80467948942823" lon="12.259814510687386"><ele>-1.0</ele><time>2026-04-25T13:25:30.999Z</time></trkpt><trkpt lat="44.80464359448632" lon="12.25969094664962"><ele>-1.3333333333333333</ele><time>2026-04-25T13:25:33.999Z</time></trkpt><trkpt lat="44.80460015922259" lon="12.25958213222389"><ele>-1.6666666666666665</ele><time>2026-04-25T13:25:36.999Z</time></trkpt><trkpt lat="44.80456069346555" lon="12.25947780439504"><ele>-2.0</ele><time>2026-04-25T13:25:40Z</time></trkpt><trkpt lat="44.804550178373184" lon="12.259382113921317"><ele>-2.3333333333333335</ele><time>2026-04-25T13:25:43Z</time></trkpt><trkpt lat="44.804560654792375" lon="12.259275044791398"><ele>-2.6666666666666665</ele><time>2026-04-25T13:25:47Z</time></trkpt><trkpt lat="44.80457549884612" lon="12.259185270783211"><ele>-3.0</ele><time>2026-04-25T13:25:51Z</time></trkpt><trkpt lat="44.8045953661055" lon="12.259095390086635"><ele>-2.9999999999999996</ele><time>2026-04-25T13:25:55Z</time></trkpt><trkpt lat="44.80463451537203" lon="12.259006424163006"><ele>-3.0</ele><time>2026-04-25T13:25:58Z</time></trkpt><trkpt lat="44.804678326029" lon="12.258938270606388"><ele>-3.0</ele><time>2026-04-25T13:26:00Z</time></trkpt><trkpt lat="44.80471559002367" lon="12.258855836810127"><ele>-3.0</ele><time>2026-04-25T13:26:02Z</time></trkpt><trkpt lat="44.80475962441624" lon="12.258756949933554"><ele>-3.0</ele><time>2026-04-25T13:26:05Z</time></trkpt><trkpt lat="44.8047961425296" lon="12.258655379317847"><ele>-2.9999999999999996</ele><time>2026-04-25T13:26:08Z</time></trkpt><trkpt lat="44.8048259008428" lon="12.258573541818924"><ele>-3.0</ele><time>2026-04-25T13:26:10Z</time></trkpt><trkpt lat="44.80484922406137" lon="12.258475101351337"><ele>-2.714285714285714</ele><time>2026-04-25T13:26:12Z</time></trkpt><trkpt lat="44.804871606407694" lon="12.258383480721953"><ele>-2.4285714285714284</ele><time>2026-04-25T13:26:14Z</time></trkpt><trkpt lat="44.80489527198169" lon="12.258296676157745"><ele>-2.142857142857143</ele><time>2026-04-25T13:26:16Z</time></trkpt><trkpt lat="44.80490484743181" lon="12.258196212376323"><ele>-1.857142857142857</ele><time>2026-04-25T13:26:18Z</time></trkpt><trkpt lat="44.80492769198584" lon="12.258106992628159"><ele>-1.5714285714285712</ele><time>2026-04-25T13:26:20Z</time></trkpt><trkpt lat="44.80494752969884" lon="12.257993023717445"><ele>-1.2857142857142856</ele><time>2026-04-25T13:26:22Z</time></trkpt><trkpt lat="44.80496032868508" lon="12.257888122103525"><ele>-1.0</ele><time>2026-04-25T13:26:24Z</time></trkpt><trkpt lat="44.80496490859912" lon="12.257786181837297"><ele>-0.9999999999999999</ele><time>2026-04-25T13:26:26Z</time></trkpt><trkpt lat="44.80497576171672" lon="12.257693692269582"><ele>-1.0</ele><time>2026-04-25T13:26:28Z</time></trkpt><trkpt lat="44.8049838267457" lon="12.257565653299716"><ele>-1.0</ele><time>2026-04-25T13:26:31Z</time></trkpt><trkpt lat="44.8049865300028" lon="12.257437680699693"><ele>-1.0</ele><time>2026-04-25T13:26:34Z</time></trkpt><trkpt lat="44.80499172396965" lon="12.257332044294127"><ele>-0.9999999999999999</ele><time>2026-04-25T13:26:36Z</time></trkpt><trkpt lat="44.804986985286355" lon="12.257233175466874"><ele>-1.0</ele><time>2026-04-25T13:26:38Z</time></trkpt><trkpt lat="44.80497794247713" lon="12.25714141186733"><ele>-0.9999999999999999</ele><time>2026-04-25T13:26:40Z</time></trkpt><trkpt lat="44.80498499156487" lon="12.25703755966261"><ele>-1.0</ele><time>2026-04-25T13:26:42Z</time></trkpt><trkpt lat="44.80499708149735" lon="12.256934024195315"><ele>-1.0</ele><time>2026-04-25T13:26:44Z</time></trkpt><trkpt lat="44.80500046786081" lon="12.256808416684526"><ele>-1.0</ele><time>2026-04-25T13:26:47Z</time></trkpt><trkpt lat="44.80498478518675" lon="12.2566827625598"><ele>-0.9999999999999999</ele><time>2026-04-25T13:26:50Z</time></trkpt><trkpt lat="44.804944460310324" lon="12.256614081148214"><ele>-1.0</ele><time>2026-04-25T13:26:52Z</time></trkpt><trkpt lat="44.80493871404381" lon="12.256524019562136"><ele>-0.9999999999999999</ele><time>2026-04-25T13:26:54Z</time></trkpt><trkpt lat="44.80494198042876" lon="12.256392774702473"><ele>-1.0</ele><time>2026-04-25T13:26:57Z</time></trkpt><trkpt lat="44.804943333983964" lon="12.256301425892623"><ele>-1.0</ele><time>2026-04-25T13:26:59Z</time></trkpt><trkpt lat="44.804939473862945" lon="12.256173268554964"><ele>-1.0</ele><time>2026-04-25T13:27:01.999Z</time></trkpt><trkpt lat="44.80494106141334" lon="12.256052302920613"><ele>-0.9999999999999999</ele><time>2026-04-25T13:27:04.999Z</time></trkpt><trkpt lat="44.804934949981636" lon="12.25593347575669"><ele>-1.0</ele><time>2026-04-25T13:27:07.999Z</time></trkpt><trkpt lat="44.80492563605865" lon="12.255826121644814"><ele>-0.9999999999999999</ele><time>2026-04-25T13:27:10.999Z</time></trkpt><trkpt lat="44.80492685832124" lon="12.255721871536313"><ele>-1.0</ele><time>2026-04-25T13:27:13.999Z</time></trkpt><trkpt lat="44.80490262581522" lon="12.255602727807108"><ele>-1.0</ele><time>2026-04-25T13:27:16.999Z</time></trkpt><trkpt lat="44.80491110614019" lon="12.255498538547506"><ele>-1.0</ele><time>2026-04-25T13:27:19.999Z</time></trkpt><trkpt lat="44.804904096262895" lon="12.255389305231404"><ele>-0.9999999999999999</ele><time>2026-04-25T13:27:22.999Z</time></trkpt><trkpt lat="44.804913601834905" lon="12.255290294692117"><ele>-1.0</ele><time>2026-04-25T13:27:25.999Z</time></trkpt><trkpt lat="44.80492015983384" lon="12.255176886102005"><ele>-0.8333333333333333</ele><time>2026-04-25T13:27:29.999Z</time></trkpt><trkpt lat="44.804941324006386" lon="12.255075248253284"><ele>-0.6666666666666666</ele><time>2026-04-25T13:27:33.999Z</time></trkpt><trkpt lat="44.80494317700203" lon="12.254975955236342"><ele>-0.5</ele><time>2026-04-25T13:27:37.999Z</time></trkpt><trkpt lat="44.804942976283485" lon="12.25484481005994"><ele>-0.3333333333333333</ele><time>2026-04-25T13:27:40.999Z</time></trkpt><trkpt lat="44.80493820234917" lon="12.254754274189551"><ele>-0.16666666666666666</ele><time>2026-04-25T13:27:42.999Z</time></trkpt><trkpt lat="44.80494249925189" lon="12.254630015199973"><ele>0.0</ele><time>2026-04-25T13:27:45Z</time></trkpt><trkpt lat="44.80494462763215" lon="12.25451406506328"><ele>-0.3333333333333333</ele><time>2026-04-25T13:27:47Z</time></trkpt><trkpt lat="44.804957017138996" lon="12.254399943299667"><ele>-0.6666666666666666</ele><time>2026-04-25T13:27:49Z</time></trkpt><trkpt lat="44.80496372415558" lon="12.254282960178141"><ele>-1.0</ele><time>2026-04-25T13:27:51Z</time></trkpt><trkpt lat="44.80497166569357" lon="12.254156465879467"><ele>-1.3333333333333333</ele><time>2026-04-25T13:27:53Z</time></trkpt><trkpt lat="44.80497703574836" lon="12.254031671442952"><ele>-1.6666666666666665</ele><time>2026-04-25T13:27:55Z</time></trkpt><trkpt lat="44.80496267049743" lon="12.253907811146497"><ele>-2.0</ele><time>2026-04-25T13:27:57Z</time></trkpt><trkpt lat="44.80496078012362" lon="12.253794518470318"><ele>-2.0</ele><time>2026-04-25T13:27:59Z</time></trkpt><trkpt lat="44.80498943497438" lon="12.253687283275768"><ele>-1.9999999999999998</ele><time>2026-04-25T13:28:01Z</time></trkpt><trkpt lat="44.80500280056542" lon="12.253585471212194"><ele>-2.0</ele><time>2026-04-25T13:28:03Z</time></trkpt><trkpt lat="44.80501196488123" lon="12.253483348999396"><ele>-2.0</ele><time>2026-04-25T13:28:05Z</time></trkpt><trkpt lat="44.80501705607794" lon="12.253381054152259"><ele>-1.9999999999999998</ele><time>2026-04-25T13:28:07Z</time></trkpt><trkpt lat="44.805026597112835" lon="12.25328480614273"><ele>-2.0</ele><time>2026-04-25T13:28:09Z</time></trkpt><trkpt lat="44.805026872426225" lon="12.253190332222307"><ele>-2.0</ele><time>2026-04-25T13:28:11Z</time></trkpt><trkpt lat="44.80503915085351" lon="12.253074646871172"><ele>-1.9999999999999998</ele><time>2026-04-25T13:28:13Z</time></trkpt><trkpt lat="44.805043641050176" lon="12.252946303495849"><ele>-2.0</ele><time>2026-04-25T13:28:15Z</time></trkpt><trkpt lat="44.805049805141444" lon="12.25282661739629"><ele>-2.0</ele><time>2026-04-25T13:28:17Z</time></trkpt><trkpt lat="44.80506387085715" lon="12.252715625570335"><ele>-2.0</ele><time>2026-04-25T13:28:19Z</time></trkpt><trkpt lat="44.80506153455283" lon="12.252609907424803"><ele>-1.9999999999999998</ele><time>2026-04-25T13:28:21Z</time></trkpt><trkpt lat="44.805067797158046" lon="12.252512009859462"><ele>-2.0</ele><time>2026-04-25T13:28:23Z</time></trkpt><trkpt lat="44.80507034182784" lon="12.252413635360506"><ele>-1.9999999999999998</ele><time>2026-04-25T13:28:25Z</time></trkpt><trkpt lat="44.8050845569595" lon="12.252292615178916"><ele>-2.0</ele><time>2026-04-25T13:28:27Z</time></trkpt><trkpt lat="44.80509551287184" lon="12.2521657623011"><ele>-2.0</ele><time>2026-04-25T13:28:29Z</time></trkpt><trkpt lat="44.8051007760562" lon="12.25203932038316"><ele>-2.0</ele><time>2026-04-25T13:28:31Z</time></trkpt><trkpt lat="44.805107158901116" lon="12.251915781505716"><ele>-1.9999999999999998</ele><time>2026-04-25T13:28:33Z</time></trkpt><trkpt lat="44.80512083146819" lon="12.251796513185853"><ele>-2.0</ele><time>2026-04-25T13:28:35Z</time></trkpt><trkpt lat="44.80512401351967" lon="12.251683731444896"><ele>-1.9999999999999998</ele><time>2026-04-25T13:28:37Z</time></trkpt><trkpt lat="44.805132284183486" lon="12.251571841141836"><ele>-2.0</ele><time>2026-04-25T13:28:39Z</time></trkpt><trkpt lat="44.8051463833246" lon="12.251447245734935"><ele>-2.0</ele><time>2026-04-25T13:28:41Z</time></trkpt><trkpt lat="44.805160146539514" lon="12.251326201053843"><ele>-2.0</ele><time>2026-04-25T13:28:43Z</time></trkpt><trkpt lat="44.80518437215825" lon="12.251205507460226"><ele>-1.9999999999999998</ele><time>2026-04-25T13:28:45Z</time></trkpt><trkpt lat="44.80519965701298" lon="12.251078816362918"><ele>-2.0</ele><time>2026-04-25T13:28:47Z</time></trkpt><trkpt lat="44.805215767398465" lon="12.25095501087189"><ele>-2.0</ele><time>2026-04-25T13:28:49Z</time></trkpt><trkpt lat="44.805233989487014" lon="12.250829234746387"><ele>-2.0</ele><time>2026-04-25T13:28:51Z</time></trkpt><trkpt lat="44.805256140219484" lon="12.250706674295568"><ele>-2.0</ele><time>2026-04-25T13:28:52.999Z</time></trkpt><trkpt lat="44.80527132295275" lon="12.250581896484201"><ele>-2.0</ele><time>2026-04-25T13:28:54.999Z</time></trkpt><trkpt lat="44.80528662484376" lon="12.250456740720367"><ele>-2.0</ele><time>2026-04-25T13:28:56.999Z</time></trkpt><trkpt lat="44.80530995946344" lon="12.250334934054587"><ele>-1.8333333333333333</ele><time>2026-04-25T13:28:58.999Z</time></trkpt><trkpt lat="44.80533554665772" lon="12.250215659981656"><ele>-1.6666666666666665</ele><time>2026-04-25T13:29:00.999Z</time></trkpt><trkpt lat="44.805358403348606" lon="12.25009866433725"><ele>-1.5</ele><time>2026-04-25T13:29:02.999Z</time></trkpt><trkpt lat="44.805367593070216" lon="12.249981295783163"><ele>-1.3333333333333333</ele><time>2026-04-25T13:29:04.999Z</time></trkpt><trkpt lat="44.80539666358248" lon="12.249872687113681"><ele>-1.1666666666666665</ele><time>2026-04-25T13:29:06.999Z</time></trkpt><trkpt lat="44.80541265989903" lon="12.249764986310112"><ele>-1.0</ele><time>2026-04-25T13:29:08.999Z</time></trkpt><trkpt lat="44.80542710654928" lon="12.249661755763865"><ele>-0.9999999999999999</ele><time>2026-04-25T13:29:10.999Z</time></trkpt><trkpt lat="44.80543843518432" lon="12.249544377541033"><ele>-1.0</ele><time>2026-04-25T13:29:12.999Z</time></trkpt><trkpt lat="44.80544539795868" lon="12.249418946197432"><ele>-1.0</ele><time>2026-04-25T13:29:14.999Z</time></trkpt><trkpt lat="44.80546785150317" lon="12.249296186641804"><ele>-1.0</ele><time>2026-04-25T13:29:16.999Z</time></trkpt><trkpt lat="44.80547825322098" lon="12.249167367620917"><ele>-0.9999999999999999</ele><time>2026-04-25T13:29:18.999Z</time></trkpt><trkpt lat="44.80549250684113" lon="12.24904045490944"><ele>-1.0</ele><time>2026-04-25T13:29:20.999Z</time></trkpt><trkpt lat="44.80550891066921" lon="12.24891546787721"><ele>-1.1666666666666665</ele><time>2026-04-25T13:29:22.999Z</time></trkpt><trkpt lat="44.80551941831547" lon="12.248790177367562"><ele>-1.3333333333333333</ele><time>2026-04-25T13:29:24.999Z</time></trkpt><trkpt lat="44.80552840086739" lon="12.248671791182836"><ele>-1.5</ele><time>2026-04-25T13:29:26.999Z</time></trkpt><trkpt lat="44.805540957152964" lon="12.248553271182127"><ele>-1.6666666666666665</ele><time>2026-04-25T13:29:28.999Z</time></trkpt><trkpt lat="44.80555097738681" lon="12.248436583332168"><ele>-1.8333333333333333</ele><time>2026-04-25T13:29:30.999Z</time></trkpt><trkpt lat="44.805558680905406" lon="12.248323051931797"><ele>-2.0</ele><time>2026-04-25T13:29:32.999Z</time></trkpt><trkpt lat="44.8055694451965" lon="12.248202898237498"><ele>-2.2</ele><time>2026-04-25T13:29:34.999Z</time></trkpt><trkpt lat="44.805583936471336" lon="12.248080233351203"><ele>-2.4000000000000004</ele><time>2026-04-25T13:29:36.999Z</time></trkpt><trkpt lat="44.80559136961154" lon="12.2479536597657"><ele>-2.5999999999999996</ele><time>2026-04-25T13:29:38.999Z</time></trkpt><trkpt lat="44.8056061227573" lon="12.247823104373314"><ele>-2.8</ele><time>2026-04-25T13:29:40.999Z</time></trkpt><trkpt lat="44.80561357820642" lon="12.2476921055116"><ele>-3.0</ele><time>2026-04-25T13:29:42.999Z</time></trkpt><trkpt lat="44.80562597895441" lon="12.247564731579411"><ele>-3.0</ele><time>2026-04-25T13:29:44.999Z</time></trkpt><trkpt lat="44.80563548125048" lon="12.247436604134748"><ele>-3.0</ele><time>2026-04-25T13:29:46.999Z</time></trkpt><trkpt lat="44.805651159050704" lon="12.247309317054821"><ele>-3.0</ele><time>2026-04-25T13:29:48.999Z</time></trkpt><trkpt lat="44.805661745140384" lon="12.247180480344865"><ele>-3.0</ele><time>2026-04-25T13:29:51Z</time></trkpt><trkpt lat="44.80567225739013" lon="12.247050990683006"><ele>-3.0</ele><time>2026-04-25T13:29:53Z</time></trkpt><trkpt lat="44.80568045996959" lon="12.24692440788554"><ele>-2.6666666666666665</ele><time>2026-04-25T13:29:55Z</time></trkpt><trkpt lat="44.805693467784835" lon="12.246796988612324"><ele>-2.3333333333333335</ele><time>2026-04-25T13:29:57Z</time></trkpt><trkpt lat="44.80570483599202" lon="12.24666909899379"><ele>-2.0</ele><time>2026-04-25T13:29:59Z</time></trkpt><trkpt lat="44.805699465026294" lon="12.246540117806662"><ele>-1.6666666666666665</ele><time>2026-04-25T13:30:01Z</time></trkpt><trkpt lat="44.805696167938436" lon="12.246419590017117"><ele>-1.3333333333333333</ele><time>2026-04-25T13:30:03Z</time></trkpt><trkpt lat="44.80568932258367" lon="12.246307664089853"><ele>-1.0</ele><time>2026-04-25T13:30:05Z</time></trkpt><trkpt lat="44.80569906432799" lon="12.246201296439986"><ele>-0.9999999999999999</ele><time>2026-04-25T13:30:07Z</time></trkpt><trkpt lat="44.80571126692194" lon="12.246087760020972"><ele>-1.0</ele><time>2026-04-25T13:30:09Z</time></trkpt><trkpt lat="44.805717074473606" lon="12.24596602325843"><ele>-1.0</ele><time>2026-04-25T13:30:11Z</time></trkpt><trkpt lat="44.80573288825699" lon="12.24585257444852"><ele>-1.0</ele><time>2026-04-25T13:30:13Z</time></trkpt><trkpt lat="44.80574784797019" lon="12.245742131529587"><ele>-0.9999999999999999</ele><time>2026-04-25T13:30:15Z</time></trkpt><trkpt lat="44.80576261627454" lon="12.24563374844534"><ele>-1.0</ele><time>2026-04-25T13:30:17Z</time></trkpt><trkpt lat="44.80576345534995" lon="12.245527659910916"><ele>-0.8333333333333333</ele><time>2026-04-25T13:30:19Z</time></trkpt><trkpt lat="44.80575514695661" lon="12.24541670544601"><ele>-0.6666666666666666</ele><time>2026-04-25T13:30:21Z</time></trkpt><trkpt lat="44.80576418266394" lon="12.245298244174835"><ele>-0.5</ele><time>2026-04-25T13:30:23Z</time></trkpt><trkpt lat="44.80577640570438" lon="12.245181778539955"><ele>-0.3333333333333333</ele><time>2026-04-25T13:30:25Z</time></trkpt><trkpt lat="44.80578171619265" lon="12.245068434842578"><ele>-0.16666666666666666</ele><time>2026-04-25T13:30:27Z</time></trkpt><trkpt lat="44.80578378190834" lon="12.244944853980291"><ele>0.0</ele><time>2026-04-25T13:30:29Z</time></trkpt><trkpt lat="44.805795141361536" lon="12.24482993877375"><ele>-0.16666666666666666</ele><time>2026-04-25T13:30:31Z</time></trkpt><trkpt lat="44.805803236455304" lon="12.244717283407393"><ele>-0.3333333333333333</ele><time>2026-04-25T13:30:33Z</time></trkpt><trkpt lat="44.8058062836255" lon="12.24461141513263"><ele>-0.5</ele><time>2026-04-25T13:30:35Z</time></trkpt><trkpt lat="44.80582309827781" lon="12.244509157441522"><ele>-0.6666666666666666</ele><time>2026-04-25T13:30:37Z</time></trkpt><trkpt lat="44.80583124963734" lon="12.244407701309793"><ele>-0.8333333333333333</ele><time>2026-04-25T13:30:39Z</time></trkpt><trkpt lat="44.805838483354066" lon="12.244291852889907"><ele>-1.0</ele><time>2026-04-25T13:30:42Z</time></trkpt><trkpt lat="44.8058387156408" lon="12.244195108558005"><ele>-1.0</ele><time>2026-04-25T13:32:51Z</time></trkpt><trkpt lat="44.80585116861562" lon="12.244105452743892"><ele>-0.9999999999999999</ele><time>2026-04-25T13:33:23Z</time></trkpt><trkpt lat="44.805874901661795" lon="12.244019960625796"><ele>-1.0</ele><time>2026-04-25T13:33:26.999Z</time></trkpt><trkpt lat="44.80589356360789" lon="12.243918495796956"><ele>-1.0</ele><time>2026-04-25T13:33:28.999Z</time></trkpt><trkpt lat="44.805921829044834" lon="12.243834305084265"><ele>-0.9999999999999999</ele><time>2026-04-25T13:33:30.999Z</time></trkpt><trkpt lat="44.80596196662441" lon="12.243729755076023"><ele>-1.0</ele><time>2026-04-25T13:33:33.999Z</time></trkpt><trkpt lat="44.80601402538234" lon="12.243623485341832"><ele>-1.0</ele><time>2026-04-25T13:33:36.999Z</time></trkpt><trkpt lat="44.806068199534124" lon="12.243531720875183"><ele>-1.3333333333333333</ele><time>2026-04-25T13:33:38.999Z</time></trkpt><trkpt lat="44.80612718525148" lon="12.243452019394235"><ele>-1.6666666666666665</ele><time>2026-04-25T13:33:40.999Z</time></trkpt><trkpt lat="44.806186081647496" lon="12.243373111322907"><ele>-2.0</ele><time>2026-04-25T13:33:42.999Z</time></trkpt><trkpt lat="44.80624930098781" lon="12.24329867983724"><ele>-2.3333333333333335</ele><time>2026-04-25T13:33:44.999Z</time></trkpt><trkpt lat="44.80631429331169" lon="12.243213167279363"><ele>-2.6666666666666665</ele><time>2026-04-25T13:33:46.999Z</time></trkpt><trkpt lat="44.80638203311805" lon="12.243133412493457"><ele>-3.0</ele><time>2026-04-25T13:33:48.999Z</time></trkpt><trkpt lat="44.806434264451624" lon="12.243048659924291"><ele>-2.9999999999999996</ele><time>2026-04-25T13:33:50.999Z</time></trkpt><trkpt lat="44.8064864802054" lon="12.242974621852255"><ele>-3.0</ele><time>2026-04-25T13:33:52.999Z</time></trkpt><trkpt lat="44.80654465801843" lon="12.242911081039514"><ele>-3.0</ele><time>2026-04-25T13:33:54.999Z</time></trkpt><trkpt lat="44.80659726607043" lon="12.242840790657388"><ele>-3.0</ele><time>2026-04-25T13:33:56.999Z</time></trkpt><trkpt lat="44.80664688328388" lon="12.242767535742992"><ele>-3.0</ele><time>2026-04-25T13:33:58.999Z</time></trkpt><trkpt lat="44.80669720222612" lon="12.242696774826902"><ele>-2.9999999999999996</ele><time>2026-04-25T13:34:00.999Z</time></trkpt><trkpt lat="44.80673331761521" lon="12.242621336256995"><ele>-3.0</ele><time>2026-04-25T13:34:03Z</time></trkpt><trkpt lat="44.806770802103514" lon="12.24254721180038"><ele>-2.9999999999999996</ele><time>2026-04-25T13:34:05Z</time></trkpt><trkpt lat="44.806805492958915" lon="12.24246473134709"><ele>-3.0</ele><time>2026-04-25T13:34:07Z</time></trkpt><trkpt lat="44.80683711183319" lon="12.2423706287062"><ele>-3.0</ele><time>2026-04-25T13:34:09Z</time></trkpt><trkpt lat="44.80687442495116" lon="12.242277983976614"><ele>-3.0</ele><time>2026-04-25T13:34:11Z</time></trkpt><trkpt lat="44.806906160105534" lon="12.242191708175731"><ele>-3.0</ele><time>2026-04-25T13:34:13Z</time></trkpt><trkpt lat="44.806938289453264" lon="12.242086282893794"><ele>-2.9999999999999996</ele><time>2026-04-25T13:34:15Z</time></trkpt><trkpt lat="44.80697411322115" lon="12.241994890546122"><ele>-3.0</ele><time>2026-04-25T13:34:17Z</time></trkpt><trkpt lat="44.80700474096291" lon="12.241913428250486"><ele>-2.6666666666666665</ele><time>2026-04-25T13:34:19Z</time></trkpt><trkpt lat="44.80703754757561" lon="12.241824924145046"><ele>-2.3333333333333335</ele><time>2026-04-25T13:34:21Z</time></trkpt><trkpt lat="44.80707897968953" lon="12.241715853365006"><ele>-2.0</ele><time>2026-04-25T13:34:23Z</time></trkpt><trkpt lat="44.80711035225108" lon="12.241604083606582"><ele>-1.6666666666666665</ele><time>2026-04-25T13:34:25Z</time></trkpt><trkpt lat="44.807140564615" lon="12.241502879985358"><ele>-1.3333333333333333</ele><time>2026-04-25T13:34:27Z</time></trkpt><trkpt lat="44.807162749018005" lon="12.24140402688746"><ele>-1.0</ele><time>2026-04-25T13:34:29Z</time></trkpt><trkpt lat="44.807169234010765" lon="12.241298121322115"><ele>-0.9999999999999999</ele><time>2026-04-25T13:34:31Z</time></trkpt><trkpt lat="44.80717289214486" lon="12.241178750270612"><ele>-1.0</ele><time>2026-04-25T13:34:33Z</time></trkpt><trkpt lat="44.8071785575066" lon="12.241066054943754"><ele>-1.0</ele><time>2026-04-25T13:34:35Z</time></trkpt><trkpt lat="44.807170816089425" lon="12.240963855924525"><ele>-1.0</ele><time>2026-04-25T13:34:37Z</time></trkpt><trkpt lat="44.80715078970172" lon="12.240859762677085"><ele>-0.9999999999999999</ele><time>2026-04-25T13:34:39Z</time></trkpt><trkpt lat="44.807119982133436" lon="12.240745613254603"><ele>-1.0</ele><time>2026-04-25T13:34:41Z</time></trkpt><trkpt lat="44.807082713430795" lon="12.240629956359927"><ele>-1.0</ele><time>2026-04-25T13:34:43Z</time></trkpt><trkpt lat="44.80705329597731" lon="12.240515851959762"><ele>-0.9999999999999999</ele><time>2026-04-25T13:34:45Z</time></trkpt><trkpt lat="44.807036086709175" lon="12.24041268102004"><ele>-1.0</ele><time>2026-04-25T13:34:47Z</time></trkpt><trkpt lat="44.807024834160266" lon="12.240317638644717"><ele>-1.0</ele><time>2026-04-25T13:34:49Z</time></trkpt><trkpt lat="44.80701201517301" lon="12.24022705783264"><ele>-0.9999999999999999</ele><time>2026-04-25T13:34:51Z</time></trkpt><trkpt lat="44.80700978686656" lon="12.240132863578165"><ele>-1.0</ele><time>2026-04-25T13:34:53Z</time></trkpt><trkpt lat="44.80700568108813" lon="12.240013605242533"><ele>-1.0</ele><time>2026-04-25T13:34:55Z</time></trkpt><trkpt lat="44.80700221850669" lon="12.239893270921307"><ele>-1.1666666666666665</ele><time>2026-04-25T13:34:57Z</time></trkpt><trkpt lat="44.807003393279984" lon="12.23976967737132"><ele>-1.3333333333333333</ele><time>2026-04-25T13:34:59Z</time></trkpt><trkpt lat="44.80700342692133" lon="12.239652181137158"><ele>-1.5</ele><time>2026-04-25T13:35:01Z</time></trkpt><trkpt lat="44.807005111374835" lon="12.239544258975764"><ele>-1.6666666666666665</ele><time>2026-04-25T13:35:03Z</time></trkpt><trkpt lat="44.80700762930933" lon="12.239428052101978"><ele>-1.8333333333333333</ele><time>2026-04-25T13:35:05Z</time></trkpt><trkpt lat="44.807004518426496" lon="12.239307998935965"><ele>-2.0</ele><time>2026-04-25T13:35:07Z</time></trkpt><trkpt lat="44.80699913368974" lon="12.239186561129095"><ele>-1.9999999999999998</ele><time>2026-04-25T13:35:09Z</time></trkpt><trkpt lat="44.80699128706824" lon="12.239071501263416"><ele>-2.0</ele><time>2026-04-25T13:35:11Z</time></trkpt><trkpt lat="44.806979698986076" lon="12.238970909426302"><ele>-2.0</ele><time>2026-04-25T13:35:13Z</time></trkpt><trkpt lat="44.80696290084705" lon="12.238872556067895"><ele>-2.0</ele><time>2026-04-25T13:35:15Z</time></trkpt><trkpt lat="44.806953145125625" lon="12.238781742790115"><ele>-1.9999999999999998</ele><time>2026-04-25T13:35:17Z</time></trkpt><trkpt lat="44.80693734746503" lon="12.23867120000432"><ele>-2.0</ele><time>2026-04-25T13:35:19Z</time></trkpt><trkpt lat="44.80692418199569" lon="12.238562149176781"><ele>-1.8333333333333333</ele><time>2026-04-25T13:35:21Z</time></trkpt><trkpt lat="44.806910227633736" lon="12.2384581636861"><ele>-1.6666666666666665</ele><time>2026-04-25T13:35:23Z</time></trkpt><trkpt lat="44.806896337189194" lon="12.238337644539898"><ele>-1.5</ele><time>2026-04-25T13:35:25Z</time></trkpt><trkpt lat="44.80687950036493" lon="12.238220878815696"><ele>-1.3333333333333333</ele><time>2026-04-25T13:35:27Z</time></trkpt><trkpt lat="44.80686747853356" lon="12.238117135632082"><ele>-1.1666666666666665</ele><time>2026-04-25T13:35:28.999Z</time></trkpt><trkpt lat="44.80685518859287" lon="12.238022985926381"><ele>-1.0</ele><time>2026-04-25T13:35:30.999Z</time></trkpt><trkpt lat="44.80683490569713" lon="12.237921656367309"><ele>-1.0</ele><time>2026-04-25T13:35:32.999Z</time></trkpt><trkpt lat="44.80682734693993" lon="12.237830786719387"><ele>-0.9999999999999999</ele><time>2026-04-25T13:35:34.999Z</time></trkpt><trkpt lat="44.80682477909878" lon="12.23773875900453"><ele>-1.0</ele><time>2026-04-25T13:35:36.999Z</time></trkpt><trkpt lat="44.806792669792245" lon="12.237624402545872"><ele>-1.0</ele><time>2026-04-25T13:35:39.999Z</time></trkpt><trkpt lat="44.80679272381018" lon="12.237510186708203"><ele>-0.9999999999999999</ele><time>2026-04-25T13:35:42.999Z</time></trkpt><trkpt lat="44.806773220827345" lon="12.237412559270673"><ele>-1.0</ele><time>2026-04-25T13:35:45.999Z</time></trkpt><trkpt lat="44.80676777698337" lon="12.2373211072459"><ele>-1.0</ele><time>2026-04-25T13:35:58.999Z</time></trkpt><trkpt lat="44.80674145130393" lon="12.237228819011227"><ele>-0.9999999999999999</ele><time>2026-04-25T13:36:06.999Z</time></trkpt><trkpt lat="44.80672913512388" lon="12.23713766626515"><ele>-1.0</ele><time>2026-04-25T13:37:43.999Z</time></trkpt><trkpt lat="44.806697711311784" lon="12.237052829953582"><ele>-1.0</ele><time>2026-04-25T13:38:50Z</time></trkpt><trkpt lat="44.80664713624643" lon="12.236949215843959"><ele>-1.0</ele><time>2026-04-25T13:39:32Z</time></trkpt><trkpt lat="44.80660920071103" lon="12.236870910076444"><ele>-0.9999999999999999</ele><time>2026-04-25T13:39:34Z</time></trkpt><trkpt lat="44.80656809850988" lon="12.236763941219989"><ele>-1.0</ele><time>2026-04-25T13:39:36Z</time></trkpt><trkpt lat="44.8065234868022" lon="12.236657997539899"><ele>-0.9999999999999999</ele><time>2026-04-25T13:39:38Z</time></trkpt><trkpt lat="44.80647662034808" lon="12.236555096960512"><ele>-1.0</ele><time>2026-04-25T13:39:40Z</time></trkpt><trkpt lat="44.80642991120158" lon="12.236445243962265"><ele>-1.0</ele><time>2026-04-25T13:39:41.999Z</time></trkpt><trkpt lat="44.806385465949305" lon="12.236346671754733"><ele>-1.0</ele><time>2026-04-25T13:39:43.999Z</time></trkpt><trkpt lat="44.806338680727364" lon="12.236248999429783"><ele>-0.9999999999999999</ele><time>2026-04-25T13:39:45.999Z</time></trkpt><trkpt lat="44.80629025228215" lon="12.23616542743543"><ele>-1.0</ele><time>2026-04-25T13:39:47.999Z</time></trkpt><trkpt lat="44.80624761494" lon="12.236088933594628"><ele>-1.1666666666666665</ele><time>2026-04-25T13:39:49.999Z</time></trkpt><trkpt lat="44.80618825083147" lon="12.236010380400913"><ele>-1.3333333333333333</ele><time>2026-04-25T13:39:51.999Z</time></trkpt><trkpt lat="44.80613068456325" lon="12.235932708294857"><ele>-1.5</ele><time>2026-04-25T13:39:53.999Z</time></trkpt><trkpt lat="44.806072015247494" lon="12.235864819191914"><ele>-1.6666666666666665</ele><time>2026-04-25T13:39:55.999Z</time></trkpt><trkpt lat="44.80599981411855" lon="12.235801822786918"><ele>-1.8333333333333333</ele><time>2026-04-25T13:39:57.999Z</time></trkpt><trkpt lat="44.80592835769157" lon="12.2357427733047"><ele>-2.0</ele><time>2026-04-25T13:39:59.999Z</time></trkpt><trkpt lat="44.80586110153122" lon="12.23568780123843"><ele>-1.857142857142857</ele><time>2026-04-25T13:40:01.999Z</time></trkpt><trkpt lat="44.8057965284781" lon="12.235642429776656"><ele>-1.714285714285714</ele><time>2026-04-25T13:40:03.999Z</time></trkpt><trkpt lat="44.80573727275284" lon="12.235590891595006"><ele>-1.5714285714285714</ele><time>2026-04-25T13:40:05.999Z</time></trkpt><trkpt lat="44.80566297433998" lon="12.235526058461428"><ele>-1.4285714285714284</ele><time>2026-04-25T13:40:07.999Z</time></trkpt><trkpt lat="44.80559436340901" lon="12.235474180955519"><ele>-1.2857142857142856</ele><time>2026-04-25T13:40:09.999Z</time></trkpt><trkpt lat="44.805534271329684" lon="12.235419886466131"><ele>-1.1428571428571428</ele><time>2026-04-25T13:40:11.999Z</time></trkpt><trkpt lat="44.805473284504814" lon="12.235373617462635"><ele>-1.0</ele><time>2026-04-25T13:40:13.999Z</time></trkpt><trkpt lat="44.80540045621633" lon="12.235316174967807"><ele>-0.9999999999999999</ele><time>2026-04-25T13:40:15.999Z</time></trkpt><trkpt lat="44.80533814273601" lon="12.235261313456554"><ele>-1.0</ele><time>2026-04-25T13:40:17.999Z</time></trkpt><trkpt lat="44.80527518651214" lon="12.235219697390132"><ele>-1.0</ele><time>2026-04-25T13:40:19.999Z</time></trkpt><trkpt lat="44.80521138329832" lon="12.235157065986444"><ele>-1.0</ele><time>2026-04-25T13:40:22Z</time></trkpt><trkpt lat="44.8051361133935" lon="12.235098401117355"><ele>-0.9999999999999999</ele><time>2026-04-25T13:40:24Z</time></trkpt><trkpt lat="44.80506830800983" lon="12.235043965558793"><ele>-1.0</ele><time>2026-04-25T13:40:26Z</time></trkpt><trkpt lat="44.80500372460835" lon="12.234987290142904"><ele>-1.1666666666666665</ele><time>2026-04-25T13:40:28Z</time></trkpt><trkpt lat="44.80493880247215" lon="12.234936575293487"><ele>-1.3333333333333333</ele><time>2026-04-25T13:40:30Z</time></trkpt><trkpt lat="44.80487029283741" lon="12.234880946054455"><ele>-1.5</ele><time>2026-04-25T13:40:32Z</time></trkpt><trkpt lat="44.80480270413956" lon="12.234810939724309"><ele>-1.6666666666666665</ele><time>2026-04-25T13:40:34Z</time></trkpt><trkpt lat="44.804749074061355" lon="12.234753628481574"><ele>-1.8333333333333333</ele><time>2026-04-25T13:40:36Z</time></trkpt><trkpt lat="44.80467441245051" lon="12.234700139484627"><ele>-2.0</ele><time>2026-04-25T13:40:39Z</time></trkpt><trkpt lat="44.80461302938939" lon="12.23466097377197"><ele>-1.9999999999999998</ele><time>2026-04-25T13:41:01Z</time></trkpt><trkpt lat="44.80457137654828" lon="12.234583269680149"><ele>-2.0</ele><time>2026-04-25T13:42:24Z</time></trkpt><trkpt lat="44.80451612055737" lon="12.234536312485115"><ele>-2.0</ele><time>2026-04-25T13:42:30Z</time></trkpt><trkpt lat="44.80445946362304" lon="12.234474355382503"><ele>-2.0</ele><time>2026-04-25T13:42:33Z</time></trkpt><trkpt lat="44.80438713663287" lon="12.234409110370883"><ele>-1.9999999999999998</ele><time>2026-04-25T13:42:36Z</time></trkpt><trkpt lat="44.804306881656665" lon="12.23433008273509"><ele>-2.0</ele><time>2026-04-25T13:42:39Z</time></trkpt><trkpt lat="44.80424571467458" lon="12.234271133636405"><ele>-1.6666666666666665</ele><time>2026-04-25T13:42:41Z</time></trkpt><trkpt lat="44.804184237608055" lon="12.234203216217264"><ele>-1.3333333333333333</ele><time>2026-04-25T13:42:43Z</time></trkpt><trkpt lat="44.80411482367342" lon="12.234132693151652"><ele>-1.0</ele><time>2026-04-25T13:42:45Z</time></trkpt><trkpt lat="44.804043586716645" lon="12.234054868072404"><ele>-0.6666666666666666</ele><time>2026-04-25T13:42:47Z</time></trkpt><trkpt lat="44.80397731579344" lon="12.233987818137503"><ele>-0.3333333333333333</ele><time>2026-04-25T13:42:49Z</time></trkpt><trkpt lat="44.80390648952368" lon="12.23391790986257"><ele>0.0</ele><time>2026-04-25T13:42:51Z</time></trkpt><trkpt lat="44.80383539927667" lon="12.2338411654943"><ele>0.0</ele><time>2026-04-25T13:42:53Z</time></trkpt><trkpt lat="44.80376562910328" lon="12.233768067141796"><ele>0.0</ele><time>2026-04-25T13:42:55Z</time></trkpt><trkpt lat="44.80369846542102" lon="12.23369641642164"><ele>0.0</ele><time>2026-04-25T13:42:57Z</time></trkpt><trkpt lat="44.80364062998521" lon="12.233624898393732"><ele>0.0</ele><time>2026-04-25T13:42:59Z</time></trkpt><trkpt lat="44.8035780632791" lon="12.233560636507045"><ele>0.0</ele><time>2026-04-25T13:43:01Z</time></trkpt><trkpt lat="44.803517513896765" lon="12.233490620163932"><ele>0.0</ele><time>2026-04-25T13:43:03Z</time></trkpt><trkpt lat="44.8034580648507" lon="12.233415114809292"><ele>-0.16666666666666666</ele><time>2026-04-25T13:43:05Z</time></trkpt><trkpt lat="44.803400723498484" lon="12.233348946679467"><ele>-0.3333333333333333</ele><time>2026-04-25T13:43:07Z</time></trkpt><trkpt lat="44.80334616477556" lon="12.233285119851248"><ele>-0.5</ele><time>2026-04-25T13:43:09Z</time></trkpt><trkpt lat="44.80328489521452" lon="12.23320328848066"><ele>-0.6666666666666666</ele><time>2026-04-25T13:43:11Z</time></trkpt><trkpt lat="44.80322280026419" lon="12.233125996784118"><ele>-0.8333333333333333</ele><time>2026-04-25T13:43:13Z</time></trkpt><trkpt lat="44.80316338015606" lon="12.233042575715519"><ele>-1.0</ele><time>2026-04-25T13:43:15Z</time></trkpt><trkpt lat="44.8031127571555" lon="12.232970182255684"><ele>-1.3333333333333333</ele><time>2026-04-25T13:43:17Z</time></trkpt><trkpt lat="44.80306010072729" lon="12.232882798951133"><ele>-1.6666666666666665</ele><time>2026-04-25T13:43:19Z</time></trkpt><trkpt lat="44.80300159820203" lon="12.232796152829657"><ele>-2.0</ele><time>2026-04-25T13:43:21Z</time></trkpt><trkpt lat="44.80294208632362" lon="12.232706738076205"><ele>-2.3333333333333335</ele><time>2026-04-25T13:43:23Z</time></trkpt><trkpt lat="44.80288753684763" lon="12.232622458676355"><ele>-2.6666666666666665</ele><time>2026-04-25T13:43:25Z</time></trkpt><trkpt lat="44.80283281295343" lon="12.232536476298716"><ele>-3.0</ele><time>2026-04-25T13:43:27Z</time></trkpt><trkpt lat="44.802777081332366" lon="12.23246554477922"><ele>-3.0</ele><time>2026-04-25T13:43:29Z</time></trkpt><trkpt lat="44.80272546355957" lon="12.232384201555076"><ele>-3.0</ele><time>2026-04-25T13:43:31Z</time></trkpt><trkpt lat="44.80267730170019" lon="12.232296451948944"><ele>-3.0</ele><time>2026-04-25T13:43:33Z</time></trkpt><trkpt lat="44.80262205114578" lon="12.232220911031863"><ele>-3.0</ele><time>2026-04-25T13:43:35Z</time></trkpt><trkpt lat="44.80257876377023" lon="12.232134050396624"><ele>-3.0</ele><time>2026-04-25T13:43:37Z</time></trkpt><trkpt lat="44.80252056708084" lon="12.232042440438757"><ele>-3.0</ele><time>2026-04-25T13:43:39Z</time></trkpt><trkpt lat="44.80247304467934" lon="12.231947862683084"><ele>-3.0</ele><time>2026-04-25T13:43:41Z</time></trkpt><trkpt lat="44.802426938045215" lon="12.231860554734967"><ele>-3.0</ele><time>2026-04-25T13:43:43Z</time></trkpt><trkpt lat="44.80238565243559" lon="12.231769272776596"><ele>-3.0</ele><time>2026-04-25T13:43:45Z</time></trkpt><trkpt lat="44.80233769716376" lon="12.231670730800985"><ele>-3.0</ele><time>2026-04-25T13:43:47Z</time></trkpt><trkpt lat="44.80229803910024" lon="12.23155779276097"><ele>-3.0</ele><time>2026-04-25T13:43:49Z</time></trkpt><trkpt lat="44.8022576598665" lon="12.231448298337613"><ele>-3.0</ele><time>2026-04-25T13:43:51Z</time></trkpt><trkpt lat="44.80221881877069" lon="12.231336675140593"><ele>-3.0</ele><time>2026-04-25T13:43:53Z</time></trkpt><trkpt lat="44.802187139475286" lon="12.231224700937316"><ele>-3.0</ele><time>2026-04-25T13:43:55Z</time></trkpt><trkpt lat="44.8021537109132" lon="12.231114799743848"><ele>-3.0</ele><time>2026-04-25T13:43:57Z</time></trkpt><trkpt lat="44.80212195967158" lon="12.231004906508009"><ele>-3.0</ele><time>2026-04-25T13:43:59Z</time></trkpt><trkpt lat="44.80209252394295" lon="12.230890644592689"><ele>-3.0</ele><time>2026-04-25T13:44:01Z</time></trkpt><trkpt lat="44.802058924493494" lon="12.230774582633689"><ele>-3.0</ele><time>2026-04-25T13:44:03Z</time></trkpt><trkpt lat="44.80202716467439" lon="12.230663813461359"><ele>-2.8333333333333335</ele><time>2026-04-25T13:44:05Z</time></trkpt><trkpt lat="44.802000804885004" lon="12.23054857500742"><ele>-2.6666666666666665</ele><time>2026-04-25T13:44:07Z</time></trkpt><trkpt lat="44.80197523171544" lon="12.230434933585776"><ele>-2.5</ele><time>2026-04-25T13:44:09Z</time></trkpt><trkpt lat="44.801951259467224" lon="12.230330653188492"><ele>-2.333333333333333</ele><time>2026-04-25T13:44:11Z</time></trkpt><trkpt lat="44.80192701425688" lon="12.230244448335483"><ele>-2.1666666666666665</ele><time>2026-04-25T13:44:13Z</time></trkpt><trkpt lat="44.80191182477701" lon="12.230152780242232"><ele>-2.0</ele><time>2026-04-25T13:44:15Z</time></trkpt><trkpt lat="44.80189346451292" lon="12.230043481681617"><ele>-1.9999999999999998</ele><time>2026-04-25T13:44:17Z</time></trkpt><trkpt lat="44.80186493382974" lon="12.229925984439264"><ele>-2.0</ele><time>2026-04-25T13:44:19Z</time></trkpt><trkpt lat="44.801845438790615" lon="12.229809893676968"><ele>-2.0</ele><time>2026-04-25T13:44:21Z</time></trkpt><trkpt lat="44.801824032123776" lon="12.229690708354466"><ele>-2.0</ele><time>2026-04-25T13:44:23Z</time></trkpt><trkpt lat="44.8018084425496" lon="12.229578798962315"><ele>-1.9999999999999998</ele><time>2026-04-25T13:44:25Z</time></trkpt><trkpt lat="44.801787769071" lon="12.229475148794686"><ele>-2.0</ele><time>2026-04-25T13:44:27Z</time></trkpt><trkpt lat="44.80177767006814" lon="12.229377051158586"><ele>-2.1666666666666665</ele><time>2026-04-25T13:44:29Z</time></trkpt><trkpt lat="44.80176028875108" lon="12.229267503131469"><ele>-2.333333333333333</ele><time>2026-04-25T13:44:31Z</time></trkpt><trkpt lat="44.801748789845185" lon="12.229162607239687"><ele>-2.5</ele><time>2026-04-25T13:44:33Z</time></trkpt><trkpt lat="44.8017433814107" lon="12.229064227430866"><ele>-2.6666666666666665</ele><time>2026-04-25T13:44:35Z</time></trkpt><trkpt lat="44.80173813266146" lon="12.228965381373454"><ele>-2.8333333333333335</ele><time>2026-04-25T13:44:37Z</time></trkpt><trkpt lat="44.80172694404304" lon="12.228846454010663"><ele>-3.0</ele><time>2026-04-25T13:44:39Z</time></trkpt><trkpt lat="44.801720194742344" lon="12.228741116672635"><ele>-3.1666666666666665</ele><time>2026-04-25T13:44:41Z</time></trkpt><trkpt lat="44.80171761200052" lon="12.22864427093275"><ele>-3.333333333333333</ele><time>2026-04-25T13:44:43Z</time></trkpt><trkpt lat="44.801715437818295" lon="12.228549015612105"><ele>-3.5</ele><time>2026-04-25T13:44:45Z</time></trkpt><trkpt lat="44.80171046707161" lon="12.228445813772446"><ele>-3.6666666666666665</ele><time>2026-04-25T13:44:47Z</time></trkpt><trkpt lat="44.801711816599756" lon="12.228325709021423"><ele>-3.833333333333333</ele><time>2026-04-25T13:44:49Z</time></trkpt><trkpt lat="44.801710788924886" lon="12.228202527421328"><ele>-4.0</ele><time>2026-04-25T13:44:51Z</time></trkpt><trkpt lat="44.801713530400576" lon="12.228090105468631"><ele>-3.4999999999999996</ele><time>2026-04-25T13:44:53Z</time></trkpt><trkpt lat="44.80171492379351" lon="12.227979656464901"><ele>-3.0</ele><time>2026-04-25T13:44:55Z</time></trkpt><trkpt lat="44.801721821694734" lon="12.227865428419863"><ele>-2.5</ele><time>2026-04-25T13:44:57Z</time></trkpt><trkpt lat="44.80172872350925" lon="12.227743764911546"><ele>-2.0</ele><time>2026-04-25T13:44:59Z</time></trkpt><trkpt lat="44.801748508346776" lon="12.227620644370104"><ele>-1.5</ele><time>2026-04-25T13:45:01Z</time></trkpt><trkpt lat="44.80176807841997" lon="12.227498342995172"><ele>-1.0</ele><time>2026-04-25T13:45:03Z</time></trkpt><trkpt lat="44.801785662563724" lon="12.227379091684432"><ele>-0.9999999999999999</ele><time>2026-04-25T13:45:05Z</time></trkpt><trkpt lat="44.80180611510702" lon="12.227266383770113"><ele>-1.0</ele><time>2026-04-25T13:45:07Z</time></trkpt><trkpt lat="44.80182223683432" lon="12.227159983302768"><ele>-1.0</ele><time>2026-04-25T13:45:09Z</time></trkpt><trkpt lat="44.8018471032766" lon="12.227050130865488"><ele>-1.0</ele><time>2026-04-25T13:45:11Z</time></trkpt><trkpt lat="44.80187390781174" lon="12.226935566456865"><ele>-0.9999999999999999</ele><time>2026-04-25T13:45:13Z</time></trkpt><trkpt lat="44.80189977163685" lon="12.226823598836013"><ele>-1.0</ele><time>2026-04-25T13:45:15Z</time></trkpt><trkpt lat="44.80192899357043" lon="12.22670681700296"><ele>-1.3333333333333333</ele><time>2026-04-25T13:45:17Z</time></trkpt><trkpt lat="44.8019602309904" lon="12.226590157041578"><ele>-1.6666666666666665</ele><time>2026-04-25T13:45:19Z</time></trkpt><trkpt lat="44.801996705732186" lon="12.22647465178881"><ele>-2.0</ele><time>2026-04-25T13:45:21Z</time></trkpt><trkpt lat="44.802031102272714" lon="12.226363983640649"><ele>-2.3333333333333335</ele><time>2026-04-25T13:45:23Z</time></trkpt><trkpt lat="44.802067414860915" lon="12.22626667272019"><ele>-2.6666666666666665</ele><time>2026-04-25T13:45:25Z</time></trkpt><trkpt lat="44.80210229970246" lon="12.22616849964718"><ele>-3.0</ele><time>2026-04-25T13:45:27Z</time></trkpt><trkpt lat="44.802135279377424" lon="12.226065830384778"><ele>-3.0</ele><time>2026-04-25T13:45:29Z</time></trkpt><trkpt lat="44.80217285548318" lon="12.225954989361169"><ele>-3.0</ele><time>2026-04-25T13:45:31Z</time></trkpt><trkpt lat="44.802214136481126" lon="12.225841757681202"><ele>-3.0</ele><time>2026-04-25T13:45:33Z</time></trkpt><trkpt lat="44.80225588338013" lon="12.225735094676217"><ele>-3.0</ele><time>2026-04-25T13:45:35Z</time></trkpt><trkpt lat="44.80229355279846" lon="12.225621754014686"><ele>-3.0</ele><time>2026-04-25T13:45:37Z</time></trkpt><trkpt lat="44.80233439949271" lon="12.22551122748043"><ele>-3.0</ele><time>2026-04-25T13:45:39Z</time></trkpt><trkpt lat="44.8023750147509" lon="12.225403115285067"><ele>-2.8333333333333335</ele><time>2026-04-25T13:45:41Z</time></trkpt><trkpt lat="44.8024199995512" lon="12.225292570380702"><ele>-2.6666666666666665</ele><time>2026-04-25T13:45:43Z</time></trkpt><trkpt lat="44.80246258735501" lon="12.225182807614758"><ele>-2.5</ele><time>2026-04-25T13:45:45Z</time></trkpt><trkpt lat="44.802500527634415" lon="12.225072289835486"><ele>-2.333333333333333</ele><time>2026-04-25T13:45:47Z</time></trkpt><trkpt lat="44.80254013686544" lon="12.22496338896273"><ele>-2.1666666666666665</ele><time>2026-04-25T13:45:49Z</time></trkpt><trkpt lat="44.80259360738703" lon="12.224861504315758"><ele>-2.0</ele><time>2026-04-25T13:45:51Z</time></trkpt><trkpt lat="44.802640469841954" lon="12.224751078545772"><ele>-1.9999999999999998</ele><time>2026-04-25T13:45:53Z</time></trkpt><trkpt lat="44.80269073077272" lon="12.224643645392366"><ele>-2.0</ele><time>2026-04-25T13:45:55Z</time></trkpt><trkpt lat="44.80274160057874" lon="12.224542725625046"><ele>-2.0</ele><time>2026-04-25T13:45:57Z</time></trkpt><trkpt lat="44.80278428234653" lon="12.224452004755857"><ele>-2.0</ele><time>2026-04-25T13:45:59Z</time></trkpt><trkpt lat="44.80283035137228" lon="12.224367758790798"><ele>-1.9999999999999998</ele><time>2026-04-25T13:46:01Z</time></trkpt><trkpt lat="44.802886046351155" lon="12.224278203904852"><ele>-2.0</ele><time>2026-04-25T13:46:03Z</time></trkpt><trkpt lat="44.802953620624855" lon="12.224174584865043"><ele>-2.0</ele><time>2026-04-25T13:46:05Z</time></trkpt><trkpt lat="44.80301519303025" lon="12.224071675928748"><ele>-2.0</ele><time>2026-04-25T13:46:07Z</time></trkpt><trkpt lat="44.803076418425526" lon="12.223968667451647"><ele>-2.0</ele><time>2026-04-25T13:46:09Z</time></trkpt><trkpt lat="44.80313681887038" lon="12.22387641181886"><ele>-2.0</ele><time>2026-04-25T13:46:11Z</time></trkpt><trkpt lat="44.80319531746698" lon="12.223788181979911"><ele>-2.0</ele><time>2026-04-25T13:46:13Z</time></trkpt><trkpt lat="44.80324621894868" lon="12.223693297975505"><ele>-1.8</ele><time>2026-04-25T13:46:15Z</time></trkpt><trkpt lat="44.80330959606022" lon="12.223605519668743"><ele>-1.6</ele><time>2026-04-25T13:46:17Z</time></trkpt><trkpt lat="44.8033648339555" lon="12.223510938912897"><ele>-1.4000000000000001</ele><time>2026-04-25T13:46:19Z</time></trkpt><trkpt lat="44.80342704401224" lon="12.223416141046528"><ele>-1.2000000000000002</ele><time>2026-04-25T13:46:21Z</time></trkpt><trkpt lat="44.803487010538696" lon="12.223318450035901"><ele>-1.0</ele><time>2026-04-25T13:46:23Z</time></trkpt><trkpt lat="44.80354910591347" lon="12.223223851644997"><ele>-1.0</ele><time>2026-04-25T13:46:25Z</time></trkpt><trkpt lat="44.80361051294541" lon="12.223130722093234"><ele>-1.0</ele><time>2026-04-25T13:46:27Z</time></trkpt><trkpt lat="44.803672936254145" lon="12.2230326877108"><ele>-1.0</ele><time>2026-04-25T13:46:29Z</time></trkpt><trkpt lat="44.80373620027728" lon="12.222934301476704"><ele>-1.0</ele><time>2026-04-25T13:46:31Z</time></trkpt><trkpt lat="44.80380071835082" lon="12.22283916930819"><ele>-1.0</ele><time>2026-04-25T13:46:33Z</time></trkpt><trkpt lat="44.803869666403905" lon="12.222749419386156"><ele>-0.9999999999999999</ele><time>2026-04-25T13:46:35Z</time></trkpt><trkpt lat="44.80393705154019" lon="12.222660670948471"><ele>-1.0</ele><time>2026-04-25T13:46:37Z</time></trkpt><trkpt lat="44.804009046984824" lon="12.222583267885112"><ele>-1.0</ele><time>2026-04-25T13:46:39Z</time></trkpt><trkpt lat="44.8040822890633" lon="12.2225068504562"><ele>-1.0</ele><time>2026-04-25T13:46:41Z</time></trkpt><trkpt lat="44.80415239436928" lon="12.222438874324844"><ele>-0.9999999999999999</ele><time>2026-04-25T13:46:43Z</time></trkpt><trkpt lat="44.80421774297047" lon="12.222370823112753"><ele>-1.0</ele><time>2026-04-25T13:46:45Z</time></trkpt><trkpt lat="44.80426868597381" lon="12.22230677595311"><ele>-0.8333333333333333</ele><time>2026-04-25T13:46:48Z</time></trkpt><trkpt lat="44.804329173887524" lon="12.222238190075712"><ele>-0.6666666666666666</ele><time>2026-04-25T13:50:16Z</time></trkpt><trkpt lat="44.80439473943424" lon="12.222172755935203"><ele>-0.5</ele><time>2026-04-25T13:50:21Z</time></trkpt><trkpt lat="44.804457383177244" lon="12.222116914897136"><ele>-0.3333333333333333</ele><time>2026-04-25T13:50:24Z</time></trkpt><trkpt lat="44.80451670259895" lon="12.222073062247311"><ele>-0.16666666666666666</ele><time>2026-04-25T13:50:26Z</time></trkpt><trkpt lat="44.80456856450759" lon="12.222014708155438"><ele>0.0</ele><time>2026-04-25T13:50:28Z</time></trkpt><trkpt lat="44.804636268441676" lon="12.221943986672114"><ele>-0.6666666666666666</ele><time>2026-04-25T13:50:30Z</time></trkpt><trkpt lat="44.804707673314695" lon="12.221873283250272"><ele>-1.3333333333333333</ele><time>2026-04-25T13:50:32Z</time></trkpt><trkpt lat="44.80477493922126" lon="12.221805208613896"><ele>-2.0</ele><time>2026-04-25T13:50:34Z</time></trkpt><trkpt lat="44.80483839992657" lon="12.22174654863988"><ele>-2.6666666666666665</ele><time>2026-04-25T13:50:36Z</time></trkpt><trkpt lat="44.80489904094046" lon="12.221686826022516"><ele>-3.333333333333333</ele><time>2026-04-25T13:50:38Z</time></trkpt><trkpt lat="44.80495810005843" lon="12.221625626015916"><ele>-4.0</ele><time>2026-04-25T13:50:40Z</time></trkpt><trkpt lat="44.8050187744178" lon="12.221574282353213"><ele>-3.9999999999999996</ele><time>2026-04-25T13:50:42Z</time></trkpt><trkpt lat="44.805072860532604" lon="12.221518863543311"><ele>-4.0</ele><time>2026-04-25T13:50:44Z</time></trkpt><trkpt lat="44.80513393871325" lon="12.221452564987008"><ele>-4.0</ele><time>2026-04-25T13:50:46Z</time></trkpt><trkpt lat="44.805208432336244" lon="12.221377457260866"><ele>-4.0</ele><time>2026-04-25T13:50:48Z</time></trkpt><trkpt lat="44.80528430190205" lon="12.22130215185774"><ele>-3.9999999999999996</ele><time>2026-04-25T13:50:50Z</time></trkpt><trkpt lat="44.80535854924501" lon="12.221236860720332"><ele>-4.0</ele><time>2026-04-25T13:50:52Z</time></trkpt><trkpt lat="44.805428620204715" lon="12.221165738330628"><ele>-3.333333333333333</ele><time>2026-04-25T13:50:54Z</time></trkpt><trkpt lat="44.80550482483137" lon="12.22110083756257"><ele>-2.6666666666666665</ele><time>2026-04-25T13:50:56Z</time></trkpt><trkpt lat="44.80557833289129" lon="12.221039944132892"><ele>-2.0</ele><time>2026-04-25T13:50:58Z</time></trkpt><trkpt lat="44.80565277285502" lon="12.220978427159244"><ele>-1.3333333333333333</ele><time>2026-04-25T13:51:00Z</time></trkpt><trkpt lat="44.80573187413576" lon="12.220914466662103"><ele>-0.6666666666666666</ele><time>2026-04-25T13:51:02Z</time></trkpt><trkpt lat="44.80580710966696" lon="12.22085245516915"><ele>0.0</ele><time>2026-04-25T13:51:04Z</time></trkpt><trkpt lat="44.80587682436824" lon="12.220800206273331"><ele>0.0</ele><time>2026-04-25T13:51:06Z</time></trkpt><trkpt lat="44.80593865598221" lon="12.220746225894079"><ele>0.0</ele><time>2026-04-25T13:51:08Z</time></trkpt><trkpt lat="44.80600000897522" lon="12.220700924254727"><ele>0.0</ele><time>2026-04-25T13:51:10Z</time></trkpt><trkpt lat="44.80606597588835" lon="12.2206518566764"><ele>0.0</ele><time>2026-04-25T13:51:12Z</time></trkpt><trkpt lat="44.80614146193921" lon="12.220599447763348"><ele>0.0</ele><time>2026-04-25T13:51:14Z</time></trkpt><trkpt lat="44.80621678613392" lon="12.220542435679558"><ele>0.0</ele><time>2026-04-25T13:51:16Z</time></trkpt><trkpt lat="44.80629733965248" lon="12.220481275177125"><ele>-0.16666666666666666</ele><time>2026-04-25T13:51:18Z</time></trkpt><trkpt lat="44.80638096970431" lon="12.220420506014625"><ele>-0.3333333333333333</ele><time>2026-04-25T13:51:20Z</time></trkpt><trkpt lat="44.80645471620991" lon="12.220365177638532"><ele>-0.5</ele><time>2026-04-25T13:51:22Z</time></trkpt><trkpt lat="44.80652719728659" lon="12.22031083059654"><ele>-0.6666666666666666</ele><time>2026-04-25T13:51:24Z</time></trkpt><trkpt lat="44.806603150703744" lon="12.220251613676787"><ele>-0.8333333333333333</ele><time>2026-04-25T13:51:26Z</time></trkpt><trkpt lat="44.80668080017207" lon="12.220195386564592"><ele>-1.0</ele><time>2026-04-25T13:51:28Z</time></trkpt><trkpt lat="44.806758725881444" lon="12.220135873070735"><ele>-0.9999999999999999</ele><time>2026-04-25T13:51:30Z</time></trkpt><trkpt lat="44.80683476007483" lon="12.220077025449218"><ele>-1.0</ele><time>2026-04-25T13:51:32Z</time></trkpt><trkpt lat="44.80691512113141" lon="12.220018726410846"><ele>-1.0</ele><time>2026-04-25T13:51:34Z</time></trkpt><trkpt lat="44.806990912922736" lon="12.219963159444479"><ele>-1.0</ele><time>2026-04-25T13:51:36Z</time></trkpt><trkpt lat="44.80707007886544" lon="12.219902621435407"><ele>-0.9999999999999999</ele><time>2026-04-25T13:51:38Z</time></trkpt><trkpt lat="44.80714889276736" lon="12.219841978908132"><ele>-1.0</ele><time>2026-04-25T13:51:40Z</time></trkpt><trkpt lat="44.8072267470021" lon="12.21979075320324"><ele>-0.9999999999999999</ele><time>2026-04-25T13:51:42Z</time></trkpt><trkpt lat="44.807285911168755" lon="12.219735622626018"><ele>-1.0</ele><time>2026-04-25T13:51:44Z</time></trkpt><trkpt lat="44.80735085037816" lon="12.219692344115067"><ele>-1.0</ele><time>2026-04-25T13:51:46Z</time></trkpt><trkpt lat="44.807434123106475" lon="12.219640459565728"><ele>-1.0</ele><time>2026-04-25T13:51:48Z</time></trkpt><trkpt lat="44.80751266994405" lon="12.219579935526669"><ele>-0.9999999999999999</ele><time>2026-04-25T13:51:50Z</time></trkpt><trkpt lat="44.80759091863693" lon="12.21952116068326"><ele>-1.0</ele><time>2026-04-25T13:51:52Z</time></trkpt><trkpt lat="44.807663426079415" lon="12.219452003428596"><ele>-1.0</ele><time>2026-04-25T13:51:54Z</time></trkpt><trkpt lat="44.80774364909703" lon="12.219391718715718"><ele>-1.0</ele><time>2026-04-25T13:51:56Z</time></trkpt><trkpt lat="44.807815999809705" lon="12.219319787190448"><ele>-1.0</ele><time>2026-04-25T13:51:58Z</time></trkpt><trkpt lat="44.807892846589255" lon="12.21925293203169"><ele>-1.0</ele><time>2026-04-25T13:52:00Z</time></trkpt><trkpt lat="44.807966510060936" lon="12.219178719266544"><ele>-1.0</ele><time>2026-04-25T13:52:02Z</time></trkpt><trkpt lat="44.80804039607024" lon="12.219105224323497"><ele>-0.9999999999999999</ele><time>2026-04-25T13:52:04Z</time></trkpt><trkpt lat="44.80811081876418" lon="12.219029164183096"><ele>-1.0</ele><time>2026-04-25T13:52:06Z</time></trkpt><trkpt lat="44.80818371633221" lon="12.21895979294016"><ele>-1.0</ele><time>2026-04-25T13:52:08Z</time></trkpt><trkpt lat="44.80825420110956" lon="12.218885845213752"><ele>-1.0</ele><time>2026-04-25T13:52:10Z</time></trkpt><trkpt lat="44.80832330694174" lon="12.218809995709398"><ele>-0.9999999999999999</ele><time>2026-04-25T13:52:12Z</time></trkpt><trkpt lat="44.80839539301627" lon="12.218733996325561"><ele>-1.0</ele><time>2026-04-25T13:52:14Z</time></trkpt><trkpt lat="44.808467113710925" lon="12.218656514852361"><ele>-0.9999999999999999</ele><time>2026-04-25T13:52:16Z</time></trkpt><trkpt lat="44.80853517767425" lon="12.218576652811409"><ele>-1.0</ele><time>2026-04-25T13:52:18Z</time></trkpt><trkpt lat="44.80860229086437" lon="12.218499973539542"><ele>-1.0</ele><time>2026-04-25T13:52:20Z</time></trkpt><trkpt lat="44.808674772352425" lon="12.218425425822096"><ele>-1.0</ele><time>2026-04-25T13:52:22Z</time></trkpt><trkpt lat="44.808739743510564" lon="12.218332589985213"><ele>-0.9999999999999999</ele><time>2026-04-25T13:52:24Z</time></trkpt><trkpt lat="44.80881047019682" lon="12.21826148552947"><ele>-1.0</ele><time>2026-04-25T13:52:26Z</time></trkpt><trkpt lat="44.808870654323094" lon="12.218180117782666"><ele>-1.0</ele><time>2026-04-25T13:52:28Z</time></trkpt><trkpt lat="44.80894157467077" lon="12.218097974905433"><ele>-1.0</ele><time>2026-04-25T13:52:30Z</time></trkpt><trkpt lat="44.8090106985739" lon="12.218019176969879"><ele>-1.0</ele><time>2026-04-25T13:52:32Z</time></trkpt><trkpt lat="44.80908279209373" lon="12.217941270847945"><ele>-1.0</ele><time>2026-04-25T13:52:34Z</time></trkpt><trkpt lat="44.809154231809465" lon="12.21786193376189"><ele>-1.0</ele><time>2026-04-25T13:52:36Z</time></trkpt><trkpt lat="44.80922290449295" lon="12.21777217756561"><ele>-0.9999999999999999</ele><time>2026-04-25T13:52:38Z</time></trkpt><trkpt lat="44.80929190659397" lon="12.21768965478133"><ele>-1.0</ele><time>2026-04-25T13:52:40Z</time></trkpt><trkpt lat="44.809359366763516" lon="12.217618189136637"><ele>-1.0</ele><time>2026-04-25T13:52:42Z</time></trkpt><trkpt lat="44.80942111162115" lon="12.217544563639514"><ele>-1.0</ele><time>2026-04-25T13:52:44Z</time></trkpt><trkpt lat="44.80947525669406" lon="12.21747273754347"><ele>-0.9999999999999999</ele><time>2026-04-25T13:52:46Z</time></trkpt><trkpt lat="44.80952102396538" lon="12.217403512189426"><ele>-1.0</ele><time>2026-04-25T13:52:48Z</time></trkpt><trkpt lat="44.80956477758307" lon="12.217338656298846"><ele>-1.1428571428571428</ele><time>2026-04-25T13:52:49.999Z</time></trkpt><trkpt lat="44.809608295014364" lon="12.217255229063163"><ele>-1.2857142857142856</ele><time>2026-04-25T13:52:51.999Z</time></trkpt><trkpt lat="44.809645221605265" lon="12.217172961810304"><ele>-1.4285714285714284</ele><time>2026-04-25T13:52:53.999Z</time></trkpt><trkpt lat="44.80967429035469" lon="12.217092013326152"><ele>-1.5714285714285714</ele><time>2026-04-25T13:52:55.999Z</time></trkpt><trkpt lat="44.809707074081366" lon="12.217010953047843"><ele>-1.714285714285714</ele><time>2026-04-25T13:52:58Z</time></trkpt><trkpt lat="44.80973642593556" lon="12.216913329952696"><ele>-1.857142857142857</ele><time>2026-04-25T13:53:00Z</time></trkpt><trkpt lat="44.8097690824445" lon="12.216800528239078"><ele>-2.0</ele><time>2026-04-25T13:53:02Z</time></trkpt><trkpt lat="44.80979915047082" lon="12.216700769376418"><ele>-1.9999999999999998</ele><time>2026-04-25T13:53:04Z</time></trkpt><trkpt lat="44.80982778062831" lon="12.216589041178391"><ele>-2.0</ele><time>2026-04-25T13:53:06Z</time></trkpt><trkpt lat="44.809857748462214" lon="12.21646528476901"><ele>-2.0</ele><time>2026-04-25T13:53:08Z</time></trkpt><trkpt lat="44.809896279698215" lon="12.216349861653576"><ele>-2.0</ele><time>2026-04-25T13:53:10Z</time></trkpt><trkpt lat="44.809933668798024" lon="12.216242653982055"><ele>-1.9999999999999998</ele><time>2026-04-25T13:53:12Z</time></trkpt><trkpt lat="44.80996783680107" lon="12.216146341228985"><ele>-2.0</ele><time>2026-04-25T13:53:14Z</time></trkpt><trkpt lat="44.809999728872576" lon="12.216051857615167"><ele>-1.857142857142857</ele><time>2026-04-25T13:53:16Z</time></trkpt><trkpt lat="44.81002014363299" lon="12.215955169825314"><ele>-1.714285714285714</ele><time>2026-04-25T13:53:18Z</time></trkpt><trkpt lat="44.81004448123669" lon="12.21586921183101"><ele>-1.5714285714285714</ele><time>2026-04-25T13:53:20Z</time></trkpt><trkpt lat="44.810088816397695" lon="12.215757801969538"><ele>-1.4285714285714284</ele><time>2026-04-25T13:53:23Z</time></trkpt><trkpt lat="44.810112489582224" lon="12.215670155058957"><ele>-1.2857142857142856</ele><time>2026-04-25T13:53:25Z</time></trkpt><trkpt lat="44.8101379100984" lon="12.215558218957504"><ele>-1.1428571428571428</ele><time>2026-04-25T13:53:28Z</time></trkpt><trkpt lat="44.81016744402865" lon="12.215474784443138"><ele>-1.0</ele><time>2026-04-25T13:54:09Z</time></trkpt><trkpt lat="44.810194768411" lon="12.215385143573256"><ele>-1.1666666666666665</ele><time>2026-04-25T13:54:41Z</time></trkpt><trkpt lat="44.81022764570125" lon="12.215281242877117"><ele>-1.3333333333333333</ele><time>2026-04-25T13:54:44Z</time></trkpt><trkpt lat="44.810256695715715" lon="12.215201722849727"><ele>-1.5</ele><time>2026-04-25T13:54:46Z</time></trkpt><trkpt lat="44.810284169013414" lon="12.215108244671915"><ele>-1.6666666666666665</ele><time>2026-04-25T13:54:48Z</time></trkpt><trkpt lat="44.81031478501352" lon="12.215001594061768"><ele>-1.8333333333333333</ele><time>2026-04-25T13:54:50Z</time></trkpt><trkpt lat="44.81034908003931" lon="12.214890914402453"><ele>-2.0</ele><time>2026-04-25T13:54:52Z</time></trkpt><trkpt lat="44.81038160587299" lon="12.214776244540662"><ele>-1.9999999999999998</ele><time>2026-04-25T13:54:54Z</time></trkpt><trkpt lat="44.81041829925457" lon="12.214663881426711"><ele>-2.0</ele><time>2026-04-25T13:54:55.999Z</time></trkpt><trkpt lat="44.81045188486883" lon="12.214549016221843"><ele>-2.0</ele><time>2026-04-25T13:54:57.999Z</time></trkpt><trkpt lat="44.81048635503666" lon="12.214429871794346"><ele>-2.0</ele><time>2026-04-25T13:54:59.999Z</time></trkpt><trkpt lat="44.8105213685011" lon="12.214316534341396"><ele>-1.9999999999999998</ele><time>2026-04-25T13:55:01.999Z</time></trkpt><trkpt lat="44.810554564054755" lon="12.214202747008542"><ele>-2.0</ele><time>2026-04-25T13:55:04Z</time></trkpt><trkpt lat="44.81059386909657" lon="12.214088852379499"><ele>-1.9999999999999998</ele><time>2026-04-25T13:55:06Z</time></trkpt><trkpt lat="44.81062587528232" lon="12.21397104944162"><ele>-2.0</ele><time>2026-04-25T13:55:08Z</time></trkpt><trkpt lat="44.81066435549779" lon="12.213863028896853"><ele>-2.0</ele><time>2026-04-25T13:55:10Z</time></trkpt><trkpt lat="44.81069779212073" lon="12.213746710206337"><ele>-2.0</ele><time>2026-04-25T13:55:12Z</time></trkpt><trkpt lat="44.81073529003658" lon="12.213640613618043"><ele>-1.9999999999999998</ele><time>2026-04-25T13:55:14Z</time></trkpt><trkpt lat="44.810769951682495" lon="12.213524478390804"><ele>-2.0</ele><time>2026-04-25T13:55:16Z</time></trkpt><trkpt lat="44.81080635629387" lon="12.213416369408503"><ele>-1.9999999999999998</ele><time>2026-04-25T13:55:18Z</time></trkpt><trkpt lat="44.81084269047414" lon="12.213304419316353"><ele>-2.0</ele><time>2026-04-25T13:55:20Z</time></trkpt><trkpt lat="44.810882765547746" lon="12.213192418748179"><ele>-2.0</ele><time>2026-04-25T13:55:22Z</time></trkpt><trkpt lat="44.8109232026174" lon="12.213081992631063"><ele>-2.0</ele><time>2026-04-25T13:55:24Z</time></trkpt><trkpt lat="44.810966663098085" lon="12.212979687460296"><ele>-1.9999999999999998</ele><time>2026-04-25T13:55:26Z</time></trkpt><trkpt lat="44.8110069223694" lon="12.21287318527412"><ele>-2.0</ele><time>2026-04-25T13:55:28Z</time></trkpt><trkpt lat="44.81104866126138" lon="12.212766038700988"><ele>-2.0</ele><time>2026-04-25T13:55:30Z</time></trkpt><trkpt lat="44.81109015054222" lon="12.212668055329692"><ele>-1.9999999999999998</ele><time>2026-04-25T13:55:32Z</time></trkpt><trkpt lat="44.811133955654334" lon="12.212574591276882"><ele>-2.0</ele><time>2026-04-25T13:55:34Z</time></trkpt><trkpt lat="44.81117528120486" lon="12.212495711109183"><ele>-2.0</ele><time>2026-04-25T13:55:36Z</time></trkpt><trkpt lat="44.81120649634842" lon="12.212414395927704"><ele>-1.9999999999999998</ele><time>2026-04-25T13:55:38Z</time></trkpt><trkpt lat="44.811254544010744" lon="12.212323033367552"><ele>-2.0</ele><time>2026-04-25T13:55:41Z</time></trkpt><trkpt lat="44.81129267174051" lon="12.212241058975524"><ele>-2.0</ele><time>2026-04-25T13:55:44Z</time></trkpt><trkpt lat="44.811324405932915" lon="12.212164032039432"><ele>-1.8333333333333333</ele><time>2026-04-25T13:55:46Z</time></trkpt><trkpt lat="44.81135759123724" lon="12.2120882299287"><ele>-1.6666666666666665</ele><time>2026-04-25T13:55:48Z</time></trkpt><trkpt lat="44.811399134696465" lon="12.21198682118329"><ele>-1.5</ele><time>2026-04-25T13:55:51Z</time></trkpt><trkpt lat="44.8114510263854" lon="12.211895568752531"><ele>-1.3333333333333333</ele><time>2026-04-25T13:55:54Z</time></trkpt><trkpt lat="44.81149170055594" lon="12.211807949678851"><ele>-1.1666666666666665</ele><time>2026-04-25T13:55:56Z</time></trkpt><trkpt lat="44.81152170830763" lon="12.211725120321365"><ele>-1.0</ele><time>2026-04-25T13:55:58Z</time></trkpt><trkpt lat="44.81157967622305" lon="12.211631482641327"><ele>-0.9999999999999999</ele><time>2026-04-25T13:56:01Z</time></trkpt><trkpt lat="44.811630711790485" lon="12.21152363178639"><ele>-1.0</ele><time>2026-04-25T13:56:04Z</time></trkpt><trkpt lat="44.81167507343936" lon="12.211427924529325"><ele>-1.0</ele><time>2026-04-25T13:56:06Z</time></trkpt><trkpt lat="44.811716846709004" lon="12.211336198743073"><ele>-1.0</ele><time>2026-04-25T13:56:08Z</time></trkpt><trkpt lat="44.811747228670775" lon="12.211244466657233"><ele>-0.9999999999999999</ele><time>2026-04-25T13:56:10Z</time></trkpt><trkpt lat="44.81177709299684" lon="12.21115631856036"><ele>-1.0</ele><time>2026-04-25T13:56:12Z</time></trkpt><trkpt lat="44.81180267858436" lon="12.211071603892051"><ele>-0.9999999999999999</ele><time>2026-04-25T13:56:14Z</time></trkpt><trkpt lat="44.811826490514584" lon="12.21098795843889"><ele>-1.0</ele><time>2026-04-25T13:56:16Z</time></trkpt><trkpt lat="44.81185154900015" lon="12.210865419635551"><ele>-1.0</ele><time>2026-04-25T13:56:19Z</time></trkpt><trkpt lat="44.811873444174374" lon="12.210739105164425"><ele>-1.0</ele><time>2026-04-25T13:56:22Z</time></trkpt><trkpt lat="44.8118948816568" lon="12.21063394257323"><ele>-0.9999999999999999</ele><time>2026-04-25T13:56:25Z</time></trkpt><trkpt lat="44.81190597941986" lon="12.21054292704501"><ele>-1.0</ele><time>2026-04-25T13:56:27Z</time></trkpt><trkpt lat="44.81191009975441" lon="12.210449671631004"><ele>-1.3333333333333333</ele><time>2026-04-25T13:56:29Z</time></trkpt><trkpt lat="44.81191490838833" lon="12.210325106931537"><ele>-1.6666666666666665</ele><time>2026-04-25T13:56:32Z</time></trkpt><trkpt lat="44.81191668656363" lon="12.210207241772995"><ele>-2.0</ele><time>2026-04-25T13:56:35Z</time></trkpt><trkpt lat="44.81191508975929" lon="12.210082745371398"><ele>-2.3333333333333335</ele><time>2026-04-25T13:56:38Z</time></trkpt><trkpt lat="44.81192069812259" lon="12.209982186006803"><ele>-2.6666666666666665</ele><time>2026-04-25T13:56:40Z</time></trkpt><trkpt lat="44.81191886637221" lon="12.20985666656033"><ele>-3.0</ele><time>2026-04-25T13:56:43Z</time></trkpt><trkpt lat="44.811903156933774" lon="12.20976919250326"><ele>-3.0</ele><time>2026-04-25T13:57:28Z</time></trkpt><trkpt lat="44.81190849311167" lon="12.20965979660638"><ele>-3.0</ele><time>2026-04-25T13:57:57Z</time></trkpt><trkpt lat="44.81190397421499" lon="12.209536571085339"><ele>-3.0</ele><time>2026-04-25T13:58:01Z</time></trkpt><trkpt lat="44.81190949985166" lon="12.209429000340759"><ele>-3.0</ele><time>2026-04-25T13:58:04Z</time></trkpt><trkpt lat="44.81191318446937" lon="12.209283833738601"><ele>-3.0</ele><time>2026-04-25T13:58:07Z</time></trkpt><trkpt lat="44.81191010022227" lon="12.209181874903138"><ele>-3.0</ele><time>2026-04-25T13:58:09Z</time></trkpt><trkpt lat="44.811905874555926" lon="12.209091884454566"><ele>-3.0</ele><time>2026-04-25T13:58:11Z</time></trkpt><trkpt lat="44.8119004309211" lon="12.209000417583912"><ele>-3.0</ele><time>2026-04-25T13:58:13Z</time></trkpt><trkpt lat="44.81189668917259" lon="12.208880142342034"><ele>-3.0</ele><time>2026-04-25T13:58:15Z</time></trkpt><trkpt lat="44.81190947256331" lon="12.208762584253495"><ele>-3.0</ele><time>2026-04-25T13:58:17Z</time></trkpt><trkpt lat="44.811907371077425" lon="12.208652065993485"><ele>-3.0</ele><time>2026-04-25T13:58:19Z</time></trkpt><trkpt lat="44.81190346914938" lon="12.208547736729615"><ele>-3.0</ele><time>2026-04-25T13:58:21Z</time></trkpt><trkpt lat="44.81190047057343" lon="12.208449481301999"><ele>-2.8571428571428568</ele><time>2026-04-25T13:58:23Z</time></trkpt><trkpt lat="44.811900663487194" lon="12.208335649122079"><ele>-2.7142857142857144</ele><time>2026-04-25T13:58:25Z</time></trkpt><trkpt lat="44.81189713867418" lon="12.20822262232839"><ele>-2.571428571428571</ele><time>2026-04-25T13:58:27Z</time></trkpt><trkpt lat="44.81189630066663" lon="12.208118528044745"><ele>-2.4285714285714284</ele><time>2026-04-25T13:58:29Z</time></trkpt><trkpt lat="44.81189621018812" lon="12.208018541142014"><ele>-2.2857142857142856</ele><time>2026-04-25T13:58:31Z</time></trkpt><trkpt lat="44.8118932114464" lon="12.2079227270973"><ele>-2.142857142857143</ele><time>2026-04-25T13:58:33Z</time></trkpt><trkpt lat="44.81187688352078" lon="12.207830399268294"><ele>-2.0</ele><time>2026-04-25T13:58:35Z</time></trkpt><trkpt lat="44.81187191987379" lon="12.207722037084949"><ele>-2.0</ele><time>2026-04-25T13:58:37Z</time></trkpt><trkpt lat="44.811886974947825" lon="12.207615535752602"><ele>-1.9999999999999998</ele><time>2026-04-25T13:58:39Z</time></trkpt><trkpt lat="44.81188506355311" lon="12.207509558994643"><ele>-2.0</ele><time>2026-04-25T13:58:41Z</time></trkpt><trkpt lat="44.811883120128215" lon="12.20740899096069"><ele>-2.0</ele><time>2026-04-25T13:58:43Z</time></trkpt><trkpt lat="44.81187606884775" lon="12.207310715553009"><ele>-1.9999999999999998</ele><time>2026-04-25T13:58:45Z</time></trkpt><trkpt lat="44.811870496703264" lon="12.207213825640421"><ele>-2.0</ele><time>2026-04-25T13:58:47Z</time></trkpt><trkpt lat="44.811869223559746" lon="12.207124789646615"><ele>-2.0</ele><time>2026-04-25T13:58:49Z</time></trkpt><trkpt lat="44.81186211731798" lon="12.20701028243841"><ele>-1.9999999999999998</ele><time>2026-04-25T13:58:52Z</time></trkpt><trkpt lat="44.811820847064226" lon="12.206885567704223"><ele>-2.0</ele><time>2026-04-25T13:58:55Z</time></trkpt><trkpt lat="44.81177682061407" lon="12.206780730787477"><ele>-2.0</ele><time>2026-04-25T13:58:58Z</time></trkpt><trkpt lat="44.81179684629687" lon="12.206692014971757"><ele>-2.0</ele><time>2026-04-25T13:59:06Z</time></trkpt><trkpt lat="44.811854401290795" lon="12.20675045999695"><ele>-1.9999999999999998</ele><time>2026-04-25T13:59:38Z</time></trkpt><trkpt lat="44.81191445943674" lon="12.206857960259917"><ele>-2.0</ele><time>2026-04-25T13:59:40Z</time></trkpt><trkpt lat="44.811909775682246" lon="12.206964738838092"><ele>-1.9999999999999998</ele><time>2026-04-25T13:59:42Z</time></trkpt><trkpt lat="44.811908383054366" lon="12.207084040229121"><ele>-2.0</ele><time>2026-04-25T13:59:44Z</time></trkpt><trkpt lat="44.811908979171115" lon="12.207205681756975"><ele>-2.0</ele><time>2026-04-25T13:59:46Z</time></trkpt><trkpt lat="44.811909685265334" lon="12.20732907120428"><ele>-2.0</ele><time>2026-04-25T13:59:48Z</time></trkpt><trkpt lat="44.811907095558226" lon="12.207455318670128"><ele>-1.9999999999999998</ele><time>2026-04-25T13:59:50Z</time></trkpt><trkpt lat="44.81191052447074" lon="12.20757707215189"><ele>-2.0</ele><time>2026-04-25T13:59:52Z</time></trkpt><trkpt lat="44.81191438702827" lon="12.207699882711614"><ele>-1.9999999999999998</ele><time>2026-04-25T13:59:54Z</time></trkpt><trkpt lat="44.81191725638725" lon="12.207823289380443"><ele>-2.0</ele><time>2026-04-25T13:59:56Z</time></trkpt><trkpt lat="44.81191553546284" lon="12.207947020570833"><ele>-2.0</ele><time>2026-04-25T13:59:58Z</time></trkpt><trkpt lat="44.81191836635624" lon="12.20806896472953"><ele>-2.0</ele><time>2026-04-25T14:00:00Z</time></trkpt><trkpt lat="44.81192051367076" lon="12.208191062828108"><ele>-1.9999999999999998</ele><time>2026-04-25T14:00:02Z</time></trkpt><trkpt lat="44.811919505120024" lon="12.208314196005235"><ele>-2.0</ele><time>2026-04-25T14:00:04Z</time></trkpt><trkpt lat="44.81192281037158" lon="12.208438786853455"><ele>-1.8333333333333333</ele><time>2026-04-25T14:00:06Z</time></trkpt><trkpt lat="44.811925829761684" lon="12.20856386066566"><ele>-1.6666666666666665</ele><time>2026-04-25T14:00:08Z</time></trkpt><trkpt lat="44.811926623472274" lon="12.20868686215967"><ele>-1.5</ele><time>2026-04-25T14:00:10Z</time></trkpt><trkpt lat="44.81193002170407" lon="12.208812521210618"><ele>-1.3333333333333333</ele><time>2026-04-25T14:00:12Z</time></trkpt><trkpt lat="44.81193066491893" lon="12.208935626508884"><ele>-1.1666666666666665</ele><time>2026-04-25T14:00:14Z</time></trkpt><trkpt lat="44.81193381215849" lon="12.209060476428464"><ele>-1.0</ele><time>2026-04-25T14:00:16Z</time></trkpt><trkpt lat="44.81193695416018" lon="12.209186215211632"><ele>-1.4</ele><time>2026-04-25T14:00:18Z</time></trkpt><trkpt lat="44.81193692428782" lon="12.20931343208835"><ele>-1.8</ele><time>2026-04-25T14:00:20Z</time></trkpt><trkpt lat="44.811938224492124" lon="12.20944207998457"><ele>-2.1999999999999997</ele><time>2026-04-25T14:00:22Z</time></trkpt><trkpt lat="44.81193706920297" lon="12.209568579231869"><ele>-2.6</ele><time>2026-04-25T14:00:24Z</time></trkpt><trkpt lat="44.81193950959504" lon="12.209700901784847"><ele>-3.0</ele><time>2026-04-25T14:00:26Z</time></trkpt><trkpt lat="44.81194192801467" lon="12.209830206259975"><ele>-3.0</ele><time>2026-04-25T14:00:28Z</time></trkpt><trkpt lat="44.81194400580115" lon="12.2099575669565"><ele>-3.0</ele><time>2026-04-25T14:00:30Z</time></trkpt><trkpt lat="44.81194067137357" lon="12.21008416914802"><ele>-3.0</ele><time>2026-04-25T14:00:32Z</time></trkpt><trkpt lat="44.811942694760916" lon="12.210208922808095"><ele>-3.0</ele><time>2026-04-25T14:00:34Z</time></trkpt><trkpt lat="44.8119420392962" lon="12.21033363480388"><ele>-3.0</ele><time>2026-04-25T14:00:36Z</time></trkpt><trkpt lat="44.81193316940395" lon="12.210456752100816"><ele>-3.0</ele><time>2026-04-25T14:00:38Z</time></trkpt><trkpt lat="44.811938768773075" lon="12.210575163431528"><ele>-2.6666666666666665</ele><time>2026-04-25T14:00:40Z</time></trkpt><trkpt lat="44.811948120697615" lon="12.210681567382649"><ele>-2.3333333333333335</ele><time>2026-04-25T14:00:42Z</time></trkpt><trkpt lat="44.811955711670805" lon="12.210778180647255"><ele>-2.0</ele><time>2026-04-25T14:00:44Z</time></trkpt><trkpt lat="44.8119988108165" lon="12.21085028046509"><ele>-1.6666666666666665</ele><time>2026-04-25T14:00:46Z</time></trkpt><trkpt lat="44.81206669840688" lon="12.210894784919994"><ele>-1.3333333333333333</ele><time>2026-04-25T14:00:48Z</time></trkpt><trkpt lat="44.81215216571584" lon="12.210883980816357"><ele>-1.0</ele><time>2026-04-25T14:00:50Z</time></trkpt><trkpt lat="44.812232851279695" lon="12.210879078260149"><ele>-1.0</ele><time>2026-04-25T14:00:52Z</time></trkpt><trkpt lat="44.81232000416156" lon="12.210885935047855"><ele>-1.0</ele><time>2026-04-25T14:00:54Z</time></trkpt><trkpt lat="44.81241533223338" lon="12.210891410959192"><ele>-1.0</ele><time>2026-04-25T14:00:56Z</time></trkpt><trkpt lat="44.812506863917875" lon="12.210889210205863"><ele>-1.0</ele><time>2026-04-25T14:00:58Z</time></trkpt><trkpt lat="44.8125974654678" lon="12.21089152365728"><ele>-1.0</ele><time>2026-04-25T14:01:00Z</time></trkpt><trkpt lat="44.81268861448346" lon="12.210886472970165"><ele>-1.0</ele><time>2026-04-25T14:01:02Z</time></trkpt><trkpt lat="44.81278608492885" lon="12.210886334527437"><ele>-1.0</ele><time>2026-04-25T14:01:04Z</time></trkpt><trkpt lat="44.8128794047602" lon="12.210880157840506"><ele>-1.0</ele><time>2026-04-25T14:01:06Z</time></trkpt><trkpt lat="44.81297469304742" lon="12.210880124951027"><ele>-1.0</ele><time>2026-04-25T14:01:08Z</time></trkpt><trkpt lat="44.8130716030459" lon="12.210870297274562"><ele>-1.0</ele><time>2026-04-25T14:01:10Z</time></trkpt><trkpt lat="44.81316811548024" lon="12.21087136949177"><ele>-1.0</ele><time>2026-04-25T14:01:12Z</time></trkpt><trkpt lat="44.81326441645588" lon="12.210862638328104"><ele>-1.0</ele><time>2026-04-25T14:01:14Z</time></trkpt><trkpt lat="44.8133600253597" lon="12.210859004824787"><ele>-1.0</ele><time>2026-04-25T14:01:16Z</time></trkpt><trkpt lat="44.81345580450577" lon="12.210860249740238"><ele>-1.0</ele><time>2026-04-25T14:01:18Z</time></trkpt><trkpt lat="44.813549000583315" lon="12.210861837370683"><ele>-1.0</ele><time>2026-04-25T14:01:20Z</time></trkpt><trkpt lat="44.8136390987182" lon="12.210857570848619"><ele>-0.9999999999999999</ele><time>2026-04-25T14:01:22Z</time></trkpt><trkpt lat="44.8137269617962" lon="12.210847602765766"><ele>-1.0</ele><time>2026-04-25T14:01:24Z</time></trkpt><trkpt lat="44.81380929082255" lon="12.21085095122037"><ele>-1.0</ele><time>2026-04-25T14:01:26Z</time></trkpt><trkpt lat="44.813889371836076" lon="12.210854455598271"><ele>-1.0</ele><time>2026-04-25T14:01:28Z</time></trkpt><trkpt lat="44.813966943549175" lon="12.210857133514288"><ele>-0.9999999999999999</ele><time>2026-04-25T14:01:30Z</time></trkpt><trkpt lat="44.81404828980807" lon="12.210857088436768"><ele>-1.0</ele><time>2026-04-25T14:01:32Z</time></trkpt><trkpt lat="44.814139541157964" lon="12.210846790252194"><ele>-0.9999999999999999</ele><time>2026-04-25T14:01:34Z</time></trkpt><trkpt lat="44.81422592963256" lon="12.210847583930867"><ele>-1.0</ele><time>2026-04-25T14:01:36Z</time></trkpt><trkpt lat="44.814317995126665" lon="12.210848385712351"><ele>-1.0</ele><time>2026-04-25T14:01:38Z</time></trkpt><trkpt lat="44.81440841639375" lon="12.210845899187982"><ele>-1.0</ele><time>2026-04-25T14:01:40Z</time></trkpt><trkpt lat="44.81449765648858" lon="12.210844563345168"><ele>-0.9999999999999999</ele><time>2026-04-25T14:01:42Z</time></trkpt><trkpt lat="44.81458696659666" lon="12.210844014217608"><ele>-1.0</ele><time>2026-04-25T14:01:44Z</time></trkpt><trkpt lat="44.814676390671906" lon="12.210841128954941"><ele>-1.1666666666666665</ele><time>2026-04-25T14:01:46Z</time></trkpt><trkpt lat="44.814767389883734" lon="12.210838456620543"><ele>-1.3333333333333333</ele><time>2026-04-25T14:01:48Z</time></trkpt><trkpt lat="44.814857084561226" lon="12.210840499831372"><ele>-1.5</ele><time>2026-04-25T14:01:50Z</time></trkpt><trkpt lat="44.814945002470616" lon="12.210838279358624"><ele>-1.6666666666666665</ele><time>2026-04-25T14:01:52Z</time></trkpt><trkpt lat="44.8150307870894" lon="12.210831468848335"><ele>-1.8333333333333333</ele><time>2026-04-25T14:01:54Z</time></trkpt><trkpt lat="44.81511051021056" lon="12.210824176142927"><ele>-2.0</ele><time>2026-04-25T14:01:56Z</time></trkpt><trkpt lat="44.815188993060815" lon="12.210824622290673"><ele>-2.333333333333333</ele><time>2026-04-25T14:01:58Z</time></trkpt><trkpt lat="44.815265426568295" lon="12.210820725154873"><ele>-2.6666666666666665</ele><time>2026-04-25T14:02:00Z</time></trkpt><trkpt lat="44.815340760386505" lon="12.210824506197161"><ele>-3.0</ele><time>2026-04-25T14:02:02Z</time></trkpt><trkpt lat="44.815424059329544" lon="12.21083003167581"><ele>-3.333333333333333</ele><time>2026-04-25T14:02:04Z</time></trkpt><trkpt lat="44.81551493991821" lon="12.210826922498411"><ele>-3.6666666666666665</ele><time>2026-04-25T14:02:06Z</time></trkpt><trkpt lat="44.815598353928294" lon="12.210828084323582"><ele>-4.0</ele><time>2026-04-25T14:02:08Z</time></trkpt><trkpt lat="44.81567955904774" lon="12.210828600143653"><ele>-3.9999999999999996</ele><time>2026-04-25T14:02:10Z</time></trkpt><trkpt lat="44.81576181013666" lon="12.210823807081065"><ele>-4.0</ele><time>2026-04-25T14:02:12Z</time></trkpt><trkpt lat="44.815836871823535" lon="12.210823553717345"><ele>-4.0</ele><time>2026-04-25T14:02:14Z</time></trkpt><trkpt lat="44.81591094196454" lon="12.21083217455747"><ele>-4.0</ele><time>2026-04-25T14:02:16Z</time></trkpt><trkpt lat="44.81598886030503" lon="12.21083786867775"><ele>-3.9999999999999996</ele><time>2026-04-25T14:02:18Z</time></trkpt><trkpt lat="44.81607873957914" lon="12.21083347028606"><ele>-4.0</ele><time>2026-04-25T14:02:20Z</time></trkpt><trkpt lat="44.81616077747905" lon="12.21083937022065"><ele>-3.9999999999999996</ele><time>2026-04-25T14:02:22Z</time></trkpt><trkpt lat="44.81624626281841" lon="12.210833149061118"><ele>-4.0</ele><time>2026-04-25T14:02:24Z</time></trkpt><trkpt lat="44.8163369153885" lon="12.210836952175653"><ele>-4.0</ele><time>2026-04-25T14:02:26Z</time></trkpt><trkpt lat="44.81641721465546" lon="12.210818272551505"><ele>-4.0</ele><time>2026-04-25T14:02:28Z</time></trkpt><trkpt lat="44.81649875775415" lon="12.2108057910975"><ele>-3.9999999999999996</ele><time>2026-04-25T14:02:30Z</time></trkpt><trkpt lat="44.81658905664511" lon="12.210789830258339"><ele>-4.0</ele><time>2026-04-25T14:02:32Z</time></trkpt><trkpt lat="44.81667702284829" lon="12.210771709630796"><ele>-3.9999999999999996</ele><time>2026-04-25T14:02:34Z</time></trkpt><trkpt lat="44.81676870693083" lon="12.210765702684029"><ele>-4.0</ele><time>2026-04-25T14:02:36Z</time></trkpt><trkpt lat="44.81685860391827" lon="12.210747695531266"><ele>-4.0</ele><time>2026-04-25T14:02:38Z</time></trkpt><trkpt lat="44.8169443594657" lon="12.21072484185659"><ele>-4.0</ele><time>2026-04-25T14:02:40Z</time></trkpt><trkpt lat="44.81702689785637" lon="12.210708757111876"><ele>-3.9999999999999996</ele><time>2026-04-25T14:02:42Z</time></trkpt><trkpt lat="44.817105118096364" lon="12.210696209999202"><ele>-4.0</ele><time>2026-04-25T14:02:44Z</time></trkpt><trkpt lat="44.81719723872256" lon="12.210678904735481"><ele>-3.8000000000000003</ele><time>2026-04-25T14:02:46Z</time></trkpt><trkpt lat="44.81729752720565" lon="12.210650778044172"><ele>-3.6000000000000005</ele><time>2026-04-25T14:02:48Z</time></trkpt><trkpt lat="44.81740118553788" lon="12.210628667770168"><ele>-3.4</ele><time>2026-04-25T14:02:50Z</time></trkpt><trkpt lat="44.817498884934814" lon="12.210604713781361"><ele>-3.2</ele><time>2026-04-25T14:02:52Z</time></trkpt><trkpt lat="44.8175922033484" lon="12.210601700758488"><ele>-3.0</ele><time>2026-04-25T14:02:54Z</time></trkpt><trkpt lat="44.817683105744166" lon="12.210566414384335"><ele>-3.0</ele><time>2026-04-25T14:02:56Z</time></trkpt><trkpt lat="44.81777048927127" lon="12.210553683840809"><ele>-3.0</ele><time>2026-04-25T14:02:58Z</time></trkpt><trkpt lat="44.81785537729768" lon="12.21053310452009"><ele>-3.0</ele><time>2026-04-25T14:03:00Z</time></trkpt><trkpt lat="44.817935823276585" lon="12.210521525523346"><ele>-3.0</ele><time>2026-04-25T14:03:02Z</time></trkpt><trkpt lat="44.81801477910969" lon="12.210514562165905"><ele>-3.0</ele><time>2026-04-25T14:03:04Z</time></trkpt><trkpt lat="44.81808894877095" lon="12.210498596248176"><ele>-3.0</ele><time>2026-04-25T14:03:06Z</time></trkpt><trkpt lat="44.81817028973183" lon="12.2104888264982"><ele>-3.0</ele><time>2026-04-25T14:03:08Z</time></trkpt><trkpt lat="44.818259738104445" lon="12.21047064898511"><ele>-3.0</ele><time>2026-04-25T14:03:10Z</time></trkpt><trkpt lat="44.818350028821065" lon="12.210456801294875"><ele>-3.0</ele><time>2026-04-25T14:03:12Z</time></trkpt><trkpt lat="44.818429807006495" lon="12.210441550281569"><ele>-3.0</ele><time>2026-04-25T14:03:14Z</time></trkpt><trkpt lat="44.81851091319744" lon="12.210429862615504"><ele>-3.0</ele><time>2026-04-25T14:03:16Z</time></trkpt><trkpt lat="44.81858768590755" lon="12.210404334689178"><ele>-3.0</ele><time>2026-04-25T14:03:18Z</time></trkpt><trkpt lat="44.81866168452171" lon="12.21037334008809"><ele>-3.0</ele><time>2026-04-25T14:03:20Z</time></trkpt><trkpt lat="44.81872916004416" lon="12.2103455854384"><ele>-3.0</ele><time>2026-04-25T14:03:22Z</time></trkpt><trkpt lat="44.81876727183833" lon="12.210243545386577"><ele>-3.0</ele><time>2026-04-25T14:03:26Z</time></trkpt><trkpt lat="44.818785998615255" lon="12.210132906663677"><ele>-3.0</ele><time>2026-04-25T14:03:28Z</time></trkpt><trkpt lat="44.81879976732974" lon="12.210017715679557"><ele>-3.0</ele><time>2026-04-25T14:03:30Z</time></trkpt><trkpt lat="44.81879142703333" lon="12.20991148565449"><ele>-3.0</ele><time>2026-04-25T14:03:32Z</time></trkpt><trkpt lat="44.818803483951264" lon="12.209810742312024"><ele>-3.0</ele><time>2026-04-25T14:03:34Z</time></trkpt><trkpt lat="44.818876202638585" lon="12.209739648001829"><ele>-3.0</ele><time>2026-04-25T14:03:36Z</time></trkpt><trkpt lat="44.81894542669467" lon="12.20969761186533"><ele>-3.0</ele><time>2026-04-25T14:03:38Z</time></trkpt><trkpt lat="44.81901288847612" lon="12.209641277334942"><ele>-3.0</ele><time>2026-04-25T14:03:40Z</time></trkpt><trkpt lat="44.81907497522742" lon="12.209590706236433"><ele>-3.0</ele><time>2026-04-25T14:03:42Z</time></trkpt><trkpt lat="44.819153092750554" lon="12.209526081039423"><ele>-3.0</ele><time>2026-04-25T14:03:45Z</time></trkpt><trkpt lat="44.81921764170692" lon="12.2094556743474"><ele>-2.9999999999999996</ele><time>2026-04-25T14:03:47Z</time></trkpt><trkpt lat="44.819283936979936" lon="12.209378150315496"><ele>-3.0</ele><time>2026-04-25T14:03:49Z</time></trkpt><trkpt lat="44.81934498761807" lon="12.209300049455335"><ele>-3.0</ele><time>2026-04-25T14:03:51Z</time></trkpt><trkpt lat="44.8193976747167" lon="12.209225915304645"><ele>-3.0</ele><time>2026-04-25T14:03:53Z</time></trkpt><trkpt lat="44.819449447478924" lon="12.209156881911468"><ele>-3.0</ele><time>2026-04-25T14:03:55Z</time></trkpt><trkpt lat="44.81949379307861" lon="12.209089167119824"><ele>-2.9999999999999996</ele><time>2026-04-25T14:03:57Z</time></trkpt><trkpt lat="44.81953917334316" lon="12.209025362627587"><ele>-3.0</ele><time>2026-04-25T14:03:59Z</time></trkpt><trkpt lat="44.819584137539636" lon="12.208956420092461"><ele>-2.8333333333333335</ele><time>2026-04-25T14:04:01Z</time></trkpt><trkpt lat="44.81964379712372" lon="12.208864274857806"><ele>-2.6666666666666665</ele><time>2026-04-25T14:04:04Z</time></trkpt><trkpt lat="44.81969787238908" lon="12.208767680025188"><ele>-2.5</ele><time>2026-04-25T14:04:07Z</time></trkpt><trkpt lat="44.81974308089181" lon="12.208700123757039"><ele>-2.333333333333333</ele><time>2026-04-25T14:04:09Z</time></trkpt><trkpt lat="44.81979902080004" lon="12.208609083639164"><ele>-2.1666666666666665</ele><time>2026-04-25T14:04:12Z</time></trkpt><trkpt lat="44.81985454270504" lon="12.208510879648687"><ele>-2.0</ele><time>2026-04-25T14:04:14Z</time></trkpt><trkpt lat="44.81990601748543" lon="12.208423908226587"><ele>-2.0</ele><time>2026-04-25T14:04:16Z</time></trkpt><trkpt lat="44.81994718456182" lon="12.208338456158623"><ele>-1.9999999999999998</ele><time>2026-04-25T14:04:18Z</time></trkpt><trkpt lat="44.819987155482714" lon="12.208262893655823"><ele>-2.0</ele><time>2026-04-25T14:04:20Z</time></trkpt><trkpt lat="44.820032158140016" lon="12.208178514186423"><ele>-2.0</ele><time>2026-04-25T14:04:22Z</time></trkpt><trkpt lat="44.820071015142496" lon="12.208103094081569"><ele>-1.9999999999999998</ele><time>2026-04-25T14:04:24Z</time></trkpt><trkpt lat="44.82011376916392" lon="12.208036347942405"><ele>-2.0</ele><time>2026-04-25T14:04:26Z</time></trkpt><trkpt lat="44.820180088345495" lon="12.20797588714992"><ele>-2.0</ele><time>2026-04-25T14:04:28Z</time></trkpt><trkpt lat="44.82025742753995" lon="12.207960396154117"><ele>-1.9999999999999998</ele><time>2026-04-25T14:04:30Z</time></trkpt><trkpt lat="44.820329114380385" lon="12.20795937640603"><ele>-2.0</ele><time>2026-04-25T14:04:32Z</time></trkpt><trkpt lat="44.82041243237613" lon="12.207976312792768"><ele>-2.0</ele><time>2026-04-25T14:04:34Z</time></trkpt><trkpt lat="44.820494553098214" lon="12.207967665562748"><ele>-2.0</ele><time>2026-04-25T14:04:36Z</time></trkpt><trkpt lat="44.82056675696989" lon="12.20797147061479"><ele>-1.9999999999999998</ele><time>2026-04-25T14:04:38Z</time></trkpt><trkpt lat="44.82063785996349" lon="12.20797621982679"><ele>-2.0</ele><time>2026-04-25T14:04:40Z</time></trkpt><trkpt lat="44.82070966055545" lon="12.207969190944967"><ele>-2.0</ele><time>2026-04-25T14:04:42Z</time></trkpt><trkpt lat="44.82076133724843" lon="12.207901824829367"><ele>-1.9999999999999998</ele><time>2026-04-25T14:04:46Z</time></trkpt><trkpt lat="44.820799393587755" lon="12.207821117821034"><ele>-2.0</ele><time>2026-04-25T14:07:26Z</time></trkpt><trkpt lat="44.82081060649614" lon="12.207731827318314"><ele>-2.0</ele><time>2026-04-25T14:07:29Z</time></trkpt><trkpt lat="44.820817981858916" lon="12.20760489526575"><ele>-1.9999999999999998</ele><time>2026-04-25T14:07:32Z</time></trkpt><trkpt lat="44.8208304480311" lon="12.207501380563075"><ele>-2.0</ele><time>2026-04-25T14:07:34Z</time></trkpt><trkpt lat="44.82083667019406" lon="12.207398687256589"><ele>-2.0</ele><time>2026-04-25T14:07:36Z</time></trkpt><trkpt lat="44.82084327538743" lon="12.207295506436692"><ele>-2.2857142857142856</ele><time>2026-04-25T14:07:38Z</time></trkpt><trkpt lat="44.82085105569899" lon="12.207194125119393"><ele>-2.571428571428571</ele><time>2026-04-25T14:07:40Z</time></trkpt><trkpt lat="44.82086125381738" lon="12.207091379223737"><ele>-2.8571428571428568</ele><time>2026-04-25T14:07:42Z</time></trkpt><trkpt lat="44.820874647125194" lon="12.20698890693944"><ele>-3.142857142857143</ele><time>2026-04-25T14:07:44Z</time></trkpt><trkpt lat="44.82088811704" lon="12.206885716625589"><ele>-3.428571428571428</ele><time>2026-04-25T14:07:46Z</time></trkpt><trkpt lat="44.82091737576494" lon="12.206790503551861"><ele>-3.714285714285714</ele><time>2026-04-25T14:07:48Z</time></trkpt><trkpt lat="44.820972073901736" lon="12.20671117985784"><ele>-4.0</ele><time>2026-04-25T14:07:50Z</time></trkpt><trkpt lat="44.82105826081159" lon="12.206686543742274"><ele>-3.9999999999999996</ele><time>2026-04-25T14:07:52Z</time></trkpt><trkpt lat="44.82114429054544" lon="12.206645353545127"><ele>-4.0</ele><time>2026-04-25T14:07:54Z</time></trkpt><trkpt lat="44.82122525153035" lon="12.206602129045386"><ele>-4.0</ele><time>2026-04-25T14:07:56Z</time></trkpt><trkpt lat="44.82130629463067" lon="12.20655313656396"><ele>-4.0</ele><time>2026-04-25T14:07:58Z</time></trkpt><trkpt lat="44.82136728122845" lon="12.206466133192585"><ele>-3.9999999999999996</ele><time>2026-04-25T14:08:00Z</time></trkpt><trkpt lat="44.82140372486419" lon="12.20636572226895"><ele>-4.0</ele><time>2026-04-25T14:08:02Z</time></trkpt><trkpt lat="44.82142927545594" lon="12.206254443585305"><ele>-3.9999999999999996</ele><time>2026-04-25T14:08:04Z</time></trkpt><trkpt lat="44.82145735040028" lon="12.20614833124317"><ele>-4.0</ele><time>2026-04-25T14:08:06Z</time></trkpt><trkpt lat="44.821486069180835" lon="12.206039588572347"><ele>-4.0</ele><time>2026-04-25T14:08:08Z</time></trkpt><trkpt lat="44.82151410602284" lon="12.205928684236937"><ele>-4.0</ele><time>2026-04-25T14:08:10Z</time></trkpt><trkpt lat="44.82154671955162" lon="12.205830179001097"><ele>-3.9999999999999996</ele><time>2026-04-25T14:08:12Z</time></trkpt><trkpt lat="44.821571870522725" lon="12.205729048021427"><ele>-4.0</ele><time>2026-04-25T14:08:14Z</time></trkpt><trkpt lat="44.82160811308742" lon="12.205606945886633"><ele>-3.6666666666666665</ele><time>2026-04-25T14:08:16Z</time></trkpt><trkpt lat="44.82164594682512" lon="12.205486070015821"><ele>-3.333333333333333</ele><time>2026-04-25T14:08:18Z</time></trkpt><trkpt lat="44.82167688392938" lon="12.205373210109935"><ele>-3.0</ele><time>2026-04-25T14:08:20Z</time></trkpt><trkpt lat="44.821709241510625" lon="12.205264225553625"><ele>-2.6666666666666665</ele><time>2026-04-25T14:08:22Z</time></trkpt><trkpt lat="44.82173786428587" lon="12.205161834322963"><ele>-2.333333333333333</ele><time>2026-04-25T14:08:24Z</time></trkpt><trkpt lat="44.82176447550733" lon="12.20505613955588"><ele>-2.0</ele><time>2026-04-25T14:08:26Z</time></trkpt><trkpt lat="44.82180239171016" lon="12.204939597195702"><ele>-2.1666666666666665</ele><time>2026-04-25T14:08:28Z</time></trkpt><trkpt lat="44.82183612487821" lon="12.204821954151646"><ele>-2.333333333333333</ele><time>2026-04-25T14:08:30Z</time></trkpt><trkpt lat="44.82186611929672" lon="12.204713375010048"><ele>-2.5</ele><time>2026-04-25T14:08:32Z</time></trkpt><trkpt lat="44.82189952062171" lon="12.204603912754493"><ele>-2.6666666666666665</ele><time>2026-04-25T14:08:34Z</time></trkpt><trkpt lat="44.82193137292309" lon="12.204478138982621"><ele>-2.8333333333333335</ele><time>2026-04-25T14:08:36Z</time></trkpt><trkpt lat="44.82196384628895" lon="12.204361284863666"><ele>-3.0</ele><time>2026-04-25T14:08:38Z</time></trkpt><trkpt lat="44.8219964385022" lon="12.204247844865018"><ele>-3.0</ele><time>2026-04-25T14:08:40Z</time></trkpt><trkpt lat="44.822029275099624" lon="12.20414135760241"><ele>-3.0</ele><time>2026-04-25T14:08:42Z</time></trkpt><trkpt lat="44.82206364979052" lon="12.204021781266917"><ele>-3.0</ele><time>2026-04-25T14:08:44Z</time></trkpt><trkpt lat="44.822102903515024" lon="12.203892326274381"><ele>-3.0</ele><time>2026-04-25T14:08:46Z</time></trkpt><trkpt lat="44.82213819900279" lon="12.203768177249964"><ele>-3.0</ele><time>2026-04-25T14:08:48Z</time></trkpt><trkpt lat="44.82217135088522" lon="12.203652643569088"><ele>-3.1666666666666665</ele><time>2026-04-25T14:08:50Z</time></trkpt><trkpt lat="44.82220275339453" lon="12.203541499226352"><ele>-3.333333333333333</ele><time>2026-04-25T14:08:52Z</time></trkpt><trkpt lat="44.822230711051105" lon="12.203431332577015"><ele>-3.5</ele><time>2026-04-25T14:08:54Z</time></trkpt><trkpt lat="44.82225888499666" lon="12.203320929338766"><ele>-3.6666666666666665</ele><time>2026-04-25T14:08:56Z</time></trkpt><trkpt lat="44.822288988057196" lon="12.203221386839491"><ele>-3.833333333333333</ele><time>2026-04-25T14:08:58Z</time></trkpt><trkpt lat="44.82231858778243" lon="12.203124045258555"><ele>-4.0</ele><time>2026-04-25T14:09:00Z</time></trkpt><trkpt lat="44.82234355537679" lon="12.203031430105048"><ele>-3.9999999999999996</ele><time>2026-04-25T14:09:02Z</time></trkpt><trkpt lat="44.822381199305866" lon="12.202926992637085"><ele>-4.0</ele><time>2026-04-25T14:09:04Z</time></trkpt><trkpt lat="44.82241426301212" lon="12.202815629761377"><ele>-4.0</ele><time>2026-04-25T14:09:06Z</time></trkpt><trkpt lat="44.82244787021673" lon="12.20271504732824"><ele>-4.0</ele><time>2026-04-25T14:09:08Z</time></trkpt><trkpt lat="44.82247448486953" lon="12.202614123573952"><ele>-3.9999999999999996</ele><time>2026-04-25T14:09:10Z</time></trkpt><trkpt lat="44.82251628387426" lon="12.202494656936272"><ele>-4.0</ele><time>2026-04-25T14:09:12Z</time></trkpt><trkpt lat="44.82255154839685" lon="12.20236574952214"><ele>-3.9999999999999996</ele><time>2026-04-25T14:09:14Z</time></trkpt><trkpt lat="44.82258581465823" lon="12.202243946490594"><ele>-4.0</ele><time>2026-04-25T14:09:16Z</time></trkpt><trkpt lat="44.82261621730953" lon="12.202131926286153"><ele>-4.0</ele><time>2026-04-25T14:09:18Z</time></trkpt><trkpt lat="44.82264754613561" lon="12.202025738714365"><ele>-4.0</ele><time>2026-04-25T14:09:20Z</time></trkpt><trkpt lat="44.822676529461404" lon="12.201923468885655"><ele>-3.9999999999999996</ele><time>2026-04-25T14:09:22Z</time></trkpt><trkpt lat="44.82270842440033" lon="12.201821095734006"><ele>-4.0</ele><time>2026-04-25T14:09:24Z</time></trkpt><trkpt lat="44.82274082912433" lon="12.201710524242335"><ele>-3.833333333333333</ele><time>2026-04-25T14:09:26Z</time></trkpt><trkpt lat="44.82276960812122" lon="12.201614520997836"><ele>-3.6666666666666665</ele><time>2026-04-25T14:09:28Z</time></trkpt><trkpt lat="44.82279493651043" lon="12.201522810648608"><ele>-3.5</ele><time>2026-04-25T14:09:30Z</time></trkpt><trkpt lat="44.822829136180836" lon="12.20140862227165"><ele>-3.333333333333333</ele><time>2026-04-25T14:09:32Z</time></trkpt><trkpt lat="44.82286056696761" lon="12.20127684223932"><ele>-3.1666666666666665</ele><time>2026-04-25T14:09:34Z</time></trkpt><trkpt lat="44.82290246747887" lon="12.201152613646475"><ele>-3.0</ele><time>2026-04-25T14:09:36Z</time></trkpt><trkpt lat="44.822938826788786" lon="12.201028317471291"><ele>-2.8333333333333335</ele><time>2026-04-25T14:09:38Z</time></trkpt><trkpt lat="44.822970701664616" lon="12.200917069779155"><ele>-2.6666666666666665</ele><time>2026-04-25T14:09:40Z</time></trkpt><trkpt lat="44.82300203784237" lon="12.200812912860602"><ele>-2.5</ele><time>2026-04-25T14:09:42Z</time></trkpt><trkpt lat="44.82303116520552" lon="12.200723840285887"><ele>-2.333333333333333</ele><time>2026-04-25T14:09:44Z</time></trkpt><trkpt lat="44.82305609597681" lon="12.20061730725056"><ele>-2.1666666666666665</ele><time>2026-04-25T14:09:46Z</time></trkpt><trkpt lat="44.82308088164774" lon="12.20052029727942"><ele>-2.0</ele><time>2026-04-25T14:09:48Z</time></trkpt><trkpt lat="44.82310566466098" lon="12.20043615198668"><ele>-1.9999999999999998</ele><time>2026-04-25T14:09:50Z</time></trkpt><trkpt lat="44.82313397449733" lon="12.200336109116847"><ele>-2.0</ele><time>2026-04-25T14:09:52Z</time></trkpt><trkpt lat="44.82316745731815" lon="12.200231713150623"><ele>-2.0</ele><time>2026-04-25T14:09:54Z</time></trkpt><trkpt lat="44.82319904749511" lon="12.200112100519625"><ele>-2.0</ele><time>2026-04-25T14:09:56Z</time></trkpt><trkpt lat="44.823230918313556" lon="12.200013782349368"><ele>-1.9999999999999998</ele><time>2026-04-25T14:09:58Z</time></trkpt><trkpt lat="44.82325718733168" lon="12.199917573863491"><ele>-2.0</ele><time>2026-04-25T14:10:00Z</time></trkpt><trkpt lat="44.823286813534956" lon="12.199826634106419"><ele>-1.9999999999999998</ele><time>2026-04-25T14:10:02Z</time></trkpt><trkpt lat="44.82331688009548" lon="12.19972214058204"><ele>-2.0</ele><time>2026-04-25T14:10:04Z</time></trkpt><trkpt lat="44.82335468664972" lon="12.199597844444408"><ele>-2.0</ele><time>2026-04-25T14:10:06Z</time></trkpt><trkpt lat="44.823387167327915" lon="12.19948009492267"><ele>-2.0</ele><time>2026-04-25T14:10:08Z</time></trkpt><trkpt lat="44.82342248076993" lon="12.19937461116531"><ele>-1.9999999999999998</ele><time>2026-04-25T14:10:10Z</time></trkpt><trkpt lat="44.82345034916742" lon="12.199273026045075"><ele>-2.0</ele><time>2026-04-25T14:10:12Z</time></trkpt><trkpt lat="44.823485227765126" lon="12.199178013545845"><ele>-1.9999999999999998</ele><time>2026-04-25T14:10:14Z</time></trkpt><trkpt lat="44.82351532779805" lon="12.199062799903324"><ele>-2.0</ele><time>2026-04-25T14:10:16Z</time></trkpt><trkpt lat="44.823547798047315" lon="12.198946472751839"><ele>-2.0</ele><time>2026-04-25T14:10:18Z</time></trkpt><trkpt lat="44.823577981262545" lon="12.198840436307558"><ele>-2.0</ele><time>2026-04-25T14:10:20Z</time></trkpt><trkpt lat="44.82360673930933" lon="12.198736136941589"><ele>-1.9999999999999998</ele><time>2026-04-25T14:10:22Z</time></trkpt><trkpt lat="44.823633104462104" lon="12.198646192751857"><ele>-2.0</ele><time>2026-04-25T14:10:24Z</time></trkpt><trkpt lat="44.82366249787886" lon="12.198549950948776"><ele>-1.9999999999999998</ele><time>2026-04-25T14:10:26Z</time></trkpt><trkpt lat="44.82370007864099" lon="12.198428336457944"><ele>-2.0</ele><time>2026-04-25T14:10:28Z</time></trkpt><trkpt lat="44.82372945698812" lon="12.19831899577593"><ele>-2.0</ele><time>2026-04-25T14:10:30Z</time></trkpt><trkpt lat="44.82375357960012" lon="12.198218205157813"><ele>-2.0</ele><time>2026-04-25T14:10:32Z</time></trkpt><trkpt lat="44.82378175927054" lon="12.198134383304913"><ele>-1.9999999999999998</ele><time>2026-04-25T14:10:34Z</time></trkpt><trkpt lat="44.823809980458115" lon="12.19805180218587"><ele>-2.0</ele><time>2026-04-25T14:10:36Z</time></trkpt><trkpt lat="44.8238343674036" lon="12.197963643794534"><ele>-1.9999999999999998</ele><time>2026-04-25T14:10:38Z</time></trkpt><trkpt lat="44.82386741226479" lon="12.197859491390334"><ele>-2.0</ele><time>2026-04-25T14:10:40Z</time></trkpt><trkpt lat="44.82389153908017" lon="12.197769702928335"><ele>-2.0</ele><time>2026-04-25T14:10:42Z</time></trkpt><trkpt lat="44.82391836621354" lon="12.19765315668743"><ele>-2.0</ele><time>2026-04-25T14:10:44Z</time></trkpt><trkpt lat="44.82394779987103" lon="12.197547854283462"><ele>-1.9999999999999998</ele><time>2026-04-25T14:10:46Z</time></trkpt><trkpt lat="44.82398367947035" lon="12.197452715893503"><ele>-2.0</ele><time>2026-04-25T14:10:48Z</time></trkpt><trkpt lat="44.82404271925366" lon="12.197399929400865"><ele>-1.9999999999999998</ele><time>2026-04-25T14:10:50Z</time></trkpt><trkpt lat="44.82410074019085" lon="12.197453388867022"><ele>-2.0</ele><time>2026-04-25T14:10:52Z</time></trkpt><trkpt lat="44.82418371309328" lon="12.197498052051383"><ele>-2.0</ele><time>2026-04-25T14:10:55Z</time></trkpt><trkpt lat="44.824259806095284" lon="12.197539760808958"><ele>-2.0</ele><time>2026-04-25T14:10:57Z</time></trkpt><trkpt lat="44.82434288983883" lon="12.19759193103659"><ele>-1.9999999999999998</ele><time>2026-04-25T14:10:59Z</time></trkpt><trkpt lat="44.824427931699546" lon="12.197638098456704"><ele>-2.0</ele><time>2026-04-25T14:11:01Z</time></trkpt><trkpt lat="44.82450302291204" lon="12.197681074150687"><ele>-2.333333333333333</ele><time>2026-04-25T14:11:03Z</time></trkpt><trkpt lat="44.82457482400217" lon="12.197734304003477"><ele>-2.6666666666666665</ele><time>2026-04-25T14:11:05Z</time></trkpt><trkpt lat="44.82465062168187" lon="12.197767641647372"><ele>-3.0</ele><time>2026-04-25T14:11:07Z</time></trkpt><trkpt lat="44.82471661357692" lon="12.197814488074624"><ele>-3.333333333333333</ele><time>2026-04-25T14:11:09Z</time></trkpt><trkpt lat="44.82478751397749" lon="12.197842476300687"><ele>-3.6666666666666665</ele><time>2026-04-25T14:11:11Z</time></trkpt><trkpt lat="44.82484861462629" lon="12.197893822265984"><ele>-4.0</ele><time>2026-04-25T14:11:13Z</time></trkpt><trkpt lat="44.824928256771216" lon="12.197940071695271"><ele>-3.9999999999999996</ele><time>2026-04-25T14:11:15Z</time></trkpt><trkpt lat="44.82500900970024" lon="12.197985594138752"><ele>-4.0</ele><time>2026-04-25T14:11:17Z</time></trkpt><trkpt lat="44.825088572781766" lon="12.198033614317026"><ele>-4.0</ele><time>2026-04-25T14:11:19Z</time></trkpt><trkpt lat="44.82516489759869" lon="12.198076034462868"><ele>-4.0</ele><time>2026-04-25T14:11:21Z</time></trkpt><trkpt lat="44.825250651180035" lon="12.198122644518618"><ele>-3.9999999999999996</ele><time>2026-04-25T14:11:23Z</time></trkpt><trkpt lat="44.82533842849373" lon="12.198182813170785"><ele>-4.0</ele><time>2026-04-25T14:11:25Z</time></trkpt><trkpt lat="44.82542638118902" lon="12.198230504385787"><ele>-3.8000000000000003</ele><time>2026-04-25T14:11:27Z</time></trkpt><trkpt lat="44.825508429055894" lon="12.198276108231388"><ele>-3.6000000000000005</ele><time>2026-04-25T14:11:29Z</time></trkpt><trkpt lat="44.82559038607286" lon="12.198322807543025"><ele>-3.4</ele><time>2026-04-25T14:11:31Z</time></trkpt><trkpt lat="44.82566908438518" lon="12.198364973947777"><ele>-3.2</ele><time>2026-04-25T14:11:33Z</time></trkpt><trkpt lat="44.82575048848238" lon="12.198419744871615"><ele>-3.0</ele><time>2026-04-25T14:11:35Z</time></trkpt><trkpt lat="44.82584477863825" lon="12.198474752450524"><ele>-3.0</ele><time>2026-04-25T14:11:37Z</time></trkpt><trkpt lat="44.82593767314672" lon="12.198518396652053"><ele>-3.0</ele><time>2026-04-25T14:11:39Z</time></trkpt><trkpt lat="44.82602645387045" lon="12.19858240766537"><ele>-3.0</ele><time>2026-04-25T14:11:41Z</time></trkpt><trkpt lat="44.826116182350525" lon="12.19862979098973"><ele>-3.0</ele><time>2026-04-25T14:11:43Z</time></trkpt><trkpt lat="44.82619726688651" lon="12.198678795293299"><ele>-3.0</ele><time>2026-04-25T14:11:45Z</time></trkpt><trkpt lat="44.826279188971306" lon="12.198724379595616"><ele>-3.0</ele><time>2026-04-25T14:11:47Z</time></trkpt><trkpt lat="44.82635469067138" lon="12.198761624843323"><ele>-3.0</ele><time>2026-04-25T14:11:49Z</time></trkpt><trkpt lat="44.82642926868119" lon="12.198804165177062"><ele>-3.0</ele><time>2026-04-25T14:11:51Z</time></trkpt><trkpt lat="44.82650384206812" lon="12.198838107450623"><ele>-3.0</ele><time>2026-04-25T14:11:53Z</time></trkpt><trkpt lat="44.82658845815775" lon="12.198889674646502"><ele>-3.0</ele><time>2026-04-25T14:11:55Z</time></trkpt><trkpt lat="44.82666996451932" lon="12.198940629727712"><ele>-3.0</ele><time>2026-04-25T14:11:57Z</time></trkpt><trkpt lat="44.82675005939149" lon="12.198988556813562"><ele>-3.2857142857142856</ele><time>2026-04-25T14:11:59Z</time></trkpt><trkpt lat="44.82682710708247" lon="12.19903313212274"><ele>-3.571428571428571</ele><time>2026-04-25T14:12:01Z</time></trkpt><trkpt lat="44.826901944206455" lon="12.19907589620669"><ele>-3.8571428571428568</ele><time>2026-04-25T14:12:03Z</time></trkpt><trkpt lat="44.826967532358275" lon="12.199126412268729"><ele>-4.142857142857142</ele><time>2026-04-25T14:12:05Z</time></trkpt><trkpt lat="44.82703450651434" lon="12.19915312180929"><ele>-4.428571428571429</ele><time>2026-04-25T14:12:07Z</time></trkpt><trkpt lat="44.82709581284249" lon="12.19919222358589"><ele>-4.714285714285714</ele><time>2026-04-25T14:12:09Z</time></trkpt><trkpt lat="44.82715808742049" lon="12.19923625189924"><ele>-5.0</ele><time>2026-04-25T14:12:11Z</time></trkpt><trkpt lat="44.82722590535807" lon="12.199275364819604"><ele>-5.0</ele><time>2026-04-25T14:12:13Z</time></trkpt><trkpt lat="44.827292901594966" lon="12.199304491975106"><ele>-5.0</ele><time>2026-04-25T14:12:15Z</time></trkpt><trkpt lat="44.82738476414339" lon="12.199302732939582"><ele>-5.0</ele><time>2026-04-25T14:12:18Z</time></trkpt><trkpt lat="44.827419774169606" lon="12.199228003115172"><ele>-5.0</ele><time>2026-04-25T14:12:20Z</time></trkpt><trkpt lat="44.827446998137496" lon="12.199112029424315"><ele>-5.0</ele><time>2026-04-25T14:12:23Z</time></trkpt><trkpt lat="44.82747076876841" lon="12.1990229561165"><ele>-5.0</ele><time>2026-04-25T14:12:25Z</time></trkpt><trkpt lat="44.82749996725236" lon="12.198912935767437"><ele>-4.833333333333334</ele><time>2026-04-25T14:12:27Z</time></trkpt><trkpt lat="44.82752614240501" lon="12.198822774527281"><ele>-4.666666666666667</ele><time>2026-04-25T14:12:29Z</time></trkpt><trkpt lat="44.827544613739455" lon="12.198724673399868"><ele>-4.5</ele><time>2026-04-25T14:12:31Z</time></trkpt><trkpt lat="44.827579532089565" lon="12.198612452286602"><ele>-4.333333333333333</ele><time>2026-04-25T14:12:33Z</time></trkpt><trkpt lat="44.82761414910463" lon="12.198496613778659"><ele>-4.166666666666666</ele><time>2026-04-25T14:12:35Z</time></trkpt><trkpt lat="44.827652379208146" lon="12.198376958998361"><ele>-4.0</ele><time>2026-04-25T14:12:37Z</time></trkpt><trkpt lat="44.82767731482913" lon="12.198259793319359"><ele>-3.9999999999999996</ele><time>2026-04-25T14:12:39Z</time></trkpt><trkpt lat="44.82770713925752" lon="12.198150650552734"><ele>-4.0</ele><time>2026-04-25T14:12:41Z</time></trkpt><trkpt lat="44.827741904793236" lon="12.19805014308104"><ele>-4.0</ele><time>2026-04-25T14:12:43Z</time></trkpt><trkpt lat="44.82776799244172" lon="12.19794468959361"><ele>-4.0</ele><time>2026-04-25T14:12:45Z</time></trkpt><trkpt lat="44.827792575100176" lon="12.197843192605635"><ele>-3.9999999999999996</ele><time>2026-04-25T14:12:47Z</time></trkpt><trkpt lat="44.82781952333679" lon="12.197749209258868"><ele>-4.0</ele><time>2026-04-25T14:12:49Z</time></trkpt><trkpt lat="44.827854120794555" lon="12.197633084580854"><ele>-3.9999999999999996</ele><time>2026-04-25T14:12:51Z</time></trkpt><trkpt lat="44.827884861736855" lon="12.197522595605438"><ele>-4.0</ele><time>2026-04-25T14:12:53Z</time></trkpt><trkpt lat="44.827913317457735" lon="12.197412973631018"><ele>-4.0</ele><time>2026-04-25T14:12:55Z</time></trkpt><trkpt lat="44.827943832464165" lon="12.197308367500893"><ele>-4.0</ele><time>2026-04-25T14:12:57Z</time></trkpt><trkpt lat="44.82797404676097" lon="12.19718532693094"><ele>-3.9999999999999996</ele><time>2026-04-25T14:12:59Z</time></trkpt><trkpt lat="44.82800677877726" lon="12.197073069524645"><ele>-4.0</ele><time>2026-04-25T14:13:01Z</time></trkpt><trkpt lat="44.82803357461014" lon="12.196962124699809"><ele>-3.9999999999999996</ele><time>2026-04-25T14:13:03Z</time></trkpt><trkpt lat="44.82806205007767" lon="12.196857900013855"><ele>-4.0</ele><time>2026-04-25T14:13:05Z</time></trkpt><trkpt lat="44.82809123569348" lon="12.196756329796584"><ele>-4.0</ele><time>2026-04-25T14:13:07Z</time></trkpt><trkpt lat="44.828118954613" lon="12.196655962750949"><ele>-4.0</ele><time>2026-04-25T14:13:09Z</time></trkpt><trkpt lat="44.82814424560701" lon="12.196534914717745"><ele>-3.9999999999999996</ele><time>2026-04-25T14:13:11Z</time></trkpt><trkpt lat="44.828184285213815" lon="12.1964069708424"><ele>-4.0</ele><time>2026-04-25T14:13:13Z</time></trkpt><trkpt lat="44.82822543343551" lon="12.19627461567503"><ele>-3.6</ele><time>2026-04-25T14:13:15Z</time></trkpt><trkpt lat="44.82826138549726" lon="12.196145379983541"><ele>-3.2</ele><time>2026-04-25T14:13:17Z</time></trkpt><trkpt lat="44.828291363296586" lon="12.19601287755632"><ele>-2.8000000000000003</ele><time>2026-04-25T14:13:19Z</time></trkpt><trkpt lat="44.82832703929935" lon="12.19588730315161"><ele>-2.4000000000000004</ele><time>2026-04-25T14:13:21Z</time></trkpt><trkpt lat="44.82835668076658" lon="12.195772670424608"><ele>-2.0</ele><time>2026-04-25T14:13:23Z</time></trkpt><trkpt lat="44.828388988987975" lon="12.195665545197432"><ele>-1.9999999999999998</ele><time>2026-04-25T14:13:25Z</time></trkpt><trkpt lat="44.82842026334259" lon="12.195551124658014"><ele>-2.0</ele><time>2026-04-25T14:13:27Z</time></trkpt><trkpt lat="44.828453577808446" lon="12.195423628844193"><ele>-2.0</ele><time>2026-04-25T14:13:29Z</time></trkpt><trkpt lat="44.82848831947274" lon="12.19530868985111"><ele>-2.0</ele><time>2026-04-25T14:13:31Z</time></trkpt><trkpt lat="44.82851840975172" lon="12.195195017765704"><ele>-1.9999999999999998</ele><time>2026-04-25T14:13:33Z</time></trkpt><trkpt lat="44.82855122963298" lon="12.195089053635275"><ele>-2.0</ele><time>2026-04-25T14:13:35Z</time></trkpt><trkpt lat="44.82857249142819" lon="12.194980411189666"><ele>-1.9999999999999998</ele><time>2026-04-25T14:13:37Z</time></trkpt><trkpt lat="44.82860756821925" lon="12.19488539390461"><ele>-2.0</ele><time>2026-04-25T14:13:39Z</time></trkpt><trkpt lat="44.8286395705258" lon="12.194768114134519"><ele>-2.0</ele><time>2026-04-25T14:13:41Z</time></trkpt><trkpt lat="44.82867378207451" lon="12.194640985512109"><ele>-2.0</ele><time>2026-04-25T14:13:43Z</time></trkpt><trkpt lat="44.828709802788374" lon="12.194519433299456"><ele>-1.9999999999999998</ele><time>2026-04-25T14:13:45Z</time></trkpt><trkpt lat="44.82874425025028" lon="12.194398205968078"><ele>-2.0</ele><time>2026-04-25T14:13:47Z</time></trkpt><trkpt lat="44.828775911082154" lon="12.194280352739813"><ele>-1.9999999999999998</ele><time>2026-04-25T14:13:49Z</time></trkpt><trkpt lat="44.82881030295775" lon="12.19417042919623"><ele>-2.0</ele><time>2026-04-25T14:13:51Z</time></trkpt><trkpt lat="44.828841799801076" lon="12.194058708478838"><ele>-2.0</ele><time>2026-04-25T14:13:53Z</time></trkpt><trkpt lat="44.82887601636308" lon="12.19395587353588"><ele>-2.0</ele><time>2026-04-25T14:13:55Z</time></trkpt><trkpt lat="44.82890256215572" lon="12.193835492534113"><ele>-1.9999999999999998</ele><time>2026-04-25T14:13:57Z</time></trkpt><trkpt lat="44.82893996412719" lon="12.193709675543634"><ele>-2.0</ele><time>2026-04-25T14:13:59Z</time></trkpt><trkpt lat="44.82896116656948" lon="12.1935766771207"><ele>-1.8333333333333333</ele><time>2026-04-25T14:14:01Z</time></trkpt><trkpt lat="44.82899197374162" lon="12.193452044774316"><ele>-1.6666666666666665</ele><time>2026-04-25T14:14:03Z</time></trkpt><trkpt lat="44.82901913489437" lon="12.193343095310626"><ele>-1.5</ele><time>2026-04-25T14:14:05Z</time></trkpt><trkpt lat="44.82903751222158" lon="12.193244749488175"><ele>-1.3333333333333333</ele><time>2026-04-25T14:14:07Z</time></trkpt><trkpt lat="44.82904438723747" lon="12.193149516305345"><ele>-1.1666666666666665</ele><time>2026-04-25T14:14:09Z</time></trkpt><trkpt lat="44.82902337867628" lon="12.193049960392965"><ele>-1.0</ele><time>2026-04-25T14:14:59Z</time></trkpt><trkpt lat="44.82902394757782" lon="12.192957601812155"><ele>-0.9999999999999999</ele><time>2026-04-25T14:15:01Z</time></trkpt><trkpt lat="44.82902977547449" lon="12.192865634419443"><ele>-1.0</ele><time>2026-04-25T14:15:03Z</time></trkpt><trkpt lat="44.82902272429493" lon="12.192754399974753"><ele>-1.0</ele><time>2026-04-25T14:15:05Z</time></trkpt><trkpt lat="44.82902099883726" lon="12.192642915155382"><ele>-1.0</ele><time>2026-04-25T14:15:07Z</time></trkpt><trkpt lat="44.829020757335755" lon="12.192529824462975"><ele>-0.9999999999999999</ele><time>2026-04-25T14:15:09Z</time></trkpt><trkpt lat="44.82902774927145" lon="12.192397945687528"><ele>-1.0</ele><time>2026-04-25T14:15:11Z</time></trkpt><trkpt lat="44.82904795716177" lon="12.192268009811055"><ele>-1.4</ele><time>2026-04-25T14:15:13Z</time></trkpt><trkpt lat="44.82907448234627" lon="12.192143758088656"><ele>-1.8</ele><time>2026-04-25T14:15:15Z</time></trkpt><trkpt lat="44.82910261387263" lon="12.192027599928617"><ele>-2.1999999999999997</ele><time>2026-04-25T14:15:17Z</time></trkpt><trkpt lat="44.82913068356041" lon="12.191914239817972"><ele>-2.6</ele><time>2026-04-25T14:15:19Z</time></trkpt><trkpt lat="44.82916567072845" lon="12.19179884909741"><ele>-3.0</ele><time>2026-04-25T14:15:21Z</time></trkpt><trkpt lat="44.82920478463727" lon="12.191673542763585"><ele>-3.0</ele><time>2026-04-25T14:15:23Z</time></trkpt><trkpt lat="44.82923602106566" lon="12.191547949013271"><ele>-3.0</ele><time>2026-04-25T14:15:25Z</time></trkpt><trkpt lat="44.82926637265248" lon="12.191423258489502"><ele>-3.0</ele><time>2026-04-25T14:15:27Z</time></trkpt><trkpt lat="44.82929311521575" lon="12.191304301039063"><ele>-3.0</ele><time>2026-04-25T14:15:29Z</time></trkpt><trkpt lat="44.82933664848492" lon="12.191196209749936"><ele>-3.0</ele><time>2026-04-25T14:15:31Z</time></trkpt><trkpt lat="44.8293692427212" lon="12.191069564813851"><ele>-3.2</ele><time>2026-04-25T14:15:33Z</time></trkpt><trkpt lat="44.829408150846774" lon="12.19093997044884"><ele>-3.4</ele><time>2026-04-25T14:15:35Z</time></trkpt><trkpt lat="44.82944106729837" lon="12.190810366376764"><ele>-3.6000000000000005</ele><time>2026-04-25T14:15:37Z</time></trkpt><trkpt lat="44.829478984620415" lon="12.190692366405942"><ele>-3.8000000000000003</ele><time>2026-04-25T14:15:39Z</time></trkpt><trkpt lat="44.82950927365312" lon="12.19057291583448"><ele>-4.0</ele><time>2026-04-25T14:15:41Z</time></trkpt><trkpt lat="44.829545160922585" lon="12.190458715147308"><ele>-4.0</ele><time>2026-04-25T14:15:43Z</time></trkpt><trkpt lat="44.82957660898039" lon="12.190328934682071"><ele>-4.0</ele><time>2026-04-25T14:15:45Z</time></trkpt><trkpt lat="44.82961668801324" lon="12.190203300873035"><ele>-4.0</ele><time>2026-04-25T14:15:47Z</time></trkpt><trkpt lat="44.82964650199098" lon="12.190078082917882"><ele>-4.0</ele><time>2026-04-25T14:15:49Z</time></trkpt><trkpt lat="44.8296813864369" lon="12.189960085072617"><ele>-4.0</ele><time>2026-04-25T14:15:51Z</time></trkpt><trkpt lat="44.829712810536265" lon="12.189844876866129"><ele>-3.9999999999999996</ele><time>2026-04-25T14:15:53Z</time></trkpt><trkpt lat="44.829737642356676" lon="12.18972896024193"><ele>-4.0</ele><time>2026-04-25T14:15:55Z</time></trkpt><trkpt lat="44.829770139513926" lon="12.189620953876371"><ele>-4.0</ele><time>2026-04-25T14:15:57Z</time></trkpt><trkpt lat="44.82980249574754" lon="12.18949748810074"><ele>-4.0</ele><time>2026-04-25T14:15:59Z</time></trkpt><trkpt lat="44.8298360411694" lon="12.189378000287306"><ele>-3.9999999999999996</ele><time>2026-04-25T14:16:01Z</time></trkpt><trkpt lat="44.829873891619684" lon="12.189267799840193"><ele>-4.0</ele><time>2026-04-25T14:16:03Z</time></trkpt><trkpt lat="44.829901950165926" lon="12.189155707237678"><ele>-4.0</ele><time>2026-04-25T14:16:05Z</time></trkpt><trkpt lat="44.82993540548124" lon="12.189042526523671"><ele>-4.0</ele><time>2026-04-25T14:16:07Z</time></trkpt><trkpt lat="44.829972999045154" lon="12.188916215033252"><ele>-4.0</ele><time>2026-04-25T14:16:09Z</time></trkpt><trkpt lat="44.8300050477052" lon="12.188795633196145"><ele>-4.0</ele><time>2026-04-25T14:16:11Z</time></trkpt><trkpt lat="44.83003817512241" lon="12.188673030335922"><ele>-4.0</ele><time>2026-04-25T14:16:13Z</time></trkpt><trkpt lat="44.83007202509861" lon="12.188549010154832"><ele>-4.0</ele><time>2026-04-25T14:16:15Z</time></trkpt><trkpt lat="44.830105637783724" lon="12.188432959050239"><ele>-4.0</ele><time>2026-04-25T14:16:17Z</time></trkpt><trkpt lat="44.83013403537955" lon="12.188320214162887"><ele>-4.0</ele><time>2026-04-25T14:16:19Z</time></trkpt><trkpt lat="44.83016947231732" lon="12.188197860549753"><ele>-4.0</ele><time>2026-04-25T14:16:21Z</time></trkpt><trkpt lat="44.830206206663284" lon="12.188073081722582"><ele>-4.0</ele><time>2026-04-25T14:16:23Z</time></trkpt><trkpt lat="44.83023746341315" lon="12.187949645879325"><ele>-4.0</ele><time>2026-04-25T14:16:25Z</time></trkpt><trkpt lat="44.83026872823828" lon="12.187834950303975"><ele>-4.0</ele><time>2026-04-25T14:16:27Z</time></trkpt><trkpt lat="44.83030127843218" lon="12.187725122275387"><ele>-4.0</ele><time>2026-04-25T14:16:29Z</time></trkpt><trkpt lat="44.83031868633632" lon="12.187603938063706"><ele>-4.0</ele><time>2026-04-25T14:16:31Z</time></trkpt><trkpt lat="44.830353138948304" lon="12.187474913777944"><ele>-4.0</ele><time>2026-04-25T14:16:33Z</time></trkpt><trkpt lat="44.830391737165634" lon="12.187354138262789"><ele>-4.0</ele><time>2026-04-25T14:16:35Z</time></trkpt><trkpt lat="44.83043675011933" lon="12.187247401274728"><ele>-4.0</ele><time>2026-04-25T14:16:37Z</time></trkpt><trkpt lat="44.83046424520239" lon="12.187121958126948"><ele>-4.0</ele><time>2026-04-25T14:16:39Z</time></trkpt><trkpt lat="44.83050460785189" lon="12.186993477926853"><ele>-4.0</ele><time>2026-04-25T14:16:41Z</time></trkpt><trkpt lat="44.83053944407051" lon="12.186865396752415"><ele>-4.0</ele><time>2026-04-25T14:16:43Z</time></trkpt><trkpt lat="44.83057168120712" lon="12.186739121210234"><ele>-4.0</ele><time>2026-04-25T14:16:45Z</time></trkpt><trkpt lat="44.83060514700665" lon="12.186617966353218"><ele>-4.0</ele><time>2026-04-25T14:16:47Z</time></trkpt><trkpt lat="44.830641050129124" lon="12.186489843222573"><ele>-4.0</ele><time>2026-04-25T14:16:49Z</time></trkpt><trkpt lat="44.83067848455939" lon="12.18635645102567"><ele>-4.0</ele><time>2026-04-25T14:16:51Z</time></trkpt><trkpt lat="44.83071592601288" lon="12.186227117951251"><ele>-4.0</ele><time>2026-04-25T14:16:53Z</time></trkpt><trkpt lat="44.830752496435885" lon="12.186092538257494"><ele>-4.0</ele><time>2026-04-25T14:16:55Z</time></trkpt><trkpt lat="44.8307900480434" lon="12.185961938764446"><ele>-4.0</ele><time>2026-04-25T14:16:57Z</time></trkpt><trkpt lat="44.83082699866891" lon="12.185830941483651"><ele>-4.0</ele><time>2026-04-25T14:16:59Z</time></trkpt><trkpt lat="44.83086066061895" lon="12.185701591845408"><ele>-4.0</ele><time>2026-04-25T14:17:01Z</time></trkpt><trkpt lat="44.83089594698772" lon="12.18556880475198"><ele>-4.0</ele><time>2026-04-25T14:17:03Z</time></trkpt><trkpt lat="44.83093725732595" lon="12.185439879509637"><ele>-4.0</ele><time>2026-04-25T14:17:05Z</time></trkpt><trkpt lat="44.83097178214225" lon="12.185301981405647"><ele>-4.0</ele><time>2026-04-25T14:17:07Z</time></trkpt><trkpt lat="44.831008022716375" lon="12.185167314467211"><ele>-4.0</ele><time>2026-04-25T14:17:09Z</time></trkpt><trkpt lat="44.831046229063794" lon="12.185034773614495"><ele>-4.0</ele><time>2026-04-25T14:17:11Z</time></trkpt><trkpt lat="44.83108299538124" lon="12.184904775479673"><ele>-4.0</ele><time>2026-04-25T14:17:13Z</time></trkpt><trkpt lat="44.831120675647696" lon="12.184773617667295"><ele>-3.8000000000000003</ele><time>2026-04-25T14:17:15Z</time></trkpt><trkpt lat="44.831156330374746" lon="12.184639668090739"><ele>-3.6000000000000005</ele><time>2026-04-25T14:17:17Z</time></trkpt><trkpt lat="44.831191933458236" lon="12.184508233201713"><ele>-3.4</ele><time>2026-04-25T14:17:19Z</time></trkpt><trkpt lat="44.831231075300416" lon="12.184373125921542"><ele>-3.2</ele><time>2026-04-25T14:17:21Z</time></trkpt><trkpt lat="44.83126876270917" lon="12.184239961217102"><ele>-3.0</ele><time>2026-04-25T14:17:23Z</time></trkpt><trkpt lat="44.831305875361345" lon="12.18410595260195"><ele>-3.2</ele><time>2026-04-25T14:17:25Z</time></trkpt><trkpt lat="44.8313432968253" lon="12.183972026893823"><ele>-3.4</ele><time>2026-04-25T14:17:27Z</time></trkpt><trkpt lat="44.831378224943" lon="12.183839685120848"><ele>-3.6000000000000005</ele><time>2026-04-25T14:17:29Z</time></trkpt><trkpt lat="44.831417344284716" lon="12.183710689939085"><ele>-3.8000000000000003</ele><time>2026-04-25T14:17:31Z</time></trkpt><trkpt lat="44.831450211157744" lon="12.183580751133425"><ele>-4.0</ele><time>2026-04-25T14:17:33Z</time></trkpt><trkpt lat="44.8314768282036" lon="12.183457320897054"><ele>-4.0</ele><time>2026-04-25T14:17:35Z</time></trkpt><trkpt lat="44.83151006822314" lon="12.183339510515573"><ele>-4.0</ele><time>2026-04-25T14:17:37Z</time></trkpt><trkpt lat="44.83155208541376" lon="12.183228810176896"><ele>-4.0</ele><time>2026-04-25T14:17:39Z</time></trkpt><trkpt lat="44.83158403683317" lon="12.183114153131514"><ele>-4.0</ele><time>2026-04-25T14:17:41Z</time></trkpt><trkpt lat="44.83161653033257" lon="12.182986808510146"><ele>-4.0</ele><time>2026-04-25T14:17:43Z</time></trkpt><trkpt lat="44.83165540475844" lon="12.182856865429759"><ele>-4.0</ele><time>2026-04-25T14:17:45Z</time></trkpt><trkpt lat="44.83169432289467" lon="12.182727437635098"><ele>-4.0</ele><time>2026-04-25T14:17:47Z</time></trkpt><trkpt lat="44.83172435842844" lon="12.182594025558526"><ele>-4.0</ele><time>2026-04-25T14:17:49Z</time></trkpt><trkpt lat="44.83176357347129" lon="12.182460408079907"><ele>-4.0</ele><time>2026-04-25T14:17:51Z</time></trkpt><trkpt lat="44.83180200781801" lon="12.182329813165532"><ele>-4.0</ele><time>2026-04-25T14:17:53Z</time></trkpt><trkpt lat="44.831833935552154" lon="12.182197259841221"><ele>-4.2</ele><time>2026-04-25T14:17:55Z</time></trkpt><trkpt lat="44.831869403613474" lon="12.182065473924203"><ele>-4.4</ele><time>2026-04-25T14:17:57Z</time></trkpt><trkpt lat="44.83190946639562" lon="12.181933948756013"><ele>-4.6</ele><time>2026-04-25T14:17:59Z</time></trkpt><trkpt lat="44.83194169486126" lon="12.181813712074476"><ele>-4.8</ele><time>2026-04-25T14:18:01Z</time></trkpt><trkpt lat="44.83197271293364" lon="12.181691408067815"><ele>-5.0</ele><time>2026-04-25T14:18:03Z</time></trkpt><trkpt lat="44.83200349072727" lon="12.181574628000547"><ele>-5.0</ele><time>2026-04-25T14:18:05Z</time></trkpt><trkpt lat="44.83203531070192" lon="12.181455670635144"><ele>-5.0</ele><time>2026-04-25T14:18:07Z</time></trkpt><trkpt lat="44.83205829563169" lon="12.181338541222285"><ele>-5.0</ele><time>2026-04-25T14:18:09Z</time></trkpt><trkpt lat="44.83210104632265" lon="12.181227167082197"><ele>-5.0</ele><time>2026-04-25T14:18:11Z</time></trkpt><trkpt lat="44.83213590055351" lon="12.181111782964802"><ele>-5.0</ele><time>2026-04-25T14:18:13Z</time></trkpt><trkpt lat="44.83216415591998" lon="12.180993614621247"><ele>-5.0</ele><time>2026-04-25T14:18:15Z</time></trkpt><trkpt lat="44.832199876710135" lon="12.180881536021898"><ele>-5.0</ele><time>2026-04-25T14:18:17Z</time></trkpt><trkpt lat="44.83222768859246" lon="12.18076341976663"><ele>-5.0</ele><time>2026-04-25T14:18:19Z</time></trkpt><trkpt lat="44.83225537394684" lon="12.180647592900653"><ele>-5.0</ele><time>2026-04-25T14:18:21Z</time></trkpt><trkpt lat="44.83229336603599" lon="12.180536391149117"><ele>-5.0</ele><time>2026-04-25T14:18:23Z</time></trkpt><trkpt lat="44.83232020142902" lon="12.18041839065321"><ele>-5.0</ele><time>2026-04-25T14:18:25Z</time></trkpt><trkpt lat="44.832358727442724" lon="12.180307392655116"><ele>-5.0</ele><time>2026-04-25T14:18:27Z</time></trkpt><trkpt lat="44.83238585886912" lon="12.180190995764129"><ele>-4.833333333333334</ele><time>2026-04-25T14:18:29Z</time></trkpt><trkpt lat="44.83242102102418" lon="12.180078705135546"><ele>-4.666666666666667</ele><time>2026-04-25T14:18:31Z</time></trkpt><trkpt lat="44.83245108842441" lon="12.179964291802703"><ele>-4.5</ele><time>2026-04-25T14:18:33Z</time></trkpt><trkpt lat="44.83248158152478" lon="12.179848770346242"><ele>-4.333333333333333</ele><time>2026-04-25T14:18:35Z</time></trkpt><trkpt lat="44.83251131674794" lon="12.179733812179272"><ele>-4.166666666666666</ele><time>2026-04-25T14:18:37Z</time></trkpt><trkpt lat="44.832549549821" lon="12.17962268370039"><ele>-4.0</ele><time>2026-04-25T14:18:39Z</time></trkpt><trkpt lat="44.83257558190917" lon="12.179499929804912"><ele>-3.9999999999999996</ele><time>2026-04-25T14:18:41Z</time></trkpt><trkpt lat="44.832607329996776" lon="12.179374757456864"><ele>-4.0</ele><time>2026-04-25T14:18:43Z</time></trkpt><trkpt lat="44.83264397898998" lon="12.179265090801197"><ele>-4.0</ele><time>2026-04-25T14:18:45Z</time></trkpt><trkpt lat="44.83266890893985" lon="12.1791463637161"><ele>-4.0</ele><time>2026-04-25T14:18:47Z</time></trkpt><trkpt lat="44.83270541225647" lon="12.179035063349597"><ele>-3.9999999999999996</ele><time>2026-04-25T14:18:49Z</time></trkpt><trkpt lat="44.83273152173101" lon="12.178920192632312"><ele>-4.0</ele><time>2026-04-25T14:18:51Z</time></trkpt><trkpt lat="44.83274938748233" lon="12.178798392971354"><ele>-3.9999999999999996</ele><time>2026-04-25T14:18:53Z</time></trkpt><trkpt lat="44.83279364208212" lon="12.178694339904713"><ele>-4.0</ele><time>2026-04-25T14:18:55Z</time></trkpt><trkpt lat="44.83281346805809" lon="12.178577626589504"><ele>-4.0</ele><time>2026-04-25T14:18:57Z</time></trkpt><trkpt lat="44.83287553566329" lon="12.17850106812994"><ele>-4.0</ele><time>2026-04-25T14:18:59Z</time></trkpt><trkpt lat="44.832868188769154" lon="12.178346423845058"><ele>-3.9999999999999996</ele><time>2026-04-25T14:19:01Z</time></trkpt><trkpt lat="44.832915835857065" lon="12.178247743055717"><ele>-4.0</ele><time>2026-04-25T14:19:03Z</time></trkpt><trkpt lat="44.832961749133396" lon="12.178147190462512"><ele>-3.571428571428571</ele><time>2026-04-25T14:19:05Z</time></trkpt><trkpt lat="44.83298952599694" lon="12.178040865956671"><ele>-3.1428571428571423</ele><time>2026-04-25T14:19:07Z</time></trkpt><trkpt lat="44.83299761102607" lon="12.177949244702681"><ele>-2.714285714285714</ele><time>2026-04-25T14:19:10Z</time></trkpt><trkpt lat="44.833025830506934" lon="12.177844492969859"><ele>-2.2857142857142856</ele><time>2026-04-25T14:19:14Z</time></trkpt><trkpt lat="44.833025723219926" lon="12.177755485188227"><ele>-1.857142857142857</ele><time>2026-04-25T14:19:17Z</time></trkpt><trkpt lat="44.833049214838454" lon="12.177672921905916"><ele>-1.4285714285714284</ele><time>2026-04-25T14:19:21Z</time></trkpt><trkpt lat="44.833053132776016" lon="12.177569775061407"><ele>-1.0</ele><time>2026-04-25T14:19:26Z</time></trkpt><trkpt lat="44.83306906328327" lon="12.177464001093954"><ele>-0.9999999999999999</ele><time>2026-04-25T14:19:31Z</time></trkpt><trkpt lat="44.83308174430397" lon="12.1773639360656"><ele>-1.0</ele><time>2026-04-25T14:19:35Z</time></trkpt><trkpt lat="44.83308284411114" lon="12.177213598111928"><ele>-1.0</ele><time>2026-04-25T14:19:38Z</time></trkpt><trkpt lat="44.83309722962151" lon="12.177096753759376"><ele>-1.0</ele><time>2026-04-25T14:19:40Z</time></trkpt><trkpt lat="44.8331067862885" lon="12.176982056843908"><ele>-0.9999999999999999</ele><time>2026-04-25T14:19:42Z</time></trkpt><trkpt lat="44.83311929399037" lon="12.176874441052014"><ele>-1.0</ele><time>2026-04-25T14:19:44Z</time></trkpt><trkpt lat="44.83312921568417" lon="12.176773806765572"><ele>-0.8</ele><time>2026-04-25T14:19:46Z</time></trkpt><trkpt lat="44.83313465492631" lon="12.176660200457192"><ele>-0.6000000000000001</ele><time>2026-04-25T14:19:48Z</time></trkpt><trkpt lat="44.833158929399346" lon="12.176529489373076"><ele>-0.4</ele><time>2026-04-25T14:19:50Z</time></trkpt><trkpt lat="44.833171584037686" lon="12.176400436817813"><ele>-0.2</ele><time>2026-04-25T14:19:52Z</time></trkpt><trkpt lat="44.83317217547049" lon="12.176264029240569"><ele>0.0</ele><time>2026-04-25T14:19:54Z</time></trkpt><trkpt lat="44.83319709481409" lon="12.176140276808741"><ele>0.14285714285714285</ele><time>2026-04-25T14:19:56Z</time></trkpt><trkpt lat="44.833193430770486" lon="12.176023458307249"><ele>0.2857142857142857</ele><time>2026-04-25T14:19:58Z</time></trkpt><trkpt lat="44.833197320552244" lon="12.175926860833657"><ele>0.42857142857142855</ele><time>2026-04-25T14:20:00Z</time></trkpt><trkpt lat="44.833211423388505" lon="12.175837378231677"><ele>0.5714285714285714</ele><time>2026-04-25T14:20:03Z</time></trkpt><trkpt lat="44.83323437183163" lon="12.175723397534956"><ele>0.7142857142857142</ele><time>2026-04-25T14:20:08Z</time></trkpt><trkpt lat="44.83324362130805" lon="12.175629579769858"><ele>0.8571428571428571</ele><time>2026-04-25T14:20:10Z</time></trkpt><trkpt lat="44.83322478278147" lon="12.175523950122942"><ele>1.0</ele><time>2026-04-25T14:20:13Z</time></trkpt><trkpt lat="44.83315523262018" lon="12.175488699987737"><ele>0.9999999999999999</ele><time>2026-04-25T14:20:17Z</time></trkpt><trkpt lat="44.833072803039975" lon="12.175467563839002"><ele>1.0</ele><time>2026-04-25T14:20:20Z</time></trkpt><trkpt lat="44.83300895237783" lon="12.175459949161324"><ele>1.0</ele><time>2026-04-25T14:20:22Z</time></trkpt><trkpt lat="44.832917233638945" lon="12.175469696763662"><ele>1.0</ele><time>2026-04-25T14:20:25Z</time></trkpt><trkpt lat="44.83285168643917" lon="12.175461245434033"><ele>0.9999999999999999</ele><time>2026-04-25T14:20:27Z</time></trkpt><trkpt lat="44.83276908077987" lon="12.175455177504318"><ele>1.0</ele><time>2026-04-25T14:20:29Z</time></trkpt><trkpt lat="44.83268673931959" lon="12.17545478382094"><ele>0.9999999999999999</ele><time>2026-04-25T14:20:31Z</time></trkpt><trkpt lat="44.83268978564873" lon="12.175355299555077"><ele>1.0</ele><time>2026-04-25T14:20:33Z</time></trkpt><trkpt lat="44.83271233638034" lon="12.175242653752514"><ele>1.0</ele><time>2026-04-25T14:20:35Z</time></trkpt><trkpt lat="44.832760750322834" lon="12.175142167887621"><ele>1.0</ele><time>2026-04-25T14:20:37Z</time></trkpt><trkpt lat="44.83279963387617" lon="12.175044482570073"><ele>0.9999999999999999</ele><time>2026-04-25T14:20:39Z</time></trkpt><trkpt lat="44.832820134373364" lon="12.174932839188264"><ele>1.0</ele><time>2026-04-25T14:20:41Z</time></trkpt><trkpt lat="44.832859853822804" lon="12.174832332399259"><ele>0.8333333333333333</ele><time>2026-04-25T14:20:43Z</time></trkpt><trkpt lat="44.832899455369336" lon="12.174742400997513"><ele>0.6666666666666666</ele><time>2026-04-25T14:20:45Z</time></trkpt><trkpt lat="44.8329496274081" lon="12.174654787782783"><ele>0.5</ele><time>2026-04-25T14:20:47Z</time></trkpt><trkpt lat="44.832970188596526" lon="12.174552186403945"><ele>0.3333333333333333</ele><time>2026-04-25T14:20:49Z</time></trkpt><trkpt lat="44.83300193113706" lon="12.17443815741248"><ele>0.16666666666666666</ele><time>2026-04-25T14:20:52Z</time></trkpt><trkpt lat="44.832986368217576" lon="12.17431317703041"><ele>0.0</ele><time>2026-04-25T14:20:55Z</time></trkpt><trkpt lat="44.83299429213585" lon="12.174207805336684"><ele>0.0</ele><time>2026-04-25T14:20:58Z</time></trkpt><trkpt lat="44.83301494681779" lon="12.174113061126171"><ele>0.0</ele><time>2026-04-25T14:21:00Z</time></trkpt><trkpt lat="44.83302134233749" lon="12.174022441482654"><ele>0.0</ele><time>2026-04-25T14:21:02Z</time></trkpt><trkpt lat="44.83301428083091" lon="12.17392493993724"><ele>0.0</ele><time>2026-04-25T14:21:07Z</time></trkpt><trkpt lat="44.83303619812965" lon="12.174011881640062"><ele>0.0</ele><time>2026-04-25T14:22:43Z</time></trkpt><trkpt lat="44.833039234449494" lon="12.174133612529946"><ele>0.0</ele><time>2026-04-25T14:54:18Z</time></trkpt><trkpt lat="44.83298254062426" lon="12.174205113365627"><ele>0.0</ele><time>2026-04-25T14:54:21Z</time></trkpt><trkpt lat="44.83290163396243" lon="12.174278785608404"><ele>0.0</ele><time>2026-04-25T14:54:25Z</time></trkpt><trkpt lat="44.832852169511575" lon="12.174343492584446"><ele>0.0</ele><time>2026-04-25T14:54:27Z</time></trkpt><trkpt lat="44.83279748941057" lon="12.174413062042323"><ele>0.0</ele><time>2026-04-25T14:54:30Z</time></trkpt><trkpt lat="44.83275760459941" lon="12.174499790225429"><ele>0.0</ele><time>2026-04-25T14:54:33Z</time></trkpt><trkpt lat="44.832665113173775" lon="12.174532328679112"><ele>0.0</ele><time>2026-04-25T14:54:36Z</time></trkpt><trkpt lat="44.83258820519388" lon="12.174568247452699"><ele>0.0</ele><time>2026-04-25T14:54:38Z</time></trkpt><trkpt lat="44.832519675225555" lon="12.17458754910833"><ele>-0.3333333333333333</ele><time>2026-04-25T14:54:40Z</time></trkpt><trkpt lat="44.832428245987124" lon="12.17456913514258"><ele>-0.6666666666666666</ele><time>2026-04-25T14:54:43Z</time></trkpt><trkpt lat="44.832361274912664" lon="12.174537139119815"><ele>-1.0</ele><time>2026-04-25T14:54:45Z</time></trkpt><trkpt lat="44.8322927294378" lon="12.174499494783355"><ele>-1.3333333333333333</ele><time>2026-04-25T14:54:48Z</time></trkpt><trkpt lat="44.8323020818073" lon="12.174379769746027"><ele>-1.6666666666666665</ele><time>2026-04-25T14:54:51Z</time></trkpt><trkpt lat="44.83229758520167" lon="12.174291116117821"><ele>-2.0</ele><time>2026-04-25T14:54:53Z</time></trkpt><trkpt lat="44.83228232187556" lon="12.174142869171506"><ele>-2.2</ele><time>2026-04-25T14:54:56Z</time></trkpt><trkpt lat="44.83225101735062" lon="12.173989982604859"><ele>-2.4000000000000004</ele><time>2026-04-25T14:54:58Z</time></trkpt><trkpt lat="44.832197994519966" lon="12.173830248367086"><ele>-2.5999999999999996</ele><time>2026-04-25T14:55:00Z</time></trkpt><trkpt lat="44.832171041321686" lon="12.173747606705703"><ele>-2.8</ele><time>2026-04-25T14:55:01Z</time></trkpt><trkpt lat="44.83211290487143" lon="12.173594220579535"><ele>-3.0</ele><time>2026-04-25T14:55:02.999Z</time></trkpt><trkpt lat="44.83209353365798" lon="12.173456147841744"><ele>-3.0</ele><time>2026-04-25T14:55:04.999Z</time></trkpt><trkpt lat="44.83209520511026" lon="12.173361028518222"><ele>-3.0</ele><time>2026-04-25T14:55:06.999Z</time></trkpt><trkpt lat="44.83209597679202" lon="12.173254773046878"><ele>-3.0</ele><time>2026-04-25T14:55:08.999Z</time></trkpt><trkpt lat="44.83209752876563" lon="12.17312914358757"><ele>-3.0</ele><time>2026-04-25T14:55:10.999Z</time></trkpt><trkpt lat="44.83209235987836" lon="12.17300437956093"><ele>-3.0</ele><time>2026-04-25T14:55:12.999Z</time></trkpt><trkpt lat="44.83208610565958" lon="12.17287771134522"><ele>-3.0</ele><time>2026-04-25T14:55:14.999Z</time></trkpt><trkpt lat="44.83208655609888" lon="12.172746414167275"><ele>-3.0</ele><time>2026-04-25T14:55:16.999Z</time></trkpt><trkpt lat="44.832093007654635" lon="12.172619852629044"><ele>-3.0</ele><time>2026-04-25T14:55:18.999Z</time></trkpt><trkpt lat="44.83209399211734" lon="12.172497648804386"><ele>-3.0</ele><time>2026-04-25T14:55:20.999Z</time></trkpt><trkpt lat="44.8320898176506" lon="12.172383086662775"><ele>-3.0</ele><time>2026-04-25T14:55:22.999Z</time></trkpt><trkpt lat="44.832083507767386" lon="12.172261338673616"><ele>-3.0</ele><time>2026-04-25T14:55:24.999Z</time></trkpt><trkpt lat="44.83208097091978" lon="12.172138927150675"><ele>-3.0</ele><time>2026-04-25T14:55:26.999Z</time></trkpt><trkpt lat="44.83207776570229" lon="12.172023549359027"><ele>-3.0</ele><time>2026-04-25T14:55:28.999Z</time></trkpt><trkpt lat="44.832078098391406" lon="12.171912224164103"><ele>-3.0</ele><time>2026-04-25T14:55:30.999Z</time></trkpt><trkpt lat="44.83209036677176" lon="12.171779981333644"><ele>-3.0</ele><time>2026-04-25T14:55:32.999Z</time></trkpt><trkpt lat="44.83208858447529" lon="12.171649377984842"><ele>-3.0</ele><time>2026-04-25T14:55:34.999Z</time></trkpt><trkpt lat="44.83208243358829" lon="12.171521562950083"><ele>-3.0</ele><time>2026-04-25T14:55:36.999Z</time></trkpt><trkpt lat="44.83208339195452" lon="12.171383695757148"><ele>-3.2</ele><time>2026-04-25T14:55:38.999Z</time></trkpt><trkpt lat="44.8320811011608" lon="12.17124246612535"><ele>-3.4</ele><time>2026-04-25T14:55:40.999Z</time></trkpt><trkpt lat="44.83207759533508" lon="12.171102650925572"><ele>-3.6000000000000005</ele><time>2026-04-25T14:55:42.999Z</time></trkpt><trkpt lat="44.83207559535069" lon="12.170967118624745"><ele>-3.8000000000000003</ele><time>2026-04-25T14:55:44.999Z</time></trkpt><trkpt lat="44.83208151904783" lon="12.17083593890652"><ele>-4.0</ele><time>2026-04-25T14:55:46.999Z</time></trkpt><trkpt lat="44.83207038743249" lon="12.170710029011614"><ele>-4.0</ele><time>2026-04-25T14:55:48.999Z</time></trkpt><trkpt lat="44.83206103037214" lon="12.17058083019296"><ele>-4.0</ele><time>2026-04-25T14:55:50.999Z</time></trkpt><trkpt lat="44.83205792760875" lon="12.170455462566137"><ele>-4.0</ele><time>2026-04-25T14:55:52.999Z</time></trkpt><trkpt lat="44.83205683640862" lon="12.170327542668693"><ele>-4.0</ele><time>2026-04-25T14:55:54.999Z</time></trkpt><trkpt lat="44.83206214589149" lon="12.17019243856204"><ele>-4.0</ele><time>2026-04-25T14:55:57Z</time></trkpt><trkpt lat="44.832066024001314" lon="12.170054116999719"><ele>-4.0</ele><time>2026-04-25T14:55:59Z</time></trkpt><trkpt lat="44.832062423185384" lon="12.169912077016102"><ele>-4.0</ele><time>2026-04-25T14:56:01Z</time></trkpt><trkpt lat="44.832057008465334" lon="12.169773030492577"><ele>-4.0</ele><time>2026-04-25T14:56:03Z</time></trkpt><trkpt lat="44.83204771839499" lon="12.169632986382686"><ele>-4.0</ele><time>2026-04-25T14:56:05Z</time></trkpt><trkpt lat="44.83204853076499" lon="12.169494912668828"><ele>-4.0</ele><time>2026-04-25T14:56:07Z</time></trkpt><trkpt lat="44.83204440873233" lon="12.169355251322646"><ele>-4.0</ele><time>2026-04-25T14:56:09Z</time></trkpt><trkpt lat="44.83204580093468" lon="12.169216817245722"><ele>-4.0</ele><time>2026-04-25T14:56:11Z</time></trkpt><trkpt lat="44.8320431896914" lon="12.169081687868983"><ele>-4.0</ele><time>2026-04-25T14:56:13Z</time></trkpt><trkpt lat="44.83204247497126" lon="12.168953632092476"><ele>-4.0</ele><time>2026-04-25T14:56:15Z</time></trkpt><trkpt lat="44.83204423966421" lon="12.168831409341792"><ele>-4.0</ele><time>2026-04-25T14:56:17Z</time></trkpt><trkpt lat="44.832041728113666" lon="12.168713226723238"><ele>-3.833333333333333</ele><time>2026-04-25T14:56:19Z</time></trkpt><trkpt lat="44.83204164182838" lon="12.168601820736443"><ele>-3.6666666666666665</ele><time>2026-04-25T14:56:21Z</time></trkpt><trkpt lat="44.832039469769406" lon="12.168496740875415"><ele>-3.5</ele><time>2026-04-25T14:56:23Z</time></trkpt><trkpt lat="44.832053607846944" lon="12.168396370166814"><ele>-3.333333333333333</ele><time>2026-04-25T14:56:25Z</time></trkpt><trkpt lat="44.83210255674437" lon="12.16832568635656"><ele>-3.1666666666666665</ele><time>2026-04-25T14:56:27Z</time></trkpt><trkpt lat="44.8321810158101" lon="12.168314702010745"><ele>-3.0</ele><time>2026-04-25T14:56:29Z</time></trkpt><trkpt lat="44.83227825835284" lon="12.168268558007528"><ele>-3.0</ele><time>2026-04-25T14:56:31Z</time></trkpt><trkpt lat="44.832371454129735" lon="12.168239183864554"><ele>-3.0</ele><time>2026-04-25T14:56:33Z</time></trkpt><trkpt lat="44.83245041861821" lon="12.168189599884986"><ele>-3.0</ele><time>2026-04-25T14:56:35Z</time></trkpt><trkpt lat="44.83254175584432" lon="12.168183732259934"><ele>-3.0</ele><time>2026-04-25T14:56:37Z</time></trkpt><trkpt lat="44.83261140734013" lon="12.1681348478613"><ele>-3.0</ele><time>2026-04-25T14:56:39Z</time></trkpt><trkpt lat="44.832683996219345" lon="12.168114446298663"><ele>-3.0</ele><time>2026-04-25T14:56:41Z</time></trkpt><trkpt lat="44.832771979621214" lon="12.16806984419444"><ele>-2.4</ele><time>2026-04-25T14:56:43Z</time></trkpt><trkpt lat="44.83287233133776" lon="12.168037363778387"><ele>-1.7999999999999998</ele><time>2026-04-25T14:56:45Z</time></trkpt><trkpt lat="44.832966425640564" lon="12.167995359587993"><ele>-1.2</ele><time>2026-04-25T14:56:47Z</time></trkpt><trkpt lat="44.83306123065735" lon="12.16796144900806"><ele>-0.6</ele><time>2026-04-25T14:56:49Z</time></trkpt><trkpt lat="44.8331561249948" lon="12.167919100769284"><ele>0.0</ele><time>2026-04-25T14:56:51Z</time></trkpt><trkpt lat="44.83325132313436" lon="12.16788614577287"><ele>0.0</ele><time>2026-04-25T14:56:53Z</time></trkpt><trkpt lat="44.83333379005073" lon="12.167847490792669"><ele>0.0</ele><time>2026-04-25T14:56:55Z</time></trkpt><trkpt lat="44.833419781516774" lon="12.16780975808048"><ele>0.0</ele><time>2026-04-25T14:56:57Z</time></trkpt><trkpt lat="44.833507456496555" lon="12.167781166498576"><ele>0.0</ele><time>2026-04-25T14:56:59Z</time></trkpt><trkpt lat="44.83358961741062" lon="12.167748727610569"><ele>0.0</ele><time>2026-04-25T14:57:01Z</time></trkpt><trkpt lat="44.833683926639075" lon="12.167703409401446"><ele>-0.16666666666666666</ele><time>2026-04-25T14:57:02.999Z</time></trkpt><trkpt lat="44.833774454085905" lon="12.16766890698314"><ele>-0.3333333333333333</ele><time>2026-04-25T14:57:04.999Z</time></trkpt><trkpt lat="44.833859538338245" lon="12.167634524150044"><ele>-0.5</ele><time>2026-04-25T14:57:06.999Z</time></trkpt><trkpt lat="44.83394531078207" lon="12.167607281682153"><ele>-0.6666666666666666</ele><time>2026-04-25T14:57:08.999Z</time></trkpt><trkpt lat="44.83402283578838" lon="12.167570832282646"><ele>-0.8333333333333333</ele><time>2026-04-25T14:57:10.999Z</time></trkpt><trkpt lat="44.834103362510305" lon="12.167547679794152"><ele>-1.0</ele><time>2026-04-25T14:57:12.999Z</time></trkpt><trkpt lat="44.83417386230762" lon="12.167484353612647"><ele>-0.9999999999999999</ele><time>2026-04-25T14:57:14.999Z</time></trkpt><trkpt lat="44.83418227756283" lon="12.167353277092898"><ele>-1.0</ele><time>2026-04-25T14:57:16.999Z</time></trkpt><trkpt lat="44.83419128194525" lon="12.167217479847515"><ele>-1.0</ele><time>2026-04-25T14:57:18.999Z</time></trkpt><trkpt lat="44.83421817198312" lon="12.167087616165558"><ele>-1.0</ele><time>2026-04-25T14:57:20.999Z</time></trkpt><trkpt lat="44.834231087912336" lon="12.166966940528798"><ele>-0.9999999999999999</ele><time>2026-04-25T14:57:22.999Z</time></trkpt><trkpt lat="44.83424112121873" lon="12.16686620070628"><ele>-1.0</ele><time>2026-04-25T14:57:24.999Z</time></trkpt><trkpt lat="44.834259610282096" lon="12.166780578388709"><ele>-0.9999999999999999</ele><time>2026-04-25T14:57:26.999Z</time></trkpt><trkpt lat="44.83433299234951" lon="12.166769918696176"><ele>-1.0</ele><time>2026-04-25T14:57:29.999Z</time></trkpt><trkpt lat="44.834421098219806" lon="12.166752358640277"><ele>-1.0</ele><time>2026-04-25T14:57:32.999Z</time></trkpt><trkpt lat="44.834496857928656" lon="12.166755306460065"><ele>-1.0</ele><time>2026-04-25T14:57:34.999Z</time></trkpt><trkpt lat="44.834572617382534" lon="12.166754715961277"><ele>-0.9999999999999999</ele><time>2026-04-25T14:57:36.999Z</time></trkpt><trkpt lat="44.83466151443906" lon="12.16674948470842"><ele>-1.0</ele><time>2026-04-25T14:57:38.999Z</time></trkpt><trkpt lat="44.83473921987763" lon="12.166721444164889"><ele>-0.9999999999999999</ele><time>2026-04-25T14:57:40.999Z</time></trkpt><trkpt lat="44.83481315256325" lon="12.16671748520482"><ele>-1.0</ele><time>2026-04-25T14:57:42.999Z</time></trkpt><trkpt lat="44.83488308944698" lon="12.166712488913705"><ele>-1.0</ele><time>2026-04-25T14:57:44.999Z</time></trkpt><trkpt lat="44.83496196933821" lon="12.166697794293473"><ele>-1.0</ele><time>2026-04-25T14:57:46.999Z</time></trkpt><trkpt lat="44.83505289803963" lon="12.166670364654621"><ele>-0.9999999999999999</ele><time>2026-04-25T14:57:48.999Z</time></trkpt><trkpt lat="44.83514125836717" lon="12.166651707525732"><ele>-1.0</ele><time>2026-04-25T14:57:50.999Z</time></trkpt><trkpt lat="44.83522461741924" lon="12.166634973371492"><ele>-0.9999999999999999</ele><time>2026-04-25T14:57:52.999Z</time></trkpt><trkpt lat="44.83530419685791" lon="12.166615155368234"><ele>-1.0</ele><time>2026-04-25T14:57:54.999Z</time></trkpt><trkpt lat="44.835382490554544" lon="12.166625966752516"><ele>-1.0</ele><time>2026-04-25T14:57:56.999Z</time></trkpt><trkpt lat="44.835474432264554" lon="12.166614514848801"><ele>-1.0</ele><time>2026-04-25T14:57:58.999Z</time></trkpt><trkpt lat="44.83556696721782" lon="12.16659603763859"><ele>-0.9999999999999999</ele><time>2026-04-25T14:58:00.999Z</time></trkpt><trkpt lat="44.835659047017934" lon="12.166575294167895"><ele>-1.0</ele><time>2026-04-25T14:58:03Z</time></trkpt><trkpt lat="44.835744507903996" lon="12.166540194759563"><ele>-0.9999999999999999</ele><time>2026-04-25T14:58:05Z</time></trkpt><trkpt lat="44.83582866040035" lon="12.166532139835457"><ele>-1.0</ele><time>2026-04-25T14:58:07Z</time></trkpt><trkpt lat="44.83591056914195" lon="12.166509839782007"><ele>-1.0</ele><time>2026-04-25T14:58:09Z</time></trkpt><trkpt lat="44.83599224377538" lon="12.16649116715147"><ele>-1.0</ele><time>2026-04-25T14:58:11Z</time></trkpt><trkpt lat="44.83607443296533" lon="12.166472911562371"><ele>-0.9999999999999999</ele><time>2026-04-25T14:58:13Z</time></trkpt><trkpt lat="44.83617477496943" lon="12.16646280517309"><ele>-1.0</ele><time>2026-04-25T14:58:15Z</time></trkpt><trkpt lat="44.83627356912858" lon="12.166446613996577"><ele>-1.4</ele><time>2026-04-25T14:58:17Z</time></trkpt><trkpt lat="44.83636841213718" lon="12.166427785258906"><ele>-1.8</ele><time>2026-04-25T14:58:19Z</time></trkpt><trkpt lat="44.83646457781661" lon="12.166409131329415"><ele>-2.1999999999999997</ele><time>2026-04-25T14:58:21Z</time></trkpt><trkpt lat="44.836553489249916" lon="12.166400589658275"><ele>-2.6</ele><time>2026-04-25T14:58:23Z</time></trkpt><trkpt lat="44.83664239354589" lon="12.166383250447582"><ele>-3.0</ele><time>2026-04-25T14:58:25Z</time></trkpt><trkpt lat="44.83673934114539" lon="12.166381335623118"><ele>-3.0</ele><time>2026-04-25T14:58:27Z</time></trkpt><trkpt lat="44.836829391894796" lon="12.166369767782053"><ele>-3.0</ele><time>2026-04-25T14:58:29Z</time></trkpt><trkpt lat="44.83691700743674" lon="12.166355467794943"><ele>-3.0</ele><time>2026-04-25T14:58:31Z</time></trkpt><trkpt lat="44.83700512959695" lon="12.166336496527952"><ele>-3.0</ele><time>2026-04-25T14:58:33Z</time></trkpt><trkpt lat="44.83710023543396" lon="12.16632110334501"><ele>-3.0</ele><time>2026-04-25T14:58:35Z</time></trkpt><trkpt lat="44.83719870581855" lon="12.166309230376347"><ele>-3.0</ele><time>2026-04-25T14:58:37Z</time></trkpt><trkpt lat="44.837294410010266" lon="12.166290140994489"><ele>-3.0</ele><time>2026-04-25T14:58:39Z</time></trkpt><trkpt lat="44.83739591132666" lon="12.166264650443324"><ele>-3.0</ele><time>2026-04-25T14:58:41Z</time></trkpt><trkpt lat="44.837490113864085" lon="12.166262710027555"><ele>-3.0</ele><time>2026-04-25T14:58:43Z</time></trkpt><trkpt lat="44.83758372632598" lon="12.166234021673304"><ele>-3.0</ele><time>2026-04-25T14:58:45Z</time></trkpt><trkpt lat="44.83767821038226" lon="12.16621215513405"><ele>-2.6</ele><time>2026-04-25T14:58:47Z</time></trkpt><trkpt lat="44.83776918687793" lon="12.166194076790005"><ele>-2.1999999999999997</ele><time>2026-04-25T14:58:49Z</time></trkpt><trkpt lat="44.837857624459254" lon="12.16619072778616"><ele>-1.8</ele><time>2026-04-25T14:58:51Z</time></trkpt><trkpt lat="44.83794355202832" lon="12.166187650574562"><ele>-1.4</ele><time>2026-04-25T14:58:53Z</time></trkpt><trkpt lat="44.83807456716346" lon="12.166160736945924"><ele>-1.0</ele><time>2026-04-25T14:58:56Z</time></trkpt><trkpt lat="44.838154560989345" lon="12.166144994063472"><ele>-0.9999999999999999</ele><time>2026-04-25T14:58:58Z</time></trkpt><trkpt lat="44.838235269367345" lon="12.166131570762744"><ele>-1.0</ele><time>2026-04-25T14:59:00Z</time></trkpt><trkpt lat="44.83832107717384" lon="12.166143357745835"><ele>-1.0</ele><time>2026-04-25T14:59:02Z</time></trkpt><trkpt lat="44.83840202320092" lon="12.166146115571687"><ele>-1.0</ele><time>2026-04-25T14:59:04Z</time></trkpt><trkpt lat="44.83848456726803" lon="12.16614570088278"><ele>-0.9999999999999999</ele><time>2026-04-25T14:59:06Z</time></trkpt><trkpt lat="44.83858126536759" lon="12.16613240112604"><ele>-1.0</ele><time>2026-04-25T14:59:08Z</time></trkpt><trkpt lat="44.83866473243529" lon="12.166150482326016"><ele>-1.1666666666666665</ele><time>2026-04-25T14:59:10Z</time></trkpt><trkpt lat="44.838752932626946" lon="12.166137470090687"><ele>-1.3333333333333333</ele><time>2026-04-25T14:59:12Z</time></trkpt><trkpt lat="44.83884442616582" lon="12.166132476411363"><ele>-1.5</ele><time>2026-04-25T14:59:14Z</time></trkpt><trkpt lat="44.838930283675126" lon="12.166128982602316"><ele>-1.6666666666666665</ele><time>2026-04-25T14:59:16Z</time></trkpt><trkpt lat="44.839008443641795" lon="12.166133851890349"><ele>-1.8333333333333333</ele><time>2026-04-25T14:59:18Z</time></trkpt><trkpt lat="44.83908089302717" lon="12.166135471439631"><ele>-2.0</ele><time>2026-04-25T14:59:20Z</time></trkpt><trkpt lat="44.83914432289804" lon="12.166122317038635"><ele>-1.9999999999999998</ele><time>2026-04-25T14:59:21.999Z</time></trkpt><trkpt lat="44.83923096069214" lon="12.16611782572715"><ele>-2.0</ele><time>2026-04-25T14:59:24.999Z</time></trkpt><trkpt lat="44.839318223484625" lon="12.166119760050943"><ele>-2.0</ele><time>2026-04-25T14:59:26.999Z</time></trkpt><trkpt lat="44.83939238808001" lon="12.166106974993593"><ele>-2.0</ele><time>2026-04-25T14:59:28.999Z</time></trkpt><trkpt lat="44.839467722727804" lon="12.166093637643664"><ele>-1.9999999999999998</ele><time>2026-04-25T14:59:30.999Z</time></trkpt><trkpt lat="44.83955400547923" lon="12.166080462308758"><ele>-2.0</ele><time>2026-04-25T14:59:32.999Z</time></trkpt><trkpt lat="44.839621800777714" lon="12.166068320529554"><ele>-1.8333333333333333</ele><time>2026-04-25T14:59:34.999Z</time></trkpt><trkpt lat="44.839686921987116" lon="12.166048334991794"><ele>-1.6666666666666665</ele><time>2026-04-25T14:59:36.999Z</time></trkpt><trkpt lat="44.83976173130423" lon="12.166024341761185"><ele>-1.5</ele><time>2026-04-25T14:59:38.999Z</time></trkpt><trkpt lat="44.83983274426297" lon="12.165999091001067"><ele>-1.3333333333333333</ele><time>2026-04-25T14:59:40.999Z</time></trkpt><trkpt lat="44.839914447710335" lon="12.16596335499277"><ele>-1.1666666666666665</ele><time>2026-04-25T14:59:42.999Z</time></trkpt><trkpt lat="44.83999387205633" lon="12.16596510488874"><ele>-1.0</ele><time>2026-04-25T14:59:44.999Z</time></trkpt><trkpt lat="44.84006475520976" lon="12.165956429723954"><ele>-0.9999999999999999</ele><time>2026-04-25T14:59:46.999Z</time></trkpt><trkpt lat="44.84013253301578" lon="12.165929156344522"><ele>-1.0</ele><time>2026-04-25T14:59:48.999Z</time></trkpt><trkpt lat="44.84019550247966" lon="12.1659184346889"><ele>-1.0</ele><time>2026-04-25T14:59:50.999Z</time></trkpt><trkpt lat="44.84027761302983" lon="12.165848962639947"><ele>-1.0</ele><time>2026-04-25T14:59:53.999Z</time></trkpt><trkpt lat="44.84035097297439" lon="12.165891937068256"><ele>-0.9999999999999999</ele><time>2026-04-25T14:59:56.999Z</time></trkpt><trkpt lat="44.840418101299896" lon="12.165891745813068"><ele>-1.0</ele><time>2026-04-25T14:59:58.999Z</time></trkpt><trkpt lat="44.840491400284755" lon="12.165878849497897"><ele>-0.9999999999999999</ele><time>2026-04-25T15:00:00.999Z</time></trkpt><trkpt lat="44.840556398038885" lon="12.165869514534332"><ele>-1.0</ele><time>2026-04-25T15:00:02.999Z</time></trkpt><trkpt lat="44.840643393635794" lon="12.165862458099967"><ele>-1.0</ele><time>2026-04-25T15:00:04.999Z</time></trkpt><trkpt lat="44.84072875875826" lon="12.16586019757621"><ele>-1.0</ele><time>2026-04-25T15:00:06.999Z</time></trkpt><trkpt lat="44.840806969113466" lon="12.16585198865384"><ele>-0.9999999999999999</ele><time>2026-04-25T15:00:09Z</time></trkpt><trkpt lat="44.840882286318845" lon="12.165846214632142"><ele>-1.0</ele><time>2026-04-25T15:00:11Z</time></trkpt><trkpt lat="44.84095693865863" lon="12.165842223884953"><ele>-1.1428571428571428</ele><time>2026-04-25T15:00:13Z</time></trkpt><trkpt lat="44.84102649509683" lon="12.16585264846815"><ele>-1.2857142857142856</ele><time>2026-04-25T15:00:15Z</time></trkpt><trkpt lat="44.84109212390379" lon="12.165848695683314"><ele>-1.4285714285714284</ele><time>2026-04-25T15:00:17Z</time></trkpt><trkpt lat="44.84116637012925" lon="12.165844384185455"><ele>-1.5714285714285714</ele><time>2026-04-25T15:00:19Z</time></trkpt><trkpt lat="44.84123517333693" lon="12.165845286311411"><ele>-1.714285714285714</ele><time>2026-04-25T15:00:21Z</time></trkpt><trkpt lat="44.84130551800426" lon="12.16584662760253"><ele>-1.857142857142857</ele><time>2026-04-25T15:00:23Z</time></trkpt><trkpt lat="44.841375711359504" lon="12.165839520213812"><ele>-2.0</ele><time>2026-04-25T15:00:25Z</time></trkpt><trkpt lat="44.84146239280439" lon="12.16583657732398"><ele>-1.9999999999999998</ele><time>2026-04-25T15:00:27Z</time></trkpt><trkpt lat="44.841542800019255" lon="12.165824615580943"><ele>-2.0</ele><time>2026-04-25T15:00:29Z</time></trkpt><trkpt lat="44.84161916753104" lon="12.165828905652916"><ele>-2.0</ele><time>2026-04-25T15:00:31Z</time></trkpt><trkpt lat="44.84168932055557" lon="12.165819907755782"><ele>-2.0</ele><time>2026-04-25T15:00:33Z</time></trkpt><trkpt lat="44.84177513726061" lon="12.16580838829042"><ele>-1.9999999999999998</ele><time>2026-04-25T15:00:35Z</time></trkpt><trkpt lat="44.84186319775229" lon="12.165809879774137"><ele>-2.0</ele><time>2026-04-25T15:00:37Z</time></trkpt><trkpt lat="44.841947030009464" lon="12.16580657526887"><ele>-1.9999999999999998</ele><time>2026-04-25T15:00:39Z</time></trkpt><trkpt lat="44.84203022296746" lon="12.165797156349857"><ele>-2.0</ele><time>2026-04-25T15:00:41Z</time></trkpt><trkpt lat="44.84212074288775" lon="12.165805674799474"><ele>-2.0</ele><time>2026-04-25T15:00:43Z</time></trkpt><trkpt lat="44.84220683579101" lon="12.165795520082371"><ele>-2.0</ele><time>2026-04-25T15:00:45Z</time></trkpt><trkpt lat="44.842288318407896" lon="12.165793076346356"><ele>-1.9999999999999998</ele><time>2026-04-25T15:00:47Z</time></trkpt><trkpt lat="44.84236164573475" lon="12.165795403584609"><ele>-2.0</ele><time>2026-04-25T15:00:49Z</time></trkpt><trkpt lat="44.84243561425003" lon="12.165794390650863"><ele>-1.9999999999999998</ele><time>2026-04-25T15:00:51Z</time></trkpt><trkpt lat="44.84252520371881" lon="12.165785076544847"><ele>-2.0</ele><time>2026-04-25T15:00:53Z</time></trkpt><trkpt lat="44.84260867501089" lon="12.165774125941475"><ele>-2.0</ele><time>2026-04-25T15:00:55Z</time></trkpt><trkpt lat="44.842685365585325" lon="12.165775391538782"><ele>-2.0</ele><time>2026-04-25T15:00:57Z</time></trkpt><trkpt lat="44.84275928255459" lon="12.165767127602315"><ele>-1.9999999999999998</ele><time>2026-04-25T15:00:59Z</time></trkpt><trkpt lat="44.842826650210554" lon="12.165759302732834"><ele>-2.0</ele><time>2026-04-25T15:01:01Z</time></trkpt><trkpt lat="44.842905928064305" lon="12.165757572608054"><ele>-1.9999999999999998</ele><time>2026-04-25T15:01:03Z</time></trkpt><trkpt lat="44.842995016028155" lon="12.165773650055394"><ele>-2.0</ele><time>2026-04-25T15:01:05Z</time></trkpt><trkpt lat="44.84308436906177" lon="12.165764788941066"><ele>-2.0</ele><time>2026-04-25T15:01:07Z</time></trkpt><trkpt lat="44.8431683876157" lon="12.165730445426032"><ele>-2.0</ele><time>2026-04-25T15:01:09Z</time></trkpt><trkpt lat="44.84323999354775" lon="12.165668709290715"><ele>-1.9999999999999998</ele><time>2026-04-25T15:01:11Z</time></trkpt><trkpt lat="44.84327325454097" lon="12.165570965929607"><ele>-2.0</ele><time>2026-04-25T15:01:13Z</time></trkpt><trkpt lat="44.843272676518986" lon="12.16546815086076"><ele>-1.9999999999999998</ele><time>2026-04-25T15:01:15Z</time></trkpt><trkpt lat="44.84327789528322" lon="12.165343621366649"><ele>-2.0</ele><time>2026-04-25T15:01:18Z</time></trkpt><trkpt lat="44.843282969476576" lon="12.165198274233813"><ele>-2.0</ele><time>2026-04-25T15:01:21Z</time></trkpt><trkpt lat="44.84330154259562" lon="12.165073214527377"><ele>-2.0</ele><time>2026-04-25T15:01:23Z</time></trkpt><trkpt lat="44.84330929156315" lon="12.164959084460241"><ele>-1.9999999999999998</ele><time>2026-04-25T15:01:25Z</time></trkpt><trkpt lat="44.843326436703244" lon="12.164860283585803"><ele>-2.0</ele><time>2026-04-25T15:01:27Z</time></trkpt><trkpt lat="44.84334187750047" lon="12.164755396297487"><ele>-1.9999999999999998</ele><time>2026-04-25T15:01:29Z</time></trkpt><trkpt lat="44.843350949519944" lon="12.164659974211215"><ele>-2.0</ele><time>2026-04-25T15:01:31Z</time></trkpt><trkpt lat="44.843354371636934" lon="12.16456353460237"><ele>-2.0</ele><time>2026-04-25T15:01:33Z</time></trkpt><trkpt lat="44.84337404831396" lon="12.16443511819676"><ele>-2.0</ele><time>2026-04-25T15:01:36Z</time></trkpt><trkpt lat="44.84339181163343" lon="12.164308479326486"><ele>-1.9999999999999998</ele><time>2026-04-25T15:01:39Z</time></trkpt><trkpt lat="44.84339970256615" lon="12.164218005927477"><ele>-2.0</ele><time>2026-04-25T15:01:41Z</time></trkpt><trkpt lat="44.843418582265656" lon="12.164092100017548"><ele>-1.9999999999999998</ele><time>2026-04-25T15:01:43Z</time></trkpt><trkpt lat="44.84342849534432" lon="12.163959759301987"><ele>-2.0</ele><time>2026-04-25T15:01:45Z</time></trkpt><trkpt lat="44.84344643034164" lon="12.163842812050893"><ele>-2.0</ele><time>2026-04-25T15:01:47Z</time></trkpt><trkpt lat="44.84345758116217" lon="12.16372897705913"><ele>-2.0</ele><time>2026-04-25T15:01:49Z</time></trkpt><trkpt lat="44.84346797711532" lon="12.16362713929297"><ele>-1.9999999999999998</ele><time>2026-04-25T15:01:51Z</time></trkpt><trkpt lat="44.84348076402099" lon="12.163526621590696"><ele>-2.0</ele><time>2026-04-25T15:01:52.999Z</time></trkpt><trkpt lat="44.84349594093114" lon="12.163403056877904"><ele>-1.8333333333333333</ele><time>2026-04-25T15:01:54.999Z</time></trkpt><trkpt lat="44.84351085619867" lon="12.163272742976273"><ele>-1.6666666666666665</ele><time>2026-04-25T15:01:56.999Z</time></trkpt><trkpt lat="44.84352724162665" lon="12.163153886751939"><ele>-1.5</ele><time>2026-04-25T15:01:58.999Z</time></trkpt><trkpt lat="44.843537257460824" lon="12.16304042150892"><ele>-1.3333333333333333</ele><time>2026-04-25T15:02:00.999Z</time></trkpt><trkpt lat="44.84355109888781" lon="12.162937013419596"><ele>-1.1666666666666665</ele><time>2026-04-25T15:02:02.999Z</time></trkpt><trkpt lat="44.8435612611574" lon="12.162823408915004"><ele>-1.0</ele><time>2026-04-25T15:02:04.999Z</time></trkpt><trkpt lat="44.843579061760664" lon="12.162698663148396"><ele>-1.2857142857142856</ele><time>2026-04-25T15:02:06.999Z</time></trkpt><trkpt lat="44.84358872310458" lon="12.162585547011522"><ele>-1.5714285714285712</ele><time>2026-04-25T15:02:08.999Z</time></trkpt><trkpt lat="44.84360196845185" lon="12.162476749847022"><ele>-1.857142857142857</ele><time>2026-04-25T15:02:10.999Z</time></trkpt><trkpt lat="44.843615904968935" lon="12.162375559044616"><ele>-2.142857142857143</ele><time>2026-04-25T15:02:12.999Z</time></trkpt><trkpt lat="44.84362670309317" lon="12.162282235907803"><ele>-2.4285714285714284</ele><time>2026-04-25T15:02:15Z</time></trkpt><trkpt lat="44.84363827593419" lon="12.162192113799462"><ele>-2.714285714285714</ele><time>2026-04-25T15:02:17Z</time></trkpt><trkpt lat="44.843652490622375" lon="12.162082616652196"><ele>-3.0</ele><time>2026-04-25T15:02:19Z</time></trkpt><trkpt lat="44.84366537637739" lon="12.161983502096678"><ele>-3.0</ele><time>2026-04-25T15:02:21Z</time></trkpt><trkpt lat="44.84367742971864" lon="12.161880069995348"><ele>-3.0</ele><time>2026-04-25T15:02:23Z</time></trkpt><trkpt lat="44.84368819661631" lon="12.1617710704596"><ele>-3.0</ele><time>2026-04-25T15:02:25Z</time></trkpt><trkpt lat="44.84370134482832" lon="12.161667297347865"><ele>-3.0</ele><time>2026-04-25T15:02:27Z</time></trkpt><trkpt lat="44.84371073920804" lon="12.161567269709371"><ele>-3.0</ele><time>2026-04-25T15:02:29Z</time></trkpt><trkpt lat="44.84372488436071" lon="12.161461339140804"><ele>-3.0</ele><time>2026-04-25T15:02:31Z</time></trkpt><trkpt lat="44.84374144793599" lon="12.161305754939916"><ele>-3.0</ele><time>2026-04-25T15:02:34Z</time></trkpt><trkpt lat="44.843749555277064" lon="12.161198885954247"><ele>-3.0</ele><time>2026-04-25T15:02:36Z</time></trkpt><trkpt lat="44.84380268016445" lon="12.161105751908021"><ele>-3.0</ele><time>2026-04-25T15:02:39Z</time></trkpt><trkpt lat="44.8438708080933" lon="12.161101468541194"><ele>-3.0</ele><time>2026-04-25T15:02:41Z</time></trkpt><trkpt lat="44.84395943920501" lon="12.161136102842713"><ele>-3.0</ele><time>2026-04-25T15:02:43Z</time></trkpt><trkpt lat="44.84403690395268" lon="12.16114887696593"><ele>-3.0</ele><time>2026-04-25T15:02:45Z</time></trkpt><trkpt lat="44.844108224787" lon="12.16117880726846"><ele>-3.0</ele><time>2026-04-25T15:02:47Z</time></trkpt><trkpt lat="44.844177996206994" lon="12.161193783426807"><ele>-3.0</ele><time>2026-04-25T15:02:49Z</time></trkpt><trkpt lat="44.84424421224178" lon="12.161207314948443"><ele>-3.0</ele><time>2026-04-25T15:02:51Z</time></trkpt><trkpt lat="44.844322416377885" lon="12.161222392821347"><ele>-3.0</ele><time>2026-04-25T15:02:53Z</time></trkpt><trkpt lat="44.84440962105969" lon="12.16124368975657"><ele>-3.0</ele><time>2026-04-25T15:02:55Z</time></trkpt><trkpt lat="44.8444956511201" lon="12.161265926181432"><ele>-3.0</ele><time>2026-04-25T15:02:57Z</time></trkpt><trkpt lat="44.84456818739703" lon="12.161299063045389"><ele>-3.3333333333333335</ele><time>2026-04-25T15:02:59Z</time></trkpt><trkpt lat="44.844652875483476" lon="12.161303741514832"><ele>-3.666666666666667</ele><time>2026-04-25T15:03:01Z</time></trkpt><trkpt lat="44.84472342231443" lon="12.161326302981497"><ele>-4.0</ele><time>2026-04-25T15:03:03Z</time></trkpt><trkpt lat="44.84480441999256" lon="12.161347679365367"><ele>-4.333333333333334</ele><time>2026-04-25T15:03:05Z</time></trkpt><trkpt lat="44.84488836863063" lon="12.161370546643157"><ele>-4.666666666666667</ele><time>2026-04-25T15:03:07Z</time></trkpt><trkpt lat="44.84496677168154" lon="12.161391910493776"><ele>-5.0</ele><time>2026-04-25T15:03:09Z</time></trkpt><trkpt lat="44.84503823685601" lon="12.16141287286711"><ele>-5.0</ele><time>2026-04-25T15:03:11Z</time></trkpt><trkpt lat="44.84510850470447" lon="12.161427211537317"><ele>-5.0</ele><time>2026-04-25T15:03:13Z</time></trkpt><trkpt lat="44.8451864416413" lon="12.161448019863952"><ele>-5.0</ele><time>2026-04-25T15:03:15Z</time></trkpt><trkpt lat="44.84527604924208" lon="12.16146737492635"><ele>-5.0</ele><time>2026-04-25T15:03:17Z</time></trkpt><trkpt lat="44.84535649430148" lon="12.161485447964992"><ele>-5.0</ele><time>2026-04-25T15:03:19Z</time></trkpt><trkpt lat="44.84543816638322" lon="12.161506954761718"><ele>-5.0</ele><time>2026-04-25T15:03:21Z</time></trkpt><trkpt lat="44.84550902523435" lon="12.161522042185803"><ele>-4.833333333333334</ele><time>2026-04-25T15:03:23Z</time></trkpt><trkpt lat="44.845580769217136" lon="12.161543399607977"><ele>-4.666666666666667</ele><time>2026-04-25T15:03:25Z</time></trkpt><trkpt lat="44.84565228367024" lon="12.161554955024528"><ele>-4.5</ele><time>2026-04-25T15:03:27Z</time></trkpt><trkpt lat="44.845726704151346" lon="12.161574983201989"><ele>-4.333333333333333</ele><time>2026-04-25T15:03:29Z</time></trkpt><trkpt lat="44.84581052445104" lon="12.16159925667477"><ele>-4.166666666666666</ele><time>2026-04-25T15:03:31Z</time></trkpt><trkpt lat="44.84589497591536" lon="12.161616686179295"><ele>-4.0</ele><time>2026-04-25T15:03:33Z</time></trkpt><trkpt lat="44.84597839004225" lon="12.161647887420566"><ele>-3.6666666666666665</ele><time>2026-04-25T15:03:35Z</time></trkpt><trkpt lat="44.84606208699774" lon="12.16166130567622"><ele>-3.333333333333333</ele><time>2026-04-25T15:03:37Z</time></trkpt><trkpt lat="44.84614870434616" lon="12.161681712314207"><ele>-3.0</ele><time>2026-04-25T15:03:39Z</time></trkpt><trkpt lat="44.84622969684899" lon="12.161692514881075"><ele>-2.6666666666666665</ele><time>2026-04-25T15:03:41Z</time></trkpt><trkpt lat="44.84631100752219" lon="12.161720710076601"><ele>-2.333333333333333</ele><time>2026-04-25T15:03:43Z</time></trkpt><trkpt lat="44.84638983220897" lon="12.161733230062328"><ele>-2.0</ele><time>2026-04-25T15:03:45Z</time></trkpt><trkpt lat="44.84647572795824" lon="12.161752483538697"><ele>-1.9999999999999998</ele><time>2026-04-25T15:03:47Z</time></trkpt><trkpt lat="44.846558077857935" lon="12.161765415572011"><ele>-2.0</ele><time>2026-04-25T15:03:49Z</time></trkpt><trkpt lat="44.84664559858531" lon="12.161791065906963"><ele>-2.0</ele><time>2026-04-25T15:03:51Z</time></trkpt><trkpt lat="44.84672938517866" lon="12.16182973461621"><ele>-2.0</ele><time>2026-04-25T15:03:53Z</time></trkpt><trkpt lat="44.84680628076698" lon="12.16184507473163"><ele>-1.9999999999999998</ele><time>2026-04-25T15:03:55Z</time></trkpt><trkpt lat="44.84689548695746" lon="12.161861050881583"><ele>-2.0</ele><time>2026-04-25T15:03:57Z</time></trkpt><trkpt lat="44.846978530540056" lon="12.161887816567031"><ele>-2.5</ele><time>2026-04-25T15:03:59Z</time></trkpt><trkpt lat="44.84706329515223" lon="12.161906272918223"><ele>-3.0</ele><time>2026-04-25T15:04:01Z</time></trkpt><trkpt lat="44.84714241932145" lon="12.161936022652812"><ele>-3.5</ele><time>2026-04-25T15:04:03Z</time></trkpt><trkpt lat="44.84722703315376" lon="12.161950041971753"><ele>-4.0</ele><time>2026-04-25T15:04:05Z</time></trkpt><trkpt lat="44.847311072399854" lon="12.161972989667367"><ele>-4.5</ele><time>2026-04-25T15:04:07Z</time></trkpt><trkpt lat="44.84739159767595" lon="12.161993345225678"><ele>-5.0</ele><time>2026-04-25T15:04:09Z</time></trkpt><trkpt lat="44.84747504951891" lon="12.162012291338765"><ele>-5.0</ele><time>2026-04-25T15:04:11Z</time></trkpt><trkpt lat="44.847556026157065" lon="12.162030491143348"><ele>-5.0</ele><time>2026-04-25T15:04:13Z</time></trkpt><trkpt lat="44.84763586860252" lon="12.162050220543694"><ele>-5.0</ele><time>2026-04-25T15:04:15Z</time></trkpt><trkpt lat="44.847717006506635" lon="12.162072881756666"><ele>-5.0</ele><time>2026-04-25T15:04:17Z</time></trkpt><trkpt lat="44.84780521960751" lon="12.162088587575608"><ele>-5.0</ele><time>2026-04-25T15:04:19Z</time></trkpt><trkpt lat="44.84789509916397" lon="12.162107609856843"><ele>-5.0</ele><time>2026-04-25T15:04:21Z</time></trkpt><trkpt lat="44.84797972434076" lon="12.162127589782626"><ele>-4.833333333333334</ele><time>2026-04-25T15:04:23Z</time></trkpt><trkpt lat="44.84807012886347" lon="12.16214928853783"><ele>-4.666666666666667</ele><time>2026-04-25T15:04:25Z</time></trkpt><trkpt lat="44.848150629975656" lon="12.1621645896218"><ele>-4.5</ele><time>2026-04-25T15:04:27Z</time></trkpt><trkpt lat="44.84823615160462" lon="12.162186697634127"><ele>-4.333333333333333</ele><time>2026-04-25T15:04:29Z</time></trkpt><trkpt lat="44.8483183608149" lon="12.162209415223455"><ele>-4.166666666666666</ele><time>2026-04-25T15:04:31Z</time></trkpt><trkpt lat="44.84840104355324" lon="12.162227173482405"><ele>-4.0</ele><time>2026-04-25T15:04:33Z</time></trkpt><trkpt lat="44.84848639906483" lon="12.162243100943655"><ele>-3.6666666666666665</ele><time>2026-04-25T15:04:35Z</time></trkpt><trkpt lat="44.8485705549683" lon="12.162267727890804"><ele>-3.333333333333333</ele><time>2026-04-25T15:04:37Z</time></trkpt><trkpt lat="44.848653364711716" lon="12.162284690207608"><ele>-3.0</ele><time>2026-04-25T15:04:39Z</time></trkpt><trkpt lat="44.84873259676475" lon="12.162301040527927"><ele>-2.6666666666666665</ele><time>2026-04-25T15:04:41Z</time></trkpt><trkpt lat="44.84881309028209" lon="12.162321994073425"><ele>-2.333333333333333</ele><time>2026-04-25T15:04:43Z</time></trkpt><trkpt lat="44.848892182400455" lon="12.162343287960685"><ele>-2.0</ele><time>2026-04-25T15:04:45Z</time></trkpt><trkpt lat="44.84896773234537" lon="12.162360494502174"><ele>-1.9999999999999998</ele><time>2026-04-25T15:04:47Z</time></trkpt><trkpt lat="44.8490540469389" lon="12.162375259710325"><ele>-2.0</ele><time>2026-04-25T15:04:49Z</time></trkpt><trkpt lat="44.84913640723775" lon="12.162392370479935"><ele>-2.0</ele><time>2026-04-25T15:04:51Z</time></trkpt><trkpt lat="44.84921358076676" lon="12.162414180831846"><ele>-2.0</ele><time>2026-04-25T15:04:53Z</time></trkpt><trkpt lat="44.849277589970235" lon="12.162429796091166"><ele>-1.9999999999999998</ele><time>2026-04-25T15:04:55Z</time></trkpt><trkpt lat="44.849349878331815" lon="12.162452323414282"><ele>-2.0</ele><time>2026-04-25T15:04:58Z</time></trkpt><trkpt lat="44.84944446248073" lon="12.162470470602335"><ele>-1.9999999999999998</ele><time>2026-04-25T15:05:01Z</time></trkpt><trkpt lat="44.849515157254956" lon="12.162494272814026"><ele>-2.0</ele><time>2026-04-25T15:05:03Z</time></trkpt><trkpt lat="44.8495887781246" lon="12.162526907743247"><ele>-2.0</ele><time>2026-04-25T15:05:05Z</time></trkpt><trkpt lat="44.849660140271155" lon="12.16254986791669"><ele>-2.0</ele><time>2026-04-25T15:05:07Z</time></trkpt><trkpt lat="44.84974312011005" lon="12.162567024440815"><ele>-1.9999999999999998</ele><time>2026-04-25T15:05:09Z</time></trkpt><trkpt lat="44.84982375773919" lon="12.162599831385387"><ele>-2.0</ele><time>2026-04-25T15:05:11Z</time></trkpt><trkpt lat="44.84990511119847" lon="12.162625767495124"><ele>-2.0</ele><time>2026-04-25T15:05:13Z</time></trkpt><trkpt lat="44.849989395624014" lon="12.16262564362362"><ele>-1.9999999999999998</ele><time>2026-04-25T15:05:15Z</time></trkpt><trkpt lat="44.85006350152332" lon="12.162653176565737"><ele>-2.0</ele><time>2026-04-25T15:05:17Z</time></trkpt><trkpt lat="44.85013488512413" lon="12.162673491274301"><ele>-2.0</ele><time>2026-04-25T15:05:19Z</time></trkpt><trkpt lat="44.85020648081376" lon="12.162690167022122"><ele>-1.9999999999999998</ele><time>2026-04-25T15:05:21Z</time></trkpt><trkpt lat="44.85027984520804" lon="12.162702804030078"><ele>-2.0</ele><time>2026-04-25T15:05:23Z</time></trkpt><trkpt lat="44.85034268023444" lon="12.162723084187927"><ele>-2.0</ele><time>2026-04-25T15:05:25Z</time></trkpt><trkpt lat="44.850408099718" lon="12.162736408692382"><ele>-1.8</ele><time>2026-04-25T15:05:27Z</time></trkpt><trkpt lat="44.850497843628865" lon="12.162760948059526"><ele>-1.6</ele><time>2026-04-25T15:05:30Z</time></trkpt><trkpt lat="44.850583952658326" lon="12.162783617860931"><ele>-1.4000000000000001</ele><time>2026-04-25T15:05:33Z</time></trkpt><trkpt lat="44.85067731928298" lon="12.162804166215896"><ele>-1.2000000000000002</ele><time>2026-04-25T15:05:36Z</time></trkpt><trkpt lat="44.85075766932786" lon="12.162819030737445"><ele>-1.0</ele><time>2026-04-25T15:05:39Z</time></trkpt><trkpt lat="44.85085193852311" lon="12.162841282199777"><ele>-0.9999999999999999</ele><time>2026-04-25T15:05:42Z</time></trkpt><trkpt lat="44.85093562394828" lon="12.162841761112182"><ele>-1.0</ele><time>2026-04-25T15:05:44Z</time></trkpt><trkpt lat="44.85101608298733" lon="12.162872016473724"><ele>-1.0</ele><time>2026-04-25T15:05:46Z</time></trkpt><trkpt lat="44.85109760106323" lon="12.162892382320818"><ele>-1.0</ele><time>2026-04-25T15:05:48Z</time></trkpt><trkpt lat="44.851172731370006" lon="12.162909583307398"><ele>-0.9999999999999999</ele><time>2026-04-25T15:05:50Z</time></trkpt><trkpt lat="44.85124988847701" lon="12.162926240893102"><ele>-1.0</ele><time>2026-04-25T15:05:52Z</time></trkpt><trkpt lat="44.851324557394065" lon="12.162945245635028"><ele>-1.1666666666666665</ele><time>2026-04-25T15:05:54Z</time></trkpt><trkpt lat="44.85139420417095" lon="12.162960406390786"><ele>-1.3333333333333333</ele><time>2026-04-25T15:05:56Z</time></trkpt><trkpt lat="44.85146787989217" lon="12.16297817169261"><ele>-1.5</ele><time>2026-04-25T15:05:58Z</time></trkpt><trkpt lat="44.85154343015493" lon="12.16299844665575"><ele>-1.6666666666666665</ele><time>2026-04-25T15:06:00Z</time></trkpt><trkpt lat="44.851622239336066" lon="12.163017820664232"><ele>-1.8333333333333333</ele><time>2026-04-25T15:06:02Z</time></trkpt><trkpt lat="44.85170450657072" lon="12.16304848003419"><ele>-2.0</ele><time>2026-04-25T15:06:04Z</time></trkpt><trkpt lat="44.85178459718711" lon="12.16308073114664"><ele>-2.1666666666666665</ele><time>2026-04-25T15:06:06Z</time></trkpt><trkpt lat="44.85186955922284" lon="12.163094038977093"><ele>-2.333333333333333</ele><time>2026-04-25T15:06:08Z</time></trkpt><trkpt lat="44.85195494762323" lon="12.163115635720176"><ele>-2.5</ele><time>2026-04-25T15:06:10Z</time></trkpt><trkpt lat="44.85203693035251" lon="12.163134864811552"><ele>-2.6666666666666665</ele><time>2026-04-25T15:06:12Z</time></trkpt><trkpt lat="44.85211880507744" lon="12.163161581897526"><ele>-2.8333333333333335</ele><time>2026-04-25T15:06:14Z</time></trkpt><trkpt lat="44.85220002092252" lon="12.163180401590513"><ele>-3.0</ele><time>2026-04-25T15:06:16Z</time></trkpt><trkpt lat="44.852284257794615" lon="12.1631805530635"><ele>-2.8333333333333335</ele><time>2026-04-25T15:06:18Z</time></trkpt><trkpt lat="44.85236209218961" lon="12.163197566296441"><ele>-2.6666666666666665</ele><time>2026-04-25T15:06:20Z</time></trkpt><trkpt lat="44.852441161789685" lon="12.163219328219743"><ele>-2.5</ele><time>2026-04-25T15:06:22Z</time></trkpt><trkpt lat="44.852516642794996" lon="12.16322723836852"><ele>-2.333333333333333</ele><time>2026-04-25T15:06:24Z</time></trkpt><trkpt lat="44.85259792345847" lon="12.163252833030299"><ele>-2.1666666666666665</ele><time>2026-04-25T15:06:26Z</time></trkpt><trkpt lat="44.852675934694986" lon="12.16328598415938"><ele>-2.0</ele><time>2026-04-25T15:06:28Z</time></trkpt><trkpt lat="44.852758738988086" lon="12.163298119285859"><ele>-2.333333333333333</ele><time>2026-04-25T15:06:30Z</time></trkpt><trkpt lat="44.852853014828916" lon="12.163323754328479"><ele>-2.6666666666666665</ele><time>2026-04-25T15:06:32Z</time></trkpt><trkpt lat="44.85294241548214" lon="12.16335053561296"><ele>-3.0</ele><time>2026-04-25T15:06:34Z</time></trkpt><trkpt lat="44.853024649609104" lon="12.163383691355119"><ele>-3.333333333333333</ele><time>2026-04-25T15:06:36Z</time></trkpt><trkpt lat="44.85310329470771" lon="12.163407594128733"><ele>-3.6666666666666665</ele><time>2026-04-25T15:06:38Z</time></trkpt><trkpt lat="44.853183240966494" lon="12.163425046446534"><ele>-4.0</ele><time>2026-04-25T15:06:40Z</time></trkpt><trkpt lat="44.853261784830536" lon="12.163436788334852"><ele>-3.9999999999999996</ele><time>2026-04-25T15:06:42Z</time></trkpt><trkpt lat="44.85334541693823" lon="12.163456993367035"><ele>-4.0</ele><time>2026-04-25T15:06:44Z</time></trkpt><trkpt lat="44.853427827213324" lon="12.163479947216068"><ele>-4.0</ele><time>2026-04-25T15:06:46Z</time></trkpt><trkpt lat="44.8535060437562" lon="12.16350729085034"><ele>-4.0</ele><time>2026-04-25T15:06:48Z</time></trkpt><trkpt lat="44.85358840602879" lon="12.163522695346474"><ele>-3.9999999999999996</ele><time>2026-04-25T15:06:50Z</time></trkpt><trkpt lat="44.853664946137776" lon="12.163537615071666"><ele>-4.0</ele><time>2026-04-25T15:06:52Z</time></trkpt><trkpt lat="44.85374634229786" lon="12.16355932583089"><ele>-4.166666666666666</ele><time>2026-04-25T15:06:54Z</time></trkpt><trkpt lat="44.85383425767634" lon="12.163560188269177"><ele>-4.333333333333333</ele><time>2026-04-25T15:06:56Z</time></trkpt><trkpt lat="44.853914537346036" lon="12.163592205751621"><ele>-4.5</ele><time>2026-04-25T15:06:58Z</time></trkpt><trkpt lat="44.85399634755828" lon="12.163604037318729"><ele>-4.666666666666667</ele><time>2026-04-25T15:07:00Z</time></trkpt><trkpt lat="44.85407938928144" lon="12.163627026560883"><ele>-4.833333333333334</ele><time>2026-04-25T15:07:02Z</time></trkpt><trkpt lat="44.854164973627036" lon="12.163648500711183"><ele>-5.0</ele><time>2026-04-25T15:07:04Z</time></trkpt><trkpt lat="44.85424304932017" lon="12.163676393722204"><ele>-4.666666666666667</ele><time>2026-04-25T15:07:06Z</time></trkpt><trkpt lat="44.8543158082869" lon="12.163706449352986"><ele>-4.333333333333334</ele><time>2026-04-25T15:07:08Z</time></trkpt><trkpt lat="44.85439924984493" lon="12.163724717036231"><ele>-4.0</ele><time>2026-04-25T15:07:10Z</time></trkpt><trkpt lat="44.85448271431156" lon="12.163747560707654"><ele>-3.666666666666667</ele><time>2026-04-25T15:07:12Z</time></trkpt><trkpt lat="44.854566511844666" lon="12.163766237517098"><ele>-3.3333333333333335</ele><time>2026-04-25T15:07:14Z</time></trkpt><trkpt lat="44.85464878642823" lon="12.163790947835619"><ele>-3.0</ele><time>2026-04-25T15:07:16Z</time></trkpt><trkpt lat="44.854730669137055" lon="12.163813871517766"><ele>-3.0</ele><time>2026-04-25T15:07:18Z</time></trkpt><trkpt lat="44.8548157558633" lon="12.163840236702049"><ele>-3.0</ele><time>2026-04-25T15:07:20Z</time></trkpt><trkpt lat="44.854901718108074" lon="12.163853599569851"><ele>-3.0</ele><time>2026-04-25T15:07:22Z</time></trkpt><trkpt lat="44.854986451164486" lon="12.163877082032492"><ele>-3.0</ele><time>2026-04-25T15:07:24Z</time></trkpt><trkpt lat="44.85506724291756" lon="12.163893473242233"><ele>-3.0</ele><time>2026-04-25T15:07:26Z</time></trkpt><trkpt lat="44.8551433526024" lon="12.163918400242114"><ele>-3.0</ele><time>2026-04-25T15:07:28Z</time></trkpt><trkpt lat="44.85522159642692" lon="12.163931338464968"><ele>-3.0</ele><time>2026-04-25T15:07:30Z</time></trkpt><trkpt lat="44.855301965117874" lon="12.163951467708598"><ele>-3.0</ele><time>2026-04-25T15:07:32Z</time></trkpt><trkpt lat="44.85538669587378" lon="12.163975547584036"><ele>-3.0</ele><time>2026-04-25T15:07:34Z</time></trkpt><trkpt lat="44.85546902680627" lon="12.163993058379486"><ele>-3.0</ele><time>2026-04-25T15:07:36Z</time></trkpt><trkpt lat="44.85555225483786" lon="12.164019063984753"><ele>-3.0</ele><time>2026-04-25T15:07:38Z</time></trkpt><trkpt lat="44.85563410396575" lon="12.16403705811577"><ele>-3.0</ele><time>2026-04-25T15:07:40Z</time></trkpt><trkpt lat="44.85571857656047" lon="12.164062408404293"><ele>-3.0</ele><time>2026-04-25T15:07:42Z</time></trkpt><trkpt lat="44.85580265020161" lon="12.164077737881717"><ele>-3.0</ele><time>2026-04-25T15:07:44Z</time></trkpt><trkpt lat="44.8558901688026" lon="12.164093304633361"><ele>-3.0</ele><time>2026-04-25T15:07:46Z</time></trkpt><trkpt lat="44.85597410909753" lon="12.164123512055216"><ele>-3.0</ele><time>2026-04-25T15:07:48Z</time></trkpt><trkpt lat="44.85606354195892" lon="12.164146734240234"><ele>-3.0</ele><time>2026-04-25T15:07:50Z</time></trkpt><trkpt lat="44.856143944823316" lon="12.16416405776928"><ele>-3.0</ele><time>2026-04-25T15:07:52Z</time></trkpt><trkpt lat="44.85622980048256" lon="12.164190901914933"><ele>-2.8333333333333335</ele><time>2026-04-25T15:07:54Z</time></trkpt><trkpt lat="44.85630713469326" lon="12.164206770980677"><ele>-2.6666666666666665</ele><time>2026-04-25T15:07:56Z</time></trkpt><trkpt lat="44.856390556806325" lon="12.164229487131083"><ele>-2.5</ele><time>2026-04-25T15:07:58Z</time></trkpt><trkpt lat="44.85646888658494" lon="12.1642495038825"><ele>-2.333333333333333</ele><time>2026-04-25T15:08:00Z</time></trkpt><trkpt lat="44.85654669088051" lon="12.164264731585835"><ele>-2.1666666666666665</ele><time>2026-04-25T15:08:02Z</time></trkpt><trkpt lat="44.856626087332806" lon="12.164284819631366"><ele>-2.0</ele><time>2026-04-25T15:08:04Z</time></trkpt><trkpt lat="44.85670414010225" lon="12.164315686449763"><ele>-2.1666666666666665</ele><time>2026-04-25T15:08:06Z</time></trkpt><trkpt lat="44.85678675949892" lon="12.16433181430064"><ele>-2.333333333333333</ele><time>2026-04-25T15:08:08Z</time></trkpt><trkpt lat="44.856866076396614" lon="12.16434928593214"><ele>-2.5</ele><time>2026-04-25T15:08:10Z</time></trkpt><trkpt lat="44.85695074626227" lon="12.164369502533667"><ele>-2.6666666666666665</ele><time>2026-04-25T15:08:12Z</time></trkpt><trkpt lat="44.85702938193284" lon="12.164387667930171"><ele>-2.8333333333333335</ele><time>2026-04-25T15:08:14Z</time></trkpt><trkpt lat="44.85710875667094" lon="12.164406511377905"><ele>-3.0</ele><time>2026-04-25T15:08:16Z</time></trkpt><trkpt lat="44.85719017264387" lon="12.164428955297943"><ele>-3.0</ele><time>2026-04-25T15:08:18Z</time></trkpt><trkpt lat="44.857265687503784" lon="12.164448285993032"><ele>-3.0</ele><time>2026-04-25T15:08:20Z</time></trkpt><trkpt lat="44.857337386071826" lon="12.164454083859544"><ele>-3.0</ele><time>2026-04-25T15:08:22Z</time></trkpt><trkpt lat="44.85740950810286" lon="12.164466853225091"><ele>-3.0</ele><time>2026-04-25T15:08:24Z</time></trkpt><trkpt lat="44.85749007041466" lon="12.164481066166742"><ele>-3.0</ele><time>2026-04-25T15:08:26Z</time></trkpt><trkpt lat="44.85757265060665" lon="12.164506637075936"><ele>-3.0</ele><time>2026-04-25T15:08:28Z</time></trkpt><trkpt lat="44.85765697329417" lon="12.164545375610347"><ele>-3.0</ele><time>2026-04-25T15:08:30Z</time></trkpt><trkpt lat="44.85773363492503" lon="12.16456481559947"><ele>-3.0</ele><time>2026-04-25T15:08:32Z</time></trkpt><trkpt lat="44.857813714374004" lon="12.164576016268414"><ele>-3.0</ele><time>2026-04-25T15:08:34Z</time></trkpt><trkpt lat="44.85789270006999" lon="12.164598338458118"><ele>-3.0</ele><time>2026-04-25T15:08:36Z</time></trkpt><trkpt lat="44.85797236712894" lon="12.164606472745103"><ele>-3.0</ele><time>2026-04-25T15:08:38Z</time></trkpt><trkpt lat="44.85804764740475" lon="12.1646351012832"><ele>-3.0</ele><time>2026-04-25T15:08:40Z</time></trkpt><trkpt lat="44.85812738682945" lon="12.164639680013837"><ele>-3.0</ele><time>2026-04-25T15:08:42Z</time></trkpt><trkpt lat="44.858205578806995" lon="12.164673409900814"><ele>-3.0</ele><time>2026-04-25T15:08:44Z</time></trkpt><trkpt lat="44.85828772611126" lon="12.164688255956078"><ele>-3.0</ele><time>2026-04-25T15:08:46Z</time></trkpt><trkpt lat="44.85837169741256" lon="12.16469669916025"><ele>-3.0</ele><time>2026-04-25T15:08:48Z</time></trkpt><trkpt lat="44.85845291932718" lon="12.164715750103403"><ele>-3.0</ele><time>2026-04-25T15:08:50Z</time></trkpt><trkpt lat="44.858537334103" lon="12.164723538771735"><ele>-3.0</ele><time>2026-04-25T15:08:52Z</time></trkpt><trkpt lat="44.85861214268908" lon="12.164751210509335"><ele>-3.0</ele><time>2026-04-25T15:08:54Z</time></trkpt><trkpt lat="44.85868475793296" lon="12.164777252125766"><ele>-3.0</ele><time>2026-04-25T15:08:56Z</time></trkpt><trkpt lat="44.858752481060506" lon="12.164793579181296"><ele>-3.0</ele><time>2026-04-25T15:08:58Z</time></trkpt><trkpt lat="44.85882066348634" lon="12.16480084426842"><ele>-3.0</ele><time>2026-04-25T15:09:00Z</time></trkpt><trkpt lat="44.858882620783326" lon="12.164830774765049"><ele>-3.0</ele><time>2026-04-25T15:09:02Z</time></trkpt><trkpt lat="44.85897268670289" lon="12.16484751909008"><ele>-3.0</ele><time>2026-04-25T15:09:05Z</time></trkpt><trkpt lat="44.859058570934565" lon="12.164885433526354"><ele>-2.714285714285714</ele><time>2026-04-25T15:09:08Z</time></trkpt><trkpt lat="44.859121728723174" lon="12.164905985566188"><ele>-2.4285714285714284</ele><time>2026-04-25T15:09:10Z</time></trkpt><trkpt lat="44.8591538428648" lon="12.164994042218627"><ele>-2.142857142857143</ele><time>2026-04-25T15:09:15Z</time></trkpt><trkpt lat="44.859166930233464" lon="12.16508254536082"><ele>-1.857142857142857</ele><time>2026-04-25T15:09:18Z</time></trkpt><trkpt lat="44.85910952140879" lon="12.165184123269107"><ele>-1.5714285714285712</ele><time>2026-04-25T15:09:20Z</time></trkpt><trkpt lat="44.859061022152346" lon="12.165268993356309"><ele>-1.2857142857142856</ele><time>2026-04-25T15:09:22Z</time></trkpt><trkpt lat="44.85902094190061" lon="12.16535996441435"><ele>-1.0</ele><time>2026-04-25T15:09:24Z</time></trkpt><trkpt lat="44.85897737735236" lon="12.165431527748252"><ele>-1.0</ele><time>2026-04-25T15:09:26Z</time></trkpt><trkpt lat="44.85895059374266" lon="12.16551284033628"><ele>-0.9999999999999999</ele><time>2026-04-25T15:09:28Z</time></trkpt><trkpt lat="44.85896009337066" lon="12.165606309753981"><ele>-1.0</ele><time>2026-04-25T15:09:30Z</time></trkpt><trkpt lat="44.85903740483622" lon="12.165654611969332"><ele>-1.0</ele><time>2026-04-25T15:09:32Z</time></trkpt><trkpt lat="44.85909420516487" lon="12.165695115876776"><ele>-0.9999999999999999</ele><time>2026-04-25T15:09:34Z</time></trkpt><trkpt lat="44.85914854815691" lon="12.165617314177307"><ele>-1.0</ele><time>2026-04-25T15:09:36Z</time></trkpt><trkpt lat="44.85918783101089" lon="12.165513091031567"><ele>-1.0</ele><time>2026-04-25T15:09:38Z</time></trkpt><trkpt lat="44.85923564276271" lon="12.165421167183535"><ele>-0.9999999999999999</ele><time>2026-04-25T15:09:40Z</time></trkpt><trkpt lat="44.859290879029494" lon="12.165328484485936"><ele>-1.0</ele><time>2026-04-25T15:09:42Z</time></trkpt><trkpt lat="44.859337057857246" lon="12.165220324221098"><ele>-1.0</ele><time>2026-04-25T15:09:44Z</time></trkpt><trkpt lat="44.85938931093714" lon="12.165123341481836"><ele>-1.0</ele><time>2026-04-25T15:09:46Z</time></trkpt><trkpt lat="44.85944879711517" lon="12.165036108006781"><ele>-0.9999999999999999</ele><time>2026-04-25T15:09:48Z</time></trkpt><trkpt lat="44.859494195243414" lon="12.1649395139328"><ele>-1.0</ele><time>2026-04-25T15:09:50Z</time></trkpt><trkpt lat="44.85954198168881" lon="12.164842934775484"><ele>-0.9999999999999999</ele><time>2026-04-25T15:09:52Z</time></trkpt><trkpt lat="44.859590167254254" lon="12.164742806352578"><ele>-1.0</ele><time>2026-04-25T15:09:54Z</time></trkpt><trkpt lat="44.85964751215035" lon="12.164654482228098"><ele>-1.0</ele><time>2026-04-25T15:09:56Z</time></trkpt><trkpt lat="44.85969662971984" lon="12.164550834533578"><ele>-1.0</ele><time>2026-04-25T15:09:58Z</time></trkpt><trkpt lat="44.85975374979953" lon="12.16445967743508"><ele>-0.9999999999999999</ele><time>2026-04-25T15:10:00Z</time></trkpt><trkpt lat="44.85980013469074" lon="12.16436442709295"><ele>-1.0</ele><time>2026-04-25T15:10:02Z</time></trkpt><trkpt lat="44.859853181142995" lon="12.164278978730144"><ele>-0.9999999999999999</ele><time>2026-04-25T15:10:04Z</time></trkpt><trkpt lat="44.85989254300316" lon="12.164180890866117"><ele>-1.0</ele><time>2026-04-25T15:10:06Z</time></trkpt><trkpt lat="44.85994025581128" lon="12.164097756572087"><ele>-1.0</ele><time>2026-04-25T15:10:08Z</time></trkpt><trkpt lat="44.859975943258966" lon="12.164005697142706"><ele>-1.0</ele><time>2026-04-25T15:10:10Z</time></trkpt><trkpt lat="44.86000460091553" lon="12.16391537271244"><ele>-0.9999999999999999</ele><time>2026-04-25T15:10:12Z</time></trkpt><trkpt lat="44.86003760576403" lon="12.163819374441335"><ele>-1.0</ele><time>2026-04-25T15:10:14Z</time></trkpt><trkpt lat="44.86005269658503" lon="12.163708200690577"><ele>-0.9999999999999999</ele><time>2026-04-25T15:10:16Z</time></trkpt><trkpt lat="44.86006486258132" lon="12.16358822445376"><ele>-1.0</ele><time>2026-04-25T15:10:18Z</time></trkpt><trkpt lat="44.86007906410968" lon="12.163468705578504"><ele>-1.0</ele><time>2026-04-25T15:10:20Z</time></trkpt><trkpt lat="44.86008635169029" lon="12.163348140748099"><ele>-1.0</ele><time>2026-04-25T15:10:22Z</time></trkpt><trkpt lat="44.860093670685366" lon="12.163228251763012"><ele>-0.9999999999999999</ele><time>2026-04-25T15:10:24Z</time></trkpt><trkpt lat="44.860108992191165" lon="12.163113952243126"><ele>-1.0</ele><time>2026-04-25T15:10:26Z</time></trkpt><trkpt lat="44.86011037053719" lon="12.16299402521001"><ele>-1.1666666666666665</ele><time>2026-04-25T15:10:28Z</time></trkpt><trkpt lat="44.860120285731476" lon="12.16287889014241"><ele>-1.3333333333333333</ele><time>2026-04-25T15:10:30Z</time></trkpt><trkpt lat="44.860134265280145" lon="12.162763914477608"><ele>-1.5</ele><time>2026-04-25T15:10:32Z</time></trkpt><trkpt lat="44.86014303327375" lon="12.162644786285226"><ele>-1.6666666666666665</ele><time>2026-04-25T15:10:34Z</time></trkpt><trkpt lat="44.86015107024097" lon="12.162520533867315"><ele>-1.8333333333333333</ele><time>2026-04-25T15:10:36Z</time></trkpt><trkpt lat="44.86017387824311" lon="12.162404058396618"><ele>-2.0</ele><time>2026-04-25T15:10:38Z</time></trkpt><trkpt lat="44.860185278920916" lon="12.162288302314218"><ele>-2.1666666666666665</ele><time>2026-04-25T15:10:40Z</time></trkpt><trkpt lat="44.86019678134251" lon="12.162176055170056"><ele>-2.333333333333333</ele><time>2026-04-25T15:10:42Z</time></trkpt><trkpt lat="44.8602134132045" lon="12.162070900229036"><ele>-2.5</ele><time>2026-04-25T15:10:44Z</time></trkpt><trkpt lat="44.86022344148492" lon="12.16195549035234"><ele>-2.6666666666666665</ele><time>2026-04-25T15:10:46Z</time></trkpt><trkpt lat="44.86023512456301" lon="12.161835316369453"><ele>-2.8333333333333335</ele><time>2026-04-25T15:10:48Z</time></trkpt><trkpt lat="44.86024860725401" lon="12.161714230818774"><ele>-3.0</ele><time>2026-04-25T15:10:50Z</time></trkpt><trkpt lat="44.86026144137679" lon="12.161595038153825"><ele>-3.1666666666666665</ele><time>2026-04-25T15:10:52Z</time></trkpt><trkpt lat="44.860276341546545" lon="12.16147711969463"><ele>-3.333333333333333</ele><time>2026-04-25T15:10:54Z</time></trkpt><trkpt lat="44.860290444077606" lon="12.161359197113157"><ele>-3.5</ele><time>2026-04-25T15:10:56Z</time></trkpt><trkpt lat="44.86030358466179" lon="12.161229421778954"><ele>-3.6666666666666665</ele><time>2026-04-25T15:10:58Z</time></trkpt><trkpt lat="44.86031853888228" lon="12.161103846188825"><ele>-3.833333333333333</ele><time>2026-04-25T15:11:00Z</time></trkpt><trkpt lat="44.86033218877594" lon="12.160982889965883"><ele>-4.0</ele><time>2026-04-25T15:11:02Z</time></trkpt><trkpt lat="44.860349947132846" lon="12.160868692951786"><ele>-3.9999999999999996</ele><time>2026-04-25T15:11:04Z</time></trkpt><trkpt lat="44.860356605672656" lon="12.160747783727508"><ele>-4.0</ele><time>2026-04-25T15:11:06Z</time></trkpt><trkpt lat="44.86036237860236" lon="12.16062397778241"><ele>-4.0</ele><time>2026-04-25T15:11:08Z</time></trkpt><trkpt lat="44.86037893737849" lon="12.160502407615223"><ele>-4.0</ele><time>2026-04-25T15:11:10Z</time></trkpt><trkpt lat="44.86038593349867" lon="12.160386604742264"><ele>-3.9999999999999996</ele><time>2026-04-25T15:11:12Z</time></trkpt><trkpt lat="44.860393363388326" lon="12.160269443173844"><ele>-4.0</ele><time>2026-04-25T15:11:14Z</time></trkpt><trkpt lat="44.86040811077777" lon="12.160161516249259"><ele>-3.333333333333333</ele><time>2026-04-25T15:11:16Z</time></trkpt><trkpt lat="44.86042248472357" lon="12.160042753013665"><ele>-2.6666666666666665</ele><time>2026-04-25T15:11:18Z</time></trkpt><trkpt lat="44.86044017519362" lon="12.159922243357205"><ele>-2.0</ele><time>2026-04-25T15:11:20Z</time></trkpt><trkpt lat="44.86044966942025" lon="12.15980220255268"><ele>-1.3333333333333333</ele><time>2026-04-25T15:11:22Z</time></trkpt><trkpt lat="44.8604572827537" lon="12.159676169174585"><ele>-0.6666666666666666</ele><time>2026-04-25T15:11:24Z</time></trkpt><trkpt lat="44.86047153345551" lon="12.159556024994334"><ele>0.0</ele><time>2026-04-25T15:11:26Z</time></trkpt><trkpt lat="44.860480102864116" lon="12.1594308852929"><ele>0.0</ele><time>2026-04-25T15:11:28Z</time></trkpt><trkpt lat="44.86049496598015" lon="12.159299024688043"><ele>0.0</ele><time>2026-04-25T15:11:30Z</time></trkpt><trkpt lat="44.86050435851613" lon="12.15916203723623"><ele>0.0</ele><time>2026-04-25T15:11:32Z</time></trkpt><trkpt lat="44.86051488101724" lon="12.159024914548747"><ele>0.0</ele><time>2026-04-25T15:11:34Z</time></trkpt><trkpt lat="44.86053403719514" lon="12.158896118609082"><ele>0.0</ele><time>2026-04-25T15:11:36Z</time></trkpt><trkpt lat="44.86054917910564" lon="12.158770677199614"><ele>-0.16666666666666666</ele><time>2026-04-25T15:11:38Z</time></trkpt><trkpt lat="44.860571744143535" lon="12.158654286067142"><ele>-0.3333333333333333</ele><time>2026-04-25T15:11:40Z</time></trkpt><trkpt lat="44.860588762993444" lon="12.158545114737993"><ele>-0.5</ele><time>2026-04-25T15:11:42Z</time></trkpt><trkpt lat="44.86060436704423" lon="12.15843361239376"><ele>-0.6666666666666666</ele><time>2026-04-25T15:11:44Z</time></trkpt><trkpt lat="44.86062574738086" lon="12.158305872758483"><ele>-0.8333333333333333</ele><time>2026-04-25T15:11:46Z</time></trkpt><trkpt lat="44.860637822420856" lon="12.158178763112858"><ele>-1.0</ele><time>2026-04-25T15:11:48Z</time></trkpt><trkpt lat="44.86066358682823" lon="12.158066007027436"><ele>-1.0</ele><time>2026-04-25T15:11:50Z</time></trkpt><trkpt lat="44.860673545521145" lon="12.157942222283157"><ele>-1.0</ele><time>2026-04-25T15:11:52Z</time></trkpt><trkpt lat="44.86069441389229" lon="12.157817543393676"><ele>-1.0</ele><time>2026-04-25T15:11:54Z</time></trkpt><trkpt lat="44.86071146362152" lon="12.15768776876204"><ele>-1.0</ele><time>2026-04-25T15:11:56Z</time></trkpt><trkpt lat="44.86072098124527" lon="12.157552248696483"><ele>-1.0</ele><time>2026-04-25T15:11:58Z</time></trkpt><trkpt lat="44.860735953312094" lon="12.157423315254833"><ele>-1.0</ele><time>2026-04-25T15:12:00Z</time></trkpt><trkpt lat="44.86074906468324" lon="12.157297427397328"><ele>-1.0</ele><time>2026-04-25T15:12:02Z</time></trkpt><trkpt lat="44.860757396224116" lon="12.157162568447184"><ele>-1.0</ele><time>2026-04-25T15:12:04Z</time></trkpt><trkpt lat="44.8607708674536" lon="12.157028257235405"><ele>-1.0</ele><time>2026-04-25T15:12:06Z</time></trkpt><trkpt lat="44.860789376020996" lon="12.15689554715029"><ele>-1.0</ele><time>2026-04-25T15:12:08Z</time></trkpt><trkpt lat="44.86080488642549" lon="12.156757516740113"><ele>-1.0</ele><time>2026-04-25T15:12:10Z</time></trkpt><trkpt lat="44.86081068018507" lon="12.156618862168507"><ele>-1.0</ele><time>2026-04-25T15:12:12Z</time></trkpt><trkpt lat="44.86083228540135" lon="12.15649627251631"><ele>-1.0</ele><time>2026-04-25T15:12:14Z</time></trkpt><trkpt lat="44.86084751811763" lon="12.15636333337095"><ele>-1.0</ele><time>2026-04-25T15:12:16Z</time></trkpt><trkpt lat="44.86085928969495" lon="12.156222757395822"><ele>-1.0</ele><time>2026-04-25T15:12:18Z</time></trkpt><trkpt lat="44.86087603832422" lon="12.156085513208293"><ele>-0.9999999999999999</ele><time>2026-04-25T15:12:20Z</time></trkpt><trkpt lat="44.86088757843851" lon="12.155953135750734"><ele>-1.0</ele><time>2026-04-25T15:12:22Z</time></trkpt><trkpt lat="44.860903594960504" lon="12.155823534170613"><ele>-1.0</ele><time>2026-04-25T15:12:24Z</time></trkpt><trkpt lat="44.8609234238722" lon="12.155703782209748"><ele>-1.0</ele><time>2026-04-25T15:12:26Z</time></trkpt><trkpt lat="44.860938346233375" lon="12.155585859796496"><ele>-0.9999999999999999</ele><time>2026-04-25T15:12:28Z</time></trkpt><trkpt lat="44.86094935451292" lon="12.155468735053109"><ele>-1.0</ele><time>2026-04-25T15:12:30Z</time></trkpt><trkpt lat="44.860964495990125" lon="12.155362529945243"><ele>-0.8333333333333333</ele><time>2026-04-25T15:12:32Z</time></trkpt><trkpt lat="44.86097414014405" lon="12.155258653613998"><ele>-0.6666666666666666</ele><time>2026-04-25T15:12:34Z</time></trkpt><trkpt lat="44.86099294984234" lon="12.15516088356688"><ele>-0.5</ele><time>2026-04-25T15:12:35.999Z</time></trkpt><trkpt lat="44.86100426672773" lon="12.155064854056837"><ele>-0.3333333333333333</ele><time>2026-04-25T15:12:37.999Z</time></trkpt><trkpt lat="44.8610178069736" lon="12.154965688196171"><ele>-0.16666666666666666</ele><time>2026-04-25T15:12:39.999Z</time></trkpt><trkpt lat="44.861029811849455" lon="12.154842756459512"><ele>0.0</ele><time>2026-04-25T15:12:41.999Z</time></trkpt><trkpt lat="44.86104990263199" lon="12.154711357532124"><ele>0.0</ele><time>2026-04-25T15:12:44Z</time></trkpt><trkpt lat="44.86106293111886" lon="12.154576634896609"><ele>0.0</ele><time>2026-04-25T15:12:46Z</time></trkpt><trkpt lat="44.86108123221372" lon="12.154440215869881"><ele>0.0</ele><time>2026-04-25T15:12:48Z</time></trkpt><trkpt lat="44.861096250801" lon="12.154302298025636"><ele>0.0</ele><time>2026-04-25T15:12:50Z</time></trkpt><trkpt lat="44.8611124136386" lon="12.154163862567374"><ele>0.0</ele><time>2026-04-25T15:12:52Z</time></trkpt><trkpt lat="44.86111891136561" lon="12.154024484734595"><ele>0.0</ele><time>2026-04-25T15:12:54Z</time></trkpt><trkpt lat="44.86114297047433" lon="12.153892061116899"><ele>0.0</ele><time>2026-04-25T15:12:56Z</time></trkpt><trkpt lat="44.861162597084494" lon="12.153765169939334"><ele>0.0</ele><time>2026-04-25T15:12:58Z</time></trkpt><trkpt lat="44.86117304784494" lon="12.153641131703857"><ele>0.0</ele><time>2026-04-25T15:13:00Z</time></trkpt><trkpt lat="44.86118882866054" lon="12.153511556074514"><ele>0.0</ele><time>2026-04-25T15:13:02Z</time></trkpt><trkpt lat="44.86120814383714" lon="12.153378828007956"><ele>0.0</ele><time>2026-04-25T15:13:04Z</time></trkpt><trkpt lat="44.861222092686276" lon="12.153239793318686"><ele>0.0</ele><time>2026-04-25T15:13:06Z</time></trkpt><trkpt lat="44.861231270637354" lon="12.153106477851098"><ele>0.0</ele><time>2026-04-25T15:13:08Z</time></trkpt><trkpt lat="44.86125581213325" lon="12.15297885302194"><ele>0.0</ele><time>2026-04-25T15:13:10Z</time></trkpt><trkpt lat="44.86126587006612" lon="12.152848812300219"><ele>0.0</ele><time>2026-04-25T15:13:12Z</time></trkpt><trkpt lat="44.8612809989974" lon="12.152725620528608"><ele>0.0</ele><time>2026-04-25T15:13:14Z</time></trkpt><trkpt lat="44.8612912804194" lon="12.152606683061851"><ele>0.0</ele><time>2026-04-25T15:13:16Z</time></trkpt><trkpt lat="44.86130645661445" lon="12.152487555194533"><ele>0.0</ele><time>2026-04-25T15:13:18Z</time></trkpt><trkpt lat="44.86131271402208" lon="12.152371328818523"><ele>0.0</ele><time>2026-04-25T15:13:20Z</time></trkpt><trkpt lat="44.86132574409417" lon="12.152262605314572"><ele>0.0</ele><time>2026-04-25T15:13:22Z</time></trkpt><trkpt lat="44.86133591988916" lon="12.152157877325278"><ele>0.0</ele><time>2026-04-25T15:13:24Z</time></trkpt><trkpt lat="44.86136089680437" lon="12.15206276615153"><ele>0.0</ele><time>2026-04-25T15:13:26Z</time></trkpt><trkpt lat="44.8613692157206" lon="12.151963065120851"><ele>0.0</ele><time>2026-04-25T15:13:28Z</time></trkpt><trkpt lat="44.861373646346316" lon="12.151834969842032"><ele>0.0</ele><time>2026-04-25T15:13:30Z</time></trkpt><trkpt lat="44.86138699986205" lon="12.151720645803799"><ele>0.0</ele><time>2026-04-25T15:13:32Z</time></trkpt><trkpt lat="44.86140701933223" lon="12.15161995262154"><ele>0.0</ele><time>2026-04-25T15:13:34Z</time></trkpt><trkpt lat="44.86141549991139" lon="12.151502286131523"><ele>0.0</ele><time>2026-04-25T15:13:36Z</time></trkpt><trkpt lat="44.86142129109876" lon="12.151373238660396"><ele>0.0</ele><time>2026-04-25T15:13:38Z</time></trkpt><trkpt lat="44.861436879824545" lon="12.15125378590566"><ele>0.0</ele><time>2026-04-25T15:13:40Z</time></trkpt><trkpt lat="44.8614536173699" lon="12.151142583622079"><ele>0.0</ele><time>2026-04-25T15:13:42Z</time></trkpt><trkpt lat="44.861463822164005" lon="12.151033652239173"><ele>0.0</ele><time>2026-04-25T15:13:44Z</time></trkpt><trkpt lat="44.86147647442249" lon="12.15093398225253"><ele>0.0</ele><time>2026-04-25T15:13:46Z</time></trkpt><trkpt lat="44.86147000839123" lon="12.150835286660936"><ele>0.0</ele><time>2026-04-25T15:13:48Z</time></trkpt><trkpt lat="44.861497835165686" lon="12.150720755448202"><ele>0.0</ele><time>2026-04-25T15:13:50Z</time></trkpt><trkpt lat="44.861524938105255" lon="12.150598179050137"><ele>0.0</ele><time>2026-04-25T15:13:52Z</time></trkpt><trkpt lat="44.86153877517055" lon="12.150487016558658"><ele>0.0</ele><time>2026-04-25T15:13:54Z</time></trkpt><trkpt lat="44.861553909239994" lon="12.150378938050306"><ele>0.0</ele><time>2026-04-25T15:13:56Z</time></trkpt><trkpt lat="44.8615619053982" lon="12.150260141131206"><ele>0.0</ele><time>2026-04-25T15:13:58Z</time></trkpt><trkpt lat="44.86157450749785" lon="12.15013075630647"><ele>0.0</ele><time>2026-04-25T15:14:00Z</time></trkpt><trkpt lat="44.861588445525626" lon="12.150013347671797"><ele>0.0</ele><time>2026-04-25T15:14:02Z</time></trkpt><trkpt lat="44.86159951129495" lon="12.149893251734598"><ele>0.0</ele><time>2026-04-25T15:14:04Z</time></trkpt><trkpt lat="44.86161314511346" lon="12.149782234102302"><ele>0.0</ele><time>2026-04-25T15:14:06Z</time></trkpt><trkpt lat="44.86162563964648" lon="12.149674685384586"><ele>0.0</ele><time>2026-04-25T15:14:08Z</time></trkpt><trkpt lat="44.861628663577" lon="12.149573751001958"><ele>0.0</ele><time>2026-04-25T15:14:10Z</time></trkpt><trkpt lat="44.86164228235051" lon="12.149466673731629"><ele>0.0</ele><time>2026-04-25T15:14:12Z</time></trkpt><trkpt lat="44.86165447727748" lon="12.149364262075007"><ele>0.0</ele><time>2026-04-25T15:14:14Z</time></trkpt><trkpt lat="44.86166827392452" lon="12.149273911665436"><ele>0.0</ele><time>2026-04-25T15:14:16Z</time></trkpt><trkpt lat="44.861682466525174" lon="12.149175294694366"><ele>0.0</ele><time>2026-04-25T15:14:18Z</time></trkpt><trkpt lat="44.86169976527921" lon="12.149059577992345"><ele>0.0</ele><time>2026-04-25T15:14:20Z</time></trkpt><trkpt lat="44.86170986083694" lon="12.14892801188018"><ele>0.0</ele><time>2026-04-25T15:14:22Z</time></trkpt><trkpt lat="44.861715395599184" lon="12.14880097778585"><ele>0.0</ele><time>2026-04-25T15:14:24Z</time></trkpt><trkpt lat="44.86172680533731" lon="12.148687464813957"><ele>-0.3333333333333333</ele><time>2026-04-25T15:14:26Z</time></trkpt><trkpt lat="44.861741790354394" lon="12.148563423306268"><ele>-0.6666666666666666</ele><time>2026-04-25T15:14:28Z</time></trkpt><trkpt lat="44.86175320983297" lon="12.14844272460296"><ele>-1.0</ele><time>2026-04-25T15:14:30Z</time></trkpt><trkpt lat="44.86176469454005" lon="12.148322610122733"><ele>-1.3333333333333333</ele><time>2026-04-25T15:14:32Z</time></trkpt><trkpt lat="44.86177014537852" lon="12.14820628310106"><ele>-1.6666666666666665</ele><time>2026-04-25T15:14:34Z</time></trkpt><trkpt lat="44.861788351779985" lon="12.148090479199686"><ele>-2.0</ele><time>2026-04-25T15:14:35.999Z</time></trkpt><trkpt lat="44.86179982306727" lon="12.147974066422625"><ele>-1.9999999999999998</ele><time>2026-04-25T15:14:37.999Z</time></trkpt><trkpt lat="44.86181515395163" lon="12.147854029129114"><ele>-2.0</ele><time>2026-04-25T15:14:39.999Z</time></trkpt><trkpt lat="44.86182707758288" lon="12.147734601146398"><ele>-2.0</ele><time>2026-04-25T15:14:41.999Z</time></trkpt><trkpt lat="44.861841061371855" lon="12.14761134094323"><ele>-2.0</ele><time>2026-04-25T15:14:43.999Z</time></trkpt><trkpt lat="44.86185051563422" lon="12.14748596596097"><ele>-1.9999999999999998</ele><time>2026-04-25T15:14:45.999Z</time></trkpt><trkpt lat="44.86186620179993" lon="12.147362293180219"><ele>-2.0</ele><time>2026-04-25T15:14:47.999Z</time></trkpt><trkpt lat="44.86188064551133" lon="12.147230189809273"><ele>-2.2</ele><time>2026-04-25T15:14:50Z</time></trkpt><trkpt lat="44.86189498284839" lon="12.147099785763087"><ele>-2.4000000000000004</ele><time>2026-04-25T15:14:52Z</time></trkpt><trkpt lat="44.86191149609751" lon="12.146971577004146"><ele>-2.5999999999999996</ele><time>2026-04-25T15:14:54Z</time></trkpt><trkpt lat="44.861919797171325" lon="12.146839410924438"><ele>-2.8</ele><time>2026-04-25T15:14:56Z</time></trkpt><trkpt lat="44.86193057882634" lon="12.14670870186146"><ele>-3.0</ele><time>2026-04-25T15:14:58Z</time></trkpt><trkpt lat="44.86194532345562" lon="12.14657629259481"><ele>-2.8</ele><time>2026-04-25T15:15:00Z</time></trkpt><trkpt lat="44.86195141500938" lon="12.146439999420133"><ele>-2.5999999999999996</ele><time>2026-04-25T15:15:02Z</time></trkpt><trkpt lat="44.861966284691064" lon="12.146304711478066"><ele>-2.4000000000000004</ele><time>2026-04-25T15:15:04Z</time></trkpt><trkpt lat="44.861975790980196" lon="12.146174424623458"><ele>-2.2</ele><time>2026-04-25T15:15:06Z</time></trkpt><trkpt lat="44.86198520048204" lon="12.146047402846602"><ele>-2.0</ele><time>2026-04-25T15:15:08Z</time></trkpt><trkpt lat="44.8620018087821" lon="12.145925704151303"><ele>-1.9999999999999998</ele><time>2026-04-25T15:15:10Z</time></trkpt><trkpt lat="44.862015419756126" lon="12.145805528902757"><ele>-2.0</ele><time>2026-04-25T15:15:12Z</time></trkpt><trkpt lat="44.862018408850865" lon="12.145691761081382"><ele>-2.0</ele><time>2026-04-25T15:15:14Z</time></trkpt><trkpt lat="44.86202748853913" lon="12.145574062269185"><ele>-2.0</ele><time>2026-04-25T15:15:16Z</time></trkpt><trkpt lat="44.86204623042229" lon="12.14544513215101"><ele>-1.9999999999999998</ele><time>2026-04-25T15:15:18Z</time></trkpt><trkpt lat="44.86205973020878" lon="12.145318480925956"><ele>-2.0</ele><time>2026-04-25T15:15:20Z</time></trkpt><trkpt lat="44.86207168230287" lon="12.145192569876878"><ele>-1.9999999999999998</ele><time>2026-04-25T15:15:22Z</time></trkpt><trkpt lat="44.86208826098516" lon="12.145069517160163"><ele>-2.0</ele><time>2026-04-25T15:15:24Z</time></trkpt><trkpt lat="44.86209752281281" lon="12.144945057548187"><ele>-2.0</ele><time>2026-04-25T15:15:26Z</time></trkpt><trkpt lat="44.86211479173019" lon="12.144823659131035"><ele>-2.0</ele><time>2026-04-25T15:15:28Z</time></trkpt><trkpt lat="44.86212593797572" lon="12.144699685322356"><ele>-1.9999999999999998</ele><time>2026-04-25T15:15:30Z</time></trkpt><trkpt lat="44.86214186359961" lon="12.144574955035203"><ele>-2.0</ele><time>2026-04-25T15:15:32Z</time></trkpt><trkpt lat="44.86215175750613" lon="12.144441067180413"><ele>-2.6</ele><time>2026-04-25T15:15:34Z</time></trkpt><trkpt lat="44.862174065050176" lon="12.144304352299187"><ele>-3.2</ele><time>2026-04-25T15:15:36Z</time></trkpt><trkpt lat="44.86218584142711" lon="12.144162858063481"><ele>-3.8</ele><time>2026-04-25T15:15:38Z</time></trkpt><trkpt lat="44.8622088403202" lon="12.14402082272771"><ele>-4.4</ele><time>2026-04-25T15:15:40Z</time></trkpt><trkpt lat="44.862225862369606" lon="12.143886787364284"><ele>-5.0</ele><time>2026-04-25T15:15:42Z</time></trkpt><trkpt lat="44.862236848828644" lon="12.14375626150029"><ele>-5.2</ele><time>2026-04-25T15:15:44Z</time></trkpt><trkpt lat="44.862252300968294" lon="12.143624980811127"><ele>-5.4</ele><time>2026-04-25T15:15:46Z</time></trkpt><trkpt lat="44.86226581281508" lon="12.143496813749357"><ele>-5.6</ele><time>2026-04-25T15:15:48Z</time></trkpt><trkpt lat="44.86228157926241" lon="12.143369137180729"><ele>-5.8</ele><time>2026-04-25T15:15:50Z</time></trkpt><trkpt lat="44.862292786095814" lon="12.14324550872438"><ele>-6.0</ele><time>2026-04-25T15:15:52Z</time></trkpt><trkpt lat="44.862308019759816" lon="12.143115430215154"><ele>-6.199999999999999</ele><time>2026-04-25T15:15:54Z</time></trkpt><trkpt lat="44.86232139340165" lon="12.142981116632246"><ele>-6.3999999999999995</ele><time>2026-04-25T15:15:56Z</time></trkpt><trkpt lat="44.862336989880525" lon="12.14284653272654"><ele>-6.6</ele><time>2026-04-25T15:15:58Z</time></trkpt><trkpt lat="44.86235288731854" lon="12.142711572061819"><ele>-6.8</ele><time>2026-04-25T15:16:00Z</time></trkpt><trkpt lat="44.86237161978897" lon="12.142576630436123"><ele>-7.0</ele><time>2026-04-25T15:16:02Z</time></trkpt><trkpt lat="44.86238430697757" lon="12.142440896366741"><ele>-6.8</ele><time>2026-04-25T15:16:04Z</time></trkpt><trkpt lat="44.86239882374638" lon="12.142304991120971"><ele>-6.6</ele><time>2026-04-25T15:16:06Z</time></trkpt><trkpt lat="44.86241276118491" lon="12.142167512868529"><ele>-6.3999999999999995</ele><time>2026-04-25T15:16:08Z</time></trkpt><trkpt lat="44.862424588186954" lon="12.142033516956216"><ele>-6.199999999999999</ele><time>2026-04-25T15:16:10Z</time></trkpt><trkpt lat="44.86243831013621" lon="12.141906149727971"><ele>-6.0</ele><time>2026-04-25T15:16:12Z</time></trkpt><trkpt lat="44.86245500543325" lon="12.141779169938376"><ele>-6.0</ele><time>2026-04-25T15:16:14Z</time></trkpt><trkpt lat="44.86246973139021" lon="12.14165623757098"><ele>-6.0</ele><time>2026-04-25T15:16:16Z</time></trkpt><trkpt lat="44.862479897666326" lon="12.141537985424476"><ele>-6.0</ele><time>2026-04-25T15:16:18Z</time></trkpt><trkpt lat="44.86249045918203" lon="12.141422594286045"><ele>-6.0</ele><time>2026-04-25T15:16:20Z</time></trkpt><trkpt lat="44.86250161862219" lon="12.141310144093158"><ele>-6.0</ele><time>2026-04-25T15:16:22Z</time></trkpt><trkpt lat="44.86251898863537" lon="12.14119456560336"><ele>-6.0</ele><time>2026-04-25T15:16:24Z</time></trkpt><trkpt lat="44.86253042401573" lon="12.141060620933954"><ele>-6.0</ele><time>2026-04-25T15:16:26Z</time></trkpt><trkpt lat="44.862542386876754" lon="12.140935580316812"><ele>-6.0</ele><time>2026-04-25T15:16:28Z</time></trkpt><trkpt lat="44.86255661624058" lon="12.14080959228611"><ele>-6.0</ele><time>2026-04-25T15:16:30Z</time></trkpt><trkpt lat="44.86256868022088" lon="12.140685684270565"><ele>-6.0</ele><time>2026-04-25T15:16:32Z</time></trkpt><trkpt lat="44.862584321977785" lon="12.140565794753016"><ele>-6.0</ele><time>2026-04-25T15:16:34Z</time></trkpt><trkpt lat="44.86259584338464" lon="12.140450404865868"><ele>-6.0</ele><time>2026-04-25T15:16:36Z</time></trkpt><trkpt lat="44.86260851132964" lon="12.14033870411587"><ele>-6.0</ele><time>2026-04-25T15:16:38Z</time></trkpt><trkpt lat="44.86262324012541" lon="12.14021723698419"><ele>-6.0</ele><time>2026-04-25T15:16:40Z</time></trkpt><trkpt lat="44.86263698553845" lon="12.140091512177408"><ele>-6.0</ele><time>2026-04-25T15:16:42Z</time></trkpt><trkpt lat="44.86264975992319" lon="12.13997017164417"><ele>-6.0</ele><time>2026-04-25T15:16:44Z</time></trkpt><trkpt lat="44.86266424127956" lon="12.139853466806091"><ele>-6.0</ele><time>2026-04-25T15:16:46Z</time></trkpt><trkpt lat="44.862672375192496" lon="12.13974685018434"><ele>-6.0</ele><time>2026-04-25T15:16:48Z</time></trkpt><trkpt lat="44.86268451660449" lon="12.13963717970493"><ele>-6.0</ele><time>2026-04-25T15:16:50Z</time></trkpt><trkpt lat="44.862694246557304" lon="12.139521127979501"><ele>-6.0</ele><time>2026-04-25T15:16:52Z</time></trkpt><trkpt lat="44.86270890673121" lon="12.139405950996348"><ele>-6.0</ele><time>2026-04-25T15:16:54Z</time></trkpt><trkpt lat="44.862715353147536" lon="12.13928394015812"><ele>-6.0</ele><time>2026-04-25T15:16:56Z</time></trkpt><trkpt lat="44.86273611090474" lon="12.139164437487388"><ele>-6.0</ele><time>2026-04-25T15:16:58Z</time></trkpt><trkpt lat="44.862748375969566" lon="12.139035912786616"><ele>-6.0</ele><time>2026-04-25T15:17:00Z</time></trkpt><trkpt lat="44.8627540580905" lon="12.138909344094584"><ele>-6.0</ele><time>2026-04-25T15:17:02Z</time></trkpt><trkpt lat="44.86277722308572" lon="12.13878552647579"><ele>-6.0</ele><time>2026-04-25T15:17:04Z</time></trkpt><trkpt lat="44.86278694362385" lon="12.138665332744926"><ele>-6.0</ele><time>2026-04-25T15:17:06Z</time></trkpt><trkpt lat="44.8628052959996" lon="12.138550489033893"><ele>-6.0</ele><time>2026-04-25T15:17:08Z</time></trkpt><trkpt lat="44.86280793017718" lon="12.138430004770811"><ele>-6.0</ele><time>2026-04-25T15:17:10Z</time></trkpt><trkpt lat="44.862819300066086" lon="12.13831185085347"><ele>-6.0</ele><time>2026-04-25T15:17:12Z</time></trkpt><trkpt lat="44.86284151902919" lon="12.138192817454064"><ele>-6.0</ele><time>2026-04-25T15:17:14Z</time></trkpt><trkpt lat="44.86284684601547" lon="12.138070225783059"><ele>-6.0</ele><time>2026-04-25T15:17:16Z</time></trkpt><trkpt lat="44.862866282020924" lon="12.137950720341149"><ele>-6.0</ele><time>2026-04-25T15:17:18Z</time></trkpt><trkpt lat="44.86288003092113" lon="12.13783247917822"><ele>-6.0</ele><time>2026-04-25T15:17:20Z</time></trkpt><trkpt lat="44.86288656837148" lon="12.13771492230017"><ele>-6.0</ele><time>2026-04-25T15:17:22Z</time></trkpt><trkpt lat="44.862898098077" lon="12.13759321763498"><ele>-6.0</ele><time>2026-04-25T15:17:24Z</time></trkpt><trkpt lat="44.862914191591976" lon="12.13747263416307"><ele>-6.166666666666667</ele><time>2026-04-25T15:17:26Z</time></trkpt><trkpt lat="44.862928800179574" lon="12.137349792785958"><ele>-6.333333333333334</ele><time>2026-04-25T15:17:28Z</time></trkpt><trkpt lat="44.86294298852696" lon="12.13722735701215"><ele>-6.5</ele><time>2026-04-25T15:17:30Z</time></trkpt><trkpt lat="44.86295367317417" lon="12.137103569144019"><ele>-6.666666666666667</ele><time>2026-04-25T15:17:32Z</time></trkpt><trkpt lat="44.86296977752126" lon="12.136981703176252"><ele>-6.833333333333334</ele><time>2026-04-25T15:17:34Z</time></trkpt><trkpt lat="44.86297431473863" lon="12.136860915462318"><ele>-7.0</ele><time>2026-04-25T15:17:36Z</time></trkpt><trkpt lat="44.862994365697496" lon="12.13674296844376"><ele>-7.000000000000001</ele><time>2026-04-25T15:17:38Z</time></trkpt><trkpt lat="44.8630071563538" lon="12.136623205296974"><ele>-7.0</ele><time>2026-04-25T15:17:40Z</time></trkpt><trkpt lat="44.8630230599606" lon="12.136502205009736"><ele>-7.0</ele><time>2026-04-25T15:17:42Z</time></trkpt><trkpt lat="44.86303543022141" lon="12.136381064546093"><ele>-7.0</ele><time>2026-04-25T15:17:44Z</time></trkpt><trkpt lat="44.86304770778954" lon="12.13626172071342"><ele>-7.000000000000001</ele><time>2026-04-25T15:17:46Z</time></trkpt><trkpt lat="44.863067378861224" lon="12.136143051759122"><ele>-7.0</ele><time>2026-04-25T15:17:48Z</time></trkpt><trkpt lat="44.86307664014053" lon="12.136020205290418"><ele>-6.833333333333334</ele><time>2026-04-25T15:17:50Z</time></trkpt><trkpt lat="44.863090060735544" lon="12.135899116342786"><ele>-6.666666666666667</ele><time>2026-04-25T15:17:52Z</time></trkpt><trkpt lat="44.86309840704769" lon="12.135777705943422"><ele>-6.5</ele><time>2026-04-25T15:17:54Z</time></trkpt><trkpt lat="44.86311072325268" lon="12.135661861179615"><ele>-6.333333333333334</ele><time>2026-04-25T15:17:56Z</time></trkpt><trkpt lat="44.86312661789533" lon="12.135543453862565"><ele>-6.166666666666667</ele><time>2026-04-25T15:17:58Z</time></trkpt><trkpt lat="44.86313177698079" lon="12.135423129718937"><ele>-6.0</ele><time>2026-04-25T15:18:00Z</time></trkpt><trkpt lat="44.86315652638259" lon="12.135305153732242"><ele>-6.0</ele><time>2026-04-25T15:18:02Z</time></trkpt><trkpt lat="44.86316408370695" lon="12.135181780671935"><ele>-6.0</ele><time>2026-04-25T15:18:04Z</time></trkpt><trkpt lat="44.86317392602074" lon="12.135055024387203"><ele>-6.0</ele><time>2026-04-25T15:18:06Z</time></trkpt><trkpt lat="44.863197306639826" lon="12.134931619089066"><ele>-6.0</ele><time>2026-04-25T15:18:08Z</time></trkpt><trkpt lat="44.86320514411972" lon="12.134804144514668"><ele>-6.0</ele><time>2026-04-25T15:18:10Z</time></trkpt><trkpt lat="44.863218560520835" lon="12.134679020204127"><ele>-6.0</ele><time>2026-04-25T15:18:12Z</time></trkpt><trkpt lat="44.86322820023887" lon="12.13455314731949"><ele>-6.0</ele><time>2026-04-25T15:18:14Z</time></trkpt><trkpt lat="44.863248829104464" lon="12.13443688411762"><ele>-6.0</ele><time>2026-04-25T15:18:16Z</time></trkpt><trkpt lat="44.863257528860025" lon="12.13432056109295"><ele>-6.0</ele><time>2026-04-25T15:18:18Z</time></trkpt><trkpt lat="44.86326763787494" lon="12.13420622058832"><ele>-6.0</ele><time>2026-04-25T15:18:20Z</time></trkpt><trkpt lat="44.86328360983895" lon="12.134081923058622"><ele>-6.0</ele><time>2026-04-25T15:18:22Z</time></trkpt><trkpt lat="44.86330010474783" lon="12.133947907102614"><ele>-6.0</ele><time>2026-04-25T15:18:24Z</time></trkpt><trkpt lat="44.86331173531423" lon="12.133812782428327"><ele>-6.199999999999999</ele><time>2026-04-25T15:18:26Z</time></trkpt><trkpt lat="44.863326485460874" lon="12.133676355300654"><ele>-6.3999999999999995</ele><time>2026-04-25T15:18:28Z</time></trkpt><trkpt lat="44.863340529186544" lon="12.133536284809232"><ele>-6.6</ele><time>2026-04-25T15:18:30Z</time></trkpt><trkpt lat="44.86335548171118" lon="12.133401502535252"><ele>-6.8</ele><time>2026-04-25T15:18:32Z</time></trkpt><trkpt lat="44.86336814915924" lon="12.133270144075249"><ele>-7.0</ele><time>2026-04-25T15:18:34Z</time></trkpt><trkpt lat="44.86337881569207" lon="12.133142782426601"><ele>-7.000000000000001</ele><time>2026-04-25T15:18:36Z</time></trkpt><trkpt lat="44.863392424636984" lon="12.133022470408342"><ele>-7.0</ele><time>2026-04-25T15:18:38Z</time></trkpt><trkpt lat="44.863409485353515" lon="12.132897016540996"><ele>-7.0</ele><time>2026-04-25T15:18:40Z</time></trkpt><trkpt lat="44.863417853436616" lon="12.132774450154479"><ele>-7.0</ele><time>2026-04-25T15:18:42Z</time></trkpt><trkpt lat="44.86343483377481" lon="12.132657772277055"><ele>-7.000000000000001</ele><time>2026-04-25T15:18:44Z</time></trkpt><trkpt lat="44.8634465528782" lon="12.13254409523389"><ele>-7.0</ele><time>2026-04-25T15:18:46Z</time></trkpt><trkpt lat="44.86345916179275" lon="12.132433614123327"><ele>-6.500000000000001</ele><time>2026-04-25T15:18:48Z</time></trkpt><trkpt lat="44.86347190801044" lon="12.132324679484602"><ele>-6.0</ele><time>2026-04-25T15:18:50Z</time></trkpt><trkpt lat="44.86347855346049" lon="12.13221993118257"><ele>-5.5</ele><time>2026-04-25T15:18:52Z</time></trkpt><trkpt lat="44.863496190632205" lon="12.132118161629354"><ele>-5.0</ele><time>2026-04-25T15:18:53.999Z</time></trkpt><trkpt lat="44.863510253659825" lon="12.132000635737525"><ele>-4.5</ele><time>2026-04-25T15:18:55.999Z</time></trkpt><trkpt lat="44.86352313187699" lon="12.131884276828709"><ele>-4.0</ele><time>2026-04-25T15:18:57.999Z</time></trkpt><trkpt lat="44.86353725510908" lon="12.131769009474647"><ele>-4.0</ele><time>2026-04-25T15:18:59.999Z</time></trkpt><trkpt lat="44.863546473320135" lon="12.131652842941406"><ele>-4.0</ele><time>2026-04-25T15:19:02Z</time></trkpt><trkpt lat="44.86356065404592" lon="12.131523664697946"><ele>-4.0</ele><time>2026-04-25T15:19:04Z</time></trkpt><trkpt lat="44.863582304559095" lon="12.131392456855258"><ele>-4.0</ele><time>2026-04-25T15:19:06Z</time></trkpt><trkpt lat="44.86359939388768" lon="12.131253150756999"><ele>-4.0</ele><time>2026-04-25T15:19:08Z</time></trkpt><trkpt lat="44.86363072467404" lon="12.131125718434001"><ele>-4.166666666666666</ele><time>2026-04-25T15:19:10Z</time></trkpt><trkpt lat="44.863663793036125" lon="12.131016623645785"><ele>-4.333333333333333</ele><time>2026-04-25T15:19:12Z</time></trkpt><trkpt lat="44.86370788699928" lon="12.130914083861876"><ele>-4.5</ele><time>2026-04-25T15:19:14Z</time></trkpt><trkpt lat="44.86376095316806" lon="12.130827902156858"><ele>-4.666666666666667</ele><time>2026-04-25T15:19:16Z</time></trkpt><trkpt lat="44.8638087829148" lon="12.130728759401615"><ele>-4.833333333333334</ele><time>2026-04-25T15:19:18Z</time></trkpt><trkpt lat="44.863868236448006" lon="12.130639859726644"><ele>-5.0</ele><time>2026-04-25T15:19:20Z</time></trkpt><trkpt lat="44.86393601425378" lon="12.130557157617694"><ele>-5.0</ele><time>2026-04-25T15:19:22Z</time></trkpt><trkpt lat="44.86398160053338" lon="12.13045031047215"><ele>-5.0</ele><time>2026-04-25T15:19:24Z</time></trkpt><trkpt lat="44.864036463612216" lon="12.130355390615067"><ele>-5.0</ele><time>2026-04-25T15:19:26Z</time></trkpt><trkpt lat="44.86409165522806" lon="12.130247180794209"><ele>-5.0</ele><time>2026-04-25T15:19:28Z</time></trkpt><trkpt lat="44.86407918229246" lon="12.130099792064648"><ele>-5.0</ele><time>2026-04-25T15:19:30Z</time></trkpt><trkpt lat="44.86400159283243" lon="12.129980222722043"><ele>-4.5</ele><time>2026-04-25T15:19:32Z</time></trkpt><trkpt lat="44.863925803094794" lon="12.129854382984222"><ele>-4.0</ele><time>2026-04-25T15:19:34Z</time></trkpt><trkpt lat="44.86387488977044" lon="12.129697518215675"><ele>-3.5</ele><time>2026-04-25T15:19:36Z</time></trkpt><trkpt lat="44.86385221303251" lon="12.129611100562803"><ele>-3.0</ele><time>2026-04-25T15:19:37Z</time></trkpt><trkpt lat="44.86384194416576" lon="12.129374520199708"><ele>-3.0</ele><time>2026-04-25T15:19:40Z</time></trkpt><trkpt lat="44.86385406016629" lon="12.129229794747845"><ele>-3.0</ele><time>2026-04-25T15:19:42Z</time></trkpt><trkpt lat="44.86386779962611" lon="12.129093759407425"><ele>-3.0</ele><time>2026-04-25T15:19:44Z</time></trkpt><trkpt lat="44.86388576038724" lon="12.128960341807764"><ele>-3.0</ele><time>2026-04-25T15:19:46Z</time></trkpt><trkpt lat="44.8639023968005" lon="12.128830147391945"><ele>-3.0</ele><time>2026-04-25T15:19:48Z</time></trkpt><trkpt lat="44.863919914692346" lon="12.12868881049427"><ele>-3.2</ele><time>2026-04-25T15:19:50Z</time></trkpt><trkpt lat="44.863937833811285" lon="12.128559194921598"><ele>-3.4</ele><time>2026-04-25T15:19:52Z</time></trkpt><trkpt lat="44.86394702197615" lon="12.128438206175444"><ele>-3.6000000000000005</ele><time>2026-04-25T15:19:54Z</time></trkpt><trkpt lat="44.863960844900575" lon="12.128319651376051"><ele>-3.8000000000000003</ele><time>2026-04-25T15:19:56Z</time></trkpt><trkpt lat="44.86397266851497" lon="12.128195286017444"><ele>-4.0</ele><time>2026-04-25T15:19:58Z</time></trkpt><trkpt lat="44.86398885975893" lon="12.128058151664929"><ele>-4.6</ele><time>2026-04-25T15:20:00Z</time></trkpt><trkpt lat="44.864001559098554" lon="12.127931438143825"><ele>-5.2</ele><time>2026-04-25T15:20:02Z</time></trkpt><trkpt lat="44.86400937143111" lon="12.127804936019475"><ele>-5.799999999999999</ele><time>2026-04-25T15:20:04Z</time></trkpt><trkpt lat="44.864021442586136" lon="12.127676448388392"><ele>-6.3999999999999995</ele><time>2026-04-25T15:20:06Z</time></trkpt><trkpt lat="44.864032375852155" lon="12.127545330201102"><ele>-7.0</ele><time>2026-04-25T15:20:08Z</time></trkpt><trkpt lat="44.86405896200766" lon="12.127416389051506"><ele>-7.166666666666667</ele><time>2026-04-25T15:20:10Z</time></trkpt><trkpt lat="44.86406410667465" lon="12.127293404967453"><ele>-7.333333333333334</ele><time>2026-04-25T15:20:12Z</time></trkpt><trkpt lat="44.86407716323146" lon="12.127176783154228"><ele>-7.5</ele><time>2026-04-25T15:20:14Z</time></trkpt><trkpt lat="44.864087446560994" lon="12.127047037210044"><ele>-7.666666666666666</ele><time>2026-04-25T15:20:16Z</time></trkpt><trkpt lat="44.86410297754572" lon="12.12691851167228"><ele>-7.833333333333333</ele><time>2026-04-25T15:20:18Z</time></trkpt><trkpt lat="44.8641166256492" lon="12.126797253467238"><ele>-8.0</ele><time>2026-04-25T15:20:20Z</time></trkpt><trkpt lat="44.864138004109925" lon="12.126681072336133"><ele>-7.999999999999999</ele><time>2026-04-25T15:20:22Z</time></trkpt><trkpt lat="44.8641417110783" lon="12.126576960854468"><ele>-8.0</ele><time>2026-04-25T15:20:24Z</time></trkpt><trkpt lat="44.86415054097423" lon="12.126463367075567"><ele>-8.0</ele><time>2026-04-25T15:20:26Z</time></trkpt><trkpt lat="44.864165281355476" lon="12.126339963631123"><ele>-8.0</ele><time>2026-04-25T15:20:28Z</time></trkpt><trkpt lat="44.86417766672105" lon="12.126227264396395"><ele>-7.999999999999999</ele><time>2026-04-25T15:20:30Z</time></trkpt><trkpt lat="44.86418550859047" lon="12.126120875863249"><ele>-8.0</ele><time>2026-04-25T15:20:32Z</time></trkpt><trkpt lat="44.864194217914026" lon="12.126023899781558"><ele>-7.833333333333333</ele><time>2026-04-25T15:20:34Z</time></trkpt><trkpt lat="44.86421064729824" lon="12.125916912714061"><ele>-7.666666666666666</ele><time>2026-04-25T15:20:36Z</time></trkpt><trkpt lat="44.86421913269919" lon="12.125789051147606"><ele>-7.5</ele><time>2026-04-25T15:20:38Z</time></trkpt><trkpt lat="44.86423963586236" lon="12.12566247411981"><ele>-7.333333333333334</ele><time>2026-04-25T15:20:39.999Z</time></trkpt><trkpt lat="44.86425175352002" lon="12.12554294009944"><ele>-7.166666666666667</ele><time>2026-04-25T15:20:41.999Z</time></trkpt><trkpt lat="44.8642648584339" lon="12.125427881380112"><ele>-7.0</ele><time>2026-04-25T15:20:43.999Z</time></trkpt><trkpt lat="44.86428974687064" lon="12.125310477903527"><ele>-6.833333333333334</ele><time>2026-04-25T15:20:45.999Z</time></trkpt><trkpt lat="44.864293530705325" lon="12.125188180062235"><ele>-6.666666666666667</ele><time>2026-04-25T15:20:47.999Z</time></trkpt><trkpt lat="44.86430420788476" lon="12.12506367658709"><ele>-6.5</ele><time>2026-04-25T15:20:49.999Z</time></trkpt><trkpt lat="44.86431463302947" lon="12.124947815975897"><ele>-6.333333333333334</ele><time>2026-04-25T15:20:51.999Z</time></trkpt><trkpt lat="44.864325448990705" lon="12.12482537202507"><ele>-6.166666666666667</ele><time>2026-04-25T15:20:53.999Z</time></trkpt><trkpt lat="44.864334313894474" lon="12.124709233785715"><ele>-6.0</ele><time>2026-04-25T15:20:55.999Z</time></trkpt><trkpt lat="44.86434822320013" lon="12.124586747432415"><ele>-6.0</ele><time>2026-04-25T15:20:57.999Z</time></trkpt><trkpt lat="44.864358777052985" lon="12.1244708035763"><ele>-6.0</ele><time>2026-04-25T15:20:59.999Z</time></trkpt><trkpt lat="44.86436909804025" lon="12.12434914106152"><ele>-6.0</ele><time>2026-04-25T15:21:01.999Z</time></trkpt><trkpt lat="44.86438018175066" lon="12.124236145613587"><ele>-6.0</ele><time>2026-04-25T15:21:03.999Z</time></trkpt><trkpt lat="44.86439369559934" lon="12.12411502105096"><ele>-6.0</ele><time>2026-04-25T15:21:05.999Z</time></trkpt><trkpt lat="44.86440264100696" lon="12.124001427835491"><ele>-6.0</ele><time>2026-04-25T15:21:08Z</time></trkpt><trkpt lat="44.8644252946371" lon="12.123886424567779"><ele>-6.0</ele><time>2026-04-25T15:21:10Z</time></trkpt><trkpt lat="44.864436514488666" lon="12.123769133954136"><ele>-6.0</ele><time>2026-04-25T15:21:12Z</time></trkpt><trkpt lat="44.86443180987446" lon="12.123649635728173"><ele>-6.0</ele><time>2026-04-25T15:21:14Z</time></trkpt><trkpt lat="44.86444536374605" lon="12.123531325997027"><ele>-6.0</ele><time>2026-04-25T15:21:16Z</time></trkpt><trkpt lat="44.86445686070994" lon="12.123406854638077"><ele>-6.0</ele><time>2026-04-25T15:21:18Z</time></trkpt><trkpt lat="44.86446633251256" lon="12.123290057724919"><ele>-6.0</ele><time>2026-04-25T15:21:20Z</time></trkpt><trkpt lat="44.864478445981256" lon="12.123164968860033"><ele>-5.666666666666667</ele><time>2026-04-25T15:21:22Z</time></trkpt><trkpt lat="44.86450303353013" lon="12.123051280673527"><ele>-5.333333333333333</ele><time>2026-04-25T15:21:24Z</time></trkpt><trkpt lat="44.86450330991766" lon="12.122933558475927"><ele>-5.0</ele><time>2026-04-25T15:21:26Z</time></trkpt><trkpt lat="44.864514741668984" lon="12.122820523923712"><ele>-4.666666666666666</ele><time>2026-04-25T15:21:28Z</time></trkpt><trkpt lat="44.864523357217415" lon="12.122703828702404"><ele>-4.333333333333333</ele><time>2026-04-25T15:21:30Z</time></trkpt><trkpt lat="44.86453821731014" lon="12.122593863998215"><ele>-4.0</ele><time>2026-04-25T15:21:32Z</time></trkpt><trkpt lat="44.864553336445226" lon="12.122493592656026"><ele>-3.833333333333333</ele><time>2026-04-25T15:21:34Z</time></trkpt><trkpt lat="44.86456152725752" lon="12.122391237471875"><ele>-3.6666666666666665</ele><time>2026-04-25T15:21:36Z</time></trkpt><trkpt lat="44.86458200326097" lon="12.122272916949962"><ele>-3.5</ele><time>2026-04-25T15:21:38Z</time></trkpt><trkpt lat="44.86458872563157" lon="12.122152894100065"><ele>-3.333333333333333</ele><time>2026-04-25T15:21:40Z</time></trkpt><trkpt lat="44.86459408400777" lon="12.122033203659374"><ele>-3.1666666666666665</ele><time>2026-04-25T15:21:42Z</time></trkpt><trkpt lat="44.86460364641701" lon="12.121912663160623"><ele>-3.0</ele><time>2026-04-25T15:21:44Z</time></trkpt><trkpt lat="44.86461543756712" lon="12.121794857001804"><ele>-3.0</ele><time>2026-04-25T15:21:46Z</time></trkpt><trkpt lat="44.86462842707567" lon="12.121675728912093"><ele>-3.0</ele><time>2026-04-25T15:21:48Z</time></trkpt><trkpt lat="44.86464559030807" lon="12.121560194301995"><ele>-3.0</ele><time>2026-04-25T15:21:50Z</time></trkpt><trkpt lat="44.864655491429644" lon="12.12144282666515"><ele>-3.0</ele><time>2026-04-25T15:21:52Z</time></trkpt><trkpt lat="44.86467031545437" lon="12.12133532127035"><ele>-3.0</ele><time>2026-04-25T15:21:54Z</time></trkpt><trkpt lat="44.86467779452809" lon="12.121222394468344"><ele>-3.0</ele><time>2026-04-25T15:21:56Z</time></trkpt><trkpt lat="44.8646910476745" lon="12.121112985870955"><ele>-3.3333333333333335</ele><time>2026-04-25T15:21:58Z</time></trkpt><trkpt lat="44.864707034723274" lon="12.121012409565477"><ele>-3.666666666666667</ele><time>2026-04-25T15:22:00Z</time></trkpt><trkpt lat="44.86471400558297" lon="12.120908810233384"><ele>-4.0</ele><time>2026-04-25T15:22:02Z</time></trkpt><trkpt lat="44.86472907892152" lon="12.12080483346451"><ele>-4.333333333333334</ele><time>2026-04-25T15:22:04Z</time></trkpt><trkpt lat="44.864740997864544" lon="12.120694333359888"><ele>-4.666666666666667</ele><time>2026-04-25T15:22:06Z</time></trkpt><trkpt lat="44.864749798087686" lon="12.120589444192984"><ele>-5.0</ele><time>2026-04-25T15:22:08Z</time></trkpt><trkpt lat="44.86475368304405" lon="12.120480037469772"><ele>-5.0</ele><time>2026-04-25T15:22:10Z</time></trkpt><trkpt lat="44.86476705659127" lon="12.120370903462334"><ele>-5.0</ele><time>2026-04-25T15:22:12Z</time></trkpt><trkpt lat="44.864781504470514" lon="12.120266094065787"><ele>-5.0</ele><time>2026-04-25T15:22:14Z</time></trkpt><trkpt lat="44.86478625914092" lon="12.120165568198221"><ele>-5.0</ele><time>2026-04-25T15:22:16Z</time></trkpt><trkpt lat="44.86480513142805" lon="12.120054918635581"><ele>-5.0</ele><time>2026-04-25T15:22:18Z</time></trkpt><trkpt lat="44.86481217080482" lon="12.11995151631817"><ele>-5.0</ele><time>2026-04-25T15:22:20Z</time></trkpt><trkpt lat="44.864826639828735" lon="12.119853538791007"><ele>-5.333333333333334</ele><time>2026-04-25T15:22:22Z</time></trkpt><trkpt lat="44.86483509438723" lon="12.119751242943035"><ele>-5.666666666666667</ele><time>2026-04-25T15:22:24Z</time></trkpt><trkpt lat="44.864855412034196" lon="12.11964011384579"><ele>-6.0</ele><time>2026-04-25T15:22:26Z</time></trkpt><trkpt lat="44.864855775969026" lon="12.119522382389071"><ele>-6.333333333333334</ele><time>2026-04-25T15:22:28Z</time></trkpt><trkpt lat="44.86486967444861" lon="12.119418178842844"><ele>-6.666666666666667</ele><time>2026-04-25T15:22:30Z</time></trkpt><trkpt lat="44.864881976814125" lon="12.119303652029595"><ele>-7.0</ele><time>2026-04-25T15:22:32Z</time></trkpt><trkpt lat="44.864891889890366" lon="12.119191975975896"><ele>-7.000000000000001</ele><time>2026-04-25T15:22:34Z</time></trkpt><trkpt lat="44.86490594181416" lon="12.119085493872815"><ele>-7.0</ele><time>2026-04-25T15:22:36Z</time></trkpt><trkpt lat="44.86491255553063" lon="12.118980413839564"><ele>-7.0</ele><time>2026-04-25T15:22:38Z</time></trkpt><trkpt lat="44.86492391062931" lon="12.11888359418729"><ele>-7.0</ele><time>2026-04-25T15:22:40Z</time></trkpt><trkpt lat="44.86493174017287" lon="12.118781970760034"><ele>-7.000000000000001</ele><time>2026-04-25T15:22:41.999Z</time></trkpt><trkpt lat="44.86495053733348" lon="12.118590032203594"><ele>-7.0</ele><time>2026-04-25T15:22:45.999Z</time></trkpt><trkpt lat="44.864965547218986" lon="12.118491693824833"><ele>-7.166666666666667</ele><time>2026-04-25T15:22:47.999Z</time></trkpt><trkpt lat="44.864976406668504" lon="12.118381238134562"><ele>-7.333333333333334</ele><time>2026-04-25T15:22:49.999Z</time></trkpt><trkpt lat="44.86498781678378" lon="12.11828102526899"><ele>-7.5</ele><time>2026-04-25T15:22:51.999Z</time></trkpt><trkpt lat="44.86499733987778" lon="12.118167537177174"><ele>-7.666666666666666</ele><time>2026-04-25T15:22:53.999Z</time></trkpt><trkpt lat="44.86500978479702" lon="12.118051981794595"><ele>-7.833333333333333</ele><time>2026-04-25T15:22:55.999Z</time></trkpt><trkpt lat="44.865023981605596" lon="12.117936218882548"><ele>-8.0</ele><time>2026-04-25T15:22:57.999Z</time></trkpt><trkpt lat="44.86503190827492" lon="12.117818002865048"><ele>-7.666666666666666</ele><time>2026-04-25T15:22:59.999Z</time></trkpt><trkpt lat="44.865061248105825" lon="12.117704139659207"><ele>-7.333333333333333</ele><time>2026-04-25T15:23:01.999Z</time></trkpt><trkpt lat="44.86507347737824" lon="12.117582804378154"><ele>-7.0</ele><time>2026-04-25T15:23:03.999Z</time></trkpt><trkpt lat="44.86506903081851" lon="12.117460794840602"><ele>-6.666666666666666</ele><time>2026-04-25T15:23:05.999Z</time></trkpt><trkpt lat="44.86509728927091" lon="12.1173428207632"><ele>-6.333333333333333</ele><time>2026-04-25T15:23:07.999Z</time></trkpt><trkpt lat="44.86510241748732" lon="12.117221574448886"><ele>-6.0</ele><time>2026-04-25T15:23:09.999Z</time></trkpt><trkpt lat="44.86510815231421" lon="12.117105997682513"><ele>-6.166666666666667</ele><time>2026-04-25T15:23:11.999Z</time></trkpt><trkpt lat="44.86512764369764" lon="12.116991988361065"><ele>-6.333333333333334</ele><time>2026-04-25T15:23:14Z</time></trkpt><trkpt lat="44.86513918835547" lon="12.116876147217589"><ele>-6.5</ele><time>2026-04-25T15:23:16Z</time></trkpt><trkpt lat="44.865155169182515" lon="12.116762051803294"><ele>-6.666666666666667</ele><time>2026-04-25T15:23:18Z</time></trkpt><trkpt lat="44.86517475412764" lon="12.116644310799877"><ele>-6.833333333333334</ele><time>2026-04-25T15:23:20Z</time></trkpt><trkpt lat="44.8651779190604" lon="12.116531882966795"><ele>-7.0</ele><time>2026-04-25T15:23:22Z</time></trkpt><trkpt lat="44.86518411732196" lon="12.116419963958252"><ele>-7.000000000000001</ele><time>2026-04-25T15:23:24Z</time></trkpt><trkpt lat="44.865201098676614" lon="12.116298751461084"><ele>-7.0</ele><time>2026-04-25T15:23:26Z</time></trkpt><trkpt lat="44.8652137663653" lon="12.11618335878503"><ele>-7.0</ele><time>2026-04-25T15:23:28Z</time></trkpt><trkpt lat="44.86522413830623" lon="12.116063681303697"><ele>-7.0</ele><time>2026-04-25T15:23:30Z</time></trkpt><trkpt lat="44.86523671471451" lon="12.115939269813724"><ele>-7.000000000000001</ele><time>2026-04-25T15:23:32Z</time></trkpt><trkpt lat="44.86525161442311" lon="12.115820224815181"><ele>-7.0</ele><time>2026-04-25T15:23:34Z</time></trkpt><trkpt lat="44.86526436628153" lon="12.115703607474018"><ele>-6.833333333333334</ele><time>2026-04-25T15:23:36Z</time></trkpt><trkpt lat="44.8652755969823" lon="12.115582937652997"><ele>-6.666666666666667</ele><time>2026-04-25T15:23:38Z</time></trkpt><trkpt lat="44.86528538318424" lon="12.115464879506613"><ele>-6.5</ele><time>2026-04-25T15:23:40Z</time></trkpt><trkpt lat="44.86529755515624" lon="12.115350466097123"><ele>-6.333333333333334</ele><time>2026-04-25T15:23:42Z</time></trkpt><trkpt lat="44.865309296529" lon="12.115229402073421"><ele>-6.166666666666667</ele><time>2026-04-25T15:23:44Z</time></trkpt><trkpt lat="44.86532241793233" lon="12.11510614871192"><ele>-6.0</ele><time>2026-04-25T15:23:46Z</time></trkpt><trkpt lat="44.86534684461657" lon="12.114992575543548"><ele>-6.166666666666667</ele><time>2026-04-25T15:23:48Z</time></trkpt><trkpt lat="44.86534450561061" lon="12.114869389561726"><ele>-6.333333333333334</ele><time>2026-04-25T15:23:50Z</time></trkpt><trkpt lat="44.86537189359202" lon="12.114751571241847"><ele>-6.5</ele><time>2026-04-25T15:23:52Z</time></trkpt><trkpt lat="44.86538408689889" lon="12.11463425561692"><ele>-6.666666666666667</ele><time>2026-04-25T15:23:54Z</time></trkpt><trkpt lat="44.86539657217527" lon="12.114514130751695"><ele>-6.833333333333334</ele><time>2026-04-25T15:23:56Z</time></trkpt><trkpt lat="44.865408557767374" lon="12.114398813513251"><ele>-7.0</ele><time>2026-04-25T15:23:58Z</time></trkpt><trkpt lat="44.86541277395264" lon="12.114277806524543"><ele>-7.0</ele><time>2026-04-25T15:24:00Z</time></trkpt><trkpt lat="44.86543354156168" lon="12.11415978452873"><ele>-6.999999999999999</ele><time>2026-04-25T15:24:02Z</time></trkpt><trkpt lat="44.86542966834191" lon="12.11403974604962"><ele>-6.999999999999999</ele><time>2026-04-25T15:24:04Z</time></trkpt><trkpt lat="44.865448514511414" lon="12.113914224483954"><ele>-7.0</ele><time>2026-04-25T15:24:06Z</time></trkpt><trkpt lat="44.865460550406524" lon="12.113780637050942"><ele>-7.0</ele><time>2026-04-25T15:24:08Z</time></trkpt><trkpt lat="44.865476873606156" lon="12.113649727415085"><ele>-7.0</ele><time>2026-04-25T15:24:10Z</time></trkpt><trkpt lat="44.86549260238158" lon="12.113512946858735"><ele>-6.999999999999999</ele><time>2026-04-25T15:24:12Z</time></trkpt><trkpt lat="44.865505835221335" lon="12.113375131547796"><ele>-6.999999999999999</ele><time>2026-04-25T15:24:14Z</time></trkpt><trkpt lat="44.86552134472385" lon="12.113235021154537"><ele>-7.0</ele><time>2026-04-25T15:24:16Z</time></trkpt><trkpt lat="44.86553881316996" lon="12.113097532066906"><ele>-7.0</ele><time>2026-04-25T15:24:18Z</time></trkpt><trkpt lat="44.86555008973655" lon="12.112966156775228"><ele>-7.0</ele><time>2026-04-25T15:24:20Z</time></trkpt><trkpt lat="44.865565488788064" lon="12.112837010675733"><ele>-6.999999999999999</ele><time>2026-04-25T15:24:22Z</time></trkpt><trkpt lat="44.86557429482857" lon="12.112705790856685"><ele>-6.999999999999999</ele><time>2026-04-25T15:24:24Z</time></trkpt><trkpt lat="44.86559310617135" lon="12.112572642684604"><ele>-7.0</ele><time>2026-04-25T15:24:26Z</time></trkpt><trkpt lat="44.86560611213617" lon="12.112437180281955"><ele>-7.0</ele><time>2026-04-25T15:24:28Z</time></trkpt><trkpt lat="44.865623175348375" lon="12.112297592646344"><ele>-6.3999999999999995</ele><time>2026-04-25T15:24:30Z</time></trkpt><trkpt lat="44.86563619444629" lon="12.112165866796273"><ele>-5.799999999999999</ele><time>2026-04-25T15:24:32Z</time></trkpt><trkpt lat="44.865650315692314" lon="12.112030344474537"><ele>-5.2</ele><time>2026-04-25T15:24:34Z</time></trkpt><trkpt lat="44.865665078906304" lon="12.111893067365058"><ele>-4.6</ele><time>2026-04-25T15:24:36Z</time></trkpt><trkpt lat="44.8656956518707" lon="12.111759324708837"><ele>-4.0</ele><time>2026-04-25T15:24:38Z</time></trkpt><trkpt lat="44.86570178971723" lon="12.111622125208921"><ele>-3.8000000000000003</ele><time>2026-04-25T15:24:40Z</time></trkpt><trkpt lat="44.86571171970131" lon="12.111479503522185"><ele>-3.6000000000000005</ele><time>2026-04-25T15:24:42Z</time></trkpt><trkpt lat="44.86574182313464" lon="12.11135373688923"><ele>-3.4</ele><time>2026-04-25T15:24:44Z</time></trkpt><trkpt lat="44.86574028916254" lon="12.111215964208649"><ele>-3.2</ele><time>2026-04-25T15:24:46Z</time></trkpt><trkpt lat="44.865757932146664" lon="12.111096581791994"><ele>-3.0</ele><time>2026-04-25T15:24:48Z</time></trkpt><trkpt lat="44.86577169582788" lon="12.110976857339406"><ele>-3.0</ele><time>2026-04-25T15:24:50Z</time></trkpt><trkpt lat="44.86578689258163" lon="12.11085298260605"><ele>-3.0</ele><time>2026-04-25T15:24:52Z</time></trkpt><trkpt lat="44.86579606157559" lon="12.110720320601727"><ele>-3.0</ele><time>2026-04-25T15:24:54Z</time></trkpt><trkpt lat="44.8658109238447" lon="12.110587225184267"><ele>-3.0</ele><time>2026-04-25T15:24:56Z</time></trkpt><trkpt lat="44.865823813174714" lon="12.110460303257641"><ele>-3.0</ele><time>2026-04-25T15:24:58Z</time></trkpt><trkpt lat="44.86583928337094" lon="12.110330666702556"><ele>-3.0</ele><time>2026-04-25T15:25:00Z</time></trkpt><trkpt lat="44.86584874173127" lon="12.110211387515635"><ele>-3.0</ele><time>2026-04-25T15:25:02Z</time></trkpt><trkpt lat="44.86586675442821" lon="12.110089947504513"><ele>-3.0</ele><time>2026-04-25T15:25:04Z</time></trkpt><trkpt lat="44.865879236957795" lon="12.109963240173759"><ele>-3.0</ele><time>2026-04-25T15:25:06Z</time></trkpt><trkpt lat="44.865888630999045" lon="12.109828689639114"><ele>-3.0</ele><time>2026-04-25T15:25:08Z</time></trkpt><trkpt lat="44.86590069730718" lon="12.109702079729674"><ele>-3.0</ele><time>2026-04-25T15:25:10Z</time></trkpt><trkpt lat="44.86590710848982" lon="12.109586767252"><ele>-3.0</ele><time>2026-04-25T15:25:12Z</time></trkpt><trkpt lat="44.86592198153072" lon="12.109481005728373"><ele>-3.0</ele><time>2026-04-25T15:25:14Z</time></trkpt><trkpt lat="44.86593382047178" lon="12.10938551557965"><ele>-3.0</ele><time>2026-04-25T15:25:16Z</time></trkpt><trkpt lat="44.86594349373188" lon="12.109271919280957"><ele>-3.0</ele><time>2026-04-25T15:25:18Z</time></trkpt><trkpt lat="44.86595612831667" lon="12.109147076230071"><ele>-3.0</ele><time>2026-04-25T15:25:20Z</time></trkpt><trkpt lat="44.86595657685635" lon="12.109024035669025"><ele>-3.0</ele><time>2026-04-25T15:25:22Z</time></trkpt><trkpt lat="44.86598991695397" lon="12.108913088392377"><ele>-3.0</ele><time>2026-04-25T15:25:24Z</time></trkpt><trkpt lat="44.86600958972479" lon="12.108796747796848"><ele>-3.0</ele><time>2026-04-25T15:25:26Z</time></trkpt><trkpt lat="44.86602630913126" lon="12.108694766767504"><ele>-3.0</ele><time>2026-04-25T15:25:28Z</time></trkpt><trkpt lat="44.866036155521634" lon="12.108562667091071"><ele>-3.0</ele><time>2026-04-25T15:25:30Z</time></trkpt><trkpt lat="44.86604245221007" lon="12.10844384900425"><ele>-3.0</ele><time>2026-04-25T15:25:32Z</time></trkpt><trkpt lat="44.86605056918656" lon="12.10832882416712"><ele>-3.1666666666666665</ele><time>2026-04-25T15:25:34Z</time></trkpt><trkpt lat="44.86606336770261" lon="12.10821313151897"><ele>-3.333333333333333</ele><time>2026-04-25T15:25:36Z</time></trkpt><trkpt lat="44.86606602934011" lon="12.108109456253956"><ele>-3.5</ele><time>2026-04-25T15:25:38Z</time></trkpt><trkpt lat="44.866087486660554" lon="12.107998518732227"><ele>-3.6666666666666665</ele><time>2026-04-25T15:25:41Z</time></trkpt><trkpt lat="44.866065468840965" lon="12.107885190804094"><ele>-3.833333333333333</ele><time>2026-04-25T15:32:39Z</time></trkpt><trkpt lat="44.866076105831056" lon="12.1077737314136"><ele>-4.0</ele><time>2026-04-25T15:32:42Z</time></trkpt><trkpt lat="44.866091748967186" lon="12.107647070316716"><ele>-3.9999999999999996</ele><time>2026-04-25T15:32:45Z</time></trkpt><trkpt lat="44.866104110608006" lon="12.107536309735588"><ele>-4.0</ele><time>2026-04-25T15:32:47Z</time></trkpt><trkpt lat="44.86610862580658" lon="12.107413495487458"><ele>-4.0</ele><time>2026-04-25T15:32:49Z</time></trkpt><trkpt lat="44.86612744181376" lon="12.107291887940066"><ele>-4.0</ele><time>2026-04-25T15:32:51Z</time></trkpt><trkpt lat="44.866140548384394" lon="12.107177776850552"><ele>-3.9999999999999996</ele><time>2026-04-25T15:32:53Z</time></trkpt><trkpt lat="44.866151978010556" lon="12.107065260865477"><ele>-4.0</ele><time>2026-04-25T15:32:55Z</time></trkpt><trkpt lat="44.86616587224978" lon="12.106949857998414"><ele>-4.166666666666666</ele><time>2026-04-25T15:32:57Z</time></trkpt><trkpt lat="44.86617421751901" lon="12.10682136534505"><ele>-4.333333333333333</ele><time>2026-04-25T15:32:59Z</time></trkpt><trkpt lat="44.86617862066214" lon="12.106695141588247"><ele>-4.5</ele><time>2026-04-25T15:33:01Z</time></trkpt><trkpt lat="44.866191282772476" lon="12.106573739365695"><ele>-4.666666666666667</ele><time>2026-04-25T15:33:03Z</time></trkpt><trkpt lat="44.8662059488116" lon="12.106452042428431"><ele>-4.833333333333334</ele><time>2026-04-25T15:33:05Z</time></trkpt><trkpt lat="44.86622001324439" lon="12.106328637732574"><ele>-5.0</ele><time>2026-04-25T15:33:07Z</time></trkpt><trkpt lat="44.866222670129076" lon="12.106209260253387"><ele>-5.0</ele><time>2026-04-25T15:33:09Z</time></trkpt><trkpt lat="44.86623120805143" lon="12.106088651823125"><ele>-5.0</ele><time>2026-04-25T15:33:11Z</time></trkpt><trkpt lat="44.86624227816177" lon="12.10597754773431"><ele>-5.0</ele><time>2026-04-25T15:33:13Z</time></trkpt><trkpt lat="44.86625984604965" lon="12.105854555185463"><ele>-5.0</ele><time>2026-04-25T15:33:15Z</time></trkpt><trkpt lat="44.86626961139884" lon="12.105724425024071"><ele>-5.0</ele><time>2026-04-25T15:33:17Z</time></trkpt><trkpt lat="44.866285797393374" lon="12.105588494470519"><ele>-5.0</ele><time>2026-04-25T15:33:19Z</time></trkpt><trkpt lat="44.86630124775329" lon="12.105452073386772"><ele>-4.8</ele><time>2026-04-25T15:33:21Z</time></trkpt><trkpt lat="44.86631434542518" lon="12.10531697434912"><ele>-4.6</ele><time>2026-04-25T15:33:23Z</time></trkpt><trkpt lat="44.86632703091991" lon="12.105181175399586"><ele>-4.4</ele><time>2026-04-25T15:33:25Z</time></trkpt><trkpt lat="44.86633960550499" lon="12.10504785583724"><ele>-4.2</ele><time>2026-04-25T15:33:26.999Z</time></trkpt><trkpt lat="44.866354115574325" lon="12.104922625975652"><ele>-4.0</ele><time>2026-04-25T15:33:28.999Z</time></trkpt><trkpt lat="44.866371455974814" lon="12.104803492610062"><ele>-3.9999999999999996</ele><time>2026-04-25T15:33:30.999Z</time></trkpt><trkpt lat="44.86638075634757" lon="12.104688105681554"><ele>-4.0</ele><time>2026-04-25T15:33:32.999Z</time></trkpt><trkpt lat="44.866386760505414" lon="12.104568918038083"><ele>-4.0</ele><time>2026-04-25T15:33:34.999Z</time></trkpt><trkpt lat="44.86639275544815" lon="12.104462733347209"><ele>-4.0</ele><time>2026-04-25T15:33:36.999Z</time></trkpt><trkpt lat="44.8664297128742" lon="12.10436691475374"><ele>-3.9999999999999996</ele><time>2026-04-25T15:33:38.999Z</time></trkpt><trkpt lat="44.86643102187626" lon="12.104259669491412"><ele>-4.0</ele><time>2026-04-25T15:33:40.999Z</time></trkpt><trkpt lat="44.866432391527155" lon="12.104134056931732"><ele>-4.166666666666666</ele><time>2026-04-25T15:33:42.999Z</time></trkpt><trkpt lat="44.8664367820412" lon="12.104010990586948"><ele>-4.333333333333333</ele><time>2026-04-25T15:33:45Z</time></trkpt><trkpt lat="44.86642723242004" lon="12.103880388906015"><ele>-4.5</ele><time>2026-04-25T15:33:47Z</time></trkpt><trkpt lat="44.86644268872186" lon="12.103758176708979"><ele>-4.666666666666667</ele><time>2026-04-25T15:33:49Z</time></trkpt><trkpt lat="44.86644839583087" lon="12.103634124895954"><ele>-4.833333333333334</ele><time>2026-04-25T15:33:51Z</time></trkpt><trkpt lat="44.86647779426155" lon="12.103522854366716"><ele>-5.0</ele><time>2026-04-25T15:33:53Z</time></trkpt><trkpt lat="44.866490160743034" lon="12.103418542918279"><ele>-5.0</ele><time>2026-04-25T15:33:55Z</time></trkpt><trkpt lat="44.86650167540865" lon="12.10332141632905"><ele>-5.0</ele><time>2026-04-25T15:33:57Z</time></trkpt><trkpt lat="44.866513152612434" lon="12.103222320204846"><ele>-5.0</ele><time>2026-04-25T15:33:59Z</time></trkpt><trkpt lat="44.866516631254434" lon="12.103098828438068"><ele>-5.0</ele><time>2026-04-25T15:34:01Z</time></trkpt><trkpt lat="44.86652312943603" lon="12.10296614467282"><ele>-5.0</ele><time>2026-04-25T15:34:03Z</time></trkpt><trkpt lat="44.866549621723195" lon="12.102838934987636"><ele>-5.0</ele><time>2026-04-25T15:34:05Z</time></trkpt><trkpt lat="44.86656176420924" lon="12.102702432251839"><ele>-5.2</ele><time>2026-04-25T15:34:07Z</time></trkpt><trkpt lat="44.86656592267555" lon="12.102564350881124"><ele>-5.4</ele><time>2026-04-25T15:34:09Z</time></trkpt><trkpt lat="44.86657231433654" lon="12.10243160102056"><ele>-5.6</ele><time>2026-04-25T15:34:11Z</time></trkpt><trkpt lat="44.8665869091045" lon="12.102296540559001"><ele>-5.8</ele><time>2026-04-25T15:34:13Z</time></trkpt><trkpt lat="44.86660094226232" lon="12.1021599721535"><ele>-6.0</ele><time>2026-04-25T15:34:15Z</time></trkpt><trkpt lat="44.866614760337825" lon="12.102024267057386"><ele>-6.0</ele><time>2026-04-25T15:34:17Z</time></trkpt><trkpt lat="44.86662549274485" lon="12.101891820572604"><ele>-6.0</ele><time>2026-04-25T15:34:19Z</time></trkpt><trkpt lat="44.86666010029851" lon="12.101763326682324"><ele>-6.0</ele><time>2026-04-25T15:34:21Z</time></trkpt><trkpt lat="44.86667480082904" lon="12.101629914747903"><ele>-6.0</ele><time>2026-04-25T15:34:23Z</time></trkpt><trkpt lat="44.86668809121068" lon="12.101491713672987"><ele>-6.0</ele><time>2026-04-25T15:34:25Z</time></trkpt><trkpt lat="44.86670084829567" lon="12.10135756972757"><ele>-6.0</ele><time>2026-04-25T15:34:27Z</time></trkpt><trkpt lat="44.86670195112291" lon="12.101222479782423"><ele>-6.0</ele><time>2026-04-25T15:34:29Z</time></trkpt><trkpt lat="44.86671805391643" lon="12.101092515225838"><ele>-6.0</ele><time>2026-04-25T15:34:31Z</time></trkpt><trkpt lat="44.8667278989322" lon="12.100964598183175"><ele>-6.0</ele><time>2026-04-25T15:34:33Z</time></trkpt><trkpt lat="44.866741488496366" lon="12.100831492089737"><ele>-6.0</ele><time>2026-04-25T15:34:35Z</time></trkpt><trkpt lat="44.86675466277352" lon="12.100702206756129"><ele>-6.0</ele><time>2026-04-25T15:34:37Z</time></trkpt><trkpt lat="44.86676822697148" lon="12.100585762772843"><ele>-6.0</ele><time>2026-04-25T15:34:39Z</time></trkpt><trkpt lat="44.86677956969404" lon="12.100461186528259"><ele>-6.0</ele><time>2026-04-25T15:34:41Z</time></trkpt><trkpt lat="44.86679147316317" lon="12.100335407235011"><ele>-6.0</ele><time>2026-04-25T15:34:43Z</time></trkpt><trkpt lat="44.86680597930319" lon="12.100223357184674"><ele>-6.0</ele><time>2026-04-25T15:34:45Z</time></trkpt><trkpt lat="44.86681558311083" lon="12.100115658073053"><ele>-6.0</ele><time>2026-04-25T15:34:47Z</time></trkpt><trkpt lat="44.86682773956493" lon="12.100012491260832"><ele>-6.0</ele><time>2026-04-25T15:34:49Z</time></trkpt><trkpt lat="44.86683987125417" lon="12.099908710513361"><ele>-6.0</ele><time>2026-04-25T15:34:51Z</time></trkpt><trkpt lat="44.86684553699658" lon="12.099794961788545"><ele>-6.0</ele><time>2026-04-25T15:34:53Z</time></trkpt><trkpt lat="44.86685716379812" lon="12.099679755567038"><ele>-6.0</ele><time>2026-04-25T15:34:55Z</time></trkpt><trkpt lat="44.86686990054016" lon="12.099568012120379"><ele>-6.0</ele><time>2026-04-25T15:34:57Z</time></trkpt><trkpt lat="44.86688262011902" lon="12.0994615669262"><ele>-6.0</ele><time>2026-04-25T15:34:59Z</time></trkpt><trkpt lat="44.86689612976827" lon="12.099349933682698"><ele>-6.0</ele><time>2026-04-25T15:35:01Z</time></trkpt><trkpt lat="44.866903393676985" lon="12.099238096956368"><ele>-6.0</ele><time>2026-04-25T15:35:03Z</time></trkpt><trkpt lat="44.86691356913774" lon="12.09912779750816"><ele>-6.0</ele><time>2026-04-25T15:35:05Z</time></trkpt><trkpt lat="44.866924267737986" lon="12.099011179090633"><ele>-6.0</ele><time>2026-04-25T15:35:07Z</time></trkpt><trkpt lat="44.86693413994522" lon="12.098901342967089"><ele>-6.0</ele><time>2026-04-25T15:35:09Z</time></trkpt><trkpt lat="44.866961869552306" lon="12.098788189406731"><ele>-6.0</ele><time>2026-04-25T15:35:10.999Z</time></trkpt><trkpt lat="44.8669641510224" lon="12.09867197493148"><ele>-6.0</ele><time>2026-04-25T15:35:12.999Z</time></trkpt><trkpt lat="44.86697444187687" lon="12.098558522562861"><ele>-6.0</ele><time>2026-04-25T15:35:14.999Z</time></trkpt><trkpt lat="44.86698304411967" lon="12.098452997136238"><ele>-6.0</ele><time>2026-04-25T15:35:16.999Z</time></trkpt><trkpt lat="44.866999116988666" lon="12.098356905759246"><ele>-6.0</ele><time>2026-04-25T15:35:18.999Z</time></trkpt><trkpt lat="44.86700822283031" lon="12.098247235284582"><ele>-6.0</ele><time>2026-04-25T15:35:20.999Z</time></trkpt><trkpt lat="44.8670155511656" lon="12.098135507584756"><ele>-6.0</ele><time>2026-04-25T15:35:22.999Z</time></trkpt><trkpt lat="44.86702775088886" lon="12.09802153942548"><ele>-6.0</ele><time>2026-04-25T15:35:24.999Z</time></trkpt><trkpt lat="44.867048562553286" lon="12.0979097916939"><ele>-6.0</ele><time>2026-04-25T15:35:26.999Z</time></trkpt><trkpt lat="44.86706035066388" lon="12.097790097630588"><ele>-6.0</ele><time>2026-04-25T15:35:28.999Z</time></trkpt><trkpt lat="44.86707914779236" lon="12.097679471946995"><ele>-6.0</ele><time>2026-04-25T15:35:30.999Z</time></trkpt><trkpt lat="44.86708706370413" lon="12.09755661170839"><ele>-6.0</ele><time>2026-04-25T15:35:32.999Z</time></trkpt><trkpt lat="44.86708950671519" lon="12.09742597891548"><ele>-6.0</ele><time>2026-04-25T15:35:34.999Z</time></trkpt><trkpt lat="44.86709799840474" lon="12.097303998849618"><ele>-6.0</ele><time>2026-04-25T15:35:36.999Z</time></trkpt><trkpt lat="44.867127282844294" lon="12.097182540079208"><ele>-6.0</ele><time>2026-04-25T15:35:38.999Z</time></trkpt><trkpt lat="44.86712814136146" lon="12.09706375732161"><ele>-6.0</ele><time>2026-04-25T15:35:40.999Z</time></trkpt><trkpt lat="44.86714009889121" lon="12.096950858934772"><ele>-6.0</ele><time>2026-04-25T15:35:42.999Z</time></trkpt><trkpt lat="44.867152092266686" lon="12.096832950459644"><ele>-6.0</ele><time>2026-04-25T15:35:44.999Z</time></trkpt><trkpt lat="44.86716189361621" lon="12.096702543691965"><ele>-6.0</ele><time>2026-04-25T15:35:46.999Z</time></trkpt><trkpt lat="44.867176235251534" lon="12.096570814660913"><ele>-6.0</ele><time>2026-04-25T15:35:48.999Z</time></trkpt><trkpt lat="44.86719136429618" lon="12.096437920428766"><ele>-6.0</ele><time>2026-04-25T15:35:51Z</time></trkpt><trkpt lat="44.867201682273716" lon="12.096305782702899"><ele>-6.0</ele><time>2026-04-25T15:35:53Z</time></trkpt><trkpt lat="44.86721787360368" lon="12.09618159288107"><ele>-6.0</ele><time>2026-04-25T15:35:55Z</time></trkpt><trkpt lat="44.86722684314452" lon="12.096061078824684"><ele>-6.0</ele><time>2026-04-25T15:35:57Z</time></trkpt><trkpt lat="44.86724174083997" lon="12.095949518743357"><ele>-6.0</ele><time>2026-04-25T15:35:59Z</time></trkpt><trkpt lat="44.86725036987363" lon="12.095840172927378"><ele>-5.666666666666667</ele><time>2026-04-25T15:36:01Z</time></trkpt><trkpt lat="44.86726068631715" lon="12.095743134559768"><ele>-5.333333333333333</ele><time>2026-04-25T15:36:03Z</time></trkpt><trkpt lat="44.867271890178856" lon="12.095632397122719"><ele>-5.0</ele><time>2026-04-25T15:36:05Z</time></trkpt><trkpt lat="44.8672870342699" lon="12.095515953504133"><ele>-4.666666666666666</ele><time>2026-04-25T15:36:07Z</time></trkpt><trkpt lat="44.86730005617415" lon="12.095403178831884"><ele>-4.333333333333333</ele><time>2026-04-25T15:36:09Z</time></trkpt><trkpt lat="44.867311111692516" lon="12.095288403443153"><ele>-4.0</ele><time>2026-04-25T15:36:11Z</time></trkpt><trkpt lat="44.86732270201523" lon="12.095173844027785"><ele>-3.9999999999999996</ele><time>2026-04-25T15:36:13Z</time></trkpt><trkpt lat="44.867333053978136" lon="12.095060903759203"><ele>-4.0</ele><time>2026-04-25T15:36:15Z</time></trkpt><trkpt lat="44.86734298488259" lon="12.094948160363318"><ele>-4.0</ele><time>2026-04-25T15:36:17Z</time></trkpt><trkpt lat="44.86735531003114" lon="12.09484639944226"><ele>-4.0</ele><time>2026-04-25T15:36:19Z</time></trkpt><trkpt lat="44.86736778084611" lon="12.094742825007106"><ele>-3.9999999999999996</ele><time>2026-04-25T15:36:21Z</time></trkpt><trkpt lat="44.867377961204674" lon="12.094628838463908"><ele>-4.0</ele><time>2026-04-25T15:36:23Z</time></trkpt><trkpt lat="44.867390413663834" lon="12.094512681976907"><ele>-4.333333333333333</ele><time>2026-04-25T15:36:25Z</time></trkpt><trkpt lat="44.86740110690837" lon="12.094394807568953"><ele>-4.666666666666666</ele><time>2026-04-25T15:36:27Z</time></trkpt><trkpt lat="44.8674131470832" lon="12.094273521621398"><ele>-5.0</ele><time>2026-04-25T15:36:29Z</time></trkpt><trkpt lat="44.86741835102453" lon="12.094157885280206"><ele>-5.333333333333333</ele><time>2026-04-25T15:36:31Z</time></trkpt><trkpt lat="44.86744336692367" lon="12.094043815955114"><ele>-5.666666666666667</ele><time>2026-04-25T15:36:33Z</time></trkpt><trkpt lat="44.86744381740361" lon="12.09392099886683"><ele>-6.0</ele><time>2026-04-25T15:36:35Z</time></trkpt><trkpt lat="44.86745751747334" lon="12.093805743434524"><ele>-6.166666666666667</ele><time>2026-04-25T15:36:37Z</time></trkpt><trkpt lat="44.86746666195307" lon="12.093684138536661"><ele>-6.333333333333334</ele><time>2026-04-25T15:36:39Z</time></trkpt><trkpt lat="44.86747930547534" lon="12.093574907565804"><ele>-6.5</ele><time>2026-04-25T15:36:41Z</time></trkpt><trkpt lat="44.867488522260665" lon="12.093472421523632"><ele>-6.666666666666667</ele><time>2026-04-25T15:36:43Z</time></trkpt><trkpt lat="44.867502099347746" lon="12.093358479998425"><ele>-6.833333333333334</ele><time>2026-04-25T15:36:45Z</time></trkpt><trkpt lat="44.86751527441572" lon="12.093244310703376"><ele>-7.0</ele><time>2026-04-25T15:36:47Z</time></trkpt><trkpt lat="44.867522462354756" lon="12.093129346926194"><ele>-6.500000000000001</ele><time>2026-04-25T15:36:49Z</time></trkpt><trkpt lat="44.86753117287278" lon="12.093011380222299"><ele>-6.0</ele><time>2026-04-25T15:36:51Z</time></trkpt><trkpt lat="44.867542148674026" lon="12.092898884602134"><ele>-5.5</ele><time>2026-04-25T15:36:53Z</time></trkpt><trkpt lat="44.86755243678518" lon="12.092788238330087"><ele>-5.0</ele><time>2026-04-25T15:36:55Z</time></trkpt><trkpt lat="44.86756756550606" lon="12.092697328826793"><ele>-4.5</ele><time>2026-04-25T15:36:57Z</time></trkpt><trkpt lat="44.86757513164877" lon="12.092596508346823"><ele>-4.0</ele><time>2026-04-25T15:36:59Z</time></trkpt><trkpt lat="44.86758244490303" lon="12.09247835326389"><ele>-4.166666666666666</ele><time>2026-04-25T15:37:00.999Z</time></trkpt><trkpt lat="44.86759604312638" lon="12.092369758929149"><ele>-4.333333333333333</ele><time>2026-04-25T15:37:02.999Z</time></trkpt><trkpt lat="44.867620605842646" lon="12.092272674463345"><ele>-4.5</ele><time>2026-04-25T15:37:04.999Z</time></trkpt><trkpt lat="44.86762039107072" lon="12.092172871850622"><ele>-4.666666666666667</ele><time>2026-04-25T15:37:06.999Z</time></trkpt><trkpt lat="44.86762831731503" lon="12.092065322061773"><ele>-4.833333333333334</ele><time>2026-04-25T15:37:08.999Z</time></trkpt><trkpt lat="44.867656876560474" lon="12.091957856616006"><ele>-5.0</ele><time>2026-04-25T15:37:10.999Z</time></trkpt><trkpt lat="44.86766893901844" lon="12.09185297557311"><ele>-5.0</ele><time>2026-04-25T15:37:12.999Z</time></trkpt><trkpt lat="44.867681473874505" lon="12.09174210244132"><ele>-5.0</ele><time>2026-04-25T15:37:14.999Z</time></trkpt><trkpt lat="44.86769251841582" lon="12.091640334886415"><ele>-5.0</ele><time>2026-04-25T15:37:16.999Z</time></trkpt><trkpt lat="44.8677031279605" lon="12.091542575472578"><ele>-5.0</ele><time>2026-04-25T15:37:18.999Z</time></trkpt><trkpt lat="44.86771304988353" lon="12.091446567454959"><ele>-5.0</ele><time>2026-04-25T15:37:20.999Z</time></trkpt><trkpt lat="44.867708306934894" lon="12.091342448180061"><ele>-5.0</ele><time>2026-04-25T15:37:22.999Z</time></trkpt><trkpt lat="44.867734274598526" lon="12.091234156577482"><ele>-5.0</ele><time>2026-04-25T15:37:24.999Z</time></trkpt><trkpt lat="44.867745506523626" lon="12.09112175073935"><ele>-5.0</ele><time>2026-04-25T15:37:26.999Z</time></trkpt><trkpt lat="44.86774367377888" lon="12.091004033525634"><ele>-5.0</ele><time>2026-04-25T15:37:28.999Z</time></trkpt><trkpt lat="44.867768485026396" lon="12.090891788373032"><ele>-5.0</ele><time>2026-04-25T15:37:30.999Z</time></trkpt><trkpt lat="44.867763897943796" lon="12.090778719391725"><ele>-5.0</ele><time>2026-04-25T15:37:32.999Z</time></trkpt><trkpt lat="44.867790671756445" lon="12.090669749951697"><ele>-5.0</ele><time>2026-04-25T15:37:34.999Z</time></trkpt><trkpt lat="44.86779041812201" lon="12.090552667300472"><ele>-5.0</ele><time>2026-04-25T15:37:36.999Z</time></trkpt><trkpt lat="44.86781330438844" lon="12.090443249059962"><ele>-5.0</ele><time>2026-04-25T15:37:38.999Z</time></trkpt><trkpt lat="44.8678249738921" lon="12.090326464060983"><ele>-5.0</ele><time>2026-04-25T15:37:40.999Z</time></trkpt><trkpt lat="44.86783621157031" lon="12.090214000570192"><ele>-5.0</ele><time>2026-04-25T15:37:42.999Z</time></trkpt><trkpt lat="44.86784812527568" lon="12.090094771551048"><ele>-5.0</ele><time>2026-04-25T15:37:44.999Z</time></trkpt><trkpt lat="44.86784508222519" lon="12.08997661478434"><ele>-5.0</ele><time>2026-04-25T15:37:46.999Z</time></trkpt><trkpt lat="44.867871443523406" lon="12.089867371004605"><ele>-5.0</ele><time>2026-04-25T15:37:48.999Z</time></trkpt><trkpt lat="44.86788219763694" lon="12.089762720191958"><ele>-5.166666666666667</ele><time>2026-04-25T15:37:50.999Z</time></trkpt><trkpt lat="44.86789368635135" lon="12.089650920954147"><ele>-5.333333333333334</ele><time>2026-04-25T15:37:52.999Z</time></trkpt><trkpt lat="44.86789277825705" lon="12.089542363476456"><ele>-5.5</ele><time>2026-04-25T15:37:54.999Z</time></trkpt><trkpt lat="44.86791530285861" lon="12.089440565726651"><ele>-5.666666666666667</ele><time>2026-04-25T15:37:57Z</time></trkpt><trkpt lat="44.86791168453999" lon="12.089330437491341"><ele>-5.833333333333333</ele><time>2026-04-25T15:37:59Z</time></trkpt><trkpt lat="44.86792534127022" lon="12.089218734425922"><ele>-6.0</ele><time>2026-04-25T15:38:01Z</time></trkpt><trkpt lat="44.86793837131112" lon="12.089106558686943"><ele>-5.833333333333333</ele><time>2026-04-25T15:38:03Z</time></trkpt><trkpt lat="44.867947963826026" lon="12.088991805276123"><ele>-5.666666666666667</ele><time>2026-04-25T15:38:05Z</time></trkpt><trkpt lat="44.867972660928146" lon="12.088882401298896"><ele>-5.5</ele><time>2026-04-25T15:38:07Z</time></trkpt><trkpt lat="44.867966620810684" lon="12.088783096173715"><ele>-5.333333333333334</ele><time>2026-04-25T15:38:09Z</time></trkpt><trkpt lat="44.867979151979945" lon="12.088691906168119"><ele>-5.166666666666667</ele><time>2026-04-25T15:38:11Z</time></trkpt><trkpt lat="44.867987168581365" lon="12.088582264516578"><ele>-5.0</ele><time>2026-04-25T15:38:13Z</time></trkpt><trkpt lat="44.8680020497341" lon="12.088467141037937"><ele>-5.0</ele><time>2026-04-25T15:38:15Z</time></trkpt><trkpt lat="44.86801493232014" lon="12.088354500401536"><ele>-5.0</ele><time>2026-04-25T15:38:17Z</time></trkpt><trkpt lat="44.868029339514806" lon="12.088238284511354"><ele>-5.0</ele><time>2026-04-25T15:38:19Z</time></trkpt><trkpt lat="44.868050564663776" lon="12.088124302121502"><ele>-5.0</ele><time>2026-04-25T15:38:21Z</time></trkpt><trkpt lat="44.868061915396304" lon="12.088013851559827"><ele>-5.0</ele><time>2026-04-25T15:38:23Z</time></trkpt><trkpt lat="44.86806650936597" lon="12.087901626136462"><ele>-5.0</ele><time>2026-04-25T15:38:25Z</time></trkpt><trkpt lat="44.868083367283184" lon="12.087805142598057"><ele>-4.714285714285714</ele><time>2026-04-25T15:38:27Z</time></trkpt><trkpt lat="44.8680935193976" lon="12.087706371030096"><ele>-4.428571428571429</ele><time>2026-04-25T15:38:29Z</time></trkpt><trkpt lat="44.86809745157038" lon="12.087597719011466"><ele>-4.142857142857142</ele><time>2026-04-25T15:38:31Z</time></trkpt><trkpt lat="44.86810460087222" lon="12.08748734983699"><ele>-3.8571428571428568</ele><time>2026-04-25T15:38:33Z</time></trkpt><trkpt lat="44.868113338204516" lon="12.08738876752994"><ele>-3.571428571428571</ele><time>2026-04-25T15:38:35Z</time></trkpt><trkpt lat="44.86812392896124" lon="12.087294767288762"><ele>-3.2857142857142856</ele><time>2026-04-25T15:38:37Z</time></trkpt><trkpt lat="44.86813363151267" lon="12.08719636672172"><ele>-3.0</ele><time>2026-04-25T15:38:39Z</time></trkpt><trkpt lat="44.86814164620772" lon="12.087097979634711"><ele>-3.0</ele><time>2026-04-25T15:38:41Z</time></trkpt><trkpt lat="44.868151312176096" lon="12.086996151732395"><ele>-3.0</ele><time>2026-04-25T15:38:43Z</time></trkpt><trkpt lat="44.86816514580481" lon="12.086889374844585"><ele>-3.0</ele><time>2026-04-25T15:38:45Z</time></trkpt><trkpt lat="44.868177611434355" lon="12.086784117108508"><ele>-3.0</ele><time>2026-04-25T15:38:47Z</time></trkpt><trkpt lat="44.868189578064374" lon="12.08667404004723"><ele>-3.0</ele><time>2026-04-25T15:38:49Z</time></trkpt><trkpt lat="44.86820496921747" lon="12.086562243039603"><ele>-3.0</ele><time>2026-04-25T15:38:51Z</time></trkpt><trkpt lat="44.868215154608734" lon="12.086450869404874"><ele>-3.1666666666666665</ele><time>2026-04-25T15:38:53Z</time></trkpt><trkpt lat="44.86823231425143" lon="12.086336976688637"><ele>-3.333333333333333</ele><time>2026-04-25T15:38:54.999Z</time></trkpt><trkpt lat="44.868241776212045" lon="12.086225013956634"><ele>-3.5</ele><time>2026-04-25T15:38:56.999Z</time></trkpt><trkpt lat="44.86826843802966" lon="12.086116065737293"><ele>-3.6666666666666665</ele><time>2026-04-25T15:38:58.999Z</time></trkpt><trkpt lat="44.8682806896331" lon="12.085999493252228"><ele>-3.833333333333333</ele><time>2026-04-25T15:39:00.999Z</time></trkpt><trkpt lat="44.86829291147259" lon="12.085883204006981"><ele>-4.0</ele><time>2026-04-25T15:39:02.999Z</time></trkpt><trkpt lat="44.86830466234976" lon="12.085776569974135"><ele>-3.333333333333333</ele><time>2026-04-25T15:39:04.999Z</time></trkpt><trkpt lat="44.868319591398425" lon="12.085667438562574"><ele>-2.6666666666666665</ele><time>2026-04-25T15:39:06.999Z</time></trkpt><trkpt lat="44.868333301913154" lon="12.085560856843935"><ele>-2.0</ele><time>2026-04-25T15:39:08.999Z</time></trkpt><trkpt lat="44.86835250361759" lon="12.085454160086856"><ele>-1.3333333333333333</ele><time>2026-04-25T15:39:10.999Z</time></trkpt><trkpt lat="44.86836974814604" lon="12.085347990239958"><ele>-0.6666666666666666</ele><time>2026-04-25T15:39:12.999Z</time></trkpt><trkpt lat="44.86836929179557" lon="12.085242016562983"><ele>0.0</ele><time>2026-04-25T15:39:14.999Z</time></trkpt><trkpt lat="44.86838460227328" lon="12.085138743710337"><ele>0.0</ele><time>2026-04-25T15:39:16.999Z</time></trkpt><trkpt lat="44.86839501071785" lon="12.085030307803704"><ele>0.0</ele><time>2026-04-25T15:39:18.999Z</time></trkpt><trkpt lat="44.86840506750293" lon="12.08492142299473"><ele>0.0</ele><time>2026-04-25T15:39:20.999Z</time></trkpt><trkpt lat="44.86841583435618" lon="12.084813196903253"><ele>0.0</ele><time>2026-04-25T15:39:22.999Z</time></trkpt><trkpt lat="44.868432814746875" lon="12.084704768218954"><ele>0.0</ele><time>2026-04-25T15:39:24.999Z</time></trkpt><trkpt lat="44.86845302118414" lon="12.08460172430746"><ele>0.0</ele><time>2026-04-25T15:39:26.999Z</time></trkpt><trkpt lat="44.86847924375215" lon="12.084512027497995"><ele>-0.2</ele><time>2026-04-25T15:39:28.999Z</time></trkpt><trkpt lat="44.86849030091769" lon="12.084382330516839"><ele>-0.4</ele><time>2026-04-25T15:39:31.999Z</time></trkpt><trkpt lat="44.86851547950297" lon="12.084269057370918"><ele>-0.6000000000000001</ele><time>2026-04-25T15:39:34.999Z</time></trkpt><trkpt lat="44.86841148155115" lon="12.084163919386153"><ele>-0.8</ele><time>2026-04-25T15:39:37.999Z</time></trkpt><trkpt lat="44.86833148027192" lon="12.084134744318343"><ele>-1.0</ele><time>2026-04-25T15:39:39.999Z</time></trkpt><trkpt lat="44.86825645902055" lon="12.084089373762534"><ele>-1.5</ele><time>2026-04-25T15:39:41.999Z</time></trkpt><trkpt lat="44.86817930642139" lon="12.084050530480853"><ele>-2.0</ele><time>2026-04-25T15:39:43.999Z</time></trkpt><trkpt lat="44.868101343709256" lon="12.084013610044257"><ele>-2.5</ele><time>2026-04-25T15:39:45.999Z</time></trkpt><trkpt lat="44.868026038260794" lon="12.083974810626492"><ele>-3.0</ele><time>2026-04-25T15:39:47.999Z</time></trkpt><trkpt lat="44.867954647305716" lon="12.08392753161488"><ele>-3.4999999999999996</ele><time>2026-04-25T15:39:49.999Z</time></trkpt><trkpt lat="44.86788080967153" lon="12.083895474984153"><ele>-4.0</ele><time>2026-04-25T15:39:51.999Z</time></trkpt><trkpt lat="44.86781184593065" lon="12.083849651536417"><ele>-3.9999999999999996</ele><time>2026-04-25T15:39:53.999Z</time></trkpt><trkpt lat="44.86773370270996" lon="12.083807143323734"><ele>-4.0</ele><time>2026-04-25T15:39:55.999Z</time></trkpt><trkpt lat="44.86765706226606" lon="12.083754684702564"><ele>-4.0</ele><time>2026-04-25T15:39:57.999Z</time></trkpt><trkpt lat="44.86757717025844" lon="12.083719064477144"><ele>-4.0</ele><time>2026-04-25T15:39:59.999Z</time></trkpt><trkpt lat="44.86749558101561" lon="12.083675253584826"><ele>-3.9999999999999996</ele><time>2026-04-25T15:40:01.999Z</time></trkpt><trkpt lat="44.86740720833671" lon="12.083635167955537"><ele>-4.0</ele><time>2026-04-25T15:40:03.999Z</time></trkpt><trkpt lat="44.86731752010187" lon="12.083596114977464"><ele>-3.833333333333333</ele><time>2026-04-25T15:40:05.999Z</time></trkpt><trkpt lat="44.8672359078475" lon="12.083548923331115"><ele>-3.6666666666666665</ele><time>2026-04-25T15:40:07.999Z</time></trkpt><trkpt lat="44.86715388034872" lon="12.08352050718791"><ele>-3.5</ele><time>2026-04-25T15:40:09.999Z</time></trkpt><trkpt lat="44.86708142013211" lon="12.083475940267427"><ele>-3.333333333333333</ele><time>2026-04-25T15:40:12Z</time></trkpt><trkpt lat="44.867004923843005" lon="12.083475272814553"><ele>-3.1666666666666665</ele><time>2026-04-25T15:40:14Z</time></trkpt><trkpt lat="44.8669347352688" lon="12.083450390594502"><ele>-3.0</ele><time>2026-04-25T15:40:16Z</time></trkpt><trkpt lat="44.86685795912604" lon="12.08343111508253"><ele>-2.6666666666666665</ele><time>2026-04-25T15:40:18Z</time></trkpt><trkpt lat="44.86677122174152" lon="12.083408879245424"><ele>-2.3333333333333335</ele><time>2026-04-25T15:40:20Z</time></trkpt><trkpt lat="44.86668386737786" lon="12.083391327603339"><ele>-2.0</ele><time>2026-04-25T15:40:22Z</time></trkpt><trkpt lat="44.86660422470452" lon="12.08335473815134"><ele>-1.6666666666666665</ele><time>2026-04-25T15:40:24Z</time></trkpt><trkpt lat="44.866522966021854" lon="12.083349962439184"><ele>-1.3333333333333333</ele><time>2026-04-25T15:40:26Z</time></trkpt><trkpt lat="44.86643516028311" lon="12.083335328775213"><ele>-1.0</ele><time>2026-04-25T15:40:28Z</time></trkpt><trkpt lat="44.86635076204307" lon="12.083324178015985"><ele>-0.9999999999999999</ele><time>2026-04-25T15:40:30Z</time></trkpt><trkpt lat="44.866272563428" lon="12.083306119895447"><ele>-1.0</ele><time>2026-04-25T15:40:32Z</time></trkpt><trkpt lat="44.86619958316184" lon="12.083286561724861"><ele>-1.0</ele><time>2026-04-25T15:40:34Z</time></trkpt><trkpt lat="44.866130210708036" lon="12.083275193058485"><ele>-1.0</ele><time>2026-04-25T15:40:36Z</time></trkpt><trkpt lat="44.866051275686544" lon="12.083264427386386"><ele>-0.9999999999999999</ele><time>2026-04-25T15:40:38Z</time></trkpt><trkpt lat="44.86596375274742" lon="12.083243804238535"><ele>-1.0</ele><time>2026-04-25T15:40:40Z</time></trkpt><trkpt lat="44.865870942512636" lon="12.083226822449728"><ele>-1.2000000000000002</ele><time>2026-04-25T15:40:42Z</time></trkpt><trkpt lat="44.86577851710142" lon="12.08320770499089"><ele>-1.4000000000000001</ele><time>2026-04-25T15:40:44Z</time></trkpt><trkpt lat="44.86568249641452" lon="12.08319252982335"><ele>-1.6</ele><time>2026-04-25T15:40:46Z</time></trkpt><trkpt lat="44.86558741662902" lon="12.083181065921762"><ele>-1.8</ele><time>2026-04-25T15:40:48Z</time></trkpt><trkpt lat="44.865498384511135" lon="12.083171399584769"><ele>-2.0</ele><time>2026-04-25T15:40:50Z</time></trkpt><trkpt lat="44.865413124558444" lon="12.083157593923683"><ele>-1.9999999999999998</ele><time>2026-04-25T15:40:52Z</time></trkpt><trkpt lat="44.86533247152049" lon="12.083143071178878"><ele>-2.0</ele><time>2026-04-25T15:40:54Z</time></trkpt><trkpt lat="44.865258221544785" lon="12.083117872318907"><ele>-2.0</ele><time>2026-04-25T15:40:56Z</time></trkpt><trkpt lat="44.865185249862854" lon="12.08311680390731"><ele>-2.0</ele><time>2026-04-25T15:40:58Z</time></trkpt><trkpt lat="44.865114103212264" lon="12.0830951431044"><ele>-1.9999999999999998</ele><time>2026-04-25T15:41:00Z</time></trkpt><trkpt lat="44.865030711202856" lon="12.083071134300045"><ele>-2.0</ele><time>2026-04-25T15:41:02Z</time></trkpt><trkpt lat="44.86494447780415" lon="12.083051554269943"><ele>-1.6666666666666665</ele><time>2026-04-25T15:41:04Z</time></trkpt><trkpt lat="44.8648512191688" lon="12.083041356332217"><ele>-1.3333333333333333</ele><time>2026-04-25T15:41:06Z</time></trkpt><trkpt lat="44.86475878572234" lon="12.083025806233909"><ele>-1.0</ele><time>2026-04-25T15:41:08Z</time></trkpt><trkpt lat="44.864670058505766" lon="12.083018250790854"><ele>-0.6666666666666666</ele><time>2026-04-25T15:41:10Z</time></trkpt><trkpt lat="44.86458623234866" lon="12.083014367995602"><ele>-0.3333333333333333</ele><time>2026-04-25T15:41:11.999Z</time></trkpt><trkpt lat="44.86450499710246" lon="12.083008486325486"><ele>0.0</ele><time>2026-04-25T15:41:13.999Z</time></trkpt><trkpt lat="44.86442843681722" lon="12.08299368201802"><ele>0.0</ele><time>2026-04-25T15:41:15.999Z</time></trkpt><trkpt lat="44.864355747411565" lon="12.083019833155017"><ele>0.0</ele><time>2026-04-25T15:41:17.999Z</time></trkpt><trkpt lat="44.864284890238686" lon="12.083028486242217"><ele>0.0</ele><time>2026-04-25T15:41:19.999Z</time></trkpt><trkpt lat="44.8642122635474" lon="12.083018806077106"><ele>0.0</ele><time>2026-04-25T15:41:21.999Z</time></trkpt><trkpt lat="44.86413574523421" lon="12.08305248228299"><ele>0.0</ele><time>2026-04-25T15:41:23.999Z</time></trkpt><trkpt lat="44.86405586137164" lon="12.083075628045785"><ele>0.0</ele><time>2026-04-25T15:41:25.999Z</time></trkpt><trkpt lat="44.86397974056449" lon="12.083096901318234"><ele>0.0</ele><time>2026-04-25T15:41:27.999Z</time></trkpt><trkpt lat="44.86390844094001" lon="12.08312143319677"><ele>0.0</ele><time>2026-04-25T15:41:29.999Z</time></trkpt><trkpt lat="44.86384384746803" lon="12.083148387652678"><ele>0.0</ele><time>2026-04-25T15:41:31.999Z</time></trkpt><trkpt lat="44.86377775318358" lon="12.083176488962145"><ele>0.0</ele><time>2026-04-25T15:41:33.999Z</time></trkpt><trkpt lat="44.863692428336066" lon="12.083222640225038"><ele>0.0</ele><time>2026-04-25T15:41:36.999Z</time></trkpt><trkpt lat="44.86363283804545" lon="12.083254825633018"><ele>0.0</ele><time>2026-04-25T15:41:38.999Z</time></trkpt><trkpt lat="44.86356274403148" lon="12.083286937608325"><ele>0.0</ele><time>2026-04-25T15:41:40.999Z</time></trkpt><trkpt lat="44.86348997881669" lon="12.083327534578904"><ele>-0.16666666666666666</ele><time>2026-04-25T15:41:42.999Z</time></trkpt><trkpt lat="44.863413659769336" lon="12.083368162343927"><ele>-0.3333333333333333</ele><time>2026-04-25T15:41:44.999Z</time></trkpt><trkpt lat="44.863335764888" lon="12.083412371658158"><ele>-0.5</ele><time>2026-04-25T15:41:46.999Z</time></trkpt><trkpt lat="44.863251420475926" lon="12.083459536468764"><ele>-0.6666666666666666</ele><time>2026-04-25T15:41:48.999Z</time></trkpt><trkpt lat="44.86317058351308" lon="12.083503865180768"><ele>-0.8333333333333333</ele><time>2026-04-25T15:41:50.999Z</time></trkpt><trkpt lat="44.86309035273609" lon="12.083546416841372"><ele>-1.0</ele><time>2026-04-25T15:41:52.999Z</time></trkpt><trkpt lat="44.86300581670165" lon="12.083589884913101"><ele>-1.0</ele><time>2026-04-25T15:41:54.999Z</time></trkpt><trkpt lat="44.862920344925385" lon="12.083641658777871"><ele>-1.0</ele><time>2026-04-25T15:41:56.999Z</time></trkpt><trkpt lat="44.86283072075847" lon="12.083683536161288"><ele>-1.0</ele><time>2026-04-25T15:41:58.999Z</time></trkpt><trkpt lat="44.862741790538855" lon="12.083731736282756"><ele>-1.0</ele><time>2026-04-25T15:42:00.999Z</time></trkpt><trkpt lat="44.86265158089042" lon="12.083776753070628"><ele>-1.0</ele><time>2026-04-25T15:42:02.999Z</time></trkpt><trkpt lat="44.862564091248785" lon="12.083824601573069"><ele>-0.8</ele><time>2026-04-25T15:42:04.999Z</time></trkpt><trkpt lat="44.86247563529971" lon="12.08387081896689"><ele>-0.6000000000000001</ele><time>2026-04-25T15:42:06.999Z</time></trkpt><trkpt lat="44.86238977552986" lon="12.083916927363413"><ele>-0.4</ele><time>2026-04-25T15:42:09Z</time></trkpt><trkpt lat="44.86230154496752" lon="12.083959572358419"><ele>-0.2</ele><time>2026-04-25T15:42:11Z</time></trkpt><trkpt lat="44.86221370036297" lon="12.084007841158195"><ele>0.0</ele><time>2026-04-25T15:42:13Z</time></trkpt><trkpt lat="44.86212792489739" lon="12.084060108111744"><ele>0.0</ele><time>2026-04-25T15:42:15Z</time></trkpt><trkpt lat="44.86204201963417" lon="12.084112003900865"><ele>0.0</ele><time>2026-04-25T15:42:17Z</time></trkpt><trkpt lat="44.861956253286905" lon="12.084157777256273"><ele>0.0</ele><time>2026-04-25T15:42:19Z</time></trkpt><trkpt lat="44.86187680594345" lon="12.084200703932602"><ele>0.0</ele><time>2026-04-25T15:42:21Z</time></trkpt><trkpt lat="44.86180434190816" lon="12.084232342409988"><ele>0.0</ele><time>2026-04-25T15:42:23Z</time></trkpt><trkpt lat="44.86173753926764" lon="12.08426772433172"><ele>0.0</ele><time>2026-04-25T15:42:25Z</time></trkpt><trkpt lat="44.86166652005917" lon="12.084300915889147"><ele>0.0</ele><time>2026-04-25T15:42:27Z</time></trkpt><trkpt lat="44.86159132617751" lon="12.084341481913421"><ele>0.0</ele><time>2026-04-25T15:42:29Z</time></trkpt><trkpt lat="44.86151069041684" lon="12.08438360983285"><ele>0.0</ele><time>2026-04-25T15:42:31Z</time></trkpt><trkpt lat="44.861427256679804" lon="12.084428825156323"><ele>0.0</ele><time>2026-04-25T15:42:33Z</time></trkpt><trkpt lat="44.861343356666325" lon="12.084471160788517"><ele>0.0</ele><time>2026-04-25T15:42:35Z</time></trkpt><trkpt lat="44.861255371542164" lon="12.084516534993671"><ele>0.0</ele><time>2026-04-25T15:42:37Z</time></trkpt><trkpt lat="44.86116760725412" lon="12.084565547645731"><ele>0.0</ele><time>2026-04-25T15:42:39Z</time></trkpt><trkpt lat="44.86108345644257" lon="12.084610681559019"><ele>0.0</ele><time>2026-04-25T15:42:41Z</time></trkpt><trkpt lat="44.86100291834876" lon="12.084654925873807"><ele>0.0</ele><time>2026-04-25T15:42:43Z</time></trkpt><trkpt lat="44.86092311963583" lon="12.0846931581455"><ele>0.0</ele><time>2026-04-25T15:42:45Z</time></trkpt><trkpt lat="44.8608430879776" lon="12.084732035493143"><ele>0.0</ele><time>2026-04-25T15:42:47Z</time></trkpt><trkpt lat="44.86076187406435" lon="12.08476886993029"><ele>0.0</ele><time>2026-04-25T15:42:49Z</time></trkpt><trkpt lat="44.860677870985704" lon="12.084808563569412"><ele>-0.4</ele><time>2026-04-25T15:42:51Z</time></trkpt><trkpt lat="44.860587820546435" lon="12.084841181668814"><ele>-0.8</ele><time>2026-04-25T15:42:53Z</time></trkpt><trkpt lat="44.86049822902587" lon="12.084874498349494"><ele>-1.2000000000000002</ele><time>2026-04-25T15:42:55Z</time></trkpt><trkpt lat="44.86040791067173" lon="12.084901974230117"><ele>-1.6</ele><time>2026-04-25T15:42:57Z</time></trkpt><trkpt lat="44.86031661403134" lon="12.08493158647838"><ele>-2.0</ele><time>2026-04-25T15:42:59Z</time></trkpt><trkpt lat="44.860223225635316" lon="12.084965837755757"><ele>-1.8</ele><time>2026-04-25T15:43:01Z</time></trkpt><trkpt lat="44.86013147625082" lon="12.084990889222174"><ele>-1.6</ele><time>2026-04-25T15:43:03Z</time></trkpt><trkpt lat="44.86003984906347" lon="12.0850181824692"><ele>-1.4000000000000001</ele><time>2026-04-25T15:43:05Z</time></trkpt><trkpt lat="44.859953479275546" lon="12.085044816256088"><ele>-1.2000000000000002</ele><time>2026-04-25T15:43:07Z</time></trkpt><trkpt lat="44.85986398269835" lon="12.085072167629667"><ele>-1.0</ele><time>2026-04-25T15:43:09Z</time></trkpt><trkpt lat="44.85977173987242" lon="12.085100615493168"><ele>-1.0</ele><time>2026-04-25T15:43:11Z</time></trkpt><trkpt lat="44.85968153677242" lon="12.085123695157732"><ele>-1.0</ele><time>2026-04-25T15:43:13Z</time></trkpt><trkpt lat="44.85958975833071" lon="12.085148386084002"><ele>-1.0</ele><time>2026-04-25T15:43:15Z</time></trkpt><trkpt lat="44.859499112203" lon="12.085173763499633"><ele>-1.0</ele><time>2026-04-25T15:43:17Z</time></trkpt><trkpt lat="44.85940906527744" lon="12.085197311911045"><ele>-1.0</ele><time>2026-04-25T15:43:19Z</time></trkpt><trkpt lat="44.85932503129903" lon="12.085223874607838"><ele>-1.1666666666666665</ele><time>2026-04-25T15:43:21Z</time></trkpt><trkpt lat="44.859238967695504" lon="12.085245184719177"><ele>-1.3333333333333333</ele><time>2026-04-25T15:43:23Z</time></trkpt><trkpt lat="44.859149622645994" lon="12.085273076250063"><ele>-1.5</ele><time>2026-04-25T15:43:25Z</time></trkpt><trkpt lat="44.85905937670614" lon="12.085294213029313"><ele>-1.6666666666666665</ele><time>2026-04-25T15:43:27Z</time></trkpt><trkpt lat="44.85897180004366" lon="12.08531677827682"><ele>-1.8333333333333333</ele><time>2026-04-25T15:43:29Z</time></trkpt><trkpt lat="44.85888752821058" lon="12.085339557000712"><ele>-2.0</ele><time>2026-04-25T15:43:31Z</time></trkpt><trkpt lat="44.85880143224194" lon="12.085362347783946"><ele>-1.9999999999999998</ele><time>2026-04-25T15:43:33Z</time></trkpt><trkpt lat="44.85872343822604" lon="12.085383043450522"><ele>-2.0</ele><time>2026-04-25T15:43:35Z</time></trkpt><trkpt lat="44.85864618903028" lon="12.085400106910893"><ele>-2.0</ele><time>2026-04-25T15:43:37Z</time></trkpt><trkpt lat="44.85857884574933" lon="12.085423824279392"><ele>-2.0</ele><time>2026-04-25T15:43:39Z</time></trkpt><trkpt lat="44.85851523611615" lon="12.085441885588086"><ele>-1.9999999999999998</ele><time>2026-04-25T15:43:41Z</time></trkpt><trkpt lat="44.85848974838349" lon="12.085297545089302"><ele>-2.0</ele><time>2026-04-25T15:43:44Z</time></trkpt><trkpt lat="44.85851387124312" lon="12.085186212808965"><ele>-2.0</ele><time>2026-04-25T15:43:46Z</time></trkpt><trkpt lat="44.85850802019636" lon="12.085070675047628"><ele>-2.0</ele><time>2026-04-25T15:43:48Z</time></trkpt><trkpt lat="44.85851111818194" lon="12.084950363053718"><ele>-2.0</ele><time>2026-04-25T15:43:50Z</time></trkpt><trkpt lat="44.85850758811068" lon="12.084813603744763"><ele>-2.0</ele><time>2026-04-25T15:43:52Z</time></trkpt><trkpt lat="44.85850692360803" lon="12.08465693559943"><ele>-2.0</ele><time>2026-04-25T15:43:54Z</time></trkpt><trkpt lat="44.85850062317981" lon="12.084486006377013"><ele>-1.9999999999999998</ele><time>2026-04-25T15:43:56Z</time></trkpt><trkpt lat="44.8584939226018" lon="12.08430416679864"><ele>-2.0</ele><time>2026-04-25T15:43:58Z</time></trkpt><trkpt lat="44.8584952774208" lon="12.084210648679264"><ele>-2.0</ele><time>2026-04-25T15:43:59Z</time></trkpt><trkpt lat="44.85849964544044" lon="12.08411909949933"><ele>-2.0</ele><time>2026-04-25T15:44:00Z</time></trkpt><trkpt lat="44.85849706008039" lon="12.084022297877349"><ele>-1.9999999999999998</ele><time>2026-04-25T15:44:01Z</time></trkpt><trkpt lat="44.85849115436444" lon="12.083925181936543"><ele>-2.0</ele><time>2026-04-25T15:44:02Z</time></trkpt><trkpt lat="44.85849164798018" lon="12.083832666630952"><ele>-2.333333333333333</ele><time>2026-04-25T15:44:03Z</time></trkpt><trkpt lat="44.858495475809654" lon="12.083743506315434"><ele>-2.6666666666666665</ele><time>2026-04-25T15:44:04Z</time></trkpt><trkpt lat="44.85849390274634" lon="12.083651547404944"><ele>-3.0</ele><time>2026-04-25T15:44:05Z</time></trkpt><trkpt lat="44.85849490559631" lon="12.083477444959511"><ele>-3.333333333333333</ele><time>2026-04-25T15:44:07Z</time></trkpt><trkpt lat="44.858495595192515" lon="12.083386886393397"><ele>-3.6666666666666665</ele><time>2026-04-25T15:44:08Z</time></trkpt><trkpt lat="44.85848974483334" lon="12.08321917319942"><ele>-4.0</ele><time>2026-04-25T15:44:10Z</time></trkpt><trkpt lat="44.858486170070776" lon="12.083052017648875"><ele>-4.0</ele><time>2026-04-25T15:44:12Z</time></trkpt><trkpt lat="44.85849114906925" lon="12.082892418380098"><ele>-4.0</ele><time>2026-04-25T15:44:14Z</time></trkpt><trkpt lat="44.85849093296891" lon="12.082732946398837"><ele>-4.0</ele><time>2026-04-25T15:44:16Z</time></trkpt><trkpt lat="44.8584893054153" lon="12.082582874063359"><ele>-4.0</ele><time>2026-04-25T15:44:18Z</time></trkpt><trkpt lat="44.85849079245132" lon="12.082436344578827"><ele>-4.0</ele><time>2026-04-25T15:44:20Z</time></trkpt><trkpt lat="44.85848909257785" lon="12.082290927802433"><ele>-4.0</ele><time>2026-04-25T15:44:22Z</time></trkpt><trkpt lat="44.85849244310632" lon="12.082148733703145"><ele>-4.0</ele><time>2026-04-25T15:44:24Z</time></trkpt><trkpt lat="44.858487818335355" lon="12.082012423401586"><ele>-4.0</ele><time>2026-04-25T15:44:26Z</time></trkpt><trkpt lat="44.85848530144523" lon="12.081878042397513"><ele>-4.0</ele><time>2026-04-25T15:44:28Z</time></trkpt><trkpt lat="44.85848531217703" lon="12.081737255681588"><ele>-4.0</ele><time>2026-04-25T15:44:30Z</time></trkpt><trkpt lat="44.85848762499549" lon="12.081600804547355"><ele>-4.2</ele><time>2026-04-25T15:44:32Z</time></trkpt><trkpt lat="44.858487536645676" lon="12.081466034475884"><ele>-4.4</ele><time>2026-04-25T15:44:34Z</time></trkpt><trkpt lat="44.85848434667114" lon="12.08133171006387"><ele>-4.6</ele><time>2026-04-25T15:44:36Z</time></trkpt><trkpt lat="44.858485103376154" lon="12.08119745384149"><ele>-4.8</ele><time>2026-04-25T15:44:38Z</time></trkpt><trkpt lat="44.85848412645414" lon="12.081063194255247"><ele>-5.0</ele><time>2026-04-25T15:44:40Z</time></trkpt><trkpt lat="44.85848374060594" lon="12.080928862124315"><ele>-5.0</ele><time>2026-04-25T15:44:42Z</time></trkpt><trkpt lat="44.85848491188121" lon="12.080796190568936"><ele>-5.0</ele><time>2026-04-25T15:44:44Z</time></trkpt><trkpt lat="44.85848434716257" lon="12.080658889323017"><ele>-5.0</ele><time>2026-04-25T15:44:46Z</time></trkpt><trkpt lat="44.85848598397067" lon="12.080522489778902"><ele>-5.0</ele><time>2026-04-25T15:44:48Z</time></trkpt><trkpt lat="44.85848402528443" lon="12.080388604318394"><ele>-5.0</ele><time>2026-04-25T15:44:50Z</time></trkpt><trkpt lat="44.858483830683575" lon="12.080253112872498"><ele>-5.0</ele><time>2026-04-25T15:44:52Z</time></trkpt><trkpt lat="44.858483966211026" lon="12.08011589856561"><ele>-5.0</ele><time>2026-04-25T15:44:54Z</time></trkpt><trkpt lat="44.858481325505394" lon="12.079981271202607"><ele>-5.0</ele><time>2026-04-25T15:44:56Z</time></trkpt><trkpt lat="44.85848044964074" lon="12.079846822592245"><ele>-5.0</ele><time>2026-04-25T15:44:58Z</time></trkpt><trkpt lat="44.858480731217064" lon="12.079714617044374"><ele>-5.0</ele><time>2026-04-25T15:45:00Z</time></trkpt><trkpt lat="44.858475082866455" lon="12.07958571568273"><ele>-5.0</ele><time>2026-04-25T15:45:02Z</time></trkpt><trkpt lat="44.85847255705931" lon="12.079455633681004"><ele>-5.0</ele><time>2026-04-25T15:45:04Z</time></trkpt><trkpt lat="44.85847911218843" lon="12.079325505084167"><ele>-5.0</ele><time>2026-04-25T15:45:06Z</time></trkpt><trkpt lat="44.858475444622655" lon="12.079195234416426"><ele>-5.0</ele><time>2026-04-25T15:45:08Z</time></trkpt><trkpt lat="44.858477535631835" lon="12.079063114581128"><ele>-5.0</ele><time>2026-04-25T15:45:10Z</time></trkpt><trkpt lat="44.858478691876066" lon="12.078932723116884"><ele>-5.0</ele><time>2026-04-25T15:45:12Z</time></trkpt><trkpt lat="44.858480148119284" lon="12.078802934816965"><ele>-5.0</ele><time>2026-04-25T15:45:14Z</time></trkpt><trkpt lat="44.858478609381905" lon="12.078667993925423"><ele>-5.0</ele><time>2026-04-25T15:45:16Z</time></trkpt><trkpt lat="44.85847733504916" lon="12.078534484269662"><ele>-5.0</ele><time>2026-04-25T15:45:18Z</time></trkpt><trkpt lat="44.85847722097436" lon="12.078399597712032"><ele>-5.0</ele><time>2026-04-25T15:45:20Z</time></trkpt><trkpt lat="44.85847532995023" lon="12.078261790408323"><ele>-4.8</ele><time>2026-04-25T15:45:22Z</time></trkpt><trkpt lat="44.85847428383929" lon="12.078123313755173"><ele>-4.6</ele><time>2026-04-25T15:45:24Z</time></trkpt><trkpt lat="44.858471661283886" lon="12.077987436686218"><ele>-4.4</ele><time>2026-04-25T15:45:26Z</time></trkpt><trkpt lat="44.85847088824337" lon="12.077851502217625"><ele>-4.2</ele><time>2026-04-25T15:45:28Z</time></trkpt><trkpt lat="44.85847011335851" lon="12.07771471974195"><ele>-4.0</ele><time>2026-04-25T15:45:30Z</time></trkpt><trkpt lat="44.85846710828926" lon="12.077580915863559"><ele>-4.0</ele><time>2026-04-25T15:45:32Z</time></trkpt><trkpt lat="44.85846955502415" lon="12.077446640656952"><ele>-4.0</ele><time>2026-04-25T15:45:34Z</time></trkpt><trkpt lat="44.8584686268831" lon="12.077311733226082"><ele>-4.0</ele><time>2026-04-25T15:45:36Z</time></trkpt><trkpt lat="44.858466751480215" lon="12.077177928824925"><ele>-4.0</ele><time>2026-04-25T15:45:38Z</time></trkpt><trkpt lat="44.85846568980955" lon="12.07705027207097"><ele>-4.0</ele><time>2026-04-25T15:45:40Z</time></trkpt><trkpt lat="44.85846564754544" lon="12.076924376217432"><ele>-3.9999999999999996</ele><time>2026-04-25T15:45:42Z</time></trkpt><trkpt lat="44.858463040443404" lon="12.076800824875793"><ele>-4.0</ele><time>2026-04-25T15:45:44Z</time></trkpt><trkpt lat="44.85846313360423" lon="12.076672551580888"><ele>-4.0</ele><time>2026-04-25T15:45:46Z</time></trkpt><trkpt lat="44.85846302059952" lon="12.076548016117915"><ele>-4.0</ele><time>2026-04-25T15:45:48Z</time></trkpt><trkpt lat="44.85846417290411" lon="12.076422551029498"><ele>-3.9999999999999996</ele><time>2026-04-25T15:45:50Z</time></trkpt><trkpt lat="44.85846118491581" lon="12.076303723673377"><ele>-4.0</ele><time>2026-04-25T15:45:52Z</time></trkpt><trkpt lat="44.858462508008756" lon="12.076183530295355"><ele>-3.8000000000000003</ele><time>2026-04-25T15:45:54Z</time></trkpt><trkpt lat="44.85846063327427" lon="12.076061834626119"><ele>-3.6000000000000005</ele><time>2026-04-25T15:45:56Z</time></trkpt><trkpt lat="44.85845379650468" lon="12.075938565446892"><ele>-3.4</ele><time>2026-04-25T15:45:58Z</time></trkpt><trkpt lat="44.85845779322322" lon="12.075801823476727"><ele>-3.2</ele><time>2026-04-25T15:46:00Z</time></trkpt><trkpt lat="44.85846004400147" lon="12.075665212984397"><ele>-3.0</ele><time>2026-04-25T15:46:02Z</time></trkpt><trkpt lat="44.85845792794832" lon="12.075529059574482"><ele>-3.0</ele><time>2026-04-25T15:46:04Z</time></trkpt><trkpt lat="44.85845646620414" lon="12.075401511378097"><ele>-3.0</ele><time>2026-04-25T15:46:06Z</time></trkpt><trkpt lat="44.85845720667871" lon="12.07527232194691"><ele>-3.0</ele><time>2026-04-25T15:46:08Z</time></trkpt><trkpt lat="44.85845875143542" lon="12.075142655313044"><ele>-3.0</ele><time>2026-04-25T15:46:10Z</time></trkpt><trkpt lat="44.858453853345694" lon="12.075007225838668"><ele>-3.0</ele><time>2026-04-25T15:46:12Z</time></trkpt><trkpt lat="44.8584537546148" lon="12.07487668158323"><ele>-3.0</ele><time>2026-04-25T15:46:14Z</time></trkpt><trkpt lat="44.858448119858835" lon="12.07473707793121"><ele>-3.0</ele><time>2026-04-25T15:46:16Z</time></trkpt><trkpt lat="44.85845142797213" lon="12.074586046428324"><ele>-3.0</ele><time>2026-04-25T15:46:18Z</time></trkpt><trkpt lat="44.858449538248955" lon="12.074433813833513"><ele>-3.0</ele><time>2026-04-25T15:46:20Z</time></trkpt><trkpt lat="44.858450386738745" lon="12.07427707284841"><ele>-3.0</ele><time>2026-04-25T15:46:22Z</time></trkpt><trkpt lat="44.858453289861366" lon="12.074130578839311"><ele>-3.2</ele><time>2026-04-25T15:46:24Z</time></trkpt><trkpt lat="44.85845332861829" lon="12.073978896327574"><ele>-3.4</ele><time>2026-04-25T15:46:26Z</time></trkpt><trkpt lat="44.85844955668838" lon="12.07382729278188"><ele>-3.6000000000000005</ele><time>2026-04-25T15:46:28Z</time></trkpt><trkpt lat="44.858453606951755" lon="12.073671958042027"><ele>-3.8000000000000003</ele><time>2026-04-25T15:46:30Z</time></trkpt><trkpt lat="44.85845166101103" lon="12.073522140212397"><ele>-4.0</ele><time>2026-04-25T15:46:32Z</time></trkpt><trkpt lat="44.858454324271236" lon="12.073373584765884"><ele>-4.2</ele><time>2026-04-25T15:46:34Z</time></trkpt><trkpt lat="44.85845673675562" lon="12.07323064185613"><ele>-4.4</ele><time>2026-04-25T15:46:36Z</time></trkpt><trkpt lat="44.85845310987586" lon="12.073087697155898"><ele>-4.6</ele><time>2026-04-25T15:46:38Z</time></trkpt><trkpt lat="44.85845229182431" lon="12.072945334226734"><ele>-4.8</ele><time>2026-04-25T15:46:40Z</time></trkpt><trkpt lat="44.8584516784948" lon="12.072811668102583"><ele>-5.0</ele><time>2026-04-25T15:46:42Z</time></trkpt><trkpt lat="44.85844926645687" lon="12.072683750369883"><ele>-5.0</ele><time>2026-04-25T15:46:44Z</time></trkpt><trkpt lat="44.85844727912463" lon="12.07255775127584"><ele>-5.0</ele><time>2026-04-25T15:46:46Z</time></trkpt><trkpt lat="44.85844868266603" lon="12.0724264704639"><ele>-5.0</ele><time>2026-04-25T15:46:48Z</time></trkpt><trkpt lat="44.85844741870799" lon="12.072294207049765"><ele>-5.0</ele><time>2026-04-25T15:46:50Z</time></trkpt><trkpt lat="44.8584482357598" lon="12.07215902426463"><ele>-5.0</ele><time>2026-04-25T15:46:52Z</time></trkpt><trkpt lat="44.858444875293735" lon="12.072026913749124"><ele>-5.0</ele><time>2026-04-25T15:46:54Z</time></trkpt><trkpt lat="44.858446240624026" lon="12.07189173441543"><ele>-5.0</ele><time>2026-04-25T15:46:56Z</time></trkpt><trkpt lat="44.85844582101765" lon="12.071757953466577"><ele>-5.0</ele><time>2026-04-25T15:46:58Z</time></trkpt><trkpt lat="44.85844711876421" lon="12.071621219548469"><ele>-5.0</ele><time>2026-04-25T15:47:00Z</time></trkpt><trkpt lat="44.85844515306492" lon="12.071486651180466"><ele>-5.0</ele><time>2026-04-25T15:47:02Z</time></trkpt><trkpt lat="44.858447670101654" lon="12.071352979845523"><ele>-5.0</ele><time>2026-04-25T15:47:04Z</time></trkpt><trkpt lat="44.85844659644836" lon="12.071220632131833"><ele>-5.0</ele><time>2026-04-25T15:47:06Z</time></trkpt><trkpt lat="44.85844700731298" lon="12.071087615169489"><ele>-5.0</ele><time>2026-04-25T15:47:08Z</time></trkpt><trkpt lat="44.85844434629968" lon="12.070954681255742"><ele>-5.0</ele><time>2026-04-25T15:47:10Z</time></trkpt><trkpt lat="44.85844380759463" lon="12.07082021536175"><ele>-5.0</ele><time>2026-04-25T15:47:12Z</time></trkpt><trkpt lat="44.85844218679363" lon="12.070687907602897"><ele>-4.8</ele><time>2026-04-25T15:47:14Z</time></trkpt><trkpt lat="44.85844032309389" lon="12.070557340315048"><ele>-4.6</ele><time>2026-04-25T15:47:16Z</time></trkpt><trkpt lat="44.8584358664369" lon="12.070434159131882"><ele>-4.4</ele><time>2026-04-25T15:47:18Z</time></trkpt><trkpt lat="44.858434259137184" lon="12.07031120006212"><ele>-4.2</ele><time>2026-04-25T15:47:20Z</time></trkpt><trkpt lat="44.858436996194705" lon="12.070178499288199"><ele>-4.0</ele><time>2026-04-25T15:47:22Z</time></trkpt><trkpt lat="44.85843465191529" lon="12.070044098700507"><ele>-4.2</ele><time>2026-04-25T15:47:24Z</time></trkpt><trkpt lat="44.85843811622482" lon="12.06991032864176"><ele>-4.4</ele><time>2026-04-25T15:47:26Z</time></trkpt><trkpt lat="44.85842922913203" lon="12.069778682821656"><ele>-4.6</ele><time>2026-04-25T15:47:28Z</time></trkpt><trkpt lat="44.85843750921954" lon="12.069644690269966"><ele>-4.8</ele><time>2026-04-25T15:47:30Z</time></trkpt><trkpt lat="44.85843735272442" lon="12.069525300037908"><ele>-5.0</ele><time>2026-04-25T15:47:32Z</time></trkpt><trkpt lat="44.85842979969057" lon="12.069409131586124"><ele>-5.0</ele><time>2026-04-25T15:47:34Z</time></trkpt><trkpt lat="44.85843227237315" lon="12.069284185856581"><ele>-5.0</ele><time>2026-04-25T15:47:36Z</time></trkpt><trkpt lat="44.85843196370222" lon="12.069147471455393"><ele>-5.0</ele><time>2026-04-25T15:47:38Z</time></trkpt><trkpt lat="44.85843468046526" lon="12.06900934524145"><ele>-5.0</ele><time>2026-04-25T15:47:40Z</time></trkpt><trkpt lat="44.85843276106005" lon="12.068870805539834"><ele>-5.0</ele><time>2026-04-25T15:47:42Z</time></trkpt><trkpt lat="44.858428868171856" lon="12.068732991694745"><ele>-4.833333333333334</ele><time>2026-04-25T15:47:44Z</time></trkpt><trkpt lat="44.8584302691566" lon="12.068599573754982"><ele>-4.666666666666667</ele><time>2026-04-25T15:47:46Z</time></trkpt><trkpt lat="44.858429000803206" lon="12.06847180489696"><ele>-4.5</ele><time>2026-04-25T15:47:48Z</time></trkpt><trkpt lat="44.85842910725135" lon="12.068348307257162"><ele>-4.333333333333333</ele><time>2026-04-25T15:47:50Z</time></trkpt><trkpt lat="44.85842609492201" lon="12.06822736968387"><ele>-4.166666666666666</ele><time>2026-04-25T15:47:52Z</time></trkpt><trkpt lat="44.85842749563883" lon="12.068100111094216"><ele>-4.0</ele><time>2026-04-25T15:47:54Z</time></trkpt><trkpt lat="44.85842559135993" lon="12.067965177182467"><ele>-4.0</ele><time>2026-04-25T15:47:56Z</time></trkpt><trkpt lat="44.85842678338778" lon="12.067824847223612"><ele>-4.0</ele><time>2026-04-25T15:47:58Z</time></trkpt><trkpt lat="44.85842706207829" lon="12.067684279718291"><ele>-4.0</ele><time>2026-04-25T15:48:00Z</time></trkpt><trkpt lat="44.85842557277331" lon="12.067539063676017"><ele>-4.0</ele><time>2026-04-25T15:48:02Z</time></trkpt><trkpt lat="44.858424794240534" lon="12.067394614378367"><ele>-4.0</ele><time>2026-04-25T15:48:04Z</time></trkpt><trkpt lat="44.858423466814" lon="12.06724435750406"><ele>-4.4</ele><time>2026-04-25T15:48:06Z</time></trkpt><trkpt lat="44.858427351768725" lon="12.067095617304265"><ele>-4.800000000000001</ele><time>2026-04-25T15:48:08Z</time></trkpt><trkpt lat="44.85842500896942" lon="12.066948514000455"><ele>-5.199999999999999</ele><time>2026-04-25T15:48:10Z</time></trkpt><trkpt lat="44.85842587375335" lon="12.066809617302045"><ele>-5.6</ele><time>2026-04-25T15:48:12Z</time></trkpt><trkpt lat="44.85842604124349" lon="12.066662012256579"><ele>-6.0</ele><time>2026-04-25T15:48:14Z</time></trkpt><trkpt lat="44.85842281082108" lon="12.06651725705101"><ele>-6.4</ele><time>2026-04-25T15:48:16Z</time></trkpt><trkpt lat="44.85842290571778" lon="12.066373542755468"><ele>-6.8</ele><time>2026-04-25T15:48:18Z</time></trkpt><trkpt lat="44.85842029141482" lon="12.066230213664289"><ele>-7.200000000000001</ele><time>2026-04-25T15:48:20Z</time></trkpt><trkpt lat="44.85842095216308" lon="12.066088415277822"><ele>-7.6000000000000005</ele><time>2026-04-25T15:48:22Z</time></trkpt><trkpt lat="44.85841422008007" lon="12.065949043301998"><ele>-8.0</ele><time>2026-04-25T15:48:24Z</time></trkpt><trkpt lat="44.85840826744736" lon="12.065812371865341"><ele>-7.4</ele><time>2026-04-25T15:48:26Z</time></trkpt><trkpt lat="44.8584102988817" lon="12.065684572993439"><ele>-6.800000000000001</ele><time>2026-04-25T15:48:28Z</time></trkpt><trkpt lat="44.85841502112762" lon="12.065557314343211"><ele>-6.2</ele><time>2026-04-25T15:48:30Z</time></trkpt><trkpt lat="44.85841444920775" lon="12.065429940181113"><ele>-5.6</ele><time>2026-04-25T15:48:32Z</time></trkpt><trkpt lat="44.858417659722505" lon="12.065291263376"><ele>-5.0</ele><time>2026-04-25T15:48:34Z</time></trkpt><trkpt lat="44.85841555245511" lon="12.065159727963703"><ele>-5.0</ele><time>2026-04-25T15:48:36Z</time></trkpt><trkpt lat="44.85841395389609" lon="12.06502110725889"><ele>-5.0</ele><time>2026-04-25T15:48:38Z</time></trkpt><trkpt lat="44.85841469849335" lon="12.064883342748834"><ele>-5.0</ele><time>2026-04-25T15:48:40Z</time></trkpt><trkpt lat="44.858416575685126" lon="12.06474586157062"><ele>-5.0</ele><time>2026-04-25T15:48:42Z</time></trkpt><trkpt lat="44.858416308388165" lon="12.064613403092332"><ele>-5.0</ele><time>2026-04-25T15:48:44Z</time></trkpt><trkpt lat="44.85841385347591" lon="12.064486010689487"><ele>-5.166666666666667</ele><time>2026-04-25T15:48:46Z</time></trkpt><trkpt lat="44.85841526182488" lon="12.06436583771444"><ele>-5.333333333333334</ele><time>2026-04-25T15:48:48Z</time></trkpt><trkpt lat="44.858417385099614" lon="12.064245378191584"><ele>-5.5</ele><time>2026-04-25T15:48:50Z</time></trkpt><trkpt lat="44.85841717990385" lon="12.06413496440382"><ele>-5.666666666666667</ele><time>2026-04-25T15:48:52Z</time></trkpt><trkpt lat="44.85841925862055" lon="12.064022239477655"><ele>-5.833333333333333</ele><time>2026-04-25T15:48:54Z</time></trkpt><trkpt lat="44.85841314667976" lon="12.063897065001775"><ele>-6.0</ele><time>2026-04-25T15:48:56Z</time></trkpt><trkpt lat="44.8584084521874" lon="12.063783225242059"><ele>-6.0</ele><time>2026-04-25T15:48:58Z</time></trkpt><trkpt lat="44.85840866569155" lon="12.063674107569666"><ele>-6.0</ele><time>2026-04-25T15:49:00Z</time></trkpt><trkpt lat="44.858405012486266" lon="12.063567159240712"><ele>-6.0</ele><time>2026-04-25T15:49:02Z</time></trkpt><trkpt lat="44.85841638790465" lon="12.063464598914749"><ele>-6.0</ele><time>2026-04-25T15:49:04Z</time></trkpt><trkpt lat="44.858413965403" lon="12.063342100399955"><ele>-6.0</ele><time>2026-04-25T15:49:06Z</time></trkpt><trkpt lat="44.8584169538972" lon="12.0632048234579"><ele>-6.0</ele><time>2026-04-25T15:49:08Z</time></trkpt><trkpt lat="44.858415580859514" lon="12.063070649506319"><ele>-5.8</ele><time>2026-04-25T15:49:10Z</time></trkpt><trkpt lat="44.858412991949805" lon="12.062933772112542"><ele>-5.6</ele><time>2026-04-25T15:49:12Z</time></trkpt><trkpt lat="44.858408775644826" lon="12.062796044078038"><ele>-5.4</ele><time>2026-04-25T15:49:14Z</time></trkpt><trkpt lat="44.85840359889205" lon="12.062667307696044"><ele>-5.2</ele><time>2026-04-25T15:49:16Z</time></trkpt><trkpt lat="44.858401749201285" lon="12.06254177602622"><ele>-5.0</ele><time>2026-04-25T15:49:18Z</time></trkpt><trkpt lat="44.858404328907035" lon="12.062415302059135"><ele>-5.0</ele><time>2026-04-25T15:49:20Z</time></trkpt><trkpt lat="44.8584092838017" lon="12.0622779209039"><ele>-5.0</ele><time>2026-04-25T15:49:22Z</time></trkpt><trkpt lat="44.85841403194193" lon="12.06213875332712"><ele>-5.0</ele><time>2026-04-25T15:49:24Z</time></trkpt><trkpt lat="44.85841033982304" lon="12.061998304093398"><ele>-5.0</ele><time>2026-04-25T15:49:26Z</time></trkpt><trkpt lat="44.85841258168311" lon="12.061858532904475"><ele>-5.0</ele><time>2026-04-25T15:49:28Z</time></trkpt><trkpt lat="44.858409870950766" lon="12.061721006237788"><ele>-4.8</ele><time>2026-04-25T15:49:30Z</time></trkpt><trkpt lat="44.85840882188313" lon="12.061578264666514"><ele>-4.6</ele><time>2026-04-25T15:49:32Z</time></trkpt><trkpt lat="44.858408441389955" lon="12.061433763103636"><ele>-4.4</ele><time>2026-04-25T15:49:34Z</time></trkpt><trkpt lat="44.85840805480283" lon="12.061289927675954"><ele>-4.2</ele><time>2026-04-25T15:49:36Z</time></trkpt><trkpt lat="44.85840164955417" lon="12.06115113675486"><ele>-4.0</ele><time>2026-04-25T15:49:38Z</time></trkpt><trkpt lat="44.85840541025829" lon="12.061008220295891"><ele>-4.0</ele><time>2026-04-25T15:49:40Z</time></trkpt><trkpt lat="44.85840468398147" lon="12.060867214678511"><ele>-4.0</ele><time>2026-04-25T15:49:42Z</time></trkpt><trkpt lat="44.85840248898771" lon="12.060723481344704"><ele>-4.0</ele><time>2026-04-25T15:49:44Z</time></trkpt><trkpt lat="44.85840365281257" lon="12.060583255497166"><ele>-4.0</ele><time>2026-04-25T15:49:46Z</time></trkpt><trkpt lat="44.8584003344335" lon="12.060442692850366"><ele>-4.0</ele><time>2026-04-25T15:49:48Z</time></trkpt><trkpt lat="44.858396655145874" lon="12.06029676355387"><ele>-4.0</ele><time>2026-04-25T15:49:50Z</time></trkpt><trkpt lat="44.858387791834424" lon="12.06014870895993"><ele>-4.0</ele><time>2026-04-25T15:49:52Z</time></trkpt><trkpt lat="44.85839511448463" lon="12.060028607762954"><ele>-4.0</ele><time>2026-04-25T15:49:54Z</time></trkpt><trkpt lat="44.85839434915416" lon="12.059888471761743"><ele>-4.0</ele><time>2026-04-25T15:49:56Z</time></trkpt><trkpt lat="44.85839267638353" lon="12.059746380074522"><ele>-4.0</ele><time>2026-04-25T15:49:58Z</time></trkpt><trkpt lat="44.85839124332352" lon="12.059610707877956"><ele>-4.2</ele><time>2026-04-25T15:50:00Z</time></trkpt><trkpt lat="44.85838896001663" lon="12.059472822774037"><ele>-4.4</ele><time>2026-04-25T15:50:02Z</time></trkpt><trkpt lat="44.85838884119192" lon="12.05933600614575"><ele>-4.6</ele><time>2026-04-25T15:50:04Z</time></trkpt><trkpt lat="44.858388459179615" lon="12.059201726402259"><ele>-4.8</ele><time>2026-04-25T15:50:06Z</time></trkpt><trkpt lat="44.85838943504216" lon="12.05906376873494"><ele>-5.0</ele><time>2026-04-25T15:50:08Z</time></trkpt><trkpt lat="44.858386161362866" lon="12.05892358232456"><ele>-5.0</ele><time>2026-04-25T15:50:10Z</time></trkpt><trkpt lat="44.85838386363804" lon="12.058786049223913"><ele>-5.0</ele><time>2026-04-25T15:50:12Z</time></trkpt><trkpt lat="44.858387939348496" lon="12.058645603247431"><ele>-5.0</ele><time>2026-04-25T15:50:14Z</time></trkpt><trkpt lat="44.85838715561806" lon="12.058505773432822"><ele>-5.0</ele><time>2026-04-25T15:50:16Z</time></trkpt><trkpt lat="44.858386199190534" lon="12.058358167615966"><ele>-5.0</ele><time>2026-04-25T15:50:18Z</time></trkpt><trkpt lat="44.858380138765696" lon="12.058214718290262"><ele>-5.0</ele><time>2026-04-25T15:50:20Z</time></trkpt><trkpt lat="44.85837918192782" lon="12.058071681659484"><ele>-5.0</ele><time>2026-04-25T15:50:21.999Z</time></trkpt><trkpt lat="44.858386162424324" lon="12.05791549249163"><ele>-5.0</ele><time>2026-04-25T15:50:23.999Z</time></trkpt><trkpt lat="44.85838265288496" lon="12.05775990604961"><ele>-5.0</ele><time>2026-04-25T15:50:25.999Z</time></trkpt><trkpt lat="44.85838083816755" lon="12.057603431355961"><ele>-5.0</ele><time>2026-04-25T15:50:27.999Z</time></trkpt><trkpt lat="44.85838267305797" lon="12.057449672018771"><ele>-5.2</ele><time>2026-04-25T15:50:29.999Z</time></trkpt><trkpt lat="44.858383494009274" lon="12.0573027404843"><ele>-5.4</ele><time>2026-04-25T15:50:32Z</time></trkpt><trkpt lat="44.85838787557348" lon="12.057154215078643"><ele>-5.6</ele><time>2026-04-25T15:50:34Z</time></trkpt><trkpt lat="44.858386990876596" lon="12.057008881658302"><ele>-5.8</ele><time>2026-04-25T15:50:36Z</time></trkpt><trkpt lat="44.858381589608356" lon="12.056866418700679"><ele>-6.0</ele><time>2026-04-25T15:50:38Z</time></trkpt><trkpt lat="44.858383183712455" lon="12.05672656583915"><ele>-6.0</ele><time>2026-04-25T15:50:40Z</time></trkpt><trkpt lat="44.85838315286827" lon="12.05658705894923"><ele>-6.0</ele><time>2026-04-25T15:50:42Z</time></trkpt><trkpt lat="44.85838601950102" lon="12.05645294498742"><ele>-6.0</ele><time>2026-04-25T15:50:44Z</time></trkpt><trkpt lat="44.858384848467416" lon="12.056312437430549"><ele>-6.0</ele><time>2026-04-25T15:50:46Z</time></trkpt><trkpt lat="44.8583824258637" lon="12.056166956093401"><ele>-6.0</ele><time>2026-04-25T15:50:48Z</time></trkpt><trkpt lat="44.858382895285104" lon="12.056022781932489"><ele>-6.0</ele><time>2026-04-25T15:50:50Z</time></trkpt><trkpt lat="44.85838188933698" lon="12.05587980938967"><ele>-6.0</ele><time>2026-04-25T15:50:52Z</time></trkpt><trkpt lat="44.85838333178992" lon="12.055736348314701"><ele>-6.0</ele><time>2026-04-25T15:50:54Z</time></trkpt><trkpt lat="44.85838215237308" lon="12.055595373227437"><ele>-6.0</ele><time>2026-04-25T15:50:56Z</time></trkpt><trkpt lat="44.858382740676014" lon="12.055449385448616"><ele>-6.0</ele><time>2026-04-25T15:50:58Z</time></trkpt><trkpt lat="44.85838047630607" lon="12.055311170009622"><ele>-6.0</ele><time>2026-04-25T15:51:00Z</time></trkpt><trkpt lat="44.858380227663076" lon="12.055161444018399"><ele>-6.0</ele><time>2026-04-25T15:51:02Z</time></trkpt><trkpt lat="44.85837742996272" lon="12.055015011855948"><ele>-6.0</ele><time>2026-04-25T15:51:04Z</time></trkpt><trkpt lat="44.85837651679924" lon="12.0548754482067"><ele>-6.0</ele><time>2026-04-25T15:51:06Z</time></trkpt><trkpt lat="44.8583755682092" lon="12.054733551469052"><ele>-6.0</ele><time>2026-04-25T15:51:08Z</time></trkpt><trkpt lat="44.85837635170036" lon="12.054587733839496"><ele>-6.0</ele><time>2026-04-25T15:51:10Z</time></trkpt><trkpt lat="44.85837322537253" lon="12.054444406572305"><ele>-6.0</ele><time>2026-04-25T15:51:12Z</time></trkpt><trkpt lat="44.85837070569916" lon="12.054300258422481"><ele>-6.0</ele><time>2026-04-25T15:51:14Z</time></trkpt><trkpt lat="44.85837196695644" lon="12.054151477151924"><ele>-6.0</ele><time>2026-04-25T15:51:16Z</time></trkpt><trkpt lat="44.85837080400428" lon="12.054002859764521"><ele>-6.0</ele><time>2026-04-25T15:51:18Z</time></trkpt><trkpt lat="44.858363290595385" lon="12.053859729138399"><ele>-6.0</ele><time>2026-04-25T15:51:20Z</time></trkpt><trkpt lat="44.85836983425049" lon="12.053721021222596"><ele>-6.0</ele><time>2026-04-25T15:51:22Z</time></trkpt><trkpt lat="44.8583679837626" lon="12.053586028368876"><ele>-6.0</ele><time>2026-04-25T15:51:24Z</time></trkpt><trkpt lat="44.85836544970522" lon="12.053453654483889"><ele>-6.0</ele><time>2026-04-25T15:51:26Z</time></trkpt><trkpt lat="44.85836354715758" lon="12.053319011265394"><ele>-6.0</ele><time>2026-04-25T15:51:28Z</time></trkpt><trkpt lat="44.858362584313056" lon="12.053180347585506"><ele>-6.199999999999999</ele><time>2026-04-25T15:51:30Z</time></trkpt><trkpt lat="44.85835850876171" lon="12.053038876207179"><ele>-6.3999999999999995</ele><time>2026-04-25T15:51:32Z</time></trkpt><trkpt lat="44.85835896730971" lon="12.052902633079821"><ele>-6.6</ele><time>2026-04-25T15:51:34Z</time></trkpt><trkpt lat="44.85835978001506" lon="12.052765622885584"><ele>-6.8</ele><time>2026-04-25T15:51:36Z</time></trkpt><trkpt lat="44.85836183904401" lon="12.052632346261166"><ele>-7.0</ele><time>2026-04-25T15:51:38Z</time></trkpt><trkpt lat="44.858357563214746" lon="12.052496006833971"><ele>-6.8</ele><time>2026-04-25T15:51:40Z</time></trkpt><trkpt lat="44.858355398858315" lon="12.052360917504295"><ele>-6.6</ele><time>2026-04-25T15:51:42Z</time></trkpt><trkpt lat="44.85835197731159" lon="12.052223627965546"><ele>-6.3999999999999995</ele><time>2026-04-25T15:51:44Z</time></trkpt><trkpt lat="44.8583575274999" lon="12.052078553890968"><ele>-6.199999999999999</ele><time>2026-04-25T15:51:46Z</time></trkpt><trkpt lat="44.85836996828066" lon="12.051934183610486"><ele>-6.0</ele><time>2026-04-25T15:51:48Z</time></trkpt><trkpt lat="44.858393918791684" lon="12.051792254310115"><ele>-6.0</ele><time>2026-04-25T15:51:50Z</time></trkpt><trkpt lat="44.85842992601777" lon="12.051659082920962"><ele>-6.0</ele><time>2026-04-25T15:51:52Z</time></trkpt><trkpt lat="44.85847634415099" lon="12.051534390008698"><ele>-6.0</ele><time>2026-04-25T15:51:54Z</time></trkpt><trkpt lat="44.85853143578071" lon="12.051418600995063"><ele>-6.0</ele><time>2026-04-25T15:51:56Z</time></trkpt><trkpt lat="44.858592121184444" lon="12.051303247439781"><ele>-6.0</ele><time>2026-04-25T15:51:58Z</time></trkpt><trkpt lat="44.85866660412469" lon="12.051201976922956"><ele>-6.0</ele><time>2026-04-25T15:52:00Z</time></trkpt><trkpt lat="44.85874912165793" lon="12.051116788035367"><ele>-6.0</ele><time>2026-04-25T15:52:02Z</time></trkpt><trkpt lat="44.85883578929888" lon="12.051037961228982"><ele>-6.0</ele><time>2026-04-25T15:52:04Z</time></trkpt><trkpt lat="44.85892133949953" lon="12.050970127034649"><ele>-6.0</ele><time>2026-04-25T15:52:06Z</time></trkpt><trkpt lat="44.8590083818836" lon="12.050903554626355"><ele>-6.0</ele><time>2026-04-25T15:52:08Z</time></trkpt><trkpt lat="44.85909596207421" lon="12.050840026785057"><ele>-6.199999999999999</ele><time>2026-04-25T15:52:10Z</time></trkpt><trkpt lat="44.85918499804065" lon="12.050776613809878"><ele>-6.3999999999999995</ele><time>2026-04-25T15:52:12Z</time></trkpt><trkpt lat="44.85927806037343" lon="12.050716694166244"><ele>-6.6</ele><time>2026-04-25T15:52:14Z</time></trkpt><trkpt lat="44.85936493659791" lon="12.050656907287895"><ele>-6.8</ele><time>2026-04-25T15:52:16Z</time></trkpt><trkpt lat="44.859448726921634" lon="12.050592661017083"><ele>-7.0</ele><time>2026-04-25T15:52:18Z</time></trkpt><trkpt lat="44.85953347802708" lon="12.050532708917245"><ele>-7.0</ele><time>2026-04-25T15:52:20Z</time></trkpt><trkpt lat="44.859619775479715" lon="12.05047662324045"><ele>-6.999999999999999</ele><time>2026-04-25T15:52:22Z</time></trkpt><trkpt lat="44.85970198356735" lon="12.050415862303193"><ele>-6.999999999999999</ele><time>2026-04-25T15:52:24Z</time></trkpt><trkpt lat="44.859787653894436" lon="12.050352843861722"><ele>-7.0</ele><time>2026-04-25T15:52:26Z</time></trkpt><trkpt lat="44.85987765654934" lon="12.050293445969377"><ele>-7.0</ele><time>2026-04-25T15:52:28Z</time></trkpt><trkpt lat="44.85996834651233" lon="12.050228227246585"><ele>-7.0</ele><time>2026-04-25T15:52:30Z</time></trkpt><trkpt lat="44.860056533409995" lon="12.050157994690228"><ele>-6.999999999999999</ele><time>2026-04-25T15:52:32Z</time></trkpt><trkpt lat="44.86014420397974" lon="12.050093873728214"><ele>-6.999999999999999</ele><time>2026-04-25T15:52:34Z</time></trkpt><trkpt lat="44.86022913528236" lon="12.050030395315344"><ele>-7.0</ele><time>2026-04-25T15:52:36Z</time></trkpt><trkpt lat="44.86032288425529" lon="12.049972368010476"><ele>-7.0</ele><time>2026-04-25T15:52:38Z</time></trkpt><trkpt lat="44.86041631619384" lon="12.04992152876825"><ele>-7.0</ele><time>2026-04-25T15:52:40Z</time></trkpt><trkpt lat="44.86050247968211" lon="12.049847007791913"><ele>-6.999999999999999</ele><time>2026-04-25T15:52:42Z</time></trkpt><trkpt lat="44.860590816861034" lon="12.049786239724723"><ele>-6.999999999999999</ele><time>2026-04-25T15:52:44Z</time></trkpt><trkpt lat="44.860676874118276" lon="12.049721395871256"><ele>-7.0</ele><time>2026-04-25T15:52:46Z</time></trkpt><trkpt lat="44.8607615514275" lon="12.04966376643784"><ele>-7.0</ele><time>2026-04-25T15:52:48Z</time></trkpt><trkpt lat="44.860846345689055" lon="12.049598359627872"><ele>-7.0</ele><time>2026-04-25T15:52:50Z</time></trkpt><trkpt lat="44.86093945589054" lon="12.04953721546829"><ele>-6.999999999999999</ele><time>2026-04-25T15:52:52Z</time></trkpt><trkpt lat="44.86102625883557" lon="12.049467512786123"><ele>-6.999999999999999</ele><time>2026-04-25T15:52:54Z</time></trkpt><trkpt lat="44.86111423302957" lon="12.049401028018142"><ele>-7.0</ele><time>2026-04-25T15:52:56Z</time></trkpt><trkpt lat="44.86119821563154" lon="12.049343134515262"><ele>-7.0</ele><time>2026-04-25T15:52:58Z</time></trkpt><trkpt lat="44.861282079118595" lon="12.04928493618022"><ele>-6.6</ele><time>2026-04-25T15:53:00Z</time></trkpt><trkpt lat="44.86136761346924" lon="12.049216863269256"><ele>-6.199999999999999</ele><time>2026-04-25T15:53:02Z</time></trkpt><trkpt lat="44.86145071488185" lon="12.049155111417885"><ele>-5.8</ele><time>2026-04-25T15:53:04Z</time></trkpt><trkpt lat="44.8615350096859" lon="12.049093319679633"><ele>-5.4</ele><time>2026-04-25T15:53:06Z</time></trkpt><trkpt lat="44.86161693318481" lon="12.049033157684283"><ele>-5.0</ele><time>2026-04-25T15:53:08Z</time></trkpt><trkpt lat="44.86170079760142" lon="12.04897639291888"><ele>-5.2</ele><time>2026-04-25T15:53:10Z</time></trkpt><trkpt lat="44.86178804586283" lon="12.04891507964295"><ele>-5.4</ele><time>2026-04-25T15:53:12Z</time></trkpt><trkpt lat="44.8618661305922" lon="12.048855128188702"><ele>-5.6</ele><time>2026-04-25T15:53:14Z</time></trkpt><trkpt lat="44.861949973275244" lon="12.04879459823301"><ele>-5.8</ele><time>2026-04-25T15:53:16Z</time></trkpt><trkpt lat="44.86203358567243" lon="12.04873559355993"><ele>-6.0</ele><time>2026-04-25T15:53:18Z</time></trkpt><trkpt lat="44.862117522220096" lon="12.048674956187874"><ele>-6.0</ele><time>2026-04-25T15:53:20Z</time></trkpt><trkpt lat="44.86220059168566" lon="12.048619828293187"><ele>-6.0</ele><time>2026-04-25T15:53:22Z</time></trkpt><trkpt lat="44.86227912502469" lon="12.048558578597405"><ele>-6.0</ele><time>2026-04-25T15:53:24Z</time></trkpt><trkpt lat="44.86235622429948" lon="12.048500875893568"><ele>-6.0</ele><time>2026-04-25T15:53:26Z</time></trkpt><trkpt lat="44.86243084413477" lon="12.048440302454058"><ele>-6.0</ele><time>2026-04-25T15:53:28Z</time></trkpt><trkpt lat="44.86250604532169" lon="12.048382272803897"><ele>-6.0</ele><time>2026-04-25T15:53:30Z</time></trkpt><trkpt lat="44.862584058480834" lon="12.048324599306042"><ele>-6.0</ele><time>2026-04-25T15:53:32Z</time></trkpt><trkpt lat="44.86265906108323" lon="12.048268223982532"><ele>-6.0</ele><time>2026-04-25T15:53:34Z</time></trkpt><trkpt lat="44.86277246319435" lon="12.048182748868195"><ele>-6.0</ele><time>2026-04-25T15:53:37Z</time></trkpt><trkpt lat="44.86284804661487" lon="12.048128038351729"><ele>-6.0</ele><time>2026-04-25T15:53:39Z</time></trkpt><trkpt lat="44.86293303801281" lon="12.048071919382043"><ele>-6.0</ele><time>2026-04-25T15:53:41Z</time></trkpt><trkpt lat="44.86300761567477" lon="12.048015665093779"><ele>-6.0</ele><time>2026-04-25T15:53:43Z</time></trkpt><trkpt lat="44.86308457688087" lon="12.047955594469071"><ele>-6.0</ele><time>2026-04-25T15:53:45Z</time></trkpt><trkpt lat="44.86315928965153" lon="12.047892797446547"><ele>-6.0</ele><time>2026-04-25T15:53:47Z</time></trkpt><trkpt lat="44.863237575905266" lon="12.047837304270939"><ele>-6.0</ele><time>2026-04-25T15:53:49Z</time></trkpt><trkpt lat="44.863311716877476" lon="12.047783698195135"><ele>-6.0</ele><time>2026-04-25T15:53:51Z</time></trkpt><trkpt lat="44.863389372211564" lon="12.047732902283183"><ele>-6.0</ele><time>2026-04-25T15:53:53Z</time></trkpt><trkpt lat="44.86346759211903" lon="12.047683459806118"><ele>-6.333333333333333</ele><time>2026-04-25T15:53:55Z</time></trkpt><trkpt lat="44.86354256660203" lon="12.047629972994335"><ele>-6.666666666666666</ele><time>2026-04-25T15:53:57Z</time></trkpt><trkpt lat="44.86361649121493" lon="12.047579142592896"><ele>-7.0</ele><time>2026-04-25T15:53:59Z</time></trkpt><trkpt lat="44.86368904905214" lon="12.04752343487324"><ele>-7.333333333333333</ele><time>2026-04-25T15:54:01Z</time></trkpt><trkpt lat="44.86376287090767" lon="12.047468311330206"><ele>-7.666666666666666</ele><time>2026-04-25T15:54:03Z</time></trkpt><trkpt lat="44.8638378557849" lon="12.047418077694747"><ele>-8.0</ele><time>2026-04-25T15:54:05Z</time></trkpt><trkpt lat="44.863916210822985" lon="12.047362401228341"><ele>-7.999999999999999</ele><time>2026-04-25T15:54:07Z</time></trkpt><trkpt lat="44.863994033106174" lon="12.047310581419882"><ele>-8.0</ele><time>2026-04-25T15:54:09Z</time></trkpt><trkpt lat="44.864072533155614" lon="12.047256870322155"><ele>-8.0</ele><time>2026-04-25T15:54:11Z</time></trkpt><trkpt lat="44.864147606447425" lon="12.047204545723718"><ele>-8.0</ele><time>2026-04-25T15:54:13Z</time></trkpt><trkpt lat="44.86421985250705" lon="12.047156744345443"><ele>-7.999999999999999</ele><time>2026-04-25T15:54:15Z</time></trkpt><trkpt lat="44.86428617986291" lon="12.047106709566227"><ele>-8.0</ele><time>2026-04-25T15:54:17Z</time></trkpt><trkpt lat="44.864350155336645" lon="12.047048530094596"><ele>-7.666666666666666</ele><time>2026-04-25T15:54:19Z</time></trkpt><trkpt lat="44.8644243010792" lon="12.047011910572488"><ele>-7.333333333333333</ele><time>2026-04-25T15:54:20.999Z</time></trkpt><trkpt lat="44.864500724780086" lon="12.046957671699356"><ele>-7.0</ele><time>2026-04-25T15:54:22.999Z</time></trkpt><trkpt lat="44.86457228520682" lon="12.046894633584014"><ele>-6.666666666666666</ele><time>2026-04-25T15:54:24.999Z</time></trkpt><trkpt lat="44.86464709543158" lon="12.046837416157432"><ele>-6.333333333333333</ele><time>2026-04-25T15:54:26.999Z</time></trkpt><trkpt lat="44.864721825824105" lon="12.04678202215204"><ele>-6.0</ele><time>2026-04-25T15:54:28.999Z</time></trkpt><trkpt lat="44.8647948462598" lon="12.046726936596338"><ele>-6.0</ele><time>2026-04-25T15:54:30.999Z</time></trkpt><trkpt lat="44.86486983747276" lon="12.04667693027624"><ele>-6.0</ele><time>2026-04-25T15:54:32.999Z</time></trkpt><trkpt lat="44.86493909039698" lon="12.046622290017003"><ele>-6.0</ele><time>2026-04-25T15:54:34.999Z</time></trkpt><trkpt lat="44.86500836397062" lon="12.046579113381226"><ele>-6.0</ele><time>2026-04-25T15:54:36.999Z</time></trkpt><trkpt lat="44.86507093008453" lon="12.046528146402729"><ele>-6.0</ele><time>2026-04-25T15:54:38.999Z</time></trkpt><trkpt lat="44.86513708543072" lon="12.046488920218431"><ele>-6.0</ele><time>2026-04-25T15:54:40.999Z</time></trkpt><trkpt lat="44.86519769087335" lon="12.046438102654655"><ele>-5.666666666666667</ele><time>2026-04-25T15:54:42.999Z</time></trkpt><trkpt lat="44.86525586641437" lon="12.046402879959286"><ele>-5.333333333333333</ele><time>2026-04-25T15:54:45Z</time></trkpt><trkpt lat="44.865345290028365" lon="12.046347278466147"><ele>-5.0</ele><time>2026-04-25T15:54:48Z</time></trkpt><trkpt lat="44.86541565287544" lon="12.046288782041099"><ele>-4.666666666666666</ele><time>2026-04-25T15:54:50Z</time></trkpt><trkpt lat="44.86549260949082" lon="12.04623515534508"><ele>-4.333333333333333</ele><time>2026-04-25T15:54:52Z</time></trkpt><trkpt lat="44.86556827687631" lon="12.046175244763871"><ele>-4.0</ele><time>2026-04-25T15:54:54Z</time></trkpt><trkpt lat="44.865641877967576" lon="12.046123335732759"><ele>-3.9999999999999996</ele><time>2026-04-25T15:54:56Z</time></trkpt><trkpt lat="44.86571847711961" lon="12.046076143098459"><ele>-4.0</ele><time>2026-04-25T15:54:58Z</time></trkpt><trkpt lat="44.86579199064877" lon="12.046026848649216"><ele>-4.0</ele><time>2026-04-25T15:55:00Z</time></trkpt><trkpt lat="44.86586327077383" lon="12.045971015308066"><ele>-4.0</ele><time>2026-04-25T15:55:02Z</time></trkpt><trkpt lat="44.86594217443882" lon="12.045922920927943"><ele>-3.9999999999999996</ele><time>2026-04-25T15:55:04Z</time></trkpt><trkpt lat="44.86601961657127" lon="12.04587128439366"><ele>-4.0</ele><time>2026-04-25T15:55:06Z</time></trkpt><trkpt lat="44.86609701359265" lon="12.045811521275214"><ele>-3.9999999999999996</ele><time>2026-04-25T15:55:08Z</time></trkpt><trkpt lat="44.86617328853993" lon="12.045751849619846"><ele>-4.0</ele><time>2026-04-25T15:55:10Z</time></trkpt><trkpt lat="44.8662527376102" lon="12.045699891132813"><ele>-4.0</ele><time>2026-04-25T15:55:12Z</time></trkpt><trkpt lat="44.86633027086601" lon="12.04564315627512"><ele>-4.0</ele><time>2026-04-25T15:55:14Z</time></trkpt><trkpt lat="44.86640330953849" lon="12.04558708829065"><ele>-3.9999999999999996</ele><time>2026-04-25T15:55:16Z</time></trkpt><trkpt lat="44.86647796314971" lon="12.045539371520661"><ele>-4.0</ele><time>2026-04-25T15:55:18Z</time></trkpt><trkpt lat="44.86655249460748" lon="12.045486047052497"><ele>-3.9999999999999996</ele><time>2026-04-25T15:55:20Z</time></trkpt><trkpt lat="44.866621478006586" lon="12.04541343959335"><ele>-4.0</ele><time>2026-04-25T15:55:22Z</time></trkpt><trkpt lat="44.866693300040744" lon="12.04536341481912"><ele>-4.0</ele><time>2026-04-25T15:55:24Z</time></trkpt><trkpt lat="44.86676672440913" lon="12.045323214983412"><ele>-4.0</ele><time>2026-04-25T15:55:26Z</time></trkpt><trkpt lat="44.86683747320859" lon="12.045271041514864"><ele>-3.9999999999999996</ele><time>2026-04-25T15:55:28Z</time></trkpt><trkpt lat="44.86690772719686" lon="12.045222991932587"><ele>-4.0</ele><time>2026-04-25T15:55:30Z</time></trkpt><trkpt lat="44.86697745937922" lon="12.045165760792907"><ele>-3.833333333333333</ele><time>2026-04-25T15:55:32Z</time></trkpt><trkpt lat="44.86705198292709" lon="12.045111597253223"><ele>-3.6666666666666665</ele><time>2026-04-25T15:55:34Z</time></trkpt><trkpt lat="44.86713048871698" lon="12.04506216460088"><ele>-3.5</ele><time>2026-04-25T15:55:36Z</time></trkpt><trkpt lat="44.86721079119482" lon="12.045009946042725"><ele>-3.333333333333333</ele><time>2026-04-25T15:55:38Z</time></trkpt><trkpt lat="44.867289837568514" lon="12.044955693051913"><ele>-3.1666666666666665</ele><time>2026-04-25T15:55:40Z</time></trkpt><trkpt lat="44.867366652561024" lon="12.044893896169052"><ele>-3.0</ele><time>2026-04-25T15:55:42Z</time></trkpt><trkpt lat="44.867445008899935" lon="12.04484555299092"><ele>-3.3333333333333335</ele><time>2026-04-25T15:55:44Z</time></trkpt><trkpt lat="44.867515942375796" lon="12.044781908469396"><ele>-3.666666666666667</ele><time>2026-04-25T15:55:46Z</time></trkpt><trkpt lat="44.86758876699862" lon="12.04473352111621"><ele>-4.0</ele><time>2026-04-25T15:55:48Z</time></trkpt><trkpt lat="44.86765657153864" lon="12.044665041640215"><ele>-4.333333333333334</ele><time>2026-04-25T15:55:50Z</time></trkpt><trkpt lat="44.86771941564798" lon="12.04459124073521"><ele>-4.666666666666667</ele><time>2026-04-25T15:55:52Z</time></trkpt><trkpt lat="44.867759344032734" lon="12.044496317168397"><ele>-5.0</ele><time>2026-04-25T15:55:54Z</time></trkpt><trkpt lat="44.86781699103562" lon="12.04442909491484"><ele>-5.0</ele><time>2026-04-25T15:55:56Z</time></trkpt><trkpt lat="44.867858357261476" lon="12.044340027818867"><ele>-5.0</ele><time>2026-04-25T15:55:58Z</time></trkpt><trkpt lat="44.86788558557175" lon="12.04423798818969"><ele>-5.0</ele><time>2026-04-25T15:56:00Z</time></trkpt><trkpt lat="44.86792098955582" lon="12.044132791404476"><ele>-5.0</ele><time>2026-04-25T15:56:02Z</time></trkpt><trkpt lat="44.86794727248833" lon="12.044023602709908"><ele>-5.0</ele><time>2026-04-25T15:56:04Z</time></trkpt><trkpt lat="44.86796244597041" lon="12.043907880441314"><ele>-5.0</ele><time>2026-04-25T15:56:05.999Z</time></trkpt><trkpt lat="44.86797745544712" lon="12.043789965931257"><ele>-5.0</ele><time>2026-04-25T15:56:07.999Z</time></trkpt><trkpt lat="44.86798254656089" lon="12.04365336824376"><ele>-5.0</ele><time>2026-04-25T15:56:09.999Z</time></trkpt><trkpt lat="44.8679803464846" lon="12.043506494070234"><ele>-5.0</ele><time>2026-04-25T15:56:11.999Z</time></trkpt><trkpt lat="44.86798276772054" lon="12.043352163217317"><ele>-5.0</ele><time>2026-04-25T15:56:13.999Z</time></trkpt><trkpt lat="44.86798043032734" lon="12.043193070646405"><ele>-5.0</ele><time>2026-04-25T15:56:15.999Z</time></trkpt><trkpt lat="44.867976045412846" lon="12.043033959630556"><ele>-5.0</ele><time>2026-04-25T15:56:17.999Z</time></trkpt><trkpt lat="44.86797790776804" lon="12.04287776591177"><ele>-5.0</ele><time>2026-04-25T15:56:19.999Z</time></trkpt><trkpt lat="44.867980337124436" lon="12.04272911543217"><ele>-5.0</ele><time>2026-04-25T15:56:21.999Z</time></trkpt><trkpt lat="44.86797566864998" lon="12.04258437371352"><ele>-5.0</ele><time>2026-04-25T15:56:23.999Z</time></trkpt><trkpt lat="44.867978103785944" lon="12.042444704802758"><ele>-5.0</ele><time>2026-04-25T15:56:25.999Z</time></trkpt><trkpt lat="44.8679772855723" lon="12.042307774050153"><ele>-4.8</ele><time>2026-04-25T15:56:27.999Z</time></trkpt><trkpt lat="44.867971364947614" lon="12.042171283721737"><ele>-4.6</ele><time>2026-04-25T15:56:29.999Z</time></trkpt><trkpt lat="44.86796883610693" lon="12.042033062970791"><ele>-4.4</ele><time>2026-04-25T15:56:31.999Z</time></trkpt><trkpt lat="44.86796866126639" lon="12.041893561615767"><ele>-4.2</ele><time>2026-04-25T15:56:33.999Z</time></trkpt><trkpt lat="44.86796741112574" lon="12.041755658027657"><ele>-4.0</ele><time>2026-04-25T15:56:35.999Z</time></trkpt><trkpt lat="44.86796469269218" lon="12.041618665722753"><ele>-3.8000000000000003</ele><time>2026-04-25T15:56:37.999Z</time></trkpt><trkpt lat="44.86795887533779" lon="12.04148495145627"><ele>-3.6000000000000005</ele><time>2026-04-25T15:56:39.999Z</time></trkpt><trkpt lat="44.86796323458315" lon="12.04135272744082"><ele>-3.4</ele><time>2026-04-25T15:56:41.999Z</time></trkpt><trkpt lat="44.8679613105426" lon="12.041216695662571"><ele>-3.2</ele><time>2026-04-25T15:56:43.999Z</time></trkpt><trkpt lat="44.86796104350493" lon="12.041085739781446"><ele>-3.0</ele><time>2026-04-25T15:56:45.999Z</time></trkpt><trkpt lat="44.86796316237233" lon="12.040952562700625"><ele>-3.0</ele><time>2026-04-25T15:56:47.999Z</time></trkpt><trkpt lat="44.86795836429865" lon="12.040814743334025"><ele>-3.0</ele><time>2026-04-25T15:56:50Z</time></trkpt><trkpt lat="44.867958664919385" lon="12.040676599872945"><ele>-3.0</ele><time>2026-04-25T15:56:52Z</time></trkpt><trkpt lat="44.86795766224176" lon="12.040547592470205"><ele>-3.0</ele><time>2026-04-25T15:56:54Z</time></trkpt><trkpt lat="44.867956071440275" lon="12.040414057582637"><ele>-3.0</ele><time>2026-04-25T15:56:56Z</time></trkpt><trkpt lat="44.86795416515834" lon="12.040274759956581"><ele>-3.4</ele><time>2026-04-25T15:56:58Z</time></trkpt><trkpt lat="44.86794767553936" lon="12.040135902819609"><ele>-3.8</ele><time>2026-04-25T15:57:00Z</time></trkpt><trkpt lat="44.867947430437134" lon="12.039982831267574"><ele>-4.2</ele><time>2026-04-25T15:57:02Z</time></trkpt><trkpt lat="44.86794627367399" lon="12.039834572518727"><ele>-4.6</ele><time>2026-04-25T15:57:04Z</time></trkpt><trkpt lat="44.86794425967893" lon="12.039682991633939"><ele>-5.0</ele><time>2026-04-25T15:57:06Z</time></trkpt><trkpt lat="44.86794573634915" lon="12.039524656037617"><ele>-5.0</ele><time>2026-04-25T15:57:08Z</time></trkpt><trkpt lat="44.86794396684085" lon="12.039365116431263"><ele>-5.0</ele><time>2026-04-25T15:57:10Z</time></trkpt><trkpt lat="44.867945232290495" lon="12.03920668943892"><ele>-5.0</ele><time>2026-04-25T15:57:12Z</time></trkpt><trkpt lat="44.86794435270787" lon="12.039052855398838"><ele>-5.0</ele><time>2026-04-25T15:57:14Z</time></trkpt><trkpt lat="44.86794353310133" lon="12.03890150398494"><ele>-5.0</ele><time>2026-04-25T15:57:16Z</time></trkpt><trkpt lat="44.867942600687236" lon="12.038745520799077"><ele>-5.0</ele><time>2026-04-25T15:57:18Z</time></trkpt><trkpt lat="44.86794247712162" lon="12.038598270908704"><ele>-5.0</ele><time>2026-04-25T15:57:20Z</time></trkpt><trkpt lat="44.867940824752594" lon="12.038452225581329"><ele>-5.0</ele><time>2026-04-25T15:57:22Z</time></trkpt><trkpt lat="44.867938653883016" lon="12.038308989767224"><ele>-5.0</ele><time>2026-04-25T15:57:24Z</time></trkpt><trkpt lat="44.86793585005987" lon="12.03816250700799"><ele>-5.0</ele><time>2026-04-25T15:57:26Z</time></trkpt><trkpt lat="44.86793740451197" lon="12.038014867840545"><ele>-5.0</ele><time>2026-04-25T15:57:28Z</time></trkpt><trkpt lat="44.86793386099966" lon="12.037873748932189"><ele>-5.0</ele><time>2026-04-25T15:57:30Z</time></trkpt><trkpt lat="44.86793440292783" lon="12.037731690421342"><ele>-5.0</ele><time>2026-04-25T15:57:32Z</time></trkpt><trkpt lat="44.867934584769536" lon="12.037595934609241"><ele>-5.0</ele><time>2026-04-25T15:57:34Z</time></trkpt><trkpt lat="44.86793173834037" lon="12.037460764060521"><ele>-5.0</ele><time>2026-04-25T15:57:36Z</time></trkpt><trkpt lat="44.86792926612192" lon="12.037320533512293"><ele>-5.4</ele><time>2026-04-25T15:57:38Z</time></trkpt><trkpt lat="44.86792889843685" lon="12.037181469861952"><ele>-5.8</ele><time>2026-04-25T15:57:40Z</time></trkpt><trkpt lat="44.86793020722179" lon="12.03704664793211"><ele>-6.199999999999999</ele><time>2026-04-25T15:57:42Z</time></trkpt><trkpt lat="44.8679287790275" lon="12.036915718806972"><ele>-6.6</ele><time>2026-04-25T15:57:44Z</time></trkpt><trkpt lat="44.86793620261632" lon="12.036781884122796"><ele>-7.0</ele><time>2026-04-25T15:57:46Z</time></trkpt><trkpt lat="44.8679526625185" lon="12.036650186495073"><ele>-6.8</ele><time>2026-04-25T15:57:48Z</time></trkpt><trkpt lat="44.86797503746173" lon="12.03652177332633"><ele>-6.6</ele><time>2026-04-25T15:57:50Z</time></trkpt><trkpt lat="44.86801207987278" lon="12.036391878597732"><ele>-6.3999999999999995</ele><time>2026-04-25T15:57:52Z</time></trkpt><trkpt lat="44.868057910643884" lon="12.036262534814952"><ele>-6.199999999999999</ele><time>2026-04-25T15:57:54Z</time></trkpt><trkpt lat="44.86811563190462" lon="12.03614523072833"><ele>-6.0</ele><time>2026-04-25T15:57:56Z</time></trkpt><trkpt lat="44.86818199697677" lon="12.036031936867834"><ele>-6.0</ele><time>2026-04-25T15:57:58Z</time></trkpt><trkpt lat="44.8682503066781" lon="12.035929822817103"><ele>-6.0</ele><time>2026-04-25T15:58:00Z</time></trkpt><trkpt lat="44.86832511928241" lon="12.03583297210013"><ele>-6.0</ele><time>2026-04-25T15:58:02Z</time></trkpt><trkpt lat="44.868392884977226" lon="12.035730277889947"><ele>-6.0</ele><time>2026-04-25T15:58:04Z</time></trkpt><trkpt lat="44.868464251073405" lon="12.03562447152388"><ele>-6.0</ele><time>2026-04-25T15:58:06Z</time></trkpt><trkpt lat="44.8685314136381" lon="12.035518812290652"><ele>-5.6</ele><time>2026-04-25T15:58:08Z</time></trkpt><trkpt lat="44.86860499654974" lon="12.035409886432348"><ele>-5.199999999999999</ele><time>2026-04-25T15:58:10Z</time></trkpt><trkpt lat="44.86867819144431" lon="12.035300543843391"><ele>-4.800000000000001</ele><time>2026-04-25T15:58:12Z</time></trkpt><trkpt lat="44.86875240437598" lon="12.03519651962216"><ele>-4.4</ele><time>2026-04-25T15:58:14Z</time></trkpt><trkpt lat="44.86882297158426" lon="12.03508867908787"><ele>-4.0</ele><time>2026-04-25T15:58:16Z</time></trkpt><trkpt lat="44.86889754561549" lon="12.034983876422462"><ele>-4.0</ele><time>2026-04-25T15:58:18Z</time></trkpt><trkpt lat="44.86897498479794" lon="12.034887365296749"><ele>-4.0</ele><time>2026-04-25T15:58:20Z</time></trkpt><trkpt lat="44.86905057215004" lon="12.034777149403324"><ele>-4.0</ele><time>2026-04-25T15:58:21.999Z</time></trkpt><trkpt lat="44.86912786954685" lon="12.034671166696688"><ele>-4.0</ele><time>2026-04-25T15:58:23.999Z</time></trkpt><trkpt lat="44.86920188547469" lon="12.034564083500534"><ele>-4.0</ele><time>2026-04-25T15:58:25.999Z</time></trkpt><trkpt lat="44.86927549424756" lon="12.034458344633356"><ele>-3.8000000000000003</ele><time>2026-04-25T15:58:27.999Z</time></trkpt><trkpt lat="44.86935058387319" lon="12.034352033948405"><ele>-3.6000000000000005</ele><time>2026-04-25T15:58:29.999Z</time></trkpt><trkpt lat="44.86942107577799" lon="12.03424311893811"><ele>-3.4</ele><time>2026-04-25T15:58:31.999Z</time></trkpt><trkpt lat="44.86949413928624" lon="12.034138231594268"><ele>-3.2</ele><time>2026-04-25T15:58:33.999Z</time></trkpt><trkpt lat="44.86956397880992" lon="12.034036018915593"><ele>-3.0</ele><time>2026-04-25T15:58:35.999Z</time></trkpt><trkpt lat="44.8696284695985" lon="12.03393060070351"><ele>-3.0</ele><time>2026-04-25T15:58:37.999Z</time></trkpt><trkpt lat="44.869693122622515" lon="12.03383725270847"><ele>-3.0</ele><time>2026-04-25T15:58:39.999Z</time></trkpt><trkpt lat="44.86975713171811" lon="12.033750255300903"><ele>-3.0</ele><time>2026-04-25T15:58:41.999Z</time></trkpt><trkpt lat="44.86982391655451" lon="12.033651813052874"><ele>-3.0</ele><time>2026-04-25T15:58:43.999Z</time></trkpt><trkpt lat="44.86989274976658" lon="12.033555198799961"><ele>-3.0</ele><time>2026-04-25T15:58:45.999Z</time></trkpt><trkpt lat="44.869962028444" lon="12.033461154723762"><ele>-3.0</ele><time>2026-04-25T15:58:47.999Z</time></trkpt><trkpt lat="44.87002404799593" lon="12.033367626730234"><ele>-3.0</ele><time>2026-04-25T15:58:49.999Z</time></trkpt><trkpt lat="44.87008513880613" lon="12.033274501541326"><ele>-3.0</ele><time>2026-04-25T15:58:51.999Z</time></trkpt><trkpt lat="44.87014541886528" lon="12.033188340364688"><ele>-3.0</ele><time>2026-04-25T15:58:53.999Z</time></trkpt><trkpt lat="44.87020386105832" lon="12.033102825004343"><ele>-3.0</ele><time>2026-04-25T15:58:56Z</time></trkpt><trkpt lat="44.870261773338875" lon="12.03301552669612"><ele>-3.0</ele><time>2026-04-25T15:58:58Z</time></trkpt><trkpt lat="44.870323965274245" lon="12.032928338443798"><ele>-3.1666666666666665</ele><time>2026-04-25T15:59:00Z</time></trkpt><trkpt lat="44.87038397702129" lon="12.032842553631108"><ele>-3.333333333333333</ele><time>2026-04-25T15:59:02Z</time></trkpt><trkpt lat="44.87044235121451" lon="12.032755739654853"><ele>-3.5</ele><time>2026-04-25T15:59:04Z</time></trkpt><trkpt lat="44.87049826654815" lon="12.032671757337907"><ele>-3.6666666666666665</ele><time>2026-04-25T15:59:06Z</time></trkpt><trkpt lat="44.87055876432013" lon="12.032584232423023"><ele>-3.833333333333333</ele><time>2026-04-25T15:59:08Z</time></trkpt><trkpt lat="44.87062349022196" lon="12.032486766354044"><ele>-4.0</ele><time>2026-04-25T15:59:10Z</time></trkpt><trkpt lat="44.870688677533465" lon="12.03239457616592"><ele>-3.9999999999999996</ele><time>2026-04-25T15:59:12Z</time></trkpt><trkpt lat="44.870750338569465" lon="12.03230419244713"><ele>-4.0</ele><time>2026-04-25T15:59:14Z</time></trkpt><trkpt lat="44.87081073382178" lon="12.032223892247842"><ele>-4.0</ele><time>2026-04-25T15:59:16Z</time></trkpt><trkpt lat="44.87087247761804" lon="12.032138386203723"><ele>-4.0</ele><time>2026-04-25T15:59:18Z</time></trkpt><trkpt lat="44.87093250675739" lon="12.032045004515684"><ele>-3.9999999999999996</ele><time>2026-04-25T15:59:20Z</time></trkpt><trkpt lat="44.871000211669006" lon="12.03194747952171"><ele>-4.0</ele><time>2026-04-25T15:59:22Z</time></trkpt><trkpt lat="44.87106806887125" lon="12.031854833595467"><ele>-4.2</ele><time>2026-04-25T15:59:24Z</time></trkpt><trkpt lat="44.87113654334864" lon="12.031757149492936"><ele>-4.4</ele><time>2026-04-25T15:59:26Z</time></trkpt><trkpt lat="44.871202303673826" lon="12.031652985633537"><ele>-4.6</ele><time>2026-04-25T15:59:28Z</time></trkpt><trkpt lat="44.87126913250066" lon="12.031555697190825"><ele>-4.8</ele><time>2026-04-25T15:59:30Z</time></trkpt><trkpt lat="44.87133723900558" lon="12.031453765935318"><ele>-5.0</ele><time>2026-04-25T15:59:32Z</time></trkpt><trkpt lat="44.87140606325781" lon="12.031353136313381"><ele>-5.0</ele><time>2026-04-25T15:59:34Z</time></trkpt><trkpt lat="44.87147787626917" lon="12.031250268976091"><ele>-5.0</ele><time>2026-04-25T15:59:36Z</time></trkpt><trkpt lat="44.871554101124" lon="12.031140505991818"><ele>-5.0</ele><time>2026-04-25T15:59:38Z</time></trkpt><trkpt lat="44.87162703775852" lon="12.031030547412621"><ele>-5.0</ele><time>2026-04-25T15:59:40Z</time></trkpt><trkpt lat="44.8717077438913" lon="12.030919735970942"><ele>-5.0</ele><time>2026-04-25T15:59:42Z</time></trkpt><trkpt lat="44.87178311625602" lon="12.030812922263063"><ele>-4.8</ele><time>2026-04-25T15:59:44Z</time></trkpt><trkpt lat="44.87185624468856" lon="12.030698271545921"><ele>-4.6</ele><time>2026-04-25T15:59:46Z</time></trkpt><trkpt lat="44.87193238663735" lon="12.030588480050927"><ele>-4.4</ele><time>2026-04-25T15:59:48Z</time></trkpt><trkpt lat="44.87200829457163" lon="12.030486057882243"><ele>-4.2</ele><time>2026-04-25T15:59:50Z</time></trkpt><trkpt lat="44.8720850604661" lon="12.03036885027757"><ele>-4.0</ele><time>2026-04-25T15:59:52Z</time></trkpt><trkpt lat="44.872159489808496" lon="12.030251609204862"><ele>-4.0</ele><time>2026-04-25T15:59:54Z</time></trkpt><trkpt lat="44.87223681375551" lon="12.03013893244721"><ele>-4.0</ele><time>2026-04-25T15:59:56Z</time></trkpt><trkpt lat="44.872312289343576" lon="12.030032777007685"><ele>-4.0</ele><time>2026-04-25T15:59:58Z</time></trkpt><trkpt lat="44.87238463343344" lon="12.029926719279871"><ele>-4.0</ele><time>2026-04-25T16:00:00Z</time></trkpt><trkpt lat="44.87245464675264" lon="12.029824447513954"><ele>-4.0</ele><time>2026-04-25T16:00:02Z</time></trkpt><trkpt lat="44.87252675075247" lon="12.029725421022372"><ele>-4.0</ele><time>2026-04-25T16:00:04Z</time></trkpt><trkpt lat="44.87259567568422" lon="12.029631737016773"><ele>-4.0</ele><time>2026-04-25T16:00:06Z</time></trkpt><trkpt lat="44.87266358100095" lon="12.029525676726477"><ele>-4.0</ele><time>2026-04-25T16:00:08Z</time></trkpt><trkpt lat="44.87273101988613" lon="12.029429203565892"><ele>-4.0</ele><time>2026-04-25T16:00:10Z</time></trkpt><trkpt lat="44.872794391497514" lon="12.029336698399156"><ele>-4.0</ele><time>2026-04-25T16:00:12Z</time></trkpt><trkpt lat="44.87285783943382" lon="12.029241280157382"><ele>-3.9999999999999996</ele><time>2026-04-25T16:00:14Z</time></trkpt><trkpt lat="44.87291877784164" lon="12.029155047974918"><ele>-4.0</ele><time>2026-04-25T16:00:16Z</time></trkpt><trkpt lat="44.872977079647114" lon="12.029071882870353"><ele>-4.0</ele><time>2026-04-25T16:00:18Z</time></trkpt><trkpt lat="44.873032112127525" lon="12.02898923473926"><ele>-4.0</ele><time>2026-04-25T16:00:20Z</time></trkpt><trkpt lat="44.873085025381" lon="12.028910158177194"><ele>-3.9999999999999996</ele><time>2026-04-25T16:00:22Z</time></trkpt><trkpt lat="44.87314417558351" lon="12.028828459687915"><ele>-4.0</ele><time>2026-04-25T16:00:24Z</time></trkpt><trkpt lat="44.87320840362186" lon="12.028726293913772"><ele>-4.0</ele><time>2026-04-25T16:00:26Z</time></trkpt><trkpt lat="44.87327662876207" lon="12.028630443249003"><ele>-4.0</ele><time>2026-04-25T16:00:28Z</time></trkpt><trkpt lat="44.873345530974866" lon="12.028536024264152"><ele>-4.0</ele><time>2026-04-25T16:00:30Z</time></trkpt><trkpt lat="44.873409189528175" lon="12.028435853076402"><ele>-4.0</ele><time>2026-04-25T16:00:32Z</time></trkpt><trkpt lat="44.87347530064697" lon="12.028344674861328"><ele>-4.0</ele><time>2026-04-25T16:00:34Z</time></trkpt><trkpt lat="44.873536668777376" lon="12.028248495773186"><ele>-4.166666666666666</ele><time>2026-04-25T16:00:36Z</time></trkpt><trkpt lat="44.87359687882758" lon="12.028162970908529"><ele>-4.333333333333333</ele><time>2026-04-25T16:00:38Z</time></trkpt><trkpt lat="44.87365871844577" lon="12.028066993268926"><ele>-4.5</ele><time>2026-04-25T16:00:39.999Z</time></trkpt><trkpt lat="44.8737267676604" lon="12.027974398319158"><ele>-4.666666666666667</ele><time>2026-04-25T16:00:41.999Z</time></trkpt><trkpt lat="44.87378921347935" lon="12.027879039974211"><ele>-4.833333333333334</ele><time>2026-04-25T16:00:43.999Z</time></trkpt><trkpt lat="44.873846329487726" lon="12.027789131335306"><ele>-5.0</ele><time>2026-04-25T16:00:45.999Z</time></trkpt><trkpt lat="44.873907475741404" lon="12.027708237847918"><ele>-5.0</ele><time>2026-04-25T16:00:47.999Z</time></trkpt><trkpt lat="44.87396988312267" lon="12.027616841918412"><ele>-5.0</ele><time>2026-04-25T16:00:49.999Z</time></trkpt><trkpt lat="44.874036041881624" lon="12.027521448972864"><ele>-5.0</ele><time>2026-04-25T16:00:51.999Z</time></trkpt><trkpt lat="44.87410566667224" lon="12.027423342350948"><ele>-5.0</ele><time>2026-04-25T16:00:53.999Z</time></trkpt><trkpt lat="44.87417651716187" lon="12.027328894943953"><ele>-5.0</ele><time>2026-04-25T16:00:55.999Z</time></trkpt><trkpt lat="44.87424134109922" lon="12.027225938371522"><ele>-5.0</ele><time>2026-04-25T16:00:57.999Z</time></trkpt><trkpt lat="44.87431122471944" lon="12.027127175084837"><ele>-5.0</ele><time>2026-04-25T16:00:59.999Z</time></trkpt><trkpt lat="44.874379620255354" lon="12.027028110591937"><ele>-5.0</ele><time>2026-04-25T16:01:02Z</time></trkpt><trkpt lat="44.87445057376937" lon="12.026927831183166"><ele>-5.0</ele><time>2026-04-25T16:01:04Z</time></trkpt><trkpt lat="44.87451968486587" lon="12.02682596027605"><ele>-5.0</ele><time>2026-04-25T16:01:06Z</time></trkpt><trkpt lat="44.874588511142996" lon="12.026726665719686"><ele>-4.6</ele><time>2026-04-25T16:01:08Z</time></trkpt><trkpt lat="44.87465400914908" lon="12.026634228406056"><ele>-4.2</ele><time>2026-04-25T16:01:10Z</time></trkpt><trkpt lat="44.87471521628544" lon="12.026544237984314"><ele>-3.8</ele><time>2026-04-25T16:01:12Z</time></trkpt><trkpt lat="44.874770867534096" lon="12.026450299995796"><ele>-3.4</ele><time>2026-04-25T16:01:14Z</time></trkpt><trkpt lat="44.87482731717247" lon="12.02634056479492"><ele>-3.0</ele><time>2026-04-25T16:01:16Z</time></trkpt><trkpt lat="44.87487752889441" lon="12.026223292944403"><ele>-3.0</ele><time>2026-04-25T16:01:18Z</time></trkpt><trkpt lat="44.87492703491331" lon="12.026099638468624"><ele>-3.0</ele><time>2026-04-25T16:01:20Z</time></trkpt><trkpt lat="44.87496682733816" lon="12.025980313988047"><ele>-3.0</ele><time>2026-04-25T16:01:22Z</time></trkpt><trkpt lat="44.87500510166855" lon="12.025851978448461"><ele>-3.0</ele><time>2026-04-25T16:01:24Z</time></trkpt><trkpt lat="44.87502366342441" lon="12.025709872525336"><ele>-3.0</ele><time>2026-04-25T16:01:26Z</time></trkpt><trkpt lat="44.87503947672547" lon="12.025568230845014"><ele>-3.0</ele><time>2026-04-25T16:01:28Z</time></trkpt><trkpt lat="44.87504920681019" lon="12.025416342183192"><ele>-3.0</ele><time>2026-04-25T16:01:30Z</time></trkpt><trkpt lat="44.87506106710643" lon="12.025275544332926"><ele>-3.0</ele><time>2026-04-25T16:01:32Z</time></trkpt><trkpt lat="44.875070154784765" lon="12.02512607391423"><ele>-3.0</ele><time>2026-04-25T16:01:34Z</time></trkpt><trkpt lat="44.875080990247476" lon="12.024982037101974"><ele>-3.0</ele><time>2026-04-25T16:01:36Z</time></trkpt><trkpt lat="44.8750885271808" lon="12.024836131045197"><ele>-3.0</ele><time>2026-04-25T16:01:38Z</time></trkpt><trkpt lat="44.87509210523014" lon="12.024692985999932"><ele>-3.0</ele><time>2026-04-25T16:01:40Z</time></trkpt><trkpt lat="44.875103239294305" lon="12.024552690364903"><ele>-3.0</ele><time>2026-04-25T16:01:42Z</time></trkpt><trkpt lat="44.875110865374424" lon="12.024411867162716"><ele>-3.0</ele><time>2026-04-25T16:01:44Z</time></trkpt><trkpt lat="44.87511519671292" lon="12.024273092401657"><ele>-3.0</ele><time>2026-04-25T16:01:46Z</time></trkpt><trkpt lat="44.875127741315026" lon="12.024137048972616"><ele>-3.4</ele><time>2026-04-25T16:01:48Z</time></trkpt><trkpt lat="44.8751283688368" lon="12.024002233583973"><ele>-3.8</ele><time>2026-04-25T16:01:50Z</time></trkpt><trkpt lat="44.87514031827267" lon="12.023879415805784"><ele>-4.2</ele><time>2026-04-25T16:01:52Z</time></trkpt><trkpt lat="44.87515156163572" lon="12.023741540582543"><ele>-4.6</ele><time>2026-04-25T16:01:54Z</time></trkpt><trkpt lat="44.87514940903229" lon="12.023617610643322"><ele>-5.0</ele><time>2026-04-25T16:01:56Z</time></trkpt><trkpt lat="44.87515354928698" lon="12.023493318502153"><ele>-5.0</ele><time>2026-04-25T16:01:58Z</time></trkpt><trkpt lat="44.87516431396164" lon="12.023363829887744"><ele>-5.0</ele><time>2026-04-25T16:02:00Z</time></trkpt><trkpt lat="44.87517144995051" lon="12.023230431286818"><ele>-5.0</ele><time>2026-04-25T16:02:02Z</time></trkpt><trkpt lat="44.87518178739404" lon="12.023099360778202"><ele>-5.0</ele><time>2026-04-25T16:02:04Z</time></trkpt><trkpt lat="44.87518699280792" lon="12.02296134644572"><ele>-5.0</ele><time>2026-04-25T16:02:06Z</time></trkpt><trkpt lat="44.875197528909524" lon="12.022825341289222"><ele>-4.8</ele><time>2026-04-25T16:02:08Z</time></trkpt><trkpt lat="44.875203702604814" lon="12.02268677199706"><ele>-4.6</ele><time>2026-04-25T16:02:10Z</time></trkpt><trkpt lat="44.875212818567" lon="12.022551446824753"><ele>-4.4</ele><time>2026-04-25T16:02:12Z</time></trkpt><trkpt lat="44.87522193580006" lon="12.022415163807482"><ele>-4.2</ele><time>2026-04-25T16:02:14Z</time></trkpt><trkpt lat="44.87522592229342" lon="12.022279660615707"><ele>-4.0</ele><time>2026-04-25T16:02:16Z</time></trkpt><trkpt lat="44.8752357547155" lon="12.022142934475466"><ele>-3.8000000000000003</ele><time>2026-04-25T16:02:18Z</time></trkpt><trkpt lat="44.875238306709676" lon="12.021999551823006"><ele>-3.6000000000000005</ele><time>2026-04-25T16:02:20Z</time></trkpt><trkpt lat="44.875250220041046" lon="12.021860521408714"><ele>-3.4</ele><time>2026-04-25T16:02:22Z</time></trkpt><trkpt lat="44.87525773726042" lon="12.0217151157259"><ele>-3.2</ele><time>2026-04-25T16:02:24Z</time></trkpt><trkpt lat="44.875271229559964" lon="12.021572084644509"><ele>-3.0</ele><time>2026-04-25T16:02:26Z</time></trkpt><trkpt lat="44.8752921804694" lon="12.021424136657828"><ele>-3.0</ele><time>2026-04-25T16:02:28Z</time></trkpt><trkpt lat="44.87533057948683" lon="12.021270396776245"><ele>-3.0</ele><time>2026-04-25T16:02:30Z</time></trkpt><trkpt lat="44.875377310337456" lon="12.021131813146457"><ele>-3.0</ele><time>2026-04-25T16:02:32Z</time></trkpt><trkpt lat="44.875430280414456" lon="12.021006976527381"><ele>-3.0</ele><time>2026-04-25T16:02:34Z</time></trkpt><trkpt lat="44.87549944858753" lon="12.020882744745313"><ele>-3.0</ele><time>2026-04-25T16:02:36Z</time></trkpt><trkpt lat="44.875576733615915" lon="12.02077405035517"><ele>-3.2</ele><time>2026-04-25T16:02:38Z</time></trkpt><trkpt lat="44.875657900329294" lon="12.02068784089234"><ele>-3.4</ele><time>2026-04-25T16:02:40Z</time></trkpt><trkpt lat="44.8757347734119" lon="12.020606307248052"><ele>-3.6000000000000005</ele><time>2026-04-25T16:02:42Z</time></trkpt><trkpt lat="44.875812918342376" lon="12.020534364130214"><ele>-3.8000000000000003</ele><time>2026-04-25T16:02:44Z</time></trkpt><trkpt lat="44.875881662091395" lon="12.020460789009691"><ele>-4.0</ele><time>2026-04-25T16:02:46Z</time></trkpt><trkpt lat="44.87595674723156" lon="12.02039392237021"><ele>-3.9999999999999996</ele><time>2026-04-25T16:02:48Z</time></trkpt><trkpt lat="44.876028351912154" lon="12.020325886687717"><ele>-4.0</ele><time>2026-04-25T16:02:50Z</time></trkpt><trkpt lat="44.87609253818116" lon="12.02025090795468"><ele>-4.0</ele><time>2026-04-25T16:02:52Z</time></trkpt><trkpt lat="44.87616557194849" lon="12.02017741931931"><ele>-4.0</ele><time>2026-04-25T16:02:54Z</time></trkpt><trkpt lat="44.876237915162704" lon="12.02011123024098"><ele>-3.9999999999999996</ele><time>2026-04-25T16:02:56Z</time></trkpt><trkpt lat="44.876304570592694" lon="12.020037441157447"><ele>-4.0</ele><time>2026-04-25T16:02:58Z</time></trkpt><trkpt lat="44.87637231748999" lon="12.019969631585246"><ele>-3.8000000000000003</ele><time>2026-04-25T16:03:00Z</time></trkpt><trkpt lat="44.87644830103821" lon="12.019893274583561"><ele>-3.6000000000000005</ele><time>2026-04-25T16:03:02Z</time></trkpt><trkpt lat="44.876528100705855" lon="12.019814269878133"><ele>-3.4</ele><time>2026-04-25T16:03:04Z</time></trkpt><trkpt lat="44.876612175770916" lon="12.019739960763822"><ele>-3.2</ele><time>2026-04-25T16:03:06Z</time></trkpt><trkpt lat="44.876693565572936" lon="12.019659152976525"><ele>-3.0</ele><time>2026-04-25T16:03:08Z</time></trkpt><trkpt lat="44.87677234376058" lon="12.019568305868734"><ele>-3.0</ele><time>2026-04-25T16:03:10Z</time></trkpt><trkpt lat="44.87685631671025" lon="12.019495454812988"><ele>-3.0</ele><time>2026-04-25T16:03:12Z</time></trkpt><trkpt lat="44.87693633772066" lon="12.019409092725729"><ele>-3.0</ele><time>2026-04-25T16:03:14Z</time></trkpt><trkpt lat="44.877020890961106" lon="12.019325453649394"><ele>-3.0</ele><time>2026-04-25T16:03:16Z</time></trkpt><trkpt lat="44.8771044824373" lon="12.019239156309904"><ele>-3.0</ele><time>2026-04-25T16:03:18Z</time></trkpt><trkpt lat="44.87718983089158" lon="12.019161105011648"><ele>-3.0</ele><time>2026-04-25T16:03:20Z</time></trkpt><trkpt lat="44.87726858027303" lon="12.01907419013899"><ele>-3.0</ele><time>2026-04-25T16:03:22Z</time></trkpt><trkpt lat="44.877350751585766" lon="12.018994736475124"><ele>-3.0</ele><time>2026-04-25T16:03:24Z</time></trkpt><trkpt lat="44.87741911581913" lon="12.018894055375453"><ele>-3.0</ele><time>2026-04-25T16:03:26Z</time></trkpt><trkpt lat="44.87748549632329" lon="12.018800060020586"><ele>-3.0</ele><time>2026-04-25T16:03:28Z</time></trkpt><trkpt lat="44.877543839329824" lon="12.01870259462051"><ele>-3.0</ele><time>2026-04-25T16:03:30Z</time></trkpt><trkpt lat="44.877593778089626" lon="12.018597623821515"><ele>-3.0</ele><time>2026-04-25T16:03:32Z</time></trkpt><trkpt lat="44.8776488429458" lon="12.01848886708805"><ele>-3.0</ele><time>2026-04-25T16:03:34Z</time></trkpt><trkpt lat="44.87769875370606" lon="12.018369247139319"><ele>-3.0</ele><time>2026-04-25T16:03:36Z</time></trkpt><trkpt lat="44.87774679618852" lon="12.018248570878638"><ele>-3.0</ele><time>2026-04-25T16:03:38Z</time></trkpt><trkpt lat="44.87778165817484" lon="12.0181250112376"><ele>-2.8</ele><time>2026-04-25T16:03:40Z</time></trkpt><trkpt lat="44.87781208448002" lon="12.017980174788065"><ele>-2.5999999999999996</ele><time>2026-04-25T16:03:42Z</time></trkpt><trkpt lat="44.87784992234337" lon="12.01784839695382"><ele>-2.4000000000000004</ele><time>2026-04-25T16:03:44Z</time></trkpt><trkpt lat="44.87788322824965" lon="12.017712681428748"><ele>-2.2</ele><time>2026-04-25T16:03:46Z</time></trkpt><trkpt lat="44.87791721003602" lon="12.017580384438524"><ele>-2.0</ele><time>2026-04-25T16:03:48Z</time></trkpt><trkpt lat="44.87794972355709" lon="12.017452251621116"><ele>-1.8</ele><time>2026-04-25T16:03:50Z</time></trkpt><trkpt lat="44.87798713450758" lon="12.017314022385163"><ele>-1.6</ele><time>2026-04-25T16:03:52Z</time></trkpt><trkpt lat="44.87802119051873" lon="12.017192044565974"><ele>-1.4000000000000001</ele><time>2026-04-25T16:03:54Z</time></trkpt><trkpt lat="44.8780475906321" lon="12.01706685856567"><ele>-1.2000000000000002</ele><time>2026-04-25T16:03:56Z</time></trkpt><trkpt lat="44.87808199766275" lon="12.016951871588265"><ele>-1.0</ele><time>2026-04-25T16:03:58Z</time></trkpt><trkpt lat="44.87810602206619" lon="12.016835843628186"><ele>-0.9999999999999999</ele><time>2026-04-25T16:04:00Z</time></trkpt><trkpt lat="44.87813208413006" lon="12.016725301098408"><ele>-1.0</ele><time>2026-04-25T16:04:02Z</time></trkpt><trkpt lat="44.8781668890262" lon="12.016624681924633"><ele>-1.0</ele><time>2026-04-25T16:04:04Z</time></trkpt><trkpt lat="44.87818496700581" lon="12.016518770656395"><ele>-1.0</ele><time>2026-04-25T16:04:06Z</time></trkpt><trkpt lat="44.87821696683905" lon="12.016416328301922"><ele>-0.9999999999999999</ele><time>2026-04-25T16:04:08Z</time></trkpt><trkpt lat="44.87825255199784" lon="12.016330172987464"><ele>-1.0</ele><time>2026-04-25T16:04:11Z</time></trkpt><trkpt lat="44.87828385907012" lon="12.016231533343118"><ele>-1.4</ele><time>2026-04-25T16:04:31Z</time></trkpt><trkpt lat="44.87830237150687" lon="12.016130669620923"><ele>-1.8</ele><time>2026-04-25T16:04:33Z</time></trkpt><trkpt lat="44.87833327753365" lon="12.016009405305297"><ele>-2.1999999999999997</ele><time>2026-04-25T16:04:35Z</time></trkpt><trkpt lat="44.878368647911806" lon="12.015879650485148"><ele>-2.6</ele><time>2026-04-25T16:04:37Z</time></trkpt><trkpt lat="44.87839919272729" lon="12.01574589743929"><ele>-3.0</ele><time>2026-04-25T16:04:39Z</time></trkpt><trkpt lat="44.878437739314634" lon="12.015623158146097"><ele>-3.0</ele><time>2026-04-25T16:04:41Z</time></trkpt><trkpt lat="44.87847084801125" lon="12.015493936951883"><ele>-3.0</ele><time>2026-04-25T16:04:43Z</time></trkpt><trkpt lat="44.87850481353841" lon="12.015362259214305"><ele>-3.0</ele><time>2026-04-25T16:04:45Z</time></trkpt><trkpt lat="44.87853684596251" lon="12.015230572671692"><ele>-3.0</ele><time>2026-04-25T16:04:47Z</time></trkpt><trkpt lat="44.878570862349505" lon="12.015107291185853"><ele>-3.0</ele><time>2026-04-25T16:04:49Z</time></trkpt><trkpt lat="44.8786029096174" lon="12.01498498874354"><ele>-3.3333333333333335</ele><time>2026-04-25T16:04:51Z</time></trkpt><trkpt lat="44.8786349973163" lon="12.01486627450146"><ele>-3.666666666666667</ele><time>2026-04-25T16:04:53Z</time></trkpt><trkpt lat="44.87866363375149" lon="12.014747203977896"><ele>-4.0</ele><time>2026-04-25T16:04:55Z</time></trkpt><trkpt lat="44.87869619637617" lon="12.014633307704479"><ele>-4.333333333333334</ele><time>2026-04-25T16:04:57Z</time></trkpt><trkpt lat="44.87872596848193" lon="12.014516586361454"><ele>-4.666666666666667</ele><time>2026-04-25T16:04:59Z</time></trkpt><trkpt lat="44.87875631459646" lon="12.014392364749607"><ele>-5.0</ele><time>2026-04-25T16:05:01Z</time></trkpt><trkpt lat="44.878790633223645" lon="12.014261963628377"><ele>-5.0</ele><time>2026-04-25T16:05:03Z</time></trkpt><trkpt lat="44.878825809757856" lon="12.014134635076834"><ele>-5.0</ele><time>2026-04-25T16:05:05Z</time></trkpt><trkpt lat="44.87885779798273" lon="12.014007564818817"><ele>-5.0</ele><time>2026-04-25T16:05:07Z</time></trkpt><trkpt lat="44.87889095942923" lon="12.01387853927523"><ele>-5.0</ele><time>2026-04-25T16:05:09Z</time></trkpt><trkpt lat="44.878924164413455" lon="12.013758901999127"><ele>-5.0</ele><time>2026-04-25T16:05:11Z</time></trkpt><trkpt lat="44.87895738608466" lon="12.013641603601675"><ele>-5.0</ele><time>2026-04-25T16:05:13Z</time></trkpt><trkpt lat="44.87898522542233" lon="12.013522053971606"><ele>-5.0</ele><time>2026-04-25T16:05:15Z</time></trkpt><trkpt lat="44.87901682861081" lon="12.013395815269412"><ele>-5.0</ele><time>2026-04-25T16:05:17Z</time></trkpt><trkpt lat="44.87904984169824" lon="12.013270779134709"><ele>-5.0</ele><time>2026-04-25T16:05:19Z</time></trkpt><trkpt lat="44.87908024703868" lon="12.013142325000945"><ele>-5.0</ele><time>2026-04-25T16:05:21Z</time></trkpt><trkpt lat="44.8791172301575" lon="12.013016539906765"><ele>-5.0</ele><time>2026-04-25T16:05:23Z</time></trkpt><trkpt lat="44.87915036486777" lon="12.012890428517865"><ele>-5.0</ele><time>2026-04-25T16:05:25Z</time></trkpt><trkpt lat="44.87918059380542" lon="12.01276382889047"><ele>-5.0</ele><time>2026-04-25T16:05:27Z</time></trkpt><trkpt lat="44.87921895906939" lon="12.012628705245383"><ele>-5.0</ele><time>2026-04-25T16:05:29Z</time></trkpt><trkpt lat="44.87925547149454" lon="12.012489249043831"><ele>-5.0</ele><time>2026-04-25T16:05:31Z</time></trkpt><trkpt lat="44.8792880384869" lon="12.012355149857163"><ele>-5.0</ele><time>2026-04-25T16:05:33Z</time></trkpt><trkpt lat="44.879323344524956" lon="12.012224178518371"><ele>-5.0</ele><time>2026-04-25T16:05:35Z</time></trkpt><trkpt lat="44.87935784509607" lon="12.012092308096902"><ele>-5.0</ele><time>2026-04-25T16:05:37Z</time></trkpt><trkpt lat="44.879393073631164" lon="12.011959534149122"><ele>-5.0</ele><time>2026-04-25T16:05:39Z</time></trkpt><trkpt lat="44.87942724415245" lon="12.011825742098603"><ele>-5.0</ele><time>2026-04-25T16:05:41Z</time></trkpt><trkpt lat="44.87946214087679" lon="12.01169178535217"><ele>-4.8</ele><time>2026-04-25T16:05:43Z</time></trkpt><trkpt lat="44.87949548004038" lon="12.01156212843377"><ele>-4.6</ele><time>2026-04-25T16:05:45Z</time></trkpt><trkpt lat="44.87952844483053" lon="12.011430397893555"><ele>-4.4</ele><time>2026-04-25T16:05:47Z</time></trkpt><trkpt lat="44.879563104840855" lon="12.011303020600241"><ele>-4.2</ele><time>2026-04-25T16:05:49Z</time></trkpt><trkpt lat="44.879596947510315" lon="12.011169347107831"><ele>-4.0</ele><time>2026-04-25T16:05:51Z</time></trkpt><trkpt lat="44.87963033605368" lon="12.011037561104986"><ele>-4.0</ele><time>2026-04-25T16:05:53Z</time></trkpt><trkpt lat="44.87966102540468" lon="12.010907366191258"><ele>-4.0</ele><time>2026-04-25T16:05:55Z</time></trkpt><trkpt lat="44.87969893387111" lon="12.010788087600778"><ele>-4.0</ele><time>2026-04-25T16:05:57Z</time></trkpt><trkpt lat="44.879730883356906" lon="12.010657102315124"><ele>-4.0</ele><time>2026-04-25T16:05:59Z</time></trkpt><trkpt lat="44.87976531194524" lon="12.010530609028779"><ele>-4.0</ele><time>2026-04-25T16:06:01Z</time></trkpt><trkpt lat="44.8797898064441" lon="12.010393593081112"><ele>-4.0</ele><time>2026-04-25T16:06:03Z</time></trkpt><trkpt lat="44.879828571108014" lon="12.010268676082111"><ele>-4.0</ele><time>2026-04-25T16:06:05Z</time></trkpt><trkpt lat="44.879869029243594" lon="12.010137374210407"><ele>-4.0</ele><time>2026-04-25T16:06:07Z</time></trkpt><trkpt lat="44.87990276405466" lon="12.01001438465407"><ele>-4.0</ele><time>2026-04-25T16:06:09Z</time></trkpt><trkpt lat="44.87993130497559" lon="12.009893009088072"><ele>-4.0</ele><time>2026-04-25T16:06:11Z</time></trkpt><trkpt lat="44.87996369507459" lon="12.009782836684876"><ele>-3.9999999999999996</ele><time>2026-04-25T16:06:13Z</time></trkpt><trkpt lat="44.87998696819495" lon="12.009681242290366"><ele>-4.0</ele><time>2026-04-25T16:06:15Z</time></trkpt><trkpt lat="44.880019578458544" lon="12.009589978617939"><ele>-4.0</ele><time>2026-04-25T16:06:17Z</time></trkpt><trkpt lat="44.880048502017424" lon="12.0094760699331"><ele>-4.0</ele><time>2026-04-25T16:06:19Z</time></trkpt><trkpt lat="44.880075595411746" lon="12.009361899231745"><ele>-3.9999999999999996</ele><time>2026-04-25T16:06:21Z</time></trkpt><trkpt lat="44.880108325456206" lon="12.009247839058995"><ele>-4.0</ele><time>2026-04-25T16:06:23Z</time></trkpt><trkpt lat="44.880133739532766" lon="12.009139645031052"><ele>-3.9999999999999996</ele><time>2026-04-25T16:06:25Z</time></trkpt><trkpt lat="44.880166599624474" lon="12.009029157457046"><ele>-4.0</ele><time>2026-04-25T16:06:27Z</time></trkpt><trkpt lat="44.880191375170995" lon="12.008915695143138"><ele>-4.0</ele><time>2026-04-25T16:06:29Z</time></trkpt><trkpt lat="44.88022352510947" lon="12.008808709035803"><ele>-4.0</ele><time>2026-04-25T16:06:31Z</time></trkpt><trkpt lat="44.88028947568216" lon="12.008726496991658"><ele>-3.9999999999999996</ele><time>2026-04-25T16:06:33Z</time></trkpt><trkpt lat="44.880370044150915" lon="12.008695005879112"><ele>-4.0</ele><time>2026-04-25T16:06:35Z</time></trkpt><trkpt lat="44.880453699202526" lon="12.008730654415487"><ele>-4.0</ele><time>2026-04-25T16:06:37Z</time></trkpt><trkpt lat="44.88053569823806" lon="12.00877550933523"><ele>-4.0</ele><time>2026-04-25T16:06:39Z</time></trkpt><trkpt lat="44.88063066228586" lon="12.008820868252133"><ele>-4.0</ele><time>2026-04-25T16:06:41Z</time></trkpt><trkpt lat="44.88073059028724" lon="12.008871793269435"><ele>-4.0</ele><time>2026-04-25T16:06:43Z</time></trkpt><trkpt lat="44.88082919131936" lon="12.008920664068961"><ele>-4.0</ele><time>2026-04-25T16:06:45Z</time></trkpt><trkpt lat="44.880932281565066" lon="12.008975829985214"><ele>-4.0</ele><time>2026-04-25T16:06:47Z</time></trkpt><trkpt lat="44.881031553426205" lon="12.009028475404355"><ele>-4.0</ele><time>2026-04-25T16:06:49Z</time></trkpt><trkpt lat="44.88113133228943" lon="12.009078736738994"><ele>-4.0</ele><time>2026-04-25T16:06:51Z</time></trkpt><trkpt lat="44.88123706114912" lon="12.009137307683417"><ele>-4.0</ele><time>2026-04-25T16:06:53Z</time></trkpt><trkpt lat="44.88133803605079" lon="12.009198252787412"><ele>-4.0</ele><time>2026-04-25T16:06:55Z</time></trkpt><trkpt lat="44.88143786492055" lon="12.009261306618555"><ele>-3.8000000000000003</ele><time>2026-04-25T16:06:57Z</time></trkpt><trkpt lat="44.88153546186564" lon="12.009328016152528"><ele>-3.6000000000000005</ele><time>2026-04-25T16:06:59Z</time></trkpt><trkpt lat="44.881630232200635" lon="12.009401555364862"><ele>-3.4</ele><time>2026-04-25T16:07:01Z</time></trkpt><trkpt lat="44.88171942491386" lon="12.009482786673708"><ele>-3.2</ele><time>2026-04-25T16:07:03Z</time></trkpt><trkpt lat="44.881809959884826" lon="12.009563751159398"><ele>-3.0</ele><time>2026-04-25T16:07:05Z</time></trkpt><trkpt lat="44.88189395607039" lon="12.00965661723501"><ele>-3.4</ele><time>2026-04-25T16:07:07Z</time></trkpt><trkpt lat="44.88197808062463" lon="12.009749654137218"><ele>-3.8</ele><time>2026-04-25T16:07:09Z</time></trkpt><trkpt lat="44.88205784157453" lon="12.009843825019958"><ele>-4.2</ele><time>2026-04-25T16:07:11Z</time></trkpt><trkpt lat="44.88213350778145" lon="12.009943105679582"><ele>-4.6</ele><time>2026-04-25T16:07:13Z</time></trkpt><trkpt lat="44.88221080766734" lon="12.010042342760514"><ele>-5.0</ele><time>2026-04-25T16:07:15Z</time></trkpt><trkpt lat="44.88228809649574" lon="12.010138752693631"><ele>-5.0</ele><time>2026-04-25T16:07:17Z</time></trkpt><trkpt lat="44.88236239635322" lon="12.01023631236714"><ele>-5.0</ele><time>2026-04-25T16:07:19Z</time></trkpt><trkpt lat="44.88243713503742" lon="12.01033257786077"><ele>-5.0</ele><time>2026-04-25T16:07:21Z</time></trkpt><trkpt lat="44.88251352111246" lon="12.010430458046892"><ele>-5.0</ele><time>2026-04-25T16:07:23Z</time></trkpt><trkpt lat="44.8825886920259" lon="12.0105237910534"><ele>-5.0</ele><time>2026-04-25T16:07:25Z</time></trkpt><trkpt lat="44.88266341440822" lon="12.010620008557938"><ele>-5.0</ele><time>2026-04-25T16:07:27Z</time></trkpt><trkpt lat="44.88273632152581" lon="12.010720213311917"><ele>-5.0</ele><time>2026-04-25T16:07:29Z</time></trkpt><trkpt lat="44.88281067352711" lon="12.010816141939136"><ele>-5.0</ele><time>2026-04-25T16:07:31Z</time></trkpt><trkpt lat="44.88288679468912" lon="12.010913716582332"><ele>-5.0</ele><time>2026-04-25T16:07:33Z</time></trkpt><trkpt lat="44.88296201044543" lon="12.011010367929913"><ele>-5.0</ele><time>2026-04-25T16:07:35Z</time></trkpt><trkpt lat="44.88303582517496" lon="12.011105699759204"><ele>-4.6</ele><time>2026-04-25T16:07:37Z</time></trkpt><trkpt lat="44.88311367924354" lon="12.011198988272273"><ele>-4.2</ele><time>2026-04-25T16:07:39Z</time></trkpt><trkpt lat="44.883187503946395" lon="12.011294849828783"><ele>-3.8</ele><time>2026-04-25T16:07:41Z</time></trkpt><trkpt lat="44.88325817274486" lon="12.011390372385653"><ele>-3.4</ele><time>2026-04-25T16:07:43Z</time></trkpt><trkpt lat="44.88332931079621" lon="12.011479010688754"><ele>-3.0</ele><time>2026-04-25T16:07:45Z</time></trkpt><trkpt lat="44.883399835361644" lon="12.011574367297698"><ele>-3.2</ele><time>2026-04-25T16:07:47Z</time></trkpt><trkpt lat="44.883474286120645" lon="12.011666908673261"><ele>-3.4</ele><time>2026-04-25T16:07:49Z</time></trkpt><trkpt lat="44.88354582630202" lon="12.011757148789407"><ele>-3.6000000000000005</ele><time>2026-04-25T16:07:51Z</time></trkpt><trkpt lat="44.88361292565975" lon="12.011848847482632"><ele>-3.8000000000000003</ele><time>2026-04-25T16:07:53Z</time></trkpt><trkpt lat="44.88368922407718" lon="12.011936365410177"><ele>-4.0</ele><time>2026-04-25T16:07:55Z</time></trkpt><trkpt lat="44.88375869041761" lon="12.012032829734189"><ele>-4.0</ele><time>2026-04-25T16:07:57Z</time></trkpt><trkpt lat="44.88383727305949" lon="12.012122941821643"><ele>-4.0</ele><time>2026-04-25T16:07:59Z</time></trkpt><trkpt lat="44.88391547216821" lon="12.012220204632245"><ele>-4.0</ele><time>2026-04-25T16:08:01Z</time></trkpt><trkpt lat="44.8839820369816" lon="12.01231145635041"><ele>-4.0</ele><time>2026-04-25T16:08:03Z</time></trkpt><trkpt lat="44.8840571330792" lon="12.012409079610933"><ele>-4.0</ele><time>2026-04-25T16:08:05Z</time></trkpt><trkpt lat="44.88413403838431" lon="12.012505994037443"><ele>-4.0</ele><time>2026-04-25T16:08:07Z</time></trkpt><trkpt lat="44.88421585965896" lon="12.012598738888638"><ele>-4.0</ele><time>2026-04-25T16:08:09Z</time></trkpt><trkpt lat="44.884287361834325" lon="12.012696661463925"><ele>-4.0</ele><time>2026-04-25T16:08:11Z</time></trkpt><trkpt lat="44.884356712781496" lon="12.012791587645935"><ele>-4.0</ele><time>2026-04-25T16:08:13Z</time></trkpt><trkpt lat="44.884429248856705" lon="12.012884541935941"><ele>-4.0</ele><time>2026-04-25T16:08:15Z</time></trkpt><trkpt lat="44.88450319054091" lon="12.012977897270103"><ele>-4.0</ele><time>2026-04-25T16:08:17Z</time></trkpt><trkpt lat="44.884575311964795" lon="12.013073689552305"><ele>-4.0</ele><time>2026-04-25T16:08:19Z</time></trkpt><trkpt lat="44.88464604201002" lon="12.013168689757821"><ele>-4.0</ele><time>2026-04-25T16:08:21Z</time></trkpt><trkpt lat="44.88471670291034" lon="12.013259509123131"><ele>-4.0</ele><time>2026-04-25T16:08:23Z</time></trkpt><trkpt lat="44.88478212230819" lon="12.013346145906782"><ele>-4.0</ele><time>2026-04-25T16:08:25Z</time></trkpt><trkpt lat="44.88484937907412" lon="12.013421328857007"><ele>-3.9999999999999996</ele><time>2026-04-25T16:08:27Z</time></trkpt><trkpt lat="44.8849065430534" lon="12.013503435779603"><ele>-4.0</ele><time>2026-04-25T16:08:29Z</time></trkpt><trkpt lat="44.88496600683042" lon="12.01358713863597"><ele>-4.0</ele><time>2026-04-25T16:08:31Z</time></trkpt><trkpt lat="44.88502994230124" lon="12.013663612032564"><ele>-4.0</ele><time>2026-04-25T16:08:33Z</time></trkpt><trkpt lat="44.885098923821374" lon="12.013743061026533"><ele>-3.9999999999999996</ele><time>2026-04-25T16:08:35Z</time></trkpt><trkpt lat="44.88515982634019" lon="12.013831582063148"><ele>-4.0</ele><time>2026-04-25T16:08:37Z</time></trkpt><trkpt lat="44.88523446394793" lon="12.013911319425356"><ele>-4.0</ele><time>2026-04-25T16:08:39Z</time></trkpt><trkpt lat="44.88532001668177" lon="12.014029599986698"><ele>-4.0</ele><time>2026-04-25T16:08:42Z</time></trkpt><trkpt lat="44.88538126526795" lon="12.01411004747722"><ele>-4.0</ele><time>2026-04-25T16:08:44Z</time></trkpt><trkpt lat="44.88544353010945" lon="12.014192371096758"><ele>-4.0</ele><time>2026-04-25T16:08:46Z</time></trkpt><trkpt lat="44.88550633117144" lon="12.014273101319898"><ele>-4.0</ele><time>2026-04-25T16:08:48Z</time></trkpt><trkpt lat="44.885577705909775" lon="12.014364315062975"><ele>-4.0</ele><time>2026-04-25T16:08:50Z</time></trkpt><trkpt lat="44.88565020776199" lon="12.014456934724732"><ele>-4.0</ele><time>2026-04-25T16:08:52Z</time></trkpt><trkpt lat="44.88572488518746" lon="12.01455068547463"><ele>-4.0</ele><time>2026-04-25T16:08:54Z</time></trkpt><trkpt lat="44.885800908922405" lon="12.014645146950091"><ele>-4.0</ele><time>2026-04-25T16:08:56Z</time></trkpt><trkpt lat="44.885874744098935" lon="12.014734952711883"><ele>-4.0</ele><time>2026-04-25T16:08:58Z</time></trkpt><trkpt lat="44.885953987506234" lon="12.014820774155307"><ele>-4.0</ele><time>2026-04-25T16:09:00Z</time></trkpt><trkpt lat="44.88603439190942" lon="12.014901575610386"><ele>-4.0</ele><time>2026-04-25T16:09:02Z</time></trkpt><trkpt lat="44.886114265785835" lon="12.014979475125518"><ele>-4.0</ele><time>2026-04-25T16:09:04Z</time></trkpt><trkpt lat="44.8862009928068" lon="12.015048878320869"><ele>-4.0</ele><time>2026-04-25T16:09:06Z</time></trkpt><trkpt lat="44.886289120774535" lon="12.01511897333661"><ele>-4.0</ele><time>2026-04-25T16:09:08Z</time></trkpt><trkpt lat="44.88638189694848" lon="12.015176478100843"><ele>-4.0</ele><time>2026-04-25T16:09:10Z</time></trkpt><trkpt lat="44.88647637481212" lon="12.015234164388772"><ele>-4.0</ele><time>2026-04-25T16:09:12Z</time></trkpt><trkpt lat="44.886571179345694" lon="12.0152897082961"><ele>-4.0</ele><time>2026-04-25T16:09:14Z</time></trkpt><trkpt lat="44.886669463914856" lon="12.015340128133554"><ele>-4.0</ele><time>2026-04-25T16:09:16Z</time></trkpt><trkpt lat="44.886769525683896" lon="12.015392297710552"><ele>-4.0</ele><time>2026-04-25T16:09:18Z</time></trkpt><trkpt lat="44.886864739927596" lon="12.01544439648561"><ele>-4.0</ele><time>2026-04-25T16:09:20Z</time></trkpt><trkpt lat="44.88696199470674" lon="12.015496838893226"><ele>-4.0</ele><time>2026-04-25T16:09:22Z</time></trkpt><trkpt lat="44.88705771757792" lon="12.015547387536703"><ele>-4.0</ele><time>2026-04-25T16:09:24Z</time></trkpt><trkpt lat="44.88715182700874" lon="12.015593200417584"><ele>-4.0</ele><time>2026-04-25T16:09:26Z</time></trkpt><trkpt lat="44.887245850945675" lon="12.015642696513881"><ele>-4.0</ele><time>2026-04-25T16:09:28Z</time></trkpt><trkpt lat="44.88733615266839" lon="12.015692610460677"><ele>-3.9999999999999996</ele><time>2026-04-25T16:09:30Z</time></trkpt><trkpt lat="44.887427678577374" lon="12.015732071899269"><ele>-4.0</ele><time>2026-04-25T16:09:32Z</time></trkpt><trkpt lat="44.887515329539404" lon="12.015768490386376"><ele>-4.0</ele><time>2026-04-25T16:09:34Z</time></trkpt><trkpt lat="44.88759458786724" lon="12.015811468075867"><ele>-4.0</ele><time>2026-04-25T16:09:36Z</time></trkpt><trkpt lat="44.88767543391403" lon="12.015836426903272"><ele>-3.9999999999999996</ele><time>2026-04-25T16:09:38Z</time></trkpt><trkpt lat="44.88775237280887" lon="12.015876677447281"><ele>-4.0</ele><time>2026-04-25T16:09:40Z</time></trkpt><trkpt lat="44.887829768796664" lon="12.015922171379795"><ele>-3.9999999999999996</ele><time>2026-04-25T16:09:42Z</time></trkpt><trkpt lat="44.88790991528901" lon="12.015969559955808"><ele>-4.0</ele><time>2026-04-25T16:09:44Z</time></trkpt><trkpt lat="44.88798185976454" lon="12.016031004979252"><ele>-4.0</ele><time>2026-04-25T16:09:46Z</time></trkpt><trkpt lat="44.88806069802251" lon="12.016011124196748"><ele>-4.0</ele><time>2026-04-25T16:09:48Z</time></trkpt><trkpt lat="44.88811787204201" lon="12.015920229364667"><ele>-3.9999999999999996</ele><time>2026-04-25T16:09:50Z</time></trkpt><trkpt lat="44.88819251712048" lon="12.015876664611293"><ele>-4.0</ele><time>2026-04-25T16:09:52Z</time></trkpt><trkpt lat="44.888263107546855" lon="12.015817477415903"><ele>-4.0</ele><time>2026-04-25T16:09:54Z</time></trkpt><trkpt lat="44.88825007475807" lon="12.015684598671873"><ele>-4.0</ele><time>2026-04-25T16:09:56Z</time></trkpt><trkpt lat="44.88820731327083" lon="12.015560133678544"><ele>-4.0</ele><time>2026-04-25T16:09:58Z</time></trkpt><trkpt lat="44.888154793535094" lon="12.015442752898986"><ele>-4.0</ele><time>2026-04-25T16:10:00Z</time></trkpt><trkpt lat="44.88809351253446" lon="12.015329637579336"><ele>-4.0</ele><time>2026-04-25T16:10:02Z</time></trkpt><trkpt lat="44.8880355008344" lon="12.015207659294733"><ele>-4.0</ele><time>2026-04-25T16:10:04Z</time></trkpt><trkpt lat="44.8880076379376" lon="12.015068067012692"><ele>-4.0</ele><time>2026-04-25T16:10:06Z</time></trkpt><trkpt lat="44.887987521583305" lon="12.014904651960899"><ele>-4.0</ele><time>2026-04-25T16:10:08Z</time></trkpt><trkpt lat="44.88798222354055" lon="12.014736974059828"><ele>-4.0</ele><time>2026-04-25T16:10:10Z</time></trkpt><trkpt lat="44.88798095778345" lon="12.014646777006817"><ele>-4.0</ele><time>2026-04-25T16:10:11Z</time></trkpt><trkpt lat="44.887978893532484" lon="12.014557073261294"><ele>-4.4</ele><time>2026-04-25T16:10:12Z</time></trkpt><trkpt lat="44.8879771625069" lon="12.014467898985528"><ele>-4.800000000000001</ele><time>2026-04-25T16:10:13Z</time></trkpt><trkpt lat="44.88796696587706" lon="12.014307601415737"><ele>-5.199999999999999</ele><time>2026-04-25T16:10:15Z</time></trkpt><trkpt lat="44.887966514812526" lon="12.014151188794287"><ele>-5.6</ele><time>2026-04-25T16:10:17Z</time></trkpt><trkpt lat="44.887958690377296" lon="12.014000557705739"><ele>-6.0</ele><time>2026-04-25T16:10:19Z</time></trkpt><trkpt lat="44.88796133919808" lon="12.013846505956534"><ele>-6.0</ele><time>2026-04-25T16:10:21Z</time></trkpt><trkpt lat="44.88795010056177" lon="12.013693038629006"><ele>-6.0</ele><time>2026-04-25T16:10:23Z</time></trkpt><trkpt lat="44.887951561948746" lon="12.013543717307822"><ele>-6.0</ele><time>2026-04-25T16:10:25Z</time></trkpt><trkpt lat="44.88794859051596" lon="12.013395324595221"><ele>-6.0</ele><time>2026-04-25T16:10:27Z</time></trkpt><trkpt lat="44.88794052097277" lon="12.0132506410515"><ele>-6.0</ele><time>2026-04-25T16:10:29Z</time></trkpt><trkpt lat="44.88794357552987" lon="12.013100574262197"><ele>-6.0</ele><time>2026-04-25T16:10:31Z</time></trkpt><trkpt lat="44.8879362720057" lon="12.012931284824033"><ele>-6.0</ele><time>2026-04-25T16:10:33Z</time></trkpt><trkpt lat="44.887938577103384" lon="12.012838447325063"><ele>-6.0</ele><time>2026-04-25T16:10:34Z</time></trkpt><trkpt lat="44.88793891369039" lon="12.012745752327298"><ele>-6.0</ele><time>2026-04-25T16:10:35Z</time></trkpt><trkpt lat="44.887937261548934" lon="12.01265060277249"><ele>-6.0</ele><time>2026-04-25T16:10:36Z</time></trkpt><trkpt lat="44.88793335107325" lon="12.012550585245819"><ele>-6.0</ele><time>2026-04-25T16:10:37Z</time></trkpt><trkpt lat="44.88793410628617" lon="12.012453968929893"><ele>-5.8</ele><time>2026-04-25T16:10:38Z</time></trkpt><trkpt lat="44.88793084806137" lon="12.012361909000791"><ele>-5.6</ele><time>2026-04-25T16:10:39Z</time></trkpt><trkpt lat="44.8879327017306" lon="12.012184218967974"><ele>-5.4</ele><time>2026-04-25T16:10:41Z</time></trkpt><trkpt lat="44.887925681259226" lon="12.012012530607564"><ele>-5.2</ele><time>2026-04-25T16:10:43Z</time></trkpt><trkpt lat="44.8879234882612" lon="12.011850837296638"><ele>-5.0</ele><time>2026-04-25T16:10:45Z</time></trkpt><trkpt lat="44.887915119957576" lon="12.011689878031357"><ele>-5.0</ele><time>2026-04-25T16:10:47Z</time></trkpt><trkpt lat="44.88792113605514" lon="12.011533009500488"><ele>-5.0</ele><time>2026-04-25T16:10:49Z</time></trkpt><trkpt lat="44.88792068456032" lon="12.011380946678504"><ele>-5.0</ele><time>2026-04-25T16:10:51Z</time></trkpt><trkpt lat="44.8879218089544" lon="12.011228033269068"><ele>-5.0</ele><time>2026-04-25T16:10:53Z</time></trkpt><trkpt lat="44.887920899212034" lon="12.011054468205643"><ele>-5.0</ele><time>2026-04-25T16:10:55Z</time></trkpt><trkpt lat="44.887919104944444" lon="12.010962347785911"><ele>-5.0</ele><time>2026-04-25T16:10:56Z</time></trkpt><trkpt lat="44.88791710722979" lon="12.010867335768662"><ele>-5.0</ele><time>2026-04-25T16:10:57Z</time></trkpt><trkpt lat="44.8879151683638" lon="12.010778097944158"><ele>-5.0</ele><time>2026-04-25T16:10:58Z</time></trkpt><trkpt lat="44.88791369827323" lon="12.010687156118724"><ele>-5.0</ele><time>2026-04-25T16:10:59Z</time></trkpt><trkpt lat="44.88791434606519" lon="12.010507550953152"><ele>-5.0</ele><time>2026-04-25T16:11:01Z</time></trkpt><trkpt lat="44.887914568792894" lon="12.0104142496714"><ele>-5.0</ele><time>2026-04-25T16:11:02Z</time></trkpt><trkpt lat="44.88791395516476" lon="12.010314678665456"><ele>-5.0</ele><time>2026-04-25T16:11:03Z</time></trkpt><trkpt lat="44.88791077312865" lon="12.01021376542974"><ele>-5.0</ele><time>2026-04-25T16:11:04Z</time></trkpt><trkpt lat="44.887910110147224" lon="12.010111112512462"><ele>-5.0</ele><time>2026-04-25T16:11:05Z</time></trkpt><trkpt lat="44.88790873119695" lon="12.01000073063318"><ele>-5.0</ele><time>2026-04-25T16:11:06Z</time></trkpt><trkpt lat="44.88791168946736" lon="12.009897221141598"><ele>-5.0</ele><time>2026-04-25T16:11:07Z</time></trkpt><trkpt lat="44.887914193982745" lon="12.009782424294116"><ele>-5.0</ele><time>2026-04-25T16:11:08Z</time></trkpt><trkpt lat="44.88790859495697" lon="12.009670152157993"><ele>-5.0</ele><time>2026-04-25T16:11:09Z</time></trkpt><trkpt lat="44.887908571935306" lon="12.009566394225562"><ele>-5.0</ele><time>2026-04-25T16:11:10Z</time></trkpt><trkpt lat="44.8879088929797" lon="12.009460398467205"><ele>-5.0</ele><time>2026-04-25T16:11:11Z</time></trkpt><trkpt lat="44.887909731683926" lon="12.009347938986938"><ele>-5.0</ele><time>2026-04-25T16:11:12Z</time></trkpt><trkpt lat="44.887907038469855" lon="12.00924269413182"><ele>-5.0</ele><time>2026-04-25T16:11:13Z</time></trkpt><trkpt lat="44.88790591347416" lon="12.009134818225709"><ele>-5.0</ele><time>2026-04-25T16:11:14Z</time></trkpt><trkpt lat="44.8879066698702" lon="12.00902074355412"><ele>-5.0</ele><time>2026-04-25T16:11:15Z</time></trkpt><trkpt lat="44.88790420471184" lon="12.008909811267818"><ele>-5.0</ele><time>2026-04-25T16:11:16Z</time></trkpt><trkpt lat="44.887902610210915" lon="12.00880107844055"><ele>-5.0</ele><time>2026-04-25T16:11:17Z</time></trkpt><trkpt lat="44.88790039556671" lon="12.008689583869698"><ele>-5.0</ele><time>2026-04-25T16:11:18Z</time></trkpt><trkpt lat="44.88790152159405" lon="12.008582196296347"><ele>-5.0</ele><time>2026-04-25T16:11:19Z</time></trkpt><trkpt lat="44.88790161549462" lon="12.008467053135442"><ele>-5.0</ele><time>2026-04-25T16:11:20Z</time></trkpt><trkpt lat="44.88789990310085" lon="12.008359653619358"><ele>-5.0</ele><time>2026-04-25T16:11:21Z</time></trkpt><trkpt lat="44.88790470542583" lon="12.008259809593365"><ele>-5.0</ele><time>2026-04-25T16:11:22Z</time></trkpt><trkpt lat="44.88790324250314" lon="12.008157059397758"><ele>-5.0</ele><time>2026-04-25T16:11:23Z</time></trkpt><trkpt lat="44.88790296329486" lon="12.008053024475203"><ele>-5.0</ele><time>2026-04-25T16:11:24Z</time></trkpt><trkpt lat="44.887903516175506" lon="12.007942531626378"><ele>-5.0</ele><time>2026-04-25T16:11:25Z</time></trkpt><trkpt lat="44.88790218574206" lon="12.00783088242548"><ele>-5.0</ele><time>2026-04-25T16:11:26Z</time></trkpt><trkpt lat="44.8879018042989" lon="12.00771289506341"><ele>-5.0</ele><time>2026-04-25T16:11:27Z</time></trkpt><trkpt lat="44.88790161144318" lon="12.007604840998335"><ele>-5.0</ele><time>2026-04-25T16:11:28Z</time></trkpt><trkpt lat="44.887902153620985" lon="12.007500787525869"><ele>-5.0</ele><time>2026-04-25T16:11:29Z</time></trkpt><trkpt lat="44.88790156516004" lon="12.007396930097672"><ele>-5.0</ele><time>2026-04-25T16:11:30Z</time></trkpt><trkpt lat="44.88789863311773" lon="12.007295404232432"><ele>-5.0</ele><time>2026-04-25T16:11:31Z</time></trkpt><trkpt lat="44.88789531669717" lon="12.007196868034125"><ele>-5.0</ele><time>2026-04-25T16:11:32Z</time></trkpt><trkpt lat="44.88789464904224" lon="12.007096681955328"><ele>-5.0</ele><time>2026-04-25T16:11:33Z</time></trkpt><trkpt lat="44.88789252301728" lon="12.00699460557404"><ele>-5.0</ele><time>2026-04-25T16:11:34Z</time></trkpt><trkpt lat="44.887891474897984" lon="12.00689518584762"><ele>-5.0</ele><time>2026-04-25T16:11:35Z</time></trkpt><trkpt lat="44.88788695020157" lon="12.006795281751346"><ele>-5.0</ele><time>2026-04-25T16:11:36Z</time></trkpt><trkpt lat="44.88788280806013" lon="12.006698406295746"><ele>-5.0</ele><time>2026-04-25T16:11:37Z</time></trkpt><trkpt lat="44.88788160718895" lon="12.006602124901267"><ele>-5.0</ele><time>2026-04-25T16:11:38Z</time></trkpt><trkpt lat="44.8878823380473" lon="12.006504207982962"><ele>-5.0</ele><time>2026-04-25T16:11:39Z</time></trkpt><trkpt lat="44.887880253421514" lon="12.00640598843669"><ele>-5.0</ele><time>2026-04-25T16:11:40Z</time></trkpt><trkpt lat="44.8878805987814" lon="12.006305351223606"><ele>-5.0</ele><time>2026-04-25T16:11:41Z</time></trkpt><trkpt lat="44.887883138733464" lon="12.006205776640426"><ele>-5.0</ele><time>2026-04-25T16:11:42Z</time></trkpt><trkpt lat="44.88788260132793" lon="12.00610397175369"><ele>-5.0</ele><time>2026-04-25T16:11:43Z</time></trkpt><trkpt lat="44.88788293066163" lon="12.006005997428023"><ele>-5.0</ele><time>2026-04-25T16:11:44Z</time></trkpt><trkpt lat="44.88788344415306" lon="12.005898075120562"><ele>-5.0</ele><time>2026-04-25T16:11:45Z</time></trkpt><trkpt lat="44.887882738422434" lon="12.005793107399546"><ele>-5.0</ele><time>2026-04-25T16:11:46Z</time></trkpt><trkpt lat="44.88787785927435" lon="12.005684752246088"><ele>-5.0</ele><time>2026-04-25T16:11:47Z</time></trkpt><trkpt lat="44.88788806880615" lon="12.005577080391117"><ele>-5.0</ele><time>2026-04-25T16:11:48Z</time></trkpt><trkpt lat="44.88788724244122" lon="12.005470553110102"><ele>-5.0</ele><time>2026-04-25T16:11:49Z</time></trkpt><trkpt lat="44.88787747156021" lon="12.005360412686565"><ele>-5.0</ele><time>2026-04-25T16:11:50Z</time></trkpt><trkpt lat="44.88788192042522" lon="12.00525422436199"><ele>-5.0</ele><time>2026-04-25T16:11:51Z</time></trkpt><trkpt lat="44.887876482945956" lon="12.00514322302367"><ele>-5.0</ele><time>2026-04-25T16:11:52Z</time></trkpt><trkpt lat="44.887868580924184" lon="12.00503539441412"><ele>-5.0</ele><time>2026-04-25T16:11:53Z</time></trkpt><trkpt lat="44.88788307503096" lon="12.004932959874685"><ele>-5.142857142857142</ele><time>2026-04-25T16:11:54Z</time></trkpt><trkpt lat="44.887866361382" lon="12.004832648916908"><ele>-5.285714285714286</ele><time>2026-04-25T16:11:55Z</time></trkpt><trkpt lat="44.887865590835474" lon="12.004731223429008"><ele>-5.428571428571429</ele><time>2026-04-25T16:11:56Z</time></trkpt><trkpt lat="44.88788074674583" lon="12.004629577042412"><ele>-5.571428571428571</ele><time>2026-04-25T16:11:57Z</time></trkpt><trkpt lat="44.887863852032254" lon="12.00453083530472"><ele>-5.714285714285714</ele><time>2026-04-25T16:11:58Z</time></trkpt><trkpt lat="44.88787923684147" lon="12.004433103958457"><ele>-5.857142857142857</ele><time>2026-04-25T16:11:59Z</time></trkpt><trkpt lat="44.88787848438025" lon="12.004335191597775"><ele>-6.0</ele><time>2026-04-25T16:12:00Z</time></trkpt><trkpt lat="44.887877698535966" lon="12.004232935481244"><ele>-6.0</ele><time>2026-04-25T16:12:01Z</time></trkpt><trkpt lat="44.88786134797596" lon="12.004128836331668"><ele>-6.0</ele><time>2026-04-25T16:12:02Z</time></trkpt><trkpt lat="44.88786331813453" lon="12.004026074786866"><ele>-6.0</ele><time>2026-04-25T16:12:03Z</time></trkpt><trkpt lat="44.887864313096955" lon="12.003918724881153"><ele>-6.0</ele><time>2026-04-25T16:12:04Z</time></trkpt><trkpt lat="44.88786738582094" lon="12.00381163921615"><ele>-6.0</ele><time>2026-04-25T16:12:05Z</time></trkpt><trkpt lat="44.88787059241772" lon="12.003703172154472"><ele>-6.0</ele><time>2026-04-25T16:12:06Z</time></trkpt><trkpt lat="44.88787286619241" lon="12.003595745243087"><ele>-6.0</ele><time>2026-04-25T16:12:07Z</time></trkpt><trkpt lat="44.88786974309369" lon="12.003485147544637"><ele>-6.0</ele><time>2026-04-25T16:12:08Z</time></trkpt><trkpt lat="44.887866931534106" lon="12.00337670227747"><ele>-6.0</ele><time>2026-04-25T16:12:09Z</time></trkpt><trkpt lat="44.887867900307754" lon="12.00326605550176"><ele>-6.0</ele><time>2026-04-25T16:12:10Z</time></trkpt><trkpt lat="44.887865993331495" lon="12.00315763282029"><ele>-6.0</ele><time>2026-04-25T16:12:11Z</time></trkpt><trkpt lat="44.88786500397192" lon="12.003048786553137"><ele>-6.0</ele><time>2026-04-25T16:12:12Z</time></trkpt><trkpt lat="44.8878627414102" lon="12.002939466565167"><ele>-5.833333333333333</ele><time>2026-04-25T16:12:13Z</time></trkpt><trkpt lat="44.88786186191872" lon="12.002829888584465"><ele>-5.666666666666667</ele><time>2026-04-25T16:12:14Z</time></trkpt><trkpt lat="44.88786285734959" lon="12.00272161789578"><ele>-5.5</ele><time>2026-04-25T16:12:15Z</time></trkpt><trkpt lat="44.8878615052755" lon="12.002612662409403"><ele>-5.333333333333334</ele><time>2026-04-25T16:12:16Z</time></trkpt><trkpt lat="44.887860882963494" lon="12.002504618027496"><ele>-5.166666666666667</ele><time>2026-04-25T16:12:17Z</time></trkpt><trkpt lat="44.887859087843225" lon="12.002399888444767"><ele>-5.0</ele><time>2026-04-25T16:12:18Z</time></trkpt><trkpt lat="44.88786032091409" lon="12.002289074732802"><ele>-5.0</ele><time>2026-04-25T16:12:19Z</time></trkpt><trkpt lat="44.88786203238126" lon="12.002178494752558"><ele>-5.0</ele><time>2026-04-25T16:12:20Z</time></trkpt><trkpt lat="44.88786270597496" lon="12.002067632264948"><ele>-5.0</ele><time>2026-04-25T16:12:21Z</time></trkpt><trkpt lat="44.887861899571476" lon="12.001957520817463"><ele>-5.0</ele><time>2026-04-25T16:12:22Z</time></trkpt><trkpt lat="44.88786033279217" lon="12.00184969816819"><ele>-5.0</ele><time>2026-04-25T16:12:23Z</time></trkpt><trkpt lat="44.887859908729965" lon="12.001745308266104"><ele>-5.0</ele><time>2026-04-25T16:12:24Z</time></trkpt><trkpt lat="44.887858650334294" lon="12.001640038661286"><ele>-5.0</ele><time>2026-04-25T16:12:25Z</time></trkpt><trkpt lat="44.88785540708522" lon="12.001535177200772"><ele>-5.0</ele><time>2026-04-25T16:12:26Z</time></trkpt><trkpt lat="44.88785315249733" lon="12.00142801390618"><ele>-5.0</ele><time>2026-04-25T16:12:27Z</time></trkpt><trkpt lat="44.8878538093253" lon="12.001317733190106"><ele>-5.0</ele><time>2026-04-25T16:12:28Z</time></trkpt><trkpt lat="44.88785215557975" lon="12.001211795706645"><ele>-5.0</ele><time>2026-04-25T16:12:29Z</time></trkpt><trkpt lat="44.88784762463469" lon="12.001102591549131"><ele>-5.0</ele><time>2026-04-25T16:12:30Z</time></trkpt><trkpt lat="44.88784332750069" lon="12.000988388739405"><ele>-5.0</ele><time>2026-04-25T16:12:31Z</time></trkpt><trkpt lat="44.887847461115825" lon="12.00088445995138"><ele>-5.0</ele><time>2026-04-25T16:12:32Z</time></trkpt><trkpt lat="44.88784938807599" lon="12.000780347205922"><ele>-5.0</ele><time>2026-04-25T16:12:33Z</time></trkpt><trkpt lat="44.887848178987674" lon="12.000663404764161"><ele>-5.0</ele><time>2026-04-25T16:12:34Z</time></trkpt><trkpt lat="44.88784921723484" lon="12.00056313076086"><ele>-5.0</ele><time>2026-04-25T16:12:35Z</time></trkpt><trkpt lat="44.887848015123744" lon="12.000464922650526"><ele>-5.0</ele><time>2026-04-25T16:12:36Z</time></trkpt><trkpt lat="44.887847026699866" lon="12.00036434699543"><ele>-5.0</ele><time>2026-04-25T16:12:37Z</time></trkpt><trkpt lat="44.88784762157967" lon="12.0002621809535"><ele>-5.0</ele><time>2026-04-25T16:12:38Z</time></trkpt><trkpt lat="44.8878495037948" lon="12.00015614613041"><ele>-5.0</ele><time>2026-04-25T16:12:39Z</time></trkpt><trkpt lat="44.887846954688406" lon="12.000054092766854"><ele>-5.0</ele><time>2026-04-25T16:12:40Z</time></trkpt><trkpt lat="44.887842206638965" lon="11.999954999144649"><ele>-5.0</ele><time>2026-04-25T16:12:41Z</time></trkpt><trkpt lat="44.88784008157716" lon="11.999849128653498"><ele>-5.0</ele><time>2026-04-25T16:12:42Z</time></trkpt><trkpt lat="44.88784111901538" lon="11.999744067408637"><ele>-5.0</ele><time>2026-04-25T16:12:43Z</time></trkpt><trkpt lat="44.887840906439465" lon="11.999638745372772"><ele>-5.0</ele><time>2026-04-25T16:12:44Z</time></trkpt><trkpt lat="44.88783995251217" lon="11.999541025910723"><ele>-5.0</ele><time>2026-04-25T16:12:45Z</time></trkpt><trkpt lat="44.88784007257972" lon="11.999442606586491"><ele>-5.0</ele><time>2026-04-25T16:12:46Z</time></trkpt><trkpt lat="44.88783856762439" lon="11.999347450460345"><ele>-5.0</ele><time>2026-04-25T16:12:47Z</time></trkpt><trkpt lat="44.887839008598554" lon="11.999249348957202"><ele>-5.0</ele><time>2026-04-25T16:12:48Z</time></trkpt><trkpt lat="44.88783764620683" lon="11.999150166889436"><ele>-5.0</ele><time>2026-04-25T16:12:49Z</time></trkpt><trkpt lat="44.887840139130866" lon="11.999052009562996"><ele>-5.0</ele><time>2026-04-25T16:12:50Z</time></trkpt><trkpt lat="44.88783936355695" lon="11.9989496574527"><ele>-5.0</ele><time>2026-04-25T16:12:51Z</time></trkpt><trkpt lat="44.887835928638026" lon="11.998845714358298"><ele>-5.0</ele><time>2026-04-25T16:12:52Z</time></trkpt><trkpt lat="44.88783347481783" lon="11.998740312004118"><ele>-5.0</ele><time>2026-04-25T16:12:53Z</time></trkpt><trkpt lat="44.887836097215526" lon="11.998633675358258"><ele>-5.0</ele><time>2026-04-25T16:12:54Z</time></trkpt><trkpt lat="44.88783614130101" lon="11.998529313203436"><ele>-5.0</ele><time>2026-04-25T16:12:55Z</time></trkpt><trkpt lat="44.88783545719383" lon="11.998426326188493"><ele>-5.0</ele><time>2026-04-25T16:12:56Z</time></trkpt><trkpt lat="44.88783201911454" lon="11.998321673604153"><ele>-5.0</ele><time>2026-04-25T16:12:57Z</time></trkpt><trkpt lat="44.887832082683786" lon="11.99821931721555"><ele>-5.0</ele><time>2026-04-25T16:12:58Z</time></trkpt><trkpt lat="44.88783678717182" lon="11.998112441278089"><ele>-5.0</ele><time>2026-04-25T16:12:59Z</time></trkpt><trkpt lat="44.88783596926078" lon="11.998007605213555"><ele>-5.0</ele><time>2026-04-25T16:13:00Z</time></trkpt><trkpt lat="44.88782802548226" lon="11.99790173277642"><ele>-5.0</ele><time>2026-04-25T16:13:01Z</time></trkpt><trkpt lat="44.88781678446236" lon="11.997798257533336"><ele>-5.0</ele><time>2026-04-25T16:13:02Z</time></trkpt><trkpt lat="44.88781680126858" lon="11.997692860355183"><ele>-5.0</ele><time>2026-04-25T16:13:03Z</time></trkpt><trkpt lat="44.887818761909394" lon="11.99758714776416"><ele>-5.0</ele><time>2026-04-25T16:13:04Z</time></trkpt><trkpt lat="44.88782745984632" lon="11.997483690367885"><ele>-5.0</ele><time>2026-04-25T16:13:05Z</time></trkpt><trkpt lat="44.887828670240076" lon="11.997377711873767"><ele>-4.833333333333334</ele><time>2026-04-25T16:13:06Z</time></trkpt><trkpt lat="44.88782402323139" lon="11.997269446904896"><ele>-4.666666666666667</ele><time>2026-04-25T16:13:07Z</time></trkpt><trkpt lat="44.88782875684415" lon="11.997154582760404"><ele>-4.5</ele><time>2026-04-25T16:13:08Z</time></trkpt><trkpt lat="44.88781249051479" lon="11.99704532919188"><ele>-4.333333333333333</ele><time>2026-04-25T16:13:09Z</time></trkpt><trkpt lat="44.88781193317175" lon="11.996936284357004"><ele>-4.166666666666666</ele><time>2026-04-25T16:13:10Z</time></trkpt><trkpt lat="44.88781657235899" lon="11.996826127941018"><ele>-4.0</ele><time>2026-04-25T16:13:11Z</time></trkpt><trkpt lat="44.88782040874576" lon="11.996717653612418"><ele>-4.142857142857142</ele><time>2026-04-25T16:13:12Z</time></trkpt><trkpt lat="44.88782129031286" lon="11.996610664154087"><ele>-4.285714285714286</ele><time>2026-04-25T16:13:13Z</time></trkpt><trkpt lat="44.88782304777825" lon="11.9965076273521"><ele>-4.428571428571429</ele><time>2026-04-25T16:13:14Z</time></trkpt><trkpt lat="44.887824621065604" lon="11.99639892658189"><ele>-4.571428571428571</ele><time>2026-04-25T16:13:15Z</time></trkpt><trkpt lat="44.88782535886642" lon="11.99629403679531"><ele>-4.714285714285714</ele><time>2026-04-25T16:13:16Z</time></trkpt><trkpt lat="44.887821372597685" lon="11.996190019615215"><ele>-4.857142857142857</ele><time>2026-04-25T16:13:17Z</time></trkpt><trkpt lat="44.88781813502757" lon="11.996085026118877"><ele>-5.0</ele><time>2026-04-25T16:13:18Z</time></trkpt><trkpt lat="44.887820791976296" lon="11.995974754676185"><ele>-5.0</ele><time>2026-04-25T16:13:19Z</time></trkpt><trkpt lat="44.88782522669138" lon="11.995864033692227"><ele>-5.0</ele><time>2026-04-25T16:13:20Z</time></trkpt><trkpt lat="44.887822753558595" lon="11.99575638982051"><ele>-5.0</ele><time>2026-04-25T16:13:21Z</time></trkpt><trkpt lat="44.88781606500931" lon="11.995647825977393"><ele>-5.0</ele><time>2026-04-25T16:13:22Z</time></trkpt><trkpt lat="44.88781543117945" lon="11.995534067860932"><ele>-5.0</ele><time>2026-04-25T16:13:23Z</time></trkpt><trkpt lat="44.88781550095019" lon="11.99542753396493"><ele>-5.0</ele><time>2026-04-25T16:13:24Z</time></trkpt><trkpt lat="44.88781665954101" lon="11.995322652045505"><ele>-5.0</ele><time>2026-04-25T16:13:25Z</time></trkpt><trkpt lat="44.88781878207654" lon="11.995217930531577"><ele>-5.0</ele><time>2026-04-25T16:13:26Z</time></trkpt><trkpt lat="44.88781860769067" lon="11.995111262275916"><ele>-5.0</ele><time>2026-04-25T16:13:27Z</time></trkpt><trkpt lat="44.887814454141456" lon="11.99500884859711"><ele>-5.0</ele><time>2026-04-25T16:13:28Z</time></trkpt><trkpt lat="44.88780965036987" lon="11.99490820973547"><ele>-5.0</ele><time>2026-04-25T16:13:29Z</time></trkpt><trkpt lat="44.88781111826127" lon="11.994809144163455"><ele>-5.0</ele><time>2026-04-25T16:13:30Z</time></trkpt><trkpt lat="44.88781350151777" lon="11.994711606032284"><ele>-5.0</ele><time>2026-04-25T16:13:31Z</time></trkpt><trkpt lat="44.88781217960379" lon="11.994614757784062"><ele>-5.0</ele><time>2026-04-25T16:13:32Z</time></trkpt><trkpt lat="44.887810170510186" lon="11.994520058279893"><ele>-5.0</ele><time>2026-04-25T16:13:33Z</time></trkpt><trkpt lat="44.887810711090175" lon="11.994426546250956"><ele>-5.0</ele><time>2026-04-25T16:13:34Z</time></trkpt><trkpt lat="44.88780675597711" lon="11.994337123742762"><ele>-5.0</ele><time>2026-04-25T16:13:35Z</time></trkpt><trkpt lat="44.8878059223727" lon="11.994246911617582"><ele>-5.0</ele><time>2026-04-25T16:13:36Z</time></trkpt><trkpt lat="44.88780918374497" lon="11.994070580384774"><ele>-5.0</ele><time>2026-04-25T16:13:38Z</time></trkpt><trkpt lat="44.887810606887626" lon="11.993978608918171"><ele>-5.0</ele><time>2026-04-25T16:13:39Z</time></trkpt><trkpt lat="44.88780822723" lon="11.993888494706326"><ele>-5.0</ele><time>2026-04-25T16:13:40Z</time></trkpt><trkpt lat="44.88780398850865" lon="11.993716333830548"><ele>-5.0</ele><time>2026-04-25T16:13:42Z</time></trkpt><trkpt lat="44.88780313554772" lon="11.993543540021337"><ele>-5.0</ele><time>2026-04-25T16:13:44Z</time></trkpt><trkpt lat="44.88780456425765" lon="11.993452184763177"><ele>-5.0</ele><time>2026-04-25T16:13:45Z</time></trkpt><trkpt lat="44.88780293158836" lon="11.993356379100765"><ele>-5.0</ele><time>2026-04-25T16:13:46Z</time></trkpt><trkpt lat="44.88780403106455" lon="11.99326011054646"><ele>-4.857142857142857</ele><time>2026-04-25T16:13:47Z</time></trkpt><trkpt lat="44.88780450852637" lon="11.993158854374505"><ele>-4.714285714285714</ele><time>2026-04-25T16:13:48Z</time></trkpt><trkpt lat="44.88780027678562" lon="11.993057953103586"><ele>-4.571428571428571</ele><time>2026-04-25T16:13:49Z</time></trkpt><trkpt lat="44.88780085328423" lon="11.992956256410507"><ele>-4.428571428571429</ele><time>2026-04-25T16:13:50Z</time></trkpt><trkpt lat="44.88780118246239" lon="11.992851202297064"><ele>-4.285714285714286</ele><time>2026-04-25T16:13:51Z</time></trkpt><trkpt lat="44.88780140381753" lon="11.992748560545303"><ele>-4.142857142857142</ele><time>2026-04-25T16:13:52Z</time></trkpt><trkpt lat="44.8878012338309" lon="11.992643847662373"><ele>-4.0</ele><time>2026-04-25T16:13:53Z</time></trkpt><trkpt lat="44.88779739608823" lon="11.992540744716488"><ele>-4.285714285714286</ele><time>2026-04-25T16:13:54Z</time></trkpt><trkpt lat="44.88779601859901" lon="11.992437606864419"><ele>-4.571428571428571</ele><time>2026-04-25T16:13:55Z</time></trkpt><trkpt lat="44.8877960310469" lon="11.992331383116255"><ele>-4.857142857142857</ele><time>2026-04-25T16:13:56Z</time></trkpt><trkpt lat="44.88779636785841" lon="11.992226465930107"><ele>-5.142857142857142</ele><time>2026-04-25T16:13:57Z</time></trkpt><trkpt lat="44.887798874676115" lon="11.992121241369231"><ele>-5.428571428571429</ele><time>2026-04-25T16:13:58Z</time></trkpt><trkpt lat="44.88779706191104" lon="11.992016489698095"><ele>-5.7142857142857135</ele><time>2026-04-25T16:13:59Z</time></trkpt><trkpt lat="44.88779501034189" lon="11.99190875339075"><ele>-6.0</ele><time>2026-04-25T16:14:00Z</time></trkpt><trkpt lat="44.887792803062865" lon="11.991803077451006"><ele>-6.0</ele><time>2026-04-25T16:14:01Z</time></trkpt><trkpt lat="44.88779258753398" lon="11.991693719784452"><ele>-6.0</ele><time>2026-04-25T16:14:02Z</time></trkpt><trkpt lat="44.88778807753563" lon="11.991586157564813"><ele>-6.0</ele><time>2026-04-25T16:14:03Z</time></trkpt><trkpt lat="44.887784220260606" lon="11.99147808751573"><ele>-6.0</ele><time>2026-04-25T16:14:04Z</time></trkpt><trkpt lat="44.887780762674794" lon="11.991370433498407"><ele>-6.0</ele><time>2026-04-25T16:14:05Z</time></trkpt><trkpt lat="44.887777419044355" lon="11.991262790477965"><ele>-6.0</ele><time>2026-04-25T16:14:06Z</time></trkpt><trkpt lat="44.88777791129391" lon="11.991152005220632"><ele>-5.833333333333333</ele><time>2026-04-25T16:14:07Z</time></trkpt><trkpt lat="44.88777954643454" lon="11.991039848948063"><ele>-5.666666666666667</ele><time>2026-04-25T16:14:08Z</time></trkpt><trkpt lat="44.88777868169476" lon="11.990931641322453"><ele>-5.5</ele><time>2026-04-25T16:14:09Z</time></trkpt><trkpt lat="44.887777816573" lon="11.990825586050674"><ele>-5.333333333333334</ele><time>2026-04-25T16:14:10Z</time></trkpt><trkpt lat="44.88777679414389" lon="11.99072232203722"><ele>-5.166666666666667</ele><time>2026-04-25T16:14:11Z</time></trkpt><trkpt lat="44.887776339912165" lon="11.9906195470406"><ele>-5.0</ele><time>2026-04-25T16:14:12Z</time></trkpt><trkpt lat="44.887782007020455" lon="11.990512665275464"><ele>-5.0</ele><time>2026-04-25T16:14:13Z</time></trkpt><trkpt lat="44.88778523923017" lon="11.990403774408492"><ele>-5.0</ele><time>2026-04-25T16:14:14Z</time></trkpt><trkpt lat="44.8877794747998" lon="11.990297722372413"><ele>-5.0</ele><time>2026-04-25T16:14:15Z</time></trkpt><trkpt lat="44.88777760275243" lon="11.99018832279528"><ele>-5.0</ele><time>2026-04-25T16:14:16Z</time></trkpt><trkpt lat="44.887781383958504" lon="11.990077477054719"><ele>-5.0</ele><time>2026-04-25T16:14:17Z</time></trkpt><trkpt lat="44.88777926811694" lon="11.989978085846634"><ele>-5.0</ele><time>2026-04-25T16:14:18Z</time></trkpt><trkpt lat="44.88778030074482" lon="11.989869130342669"><ele>-5.0</ele><time>2026-04-25T16:14:19Z</time></trkpt><trkpt lat="44.887780442341885" lon="11.98976417515359"><ele>-5.0</ele><time>2026-04-25T16:14:20Z</time></trkpt><trkpt lat="44.88777860484431" lon="11.989665241980008"><ele>-5.0</ele><time>2026-04-25T16:14:21Z</time></trkpt><trkpt lat="44.88777258093063" lon="11.989566335498301"><ele>-5.0</ele><time>2026-04-25T16:14:22Z</time></trkpt><trkpt lat="44.887771194565325" lon="11.98947214788992"><ele>-5.0</ele><time>2026-04-25T16:14:23Z</time></trkpt><trkpt lat="44.88777110308007" lon="11.989378607200566"><ele>-5.0</ele><time>2026-04-25T16:14:24Z</time></trkpt><trkpt lat="44.887771903421736" lon="11.98928869485969"><ele>-5.0</ele><time>2026-04-25T16:14:25Z</time></trkpt><trkpt lat="44.88777442174734" lon="11.98911108045293"><ele>-5.0</ele><time>2026-04-25T16:14:27Z</time></trkpt><trkpt lat="44.88777264899961" lon="11.989021699048594"><ele>-5.0</ele><time>2026-04-25T16:14:28Z</time></trkpt><trkpt lat="44.887771546083364" lon="11.988928842005443"><ele>-5.0</ele><time>2026-04-25T16:14:29Z</time></trkpt><trkpt lat="44.88777209588777" lon="11.988828916403373"><ele>-5.0</ele><time>2026-04-25T16:14:30Z</time></trkpt><trkpt lat="44.88776776254007" lon="11.988730918274511"><ele>-5.0</ele><time>2026-04-25T16:14:31Z</time></trkpt><trkpt lat="44.88776258517243" lon="11.988631190332448"><ele>-5.0</ele><time>2026-04-25T16:14:32Z</time></trkpt><trkpt lat="44.88776122676083" lon="11.988532880567726"><ele>-5.0</ele><time>2026-04-25T16:14:33Z</time></trkpt><trkpt lat="44.88776346017919" lon="11.988438413779093"><ele>-5.25</ele><time>2026-04-25T16:14:34Z</time></trkpt><trkpt lat="44.88775661000284" lon="11.988261686164476"><ele>-5.5</ele><time>2026-04-25T16:14:36Z</time></trkpt><trkpt lat="44.887754703079416" lon="11.988084631260266"><ele>-5.75</ele><time>2026-04-25T16:14:38Z</time></trkpt><trkpt lat="44.887765365697696" lon="11.987919750575404"><ele>-6.0</ele><time>2026-04-25T16:14:40Z</time></trkpt><trkpt lat="44.88776430842168" lon="11.987750385181345"><ele>-6.0</ele><time>2026-04-25T16:14:42Z</time></trkpt><trkpt lat="44.88776374128774" lon="11.987659535746278"><ele>-6.0</ele><time>2026-04-25T16:14:43Z</time></trkpt><trkpt lat="44.88776264966999" lon="11.987484684324311"><ele>-6.0</ele><time>2026-04-25T16:14:45Z</time></trkpt><trkpt lat="44.887762087374526" lon="11.987394697515615"><ele>-6.0</ele><time>2026-04-25T16:14:46Z</time></trkpt><trkpt lat="44.88776105080276" lon="11.987228810341085"><ele>-6.0</ele><time>2026-04-25T16:14:48Z</time></trkpt><trkpt lat="44.88776021963673" lon="11.987095794833886"><ele>-5.8</ele><time>2026-04-25T16:14:50Z</time></trkpt><trkpt lat="44.88757463474644" lon="11.987002911026828"><ele>-5.6</ele><time>2026-04-25T16:14:51Z</time></trkpt><trkpt lat="44.887460105100146" lon="11.986996429231027"><ele>-5.4</ele><time>2026-04-25T16:14:53Z</time></trkpt><trkpt lat="44.887436298480594" lon="11.986913739032412"><ele>-5.2</ele><time>2026-04-25T16:14:55Z</time></trkpt><trkpt lat="44.88743748713385" lon="11.986822275429235"><ele>-5.0</ele><time>2026-04-25T16:14:56Z</time></trkpt><trkpt lat="44.88744747252292" lon="11.986659362669052"><ele>-5.0</ele><time>2026-04-25T16:14:58Z</time></trkpt><trkpt lat="44.88745362767051" lon="11.986509450147079"><ele>-5.0</ele><time>2026-04-25T16:15:00Z</time></trkpt><trkpt lat="44.88745829345472" lon="11.986356685400443"><ele>-5.0</ele><time>2026-04-25T16:15:02Z</time></trkpt><trkpt lat="44.88746898140249" lon="11.986225514464007"><ele>-5.0</ele><time>2026-04-25T16:15:04Z</time></trkpt><trkpt lat="44.88747242578267" lon="11.986120942538847"><ele>-5.0</ele><time>2026-04-25T16:15:06Z</time></trkpt><trkpt lat="44.88747420236853" lon="11.985988489326092"><ele>-5.25</ele><time>2026-04-25T16:15:08Z</time></trkpt><trkpt lat="44.88747626657968" lon="11.985834592282295"><ele>-5.5</ele><time>2026-04-25T16:15:10Z</time></trkpt><trkpt lat="44.887544329891554" lon="11.985753473560248"><ele>-5.75</ele><time>2026-04-25T16:15:11Z</time></trkpt><trkpt lat="44.88753940024076" lon="11.9855834883189"><ele>-6.0</ele><time>2026-04-25T16:15:13Z</time></trkpt><trkpt lat="44.88774977613403" lon="11.985487434658156"><ele>-6.0</ele><time>2026-04-25T16:15:14Z</time></trkpt><trkpt lat="44.88774845854062" lon="11.98530764651431"><ele>-6.0</ele><time>2026-04-25T16:15:16Z</time></trkpt><trkpt lat="44.88774775011921" lon="11.98521098093971"><ele>-6.0</ele><time>2026-04-25T16:15:17Z</time></trkpt><trkpt lat="44.88774701088269" lon="11.985110110724154"><ele>-6.0</ele><time>2026-04-25T16:15:18Z</time></trkpt><trkpt lat="44.88774628376662" lon="11.985010894345873"><ele>-6.0</ele><time>2026-04-25T16:15:19Z</time></trkpt><trkpt lat="44.887745559649346" lon="11.984912087109562"><ele>-6.0</ele><time>2026-04-25T16:15:20Z</time></trkpt><trkpt lat="44.88774479657944" lon="11.984807964738215"><ele>-6.166666666666667</ele><time>2026-04-25T16:15:21Z</time></trkpt><trkpt lat="44.88774402768698" lon="11.984703047852319"><ele>-6.333333333333334</ele><time>2026-04-25T16:15:22Z</time></trkpt><trkpt lat="44.887743221101594" lon="11.98459736438775"><ele>-6.5</ele><time>2026-04-25T16:15:23Z</time></trkpt><trkpt lat="44.88774234307688" lon="11.98448487339682"><ele>-6.666666666666667</ele><time>2026-04-25T16:15:24Z</time></trkpt><trkpt lat="44.88774155327936" lon="11.984383685690945"><ele>-6.833333333333334</ele><time>2026-04-25T16:15:25Z</time></trkpt><trkpt lat="44.887740697909045" lon="11.984274097111475"><ele>-7.0</ele><time>2026-04-25T16:15:26Z</time></trkpt><trkpt lat="44.887739868257555" lon="11.98416780332234"><ele>-7.000000000000001</ele><time>2026-04-25T16:15:27Z</time></trkpt><trkpt lat="44.88773902471789" lon="11.984059730454543"><ele>-7.0</ele><time>2026-04-25T16:15:28Z</time></trkpt><trkpt lat="44.887738199764605" lon="11.983954038703404"><ele>-7.0</ele><time>2026-04-25T16:15:29Z</time></trkpt><trkpt lat="44.88773734817482" lon="11.983844934279894"><ele>-7.0</ele><time>2026-04-25T16:15:30Z</time></trkpt><trkpt lat="44.88773650073204" lon="11.98373636131054"><ele>-7.000000000000001</ele><time>2026-04-25T16:15:31Z</time></trkpt><trkpt lat="44.88773538504269" lon="11.983626251801702"><ele>-7.0</ele><time>2026-04-25T16:15:32Z</time></trkpt><trkpt lat="44.88773410157314" lon="11.983517210337665"><ele>-7.000000000000001</ele><time>2026-04-25T16:15:33Z</time></trkpt><trkpt lat="44.88773281387081" lon="11.983407809466852"><ele>-7.0</ele><time>2026-04-25T16:15:34Z</time></trkpt><trkpt lat="44.887731526380335" lon="11.983298426262197"><ele>-7.0</ele><time>2026-04-25T16:15:35Z</time></trkpt><trkpt lat="44.88773033518806" lon="11.983191300179378"><ele>-7.0</ele><time>2026-04-25T16:15:36Z</time></trkpt><trkpt lat="44.887729140049295" lon="11.983082752281128"><ele>-7.000000000000001</ele><time>2026-04-25T16:15:37Z</time></trkpt><trkpt lat="44.8877279446702" lon="11.982974182422554"><ele>-7.0</ele><time>2026-04-25T16:15:38Z</time></trkpt><trkpt lat="44.88772672778746" lon="11.982863659609691"><ele>-6.833333333333334</ele><time>2026-04-25T16:15:39Z</time></trkpt><trkpt lat="44.88772556261496" lon="11.982755024682303"><ele>-6.666666666666667</ele><time>2026-04-25T16:15:40Z</time></trkpt><trkpt lat="44.88772469958131" lon="11.982647493750243"><ele>-6.5</ele><time>2026-04-25T16:15:41Z</time></trkpt><trkpt lat="44.887723822645434" lon="11.982538230531308"><ele>-6.333333333333334</ele><time>2026-04-25T16:15:42Z</time></trkpt><trkpt lat="44.88772295848102" lon="11.982430558645538"><ele>-6.166666666666667</ele><time>2026-04-25T16:15:43Z</time></trkpt><trkpt lat="44.88772207699032" lon="11.982320728053796"><ele>-6.0</ele><time>2026-04-25T16:15:44Z</time></trkpt><trkpt lat="44.887721218887535" lon="11.982213811599221"><ele>-6.0</ele><time>2026-04-25T16:15:45Z</time></trkpt><trkpt lat="44.887720351395394" lon="11.982105725011262"><ele>-6.0</ele><time>2026-04-25T16:15:46Z</time></trkpt><trkpt lat="44.887719459638575" lon="11.98199461528836"><ele>-6.0</ele><time>2026-04-25T16:15:47Z</time></trkpt><trkpt lat="44.88771859396164" lon="11.981886755026759"><ele>-6.0</ele><time>2026-04-25T16:15:48Z</time></trkpt><trkpt lat="44.88771773198353" lon="11.981779355536137"><ele>-6.0</ele><time>2026-04-25T16:15:49Z</time></trkpt><trkpt lat="44.88771693409875" lon="11.98167994182525"><ele>-6.0</ele><time>2026-04-25T16:15:50Z</time></trkpt><trkpt lat="44.887715593761556" lon="11.981512940427116"><ele>-6.0</ele><time>2026-04-25T16:15:52Z</time></trkpt><trkpt lat="44.887714688297145" lon="11.981400122688807"><ele>-6.0</ele><time>2026-04-25T16:15:54Z</time></trkpt><trkpt lat="44.88771395973871" lon="11.981307597768888"><ele>-6.0</ele><time>2026-04-25T16:15:56Z</time></trkpt><trkpt lat="44.88771314901762" lon="11.981201634750283"><ele>-6.0</ele><time>2026-04-25T16:15:58Z</time></trkpt><trkpt lat="44.88771211969248" lon="11.981067099895263"><ele>-6.0</ele><time>2026-04-25T16:16:00Z</time></trkpt><trkpt lat="44.887711008487706" lon="11.98092186299001"><ele>-6.0</ele><time>2026-04-25T16:16:02Z</time></trkpt><trkpt lat="44.88770982818814" lon="11.980767595456085"><ele>-6.0</ele><time>2026-04-25T16:16:04Z</time></trkpt><trkpt lat="44.88770881578165" lon="11.980600439799431"><ele>-6.0</ele><time>2026-04-25T16:16:06Z</time></trkpt><trkpt lat="44.88770787037495" lon="11.980431809234108"><ele>-6.0</ele><time>2026-04-25T16:16:08Z</time></trkpt><trkpt lat="44.88770699357093" lon="11.980275415082406"><ele>-6.0</ele><time>2026-04-25T16:16:10Z</time></trkpt><trkpt lat="44.88770607260171" lon="11.980111143366276"><ele>-6.0</ele><time>2026-04-25T16:16:12Z</time></trkpt><trkpt lat="44.8877055738314" lon="11.980022178471732"><ele>-6.0</ele><time>2026-04-25T16:16:13Z</time></trkpt><trkpt lat="44.88770505659759" lon="11.97992992032519"><ele>-6.0</ele><time>2026-04-25T16:16:14Z</time></trkpt><trkpt lat="44.88770452864389" lon="11.979835750054722"><ele>-6.0</ele><time>2026-04-25T16:16:15Z</time></trkpt><trkpt lat="44.88770397483952" lon="11.97973696877431"><ele>-6.0</ele><time>2026-04-25T16:16:16Z</time></trkpt><trkpt lat="44.88770326146398" lon="11.979644183300005"><ele>-6.0</ele><time>2026-04-25T16:16:17Z</time></trkpt><trkpt lat="44.887701811019255" lon="11.979470905768581"><ele>-5.75</ele><time>2026-04-25T16:16:19Z</time></trkpt><trkpt lat="44.887700419023844" lon="11.979304610941481"><ele>-5.5</ele><time>2026-04-25T16:16:21Z</time></trkpt><trkpt lat="44.887699109608945" lon="11.979148181492075"><ele>-5.25</ele><time>2026-04-25T16:16:23Z</time></trkpt><trkpt lat="44.887673684860616" lon="11.979059128412858"><ele>-5.0</ele><time>2026-04-25T16:16:25Z</time></trkpt><trkpt lat="44.88730086346646" lon="11.978656770540008"><ele>-4.666666666666667</ele><time>2026-04-25T16:16:28Z</time></trkpt><trkpt lat="44.88724505472781" lon="11.979094087689266"><ele>-4.333333333333333</ele><time>2026-04-25T16:16:29Z</time></trkpt><trkpt lat="44.88713004146035" lon="11.979091227923742"><ele>-4.0</ele><time>2026-04-25T16:16:31Z</time></trkpt><trkpt lat="44.88701045286695" lon="11.97908927954974"><ele>-3.9999999999999996</ele><time>2026-04-25T16:16:33Z</time></trkpt><trkpt lat="44.88688697981983" lon="11.979101300714115"><ele>-4.0</ele><time>2026-04-25T16:16:35Z</time></trkpt><trkpt lat="44.886821881897816" lon="11.979097548017965"><ele>-4.0</ele><time>2026-04-25T16:16:36Z</time></trkpt><trkpt lat="44.88675549100844" lon="11.979101979481365"><ele>-4.0</ele><time>2026-04-25T16:16:37Z</time></trkpt><trkpt lat="44.88668821478667" lon="11.979107432181598"><ele>-3.9999999999999996</ele><time>2026-04-25T16:16:38Z</time></trkpt><trkpt lat="44.88661663375451" lon="11.979105931300323"><ele>-4.0</ele><time>2026-04-25T16:16:39Z</time></trkpt><trkpt lat="44.8865504020316" lon="11.97910087655141"><ele>-3.8571428571428568</ele><time>2026-04-25T16:16:40Z</time></trkpt><trkpt lat="44.88647712780686" lon="11.979101078814239"><ele>-3.714285714285714</ele><time>2026-04-25T16:16:41Z</time></trkpt><trkpt lat="44.88640688679162" lon="11.97910219721533"><ele>-3.571428571428571</ele><time>2026-04-25T16:16:42Z</time></trkpt><trkpt lat="44.88633387497379" lon="11.979093621616132"><ele>-3.4285714285714284</ele><time>2026-04-25T16:16:43Z</time></trkpt><trkpt lat="44.88626025184239" lon="11.979087585258366"><ele>-3.2857142857142856</ele><time>2026-04-25T16:16:44Z</time></trkpt><trkpt lat="44.88618705147299" lon="11.97910217422268"><ele>-3.1428571428571423</ele><time>2026-04-25T16:16:45Z</time></trkpt><trkpt lat="44.88611281312223" lon="11.979110195853004"><ele>-3.0</ele><time>2026-04-25T16:16:46Z</time></trkpt><trkpt lat="44.886039032274766" lon="11.979118309152977"><ele>-3.0</ele><time>2026-04-25T16:16:47Z</time></trkpt><trkpt lat="44.88597400134507" lon="11.979104201494618"><ele>-3.0</ele><time>2026-04-25T16:16:48Z</time></trkpt><trkpt lat="44.885847300709436" lon="11.979122649643948"><ele>-3.0</ele><time>2026-04-25T16:16:50Z</time></trkpt><trkpt lat="44.88572475931512" lon="11.979109006068862"><ele>-3.0</ele><time>2026-04-25T16:16:52Z</time></trkpt><trkpt lat="44.885661467640055" lon="11.979110361397574"><ele>-3.0</ele><time>2026-04-25T16:16:53Z</time></trkpt><trkpt lat="44.88559496246923" lon="11.97912402339265"><ele>-3.0</ele><time>2026-04-25T16:16:54Z</time></trkpt><trkpt lat="44.885531525898436" lon="11.97910709055617"><ele>-2.9999999999999996</ele><time>2026-04-25T16:16:55Z</time></trkpt><trkpt lat="44.88546329287026" lon="11.979112472112687"><ele>-3.0</ele><time>2026-04-25T16:16:56Z</time></trkpt><trkpt lat="44.88539706716998" lon="11.979118386708747"><ele>-3.0</ele><time>2026-04-25T16:16:57Z</time></trkpt><trkpt lat="44.885331024331364" lon="11.979124619791934"><ele>-3.0</ele><time>2026-04-25T16:16:58Z</time></trkpt><trkpt lat="44.885267479705895" lon="11.979121090549153"><ele>-3.0</ele><time>2026-04-25T16:16:59Z</time></trkpt><trkpt lat="44.88520332593294" lon="11.97911974902223"><ele>-2.9999999999999996</ele><time>2026-04-25T16:17:00Z</time></trkpt><trkpt lat="44.88508470874184" lon="11.979137327361592"><ele>-3.0</ele><time>2026-04-25T16:17:02Z</time></trkpt><trkpt lat="44.884979278467576" lon="11.979152292240203"><ele>-3.0</ele><time>2026-04-25T16:17:04Z</time></trkpt><trkpt lat="44.88487077546581" lon="11.979127874876605"><ele>-3.0</ele><time>2026-04-25T16:17:06Z</time></trkpt><trkpt lat="44.88475999866896" lon="11.979142179438275"><ele>-3.0</ele><time>2026-04-25T16:17:08Z</time></trkpt><trkpt lat="44.88468009364301" lon="11.979110995641499"><ele>-3.0</ele><time>2026-04-25T16:17:10Z</time></trkpt><trkpt lat="44.884704129515676" lon="11.978993939290037"><ele>-3.0</ele><time>2026-04-25T16:17:11Z</time></trkpt><trkpt lat="44.8847011032518" lon="11.978849239872112"><ele>-3.0</ele><time>2026-04-25T16:17:13Z</time></trkpt><trkpt lat="44.88469777928696" lon="11.978690306106559"><ele>-3.0</ele><time>2026-04-25T16:17:15Z</time></trkpt><trkpt lat="44.88467884015767" lon="11.9785264121525"><ele>-3.0</ele><time>2026-04-25T16:17:17Z</time></trkpt><trkpt lat="44.88467971266638" lon="11.97835937864556"><ele>-3.0</ele><time>2026-04-25T16:17:19Z</time></trkpt><trkpt lat="44.88467542281074" lon="11.97820554580003"><ele>-3.0</ele><time>2026-04-25T16:17:21Z</time></trkpt><trkpt lat="44.88468798350092" lon="11.978045750042824"><ele>-3.0</ele><time>2026-04-25T16:17:23Z</time></trkpt><trkpt lat="44.88468673204387" lon="11.97790552669852"><ele>-3.0</ele><time>2026-04-25T16:17:25Z</time></trkpt><trkpt lat="44.88469116887044" lon="11.97775232711658"><ele>-3.0</ele><time>2026-04-25T16:17:27Z</time></trkpt><trkpt lat="44.884701962914505" lon="11.977609871918954"><ele>-3.0</ele><time>2026-04-25T16:17:29Z</time></trkpt><trkpt lat="44.88470024092925" lon="11.977475443899241"><ele>-3.0</ele><time>2026-04-25T16:17:31Z</time></trkpt><trkpt lat="44.88468690553367" lon="11.977360759918016"><ele>-3.0</ele><time>2026-04-25T16:17:33Z</time></trkpt><trkpt lat="44.88474980606426" lon="11.977304402207476"><ele>-3.0</ele><time>2026-04-25T16:17:37Z</time></trkpt><trkpt lat="44.88482012124147" lon="11.977280638099193"><ele>-3.0</ele><time>2026-04-25T16:17:38.999Z</time></trkpt><trkpt lat="44.88478080786122" lon="11.977190545011451"><ele>-3.0</ele><time>2026-04-25T16:17:41.999Z</time></trkpt><trkpt lat="44.88474051735187" lon="11.977281025129773"><ele>-3.0</ele><time>2026-04-25T16:17:42.999Z</time></trkpt><trkpt lat="44.88469546486788" lon="11.977195472370289"><ele>-3.0</ele><time>2026-04-25T16:17:43.999Z</time></trkpt><trkpt lat="44.884607343625" lon="11.977205575115871"><ele>-3.0</ele><time>2026-04-25T16:17:45.999Z</time></trkpt><trkpt lat="44.88452672953968" lon="11.977219126054889"><ele>-3.0</ele><time>2026-04-25T16:17:47.999Z</time></trkpt><trkpt lat="44.88445939808629" lon="11.977230387493432"><ele>-3.0</ele><time>2026-04-25T16:17:50Z</time></trkpt><trkpt lat="44.88445538282503" lon="11.976983555253529"><ele>-3.0</ele><time>2026-04-25T16:17:54Z</time></trkpt><trkpt lat="44.88446558418829" lon="11.977080004232507"><ele>-3.0</ele><time>2026-04-25T16:21:04Z</time></trkpt><trkpt lat="44.88452943717092" lon="11.977142915805695"><ele>-3.0</ele><time>2026-04-25T16:21:07Z</time></trkpt><trkpt lat="44.88461309627556" lon="11.977127629522503"><ele>-3.0</ele><time>2026-04-25T16:21:09Z</time></trkpt><trkpt lat="44.88470784234629" lon="11.977115160724887"><ele>-3.0</ele><time>2026-04-25T16:21:11Z</time></trkpt><trkpt lat="44.884816376763204" lon="11.97710885512391"><ele>-3.0</ele><time>2026-04-25T16:21:13Z</time></trkpt><trkpt lat="44.884918174347916" lon="11.97710746840354"><ele>-3.0</ele><time>2026-04-25T16:21:15Z</time></trkpt><trkpt lat="44.88501163089056" lon="11.977124789596227"><ele>-3.0</ele><time>2026-04-25T16:21:17Z</time></trkpt><trkpt lat="44.8851106512636" lon="11.97712389299695"><ele>-3.0</ele><time>2026-04-25T16:21:19Z</time></trkpt><trkpt lat="44.88520967058262" lon="11.977110976619404"><ele>-3.0</ele><time>2026-04-25T16:21:21Z</time></trkpt><trkpt lat="44.88531524907402" lon="11.977106344390517"><ele>-3.0</ele><time>2026-04-25T16:21:23Z</time></trkpt><trkpt lat="44.88541640817882" lon="11.977096084355253"><ele>-3.0</ele><time>2026-04-25T16:21:25Z</time></trkpt><trkpt lat="44.88552131495967" lon="11.97709722264914"><ele>-3.0</ele><time>2026-04-25T16:21:27Z</time></trkpt><trkpt lat="44.88563179203208" lon="11.977101300214795"><ele>-3.0</ele><time>2026-04-25T16:21:29Z</time></trkpt><trkpt lat="44.885751369304444" lon="11.977087597643427"><ele>-3.0</ele><time>2026-04-25T16:21:30.999Z</time></trkpt><trkpt lat="44.8858729102039" lon="11.977094796830372"><ele>-2.8</ele><time>2026-04-25T16:21:32.999Z</time></trkpt><trkpt lat="44.88600484115584" lon="11.977092148040807"><ele>-2.5999999999999996</ele><time>2026-04-25T16:21:34.999Z</time></trkpt><trkpt lat="44.88611415579979" lon="11.977095956703492"><ele>-2.4000000000000004</ele><time>2026-04-25T16:21:36.999Z</time></trkpt><trkpt lat="44.88623700362949" lon="11.977084058498711"><ele>-2.2</ele><time>2026-04-25T16:21:38.999Z</time></trkpt><trkpt lat="44.88630780850592" lon="11.977084386023476"><ele>-2.0</ele><time>2026-04-25T16:21:39.999Z</time></trkpt><trkpt lat="44.88642642049866" lon="11.977076104708301"><ele>-2.0</ele><time>2026-04-25T16:21:41.999Z</time></trkpt><trkpt lat="44.8865493982371" lon="11.977070431272134"><ele>-2.0</ele><time>2026-04-25T16:21:43.999Z</time></trkpt><trkpt lat="44.88667229859583" lon="11.97707077789337"><ele>-2.0</ele><time>2026-04-25T16:21:45.999Z</time></trkpt><trkpt lat="44.88679009178172" lon="11.977060146803476"><ele>-2.0</ele><time>2026-04-25T16:21:47.999Z</time></trkpt><trkpt lat="44.88691016066163" lon="11.977053685449352"><ele>-2.2</ele><time>2026-04-25T16:21:49.999Z</time></trkpt><trkpt lat="44.887014923003356" lon="11.97706883545712"><ele>-2.4000000000000004</ele><time>2026-04-25T16:21:51.999Z</time></trkpt><trkpt lat="44.88708080528826" lon="11.977067190136593"><ele>-2.5999999999999996</ele><time>2026-04-25T16:21:52.999Z</time></trkpt><trkpt lat="44.88719789396765" lon="11.97705749988596"><ele>-2.8</ele><time>2026-04-25T16:21:54.999Z</time></trkpt><trkpt lat="44.887262035001925" lon="11.97706265402"><ele>-3.0</ele><time>2026-04-25T16:21:55.999Z</time></trkpt><trkpt lat="44.88737130785053" lon="11.977053124388796"><ele>-3.0</ele><time>2026-04-25T16:21:57.999Z</time></trkpt><trkpt lat="44.88747263640092" lon="11.977058020476862"><ele>-3.0</ele><time>2026-04-25T16:21:59.999Z</time></trkpt><trkpt lat="44.88755376215019" lon="11.977007758463929"><ele>-3.0</ele><time>2026-04-25T16:22:03Z</time></trkpt><trkpt lat="44.887618762090284" lon="11.976954829102356"><ele>-3.0</ele><time>2026-04-25T16:22:06Z</time></trkpt><trkpt lat="44.887680395176325" lon="11.976977785638079"><ele>-3.0</ele><time>2026-04-25T16:22:12Z</time></trkpt><trkpt lat="44.88777585985802" lon="11.976999288208466"><ele>-3.0</ele><time>2026-04-25T16:22:15Z</time></trkpt><trkpt lat="44.88783981075905" lon="11.977085401377687"><ele>-3.1666666666666665</ele><time>2026-04-25T16:22:17Z</time></trkpt><trkpt lat="44.88793645399568" lon="11.977083636397168"><ele>-3.333333333333333</ele><time>2026-04-25T16:22:19Z</time></trkpt><trkpt lat="44.88802498421033" lon="11.97709604500634"><ele>-3.5</ele><time>2026-04-25T16:22:21Z</time></trkpt><trkpt lat="44.88807133598518" lon="11.977162876038228"><ele>-3.6666666666666665</ele><time>2026-04-25T16:22:23Z</time></trkpt><trkpt lat="44.88814641936362" lon="11.97720327556635"><ele>-3.833333333333333</ele><time>2026-04-25T16:22:25Z</time></trkpt><trkpt lat="44.88824081061131" lon="11.977250953596062"><ele>-4.0</ele><time>2026-04-25T16:22:27Z</time></trkpt><trkpt lat="44.88835650842637" lon="11.977252369294455"><ele>-3.9999999999999996</ele><time>2026-04-25T16:22:29Z</time></trkpt><trkpt lat="44.888465484018894" lon="11.977243934582486"><ele>-4.0</ele><time>2026-04-25T16:22:31Z</time></trkpt><trkpt lat="44.888588017611305" lon="11.9772366347638"><ele>-4.0</ele><time>2026-04-25T16:22:33Z</time></trkpt><trkpt lat="44.8886634493107" lon="11.977245993123729"><ele>-4.0</ele><time>2026-04-25T16:22:34Z</time></trkpt><trkpt lat="44.88872560383595" lon="11.977230976234779"><ele>-3.9999999999999996</ele><time>2026-04-25T16:22:35Z</time></trkpt><trkpt lat="44.88879492083033" lon="11.97722866457294"><ele>-4.0</ele><time>2026-04-25T16:22:36Z</time></trkpt><trkpt lat="44.88885989509791" lon="11.977227807007399"><ele>-4.0</ele><time>2026-04-25T16:22:37Z</time></trkpt><trkpt lat="44.88893278724617" lon="11.977229388891988"><ele>-3.9999999999999996</ele><time>2026-04-25T16:22:38Z</time></trkpt><trkpt lat="44.88900098098608" lon="11.977224688497168"><ele>-4.0</ele><time>2026-04-25T16:22:39Z</time></trkpt><trkpt lat="44.88906488913954" lon="11.977219794497627"><ele>-4.0</ele><time>2026-04-25T16:22:40Z</time></trkpt><trkpt lat="44.889130337364215" lon="11.977222495777117"><ele>-3.9999999999999996</ele><time>2026-04-25T16:22:41Z</time></trkpt><trkpt lat="44.88919411629107" lon="11.97721541068467"><ele>-4.0</ele><time>2026-04-25T16:22:42Z</time></trkpt><trkpt lat="44.88926461754141" lon="11.977216321628312"><ele>-4.0</ele><time>2026-04-25T16:22:43Z</time></trkpt><trkpt lat="44.88933610132605" lon="11.977216856558918"><ele>-4.333333333333333</ele><time>2026-04-25T16:22:44Z</time></trkpt><trkpt lat="44.88940350246907" lon="11.977216856997892"><ele>-4.666666666666666</ele><time>2026-04-25T16:22:45Z</time></trkpt><trkpt lat="44.88946852918043" lon="11.977206932022911"><ele>-5.0</ele><time>2026-04-25T16:22:46Z</time></trkpt><trkpt lat="44.88952917870175" lon="11.977179964829931"><ele>-5.333333333333333</ele><time>2026-04-25T16:22:47Z</time></trkpt><trkpt lat="44.889651807013266" lon="11.977155947776888"><ele>-5.666666666666667</ele><time>2026-04-25T16:22:49Z</time></trkpt><trkpt lat="44.889719426694825" lon="11.977162464251599"><ele>-6.0</ele><time>2026-04-25T16:22:50Z</time></trkpt><trkpt lat="44.889788359291195" lon="11.977165588082798"><ele>-5.999999999999999</ele><time>2026-04-25T16:22:51Z</time></trkpt><trkpt lat="44.88985938649407" lon="11.977164251396205"><ele>-6.0</ele><time>2026-04-25T16:22:52Z</time></trkpt><trkpt lat="44.8899326063047" lon="11.977157405802911"><ele>-6.0</ele><time>2026-04-25T16:22:53Z</time></trkpt><trkpt lat="44.89000759414349" lon="11.977153007108447"><ele>-6.0</ele><time>2026-04-25T16:22:54Z</time></trkpt><trkpt lat="44.890080789074275" lon="11.977154617799833"><ele>-6.0</ele><time>2026-04-25T16:22:55Z</time></trkpt><trkpt lat="44.890156659065795" lon="11.97715585493317"><ele>-5.999999999999999</ele><time>2026-04-25T16:22:56Z</time></trkpt><trkpt lat="44.89023315803048" lon="11.977152494126038"><ele>-6.0</ele><time>2026-04-25T16:22:57Z</time></trkpt><trkpt lat="44.89031021263881" lon="11.977147258303157"><ele>-6.0</ele><time>2026-04-25T16:22:58Z</time></trkpt><trkpt lat="44.89044507220337" lon="11.977139510015018"><ele>-6.0</ele><time>2026-04-25T16:23:00Z</time></trkpt><trkpt lat="44.890519717817014" lon="11.977134586501512"><ele>-6.0</ele><time>2026-04-25T16:23:01Z</time></trkpt><trkpt lat="44.890590986423796" lon="11.9771345934477"><ele>-6.0</ele><time>2026-04-25T16:23:02Z</time></trkpt><trkpt lat="44.89066170976225" lon="11.977133312884938"><ele>-6.0</ele><time>2026-04-25T16:23:03Z</time></trkpt><trkpt lat="44.89073448723602" lon="11.977136062451734"><ele>-6.0</ele><time>2026-04-25T16:23:04Z</time></trkpt><trkpt lat="44.89080797323478" lon="11.977132986151979"><ele>-5.999999999999999</ele><time>2026-04-25T16:23:05Z</time></trkpt><trkpt lat="44.8908822088957" lon="11.977127981033568"><ele>-6.0</ele><time>2026-04-25T16:23:06Z</time></trkpt><trkpt lat="44.890955972943416" lon="11.977124453048239"><ele>-6.0</ele><time>2026-04-25T16:23:07Z</time></trkpt><trkpt lat="44.89103120495617" lon="11.977125092953338"><ele>-6.0</ele><time>2026-04-25T16:23:08Z</time></trkpt><trkpt lat="44.89110342972852" lon="11.977119014421945"><ele>-6.0</ele><time>2026-04-25T16:23:09Z</time></trkpt><trkpt lat="44.8911807042699" lon="11.977118383268595"><ele>-5.999999999999999</ele><time>2026-04-25T16:23:10Z</time></trkpt><trkpt lat="44.89125590124687" lon="11.977115972490814"><ele>-6.0</ele><time>2026-04-25T16:23:11Z</time></trkpt><trkpt lat="44.89132989248054" lon="11.977109277947351"><ele>-5.999999999999999</ele><time>2026-04-25T16:23:12Z</time></trkpt><trkpt lat="44.89140059897178" lon="11.977102057237193"><ele>-6.0</ele><time>2026-04-25T16:23:13Z</time></trkpt><trkpt lat="44.89146911191601" lon="11.977103956898041"><ele>-6.0</ele><time>2026-04-25T16:23:14Z</time></trkpt><trkpt lat="44.891537571115535" lon="11.977110234362652"><ele>-6.0</ele><time>2026-04-25T16:23:15Z</time></trkpt><trkpt lat="44.89161236837031" lon="11.97710533941712"><ele>-6.0</ele><time>2026-04-25T16:23:16Z</time></trkpt><trkpt lat="44.89167854632249" lon="11.977100515411008"><ele>-5.999999999999999</ele><time>2026-04-25T16:23:17Z</time></trkpt><trkpt lat="44.89174596932504" lon="11.977099936031033"><ele>-6.0</ele><time>2026-04-25T16:23:18Z</time></trkpt><trkpt lat="44.89181490367469" lon="11.977099501383792"><ele>-6.0</ele><time>2026-04-25T16:23:19Z</time></trkpt><trkpt lat="44.891885163641554" lon="11.977098233344813"><ele>-6.0</ele><time>2026-04-25T16:23:19.999Z</time></trkpt><trkpt lat="44.89196018371475" lon="11.977096046306032"><ele>-6.0</ele><time>2026-04-25T16:23:20.999Z</time></trkpt><trkpt lat="44.89203599439006" lon="11.977090005053991"><ele>-6.0</ele><time>2026-04-25T16:23:21.999Z</time></trkpt><trkpt lat="44.892112483649655" lon="11.977090255412277"><ele>-6.0</ele><time>2026-04-25T16:23:22.999Z</time></trkpt><trkpt lat="44.89218771896467" lon="11.977090017223963"><ele>-6.0</ele><time>2026-04-25T16:23:23.999Z</time></trkpt><trkpt lat="44.89226668207372" lon="11.97708804593494"><ele>-6.0</ele><time>2026-04-25T16:23:24.999Z</time></trkpt><trkpt lat="44.89234635027837" lon="11.977087136951324"><ele>-6.0</ele><time>2026-04-25T16:23:25.999Z</time></trkpt><trkpt lat="44.89242585097035" lon="11.97708870735353"><ele>-6.0</ele><time>2026-04-25T16:23:26.999Z</time></trkpt><trkpt lat="44.892504861877065" lon="11.97708928117452"><ele>-6.0</ele><time>2026-04-25T16:23:27.999Z</time></trkpt><trkpt lat="44.892580233351225" lon="11.977087197404982"><ele>-6.0</ele><time>2026-04-25T16:23:28.999Z</time></trkpt><trkpt lat="44.89265552734856" lon="11.977086512692845"><ele>-6.0</ele><time>2026-04-25T16:23:29.999Z</time></trkpt><trkpt lat="44.89272824188376" lon="11.9770842253203"><ele>-6.166666666666667</ele><time>2026-04-25T16:23:30.999Z</time></trkpt><trkpt lat="44.89280111477217" lon="11.977084115749596"><ele>-6.333333333333334</ele><time>2026-04-25T16:23:31.999Z</time></trkpt><trkpt lat="44.89287411962297" lon="11.977077773398959"><ele>-6.5</ele><time>2026-04-25T16:23:32.999Z</time></trkpt><trkpt lat="44.892950651736115" lon="11.977073957725093"><ele>-6.666666666666667</ele><time>2026-04-25T16:23:33.999Z</time></trkpt><trkpt lat="44.89302612116151" lon="11.977072749332265"><ele>-6.833333333333334</ele><time>2026-04-25T16:23:34.999Z</time></trkpt><trkpt lat="44.8931024803439" lon="11.97706635543693"><ele>-7.0</ele><time>2026-04-25T16:23:35.999Z</time></trkpt><trkpt lat="44.8931778561165" lon="11.977060316362895"><ele>-7.0</ele><time>2026-04-25T16:23:36.999Z</time></trkpt><trkpt lat="44.89325355381971" lon="11.977064669077535"><ele>-7.0</ele><time>2026-04-25T16:23:37.999Z</time></trkpt><trkpt lat="44.89332478869632" lon="11.977067697627074"><ele>-7.0</ele><time>2026-04-25T16:23:38.999Z</time></trkpt><trkpt lat="44.89339767702466" lon="11.977064942511092"><ele>-7.0</ele><time>2026-04-25T16:23:39.999Z</time></trkpt><trkpt lat="44.893473569692745" lon="11.977060255669283"><ele>-7.0</ele><time>2026-04-25T16:23:40.999Z</time></trkpt><trkpt lat="44.893550477054994" lon="11.9770563246696"><ele>-7.0</ele><time>2026-04-25T16:23:41.999Z</time></trkpt><trkpt lat="44.89362646224806" lon="11.977055188271487"><ele>-7.0</ele><time>2026-04-25T16:23:42.999Z</time></trkpt><trkpt lat="44.89370348001184" lon="11.977053373287113"><ele>-6.714285714285714</ele><time>2026-04-25T16:23:43.999Z</time></trkpt><trkpt lat="44.89377921975506" lon="11.97704974142022"><ele>-6.428571428571429</ele><time>2026-04-25T16:23:44.999Z</time></trkpt><trkpt lat="44.89385196995527" lon="11.977041838938987"><ele>-6.142857142857142</ele><time>2026-04-25T16:23:45.999Z</time></trkpt><trkpt lat="44.893921316362636" lon="11.977040895507798"><ele>-5.857142857142858</ele><time>2026-04-25T16:23:46.999Z</time></trkpt><trkpt lat="44.89398845026946" lon="11.97703725852065"><ele>-5.571428571428571</ele><time>2026-04-25T16:23:47.999Z</time></trkpt><trkpt lat="44.89405235472741" lon="11.977036013470869"><ele>-5.285714285714286</ele><time>2026-04-25T16:23:48.999Z</time></trkpt><trkpt lat="44.89412139167766" lon="11.977034785166799"><ele>-5.0</ele><time>2026-04-25T16:23:49.999Z</time></trkpt><trkpt lat="44.89419463132552" lon="11.977036920534173"><ele>-5.166666666666667</ele><time>2026-04-25T16:23:50.999Z</time></trkpt><trkpt lat="44.89426962092309" lon="11.97703160078621"><ele>-5.333333333333334</ele><time>2026-04-25T16:23:51.999Z</time></trkpt><trkpt lat="44.894346408459576" lon="11.977030954393898"><ele>-5.5</ele><time>2026-04-25T16:23:52.999Z</time></trkpt><trkpt lat="44.89442276414051" lon="11.977029373273956"><ele>-5.666666666666667</ele><time>2026-04-25T16:23:53.999Z</time></trkpt><trkpt lat="44.89450090149457" lon="11.977027668315124"><ele>-5.833333333333333</ele><time>2026-04-25T16:23:54.999Z</time></trkpt><trkpt lat="44.894578980833664" lon="11.977023795573418"><ele>-6.0</ele><time>2026-04-25T16:23:55.999Z</time></trkpt><trkpt lat="44.89465637868931" lon="11.977017033157761"><ele>-6.0</ele><time>2026-04-25T16:23:56.999Z</time></trkpt><trkpt lat="44.89473336746164" lon="11.977015556111134"><ele>-6.0</ele><time>2026-04-25T16:23:57.999Z</time></trkpt><trkpt lat="44.89480493444312" lon="11.977012369920786"><ele>-6.0</ele><time>2026-04-25T16:23:58.999Z</time></trkpt><trkpt lat="44.894879158528" lon="11.97701156949893"><ele>-6.0</ele><time>2026-04-25T16:23:59.999Z</time></trkpt><trkpt lat="44.89495414412798" lon="11.977011370283448"><ele>-6.0</ele><time>2026-04-25T16:24:00.999Z</time></trkpt><trkpt lat="44.89502909310484" lon="11.977007677633607"><ele>-6.0</ele><time>2026-04-25T16:24:01.999Z</time></trkpt><trkpt lat="44.895108625027476" lon="11.97700637612517"><ele>-6.166666666666667</ele><time>2026-04-25T16:24:02.999Z</time></trkpt><trkpt lat="44.89518239191338" lon="11.977007781362103"><ele>-6.333333333333334</ele><time>2026-04-25T16:24:03.999Z</time></trkpt><trkpt lat="44.89525939093005" lon="11.977004844389022"><ele>-6.5</ele><time>2026-04-25T16:24:04.999Z</time></trkpt><trkpt lat="44.89533765468092" lon="11.976997912526924"><ele>-6.666666666666667</ele><time>2026-04-25T16:24:05.999Z</time></trkpt><trkpt lat="44.89541544702421" lon="11.976997574505027"><ele>-6.833333333333334</ele><time>2026-04-25T16:24:06.999Z</time></trkpt><trkpt lat="44.89549565391068" lon="11.976998844705737"><ele>-7.0</ele><time>2026-04-25T16:24:08Z</time></trkpt><trkpt lat="44.89557283693839" lon="11.976998263308204"><ele>-7.000000000000001</ele><time>2026-04-25T16:24:09Z</time></trkpt><trkpt lat="44.89564691826507" lon="11.97699432963334"><ele>-7.0</ele><time>2026-04-25T16:24:10Z</time></trkpt><trkpt lat="44.8957200505884" lon="11.976992868615671"><ele>-7.0</ele><time>2026-04-25T16:24:11Z</time></trkpt><trkpt lat="44.895794398209226" lon="11.976992684607804"><ele>-7.0</ele><time>2026-04-25T16:24:12Z</time></trkpt><trkpt lat="44.89586903741471" lon="11.976988387059539"><ele>-7.000000000000001</ele><time>2026-04-25T16:24:13Z</time></trkpt><trkpt lat="44.89594293246947" lon="11.976986150754486"><ele>-7.0</ele><time>2026-04-25T16:24:14Z</time></trkpt><trkpt lat="44.89602372506393" lon="11.976985153972445"><ele>-6.666666666666667</ele><time>2026-04-25T16:24:15Z</time></trkpt><trkpt lat="44.89610212958601" lon="11.976982594834906"><ele>-6.333333333333334</ele><time>2026-04-25T16:24:16Z</time></trkpt><trkpt lat="44.89617974869785" lon="11.976980896270563"><ele>-6.0</ele><time>2026-04-25T16:24:17Z</time></trkpt><trkpt lat="44.896258236168094" lon="11.976978044747325"><ele>-5.666666666666667</ele><time>2026-04-25T16:24:18Z</time></trkpt><trkpt lat="44.89633552775263" lon="11.976975816537506"><ele>-5.333333333333334</ele><time>2026-04-25T16:24:19Z</time></trkpt><trkpt lat="44.89641329897873" lon="11.976972758787282"><ele>-5.0</ele><time>2026-04-25T16:24:20Z</time></trkpt><trkpt lat="44.89648896686423" lon="11.976970404696525"><ele>-5.0</ele><time>2026-04-25T16:24:21Z</time></trkpt><trkpt lat="44.89656403688335" lon="11.97696897195239"><ele>-5.0</ele><time>2026-04-25T16:24:22Z</time></trkpt><trkpt lat="44.89663872735847" lon="11.97696624981482"><ele>-5.0</ele><time>2026-04-25T16:24:23Z</time></trkpt><trkpt lat="44.89671417831505" lon="11.976967294785622"><ele>-5.0</ele><time>2026-04-25T16:24:24Z</time></trkpt><trkpt lat="44.89679002714597" lon="11.976963492616186"><ele>-5.0</ele><time>2026-04-25T16:24:25Z</time></trkpt><trkpt lat="44.89686489137836" lon="11.97696275009099"><ele>-5.0</ele><time>2026-04-25T16:24:26Z</time></trkpt><trkpt lat="44.89694034766713" lon="11.976962365667113"><ele>-4.833333333333334</ele><time>2026-04-25T16:24:27Z</time></trkpt><trkpt lat="44.89701595520504" lon="11.97695809763899"><ele>-4.666666666666667</ele><time>2026-04-25T16:24:28Z</time></trkpt><trkpt lat="44.89709128996021" lon="11.976955930951403"><ele>-4.5</ele><time>2026-04-25T16:24:29Z</time></trkpt><trkpt lat="44.89716698425289" lon="11.976956207707527"><ele>-4.333333333333333</ele><time>2026-04-25T16:24:30Z</time></trkpt><trkpt lat="44.897241267266644" lon="11.976952250392888"><ele>-4.166666666666666</ele><time>2026-04-25T16:24:31Z</time></trkpt><trkpt lat="44.89731584923463" lon="11.976946661495365"><ele>-4.0</ele><time>2026-04-25T16:24:32Z</time></trkpt><trkpt lat="44.89739332099393" lon="11.976945358459663"><ele>-3.9999999999999996</ele><time>2026-04-25T16:24:33Z</time></trkpt><trkpt lat="44.8974713655685" lon="11.976943821216896"><ele>-4.0</ele><time>2026-04-25T16:24:34Z</time></trkpt><trkpt lat="44.897549349149834" lon="11.976941022736202"><ele>-4.0</ele><time>2026-04-25T16:24:35Z</time></trkpt><trkpt lat="44.89762935062869" lon="11.97693864208082"><ele>-4.0</ele><time>2026-04-25T16:24:36Z</time></trkpt><trkpt lat="44.89770659006692" lon="11.976940467446427"><ele>-3.9999999999999996</ele><time>2026-04-25T16:24:37Z</time></trkpt><trkpt lat="44.89778461710887" lon="11.97693949157607"><ele>-4.0</ele><time>2026-04-25T16:24:38Z</time></trkpt><trkpt lat="44.89786255959852" lon="11.976935408474695"><ele>-4.166666666666666</ele><time>2026-04-25T16:24:39Z</time></trkpt><trkpt lat="44.8979398967983" lon="11.976938500544334"><ele>-4.333333333333333</ele><time>2026-04-25T16:24:40Z</time></trkpt><trkpt lat="44.898015460753044" lon="11.976932965310183"><ele>-4.5</ele><time>2026-04-25T16:24:41Z</time></trkpt><trkpt lat="44.898090843193756" lon="11.976929784561346"><ele>-4.666666666666667</ele><time>2026-04-25T16:24:42Z</time></trkpt><trkpt lat="44.89816581324907" lon="11.976928755362307"><ele>-4.833333333333334</ele><time>2026-04-25T16:24:43Z</time></trkpt><trkpt lat="44.89824361024004" lon="11.97692794846783"><ele>-5.0</ele><time>2026-04-25T16:24:44Z</time></trkpt><trkpt lat="44.898322455291094" lon="11.976929672837029"><ele>-5.0</ele><time>2026-04-25T16:24:45Z</time></trkpt><trkpt lat="44.898400777086756" lon="11.976930662869869"><ele>-5.0</ele><time>2026-04-25T16:24:46Z</time></trkpt><trkpt lat="44.898480490223285" lon="11.976927240624496"><ele>-5.0</ele><time>2026-04-25T16:24:47Z</time></trkpt><trkpt lat="44.89855361489891" lon="11.976927491549057"><ele>-5.0</ele><time>2026-04-25T16:24:48Z</time></trkpt><trkpt lat="44.898628742035655" lon="11.976923598108137"><ele>-5.0</ele><time>2026-04-25T16:24:49Z</time></trkpt><trkpt lat="44.89870248832674" lon="11.976921003766263"><ele>-5.0</ele><time>2026-04-25T16:24:50Z</time></trkpt><trkpt lat="44.898778882138735" lon="11.976919128292732"><ele>-5.166666666666667</ele><time>2026-04-25T16:24:51Z</time></trkpt><trkpt lat="44.89885430435846" lon="11.976916852356771"><ele>-5.333333333333334</ele><time>2026-04-25T16:24:52Z</time></trkpt><trkpt lat="44.89893116041221" lon="11.976914384570033"><ele>-5.5</ele><time>2026-04-25T16:24:53Z</time></trkpt><trkpt lat="44.89900996324274" lon="11.976914970401312"><ele>-5.666666666666667</ele><time>2026-04-25T16:24:54Z</time></trkpt><trkpt lat="44.89908840481011" lon="11.97691518895907"><ele>-5.833333333333333</ele><time>2026-04-25T16:24:55Z</time></trkpt><trkpt lat="44.89916587808851" lon="11.976910642697485"><ele>-6.0</ele><time>2026-04-25T16:24:56Z</time></trkpt><trkpt lat="44.89924316347271" lon="11.976906170311477"><ele>-5.999999999999999</ele><time>2026-04-25T16:24:57Z</time></trkpt><trkpt lat="44.89931904074646" lon="11.97691124360357"><ele>-6.0</ele><time>2026-04-25T16:24:58Z</time></trkpt><trkpt lat="44.89939348447497" lon="11.976908373512071"><ele>-6.0</ele><time>2026-04-25T16:24:59Z</time></trkpt><trkpt lat="44.89946957551481" lon="11.976899741112645"><ele>-6.0</ele><time>2026-04-25T16:25:00Z</time></trkpt><trkpt lat="44.899542733317325" lon="11.976896984908922"><ele>-6.0</ele><time>2026-04-25T16:25:01Z</time></trkpt><trkpt lat="44.89961848959074" lon="11.976899189469693"><ele>-5.999999999999999</ele><time>2026-04-25T16:25:02Z</time></trkpt><trkpt lat="44.89969218680254" lon="11.976896970913657"><ele>-6.0</ele><time>2026-04-25T16:25:03Z</time></trkpt><trkpt lat="44.89976784570479" lon="11.976895948575136"><ele>-6.0</ele><time>2026-04-25T16:25:04Z</time></trkpt><trkpt lat="44.8998429229026" lon="11.976893323063882"><ele>-6.0</ele><time>2026-04-25T16:25:05Z</time></trkpt><trkpt lat="44.89991898212753" lon="11.976889149869653"><ele>-6.0</ele><time>2026-04-25T16:25:06Z</time></trkpt><trkpt lat="44.89999680257941" lon="11.976885571069396"><ele>-6.0</ele><time>2026-04-25T16:25:07Z</time></trkpt><trkpt lat="44.900073483022474" lon="11.9768847287605"><ele>-6.0</ele><time>2026-04-25T16:25:08Z</time></trkpt><trkpt lat="44.90015301711977" lon="11.976881244012874"><ele>-6.0</ele><time>2026-04-25T16:25:09Z</time></trkpt><trkpt lat="44.90023089381717" lon="11.976879095663362"><ele>-6.0</ele><time>2026-04-25T16:25:10Z</time></trkpt><trkpt lat="44.90030920160075" lon="11.976878832214094"><ele>-6.0</ele><time>2026-04-25T16:25:11Z</time></trkpt><trkpt lat="44.90038222530187" lon="11.97687368876103"><ele>-6.0</ele><time>2026-04-25T16:25:12Z</time></trkpt><trkpt lat="44.90045694021416" lon="11.976870169686965"><ele>-6.0</ele><time>2026-04-25T16:25:13Z</time></trkpt><trkpt lat="44.90052963664997" lon="11.97686615974165"><ele>-6.0</ele><time>2026-04-25T16:25:14Z</time></trkpt><trkpt lat="44.900604990519625" lon="11.976865736654204"><ele>-6.0</ele><time>2026-04-25T16:25:14.999Z</time></trkpt><trkpt lat="44.9006831114385" lon="11.976865200373666"><ele>-6.0</ele><time>2026-04-25T16:25:15.999Z</time></trkpt><trkpt lat="44.90075898741067" lon="11.976862108796558"><ele>-6.0</ele><time>2026-04-25T16:25:16.999Z</time></trkpt><trkpt lat="44.90083587281903" lon="11.976861358966477"><ele>-6.0</ele><time>2026-04-25T16:25:17.999Z</time></trkpt><trkpt lat="44.900915563332376" lon="11.976858866893393"><ele>-6.0</ele><time>2026-04-25T16:25:18.999Z</time></trkpt><trkpt lat="44.900992632693324" lon="11.976855452044477"><ele>-6.0</ele><time>2026-04-25T16:25:19.999Z</time></trkpt><trkpt lat="44.90106891893465" lon="11.976852609845373"><ele>-6.0</ele><time>2026-04-25T16:25:20.999Z</time></trkpt><trkpt lat="44.90114434302282" lon="11.976849809594068"><ele>-6.0</ele><time>2026-04-25T16:25:21.999Z</time></trkpt><trkpt lat="44.90121841482207" lon="11.976848631183502"><ele>-6.0</ele><time>2026-04-25T16:25:22.999Z</time></trkpt><trkpt lat="44.90129159821374" lon="11.976841655606465"><ele>-6.0</ele><time>2026-04-25T16:25:23.999Z</time></trkpt><trkpt lat="44.90136875866514" lon="11.976838813435753"><ele>-6.0</ele><time>2026-04-25T16:25:24.999Z</time></trkpt><trkpt lat="44.901449116630374" lon="11.976835573293386"><ele>-6.0</ele><time>2026-04-25T16:25:25.999Z</time></trkpt><trkpt lat="44.901527328558934" lon="11.976833026186423"><ele>-6.0</ele><time>2026-04-25T16:25:26.999Z</time></trkpt><trkpt lat="44.901604739868915" lon="11.976832202835553"><ele>-6.0</ele><time>2026-04-25T16:25:27.999Z</time></trkpt><trkpt lat="44.90168115432962" lon="11.976829097855346"><ele>-6.0</ele><time>2026-04-25T16:25:28.999Z</time></trkpt><trkpt lat="44.90176059477441" lon="11.976829823172036"><ele>-6.0</ele><time>2026-04-25T16:25:29.999Z</time></trkpt><trkpt lat="44.90183688862064" lon="11.976833455187629"><ele>-6.0</ele><time>2026-04-25T16:25:30.999Z</time></trkpt><trkpt lat="44.90191663101325" lon="11.976828822740051"><ele>-6.0</ele><time>2026-04-25T16:25:31.999Z</time></trkpt><trkpt lat="44.90199414847652" lon="11.976818255243531"><ele>-6.0</ele><time>2026-04-25T16:25:32.999Z</time></trkpt><trkpt lat="44.90206832012262" lon="11.976815528571144"><ele>-6.0</ele><time>2026-04-25T16:25:33.999Z</time></trkpt><trkpt lat="44.902144980801296" lon="11.976811568907044"><ele>-6.0</ele><time>2026-04-25T16:25:34.999Z</time></trkpt><trkpt lat="44.902221849855394" lon="11.976811037815176"><ele>-6.0</ele><time>2026-04-25T16:25:35.999Z</time></trkpt><trkpt lat="44.90230150601823" lon="11.976820122347455"><ele>-6.0</ele><time>2026-04-25T16:25:36.999Z</time></trkpt><trkpt lat="44.902381389945006" lon="11.976819414563339"><ele>-6.0</ele><time>2026-04-25T16:25:37.999Z</time></trkpt><trkpt lat="44.902455822280395" lon="11.976811692793493"><ele>-6.0</ele><time>2026-04-25T16:25:38.999Z</time></trkpt><trkpt lat="44.90253097845815" lon="11.976810296488132"><ele>-6.0</ele><time>2026-04-25T16:25:39.999Z</time></trkpt><trkpt lat="44.902603786377945" lon="11.97681219627751"><ele>-6.0</ele><time>2026-04-25T16:25:40.999Z</time></trkpt><trkpt lat="44.90267938828492" lon="11.976804690381746"><ele>-6.0</ele><time>2026-04-25T16:25:41.999Z</time></trkpt><trkpt lat="44.90275489068202" lon="11.976802456346133"><ele>-6.0</ele><time>2026-04-25T16:25:42.999Z</time></trkpt><trkpt lat="44.90283101658657" lon="11.976796691100196"><ele>-6.0</ele><time>2026-04-25T16:25:43.999Z</time></trkpt><trkpt lat="44.9029101622354" lon="11.97678766767362"><ele>-6.0</ele><time>2026-04-25T16:25:44.999Z</time></trkpt><trkpt lat="44.90298771971333" lon="11.976788783590724"><ele>-6.0</ele><time>2026-04-25T16:25:45.999Z</time></trkpt><trkpt lat="44.90306647113769" lon="11.976792882961629"><ele>-6.0</ele><time>2026-04-25T16:25:46.999Z</time></trkpt><trkpt lat="44.90314779818709" lon="11.976786720645629"><ele>-6.0</ele><time>2026-04-25T16:25:47.999Z</time></trkpt><trkpt lat="44.90322735705068" lon="11.976783404639697"><ele>-6.0</ele><time>2026-04-25T16:25:48.999Z</time></trkpt><trkpt lat="44.9033047595063" lon="11.976788021753569"><ele>-6.0</ele><time>2026-04-25T16:25:49.999Z</time></trkpt><trkpt lat="44.90338409951719" lon="11.97678330805206"><ele>-6.0</ele><time>2026-04-25T16:25:50.999Z</time></trkpt><trkpt lat="44.90345956373898" lon="11.97677372975835"><ele>-5.999999999999999</ele><time>2026-04-25T16:25:51.999Z</time></trkpt><trkpt lat="44.903533075494636" lon="11.97677569822091"><ele>-6.0</ele><time>2026-04-25T16:25:52.999Z</time></trkpt><trkpt lat="44.903608403067395" lon="11.976788226647109"><ele>-6.0</ele><time>2026-04-25T16:25:53.999Z</time></trkpt><trkpt lat="44.903682274222675" lon="11.976788616510786"><ele>-6.0</ele><time>2026-04-25T16:25:54.999Z</time></trkpt><trkpt lat="44.90375853458664" lon="11.97677934824849"><ele>-6.0</ele><time>2026-04-25T16:25:55.999Z</time></trkpt><trkpt lat="44.90383222840594" lon="11.976778994344453"><ele>-5.999999999999999</ele><time>2026-04-25T16:25:56.999Z</time></trkpt><trkpt lat="44.90390714599082" lon="11.976769722892865"><ele>-6.0</ele><time>2026-04-25T16:25:57.999Z</time></trkpt><trkpt lat="44.903982803488276" lon="11.976768747924808"><ele>-6.0</ele><time>2026-04-25T16:25:58.999Z</time></trkpt><trkpt lat="44.90405811719658" lon="11.97677763821457"><ele>-6.0</ele><time>2026-04-25T16:25:59.999Z</time></trkpt><trkpt lat="44.90413464346122" lon="11.976778409352807"><ele>-6.0</ele><time>2026-04-25T16:26:00.999Z</time></trkpt><trkpt lat="44.90421222841742" lon="11.976773413398728"><ele>-6.0</ele><time>2026-04-25T16:26:01.999Z</time></trkpt><trkpt lat="44.904288294597684" lon="11.976757068008565"><ele>-6.0</ele><time>2026-04-25T16:26:02.999Z</time></trkpt><trkpt lat="44.90436465457921" lon="11.976750011759934"><ele>-6.0</ele><time>2026-04-25T16:26:03.999Z</time></trkpt><trkpt lat="44.90443922822298" lon="11.976761052461406"><ele>-5.833333333333333</ele><time>2026-04-25T16:26:04.999Z</time></trkpt><trkpt lat="44.90451748329405" lon="11.976758552247253"><ele>-5.666666666666667</ele><time>2026-04-25T16:26:05.999Z</time></trkpt><trkpt lat="44.90459366265671" lon="11.976766745636306"><ele>-5.5</ele><time>2026-04-25T16:26:06.999Z</time></trkpt><trkpt lat="44.90467071297316" lon="11.976764857147296"><ele>-5.333333333333334</ele><time>2026-04-25T16:26:07.999Z</time></trkpt><trkpt lat="44.904747333631356" lon="11.97674234373912"><ele>-5.166666666666667</ele><time>2026-04-25T16:26:08.999Z</time></trkpt><trkpt lat="44.90482565170952" lon="11.976757254943193"><ele>-5.0</ele><time>2026-04-25T16:26:09.999Z</time></trkpt><trkpt lat="44.90490258247171" lon="11.976757390971649"><ele>-5.0</ele><time>2026-04-25T16:26:10.999Z</time></trkpt><trkpt lat="44.90497950160604" lon="11.976745733560746"><ele>-5.0</ele><time>2026-04-25T16:26:11.999Z</time></trkpt><trkpt lat="44.90505521342534" lon="11.97674009114102"><ele>-5.0</ele><time>2026-04-25T16:26:12.999Z</time></trkpt><trkpt lat="44.90513276850491" lon="11.976747929750353"><ele>-5.0</ele><time>2026-04-25T16:26:14Z</time></trkpt><trkpt lat="44.905211264536305" lon="11.9767379958836"><ele>-5.0</ele><time>2026-04-25T16:26:15Z</time></trkpt><trkpt lat="44.90528897270243" lon="11.97674671039638"><ele>-5.0</ele><time>2026-04-25T16:26:16Z</time></trkpt><trkpt lat="44.90536781682654" lon="11.97672902135454"><ele>-4.833333333333334</ele><time>2026-04-25T16:26:17Z</time></trkpt><trkpt lat="44.90544463979676" lon="11.976731116856318"><ele>-4.666666666666667</ele><time>2026-04-25T16:26:18Z</time></trkpt><trkpt lat="44.90552081399517" lon="11.976721450348641"><ele>-4.5</ele><time>2026-04-25T16:26:19Z</time></trkpt><trkpt lat="44.90559451618581" lon="11.97673533861567"><ele>-4.333333333333333</ele><time>2026-04-25T16:26:20Z</time></trkpt><trkpt lat="44.90566677518855" lon="11.976732649266197"><ele>-4.166666666666666</ele><time>2026-04-25T16:26:21Z</time></trkpt><trkpt lat="44.90573057529923" lon="11.976738526924807"><ele>-4.0</ele><time>2026-04-25T16:26:22Z</time></trkpt><trkpt lat="44.90579298653863" lon="11.976906297313889"><ele>-3.9999999999999996</ele><time>2026-04-25T16:26:24Z</time></trkpt><trkpt lat="44.905814404622646" lon="11.977075608753662"><ele>-4.0</ele><time>2026-04-25T16:26:26Z</time></trkpt><trkpt lat="44.90582962009608" lon="11.977162848637699"><ele>-4.0</ele><time>2026-04-25T16:26:27Z</time></trkpt><trkpt lat="44.90584704522221" lon="11.97725352733327"><ele>-4.0</ele><time>2026-04-25T16:26:28Z</time></trkpt><trkpt lat="44.905866094006186" lon="11.977348217338859"><ele>-3.9999999999999996</ele><time>2026-04-25T16:26:29Z</time></trkpt><trkpt lat="44.90588498641943" lon="11.97743981937941"><ele>-4.0</ele><time>2026-04-25T16:26:30Z</time></trkpt><trkpt lat="44.90589944475772" lon="11.977533428858193"><ele>-3.8571428571428568</ele><time>2026-04-25T16:26:31Z</time></trkpt><trkpt lat="44.905906468914694" lon="11.977632149047231"><ele>-3.714285714285714</ele><time>2026-04-25T16:26:32Z</time></trkpt><trkpt lat="44.90591729835498" lon="11.977729567514011"><ele>-3.571428571428571</ele><time>2026-04-25T16:26:33Z</time></trkpt><trkpt lat="44.90593811580206" lon="11.977825395841315"><ele>-3.4285714285714284</ele><time>2026-04-25T16:26:34Z</time></trkpt><trkpt lat="44.905959040427526" lon="11.97792350631712"><ele>-3.2857142857142856</ele><time>2026-04-25T16:26:35Z</time></trkpt><trkpt lat="44.90597690694337" lon="11.97802146492431"><ele>-3.1428571428571423</ele><time>2026-04-25T16:26:36Z</time></trkpt><trkpt lat="44.90599716170383" lon="11.978120269880302"><ele>-3.0</ele><time>2026-04-25T16:26:37Z</time></trkpt><trkpt lat="44.90601734168277" lon="11.978219779143641"><ele>-3.5</ele><time>2026-04-25T16:26:38Z</time></trkpt><trkpt lat="44.90602990961906" lon="11.978323207649126"><ele>-4.0</ele><time>2026-04-25T16:26:39Z</time></trkpt><trkpt lat="44.90605020192365" lon="11.978426697844226"><ele>-4.5</ele><time>2026-04-25T16:26:40Z</time></trkpt><trkpt lat="44.90607031818054" lon="11.978533227448874"><ele>-5.0</ele><time>2026-04-25T16:26:41Z</time></trkpt><trkpt lat="44.90608150930399" lon="11.978644681880988"><ele>-5.5</ele><time>2026-04-25T16:26:42Z</time></trkpt><trkpt lat="44.90609888458416" lon="11.978754003381605"><ele>-6.0</ele><time>2026-04-25T16:26:43Z</time></trkpt><trkpt lat="44.90612205803964" lon="11.97886212574517"><ele>-5.999999999999999</ele><time>2026-04-25T16:26:44Z</time></trkpt><trkpt lat="44.906145384824995" lon="11.978963881583061"><ele>-6.0</ele><time>2026-04-25T16:26:45Z</time></trkpt><trkpt lat="44.906163674201125" lon="11.979066515950015"><ele>-6.0</ele><time>2026-04-25T16:26:46Z</time></trkpt><trkpt lat="44.906173049269995" lon="11.979169412404783"><ele>-6.0</ele><time>2026-04-25T16:26:47Z</time></trkpt><trkpt lat="44.90619294416994" lon="11.979268631812843"><ele>-6.0</ele><time>2026-04-25T16:26:48Z</time></trkpt><trkpt lat="44.906210287244605" lon="11.979367763170114"><ele>-5.999999999999999</ele><time>2026-04-25T16:26:49Z</time></trkpt><trkpt lat="44.90622398401239" lon="11.97946804975279"><ele>-6.0</ele><time>2026-04-25T16:26:50Z</time></trkpt><trkpt lat="44.90624704727053" lon="11.979569632378249"><ele>-5.833333333333333</ele><time>2026-04-25T16:26:51Z</time></trkpt><trkpt lat="44.90627232537088" lon="11.979665023165413"><ele>-5.666666666666667</ele><time>2026-04-25T16:26:52Z</time></trkpt><trkpt lat="44.90628247417967" lon="11.97977424678858"><ele>-5.5</ele><time>2026-04-25T16:26:53Z</time></trkpt><trkpt lat="44.9062949799494" lon="11.979878542571216"><ele>-5.333333333333334</ele><time>2026-04-25T16:26:54Z</time></trkpt><trkpt lat="44.90631667751328" lon="11.97998132497952"><ele>-5.166666666666667</ele><time>2026-04-25T16:26:55Z</time></trkpt><trkpt lat="44.90633762164119" lon="11.980082322176926"><ele>-5.0</ele><time>2026-04-25T16:26:56Z</time></trkpt><trkpt lat="44.90635564497353" lon="11.980185705061473"><ele>-5.0</ele><time>2026-04-25T16:26:57Z</time></trkpt><trkpt lat="44.90637251950766" lon="11.980287733801697"><ele>-5.0</ele><time>2026-04-25T16:26:58Z</time></trkpt><trkpt lat="44.90639174806661" lon="11.980387313576426"><ele>-5.0</ele><time>2026-04-25T16:26:59Z</time></trkpt><trkpt lat="44.90641128403702" lon="11.980487231748974"><ele>-5.0</ele><time>2026-04-25T16:27:00Z</time></trkpt><trkpt lat="44.90642927854091" lon="11.98058892110241"><ele>-5.0</ele><time>2026-04-25T16:27:01Z</time></trkpt><trkpt lat="44.906447212039" lon="11.980690798344504"><ele>-5.0</ele><time>2026-04-25T16:27:02Z</time></trkpt><trkpt lat="44.90646584625547" lon="11.980787047224618"><ele>-5.0</ele><time>2026-04-25T16:27:03Z</time></trkpt><trkpt lat="44.906483689754936" lon="11.980880766572911"><ele>-5.0</ele><time>2026-04-25T16:27:04Z</time></trkpt><trkpt lat="44.90650551216413" lon="11.980970004404353"><ele>-5.0</ele><time>2026-04-25T16:27:05Z</time></trkpt><trkpt lat="44.90652469793125" lon="11.981059161938788"><ele>-5.0</ele><time>2026-04-25T16:27:06Z</time></trkpt><trkpt lat="44.90654328523316" lon="11.981155119962343"><ele>-5.0</ele><time>2026-04-25T16:27:07Z</time></trkpt><trkpt lat="44.906555500176836" lon="11.98125274610951"><ele>-5.0</ele><time>2026-04-25T16:27:08Z</time></trkpt><trkpt lat="44.90656581941537" lon="11.981354451713049"><ele>-5.0</ele><time>2026-04-25T16:27:09Z</time></trkpt><trkpt lat="44.906577632267755" lon="11.981453625910525"><ele>-5.0</ele><time>2026-04-25T16:27:10Z</time></trkpt><trkpt lat="44.906604970557005" lon="11.981554782408642"><ele>-5.0</ele><time>2026-04-25T16:27:11Z</time></trkpt><trkpt lat="44.90662543777466" lon="11.981662097203884"><ele>-5.0</ele><time>2026-04-25T16:27:12Z</time></trkpt><trkpt lat="44.906642910422136" lon="11.981767268040555"><ele>-5.0</ele><time>2026-04-25T16:27:13Z</time></trkpt><trkpt lat="44.90666370119671" lon="11.981872088695281"><ele>-5.0</ele><time>2026-04-25T16:27:14Z</time></trkpt><trkpt lat="44.9066742717887" lon="11.981979287013647"><ele>-5.0</ele><time>2026-04-25T16:27:15Z</time></trkpt><trkpt lat="44.906686303078295" lon="11.982085183882166"><ele>-5.0</ele><time>2026-04-25T16:27:15.999Z</time></trkpt><trkpt lat="44.9067099617048" lon="11.98219123998771"><ele>-5.0</ele><time>2026-04-25T16:27:16.999Z</time></trkpt><trkpt lat="44.90673016841014" lon="11.982295863320417"><ele>-5.0</ele><time>2026-04-25T16:27:17.999Z</time></trkpt><trkpt lat="44.906748760682866" lon="11.982404202085329"><ele>-5.0</ele><time>2026-04-25T16:27:18.999Z</time></trkpt><trkpt lat="44.906765454226864" lon="11.982508961413101"><ele>-5.0</ele><time>2026-04-25T16:27:19.999Z</time></trkpt><trkpt lat="44.906783965366216" lon="11.98261390541575"><ele>-5.0</ele><time>2026-04-25T16:27:20.999Z</time></trkpt><trkpt lat="44.90680526890543" lon="11.98271679123964"><ele>-5.0</ele><time>2026-04-25T16:27:21.999Z</time></trkpt><trkpt lat="44.90682720470051" lon="11.982822691950723"><ele>-5.0</ele><time>2026-04-25T16:27:22.999Z</time></trkpt><trkpt lat="44.90684365254639" lon="11.982927688212948"><ele>-5.0</ele><time>2026-04-25T16:27:23.999Z</time></trkpt><trkpt lat="44.90685773302889" lon="11.983034340963524"><ele>-5.0</ele><time>2026-04-25T16:27:24.999Z</time></trkpt><trkpt lat="44.90687430890284" lon="11.983144158138838"><ele>-5.0</ele><time>2026-04-25T16:27:25.999Z</time></trkpt><trkpt lat="44.90689376924338" lon="11.983253142936663"><ele>-5.0</ele><time>2026-04-25T16:27:26.999Z</time></trkpt><trkpt lat="44.90691393936762" lon="11.983356799873944"><ele>-5.0</ele><time>2026-04-25T16:27:27.999Z</time></trkpt><trkpt lat="44.9069323283393" lon="11.983456927272092"><ele>-5.142857142857142</ele><time>2026-04-25T16:27:28.999Z</time></trkpt><trkpt lat="44.90695734959867" lon="11.983556943403395"><ele>-5.285714285714286</ele><time>2026-04-25T16:27:29.999Z</time></trkpt><trkpt lat="44.90698050841479" lon="11.983652950257566"><ele>-5.428571428571429</ele><time>2026-04-25T16:27:30.999Z</time></trkpt><trkpt lat="44.90698659581107" lon="11.983755885953597"><ele>-5.571428571428571</ele><time>2026-04-25T16:27:31.999Z</time></trkpt><trkpt lat="44.907003266501405" lon="11.98386131767475"><ele>-5.714285714285714</ele><time>2026-04-25T16:27:32.999Z</time></trkpt><trkpt lat="44.9070268515061" lon="11.983958265011013"><ele>-5.857142857142857</ele><time>2026-04-25T16:27:33.999Z</time></trkpt><trkpt lat="44.90704890130656" lon="11.984061488661293"><ele>-6.0</ele><time>2026-04-25T16:27:34.999Z</time></trkpt><trkpt lat="44.9070633874867" lon="11.984163699792385"><ele>-5.833333333333333</ele><time>2026-04-25T16:27:35.999Z</time></trkpt><trkpt lat="44.907075595863084" lon="11.98426740417311"><ele>-5.666666666666667</ele><time>2026-04-25T16:27:36.999Z</time></trkpt><trkpt lat="44.907091180373506" lon="11.98437376200151"><ele>-5.5</ele><time>2026-04-25T16:27:37.999Z</time></trkpt><trkpt lat="44.90711782016565" lon="11.98447393330034"><ele>-5.333333333333334</ele><time>2026-04-25T16:27:38.999Z</time></trkpt><trkpt lat="44.907137797399876" lon="11.984577024042434"><ele>-5.166666666666667</ele><time>2026-04-25T16:27:39.999Z</time></trkpt><trkpt lat="44.90714777978621" lon="11.984681399876145"><ele>-5.0</ele><time>2026-04-25T16:27:40.999Z</time></trkpt><trkpt lat="44.90716628843177" lon="11.98478767354954"><ele>-5.0</ele><time>2026-04-25T16:27:41.999Z</time></trkpt><trkpt lat="44.9071859814416" lon="11.984887512687214"><ele>-5.0</ele><time>2026-04-25T16:27:42.999Z</time></trkpt><trkpt lat="44.90720773926903" lon="11.984989710118812"><ele>-5.0</ele><time>2026-04-25T16:27:43.999Z</time></trkpt><trkpt lat="44.9072277487076" lon="11.985093538745236"><ele>-5.0</ele><time>2026-04-25T16:27:44.999Z</time></trkpt><trkpt lat="44.90724222500883" lon="11.98519597218495"><ele>-5.0</ele><time>2026-04-25T16:27:45.999Z</time></trkpt><trkpt lat="44.90725772783063" lon="11.985299814108837"><ele>-5.0</ele><time>2026-04-25T16:27:46.999Z</time></trkpt><trkpt lat="44.90727335011317" lon="11.985408003922355"><ele>-5.0</ele><time>2026-04-25T16:27:47.999Z</time></trkpt><trkpt lat="44.907289882256016" lon="11.985507813991203"><ele>-5.0</ele><time>2026-04-25T16:27:48.999Z</time></trkpt><trkpt lat="44.90731048387415" lon="11.985609599496936"><ele>-5.0</ele><time>2026-04-25T16:27:49.999Z</time></trkpt><trkpt lat="44.90733015444898" lon="11.985715146587498"><ele>-5.0</ele><time>2026-04-25T16:27:50.999Z</time></trkpt><trkpt lat="44.907346144862764" lon="11.985815269762897"><ele>-5.0</ele><time>2026-04-25T16:27:51.999Z</time></trkpt><trkpt lat="44.90736838717412" lon="11.985913907719642"><ele>-5.0</ele><time>2026-04-25T16:27:52.999Z</time></trkpt><trkpt lat="44.90738221710894" lon="11.986018927629948"><ele>-5.0</ele><time>2026-04-25T16:27:53.999Z</time></trkpt><trkpt lat="44.90739579802505" lon="11.986117363101677"><ele>-5.142857142857142</ele><time>2026-04-25T16:27:54.999Z</time></trkpt><trkpt lat="44.907420632140834" lon="11.986216716952116"><ele>-5.285714285714286</ele><time>2026-04-25T16:27:55.999Z</time></trkpt><trkpt lat="44.9074396508959" lon="11.98631657147929"><ele>-5.428571428571429</ele><time>2026-04-25T16:27:56.999Z</time></trkpt><trkpt lat="44.90745654716574" lon="11.986416805894018"><ele>-5.571428571428571</ele><time>2026-04-25T16:27:57.999Z</time></trkpt><trkpt lat="44.9074733783698" lon="11.986522719014125"><ele>-5.714285714285714</ele><time>2026-04-25T16:27:58.999Z</time></trkpt><trkpt lat="44.907488052878094" lon="11.986622606573944"><ele>-5.857142857142857</ele><time>2026-04-25T16:27:59.999Z</time></trkpt><trkpt lat="44.90750531086174" lon="11.986727194379402"><ele>-6.0</ele><time>2026-04-25T16:28:00.999Z</time></trkpt><trkpt lat="44.90752460944443" lon="11.986828476681618"><ele>-6.142857142857142</ele><time>2026-04-25T16:28:01.999Z</time></trkpt><trkpt lat="44.90754505722196" lon="11.986926947576999"><ele>-6.285714285714286</ele><time>2026-04-25T16:28:02.999Z</time></trkpt><trkpt lat="44.90756584046571" lon="11.987028081752532"><ele>-6.428571428571429</ele><time>2026-04-25T16:28:03.999Z</time></trkpt><trkpt lat="44.90757629664777" lon="11.987125635587724"><ele>-6.571428571428571</ele><time>2026-04-25T16:28:04.999Z</time></trkpt><trkpt lat="44.90758833659312" lon="11.987227202865629"><ele>-6.714285714285714</ele><time>2026-04-25T16:28:05.999Z</time></trkpt><trkpt lat="44.907608303683645" lon="11.98732198017066"><ele>-6.857142857142857</ele><time>2026-04-25T16:28:06.999Z</time></trkpt><trkpt lat="44.9076311999941" lon="11.987423589376224"><ele>-7.0</ele><time>2026-04-25T16:28:07.999Z</time></trkpt><trkpt lat="44.90765116709926" lon="11.987527190320925"><ele>-6.666666666666667</ele><time>2026-04-25T16:28:08.999Z</time></trkpt><trkpt lat="44.907670582898156" lon="11.987630670507073"><ele>-6.333333333333334</ele><time>2026-04-25T16:28:09.999Z</time></trkpt><trkpt lat="44.90768834369397" lon="11.98773246404977"><ele>-6.0</ele><time>2026-04-25T16:28:10.999Z</time></trkpt><trkpt lat="44.90770242272271" lon="11.9878385234783"><ele>-5.666666666666667</ele><time>2026-04-25T16:28:11.999Z</time></trkpt><trkpt lat="44.907715454703386" lon="11.98794458585616"><ele>-5.333333333333334</ele><time>2026-04-25T16:28:12.999Z</time></trkpt><trkpt lat="44.90773931897242" lon="11.988043704041852"><ele>-5.0</ele><time>2026-04-25T16:28:13.999Z</time></trkpt><trkpt lat="44.90776546000797" lon="11.98814204229666"><ele>-5.0</ele><time>2026-04-25T16:28:14.999Z</time></trkpt><trkpt lat="44.90777869819816" lon="11.9882479189848"><ele>-5.0</ele><time>2026-04-25T16:28:15.999Z</time></trkpt><trkpt lat="44.9077943932194" lon="11.988352543114868"><ele>-5.0</ele><time>2026-04-25T16:28:16.999Z</time></trkpt><trkpt lat="44.907816832726425" lon="11.988457541788629"><ele>-5.0</ele><time>2026-04-25T16:28:17.999Z</time></trkpt><trkpt lat="44.90783084211899" lon="11.988563510684632"><ele>-5.0</ele><time>2026-04-25T16:28:18.999Z</time></trkpt><trkpt lat="44.90784630541424" lon="11.988668338841062"><ele>-5.0</ele><time>2026-04-25T16:28:20Z</time></trkpt><trkpt lat="44.90786852941624" lon="11.98877218003018"><ele>-5.0</ele><time>2026-04-25T16:28:21Z</time></trkpt><trkpt lat="44.90788643386295" lon="11.988876876804447"><ele>-5.0</ele><time>2026-04-25T16:28:22Z</time></trkpt><trkpt lat="44.90790327078671" lon="11.988977441234768"><ele>-5.0</ele><time>2026-04-25T16:28:23Z</time></trkpt><trkpt lat="44.90791905719163" lon="11.989079989621079"><ele>-5.0</ele><time>2026-04-25T16:28:24Z</time></trkpt><trkpt lat="44.907933996531156" lon="11.989180050824634"><ele>-5.0</ele><time>2026-04-25T16:28:25Z</time></trkpt><trkpt lat="44.907943963141896" lon="11.98927805808273"><ele>-5.0</ele><time>2026-04-25T16:28:26Z</time></trkpt><trkpt lat="44.90797239712023" lon="11.989379383501802"><ele>-5.0</ele><time>2026-04-25T16:28:27Z</time></trkpt><trkpt lat="44.907995137055444" lon="11.98947962631771"><ele>-4.833333333333334</ele><time>2026-04-25T16:28:28Z</time></trkpt><trkpt lat="44.9080156501435" lon="11.989581046164588"><ele>-4.666666666666667</ele><time>2026-04-25T16:28:29Z</time></trkpt><trkpt lat="44.90803706786577" lon="11.989683703869533"><ele>-4.5</ele><time>2026-04-25T16:28:30Z</time></trkpt><trkpt lat="44.908061119119516" lon="11.989782253925465"><ele>-4.333333333333333</ele><time>2026-04-25T16:28:31Z</time></trkpt><trkpt lat="44.90807963278097" lon="11.98988509041465"><ele>-4.166666666666666</ele><time>2026-04-25T16:28:32Z</time></trkpt><trkpt lat="44.90809126416148" lon="11.989989706387929"><ele>-4.0</ele><time>2026-04-25T16:28:33Z</time></trkpt><trkpt lat="44.90810393373948" lon="11.990094719295717"><ele>-4.0</ele><time>2026-04-25T16:28:34Z</time></trkpt><trkpt lat="44.90812153505155" lon="11.990192947247259"><ele>-3.9999999999999996</ele><time>2026-04-25T16:28:35Z</time></trkpt><trkpt lat="44.90814448255608" lon="11.990292240605575"><ele>-4.0</ele><time>2026-04-25T16:28:36Z</time></trkpt><trkpt lat="44.90815458140465" lon="11.990396439221891"><ele>-4.0</ele><time>2026-04-25T16:28:37Z</time></trkpt><trkpt lat="44.9081616562445" lon="11.990502455899641"><ele>-3.9999999999999996</ele><time>2026-04-25T16:28:38Z</time></trkpt><trkpt lat="44.90819028046446" lon="11.990594777667983"><ele>-4.0</ele><time>2026-04-25T16:28:39Z</time></trkpt><trkpt lat="44.90821227892942" lon="11.990687873286815"><ele>-4.0</ele><time>2026-04-25T16:28:40Z</time></trkpt><trkpt lat="44.9082180118381" lon="11.990788088714915"><ele>-4.0</ele><time>2026-04-25T16:28:41Z</time></trkpt><trkpt lat="44.908245978251145" lon="11.990955221106303"><ele>-4.0</ele><time>2026-04-25T16:28:43Z</time></trkpt><trkpt lat="44.90826788065404" lon="11.991064392524853"><ele>-4.0</ele><time>2026-04-25T16:28:45Z</time></trkpt><trkpt lat="44.908370090413456" lon="11.99104568472107"><ele>-4.0</ele><time>2026-04-25T16:28:46Z</time></trkpt><trkpt lat="44.90845177082945" lon="11.991042887226602"><ele>-4.0</ele><time>2026-04-25T16:28:48Z</time></trkpt><trkpt lat="44.90856550717684" lon="11.991044056712235"><ele>-4.0</ele><time>2026-04-25T16:28:50Z</time></trkpt><trkpt lat="44.908683129258385" lon="11.991044267870109"><ele>-4.0</ele><time>2026-04-25T16:28:52Z</time></trkpt><trkpt lat="44.908805540335074" lon="11.991067985488309"><ele>-4.0</ele><time>2026-04-25T16:28:54Z</time></trkpt><trkpt lat="44.9088770024032" lon="11.991049527011171"><ele>-4.0</ele><time>2026-04-25T16:28:55Z</time></trkpt><trkpt lat="44.908940314241995" lon="11.991076850840887"><ele>-4.0</ele><time>2026-04-25T16:28:56Z</time></trkpt><trkpt lat="44.90901210925976" lon="11.991081573471469"><ele>-3.9999999999999996</ele><time>2026-04-25T16:28:57Z</time></trkpt><trkpt lat="44.909085432489455" lon="11.991086396636994"><ele>-4.0</ele><time>2026-04-25T16:28:58Z</time></trkpt><trkpt lat="44.909161156677506" lon="11.99109137772931"><ele>-4.0</ele><time>2026-04-25T16:28:59Z</time></trkpt><trkpt lat="44.909236380893276" lon="11.991081768827716"><ele>-4.0</ele><time>2026-04-25T16:29:00Z</time></trkpt><trkpt lat="44.90931267887838" lon="11.991080677909775"><ele>-3.9999999999999996</ele><time>2026-04-25T16:29:01Z</time></trkpt><trkpt lat="44.909388608993474" lon="11.991106232882352"><ele>-4.0</ele><time>2026-04-25T16:29:02Z</time></trkpt><trkpt lat="44.90946500373164" lon="11.99108789501984"><ele>-4.333333333333333</ele><time>2026-04-25T16:29:03Z</time></trkpt><trkpt lat="44.90954462239092" lon="11.991098891732939"><ele>-4.666666666666666</ele><time>2026-04-25T16:29:04Z</time></trkpt><trkpt lat="44.90962143777569" lon="11.991103995258653"><ele>-5.0</ele><time>2026-04-25T16:29:05Z</time></trkpt><trkpt lat="44.909701013897646" lon="11.991105628093928"><ele>-5.333333333333333</ele><time>2026-04-25T16:29:06Z</time></trkpt><trkpt lat="44.90978081363618" lon="11.991115213826259"><ele>-5.666666666666667</ele><time>2026-04-25T16:29:07Z</time></trkpt><trkpt lat="44.90985594746412" lon="11.991115625047499"><ele>-6.0</ele><time>2026-04-25T16:29:08Z</time></trkpt><trkpt lat="44.909932524512755" lon="11.991121521626226"><ele>-5.999999999999999</ele><time>2026-04-25T16:29:09Z</time></trkpt><trkpt lat="44.91000599059091" lon="11.991126606906588"><ele>-6.0</ele><time>2026-04-25T16:29:10Z</time></trkpt><trkpt lat="44.910079802322656" lon="11.991130910260182"><ele>-6.0</ele><time>2026-04-25T16:29:11Z</time></trkpt><trkpt lat="44.910153394418124" lon="11.991134565627522"><ele>-6.0</ele><time>2026-04-25T16:29:12Z</time></trkpt><trkpt lat="44.910227650733844" lon="11.991145980229529"><ele>-6.0</ele><time>2026-04-25T16:29:13Z</time></trkpt><trkpt lat="44.910303927621996" lon="11.991141607727457"><ele>-5.999999999999999</ele><time>2026-04-25T16:29:14Z</time></trkpt><trkpt lat="44.910380912203365" lon="11.991146684030392"><ele>-6.0</ele><time>2026-04-25T16:29:15Z</time></trkpt><trkpt lat="44.91045981920452" lon="11.991158610554304"><ele>-6.166666666666667</ele><time>2026-04-25T16:29:15.999Z</time></trkpt><trkpt lat="44.91053829022716" lon="11.991157947946805"><ele>-6.333333333333334</ele><time>2026-04-25T16:29:16.999Z</time></trkpt><trkpt lat="44.91061465308132" lon="11.991160413794999"><ele>-6.5</ele><time>2026-04-25T16:29:17.999Z</time></trkpt><trkpt lat="44.91069194307832" lon="11.99117296277487"><ele>-6.666666666666667</ele><time>2026-04-25T16:29:18.999Z</time></trkpt><trkpt lat="44.910768012499766" lon="11.991171028078597"><ele>-6.833333333333334</ele><time>2026-04-25T16:29:19.999Z</time></trkpt><trkpt lat="44.910839187013096" lon="11.991176391576632"><ele>-7.0</ele><time>2026-04-25T16:29:20.999Z</time></trkpt><trkpt lat="44.91091370413876" lon="11.991183941754569"><ele>-7.000000000000001</ele><time>2026-04-25T16:29:21.999Z</time></trkpt><trkpt lat="44.91099029412124" lon="11.991183977568674"><ele>-7.0</ele><time>2026-04-25T16:29:22.999Z</time></trkpt><trkpt lat="44.91106685687227" lon="11.991193732085783"><ele>-7.0</ele><time>2026-04-25T16:29:23.999Z</time></trkpt><trkpt lat="44.91114362797566" lon="11.99119783003878"><ele>-7.0</ele><time>2026-04-25T16:29:24.999Z</time></trkpt><trkpt lat="44.911222003348186" lon="11.991203094720813"><ele>-7.000000000000001</ele><time>2026-04-25T16:29:25.999Z</time></trkpt><trkpt lat="44.91129727712366" lon="11.99120555960475"><ele>-7.0</ele><time>2026-04-25T16:29:26.999Z</time></trkpt><trkpt lat="44.91137386517239" lon="11.991209640762658"><ele>-7.000000000000001</ele><time>2026-04-25T16:29:27.999Z</time></trkpt><trkpt lat="44.911449598125635" lon="11.99121614615836"><ele>-7.0</ele><time>2026-04-25T16:29:28.999Z</time></trkpt><trkpt lat="44.91152303925704" lon="11.99122003133284"><ele>-7.0</ele><time>2026-04-25T16:29:29.999Z</time></trkpt><trkpt lat="44.91159709581533" lon="11.99122618140774"><ele>-7.0</ele><time>2026-04-25T16:29:30.999Z</time></trkpt><trkpt lat="44.91167217934995" lon="11.99122669103924"><ele>-7.000000000000001</ele><time>2026-04-25T16:29:31.999Z</time></trkpt><trkpt lat="44.91174875486709" lon="11.991234112008339"><ele>-7.0</ele><time>2026-04-25T16:29:32.999Z</time></trkpt><trkpt lat="44.91182462917615" lon="11.9912393537139"><ele>-6.833333333333334</ele><time>2026-04-25T16:29:33.999Z</time></trkpt><trkpt lat="44.91190292250756" lon="11.991251697488195"><ele>-6.666666666666667</ele><time>2026-04-25T16:29:34.999Z</time></trkpt><trkpt lat="44.91197759993431" lon="11.991251561203354"><ele>-6.5</ele><time>2026-04-25T16:29:35.999Z</time></trkpt><trkpt lat="44.91205568332606" lon="11.991256359947414"><ele>-6.333333333333334</ele><time>2026-04-25T16:29:36.999Z</time></trkpt><trkpt lat="44.91213702292647" lon="11.991259833767133"><ele>-6.166666666666667</ele><time>2026-04-25T16:29:37.999Z</time></trkpt><trkpt lat="44.91221512546571" lon="11.991262680928903"><ele>-6.0</ele><time>2026-04-25T16:29:38.999Z</time></trkpt><trkpt lat="44.91229262244713" lon="11.991277273498765"><ele>-5.999999999999999</ele><time>2026-04-25T16:29:39.999Z</time></trkpt><trkpt lat="44.91236508796229" lon="11.991276897330525"><ele>-6.0</ele><time>2026-04-25T16:29:40.999Z</time></trkpt><trkpt lat="44.91243984481331" lon="11.991280579873322"><ele>-6.0</ele><time>2026-04-25T16:29:41.999Z</time></trkpt><trkpt lat="44.912514159126935" lon="11.99128263036574"><ele>-6.0</ele><time>2026-04-25T16:29:42.999Z</time></trkpt><trkpt lat="44.91258798492588" lon="11.991286024645099"><ele>-6.0</ele><time>2026-04-25T16:29:43.999Z</time></trkpt><trkpt lat="44.91266334155742" lon="11.991294864708976"><ele>-5.999999999999999</ele><time>2026-04-25T16:29:44.999Z</time></trkpt><trkpt lat="44.91273946584358" lon="11.991295551062887"><ele>-6.0</ele><time>2026-04-25T16:29:45.999Z</time></trkpt><trkpt lat="44.912815235670635" lon="11.991297083780012"><ele>-5.833333333333333</ele><time>2026-04-25T16:29:46.999Z</time></trkpt><trkpt lat="44.91289323079916" lon="11.991309162150284"><ele>-5.666666666666667</ele><time>2026-04-25T16:29:47.999Z</time></trkpt><trkpt lat="44.912969925479885" lon="11.99131127225684"><ele>-5.5</ele><time>2026-04-25T16:29:48.999Z</time></trkpt><trkpt lat="44.9130473756017" lon="11.991313771344345"><ele>-5.333333333333334</ele><time>2026-04-25T16:29:49.999Z</time></trkpt><trkpt lat="44.91312326469903" lon="11.9913125293128"><ele>-5.166666666666667</ele><time>2026-04-25T16:29:50.999Z</time></trkpt><trkpt lat="44.91319777665653" lon="11.991315155952789"><ele>-5.0</ele><time>2026-04-25T16:29:51.999Z</time></trkpt><trkpt lat="44.91327121306236" lon="11.99131767167702"><ele>-5.0</ele><time>2026-04-25T16:29:52.999Z</time></trkpt><trkpt lat="44.91334649726952" lon="11.991317716941314"><ele>-5.0</ele><time>2026-04-25T16:29:53.999Z</time></trkpt><trkpt lat="44.91342730131984" lon="11.991315313202374"><ele>-5.0</ele><time>2026-04-25T16:29:54.999Z</time></trkpt><trkpt lat="44.913511094136815" lon="11.991317104169552"><ele>-5.0</ele><time>2026-04-25T16:29:55.999Z</time></trkpt><trkpt lat="44.9135851439262" lon="11.991320254891011"><ele>-5.0</ele><time>2026-04-25T16:29:56.999Z</time></trkpt><trkpt lat="44.91366214948262" lon="11.99131827497141"><ele>-5.0</ele><time>2026-04-25T16:29:57.999Z</time></trkpt><trkpt lat="44.91373596991707" lon="11.9913182377337"><ele>-5.0</ele><time>2026-04-25T16:29:58.999Z</time></trkpt><trkpt lat="44.91380751211826" lon="11.991318201453504"><ele>-5.0</ele><time>2026-04-25T16:29:59.999Z</time></trkpt><trkpt lat="44.91387835401072" lon="11.991326583225497"><ele>-5.0</ele><time>2026-04-25T16:30:00.999Z</time></trkpt><trkpt lat="44.91395535445681" lon="11.991315658932173"><ele>-5.0</ele><time>2026-04-25T16:30:01.999Z</time></trkpt><trkpt lat="44.91403464449838" lon="11.991323355724305"><ele>-5.0</ele><time>2026-04-25T16:30:02.999Z</time></trkpt><trkpt lat="44.914109358297736" lon="11.991324695423728"><ele>-5.0</ele><time>2026-04-25T16:30:03.999Z</time></trkpt><trkpt lat="44.9141850474759" lon="11.99132449723744"><ele>-4.833333333333334</ele><time>2026-04-25T16:30:04.999Z</time></trkpt><trkpt lat="44.914262416635715" lon="11.991326275763104"><ele>-4.666666666666667</ele><time>2026-04-25T16:30:05.999Z</time></trkpt><trkpt lat="44.91433502872762" lon="11.991329392094359"><ele>-4.5</ele><time>2026-04-25T16:30:06.999Z</time></trkpt><trkpt lat="44.91441270434015" lon="11.99132251798133"><ele>-4.333333333333333</ele><time>2026-04-25T16:30:07.999Z</time></trkpt><trkpt lat="44.914489808908215" lon="11.991317005643454"><ele>-4.166666666666666</ele><time>2026-04-25T16:30:08.999Z</time></trkpt><trkpt lat="44.91456525412232" lon="11.991312589297879"><ele>-4.0</ele><time>2026-04-25T16:30:09.999Z</time></trkpt><trkpt lat="44.91464373323008" lon="11.991316677699972"><ele>-3.9999999999999996</ele><time>2026-04-25T16:30:10.999Z</time></trkpt><trkpt lat="44.91472165536521" lon="11.991320425541108"><ele>-4.0</ele><time>2026-04-25T16:30:11.999Z</time></trkpt><trkpt lat="44.91479881464301" lon="11.9913236727813"><ele>-4.0</ele><time>2026-04-25T16:30:12.999Z</time></trkpt><trkpt lat="44.91487561255508" lon="11.991323642555738"><ele>-4.0</ele><time>2026-04-25T16:30:13.999Z</time></trkpt><trkpt lat="44.914954514718254" lon="11.991311299923527"><ele>-3.9999999999999996</ele><time>2026-04-25T16:30:14.999Z</time></trkpt><trkpt lat="44.91503088468715" lon="11.991300110402541"><ele>-4.0</ele><time>2026-04-25T16:30:15.999Z</time></trkpt><trkpt lat="44.91510730879858" lon="11.991310963863357"><ele>-4.166666666666666</ele><time>2026-04-25T16:30:16.999Z</time></trkpt><trkpt lat="44.91518191629254" lon="11.991310427759242"><ele>-4.333333333333333</ele><time>2026-04-25T16:30:17.999Z</time></trkpt><trkpt lat="44.9152538605085" lon="11.991313948014126"><ele>-4.5</ele><time>2026-04-25T16:30:18.999Z</time></trkpt><trkpt lat="44.91532885437506" lon="11.991307225639055"><ele>-4.666666666666667</ele><time>2026-04-25T16:30:19.999Z</time></trkpt><trkpt lat="44.91540290863017" lon="11.991301235435028"><ele>-4.833333333333334</ele><time>2026-04-25T16:30:20.999Z</time></trkpt><trkpt lat="44.91547894588498" lon="11.9913013454629"><ele>-5.0</ele><time>2026-04-25T16:30:21.999Z</time></trkpt><trkpt lat="44.91555766727727" lon="11.991297106771773"><ele>-5.0</ele><time>2026-04-25T16:30:22.999Z</time></trkpt><trkpt lat="44.91563551934125" lon="11.991296340166349"><ele>-5.0</ele><time>2026-04-25T16:30:23.999Z</time></trkpt><trkpt lat="44.91570805731707" lon="11.991300504809178"><ele>-5.0</ele><time>2026-04-25T16:30:24.999Z</time></trkpt><trkpt lat="44.91578884873477" lon="11.991296310272634"><ele>-5.0</ele><time>2026-04-25T16:30:26Z</time></trkpt><trkpt lat="44.915865066625365" lon="11.991298306559898"><ele>-5.0</ele><time>2026-04-25T16:30:27Z</time></trkpt><trkpt lat="44.91594042447244" lon="11.991301049518823"><ele>-5.0</ele><time>2026-04-25T16:30:28Z</time></trkpt><trkpt lat="44.916015360284575" lon="11.991300964055188"><ele>-5.166666666666667</ele><time>2026-04-25T16:30:29Z</time></trkpt><trkpt lat="44.91608949502461" lon="11.99129977935533"><ele>-5.333333333333334</ele><time>2026-04-25T16:30:30Z</time></trkpt><trkpt lat="44.916165219502645" lon="11.991301900787182"><ele>-5.5</ele><time>2026-04-25T16:30:31Z</time></trkpt><trkpt lat="44.91624240076362" lon="11.991293372678658"><ele>-5.666666666666667</ele><time>2026-04-25T16:30:32Z</time></trkpt><trkpt lat="44.91632198351148" lon="11.991286917100052"><ele>-5.833333333333333</ele><time>2026-04-25T16:30:33Z</time></trkpt><trkpt lat="44.916403260805154" lon="11.99128716922668"><ele>-6.0</ele><time>2026-04-25T16:30:34Z</time></trkpt><trkpt lat="44.916478222502235" lon="11.99128742391358"><ele>-6.0</ele><time>2026-04-25T16:30:35Z</time></trkpt><trkpt lat="44.91655317943737" lon="11.991291552501057"><ele>-6.0</ele><time>2026-04-25T16:30:36Z</time></trkpt><trkpt lat="44.91662531346121" lon="11.99129592571123"><ele>-6.0</ele><time>2026-04-25T16:30:37Z</time></trkpt><trkpt lat="44.916703171559675" lon="11.991295574215894"><ele>-6.0</ele><time>2026-04-25T16:30:38Z</time></trkpt><trkpt lat="44.91677545253162" lon="11.991290090933276"><ele>-6.0</ele><time>2026-04-25T16:30:39Z</time></trkpt><trkpt lat="44.91684989836739" lon="11.991289553267155"><ele>-6.0</ele><time>2026-04-25T16:30:40Z</time></trkpt><trkpt lat="44.91692818113052" lon="11.991284156853244"><ele>-6.166666666666667</ele><time>2026-04-25T16:30:41Z</time></trkpt><trkpt lat="44.917004587369156" lon="11.99128209594224"><ele>-6.333333333333334</ele><time>2026-04-25T16:30:42Z</time></trkpt><trkpt lat="44.91708163699668" lon="11.991279514509706"><ele>-6.5</ele><time>2026-04-25T16:30:43Z</time></trkpt><trkpt lat="44.917158554007834" lon="11.991276397036223"><ele>-6.666666666666667</ele><time>2026-04-25T16:30:44Z</time></trkpt><trkpt lat="44.91723819916651" lon="11.991278382628467"><ele>-6.833333333333334</ele><time>2026-04-25T16:30:45Z</time></trkpt><trkpt lat="44.917314360061255" lon="11.991269564341025"><ele>-7.0</ele><time>2026-04-25T16:30:46Z</time></trkpt><trkpt lat="44.917392613347864" lon="11.991269239049322"><ele>-7.000000000000001</ele><time>2026-04-25T16:30:47Z</time></trkpt><trkpt lat="44.91746843570355" lon="11.991275134172945"><ele>-7.0</ele><time>2026-04-25T16:30:48Z</time></trkpt><trkpt lat="44.9175409474854" lon="11.991268883742341"><ele>-7.0</ele><time>2026-04-25T16:30:49Z</time></trkpt><trkpt lat="44.9176188271377" lon="11.99127114658798"><ele>-7.0</ele><time>2026-04-25T16:30:50Z</time></trkpt><trkpt lat="44.91769457133484" lon="11.991265573157618"><ele>-7.000000000000001</ele><time>2026-04-25T16:30:51Z</time></trkpt><trkpt lat="44.9177720392264" lon="11.991273974149452"><ele>-7.0</ele><time>2026-04-25T16:30:52Z</time></trkpt><trkpt lat="44.91784517567222" lon="11.991266941725454"><ele>-7.142857142857142</ele><time>2026-04-25T16:30:53Z</time></trkpt><trkpt lat="44.91791713954975" lon="11.991259861702678"><ele>-7.285714285714286</ele><time>2026-04-25T16:30:54Z</time></trkpt><trkpt lat="44.91799363005815" lon="11.99125801180281"><ele>-7.428571428571429</ele><time>2026-04-25T16:30:55Z</time></trkpt><trkpt lat="44.91806527681097" lon="11.991262029876115"><ele>-7.571428571428571</ele><time>2026-04-25T16:30:56Z</time></trkpt><trkpt lat="44.91814295524142" lon="11.991267649619129"><ele>-7.7142857142857135</ele><time>2026-04-25T16:30:57Z</time></trkpt><trkpt lat="44.91821735690656" lon="11.991280229379807"><ele>-7.857142857142857</ele><time>2026-04-25T16:30:58Z</time></trkpt><trkpt lat="44.918292670655696" lon="11.991285242154419"><ele>-8.0</ele><time>2026-04-25T16:30:59Z</time></trkpt><trkpt lat="44.91836976940007" lon="11.99128189908316"><ele>-7.666666666666666</ele><time>2026-04-25T16:31:00Z</time></trkpt><trkpt lat="44.91844795214388" lon="11.991282302291783"><ele>-7.333333333333333</ele><time>2026-04-25T16:31:01Z</time></trkpt><trkpt lat="44.91852720757269" lon="11.991281776650583"><ele>-7.0</ele><time>2026-04-25T16:31:02Z</time></trkpt><trkpt lat="44.91860415145211" lon="11.99127695175462"><ele>-6.666666666666666</ele><time>2026-04-25T16:31:03Z</time></trkpt><trkpt lat="44.918677639873344" lon="11.991273812886645"><ele>-6.333333333333333</ele><time>2026-04-25T16:31:04Z</time></trkpt><trkpt lat="44.918755358704395" lon="11.991258312016912"><ele>-6.0</ele><time>2026-04-25T16:31:05Z</time></trkpt><trkpt lat="44.91883306198" lon="11.991258024066234"><ele>-6.0</ele><time>2026-04-25T16:31:06Z</time></trkpt><trkpt lat="44.91891091757878" lon="11.991271515011835"><ele>-6.0</ele><time>2026-04-25T16:31:07Z</time></trkpt><trkpt lat="44.91898753085448" lon="11.991272632538708"><ele>-6.0</ele><time>2026-04-25T16:31:08Z</time></trkpt><trkpt lat="44.91906493849321" lon="11.991252735414761"><ele>-6.0</ele><time>2026-04-25T16:31:09Z</time></trkpt><trkpt lat="44.91914084620876" lon="11.991266291032964"><ele>-6.0</ele><time>2026-04-25T16:31:10Z</time></trkpt><trkpt lat="44.91921554531154" lon="11.991254517050635"><ele>-6.0</ele><time>2026-04-25T16:31:11Z</time></trkpt><trkpt lat="44.919288060267114" lon="11.991261043073537"><ele>-6.166666666666667</ele><time>2026-04-25T16:31:12Z</time></trkpt><trkpt lat="44.91936154746996" lon="11.991262281194397"><ele>-6.333333333333334</ele><time>2026-04-25T16:31:13Z</time></trkpt><trkpt lat="44.9194387237049" lon="11.991245686200704"><ele>-6.5</ele><time>2026-04-25T16:31:14Z</time></trkpt><trkpt lat="44.91951369491322" lon="11.991259258132452"><ele>-6.666666666666667</ele><time>2026-04-25T16:31:15Z</time></trkpt><trkpt lat="44.91959229069269" lon="11.991236467084743"><ele>-6.833333333333334</ele><time>2026-04-25T16:31:16Z</time></trkpt><trkpt lat="44.91966816362203" lon="11.991241893745375"><ele>-7.0</ele><time>2026-04-25T16:31:17Z</time></trkpt><trkpt lat="44.91974300958354" lon="11.991244782409813"><ele>-7.000000000000001</ele><time>2026-04-25T16:31:18Z</time></trkpt><trkpt lat="44.91982229722429" lon="11.991241110065587"><ele>-7.0</ele><time>2026-04-25T16:31:19Z</time></trkpt><trkpt lat="44.91989631583306" lon="11.991231035376924"><ele>-7.0</ele><time>2026-04-25T16:31:20Z</time></trkpt><trkpt lat="44.9199734349269" lon="11.991232414220107"><ele>-7.0</ele><time>2026-04-25T16:31:21Z</time></trkpt><trkpt lat="44.9200511534062" lon="11.991237449115053"><ele>-7.000000000000001</ele><time>2026-04-25T16:31:22Z</time></trkpt><trkpt lat="44.92012643231004" lon="11.991246194552838"><ele>-7.0</ele><time>2026-04-25T16:31:23Z</time></trkpt><trkpt lat="44.920204498521315" lon="11.991243655211631"><ele>-6.833333333333334</ele><time>2026-04-25T16:31:23.999Z</time></trkpt><trkpt lat="44.920283391251495" lon="11.991236062105559"><ele>-6.666666666666667</ele><time>2026-04-25T16:31:24.999Z</time></trkpt><trkpt lat="44.92035813483051" lon="11.991232787010308"><ele>-6.5</ele><time>2026-04-25T16:31:25.999Z</time></trkpt><trkpt lat="44.92043491962311" lon="11.991234453057045"><ele>-6.333333333333334</ele><time>2026-04-25T16:31:26.999Z</time></trkpt><trkpt lat="44.92051157315285" lon="11.991234144798197"><ele>-6.166666666666667</ele><time>2026-04-25T16:31:27.999Z</time></trkpt><trkpt lat="44.92058963485288" lon="11.99123423080908"><ele>-6.0</ele><time>2026-04-25T16:31:28.999Z</time></trkpt><trkpt lat="44.92066487155085" lon="11.99123149587485"><ele>-6.0</ele><time>2026-04-25T16:31:29.999Z</time></trkpt><trkpt lat="44.92073635985959" lon="11.991226870379052"><ele>-6.0</ele><time>2026-04-25T16:31:30.999Z</time></trkpt><trkpt lat="44.92080346119337" lon="11.991222293692012"><ele>-6.0</ele><time>2026-04-25T16:31:31.999Z</time></trkpt><trkpt lat="44.92087398476179" lon="11.991229413792455"><ele>-6.0</ele><time>2026-04-25T16:31:32.999Z</time></trkpt><trkpt lat="44.92093717219096" lon="11.991228731521632"><ele>-6.0</ele><time>2026-04-25T16:31:33.999Z</time></trkpt><trkpt lat="44.921003123758084" lon="11.991230403031254"><ele>-6.0</ele><time>2026-04-25T16:31:34.999Z</time></trkpt><trkpt lat="44.92112146047405" lon="11.99122505067845"><ele>-6.0</ele><time>2026-04-25T16:31:36.999Z</time></trkpt><trkpt lat="44.921246331071366" lon="11.991230939635793"><ele>-6.0</ele><time>2026-04-25T16:31:38.999Z</time></trkpt><trkpt lat="44.92131833933257" lon="11.99123070585875"><ele>-6.0</ele><time>2026-04-25T16:31:39.999Z</time></trkpt><trkpt lat="44.92139083232525" lon="11.991224593847344"><ele>-6.0</ele><time>2026-04-25T16:31:40.999Z</time></trkpt><trkpt lat="44.92146454235787" lon="11.991221977138625"><ele>-6.0</ele><time>2026-04-25T16:31:41.999Z</time></trkpt><trkpt lat="44.92153092553985" lon="11.99122512890994"><ele>-6.0</ele><time>2026-04-25T16:31:42.999Z</time></trkpt><trkpt lat="44.921602681396905" lon="11.991227292561287"><ele>-6.0</ele><time>2026-04-25T16:31:43.999Z</time></trkpt><trkpt lat="44.92166700679862" lon="11.991223670927772"><ele>-6.0</ele><time>2026-04-25T16:31:44.999Z</time></trkpt><trkpt lat="44.92176365889142" lon="11.991230686833285"><ele>-6.0</ele><time>2026-04-25T16:31:46.999Z</time></trkpt><trkpt lat="44.92183274060804" lon="11.991212151397185"><ele>-6.0</ele><time>2026-04-25T16:32:02.999Z</time></trkpt><trkpt lat="44.921911918491" lon="11.991212137328409"><ele>-6.0</ele><time>2026-04-25T16:32:05.999Z</time></trkpt><trkpt lat="44.9219924462418" lon="11.991211227020408"><ele>-6.0</ele><time>2026-04-25T16:32:08.999Z</time></trkpt><trkpt lat="44.92207838368183" lon="11.991233221258957"><ele>-6.0</ele><time>2026-04-25T16:32:11.999Z</time></trkpt><trkpt lat="44.9221563761002" lon="11.99122713930961"><ele>-6.0</ele><time>2026-04-25T16:32:13.999Z</time></trkpt><trkpt lat="44.922250261606166" lon="11.991216389080629"><ele>-6.0</ele><time>2026-04-25T16:32:15.999Z</time></trkpt><trkpt lat="44.92233285179537" lon="11.991213299784025"><ele>-6.0</ele><time>2026-04-25T16:32:17.999Z</time></trkpt><trkpt lat="44.92241063099608" lon="11.991214098805408"><ele>-6.0</ele><time>2026-04-25T16:32:19.999Z</time></trkpt><trkpt lat="44.922502548719706" lon="11.991220883169845"><ele>-6.0</ele><time>2026-04-25T16:32:21.999Z</time></trkpt><trkpt lat="44.92260305477511" lon="11.991211685359971"><ele>-6.199999999999999</ele><time>2026-04-25T16:32:23.999Z</time></trkpt><trkpt lat="44.92271238208325" lon="11.991212592222691"><ele>-6.3999999999999995</ele><time>2026-04-25T16:32:25.999Z</time></trkpt><trkpt lat="44.92283306308632" lon="11.991207408815773"><ele>-6.6</ele><time>2026-04-25T16:32:27.999Z</time></trkpt><trkpt lat="44.922964135370435" lon="11.991207924640424"><ele>-6.8</ele><time>2026-04-25T16:32:29.999Z</time></trkpt><trkpt lat="44.92303174217482" lon="11.991208789335992"><ele>-7.0</ele><time>2026-04-25T16:32:30.999Z</time></trkpt><trkpt lat="44.92309945301586" lon="11.991204300061405"><ele>-7.0</ele><time>2026-04-25T16:32:32Z</time></trkpt><trkpt lat="44.9231699894231" lon="11.991208915742329"><ele>-7.0</ele><time>2026-04-25T16:32:33Z</time></trkpt><trkpt lat="44.92324252554255" lon="11.991207821757571"><ele>-7.0</ele><time>2026-04-25T16:32:34Z</time></trkpt><trkpt lat="44.923312106435574" lon="11.991202555823175"><ele>-7.0</ele><time>2026-04-25T16:32:35Z</time></trkpt><trkpt lat="44.92338007347294" lon="11.991205880135077"><ele>-7.0</ele><time>2026-04-25T16:32:36Z</time></trkpt><trkpt lat="44.92344659340815" lon="11.991200514953407"><ele>-7.0</ele><time>2026-04-25T16:32:37Z</time></trkpt><trkpt lat="44.92351102855282" lon="11.991198012323489"><ele>-7.0</ele><time>2026-04-25T16:32:38Z</time></trkpt><trkpt lat="44.92357402913581" lon="11.991199886792163"><ele>-7.0</ele><time>2026-04-25T16:32:39Z</time></trkpt><trkpt lat="44.923637721039604" lon="11.991200559547144"><ele>-7.0</ele><time>2026-04-25T16:32:40Z</time></trkpt><trkpt lat="44.923703121200354" lon="11.991201354155377"><ele>-7.0</ele><time>2026-04-25T16:32:41Z</time></trkpt><trkpt lat="44.923772580117046" lon="11.991197894109352"><ele>-7.0</ele><time>2026-04-25T16:32:42Z</time></trkpt><trkpt lat="44.92384239557705" lon="11.991204537234246"><ele>-7.0</ele><time>2026-04-25T16:32:43Z</time></trkpt><trkpt lat="44.92391050792579" lon="11.991204628051497"><ele>-7.0</ele><time>2026-04-25T16:32:44Z</time></trkpt><trkpt lat="44.92397976804307" lon="11.991201737142912"><ele>-7.0</ele><time>2026-04-25T16:32:45Z</time></trkpt><trkpt lat="44.924104019899076" lon="11.991206054562937"><ele>-7.0</ele><time>2026-04-25T16:32:47Z</time></trkpt><trkpt lat="44.92422562852787" lon="11.991205105860534"><ele>-7.0</ele><time>2026-04-25T16:32:49Z</time></trkpt><trkpt lat="44.92434532851955" lon="11.991208292057893"><ele>-7.0</ele><time>2026-04-25T16:32:51Z</time></trkpt><trkpt lat="44.92444268099031" lon="11.991135970519032"><ele>-7.0</ele><time>2026-04-25T16:32:53Z</time></trkpt><trkpt lat="44.92448512608687" lon="11.990998650897197"><ele>-6.75</ele><time>2026-04-25T16:32:55Z</time></trkpt><trkpt lat="44.92447849353901" lon="11.990835197589103"><ele>-6.5</ele><time>2026-04-25T16:32:57Z</time></trkpt><trkpt lat="44.924471953613136" lon="11.990676149296752"><ele>-6.25</ele><time>2026-04-25T16:32:59Z</time></trkpt><trkpt lat="44.924468117091095" lon="11.990503009416404"><ele>-6.0</ele><time>2026-04-25T16:33:01Z</time></trkpt><trkpt lat="44.92446407767808" lon="11.990320713033736"><ele>-5.999999999999999</ele><time>2026-04-25T16:33:03Z</time></trkpt><trkpt lat="44.92446233592643" lon="11.99022776590357"><ele>-6.0</ele><time>2026-04-25T16:33:04Z</time></trkpt><trkpt lat="44.92446045271429" lon="11.990126929593607"><ele>-6.0</ele><time>2026-04-25T16:33:05Z</time></trkpt><trkpt lat="44.92445863458057" lon="11.990029578188212"><ele>-6.0</ele><time>2026-04-25T16:33:06Z</time></trkpt><trkpt lat="44.9244567154233" lon="11.989926817618679"><ele>-6.0</ele><time>2026-04-25T16:33:07Z</time></trkpt><trkpt lat="44.92445475692095" lon="11.989821950161401"><ele>-5.999999999999999</ele><time>2026-04-25T16:33:08Z</time></trkpt><trkpt lat="44.924452880664944" lon="11.989721486063937"><ele>-6.0</ele><time>2026-04-25T16:33:09Z</time></trkpt><trkpt lat="44.924450948409316" lon="11.98961802384839"><ele>-5.999999999999999</ele><time>2026-04-25T16:33:10Z</time></trkpt><trkpt lat="44.92444900867042" lon="11.989514161207609"><ele>-6.0</ele><time>2026-04-25T16:33:11Z</time></trkpt><trkpt lat="44.92444706985926" lon="11.989410348007981"><ele>-6.0</ele><time>2026-04-25T16:33:12Z</time></trkpt><trkpt lat="44.924445062692705" lon="11.989302874864777"><ele>-6.0</ele><time>2026-04-25T16:33:13Z</time></trkpt><trkpt lat="44.924443173838995" lon="11.989201736562302"><ele>-6.0</ele><time>2026-04-25T16:33:14Z</time></trkpt><trkpt lat="44.924441307232975" lon="11.989101789581785"><ele>-5.999999999999999</ele><time>2026-04-25T16:33:15Z</time></trkpt><trkpt lat="44.92443942414416" lon="11.989000960083425"><ele>-6.0</ele><time>2026-04-25T16:33:16Z</time></trkpt><trkpt lat="44.92443758128943" lon="11.988902287307473"><ele>-6.0</ele><time>2026-04-25T16:33:17Z</time></trkpt><trkpt lat="44.92441976821718" lon="11.988799300663842"><ele>-6.0</ele><time>2026-04-25T16:33:18Z</time></trkpt><trkpt lat="44.924419760242074" lon="11.988702532006696"><ele>-6.0</ele><time>2026-04-25T16:33:19Z</time></trkpt><trkpt lat="44.924417983544565" lon="11.98860440249887"><ele>-6.0</ele><time>2026-04-25T16:33:20Z</time></trkpt><trkpt lat="44.924429755945894" lon="11.988485026959072"><ele>-6.0</ele><time>2026-04-25T16:33:22Z</time></trkpt><trkpt lat="44.924306167620436" lon="11.988472833497838"><ele>-6.0</ele><time>2026-04-25T16:33:25Z</time></trkpt><trkpt lat="44.92423401011552" lon="11.988488794913044"><ele>-6.0</ele><time>2026-04-25T16:33:27Z</time></trkpt><trkpt lat="44.924185168789485" lon="11.988428438692454"><ele>-6.0</ele><time>2026-04-25T16:33:38.999Z</time></trkpt><trkpt lat="44.92422915402842" lon="11.988202701364173"><ele>-6.0</ele><time>2026-04-25T16:33:44.999Z</time></trkpt><trkpt lat="44.924273421760056" lon="11.988115281293279"><ele>-4.0</ele><time>2026-04-25T16:33:46.999Z</time></trkpt></trkseg></trk></gpx>